<?xml version="1.0" encoding="UTF-8"?>
<gpx version="1.1" creator="https://www.youtrack.es" xsi:schemaLocation="http://www.topografix.com/GPX/1/1 http://www.topografix.com/GPX/1/1/gpx.xsd http://www.garmin.com/xmlschemas/GpxExtensions/v3 http://www.garmin.com/xmlschemas/GpxExtensionsv3.xsd http://www.garmin.com/xmlschemas/TrackPointExtension/v1 http://www.garmin.com/xmlschemas/TrackPointExtensionv1.xsd" xmlns:gpxtpx="http://www.garmin.com/xmlschemas/TrackPointExtension/v1" xmlns:gpxx="http://www.garmin.com/xmlschemas/GpxExtensions/v3" xmlns:xsi="http://www.w3.org/2001/XMLSchema-instance">
  <metadata>
    <link href="https://www.youtrack.es">
      <text>YouTrack.es</text>
    </link>
    <time>2026-05-08T03:03:43Z</time>
  </metadata>
  <trk>
    <src>https://www.youtrack.es</src>
    <link href="https://www.youtrack.es/ruta/911-calp-gandia-pego-calp">
      <text>YouTrack.es</text>
    </link>
    <trkseg>
      <trkpt lat="38.64422283" lon="0.0391085">
        <ele>62.0</ele>
        <time>2018-06-10T05:35:05.000Z</time>
      </trkpt>
      <trkpt lat="38.64422067" lon="0.03907117">
        <ele>60.0</ele>
        <time>2018-06-10T05:35:06.000Z</time>
      </trkpt>
      <trkpt lat="38.64422533" lon="0.03903217">
        <ele>60.0</ele>
        <time>2018-06-10T05:35:07.000Z</time>
      </trkpt>
      <trkpt lat="38.6442295" lon="0.03899033">
        <ele>60.0</ele>
        <time>2018-06-10T05:35:08.000Z</time>
      </trkpt>
      <trkpt lat="38.64423517" lon="0.03894617">
        <ele>60.0</ele>
        <time>2018-06-10T05:35:09.000Z</time>
      </trkpt>
      <trkpt lat="38.64423883" lon="0.03889967">
        <ele>60.0</ele>
        <time>2018-06-10T05:35:10.000Z</time>
      </trkpt>
      <trkpt lat="38.644244" lon="0.03885467">
        <ele>60.0</ele>
        <time>2018-06-10T05:35:11.000Z</time>
      </trkpt>
      <trkpt lat="38.64424967" lon="0.038813">
        <ele>60.0</ele>
        <time>2018-06-10T05:35:12.000Z</time>
      </trkpt>
      <trkpt lat="38.64425467" lon="0.0387745">
        <ele>59.0</ele>
        <time>2018-06-10T05:35:13.000Z</time>
      </trkpt>
      <trkpt lat="38.64425867" lon="0.03873783">
        <ele>59.0</ele>
        <time>2018-06-10T05:35:14.000Z</time>
      </trkpt>
      <trkpt lat="38.64425983" lon="0.03870033">
        <ele>60.0</ele>
        <time>2018-06-10T05:35:15.000Z</time>
      </trkpt>
      <trkpt lat="38.644259" lon="0.0386615">
        <ele>59.0</ele>
        <time>2018-06-10T05:35:16.000Z</time>
      </trkpt>
      <trkpt lat="38.644257" lon="0.038621">
        <ele>59.0</ele>
        <time>2018-06-10T05:35:17.000Z</time>
      </trkpt>
      <trkpt lat="38.644252" lon="0.03857833">
        <ele>59.0</ele>
        <time>2018-06-10T05:35:18.000Z</time>
      </trkpt>
      <trkpt lat="38.64423867" lon="0.03853233">
        <ele>59.0</ele>
        <time>2018-06-10T05:35:19.000Z</time>
      </trkpt>
      <trkpt lat="38.64422233" lon="0.038486">
        <ele>59.0</ele>
        <time>2018-06-10T05:35:20.000Z</time>
      </trkpt>
      <trkpt lat="38.644206" lon="0.03844133">
        <ele>58.0</ele>
        <time>2018-06-10T05:35:21.000Z</time>
      </trkpt>
      <trkpt lat="38.64419383" lon="0.03839867">
        <ele>58.0</ele>
        <time>2018-06-10T05:35:22.000Z</time>
      </trkpt>
      <trkpt lat="38.64417667" lon="0.03835483">
        <ele>58.0</ele>
        <time>2018-06-10T05:35:23.000Z</time>
      </trkpt>
      <trkpt lat="38.6441555" lon="0.03830967">
        <ele>58.0</ele>
        <time>2018-06-10T05:35:24.000Z</time>
      </trkpt>
      <trkpt lat="38.64413483" lon="0.03826433">
        <ele>58.0</ele>
        <time>2018-06-10T05:35:25.000Z</time>
      </trkpt>
      <trkpt lat="38.64411983" lon="0.03822117">
        <ele>57.0</ele>
        <time>2018-06-10T05:35:26.000Z</time>
      </trkpt>
      <trkpt lat="38.6441085" lon="0.03818233">
        <ele>57.0</ele>
        <time>2018-06-10T05:35:27.000Z</time>
      </trkpt>
      <trkpt lat="38.64409817" lon="0.03814467">
        <ele>57.0</ele>
        <time>2018-06-10T05:35:28.000Z</time>
      </trkpt>
      <trkpt lat="38.644094" lon="0.03810517">
        <ele>57.0</ele>
        <time>2018-06-10T05:35:29.000Z</time>
      </trkpt>
      <trkpt lat="38.64409817" lon="0.0380625">
        <ele>56.0</ele>
        <time>2018-06-10T05:35:30.000Z</time>
      </trkpt>
      <trkpt lat="38.64411117" lon="0.0380195">
        <ele>56.0</ele>
        <time>2018-06-10T05:35:31.000Z</time>
      </trkpt>
      <trkpt lat="38.64412617" lon="0.037977">
        <ele>56.0</ele>
        <time>2018-06-10T05:35:32.000Z</time>
      </trkpt>
      <trkpt lat="38.64414233" lon="0.03793417">
        <ele>56.0</ele>
        <time>2018-06-10T05:35:33.000Z</time>
      </trkpt>
      <trkpt lat="38.64415983" lon="0.03789067">
        <ele>56.0</ele>
        <time>2018-06-10T05:35:34.000Z</time>
      </trkpt>
      <trkpt lat="38.64417967" lon="0.03784767">
        <ele>56.0</ele>
        <time>2018-06-10T05:35:35.000Z</time>
      </trkpt>
      <trkpt lat="38.64420167" lon="0.03780633">
        <ele>56.0</ele>
        <time>2018-06-10T05:35:36.000Z</time>
      </trkpt>
      <trkpt lat="38.64422533" lon="0.037768">
        <ele>56.0</ele>
        <time>2018-06-10T05:35:37.000Z</time>
      </trkpt>
      <trkpt lat="38.64424917" lon="0.03773133">
        <ele>56.0</ele>
        <time>2018-06-10T05:35:38.000Z</time>
      </trkpt>
      <trkpt lat="38.64427467" lon="0.03769767">
        <ele>56.0</ele>
        <time>2018-06-10T05:35:39.000Z</time>
      </trkpt>
      <trkpt lat="38.644301" lon="0.03766533">
        <ele>56.0</ele>
        <time>2018-06-10T05:35:40.000Z</time>
      </trkpt>
      <trkpt lat="38.644329" lon="0.03763483">
        <ele>56.0</ele>
        <time>2018-06-10T05:35:41.000Z</time>
      </trkpt>
      <trkpt lat="38.6443585" lon="0.0376055">
        <ele>56.0</ele>
        <time>2018-06-10T05:35:42.000Z</time>
      </trkpt>
      <trkpt lat="38.64438867" lon="0.037578">
        <ele>56.0</ele>
        <time>2018-06-10T05:35:43.000Z</time>
      </trkpt>
      <trkpt lat="38.6444195" lon="0.037552">
        <ele>56.0</ele>
        <time>2018-06-10T05:35:44.000Z</time>
      </trkpt>
      <trkpt lat="38.6444505" lon="0.03752783">
        <ele>56.0</ele>
        <time>2018-06-10T05:35:45.000Z</time>
      </trkpt>
      <trkpt lat="38.64448267" lon="0.03750583">
        <ele>56.0</ele>
        <time>2018-06-10T05:35:46.000Z</time>
      </trkpt>
      <trkpt lat="38.64451533" lon="0.03748583">
        <ele>57.0</ele>
        <time>2018-06-10T05:35:47.000Z</time>
      </trkpt>
      <trkpt lat="38.64454817" lon="0.0374675">
        <ele>58.0</ele>
        <time>2018-06-10T05:35:48.000Z</time>
      </trkpt>
      <trkpt lat="38.6445805" lon="0.0374505">
        <ele>58.0</ele>
        <time>2018-06-10T05:35:49.000Z</time>
      </trkpt>
      <trkpt lat="38.64461233" lon="0.03743483">
        <ele>58.0</ele>
        <time>2018-06-10T05:35:50.000Z</time>
      </trkpt>
      <trkpt lat="38.64464283" lon="0.03742017">
        <ele>59.0</ele>
        <time>2018-06-10T05:35:51.000Z</time>
      </trkpt>
      <trkpt lat="38.6446735" lon="0.03740833">
        <ele>59.0</ele>
        <time>2018-06-10T05:35:52.000Z</time>
      </trkpt>
      <trkpt lat="38.64470367" lon="0.03739933">
        <ele>59.0</ele>
        <time>2018-06-10T05:35:53.000Z</time>
      </trkpt>
      <trkpt lat="38.64473383" lon="0.03739317">
        <ele>59.0</ele>
        <time>2018-06-10T05:35:54.000Z</time>
      </trkpt>
      <trkpt lat="38.644762" lon="0.0373865">
        <ele>60.0</ele>
        <time>2018-06-10T05:35:55.000Z</time>
      </trkpt>
      <trkpt lat="38.64478917" lon="0.037379">
        <ele>60.0</ele>
        <time>2018-06-10T05:35:56.000Z</time>
      </trkpt>
      <trkpt lat="38.644816" lon="0.03737183">
        <ele>60.0</ele>
        <time>2018-06-10T05:35:57.000Z</time>
      </trkpt>
      <trkpt lat="38.64484383" lon="0.03736583">
        <ele>60.0</ele>
        <time>2018-06-10T05:35:58.000Z</time>
      </trkpt>
      <trkpt lat="38.644874" lon="0.0373645">
        <ele>60.0</ele>
        <time>2018-06-10T05:35:59.000Z</time>
      </trkpt>
      <trkpt lat="38.64490667" lon="0.03736933">
        <ele>59.0</ele>
        <time>2018-06-10T05:36:00.000Z</time>
      </trkpt>
      <trkpt lat="38.6449415" lon="0.03738433">
        <ele>59.0</ele>
        <time>2018-06-10T05:36:01.000Z</time>
      </trkpt>
      <trkpt lat="38.644977" lon="0.03740533">
        <ele>58.0</ele>
        <time>2018-06-10T05:36:02.000Z</time>
      </trkpt>
      <trkpt lat="38.645013" lon="0.03742983">
        <ele>58.0</ele>
        <time>2018-06-10T05:36:03.000Z</time>
      </trkpt>
      <trkpt lat="38.6450515" lon="0.03745167">
        <ele>58.0</ele>
        <time>2018-06-10T05:36:04.000Z</time>
      </trkpt>
      <trkpt lat="38.64509283" lon="0.03746833">
        <ele>58.0</ele>
        <time>2018-06-10T05:36:05.000Z</time>
      </trkpt>
      <trkpt lat="38.6451365" lon="0.03747483">
        <ele>59.0</ele>
        <time>2018-06-10T05:36:06.000Z</time>
      </trkpt>
      <trkpt lat="38.6451785" lon="0.0374695">
        <ele>59.0</ele>
        <time>2018-06-10T05:36:07.000Z</time>
      </trkpt>
      <trkpt lat="38.64521833" lon="0.037453">
        <ele>59.0</ele>
        <time>2018-06-10T05:36:08.000Z</time>
      </trkpt>
      <trkpt lat="38.64525283" lon="0.03742667">
        <ele>59.0</ele>
        <time>2018-06-10T05:36:09.000Z</time>
      </trkpt>
      <trkpt lat="38.6452815" lon="0.03739267">
        <ele>59.0</ele>
        <time>2018-06-10T05:36:10.000Z</time>
      </trkpt>
      <trkpt lat="38.645302" lon="0.0373505">
        <ele>59.0</ele>
        <time>2018-06-10T05:36:11.000Z</time>
      </trkpt>
      <trkpt lat="38.6453155" lon="0.037304">
        <ele>59.0</ele>
        <time>2018-06-10T05:36:12.000Z</time>
      </trkpt>
      <trkpt lat="38.645322" lon="0.03725417">
        <ele>59.0</ele>
        <time>2018-06-10T05:36:13.000Z</time>
      </trkpt>
      <trkpt lat="38.64532367" lon="0.037205">
        <ele>59.0</ele>
        <time>2018-06-10T05:36:14.000Z</time>
      </trkpt>
      <trkpt lat="38.64532" lon="0.037157">
        <ele>59.0</ele>
        <time>2018-06-10T05:36:15.000Z</time>
      </trkpt>
      <trkpt lat="38.64531333" lon="0.03711067">
        <ele>60.0</ele>
        <time>2018-06-10T05:36:16.000Z</time>
      </trkpt>
      <trkpt lat="38.64530567" lon="0.0370655">
        <ele>60.0</ele>
        <time>2018-06-10T05:36:17.000Z</time>
      </trkpt>
      <trkpt lat="38.6453" lon="0.03701967">
        <ele>60.0</ele>
        <time>2018-06-10T05:36:18.000Z</time>
      </trkpt>
      <trkpt lat="38.64529667" lon="0.03697333">
        <ele>60.0</ele>
        <time>2018-06-10T05:36:19.000Z</time>
      </trkpt>
      <trkpt lat="38.64529567" lon="0.0369265">
        <ele>60.0</ele>
        <time>2018-06-10T05:36:20.000Z</time>
      </trkpt>
      <trkpt lat="38.64529633" lon="0.03688017">
        <ele>61.0</ele>
        <time>2018-06-10T05:36:21.000Z</time>
      </trkpt>
      <trkpt lat="38.645299" lon="0.036835">
        <ele>61.0</ele>
        <time>2018-06-10T05:36:22.000Z</time>
      </trkpt>
      <trkpt lat="38.645303" lon="0.03679133">
        <ele>61.0</ele>
        <time>2018-06-10T05:36:23.000Z</time>
      </trkpt>
      <trkpt lat="38.64530833" lon="0.03674917">
        <ele>61.0</ele>
        <time>2018-06-10T05:36:24.000Z</time>
      </trkpt>
      <trkpt lat="38.6453155" lon="0.0367085">
        <ele>62.0</ele>
        <time>2018-06-10T05:36:25.000Z</time>
      </trkpt>
      <trkpt lat="38.64532417" lon="0.036669">
        <ele>62.0</ele>
        <time>2018-06-10T05:36:26.000Z</time>
      </trkpt>
      <trkpt lat="38.64533367" lon="0.03663033">
        <ele>62.0</ele>
        <time>2018-06-10T05:36:27.000Z</time>
      </trkpt>
      <trkpt lat="38.64534333" lon="0.03659183">
        <ele>62.0</ele>
        <time>2018-06-10T05:36:28.000Z</time>
      </trkpt>
      <trkpt lat="38.645352" lon="0.03655317">
        <ele>63.0</ele>
        <time>2018-06-10T05:36:29.000Z</time>
      </trkpt>
      <trkpt lat="38.64535967" lon="0.03651467">
        <ele>63.0</ele>
        <time>2018-06-10T05:36:30.000Z</time>
      </trkpt>
      <trkpt lat="38.6453665" lon="0.03647683">
        <ele>63.0</ele>
        <time>2018-06-10T05:36:31.000Z</time>
      </trkpt>
      <trkpt lat="38.645373" lon="0.03643933">
        <ele>64.0</ele>
        <time>2018-06-10T05:36:32.000Z</time>
      </trkpt>
      <trkpt lat="38.64537983" lon="0.03640183">
        <ele>64.0</ele>
        <time>2018-06-10T05:36:33.000Z</time>
      </trkpt>
      <trkpt lat="38.64538617" lon="0.03636417">
        <ele>64.0</ele>
        <time>2018-06-10T05:36:34.000Z</time>
      </trkpt>
      <trkpt lat="38.64539267" lon="0.0363265">
        <ele>64.0</ele>
        <time>2018-06-10T05:36:35.000Z</time>
      </trkpt>
      <trkpt lat="38.6453995" lon="0.03628883">
        <ele>65.0</ele>
        <time>2018-06-10T05:36:36.000Z</time>
      </trkpt>
      <trkpt lat="38.64540683" lon="0.03625133">
        <ele>65.0</ele>
        <time>2018-06-10T05:36:37.000Z</time>
      </trkpt>
      <trkpt lat="38.64541533" lon="0.0362145">
        <ele>65.0</ele>
        <time>2018-06-10T05:36:38.000Z</time>
      </trkpt>
      <trkpt lat="38.64542617" lon="0.03617867">
        <ele>65.0</ele>
        <time>2018-06-10T05:36:39.000Z</time>
      </trkpt>
      <trkpt lat="38.64543817" lon="0.03614367">
        <ele>66.0</ele>
        <time>2018-06-10T05:36:40.000Z</time>
      </trkpt>
      <trkpt lat="38.64545033" lon="0.03610967">
        <ele>66.0</ele>
        <time>2018-06-10T05:36:41.000Z</time>
      </trkpt>
      <trkpt lat="38.64546117" lon="0.03607533">
        <ele>66.0</ele>
        <time>2018-06-10T05:36:42.000Z</time>
      </trkpt>
      <trkpt lat="38.64547183" lon="0.03604083">
        <ele>66.0</ele>
        <time>2018-06-10T05:36:43.000Z</time>
      </trkpt>
      <trkpt lat="38.64548267" lon="0.03600567">
        <ele>67.0</ele>
        <time>2018-06-10T05:36:44.000Z</time>
      </trkpt>
      <trkpt lat="38.645494" lon="0.03597067">
        <ele>67.0</ele>
        <time>2018-06-10T05:36:45.000Z</time>
      </trkpt>
      <trkpt lat="38.645506" lon="0.03593617">
        <ele>68.0</ele>
        <time>2018-06-10T05:36:46.000Z</time>
      </trkpt>
      <trkpt lat="38.64551833" lon="0.03590167">
        <ele>68.0</ele>
        <time>2018-06-10T05:36:47.000Z</time>
      </trkpt>
      <trkpt lat="38.64553067" lon="0.0358675">
        <ele>68.0</ele>
        <time>2018-06-10T05:36:48.000Z</time>
      </trkpt>
      <trkpt lat="38.64554267" lon="0.035835">
        <ele>68.0</ele>
        <time>2018-06-10T05:36:49.000Z</time>
      </trkpt>
      <trkpt lat="38.64555367" lon="0.03580283">
        <ele>69.0</ele>
        <time>2018-06-10T05:36:50.000Z</time>
      </trkpt>
      <trkpt lat="38.645565" lon="0.03577133">
        <ele>69.0</ele>
        <time>2018-06-10T05:36:51.000Z</time>
      </trkpt>
      <trkpt lat="38.64557667" lon="0.03573917">
        <ele>69.0</ele>
        <time>2018-06-10T05:36:52.000Z</time>
      </trkpt>
      <trkpt lat="38.64558817" lon="0.03570683">
        <ele>70.0</ele>
        <time>2018-06-10T05:36:53.000Z</time>
      </trkpt>
      <trkpt lat="38.645599" lon="0.03567367">
        <ele>70.0</ele>
        <time>2018-06-10T05:36:54.000Z</time>
      </trkpt>
      <trkpt lat="38.64561" lon="0.03564017">
        <ele>70.0</ele>
        <time>2018-06-10T05:36:55.000Z</time>
      </trkpt>
      <trkpt lat="38.64562217" lon="0.03560667">
        <ele>70.0</ele>
        <time>2018-06-10T05:36:56.000Z</time>
      </trkpt>
      <trkpt lat="38.645635" lon="0.03557333">
        <ele>70.0</ele>
        <time>2018-06-10T05:36:57.000Z</time>
      </trkpt>
      <trkpt lat="38.64564733" lon="0.03553867">
        <ele>71.0</ele>
        <time>2018-06-10T05:36:58.000Z</time>
      </trkpt>
      <trkpt lat="38.64565833" lon="0.03550317">
        <ele>71.0</ele>
        <time>2018-06-10T05:36:59.000Z</time>
      </trkpt>
      <trkpt lat="38.64566933" lon="0.03546667">
        <ele>71.0</ele>
        <time>2018-06-10T05:37:00.000Z</time>
      </trkpt>
      <trkpt lat="38.64568033" lon="0.03543067">
        <ele>72.0</ele>
        <time>2018-06-10T05:37:01.000Z</time>
      </trkpt>
      <trkpt lat="38.645692" lon="0.03539533">
        <ele>72.0</ele>
        <time>2018-06-10T05:37:02.000Z</time>
      </trkpt>
      <trkpt lat="38.6457035" lon="0.035361">
        <ele>72.0</ele>
        <time>2018-06-10T05:37:03.000Z</time>
      </trkpt>
      <trkpt lat="38.645715" lon="0.0353275">
        <ele>73.0</ele>
        <time>2018-06-10T05:37:04.000Z</time>
      </trkpt>
      <trkpt lat="38.64572667" lon="0.03529433">
        <ele>73.0</ele>
        <time>2018-06-10T05:37:05.000Z</time>
      </trkpt>
      <trkpt lat="38.64573817" lon="0.03526083">
        <ele>73.0</ele>
        <time>2018-06-10T05:37:06.000Z</time>
      </trkpt>
      <trkpt lat="38.64574933" lon="0.03522667">
        <ele>73.0</ele>
        <time>2018-06-10T05:37:07.000Z</time>
      </trkpt>
      <trkpt lat="38.6457605" lon="0.03519233">
        <ele>74.0</ele>
        <time>2018-06-10T05:37:08.000Z</time>
      </trkpt>
      <trkpt lat="38.645772" lon="0.03515817">
        <ele>74.0</ele>
        <time>2018-06-10T05:37:09.000Z</time>
      </trkpt>
      <trkpt lat="38.645784" lon="0.0351245">
        <ele>74.0</ele>
        <time>2018-06-10T05:37:10.000Z</time>
      </trkpt>
      <trkpt lat="38.64579583" lon="0.03509067">
        <ele>75.0</ele>
        <time>2018-06-10T05:37:11.000Z</time>
      </trkpt>
      <trkpt lat="38.6458075" lon="0.03505683">
        <ele>75.0</ele>
        <time>2018-06-10T05:37:12.000Z</time>
      </trkpt>
      <trkpt lat="38.64581867" lon="0.03502283">
        <ele>75.0</ele>
        <time>2018-06-10T05:37:13.000Z</time>
      </trkpt>
      <trkpt lat="38.6458305" lon="0.03499">
        <ele>75.0</ele>
        <time>2018-06-10T05:37:14.000Z</time>
      </trkpt>
      <trkpt lat="38.64584267" lon="0.03495867">
        <ele>76.0</ele>
        <time>2018-06-10T05:37:15.000Z</time>
      </trkpt>
      <trkpt lat="38.64585683" lon="0.03493017">
        <ele>76.0</ele>
        <time>2018-06-10T05:37:16.000Z</time>
      </trkpt>
      <trkpt lat="38.64587317" lon="0.03490583">
        <ele>76.0</ele>
        <time>2018-06-10T05:37:17.000Z</time>
      </trkpt>
      <trkpt lat="38.64589217" lon="0.03488767">
        <ele>76.0</ele>
        <time>2018-06-10T05:37:18.000Z</time>
      </trkpt>
      <trkpt lat="38.64591217" lon="0.03487583">
        <ele>76.0</ele>
        <time>2018-06-10T05:37:19.000Z</time>
      </trkpt>
      <trkpt lat="38.64593233" lon="0.0348695">
        <ele>76.0</ele>
        <time>2018-06-10T05:37:20.000Z</time>
      </trkpt>
      <trkpt lat="38.645953" lon="0.0348675">
        <ele>76.0</ele>
        <time>2018-06-10T05:37:21.000Z</time>
      </trkpt>
      <trkpt lat="38.64597417" lon="0.03487">
        <ele>76.0</ele>
        <time>2018-06-10T05:37:22.000Z</time>
      </trkpt>
      <trkpt lat="38.64599483" lon="0.034878">
        <ele>76.0</ele>
        <time>2018-06-10T05:37:23.000Z</time>
      </trkpt>
      <trkpt lat="38.64601517" lon="0.03489217">
        <ele>76.0</ele>
        <time>2018-06-10T05:37:24.000Z</time>
      </trkpt>
      <trkpt lat="38.6460345" lon="0.03491017">
        <ele>76.0</ele>
        <time>2018-06-10T05:37:25.000Z</time>
      </trkpt>
      <trkpt lat="38.64605383" lon="0.03492967">
        <ele>76.0</ele>
        <time>2018-06-10T05:37:26.000Z</time>
      </trkpt>
      <trkpt lat="38.64607333" lon="0.0349475">
        <ele>76.0</ele>
        <time>2018-06-10T05:37:27.000Z</time>
      </trkpt>
      <trkpt lat="38.64609367" lon="0.0349675">
        <ele>76.0</ele>
        <time>2018-06-10T05:37:28.000Z</time>
      </trkpt>
      <trkpt lat="38.64611467" lon="0.03498917">
        <ele>76.0</ele>
        <time>2018-06-10T05:37:29.000Z</time>
      </trkpt>
      <trkpt lat="38.64613733" lon="0.03501383">
        <ele>76.0</ele>
        <time>2018-06-10T05:37:30.000Z</time>
      </trkpt>
      <trkpt lat="38.64616117" lon="0.03503917">
        <ele>76.0</ele>
        <time>2018-06-10T05:37:31.000Z</time>
      </trkpt>
      <trkpt lat="38.646186" lon="0.03506467">
        <ele>75.0</ele>
        <time>2018-06-10T05:37:32.000Z</time>
      </trkpt>
      <trkpt lat="38.64621017" lon="0.0350905">
        <ele>75.0</ele>
        <time>2018-06-10T05:37:33.000Z</time>
      </trkpt>
      <trkpt lat="38.64623467" lon="0.035116">
        <ele>75.0</ele>
        <time>2018-06-10T05:37:34.000Z</time>
      </trkpt>
      <trkpt lat="38.64625883" lon="0.03514217">
        <ele>75.0</ele>
        <time>2018-06-10T05:37:35.000Z</time>
      </trkpt>
      <trkpt lat="38.64628233" lon="0.03516933">
        <ele>74.0</ele>
        <time>2018-06-10T05:37:36.000Z</time>
      </trkpt>
      <trkpt lat="38.64630483" lon="0.03519767">
        <ele>74.0</ele>
        <time>2018-06-10T05:37:37.000Z</time>
      </trkpt>
      <trkpt lat="38.64632817" lon="0.03522733">
        <ele>74.0</ele>
        <time>2018-06-10T05:37:38.000Z</time>
      </trkpt>
      <trkpt lat="38.64635367" lon="0.03525817">
        <ele>74.0</ele>
        <time>2018-06-10T05:37:39.000Z</time>
      </trkpt>
      <trkpt lat="38.64638067" lon="0.03529">
        <ele>74.0</ele>
        <time>2018-06-10T05:37:40.000Z</time>
      </trkpt>
      <trkpt lat="38.64640833" lon="0.03532217">
        <ele>74.0</ele>
        <time>2018-06-10T05:37:41.000Z</time>
      </trkpt>
      <trkpt lat="38.6464355" lon="0.03535567">
        <ele>74.0</ele>
        <time>2018-06-10T05:37:42.000Z</time>
      </trkpt>
      <trkpt lat="38.646463" lon="0.03538983">
        <ele>74.0</ele>
        <time>2018-06-10T05:37:43.000Z</time>
      </trkpt>
      <trkpt lat="38.646491" lon="0.03542433">
        <ele>74.0</ele>
        <time>2018-06-10T05:37:44.000Z</time>
      </trkpt>
      <trkpt lat="38.64651983" lon="0.03545817">
        <ele>74.0</ele>
        <time>2018-06-10T05:37:45.000Z</time>
      </trkpt>
      <trkpt lat="38.646549" lon="0.03549167">
        <ele>74.0</ele>
        <time>2018-06-10T05:37:46.000Z</time>
      </trkpt>
      <trkpt lat="38.64657867" lon="0.03552567">
        <ele>74.0</ele>
        <time>2018-06-10T05:37:47.000Z</time>
      </trkpt>
      <trkpt lat="38.64660883" lon="0.03555967">
        <ele>74.0</ele>
        <time>2018-06-10T05:37:48.000Z</time>
      </trkpt>
      <trkpt lat="38.64663967" lon="0.0355945">
        <ele>74.0</ele>
        <time>2018-06-10T05:37:49.000Z</time>
      </trkpt>
      <trkpt lat="38.646671" lon="0.0356295">
        <ele>74.0</ele>
        <time>2018-06-10T05:37:50.000Z</time>
      </trkpt>
      <trkpt lat="38.646703" lon="0.035665">
        <ele>74.0</ele>
        <time>2018-06-10T05:37:51.000Z</time>
      </trkpt>
      <trkpt lat="38.64673567" lon="0.035701">
        <ele>74.0</ele>
        <time>2018-06-10T05:37:52.000Z</time>
      </trkpt>
      <trkpt lat="38.646769" lon="0.03573767">
        <ele>74.0</ele>
        <time>2018-06-10T05:37:53.000Z</time>
      </trkpt>
      <trkpt lat="38.64680317" lon="0.035775">
        <ele>74.0</ele>
        <time>2018-06-10T05:37:54.000Z</time>
      </trkpt>
      <trkpt lat="38.64683883" lon="0.03581233">
        <ele>74.0</ele>
        <time>2018-06-10T05:37:55.000Z</time>
      </trkpt>
      <trkpt lat="38.646876" lon="0.03585033">
        <ele>74.0</ele>
        <time>2018-06-10T05:37:56.000Z</time>
      </trkpt>
      <trkpt lat="38.64691433" lon="0.035889">
        <ele>74.0</ele>
        <time>2018-06-10T05:37:57.000Z</time>
      </trkpt>
      <trkpt lat="38.646954" lon="0.035928">
        <ele>74.0</ele>
        <time>2018-06-10T05:37:58.000Z</time>
      </trkpt>
      <trkpt lat="38.646995" lon="0.03596583">
        <ele>74.0</ele>
        <time>2018-06-10T05:37:59.000Z</time>
      </trkpt>
      <trkpt lat="38.647037" lon="0.03600317">
        <ele>74.0</ele>
        <time>2018-06-10T05:38:00.000Z</time>
      </trkpt>
      <trkpt lat="38.64707967" lon="0.03604017">
        <ele>73.0</ele>
        <time>2018-06-10T05:38:01.000Z</time>
      </trkpt>
      <trkpt lat="38.64712283" lon="0.0360775">
        <ele>73.0</ele>
        <time>2018-06-10T05:38:02.000Z</time>
      </trkpt>
      <trkpt lat="38.64716667" lon="0.0361155">
        <ele>73.0</ele>
        <time>2018-06-10T05:38:03.000Z</time>
      </trkpt>
      <trkpt lat="38.647211" lon="0.03615433">
        <ele>72.0</ele>
        <time>2018-06-10T05:38:04.000Z</time>
      </trkpt>
      <trkpt lat="38.64725633" lon="0.03619417">
        <ele>72.0</ele>
        <time>2018-06-10T05:38:05.000Z</time>
      </trkpt>
      <trkpt lat="38.6473035" lon="0.0362345">
        <ele>72.0</ele>
        <time>2018-06-10T05:38:06.000Z</time>
      </trkpt>
      <trkpt lat="38.64735117" lon="0.036275">
        <ele>72.0</ele>
        <time>2018-06-10T05:38:07.000Z</time>
      </trkpt>
      <trkpt lat="38.64739933" lon="0.03631617">
        <ele>72.0</ele>
        <time>2018-06-10T05:38:08.000Z</time>
      </trkpt>
      <trkpt lat="38.64744767" lon="0.0363575">
        <ele>72.0</ele>
        <time>2018-06-10T05:38:09.000Z</time>
      </trkpt>
      <trkpt lat="38.647497" lon="0.03639867">
        <ele>72.0</ele>
        <time>2018-06-10T05:38:10.000Z</time>
      </trkpt>
      <trkpt lat="38.64754667" lon="0.03644">
        <ele>72.0</ele>
        <time>2018-06-10T05:38:11.000Z</time>
      </trkpt>
      <trkpt lat="38.6475965" lon="0.03648117">
        <ele>71.0</ele>
        <time>2018-06-10T05:38:12.000Z</time>
      </trkpt>
      <trkpt lat="38.64764633" lon="0.0365225">
        <ele>71.0</ele>
        <time>2018-06-10T05:38:13.000Z</time>
      </trkpt>
      <trkpt lat="38.647696" lon="0.03656367">
        <ele>71.0</ele>
        <time>2018-06-10T05:38:14.000Z</time>
      </trkpt>
      <trkpt lat="38.64774517" lon="0.036604">
        <ele>71.0</ele>
        <time>2018-06-10T05:38:15.000Z</time>
      </trkpt>
      <trkpt lat="38.647793" lon="0.03664367">
        <ele>71.0</ele>
        <time>2018-06-10T05:38:16.000Z</time>
      </trkpt>
      <trkpt lat="38.6478405" lon="0.03668333">
        <ele>71.0</ele>
        <time>2018-06-10T05:38:17.000Z</time>
      </trkpt>
      <trkpt lat="38.64788817" lon="0.036723">
        <ele>71.0</ele>
        <time>2018-06-10T05:38:18.000Z</time>
      </trkpt>
      <trkpt lat="38.64793617" lon="0.03676333">
        <ele>71.0</ele>
        <time>2018-06-10T05:38:19.000Z</time>
      </trkpt>
      <trkpt lat="38.6479845" lon="0.03680417">
        <ele>71.0</ele>
        <time>2018-06-10T05:38:20.000Z</time>
      </trkpt>
      <trkpt lat="38.64803383" lon="0.03684533">
        <ele>71.0</ele>
        <time>2018-06-10T05:38:21.000Z</time>
      </trkpt>
      <trkpt lat="38.64808367" lon="0.036887">
        <ele>70.0</ele>
        <time>2018-06-10T05:38:22.000Z</time>
      </trkpt>
      <trkpt lat="38.64813383" lon="0.03692833">
        <ele>70.0</ele>
        <time>2018-06-10T05:38:23.000Z</time>
      </trkpt>
      <trkpt lat="38.64818383" lon="0.03697017">
        <ele>70.0</ele>
        <time>2018-06-10T05:38:24.000Z</time>
      </trkpt>
      <trkpt lat="38.64823367" lon="0.03701167">
        <ele>70.0</ele>
        <time>2018-06-10T05:38:25.000Z</time>
      </trkpt>
      <trkpt lat="38.6482825" lon="0.03705333">
        <ele>71.0</ele>
        <time>2018-06-10T05:38:26.000Z</time>
      </trkpt>
      <trkpt lat="38.64833017" lon="0.0370945">
        <ele>71.0</ele>
        <time>2018-06-10T05:38:27.000Z</time>
      </trkpt>
      <trkpt lat="38.64837683" lon="0.0371345">
        <ele>71.0</ele>
        <time>2018-06-10T05:38:28.000Z</time>
      </trkpt>
      <trkpt lat="38.64842283" lon="0.03717383">
        <ele>71.0</ele>
        <time>2018-06-10T05:38:29.000Z</time>
      </trkpt>
      <trkpt lat="38.64846817" lon="0.0372125">
        <ele>71.0</ele>
        <time>2018-06-10T05:38:30.000Z</time>
      </trkpt>
      <trkpt lat="38.64851367" lon="0.03725133">
        <ele>71.0</ele>
        <time>2018-06-10T05:38:31.000Z</time>
      </trkpt>
      <trkpt lat="38.64856017" lon="0.03729017">
        <ele>71.0</ele>
        <time>2018-06-10T05:38:32.000Z</time>
      </trkpt>
      <trkpt lat="38.64860717" lon="0.03732917">
        <ele>71.0</ele>
        <time>2018-06-10T05:38:33.000Z</time>
      </trkpt>
      <trkpt lat="38.6486545" lon="0.03736817">
        <ele>71.0</ele>
        <time>2018-06-10T05:38:34.000Z</time>
      </trkpt>
      <trkpt lat="38.64870217" lon="0.03740633">
        <ele>71.0</ele>
        <time>2018-06-10T05:38:35.000Z</time>
      </trkpt>
      <trkpt lat="38.6487505" lon="0.037443">
        <ele>71.0</ele>
        <time>2018-06-10T05:38:36.000Z</time>
      </trkpt>
      <trkpt lat="38.64880017" lon="0.0374775">
        <ele>71.0</ele>
        <time>2018-06-10T05:38:37.000Z</time>
      </trkpt>
      <trkpt lat="38.64885067" lon="0.0375095">
        <ele>71.0</ele>
        <time>2018-06-10T05:38:38.000Z</time>
      </trkpt>
      <trkpt lat="38.64890133" lon="0.03754">
        <ele>70.0</ele>
        <time>2018-06-10T05:38:39.000Z</time>
      </trkpt>
      <trkpt lat="38.648952" lon="0.03756883">
        <ele>70.0</ele>
        <time>2018-06-10T05:38:40.000Z</time>
      </trkpt>
      <trkpt lat="38.64900217" lon="0.03759683">
        <ele>70.0</ele>
        <time>2018-06-10T05:38:41.000Z</time>
      </trkpt>
      <trkpt lat="38.64905267" lon="0.037623">
        <ele>70.0</ele>
        <time>2018-06-10T05:38:42.000Z</time>
      </trkpt>
      <trkpt lat="38.649103" lon="0.03764817">
        <ele>70.0</ele>
        <time>2018-06-10T05:38:43.000Z</time>
      </trkpt>
      <trkpt lat="38.64915367" lon="0.03767083">
        <ele>70.0</ele>
        <time>2018-06-10T05:38:44.000Z</time>
      </trkpt>
      <trkpt lat="38.64920483" lon="0.03769167">
        <ele>70.0</ele>
        <time>2018-06-10T05:38:45.000Z</time>
      </trkpt>
      <trkpt lat="38.64925633" lon="0.03771017">
        <ele>70.0</ele>
        <time>2018-06-10T05:38:46.000Z</time>
      </trkpt>
      <trkpt lat="38.64930883" lon="0.0377275">
        <ele>70.0</ele>
        <time>2018-06-10T05:38:47.000Z</time>
      </trkpt>
      <trkpt lat="38.64936217" lon="0.03774283">
        <ele>70.0</ele>
        <time>2018-06-10T05:38:48.000Z</time>
      </trkpt>
      <trkpt lat="38.64941617" lon="0.03775683">
        <ele>70.0</ele>
        <time>2018-06-10T05:38:49.000Z</time>
      </trkpt>
      <trkpt lat="38.6494705" lon="0.03776917">
        <ele>70.0</ele>
        <time>2018-06-10T05:38:50.000Z</time>
      </trkpt>
      <trkpt lat="38.64952467" lon="0.03778067">
        <ele>70.0</ele>
        <time>2018-06-10T05:38:51.000Z</time>
      </trkpt>
      <trkpt lat="38.64957933" lon="0.037791">
        <ele>70.0</ele>
        <time>2018-06-10T05:38:52.000Z</time>
      </trkpt>
      <trkpt lat="38.64963433" lon="0.0378015">
        <ele>70.0</ele>
        <time>2018-06-10T05:38:53.000Z</time>
      </trkpt>
      <trkpt lat="38.64968967" lon="0.03781167">
        <ele>70.0</ele>
        <time>2018-06-10T05:38:54.000Z</time>
      </trkpt>
      <trkpt lat="38.64974567" lon="0.0378215">
        <ele>70.0</ele>
        <time>2018-06-10T05:38:55.000Z</time>
      </trkpt>
      <trkpt lat="38.64980233" lon="0.03783">
        <ele>69.0</ele>
        <time>2018-06-10T05:38:56.000Z</time>
      </trkpt>
      <trkpt lat="38.64985917" lon="0.03783833">
        <ele>69.0</ele>
        <time>2018-06-10T05:38:57.000Z</time>
      </trkpt>
      <trkpt lat="38.64991583" lon="0.03784633">
        <ele>69.0</ele>
        <time>2018-06-10T05:38:58.000Z</time>
      </trkpt>
      <trkpt lat="38.64997233" lon="0.03785267">
        <ele>69.0</ele>
        <time>2018-06-10T05:38:59.000Z</time>
      </trkpt>
      <trkpt lat="38.65002917" lon="0.03785733">
        <ele>69.0</ele>
        <time>2018-06-10T05:39:00.000Z</time>
      </trkpt>
      <trkpt lat="38.65008617" lon="0.03786033">
        <ele>69.0</ele>
        <time>2018-06-10T05:39:01.000Z</time>
      </trkpt>
      <trkpt lat="38.65014317" lon="0.037863">
        <ele>69.0</ele>
        <time>2018-06-10T05:39:02.000Z</time>
      </trkpt>
      <trkpt lat="38.65020017" lon="0.03786517">
        <ele>70.0</ele>
        <time>2018-06-10T05:39:03.000Z</time>
      </trkpt>
      <trkpt lat="38.65025733" lon="0.03786633">
        <ele>70.0</ele>
        <time>2018-06-10T05:39:04.000Z</time>
      </trkpt>
      <trkpt lat="38.65031467" lon="0.037866">
        <ele>70.0</ele>
        <time>2018-06-10T05:39:05.000Z</time>
      </trkpt>
      <trkpt lat="38.65037183" lon="0.0378645">
        <ele>70.0</ele>
        <time>2018-06-10T05:39:06.000Z</time>
      </trkpt>
      <trkpt lat="38.650429" lon="0.037862">
        <ele>70.0</ele>
        <time>2018-06-10T05:39:07.000Z</time>
      </trkpt>
      <trkpt lat="38.65048683" lon="0.03785883">
        <ele>70.0</ele>
        <time>2018-06-10T05:39:08.000Z</time>
      </trkpt>
      <trkpt lat="38.65054533" lon="0.03785467">
        <ele>70.0</ele>
        <time>2018-06-10T05:39:09.000Z</time>
      </trkpt>
      <trkpt lat="38.6506045" lon="0.03785017">
        <ele>70.0</ele>
        <time>2018-06-10T05:39:10.000Z</time>
      </trkpt>
      <trkpt lat="38.65066383" lon="0.0378445">
        <ele>70.0</ele>
        <time>2018-06-10T05:39:11.000Z</time>
      </trkpt>
      <trkpt lat="38.6507235" lon="0.0378385">
        <ele>70.0</ele>
        <time>2018-06-10T05:39:12.000Z</time>
      </trkpt>
      <trkpt lat="38.65078333" lon="0.037832">
        <ele>70.0</ele>
        <time>2018-06-10T05:39:13.000Z</time>
      </trkpt>
      <trkpt lat="38.65084317" lon="0.0378255">
        <ele>70.0</ele>
        <time>2018-06-10T05:39:14.000Z</time>
      </trkpt>
      <trkpt lat="38.65090267" lon="0.0378195">
        <ele>69.0</ele>
        <time>2018-06-10T05:39:15.000Z</time>
      </trkpt>
      <trkpt lat="38.65096217" lon="0.0378135">
        <ele>69.0</ele>
        <time>2018-06-10T05:39:16.000Z</time>
      </trkpt>
      <trkpt lat="38.65102133" lon="0.03780817">
        <ele>69.0</ele>
        <time>2018-06-10T05:39:17.000Z</time>
      </trkpt>
      <trkpt lat="38.6510795" lon="0.03780267">
        <ele>69.0</ele>
        <time>2018-06-10T05:39:18.000Z</time>
      </trkpt>
      <trkpt lat="38.65113683" lon="0.03779683">
        <ele>69.0</ele>
        <time>2018-06-10T05:39:19.000Z</time>
      </trkpt>
      <trkpt lat="38.6511935" lon="0.03779017">
        <ele>69.0</ele>
        <time>2018-06-10T05:39:20.000Z</time>
      </trkpt>
      <trkpt lat="38.65124983" lon="0.037784">
        <ele>69.0</ele>
        <time>2018-06-10T05:39:21.000Z</time>
      </trkpt>
      <trkpt lat="38.65130617" lon="0.03777817">
        <ele>69.0</ele>
        <time>2018-06-10T05:39:22.000Z</time>
      </trkpt>
      <trkpt lat="38.65136167" lon="0.03777267">
        <ele>69.0</ele>
        <time>2018-06-10T05:39:23.000Z</time>
      </trkpt>
      <trkpt lat="38.65141683" lon="0.03776733">
        <ele>69.0</ele>
        <time>2018-06-10T05:39:24.000Z</time>
      </trkpt>
      <trkpt lat="38.65147117" lon="0.03776183">
        <ele>69.0</ele>
        <time>2018-06-10T05:39:25.000Z</time>
      </trkpt>
      <trkpt lat="38.65152533" lon="0.03775667">
        <ele>69.0</ele>
        <time>2018-06-10T05:39:26.000Z</time>
      </trkpt>
      <trkpt lat="38.65157917" lon="0.03775233">
        <ele>69.0</ele>
        <time>2018-06-10T05:39:27.000Z</time>
      </trkpt>
      <trkpt lat="38.65163317" lon="0.03774867">
        <ele>69.0</ele>
        <time>2018-06-10T05:39:28.000Z</time>
      </trkpt>
      <trkpt lat="38.65168767" lon="0.037745">
        <ele>69.0</ele>
        <time>2018-06-10T05:39:29.000Z</time>
      </trkpt>
      <trkpt lat="38.65174283" lon="0.03774117">
        <ele>69.0</ele>
        <time>2018-06-10T05:39:30.000Z</time>
      </trkpt>
      <trkpt lat="38.65179833" lon="0.03773717">
        <ele>69.0</ele>
        <time>2018-06-10T05:39:31.000Z</time>
      </trkpt>
      <trkpt lat="38.651854" lon="0.037734">
        <ele>68.0</ele>
        <time>2018-06-10T05:39:32.000Z</time>
      </trkpt>
      <trkpt lat="38.65191017" lon="0.03773033">
        <ele>68.0</ele>
        <time>2018-06-10T05:39:33.000Z</time>
      </trkpt>
      <trkpt lat="38.65196633" lon="0.03772617">
        <ele>68.0</ele>
        <time>2018-06-10T05:39:34.000Z</time>
      </trkpt>
      <trkpt lat="38.65202167" lon="0.0377205">
        <ele>68.0</ele>
        <time>2018-06-10T05:39:35.000Z</time>
      </trkpt>
      <trkpt lat="38.65207533" lon="0.037714">
        <ele>68.0</ele>
        <time>2018-06-10T05:39:36.000Z</time>
      </trkpt>
      <trkpt lat="38.65212683" lon="0.03770733">
        <ele>68.0</ele>
        <time>2018-06-10T05:39:37.000Z</time>
      </trkpt>
      <trkpt lat="38.652177" lon="0.03770067">
        <ele>68.0</ele>
        <time>2018-06-10T05:39:38.000Z</time>
      </trkpt>
      <trkpt lat="38.6522265" lon="0.03769467">
        <ele>68.0</ele>
        <time>2018-06-10T05:39:39.000Z</time>
      </trkpt>
      <trkpt lat="38.6522755" lon="0.03768867">
        <ele>67.0</ele>
        <time>2018-06-10T05:39:40.000Z</time>
      </trkpt>
      <trkpt lat="38.652324" lon="0.03768333">
        <ele>67.0</ele>
        <time>2018-06-10T05:39:41.000Z</time>
      </trkpt>
      <trkpt lat="38.65237183" lon="0.03767817">
        <ele>67.0</ele>
        <time>2018-06-10T05:39:42.000Z</time>
      </trkpt>
      <trkpt lat="38.652419" lon="0.03767267">
        <ele>67.0</ele>
        <time>2018-06-10T05:39:43.000Z</time>
      </trkpt>
      <trkpt lat="38.65246533" lon="0.03766767">
        <ele>67.0</ele>
        <time>2018-06-10T05:39:44.000Z</time>
      </trkpt>
      <trkpt lat="38.65251133" lon="0.03766267">
        <ele>67.0</ele>
        <time>2018-06-10T05:39:45.000Z</time>
      </trkpt>
      <trkpt lat="38.65255683" lon="0.03765817">
        <ele>67.0</ele>
        <time>2018-06-10T05:39:46.000Z</time>
      </trkpt>
      <trkpt lat="38.65260217" lon="0.03765267">
        <ele>67.0</ele>
        <time>2018-06-10T05:39:47.000Z</time>
      </trkpt>
      <trkpt lat="38.65264817" lon="0.03764783">
        <ele>67.0</ele>
        <time>2018-06-10T05:39:48.000Z</time>
      </trkpt>
      <trkpt lat="38.65269483" lon="0.03764333">
        <ele>66.0</ele>
        <time>2018-06-10T05:39:49.000Z</time>
      </trkpt>
      <trkpt lat="38.65274267" lon="0.037639">
        <ele>66.0</ele>
        <time>2018-06-10T05:39:50.000Z</time>
      </trkpt>
      <trkpt lat="38.6527905" lon="0.03763483">
        <ele>66.0</ele>
        <time>2018-06-10T05:39:51.000Z</time>
      </trkpt>
      <trkpt lat="38.65283867" lon="0.03763067">
        <ele>66.0</ele>
        <time>2018-06-10T05:39:52.000Z</time>
      </trkpt>
      <trkpt lat="38.652887" lon="0.037627">
        <ele>66.0</ele>
        <time>2018-06-10T05:39:53.000Z</time>
      </trkpt>
      <trkpt lat="38.6529365" lon="0.037623">
        <ele>66.0</ele>
        <time>2018-06-10T05:39:54.000Z</time>
      </trkpt>
      <trkpt lat="38.65298717" lon="0.03761867">
        <ele>66.0</ele>
        <time>2018-06-10T05:39:55.000Z</time>
      </trkpt>
      <trkpt lat="38.653039" lon="0.03761367">
        <ele>66.0</ele>
        <time>2018-06-10T05:39:56.000Z</time>
      </trkpt>
      <trkpt lat="38.65309133" lon="0.03760833">
        <ele>66.0</ele>
        <time>2018-06-10T05:39:57.000Z</time>
      </trkpt>
      <trkpt lat="38.65314383" lon="0.03760333">
        <ele>65.0</ele>
        <time>2018-06-10T05:39:58.000Z</time>
      </trkpt>
      <trkpt lat="38.6531965" lon="0.037599">
        <ele>65.0</ele>
        <time>2018-06-10T05:39:59.000Z</time>
      </trkpt>
      <trkpt lat="38.65324933" lon="0.03759533">
        <ele>65.0</ele>
        <time>2018-06-10T05:40:00.000Z</time>
      </trkpt>
      <trkpt lat="38.65330267" lon="0.0375925">
        <ele>65.0</ele>
        <time>2018-06-10T05:40:01.000Z</time>
      </trkpt>
      <trkpt lat="38.6533565" lon="0.037591">
        <ele>65.0</ele>
        <time>2018-06-10T05:40:02.000Z</time>
      </trkpt>
      <trkpt lat="38.653411" lon="0.03759117">
        <ele>65.0</ele>
        <time>2018-06-10T05:40:03.000Z</time>
      </trkpt>
      <trkpt lat="38.6534655" lon="0.03759417">
        <ele>65.0</ele>
        <time>2018-06-10T05:40:04.000Z</time>
      </trkpt>
      <trkpt lat="38.65351833" lon="0.037599">
        <ele>65.0</ele>
        <time>2018-06-10T05:40:05.000Z</time>
      </trkpt>
      <trkpt lat="38.653567" lon="0.03760583">
        <ele>65.0</ele>
        <time>2018-06-10T05:40:06.000Z</time>
      </trkpt>
      <trkpt lat="38.65361017" lon="0.03761367">
        <ele>65.0</ele>
        <time>2018-06-10T05:40:07.000Z</time>
      </trkpt>
      <trkpt lat="38.65364733" lon="0.03762233">
        <ele>65.0</ele>
        <time>2018-06-10T05:40:08.000Z</time>
      </trkpt>
      <trkpt lat="38.65367917" lon="0.03763067">
        <ele>65.0</ele>
        <time>2018-06-10T05:40:09.000Z</time>
      </trkpt>
      <trkpt lat="38.6537065" lon="0.037638">
        <ele>65.0</ele>
        <time>2018-06-10T05:40:10.000Z</time>
      </trkpt>
      <trkpt lat="38.653732" lon="0.037646">
        <ele>64.0</ele>
        <time>2018-06-10T05:40:11.000Z</time>
      </trkpt>
      <trkpt lat="38.65375867" lon="0.0376575">
        <ele>64.0</ele>
        <time>2018-06-10T05:40:12.000Z</time>
      </trkpt>
      <trkpt lat="38.65378667" lon="0.03767717">
        <ele>64.0</ele>
        <time>2018-06-10T05:40:13.000Z</time>
      </trkpt>
      <trkpt lat="38.65381517" lon="0.0377075">
        <ele>63.0</ele>
        <time>2018-06-10T05:40:14.000Z</time>
      </trkpt>
      <trkpt lat="38.65384333" lon="0.037747">
        <ele>63.0</ele>
        <time>2018-06-10T05:40:15.000Z</time>
      </trkpt>
      <trkpt lat="38.65387283" lon="0.0377905">
        <ele>63.0</ele>
        <time>2018-06-10T05:40:16.000Z</time>
      </trkpt>
      <trkpt lat="38.65390683" lon="0.03783233">
        <ele>63.0</ele>
        <time>2018-06-10T05:40:17.000Z</time>
      </trkpt>
      <trkpt lat="38.653948" lon="0.037869">
        <ele>62.0</ele>
        <time>2018-06-10T05:40:18.000Z</time>
      </trkpt>
      <trkpt lat="38.65399433" lon="0.03789833">
        <ele>62.0</ele>
        <time>2018-06-10T05:40:19.000Z</time>
      </trkpt>
      <trkpt lat="38.65404367" lon="0.03791933">
        <ele>62.0</ele>
        <time>2018-06-10T05:40:20.000Z</time>
      </trkpt>
      <trkpt lat="38.654093" lon="0.03793117">
        <ele>62.0</ele>
        <time>2018-06-10T05:40:21.000Z</time>
      </trkpt>
      <trkpt lat="38.65414217" lon="0.037934">
        <ele>62.0</ele>
        <time>2018-06-10T05:40:22.000Z</time>
      </trkpt>
      <trkpt lat="38.65419017" lon="0.03792817">
        <ele>62.0</ele>
        <time>2018-06-10T05:40:23.000Z</time>
      </trkpt>
      <trkpt lat="38.65423633" lon="0.03791483">
        <ele>62.0</ele>
        <time>2018-06-10T05:40:24.000Z</time>
      </trkpt>
      <trkpt lat="38.65427967" lon="0.03789483">
        <ele>62.0</ele>
        <time>2018-06-10T05:40:25.000Z</time>
      </trkpt>
      <trkpt lat="38.65432017" lon="0.0378685">
        <ele>61.0</ele>
        <time>2018-06-10T05:40:26.000Z</time>
      </trkpt>
      <trkpt lat="38.65435567" lon="0.03783633">
        <ele>61.0</ele>
        <time>2018-06-10T05:40:27.000Z</time>
      </trkpt>
      <trkpt lat="38.6543855" lon="0.03780017">
        <ele>61.0</ele>
        <time>2018-06-10T05:40:28.000Z</time>
      </trkpt>
      <trkpt lat="38.65440983" lon="0.03776067">
        <ele>61.0</ele>
        <time>2018-06-10T05:40:29.000Z</time>
      </trkpt>
      <trkpt lat="38.65443183" lon="0.03772067">
        <ele>62.0</ele>
        <time>2018-06-10T05:40:30.000Z</time>
      </trkpt>
      <trkpt lat="38.654455" lon="0.03768067">
        <ele>62.0</ele>
        <time>2018-06-10T05:40:31.000Z</time>
      </trkpt>
      <trkpt lat="38.65448283" lon="0.03764317">
        <ele>62.0</ele>
        <time>2018-06-10T05:40:32.000Z</time>
      </trkpt>
      <trkpt lat="38.65451583" lon="0.037608">
        <ele>63.0</ele>
        <time>2018-06-10T05:40:33.000Z</time>
      </trkpt>
      <trkpt lat="38.65455317" lon="0.03757867">
        <ele>63.0</ele>
        <time>2018-06-10T05:40:34.000Z</time>
      </trkpt>
      <trkpt lat="38.654593" lon="0.0375535">
        <ele>63.0</ele>
        <time>2018-06-10T05:40:35.000Z</time>
      </trkpt>
      <trkpt lat="38.65463567" lon="0.03753133">
        <ele>63.0</ele>
        <time>2018-06-10T05:40:36.000Z</time>
      </trkpt>
      <trkpt lat="38.65467883" lon="0.0375115">
        <ele>63.0</ele>
        <time>2018-06-10T05:40:37.000Z</time>
      </trkpt>
      <trkpt lat="38.65472317" lon="0.037494">
        <ele>63.0</ele>
        <time>2018-06-10T05:40:38.000Z</time>
      </trkpt>
      <trkpt lat="38.654767" lon="0.0374785">
        <ele>63.0</ele>
        <time>2018-06-10T05:40:39.000Z</time>
      </trkpt>
      <trkpt lat="38.65481283" lon="0.03746333">
        <ele>63.0</ele>
        <time>2018-06-10T05:40:40.000Z</time>
      </trkpt>
      <trkpt lat="38.65486033" lon="0.03744983">
        <ele>63.0</ele>
        <time>2018-06-10T05:40:41.000Z</time>
      </trkpt>
      <trkpt lat="38.65490967" lon="0.0374385">
        <ele>63.0</ele>
        <time>2018-06-10T05:40:42.000Z</time>
      </trkpt>
      <trkpt lat="38.65496017" lon="0.03742917">
        <ele>63.0</ele>
        <time>2018-06-10T05:40:43.000Z</time>
      </trkpt>
      <trkpt lat="38.6550115" lon="0.0374215">
        <ele>63.0</ele>
        <time>2018-06-10T05:40:44.000Z</time>
      </trkpt>
      <trkpt lat="38.6550635" lon="0.03741517">
        <ele>63.0</ele>
        <time>2018-06-10T05:40:45.000Z</time>
      </trkpt>
      <trkpt lat="38.655115" lon="0.03741">
        <ele>63.0</ele>
        <time>2018-06-10T05:40:46.000Z</time>
      </trkpt>
      <trkpt lat="38.65516567" lon="0.03740433">
        <ele>63.0</ele>
        <time>2018-06-10T05:40:47.000Z</time>
      </trkpt>
      <trkpt lat="38.65521567" lon="0.037399">
        <ele>63.0</ele>
        <time>2018-06-10T05:40:48.000Z</time>
      </trkpt>
      <trkpt lat="38.65526533" lon="0.0373925">
        <ele>63.0</ele>
        <time>2018-06-10T05:40:49.000Z</time>
      </trkpt>
      <trkpt lat="38.65531483" lon="0.0373865">
        <ele>63.0</ele>
        <time>2018-06-10T05:40:50.000Z</time>
      </trkpt>
      <trkpt lat="38.65536417" lon="0.037379">
        <ele>63.0</ele>
        <time>2018-06-10T05:40:51.000Z</time>
      </trkpt>
      <trkpt lat="38.6554135" lon="0.0373715">
        <ele>63.0</ele>
        <time>2018-06-10T05:40:52.000Z</time>
      </trkpt>
      <trkpt lat="38.65546283" lon="0.03736317">
        <ele>63.0</ele>
        <time>2018-06-10T05:40:53.000Z</time>
      </trkpt>
      <trkpt lat="38.65551267" lon="0.03735433">
        <ele>63.0</ele>
        <time>2018-06-10T05:40:54.000Z</time>
      </trkpt>
      <trkpt lat="38.655563" lon="0.03734433">
        <ele>63.0</ele>
        <time>2018-06-10T05:40:55.000Z</time>
      </trkpt>
      <trkpt lat="38.65561417" lon="0.0373335">
        <ele>62.0</ele>
        <time>2018-06-10T05:40:56.000Z</time>
      </trkpt>
      <trkpt lat="38.65566567" lon="0.037321">
        <ele>62.0</ele>
        <time>2018-06-10T05:40:57.000Z</time>
      </trkpt>
      <trkpt lat="38.6557175" lon="0.03730617">
        <ele>62.0</ele>
        <time>2018-06-10T05:40:58.000Z</time>
      </trkpt>
      <trkpt lat="38.65576983" lon="0.0372895">
        <ele>62.0</ele>
        <time>2018-06-10T05:40:59.000Z</time>
      </trkpt>
      <trkpt lat="38.65582283" lon="0.0372715">
        <ele>62.0</ele>
        <time>2018-06-10T05:41:00.000Z</time>
      </trkpt>
      <trkpt lat="38.65587583" lon="0.03725233">
        <ele>61.0</ele>
        <time>2018-06-10T05:41:01.000Z</time>
      </trkpt>
      <trkpt lat="38.6559285" lon="0.0372315">
        <ele>61.0</ele>
        <time>2018-06-10T05:41:02.000Z</time>
      </trkpt>
      <trkpt lat="38.655981" lon="0.03720983">
        <ele>61.0</ele>
        <time>2018-06-10T05:41:03.000Z</time>
      </trkpt>
      <trkpt lat="38.65603383" lon="0.037187">
        <ele>61.0</ele>
        <time>2018-06-10T05:41:04.000Z</time>
      </trkpt>
      <trkpt lat="38.65608783" lon="0.0371645">
        <ele>61.0</ele>
        <time>2018-06-10T05:41:05.000Z</time>
      </trkpt>
      <trkpt lat="38.656143" lon="0.03714117">
        <ele>60.0</ele>
        <time>2018-06-10T05:41:06.000Z</time>
      </trkpt>
      <trkpt lat="38.656199" lon="0.0371175">
        <ele>60.0</ele>
        <time>2018-06-10T05:41:07.000Z</time>
      </trkpt>
      <trkpt lat="38.656256" lon="0.03709267">
        <ele>60.0</ele>
        <time>2018-06-10T05:41:08.000Z</time>
      </trkpt>
      <trkpt lat="38.65631383" lon="0.037068">
        <ele>60.0</ele>
        <time>2018-06-10T05:41:09.000Z</time>
      </trkpt>
      <trkpt lat="38.656373" lon="0.03704317">
        <ele>60.0</ele>
        <time>2018-06-10T05:41:10.000Z</time>
      </trkpt>
      <trkpt lat="38.6564335" lon="0.03701783">
        <ele>60.0</ele>
        <time>2018-06-10T05:41:11.000Z</time>
      </trkpt>
      <trkpt lat="38.65649483" lon="0.0369915">
        <ele>59.0</ele>
        <time>2018-06-10T05:41:12.000Z</time>
      </trkpt>
      <trkpt lat="38.65655683" lon="0.03696433">
        <ele>59.0</ele>
        <time>2018-06-10T05:41:13.000Z</time>
      </trkpt>
      <trkpt lat="38.656619" lon="0.03693683">
        <ele>59.0</ele>
        <time>2018-06-10T05:41:14.000Z</time>
      </trkpt>
      <trkpt lat="38.65668133" lon="0.03690967">
        <ele>59.0</ele>
        <time>2018-06-10T05:41:15.000Z</time>
      </trkpt>
      <trkpt lat="38.65674417" lon="0.03688333">
        <ele>59.0</ele>
        <time>2018-06-10T05:41:16.000Z</time>
      </trkpt>
      <trkpt lat="38.65680683" lon="0.03685767">
        <ele>59.0</ele>
        <time>2018-06-10T05:41:17.000Z</time>
      </trkpt>
      <trkpt lat="38.65686917" lon="0.036832">
        <ele>59.0</ele>
        <time>2018-06-10T05:41:18.000Z</time>
      </trkpt>
      <trkpt lat="38.65693117" lon="0.03680567">
        <ele>59.0</ele>
        <time>2018-06-10T05:41:19.000Z</time>
      </trkpt>
      <trkpt lat="38.65699367" lon="0.03677917">
        <ele>59.0</ele>
        <time>2018-06-10T05:41:20.000Z</time>
      </trkpt>
      <trkpt lat="38.657057" lon="0.03675283">
        <ele>58.0</ele>
        <time>2018-06-10T05:41:21.000Z</time>
      </trkpt>
      <trkpt lat="38.65712083" lon="0.03672633">
        <ele>58.0</ele>
        <time>2018-06-10T05:41:22.000Z</time>
      </trkpt>
      <trkpt lat="38.65718483" lon="0.036699">
        <ele>58.0</ele>
        <time>2018-06-10T05:41:23.000Z</time>
      </trkpt>
      <trkpt lat="38.65724967" lon="0.03667117">
        <ele>58.0</ele>
        <time>2018-06-10T05:41:24.000Z</time>
      </trkpt>
      <trkpt lat="38.657315" lon="0.036644">
        <ele>58.0</ele>
        <time>2018-06-10T05:41:25.000Z</time>
      </trkpt>
      <trkpt lat="38.65738083" lon="0.03661683">
        <ele>58.0</ele>
        <time>2018-06-10T05:41:26.000Z</time>
      </trkpt>
      <trkpt lat="38.65744617" lon="0.0365895">
        <ele>57.0</ele>
        <time>2018-06-10T05:41:27.000Z</time>
      </trkpt>
      <trkpt lat="38.65751117" lon="0.03656183">
        <ele>57.0</ele>
        <time>2018-06-10T05:41:28.000Z</time>
      </trkpt>
      <trkpt lat="38.65757583" lon="0.0365345">
        <ele>57.0</ele>
        <time>2018-06-10T05:41:29.000Z</time>
      </trkpt>
      <trkpt lat="38.65763983" lon="0.0365075">
        <ele>57.0</ele>
        <time>2018-06-10T05:41:30.000Z</time>
      </trkpt>
      <trkpt lat="38.65770333" lon="0.0364805">
        <ele>56.0</ele>
        <time>2018-06-10T05:41:31.000Z</time>
      </trkpt>
      <trkpt lat="38.65776667" lon="0.03645367">
        <ele>56.0</ele>
        <time>2018-06-10T05:41:32.000Z</time>
      </trkpt>
      <trkpt lat="38.65783033" lon="0.0364275">
        <ele>56.0</ele>
        <time>2018-06-10T05:41:33.000Z</time>
      </trkpt>
      <trkpt lat="38.65789433" lon="0.0364015">
        <ele>56.0</ele>
        <time>2018-06-10T05:41:34.000Z</time>
      </trkpt>
      <trkpt lat="38.65795867" lon="0.03637533">
        <ele>56.0</ele>
        <time>2018-06-10T05:41:35.000Z</time>
      </trkpt>
      <trkpt lat="38.6580225" lon="0.03634733">
        <ele>56.0</ele>
        <time>2018-06-10T05:41:36.000Z</time>
      </trkpt>
      <trkpt lat="38.65808583" lon="0.0363175">
        <ele>56.0</ele>
        <time>2018-06-10T05:41:37.000Z</time>
      </trkpt>
      <trkpt lat="38.65814967" lon="0.03628783">
        <ele>56.0</ele>
        <time>2018-06-10T05:41:38.000Z</time>
      </trkpt>
      <trkpt lat="38.65821433" lon="0.0362585">
        <ele>56.0</ele>
        <time>2018-06-10T05:41:39.000Z</time>
      </trkpt>
      <trkpt lat="38.6582795" lon="0.03622917">
        <ele>56.0</ele>
        <time>2018-06-10T05:41:40.000Z</time>
      </trkpt>
      <trkpt lat="38.65834483" lon="0.0361995">
        <ele>56.0</ele>
        <time>2018-06-10T05:41:41.000Z</time>
      </trkpt>
      <trkpt lat="38.65841067" lon="0.036171">
        <ele>56.0</ele>
        <time>2018-06-10T05:41:42.000Z</time>
      </trkpt>
      <trkpt lat="38.65847717" lon="0.03614383">
        <ele>55.0</ele>
        <time>2018-06-10T05:41:43.000Z</time>
      </trkpt>
      <trkpt lat="38.658544" lon="0.03611633">
        <ele>55.0</ele>
        <time>2018-06-10T05:41:44.000Z</time>
      </trkpt>
      <trkpt lat="38.65861067" lon="0.03608883">
        <ele>55.0</ele>
        <time>2018-06-10T05:41:45.000Z</time>
      </trkpt>
      <trkpt lat="38.65867717" lon="0.03606117">
        <ele>55.0</ele>
        <time>2018-06-10T05:41:46.000Z</time>
      </trkpt>
      <trkpt lat="38.65874283" lon="0.036034">
        <ele>55.0</ele>
        <time>2018-06-10T05:41:47.000Z</time>
      </trkpt>
      <trkpt lat="38.65880733" lon="0.0360065">
        <ele>54.0</ele>
        <time>2018-06-10T05:41:48.000Z</time>
      </trkpt>
      <trkpt lat="38.658871" lon="0.03597917">
        <ele>54.0</ele>
        <time>2018-06-10T05:41:49.000Z</time>
      </trkpt>
      <trkpt lat="38.658934" lon="0.03595267">
        <ele>54.0</ele>
        <time>2018-06-10T05:41:50.000Z</time>
      </trkpt>
      <trkpt lat="38.6589965" lon="0.0359265">
        <ele>54.0</ele>
        <time>2018-06-10T05:41:51.000Z</time>
      </trkpt>
      <trkpt lat="38.65905817" lon="0.0359005">
        <ele>54.0</ele>
        <time>2018-06-10T05:41:52.000Z</time>
      </trkpt>
      <trkpt lat="38.65911933" lon="0.03587433">
        <ele>54.0</ele>
        <time>2018-06-10T05:41:53.000Z</time>
      </trkpt>
      <trkpt lat="38.6591795" lon="0.03584867">
        <ele>54.0</ele>
        <time>2018-06-10T05:41:54.000Z</time>
      </trkpt>
      <trkpt lat="38.65923867" lon="0.03582367">
        <ele>54.0</ele>
        <time>2018-06-10T05:41:55.000Z</time>
      </trkpt>
      <trkpt lat="38.65929667" lon="0.03579933">
        <ele>54.0</ele>
        <time>2018-06-10T05:41:56.000Z</time>
      </trkpt>
      <trkpt lat="38.65935383" lon="0.0357755">
        <ele>54.0</ele>
        <time>2018-06-10T05:41:57.000Z</time>
      </trkpt>
      <trkpt lat="38.65941" lon="0.03575183">
        <ele>54.0</ele>
        <time>2018-06-10T05:41:58.000Z</time>
      </trkpt>
      <trkpt lat="38.659465" lon="0.03572867">
        <ele>54.0</ele>
        <time>2018-06-10T05:41:59.000Z</time>
      </trkpt>
      <trkpt lat="38.6595185" lon="0.03570633">
        <ele>54.0</ele>
        <time>2018-06-10T05:42:00.000Z</time>
      </trkpt>
      <trkpt lat="38.65957067" lon="0.03568517">
        <ele>54.0</ele>
        <time>2018-06-10T05:42:01.000Z</time>
      </trkpt>
      <trkpt lat="38.65962133" lon="0.03566483">
        <ele>54.0</ele>
        <time>2018-06-10T05:42:02.000Z</time>
      </trkpt>
      <trkpt lat="38.65967117" lon="0.035646">
        <ele>54.0</ele>
        <time>2018-06-10T05:42:03.000Z</time>
      </trkpt>
      <trkpt lat="38.65972033" lon="0.03562867">
        <ele>54.0</ele>
        <time>2018-06-10T05:42:04.000Z</time>
      </trkpt>
      <trkpt lat="38.65976933" lon="0.035611">
        <ele>54.0</ele>
        <time>2018-06-10T05:42:05.000Z</time>
      </trkpt>
      <trkpt lat="38.65981883" lon="0.03559417">
        <ele>54.0</ele>
        <time>2018-06-10T05:42:06.000Z</time>
      </trkpt>
      <trkpt lat="38.65986933" lon="0.0355795">
        <ele>54.0</ele>
        <time>2018-06-10T05:42:07.000Z</time>
      </trkpt>
      <trkpt lat="38.65992117" lon="0.0355695">
        <ele>54.0</ele>
        <time>2018-06-10T05:42:08.000Z</time>
      </trkpt>
      <trkpt lat="38.65997367" lon="0.03556183">
        <ele>54.0</ele>
        <time>2018-06-10T05:42:09.000Z</time>
      </trkpt>
      <trkpt lat="38.6600265" lon="0.03555617">
        <ele>54.0</ele>
        <time>2018-06-10T05:42:10.000Z</time>
      </trkpt>
      <trkpt lat="38.66007867" lon="0.03555217">
        <ele>54.0</ele>
        <time>2018-06-10T05:42:11.000Z</time>
      </trkpt>
      <trkpt lat="38.66013033" lon="0.03555067">
        <ele>54.0</ele>
        <time>2018-06-10T05:42:12.000Z</time>
      </trkpt>
      <trkpt lat="38.66018133" lon="0.035551">
        <ele>54.0</ele>
        <time>2018-06-10T05:42:13.000Z</time>
      </trkpt>
      <trkpt lat="38.66023217" lon="0.03555433">
        <ele>54.0</ele>
        <time>2018-06-10T05:42:14.000Z</time>
      </trkpt>
      <trkpt lat="38.66028283" lon="0.03556283">
        <ele>54.0</ele>
        <time>2018-06-10T05:42:15.000Z</time>
      </trkpt>
      <trkpt lat="38.66033283" lon="0.03558133">
        <ele>53.0</ele>
        <time>2018-06-10T05:42:16.000Z</time>
      </trkpt>
      <trkpt lat="38.660382" lon="0.0356095">
        <ele>53.0</ele>
        <time>2018-06-10T05:42:17.000Z</time>
      </trkpt>
      <trkpt lat="38.66043167" lon="0.03564183">
        <ele>53.0</ele>
        <time>2018-06-10T05:42:18.000Z</time>
      </trkpt>
      <trkpt lat="38.660484" lon="0.03567017">
        <ele>53.0</ele>
        <time>2018-06-10T05:42:19.000Z</time>
      </trkpt>
      <trkpt lat="38.66053933" lon="0.03568917">
        <ele>53.0</ele>
        <time>2018-06-10T05:42:20.000Z</time>
      </trkpt>
      <trkpt lat="38.6605965" lon="0.03569683">
        <ele>53.0</ele>
        <time>2018-06-10T05:42:21.000Z</time>
      </trkpt>
      <trkpt lat="38.660653" lon="0.03569233">
        <ele>52.0</ele>
        <time>2018-06-10T05:42:22.000Z</time>
      </trkpt>
      <trkpt lat="38.66070717" lon="0.03567583">
        <ele>52.0</ele>
        <time>2018-06-10T05:42:23.000Z</time>
      </trkpt>
      <trkpt lat="38.6607575" lon="0.0356495">
        <ele>52.0</ele>
        <time>2018-06-10T05:42:24.000Z</time>
      </trkpt>
      <trkpt lat="38.66080333" lon="0.03561467">
        <ele>51.0</ele>
        <time>2018-06-10T05:42:25.000Z</time>
      </trkpt>
      <trkpt lat="38.66084317" lon="0.035574">
        <ele>51.0</ele>
        <time>2018-06-10T05:42:26.000Z</time>
      </trkpt>
      <trkpt lat="38.66087567" lon="0.03552733">
        <ele>51.0</ele>
        <time>2018-06-10T05:42:27.000Z</time>
      </trkpt>
      <trkpt lat="38.6609005" lon="0.03547617">
        <ele>51.0</ele>
        <time>2018-06-10T05:42:28.000Z</time>
      </trkpt>
      <trkpt lat="38.66092083" lon="0.03542333">
        <ele>51.0</ele>
        <time>2018-06-10T05:42:29.000Z</time>
      </trkpt>
      <trkpt lat="38.6609385" lon="0.03537017">
        <ele>51.0</ele>
        <time>2018-06-10T05:42:30.000Z</time>
      </trkpt>
      <trkpt lat="38.66095717" lon="0.03531883">
        <ele>51.0</ele>
        <time>2018-06-10T05:42:31.000Z</time>
      </trkpt>
      <trkpt lat="38.66097717" lon="0.03526867">
        <ele>51.0</ele>
        <time>2018-06-10T05:42:32.000Z</time>
      </trkpt>
      <trkpt lat="38.66100117" lon="0.0352205">
        <ele>52.0</ele>
        <time>2018-06-10T05:42:33.000Z</time>
      </trkpt>
      <trkpt lat="38.6610295" lon="0.0351735">
        <ele>52.0</ele>
        <time>2018-06-10T05:42:34.000Z</time>
      </trkpt>
      <trkpt lat="38.6610615" lon="0.03512683">
        <ele>52.0</ele>
        <time>2018-06-10T05:42:35.000Z</time>
      </trkpt>
      <trkpt lat="38.66109917" lon="0.03508483">
        <ele>52.0</ele>
        <time>2018-06-10T05:42:36.000Z</time>
      </trkpt>
      <trkpt lat="38.661141" lon="0.035048">
        <ele>52.0</ele>
        <time>2018-06-10T05:42:37.000Z</time>
      </trkpt>
      <trkpt lat="38.66118833" lon="0.035019">
        <ele>52.0</ele>
        <time>2018-06-10T05:42:38.000Z</time>
      </trkpt>
      <trkpt lat="38.66123867" lon="0.03499533">
        <ele>52.0</ele>
        <time>2018-06-10T05:42:39.000Z</time>
      </trkpt>
      <trkpt lat="38.66129283" lon="0.03497883">
        <ele>51.0</ele>
        <time>2018-06-10T05:42:40.000Z</time>
      </trkpt>
      <trkpt lat="38.66134883" lon="0.0349675">
        <ele>52.0</ele>
        <time>2018-06-10T05:42:41.000Z</time>
      </trkpt>
      <trkpt lat="38.66140667" lon="0.0349645">
        <ele>51.0</ele>
        <time>2018-06-10T05:42:42.000Z</time>
      </trkpt>
      <trkpt lat="38.66146517" lon="0.034969">
        <ele>51.0</ele>
        <time>2018-06-10T05:42:43.000Z</time>
      </trkpt>
      <trkpt lat="38.66152417" lon="0.03498233">
        <ele>51.0</ele>
        <time>2018-06-10T05:42:44.000Z</time>
      </trkpt>
      <trkpt lat="38.66158167" lon="0.0350015">
        <ele>51.0</ele>
        <time>2018-06-10T05:42:45.000Z</time>
      </trkpt>
      <trkpt lat="38.6616365" lon="0.0350265">
        <ele>51.0</ele>
        <time>2018-06-10T05:42:46.000Z</time>
      </trkpt>
      <trkpt lat="38.661688" lon="0.0350565">
        <ele>52.0</ele>
        <time>2018-06-10T05:42:47.000Z</time>
      </trkpt>
      <trkpt lat="38.661736" lon="0.03509033">
        <ele>52.0</ele>
        <time>2018-06-10T05:42:48.000Z</time>
      </trkpt>
      <trkpt lat="38.66178183" lon="0.03512483">
        <ele>52.0</ele>
        <time>2018-06-10T05:42:49.000Z</time>
      </trkpt>
      <trkpt lat="38.66182617" lon="0.035158">
        <ele>52.0</ele>
        <time>2018-06-10T05:42:50.000Z</time>
      </trkpt>
      <trkpt lat="38.66186983" lon="0.03518783">
        <ele>53.0</ele>
        <time>2018-06-10T05:42:51.000Z</time>
      </trkpt>
      <trkpt lat="38.66191333" lon="0.035214">
        <ele>53.0</ele>
        <time>2018-06-10T05:42:52.000Z</time>
      </trkpt>
      <trkpt lat="38.661957" lon="0.03523517">
        <ele>53.0</ele>
        <time>2018-06-10T05:42:53.000Z</time>
      </trkpt>
      <trkpt lat="38.66200067" lon="0.035251">
        <ele>53.0</ele>
        <time>2018-06-10T05:42:54.000Z</time>
      </trkpt>
      <trkpt lat="38.66204417" lon="0.03526067">
        <ele>54.0</ele>
        <time>2018-06-10T05:42:55.000Z</time>
      </trkpt>
      <trkpt lat="38.66208733" lon="0.03526533">
        <ele>54.0</ele>
        <time>2018-06-10T05:42:56.000Z</time>
      </trkpt>
      <trkpt lat="38.66213017" lon="0.035267">
        <ele>54.0</ele>
        <time>2018-06-10T05:42:57.000Z</time>
      </trkpt>
      <trkpt lat="38.662173" lon="0.03526567">
        <ele>54.0</ele>
        <time>2018-06-10T05:42:58.000Z</time>
      </trkpt>
      <trkpt lat="38.66221517" lon="0.03525967">
        <ele>54.0</ele>
        <time>2018-06-10T05:42:59.000Z</time>
      </trkpt>
      <trkpt lat="38.662256" lon="0.03524883">
        <ele>54.0</ele>
        <time>2018-06-10T05:43:00.000Z</time>
      </trkpt>
      <trkpt lat="38.66229583" lon="0.03523333">
        <ele>55.0</ele>
        <time>2018-06-10T05:43:01.000Z</time>
      </trkpt>
      <trkpt lat="38.66233517" lon="0.03521517">
        <ele>55.0</ele>
        <time>2018-06-10T05:43:02.000Z</time>
      </trkpt>
      <trkpt lat="38.6623745" lon="0.0351955">
        <ele>55.0</ele>
        <time>2018-06-10T05:43:03.000Z</time>
      </trkpt>
      <trkpt lat="38.66241367" lon="0.035176">
        <ele>55.0</ele>
        <time>2018-06-10T05:43:04.000Z</time>
      </trkpt>
      <trkpt lat="38.6624525" lon="0.03515683">
        <ele>55.0</ele>
        <time>2018-06-10T05:43:05.000Z</time>
      </trkpt>
      <trkpt lat="38.66249083" lon="0.03513783">
        <ele>56.0</ele>
        <time>2018-06-10T05:43:06.000Z</time>
      </trkpt>
      <trkpt lat="38.66252933" lon="0.03511933">
        <ele>56.0</ele>
        <time>2018-06-10T05:43:07.000Z</time>
      </trkpt>
      <trkpt lat="38.66256767" lon="0.03510133">
        <ele>56.0</ele>
        <time>2018-06-10T05:43:08.000Z</time>
      </trkpt>
      <trkpt lat="38.66260633" lon="0.0350835">
        <ele>56.0</ele>
        <time>2018-06-10T05:43:09.000Z</time>
      </trkpt>
      <trkpt lat="38.6626445" lon="0.03506467">
        <ele>56.0</ele>
        <time>2018-06-10T05:43:10.000Z</time>
      </trkpt>
      <trkpt lat="38.66268267" lon="0.03504533">
        <ele>56.0</ele>
        <time>2018-06-10T05:43:11.000Z</time>
      </trkpt>
      <trkpt lat="38.66272033" lon="0.03502567">
        <ele>57.0</ele>
        <time>2018-06-10T05:43:12.000Z</time>
      </trkpt>
      <trkpt lat="38.66275783" lon="0.03500617">
        <ele>57.0</ele>
        <time>2018-06-10T05:43:13.000Z</time>
      </trkpt>
      <trkpt lat="38.66279483" lon="0.03498717">
        <ele>57.0</ele>
        <time>2018-06-10T05:43:14.000Z</time>
      </trkpt>
      <trkpt lat="38.66283183" lon="0.0349685">
        <ele>57.0</ele>
        <time>2018-06-10T05:43:15.000Z</time>
      </trkpt>
      <trkpt lat="38.66286917" lon="0.03494933">
        <ele>58.0</ele>
        <time>2018-06-10T05:43:16.000Z</time>
      </trkpt>
      <trkpt lat="38.66290683" lon="0.03493">
        <ele>58.0</ele>
        <time>2018-06-10T05:43:17.000Z</time>
      </trkpt>
      <trkpt lat="38.6629445" lon="0.03491033">
        <ele>58.0</ele>
        <time>2018-06-10T05:43:18.000Z</time>
      </trkpt>
      <trkpt lat="38.66298217" lon="0.03489117">
        <ele>59.0</ele>
        <time>2018-06-10T05:43:19.000Z</time>
      </trkpt>
      <trkpt lat="38.66301967" lon="0.034872">
        <ele>59.0</ele>
        <time>2018-06-10T05:43:20.000Z</time>
      </trkpt>
      <trkpt lat="38.66305767" lon="0.03485367">
        <ele>59.0</ele>
        <time>2018-06-10T05:43:21.000Z</time>
      </trkpt>
      <trkpt lat="38.66309533" lon="0.034836">
        <ele>59.0</ele>
        <time>2018-06-10T05:43:22.000Z</time>
      </trkpt>
      <trkpt lat="38.66313233" lon="0.03481917">
        <ele>59.0</ele>
        <time>2018-06-10T05:43:23.000Z</time>
      </trkpt>
      <trkpt lat="38.66316967" lon="0.0348035">
        <ele>59.0</ele>
        <time>2018-06-10T05:43:24.000Z</time>
      </trkpt>
      <trkpt lat="38.66320733" lon="0.03479">
        <ele>59.0</ele>
        <time>2018-06-10T05:43:25.000Z</time>
      </trkpt>
      <trkpt lat="38.66324533" lon="0.034779">
        <ele>59.0</ele>
        <time>2018-06-10T05:43:26.000Z</time>
      </trkpt>
      <trkpt lat="38.66328317" lon="0.03476983">
        <ele>59.0</ele>
        <time>2018-06-10T05:43:27.000Z</time>
      </trkpt>
      <trkpt lat="38.66332033" lon="0.0347615">
        <ele>60.0</ele>
        <time>2018-06-10T05:43:28.000Z</time>
      </trkpt>
      <trkpt lat="38.66335733" lon="0.03475317">
        <ele>60.0</ele>
        <time>2018-06-10T05:43:29.000Z</time>
      </trkpt>
      <trkpt lat="38.66339433" lon="0.034745">
        <ele>60.0</ele>
        <time>2018-06-10T05:43:30.000Z</time>
      </trkpt>
      <trkpt lat="38.663432" lon="0.03473783">
        <ele>60.0</ele>
        <time>2018-06-10T05:43:31.000Z</time>
      </trkpt>
      <trkpt lat="38.66347" lon="0.03473167">
        <ele>60.0</ele>
        <time>2018-06-10T05:43:32.000Z</time>
      </trkpt>
      <trkpt lat="38.66350833" lon="0.03472633">
        <ele>60.0</ele>
        <time>2018-06-10T05:43:33.000Z</time>
      </trkpt>
      <trkpt lat="38.6635465" lon="0.03472183">
        <ele>60.0</ele>
        <time>2018-06-10T05:43:34.000Z</time>
      </trkpt>
      <trkpt lat="38.6635845" lon="0.034719">
        <ele>61.0</ele>
        <time>2018-06-10T05:43:35.000Z</time>
      </trkpt>
      <trkpt lat="38.66362183" lon="0.0347165">
        <ele>61.0</ele>
        <time>2018-06-10T05:43:36.000Z</time>
      </trkpt>
      <trkpt lat="38.663659" lon="0.03471417">
        <ele>61.0</ele>
        <time>2018-06-10T05:43:37.000Z</time>
      </trkpt>
      <trkpt lat="38.663696" lon="0.03471267">
        <ele>61.0</ele>
        <time>2018-06-10T05:43:38.000Z</time>
      </trkpt>
      <trkpt lat="38.66373317" lon="0.03471283">
        <ele>61.0</ele>
        <time>2018-06-10T05:43:39.000Z</time>
      </trkpt>
      <trkpt lat="38.66376983" lon="0.03471467">
        <ele>62.0</ele>
        <time>2018-06-10T05:43:40.000Z</time>
      </trkpt>
      <trkpt lat="38.663806" lon="0.034717">
        <ele>62.0</ele>
        <time>2018-06-10T05:43:41.000Z</time>
      </trkpt>
      <trkpt lat="38.66384183" lon="0.03471933">
        <ele>62.0</ele>
        <time>2018-06-10T05:43:42.000Z</time>
      </trkpt>
      <trkpt lat="38.66387767" lon="0.034722">
        <ele>63.0</ele>
        <time>2018-06-10T05:43:43.000Z</time>
      </trkpt>
      <trkpt lat="38.66391367" lon="0.03472567">
        <ele>63.0</ele>
        <time>2018-06-10T05:43:44.000Z</time>
      </trkpt>
      <trkpt lat="38.6639495" lon="0.03473083">
        <ele>63.0</ele>
        <time>2018-06-10T05:43:45.000Z</time>
      </trkpt>
      <trkpt lat="38.66398517" lon="0.03473717">
        <ele>64.0</ele>
        <time>2018-06-10T05:43:46.000Z</time>
      </trkpt>
      <trkpt lat="38.66402083" lon="0.034744">
        <ele>64.0</ele>
        <time>2018-06-10T05:43:47.000Z</time>
      </trkpt>
      <trkpt lat="38.66405667" lon="0.034751">
        <ele>64.0</ele>
        <time>2018-06-10T05:43:48.000Z</time>
      </trkpt>
      <trkpt lat="38.66409267" lon="0.034759">
        <ele>65.0</ele>
        <time>2018-06-10T05:43:49.000Z</time>
      </trkpt>
      <trkpt lat="38.66412883" lon="0.034768">
        <ele>65.0</ele>
        <time>2018-06-10T05:43:50.000Z</time>
      </trkpt>
      <trkpt lat="38.66416467" lon="0.03477783">
        <ele>65.0</ele>
        <time>2018-06-10T05:43:51.000Z</time>
      </trkpt>
      <trkpt lat="38.66420017" lon="0.0347885">
        <ele>66.0</ele>
        <time>2018-06-10T05:43:52.000Z</time>
      </trkpt>
      <trkpt lat="38.66423517" lon="0.03480117">
        <ele>66.0</ele>
        <time>2018-06-10T05:43:53.000Z</time>
      </trkpt>
      <trkpt lat="38.6642695" lon="0.03481567">
        <ele>66.0</ele>
        <time>2018-06-10T05:43:54.000Z</time>
      </trkpt>
      <trkpt lat="38.66430367" lon="0.03483067">
        <ele>66.0</ele>
        <time>2018-06-10T05:43:55.000Z</time>
      </trkpt>
      <trkpt lat="38.66433733" lon="0.03484517">
        <ele>67.0</ele>
        <time>2018-06-10T05:43:56.000Z</time>
      </trkpt>
      <trkpt lat="38.66437083" lon="0.03486067">
        <ele>67.0</ele>
        <time>2018-06-10T05:43:57.000Z</time>
      </trkpt>
      <trkpt lat="38.66440417" lon="0.034877">
        <ele>67.0</ele>
        <time>2018-06-10T05:43:58.000Z</time>
      </trkpt>
      <trkpt lat="38.66443717" lon="0.0348945">
        <ele>68.0</ele>
        <time>2018-06-10T05:43:59.000Z</time>
      </trkpt>
      <trkpt lat="38.6644695" lon="0.03491217">
        <ele>68.0</ele>
        <time>2018-06-10T05:44:00.000Z</time>
      </trkpt>
      <trkpt lat="38.66450233" lon="0.03493167">
        <ele>68.0</ele>
        <time>2018-06-10T05:44:01.000Z</time>
      </trkpt>
      <trkpt lat="38.6645355" lon="0.03495283">
        <ele>68.0</ele>
        <time>2018-06-10T05:44:02.000Z</time>
      </trkpt>
      <trkpt lat="38.66456917" lon="0.03497667">
        <ele>67.0</ele>
        <time>2018-06-10T05:44:03.000Z</time>
      </trkpt>
      <trkpt lat="38.66460233" lon="0.03500233">
        <ele>67.0</ele>
        <time>2018-06-10T05:44:04.000Z</time>
      </trkpt>
      <trkpt lat="38.66463467" lon="0.035028">
        <ele>67.0</ele>
        <time>2018-06-10T05:44:05.000Z</time>
      </trkpt>
      <trkpt lat="38.66466633" lon="0.03505317">
        <ele>67.0</ele>
        <time>2018-06-10T05:44:06.000Z</time>
      </trkpt>
      <trkpt lat="38.66469733" lon="0.0350775">
        <ele>68.0</ele>
        <time>2018-06-10T05:44:07.000Z</time>
      </trkpt>
      <trkpt lat="38.66472833" lon="0.03510217">
        <ele>68.0</ele>
        <time>2018-06-10T05:44:08.000Z</time>
      </trkpt>
      <trkpt lat="38.6647595" lon="0.035127">
        <ele>68.0</ele>
        <time>2018-06-10T05:44:09.000Z</time>
      </trkpt>
      <trkpt lat="38.66479067" lon="0.03515233">
        <ele>68.0</ele>
        <time>2018-06-10T05:44:10.000Z</time>
      </trkpt>
      <trkpt lat="38.66482167" lon="0.035178">
        <ele>68.0</ele>
        <time>2018-06-10T05:44:11.000Z</time>
      </trkpt>
      <trkpt lat="38.6648525" lon="0.0352035">
        <ele>69.0</ele>
        <time>2018-06-10T05:44:12.000Z</time>
      </trkpt>
      <trkpt lat="38.66488283" lon="0.03522883">
        <ele>69.0</ele>
        <time>2018-06-10T05:44:13.000Z</time>
      </trkpt>
      <trkpt lat="38.66491283" lon="0.0352545">
        <ele>69.0</ele>
        <time>2018-06-10T05:44:14.000Z</time>
      </trkpt>
      <trkpt lat="38.6649425" lon="0.03528">
        <ele>70.0</ele>
        <time>2018-06-10T05:44:15.000Z</time>
      </trkpt>
      <trkpt lat="38.664972" lon="0.03530483">
        <ele>70.0</ele>
        <time>2018-06-10T05:44:16.000Z</time>
      </trkpt>
      <trkpt lat="38.66500133" lon="0.03532917">
        <ele>70.0</ele>
        <time>2018-06-10T05:44:17.000Z</time>
      </trkpt>
      <trkpt lat="38.66503083" lon="0.035354">
        <ele>70.0</ele>
        <time>2018-06-10T05:44:18.000Z</time>
      </trkpt>
      <trkpt lat="38.66506033" lon="0.0353795">
        <ele>70.0</ele>
        <time>2018-06-10T05:44:19.000Z</time>
      </trkpt>
      <trkpt lat="38.66508983" lon="0.0354055">
        <ele>71.0</ele>
        <time>2018-06-10T05:44:20.000Z</time>
      </trkpt>
      <trkpt lat="38.6651195" lon="0.03543133">
        <ele>71.0</ele>
        <time>2018-06-10T05:44:21.000Z</time>
      </trkpt>
      <trkpt lat="38.66514917" lon="0.0354575">
        <ele>71.0</ele>
        <time>2018-06-10T05:44:22.000Z</time>
      </trkpt>
      <trkpt lat="38.66517867" lon="0.0354835">
        <ele>71.0</ele>
        <time>2018-06-10T05:44:23.000Z</time>
      </trkpt>
      <trkpt lat="38.66520817" lon="0.03550967">
        <ele>72.0</ele>
        <time>2018-06-10T05:44:24.000Z</time>
      </trkpt>
      <trkpt lat="38.66523783" lon="0.0355355">
        <ele>72.0</ele>
        <time>2018-06-10T05:44:25.000Z</time>
      </trkpt>
      <trkpt lat="38.66526767" lon="0.0355615">
        <ele>72.0</ele>
        <time>2018-06-10T05:44:26.000Z</time>
      </trkpt>
      <trkpt lat="38.6652975" lon="0.03558767">
        <ele>72.0</ele>
        <time>2018-06-10T05:44:27.000Z</time>
      </trkpt>
      <trkpt lat="38.66532733" lon="0.03561483">
        <ele>73.0</ele>
        <time>2018-06-10T05:44:28.000Z</time>
      </trkpt>
      <trkpt lat="38.6653565" lon="0.03564333">
        <ele>73.0</ele>
        <time>2018-06-10T05:44:29.000Z</time>
      </trkpt>
      <trkpt lat="38.66538533" lon="0.03567317">
        <ele>73.0</ele>
        <time>2018-06-10T05:44:30.000Z</time>
      </trkpt>
      <trkpt lat="38.665413" lon="0.03570467">
        <ele>73.0</ele>
        <time>2018-06-10T05:44:31.000Z</time>
      </trkpt>
      <trkpt lat="38.66543983" lon="0.03573817">
        <ele>74.0</ele>
        <time>2018-06-10T05:44:32.000Z</time>
      </trkpt>
      <trkpt lat="38.66546583" lon="0.03577333">
        <ele>74.0</ele>
        <time>2018-06-10T05:44:33.000Z</time>
      </trkpt>
      <trkpt lat="38.66549117" lon="0.03581017">
        <ele>74.0</ele>
        <time>2018-06-10T05:44:34.000Z</time>
      </trkpt>
      <trkpt lat="38.665516" lon="0.03584767">
        <ele>75.0</ele>
        <time>2018-06-10T05:44:35.000Z</time>
      </trkpt>
      <trkpt lat="38.66554017" lon="0.03588617">
        <ele>75.0</ele>
        <time>2018-06-10T05:44:36.000Z</time>
      </trkpt>
      <trkpt lat="38.66556217" lon="0.0359255">
        <ele>75.0</ele>
        <time>2018-06-10T05:44:37.000Z</time>
      </trkpt>
      <trkpt lat="38.6655825" lon="0.0359665">
        <ele>76.0</ele>
        <time>2018-06-10T05:44:38.000Z</time>
      </trkpt>
      <trkpt lat="38.6656005" lon="0.03600867">
        <ele>76.0</ele>
        <time>2018-06-10T05:44:39.000Z</time>
      </trkpt>
      <trkpt lat="38.6656175" lon="0.03605183">
        <ele>76.0</ele>
        <time>2018-06-10T05:44:40.000Z</time>
      </trkpt>
      <trkpt lat="38.6656335" lon="0.03609533">
        <ele>77.0</ele>
        <time>2018-06-10T05:44:41.000Z</time>
      </trkpt>
      <trkpt lat="38.6656485" lon="0.03613967">
        <ele>77.0</ele>
        <time>2018-06-10T05:44:42.000Z</time>
      </trkpt>
      <trkpt lat="38.665663" lon="0.03618483">
        <ele>77.0</ele>
        <time>2018-06-10T05:44:43.000Z</time>
      </trkpt>
      <trkpt lat="38.665677" lon="0.03623117">
        <ele>77.0</ele>
        <time>2018-06-10T05:44:44.000Z</time>
      </trkpt>
      <trkpt lat="38.66569217" lon="0.03627783">
        <ele>77.0</ele>
        <time>2018-06-10T05:44:45.000Z</time>
      </trkpt>
      <trkpt lat="38.665707" lon="0.036325">
        <ele>76.0</ele>
        <time>2018-06-10T05:44:46.000Z</time>
      </trkpt>
      <trkpt lat="38.66572083" lon="0.0363715">
        <ele>77.0</ele>
        <time>2018-06-10T05:44:47.000Z</time>
      </trkpt>
      <trkpt lat="38.665735" lon="0.03641767">
        <ele>77.0</ele>
        <time>2018-06-10T05:44:48.000Z</time>
      </trkpt>
      <trkpt lat="38.66575" lon="0.03646317">
        <ele>77.0</ele>
        <time>2018-06-10T05:44:49.000Z</time>
      </trkpt>
      <trkpt lat="38.6657655" lon="0.03650883">
        <ele>77.0</ele>
        <time>2018-06-10T05:44:50.000Z</time>
      </trkpt>
      <trkpt lat="38.66578033" lon="0.03655417">
        <ele>78.0</ele>
        <time>2018-06-10T05:44:51.000Z</time>
      </trkpt>
      <trkpt lat="38.66579467" lon="0.03659967">
        <ele>78.0</ele>
        <time>2018-06-10T05:44:52.000Z</time>
      </trkpt>
      <trkpt lat="38.66580917" lon="0.03664467">
        <ele>78.0</ele>
        <time>2018-06-10T05:44:53.000Z</time>
      </trkpt>
      <trkpt lat="38.66582333" lon="0.03668933">
        <ele>78.0</ele>
        <time>2018-06-10T05:44:54.000Z</time>
      </trkpt>
      <trkpt lat="38.665838" lon="0.03673317">
        <ele>79.0</ele>
        <time>2018-06-10T05:44:55.000Z</time>
      </trkpt>
      <trkpt lat="38.6658525" lon="0.0367765">
        <ele>79.0</ele>
        <time>2018-06-10T05:44:56.000Z</time>
      </trkpt>
      <trkpt lat="38.66586733" lon="0.03681917">
        <ele>79.0</ele>
        <time>2018-06-10T05:44:57.000Z</time>
      </trkpt>
      <trkpt lat="38.66588233" lon="0.03686183">
        <ele>79.0</ele>
        <time>2018-06-10T05:44:58.000Z</time>
      </trkpt>
      <trkpt lat="38.66589767" lon="0.03690467">
        <ele>79.0</ele>
        <time>2018-06-10T05:44:59.000Z</time>
      </trkpt>
      <trkpt lat="38.66591317" lon="0.0369475">
        <ele>79.0</ele>
        <time>2018-06-10T05:45:00.000Z</time>
      </trkpt>
      <trkpt lat="38.66592917" lon="0.03698967">
        <ele>79.0</ele>
        <time>2018-06-10T05:45:01.000Z</time>
      </trkpt>
      <trkpt lat="38.66594583" lon="0.0370315">
        <ele>79.0</ele>
        <time>2018-06-10T05:45:02.000Z</time>
      </trkpt>
      <trkpt lat="38.66596267" lon="0.03707317">
        <ele>79.0</ele>
        <time>2018-06-10T05:45:03.000Z</time>
      </trkpt>
      <trkpt lat="38.66598017" lon="0.03711433">
        <ele>79.0</ele>
        <time>2018-06-10T05:45:04.000Z</time>
      </trkpt>
      <trkpt lat="38.66599917" lon="0.03715417">
        <ele>80.0</ele>
        <time>2018-06-10T05:45:05.000Z</time>
      </trkpt>
      <trkpt lat="38.66601967" lon="0.03719233">
        <ele>80.0</ele>
        <time>2018-06-10T05:45:06.000Z</time>
      </trkpt>
      <trkpt lat="38.66604367" lon="0.03722833">
        <ele>80.0</ele>
        <time>2018-06-10T05:45:07.000Z</time>
      </trkpt>
      <trkpt lat="38.66606933" lon="0.03726317">
        <ele>80.0</ele>
        <time>2018-06-10T05:45:08.000Z</time>
      </trkpt>
      <trkpt lat="38.666097" lon="0.037297">
        <ele>81.0</ele>
        <time>2018-06-10T05:45:09.000Z</time>
      </trkpt>
      <trkpt lat="38.66612433" lon="0.03732967">
        <ele>81.0</ele>
        <time>2018-06-10T05:45:10.000Z</time>
      </trkpt>
      <trkpt lat="38.66615267" lon="0.03735967">
        <ele>81.0</ele>
        <time>2018-06-10T05:45:11.000Z</time>
      </trkpt>
      <trkpt lat="38.66618133" lon="0.03738717">
        <ele>81.0</ele>
        <time>2018-06-10T05:45:12.000Z</time>
      </trkpt>
      <trkpt lat="38.6662105" lon="0.0374125">
        <ele>81.0</ele>
        <time>2018-06-10T05:45:13.000Z</time>
      </trkpt>
      <trkpt lat="38.66624067" lon="0.0374355">
        <ele>81.0</ele>
        <time>2018-06-10T05:45:14.000Z</time>
      </trkpt>
      <trkpt lat="38.66627267" lon="0.03745617">
        <ele>81.0</ele>
        <time>2018-06-10T05:45:15.000Z</time>
      </trkpt>
      <trkpt lat="38.66630583" lon="0.0374745">
        <ele>82.0</ele>
        <time>2018-06-10T05:45:16.000Z</time>
      </trkpt>
      <trkpt lat="38.66633983" lon="0.03749167">
        <ele>82.0</ele>
        <time>2018-06-10T05:45:17.000Z</time>
      </trkpt>
      <trkpt lat="38.6663745" lon="0.0375065">
        <ele>82.0</ele>
        <time>2018-06-10T05:45:18.000Z</time>
      </trkpt>
      <trkpt lat="38.66641017" lon="0.03751783">
        <ele>82.0</ele>
        <time>2018-06-10T05:45:19.000Z</time>
      </trkpt>
      <trkpt lat="38.66644683" lon="0.03752617">
        <ele>82.0</ele>
        <time>2018-06-10T05:45:20.000Z</time>
      </trkpt>
      <trkpt lat="38.66648367" lon="0.03753167">
        <ele>83.0</ele>
        <time>2018-06-10T05:45:21.000Z</time>
      </trkpt>
      <trkpt lat="38.66652" lon="0.0375355">
        <ele>83.0</ele>
        <time>2018-06-10T05:45:22.000Z</time>
      </trkpt>
      <trkpt lat="38.6665565" lon="0.03753633">
        <ele>83.0</ele>
        <time>2018-06-10T05:45:23.000Z</time>
      </trkpt>
      <trkpt lat="38.66659333" lon="0.03753517">
        <ele>83.0</ele>
        <time>2018-06-10T05:45:24.000Z</time>
      </trkpt>
      <trkpt lat="38.66663067" lon="0.037531">
        <ele>83.0</ele>
        <time>2018-06-10T05:45:25.000Z</time>
      </trkpt>
      <trkpt lat="38.66666783" lon="0.03752467">
        <ele>83.0</ele>
        <time>2018-06-10T05:45:26.000Z</time>
      </trkpt>
      <trkpt lat="38.66670417" lon="0.03751617">
        <ele>83.0</ele>
        <time>2018-06-10T05:45:27.000Z</time>
      </trkpt>
      <trkpt lat="38.66674" lon="0.0375065">
        <ele>84.0</ele>
        <time>2018-06-10T05:45:28.000Z</time>
      </trkpt>
      <trkpt lat="38.66677533" lon="0.037495">
        <ele>84.0</ele>
        <time>2018-06-10T05:45:29.000Z</time>
      </trkpt>
      <trkpt lat="38.66681" lon="0.03748117">
        <ele>84.0</ele>
        <time>2018-06-10T05:45:30.000Z</time>
      </trkpt>
      <trkpt lat="38.66684417" lon="0.03746533">
        <ele>84.0</ele>
        <time>2018-06-10T05:45:31.000Z</time>
      </trkpt>
      <trkpt lat="38.66687783" lon="0.03744817">
        <ele>85.0</ele>
        <time>2018-06-10T05:45:32.000Z</time>
      </trkpt>
      <trkpt lat="38.66691067" lon="0.0374285">
        <ele>85.0</ele>
        <time>2018-06-10T05:45:33.000Z</time>
      </trkpt>
      <trkpt lat="38.66694317" lon="0.037407">
        <ele>85.0</ele>
        <time>2018-06-10T05:45:34.000Z</time>
      </trkpt>
      <trkpt lat="38.6669755" lon="0.03738433">
        <ele>85.0</ele>
        <time>2018-06-10T05:45:35.000Z</time>
      </trkpt>
      <trkpt lat="38.66700833" lon="0.03736117">
        <ele>86.0</ele>
        <time>2018-06-10T05:45:36.000Z</time>
      </trkpt>
      <trkpt lat="38.66704183" lon="0.03733733">
        <ele>85.0</ele>
        <time>2018-06-10T05:45:37.000Z</time>
      </trkpt>
      <trkpt lat="38.66707567" lon="0.03731167">
        <ele>86.0</ele>
        <time>2018-06-10T05:45:38.000Z</time>
      </trkpt>
      <trkpt lat="38.66710967" lon="0.03728583">
        <ele>85.0</ele>
        <time>2018-06-10T05:45:39.000Z</time>
      </trkpt>
      <trkpt lat="38.66714317" lon="0.03725967">
        <ele>86.0</ele>
        <time>2018-06-10T05:45:40.000Z</time>
      </trkpt>
      <trkpt lat="38.66717683" lon="0.03723417">
        <ele>86.0</ele>
        <time>2018-06-10T05:45:41.000Z</time>
      </trkpt>
      <trkpt lat="38.66721017" lon="0.037209">
        <ele>86.0</ele>
        <time>2018-06-10T05:45:42.000Z</time>
      </trkpt>
      <trkpt lat="38.66724467" lon="0.03718567">
        <ele>86.0</ele>
        <time>2018-06-10T05:45:43.000Z</time>
      </trkpt>
      <trkpt lat="38.66727933" lon="0.03716317">
        <ele>86.0</ele>
        <time>2018-06-10T05:45:44.000Z</time>
      </trkpt>
      <trkpt lat="38.6673145" lon="0.03714233">
        <ele>86.0</ele>
        <time>2018-06-10T05:45:45.000Z</time>
      </trkpt>
      <trkpt lat="38.6673495" lon="0.0371225">
        <ele>87.0</ele>
        <time>2018-06-10T05:45:46.000Z</time>
      </trkpt>
      <trkpt lat="38.66738533" lon="0.0371045">
        <ele>87.0</ele>
        <time>2018-06-10T05:45:47.000Z</time>
      </trkpt>
      <trkpt lat="38.66742133" lon="0.03708833">
        <ele>88.0</ele>
        <time>2018-06-10T05:45:48.000Z</time>
      </trkpt>
      <trkpt lat="38.66745817" lon="0.03707517">
        <ele>88.0</ele>
        <time>2018-06-10T05:45:49.000Z</time>
      </trkpt>
      <trkpt lat="38.667496" lon="0.0370655">
        <ele>88.0</ele>
        <time>2018-06-10T05:45:50.000Z</time>
      </trkpt>
      <trkpt lat="38.66753567" lon="0.037061">
        <ele>88.0</ele>
        <time>2018-06-10T05:45:51.000Z</time>
      </trkpt>
      <trkpt lat="38.66757483" lon="0.03705917">
        <ele>89.0</ele>
        <time>2018-06-10T05:45:52.000Z</time>
      </trkpt>
      <trkpt lat="38.6676135" lon="0.03706033">
        <ele>89.0</ele>
        <time>2018-06-10T05:45:53.000Z</time>
      </trkpt>
      <trkpt lat="38.66765133" lon="0.037064">
        <ele>89.0</ele>
        <time>2018-06-10T05:45:54.000Z</time>
      </trkpt>
      <trkpt lat="38.66769017" lon="0.03707267">
        <ele>89.0</ele>
        <time>2018-06-10T05:45:55.000Z</time>
      </trkpt>
      <trkpt lat="38.66772883" lon="0.03708533">
        <ele>89.0</ele>
        <time>2018-06-10T05:45:56.000Z</time>
      </trkpt>
      <trkpt lat="38.667767" lon="0.03710117">
        <ele>89.0</ele>
        <time>2018-06-10T05:45:57.000Z</time>
      </trkpt>
      <trkpt lat="38.66780433" lon="0.03711983">
        <ele>90.0</ele>
        <time>2018-06-10T05:45:58.000Z</time>
      </trkpt>
      <trkpt lat="38.6678415" lon="0.03714183">
        <ele>90.0</ele>
        <time>2018-06-10T05:45:59.000Z</time>
      </trkpt>
      <trkpt lat="38.6678785" lon="0.037167">
        <ele>90.0</ele>
        <time>2018-06-10T05:46:00.000Z</time>
      </trkpt>
      <trkpt lat="38.66791467" lon="0.0371945">
        <ele>90.0</ele>
        <time>2018-06-10T05:46:01.000Z</time>
      </trkpt>
      <trkpt lat="38.66794917" lon="0.03722533">
        <ele>90.0</ele>
        <time>2018-06-10T05:46:02.000Z</time>
      </trkpt>
      <trkpt lat="38.6679825" lon="0.03725883">
        <ele>90.0</ele>
        <time>2018-06-10T05:46:03.000Z</time>
      </trkpt>
      <trkpt lat="38.66801483" lon="0.03729433">
        <ele>90.0</ele>
        <time>2018-06-10T05:46:04.000Z</time>
      </trkpt>
      <trkpt lat="38.668047" lon="0.03733083">
        <ele>90.0</ele>
        <time>2018-06-10T05:46:05.000Z</time>
      </trkpt>
      <trkpt lat="38.66807867" lon="0.03736867">
        <ele>91.0</ele>
        <time>2018-06-10T05:46:06.000Z</time>
      </trkpt>
      <trkpt lat="38.66811" lon="0.03740817">
        <ele>91.0</ele>
        <time>2018-06-10T05:46:07.000Z</time>
      </trkpt>
      <trkpt lat="38.66814067" lon="0.03744917">
        <ele>91.0</ele>
        <time>2018-06-10T05:46:08.000Z</time>
      </trkpt>
      <trkpt lat="38.66817083" lon="0.03749133">
        <ele>91.0</ele>
        <time>2018-06-10T05:46:09.000Z</time>
      </trkpt>
      <trkpt lat="38.66820033" lon="0.0375345">
        <ele>91.0</ele>
        <time>2018-06-10T05:46:10.000Z</time>
      </trkpt>
      <trkpt lat="38.66822933" lon="0.03757817">
        <ele>91.0</ele>
        <time>2018-06-10T05:46:11.000Z</time>
      </trkpt>
      <trkpt lat="38.66825783" lon="0.03762233">
        <ele>91.0</ele>
        <time>2018-06-10T05:46:12.000Z</time>
      </trkpt>
      <trkpt lat="38.66828633" lon="0.037667">
        <ele>91.0</ele>
        <time>2018-06-10T05:46:13.000Z</time>
      </trkpt>
      <trkpt lat="38.66831417" lon="0.037712">
        <ele>92.0</ele>
        <time>2018-06-10T05:46:14.000Z</time>
      </trkpt>
      <trkpt lat="38.66834183" lon="0.03775783">
        <ele>92.0</ele>
        <time>2018-06-10T05:46:15.000Z</time>
      </trkpt>
      <trkpt lat="38.66836883" lon="0.03780417">
        <ele>92.0</ele>
        <time>2018-06-10T05:46:16.000Z</time>
      </trkpt>
      <trkpt lat="38.66839567" lon="0.037851">
        <ele>92.0</ele>
        <time>2018-06-10T05:46:17.000Z</time>
      </trkpt>
      <trkpt lat="38.6684225" lon="0.037897">
        <ele>92.0</ele>
        <time>2018-06-10T05:46:18.000Z</time>
      </trkpt>
      <trkpt lat="38.6684495" lon="0.03794167">
        <ele>93.0</ele>
        <time>2018-06-10T05:46:19.000Z</time>
      </trkpt>
      <trkpt lat="38.66847683" lon="0.037985">
        <ele>93.0</ele>
        <time>2018-06-10T05:46:20.000Z</time>
      </trkpt>
      <trkpt lat="38.6685035" lon="0.038028">
        <ele>93.0</ele>
        <time>2018-06-10T05:46:21.000Z</time>
      </trkpt>
      <trkpt lat="38.66853" lon="0.03807083">
        <ele>93.0</ele>
        <time>2018-06-10T05:46:22.000Z</time>
      </trkpt>
      <trkpt lat="38.668558" lon="0.038112">
        <ele>93.0</ele>
        <time>2018-06-10T05:46:23.000Z</time>
      </trkpt>
      <trkpt lat="38.66858833" lon="0.038151">
        <ele>93.0</ele>
        <time>2018-06-10T05:46:24.000Z</time>
      </trkpt>
      <trkpt lat="38.66862083" lon="0.03818833">
        <ele>93.0</ele>
        <time>2018-06-10T05:46:25.000Z</time>
      </trkpt>
      <trkpt lat="38.66865383" lon="0.03822417">
        <ele>93.0</ele>
        <time>2018-06-10T05:46:26.000Z</time>
      </trkpt>
      <trkpt lat="38.66868767" lon="0.03825833">
        <ele>94.0</ele>
        <time>2018-06-10T05:46:27.000Z</time>
      </trkpt>
      <trkpt lat="38.66872267" lon="0.03829">
        <ele>94.0</ele>
        <time>2018-06-10T05:46:28.000Z</time>
      </trkpt>
      <trkpt lat="38.66875817" lon="0.03831983">
        <ele>94.0</ele>
        <time>2018-06-10T05:46:29.000Z</time>
      </trkpt>
      <trkpt lat="38.6687945" lon="0.03834733">
        <ele>94.0</ele>
        <time>2018-06-10T05:46:30.000Z</time>
      </trkpt>
      <trkpt lat="38.668832" lon="0.03837283">
        <ele>94.0</ele>
        <time>2018-06-10T05:46:31.000Z</time>
      </trkpt>
      <trkpt lat="38.66887183" lon="0.0383965">
        <ele>94.0</ele>
        <time>2018-06-10T05:46:32.000Z</time>
      </trkpt>
      <trkpt lat="38.66891317" lon="0.0384185">
        <ele>95.0</ele>
        <time>2018-06-10T05:46:33.000Z</time>
      </trkpt>
      <trkpt lat="38.6689555" lon="0.03843867">
        <ele>95.0</ele>
        <time>2018-06-10T05:46:34.000Z</time>
      </trkpt>
      <trkpt lat="38.668998" lon="0.03845667">
        <ele>95.0</ele>
        <time>2018-06-10T05:46:35.000Z</time>
      </trkpt>
      <trkpt lat="38.66904083" lon="0.0384735">
        <ele>95.0</ele>
        <time>2018-06-10T05:46:36.000Z</time>
      </trkpt>
      <trkpt lat="38.66908383" lon="0.0384895">
        <ele>96.0</ele>
        <time>2018-06-10T05:46:37.000Z</time>
      </trkpt>
      <trkpt lat="38.66912617" lon="0.03850517">
        <ele>96.0</ele>
        <time>2018-06-10T05:46:38.000Z</time>
      </trkpt>
      <trkpt lat="38.66916833" lon="0.0385205">
        <ele>96.0</ele>
        <time>2018-06-10T05:46:39.000Z</time>
      </trkpt>
      <trkpt lat="38.66921017" lon="0.03853567">
        <ele>96.0</ele>
        <time>2018-06-10T05:46:40.000Z</time>
      </trkpt>
      <trkpt lat="38.66925167" lon="0.03855067">
        <ele>97.0</ele>
        <time>2018-06-10T05:46:41.000Z</time>
      </trkpt>
      <trkpt lat="38.66929317" lon="0.03856567">
        <ele>97.0</ele>
        <time>2018-06-10T05:46:42.000Z</time>
      </trkpt>
      <trkpt lat="38.66933483" lon="0.03858017">
        <ele>97.0</ele>
        <time>2018-06-10T05:46:43.000Z</time>
      </trkpt>
      <trkpt lat="38.66937667" lon="0.03859383">
        <ele>97.0</ele>
        <time>2018-06-10T05:46:44.000Z</time>
      </trkpt>
      <trkpt lat="38.6694185" lon="0.0386065">
        <ele>97.0</ele>
        <time>2018-06-10T05:46:45.000Z</time>
      </trkpt>
      <trkpt lat="38.66946067" lon="0.03861817">
        <ele>98.0</ele>
        <time>2018-06-10T05:46:46.000Z</time>
      </trkpt>
      <trkpt lat="38.6695025" lon="0.03862833">
        <ele>98.0</ele>
        <time>2018-06-10T05:46:47.000Z</time>
      </trkpt>
      <trkpt lat="38.66954417" lon="0.03863717">
        <ele>98.0</ele>
        <time>2018-06-10T05:46:48.000Z</time>
      </trkpt>
      <trkpt lat="38.66958583" lon="0.03864433">
        <ele>99.0</ele>
        <time>2018-06-10T05:46:49.000Z</time>
      </trkpt>
      <trkpt lat="38.66962817" lon="0.03864983">
        <ele>99.0</ele>
        <time>2018-06-10T05:46:50.000Z</time>
      </trkpt>
      <trkpt lat="38.669671" lon="0.03865283">
        <ele>99.0</ele>
        <time>2018-06-10T05:46:51.000Z</time>
      </trkpt>
      <trkpt lat="38.66971433" lon="0.03865333">
        <ele>99.0</ele>
        <time>2018-06-10T05:46:52.000Z</time>
      </trkpt>
      <trkpt lat="38.66975767" lon="0.0386515">
        <ele>99.0</ele>
        <time>2018-06-10T05:46:53.000Z</time>
      </trkpt>
      <trkpt lat="38.669801" lon="0.03864683">
        <ele>99.0</ele>
        <time>2018-06-10T05:46:54.000Z</time>
      </trkpt>
      <trkpt lat="38.66984433" lon="0.03863867">
        <ele>100.0</ele>
        <time>2018-06-10T05:46:55.000Z</time>
      </trkpt>
      <trkpt lat="38.669887" lon="0.03862683">
        <ele>100.0</ele>
        <time>2018-06-10T05:46:56.000Z</time>
      </trkpt>
      <trkpt lat="38.6699295" lon="0.0386115">
        <ele>100.0</ele>
        <time>2018-06-10T05:46:57.000Z</time>
      </trkpt>
      <trkpt lat="38.66997183" lon="0.03859383">
        <ele>100.0</ele>
        <time>2018-06-10T05:46:58.000Z</time>
      </trkpt>
      <trkpt lat="38.67001383" lon="0.03857283">
        <ele>100.0</ele>
        <time>2018-06-10T05:46:59.000Z</time>
      </trkpt>
      <trkpt lat="38.67005483" lon="0.03854783">
        <ele>101.0</ele>
        <time>2018-06-10T05:47:00.000Z</time>
      </trkpt>
      <trkpt lat="38.67009417" lon="0.03851867">
        <ele>100.0</ele>
        <time>2018-06-10T05:47:01.000Z</time>
      </trkpt>
      <trkpt lat="38.67013183" lon="0.03848583">
        <ele>101.0</ele>
        <time>2018-06-10T05:47:02.000Z</time>
      </trkpt>
      <trkpt lat="38.6701675" lon="0.03844933">
        <ele>101.0</ele>
        <time>2018-06-10T05:47:03.000Z</time>
      </trkpt>
      <trkpt lat="38.67020133" lon="0.03841033">
        <ele>101.0</ele>
        <time>2018-06-10T05:47:04.000Z</time>
      </trkpt>
      <trkpt lat="38.670234" lon="0.03836883">
        <ele>101.0</ele>
        <time>2018-06-10T05:47:05.000Z</time>
      </trkpt>
      <trkpt lat="38.67026583" lon="0.03832617">
        <ele>102.0</ele>
        <time>2018-06-10T05:47:06.000Z</time>
      </trkpt>
      <trkpt lat="38.67029667" lon="0.03828217">
        <ele>102.0</ele>
        <time>2018-06-10T05:47:07.000Z</time>
      </trkpt>
      <trkpt lat="38.67032683" lon="0.038238">
        <ele>102.0</ele>
        <time>2018-06-10T05:47:08.000Z</time>
      </trkpt>
      <trkpt lat="38.67035667" lon="0.038193">
        <ele>102.0</ele>
        <time>2018-06-10T05:47:09.000Z</time>
      </trkpt>
      <trkpt lat="38.6703865" lon="0.0381475">
        <ele>102.0</ele>
        <time>2018-06-10T05:47:10.000Z</time>
      </trkpt>
      <trkpt lat="38.6704165" lon="0.038101">
        <ele>102.0</ele>
        <time>2018-06-10T05:47:11.000Z</time>
      </trkpt>
      <trkpt lat="38.67044733" lon="0.0380555">
        <ele>103.0</ele>
        <time>2018-06-10T05:47:12.000Z</time>
      </trkpt>
      <trkpt lat="38.67047933" lon="0.0380115">
        <ele>103.0</ele>
        <time>2018-06-10T05:47:13.000Z</time>
      </trkpt>
      <trkpt lat="38.670513" lon="0.0379705">
        <ele>103.0</ele>
        <time>2018-06-10T05:47:14.000Z</time>
      </trkpt>
      <trkpt lat="38.67054883" lon="0.03793283">
        <ele>103.0</ele>
        <time>2018-06-10T05:47:15.000Z</time>
      </trkpt>
      <trkpt lat="38.67058617" lon="0.0379005">
        <ele>103.0</ele>
        <time>2018-06-10T05:47:16.000Z</time>
      </trkpt>
      <trkpt lat="38.67062417" lon="0.03787267">
        <ele>103.0</ele>
        <time>2018-06-10T05:47:17.000Z</time>
      </trkpt>
      <trkpt lat="38.6706615" lon="0.03784867">
        <ele>104.0</ele>
        <time>2018-06-10T05:47:18.000Z</time>
      </trkpt>
      <trkpt lat="38.67069783" lon="0.03782667">
        <ele>104.0</ele>
        <time>2018-06-10T05:47:19.000Z</time>
      </trkpt>
      <trkpt lat="38.67073383" lon="0.03780683">
        <ele>104.0</ele>
        <time>2018-06-10T05:47:20.000Z</time>
      </trkpt>
      <trkpt lat="38.67077117" lon="0.03779017">
        <ele>104.0</ele>
        <time>2018-06-10T05:47:21.000Z</time>
      </trkpt>
      <trkpt lat="38.67081083" lon="0.03777667">
        <ele>104.0</ele>
        <time>2018-06-10T05:47:22.000Z</time>
      </trkpt>
      <trkpt lat="38.67085283" lon="0.0377685">
        <ele>104.0</ele>
        <time>2018-06-10T05:47:23.000Z</time>
      </trkpt>
      <trkpt lat="38.67089533" lon="0.03776333">
        <ele>104.0</ele>
        <time>2018-06-10T05:47:24.000Z</time>
      </trkpt>
      <trkpt lat="38.670938" lon="0.037762">
        <ele>104.0</ele>
        <time>2018-06-10T05:47:25.000Z</time>
      </trkpt>
      <trkpt lat="38.67098017" lon="0.037762">
        <ele>104.0</ele>
        <time>2018-06-10T05:47:26.000Z</time>
      </trkpt>
      <trkpt lat="38.6710225" lon="0.03776417">
        <ele>105.0</ele>
        <time>2018-06-10T05:47:27.000Z</time>
      </trkpt>
      <trkpt lat="38.67106467" lon="0.03776883">
        <ele>105.0</ele>
        <time>2018-06-10T05:47:28.000Z</time>
      </trkpt>
      <trkpt lat="38.6711065" lon="0.0377755">
        <ele>106.0</ele>
        <time>2018-06-10T05:47:29.000Z</time>
      </trkpt>
      <trkpt lat="38.671149" lon="0.03778683">
        <ele>106.0</ele>
        <time>2018-06-10T05:47:30.000Z</time>
      </trkpt>
      <trkpt lat="38.67119067" lon="0.03780267">
        <ele>106.0</ele>
        <time>2018-06-10T05:47:31.000Z</time>
      </trkpt>
      <trkpt lat="38.6712315" lon="0.03782367">
        <ele>106.0</ele>
        <time>2018-06-10T05:47:32.000Z</time>
      </trkpt>
      <trkpt lat="38.67127033" lon="0.03784833">
        <ele>106.0</ele>
        <time>2018-06-10T05:47:33.000Z</time>
      </trkpt>
      <trkpt lat="38.671308" lon="0.03787583">
        <ele>107.0</ele>
        <time>2018-06-10T05:47:34.000Z</time>
      </trkpt>
      <trkpt lat="38.67134533" lon="0.03790467">
        <ele>107.0</ele>
        <time>2018-06-10T05:47:35.000Z</time>
      </trkpt>
      <trkpt lat="38.67138183" lon="0.037934">
        <ele>107.0</ele>
        <time>2018-06-10T05:47:36.000Z</time>
      </trkpt>
      <trkpt lat="38.67141717" lon="0.037964">
        <ele>107.0</ele>
        <time>2018-06-10T05:47:37.000Z</time>
      </trkpt>
      <trkpt lat="38.6714515" lon="0.037995">
        <ele>107.0</ele>
        <time>2018-06-10T05:47:38.000Z</time>
      </trkpt>
      <trkpt lat="38.67148517" lon="0.03802633">
        <ele>107.0</ele>
        <time>2018-06-10T05:47:39.000Z</time>
      </trkpt>
      <trkpt lat="38.671519" lon="0.03805733">
        <ele>108.0</ele>
        <time>2018-06-10T05:47:40.000Z</time>
      </trkpt>
      <trkpt lat="38.6715525" lon="0.03808833">
        <ele>108.0</ele>
        <time>2018-06-10T05:47:41.000Z</time>
      </trkpt>
      <trkpt lat="38.67158667" lon="0.03811917">
        <ele>108.0</ele>
        <time>2018-06-10T05:47:42.000Z</time>
      </trkpt>
      <trkpt lat="38.67162167" lon="0.03815083">
        <ele>108.0</ele>
        <time>2018-06-10T05:47:43.000Z</time>
      </trkpt>
      <trkpt lat="38.67165667" lon="0.038183">
        <ele>108.0</ele>
        <time>2018-06-10T05:47:44.000Z</time>
      </trkpt>
      <trkpt lat="38.67169317" lon="0.0382165">
        <ele>108.0</ele>
        <time>2018-06-10T05:47:45.000Z</time>
      </trkpt>
      <trkpt lat="38.6717305" lon="0.03825067">
        <ele>109.0</ele>
        <time>2018-06-10T05:47:46.000Z</time>
      </trkpt>
      <trkpt lat="38.67176783" lon="0.03828517">
        <ele>109.0</ele>
        <time>2018-06-10T05:47:47.000Z</time>
      </trkpt>
      <trkpt lat="38.67180383" lon="0.03831817">
        <ele>109.0</ele>
        <time>2018-06-10T05:47:48.000Z</time>
      </trkpt>
      <trkpt lat="38.67183867" lon="0.0383485">
        <ele>109.0</ele>
        <time>2018-06-10T05:47:49.000Z</time>
      </trkpt>
      <trkpt lat="38.6718745" lon="0.03837583">
        <ele>109.0</ele>
        <time>2018-06-10T05:47:50.000Z</time>
      </trkpt>
      <trkpt lat="38.67191117" lon="0.038402">
        <ele>109.0</ele>
        <time>2018-06-10T05:47:51.000Z</time>
      </trkpt>
      <trkpt lat="38.67194933" lon="0.038428">
        <ele>110.0</ele>
        <time>2018-06-10T05:47:52.000Z</time>
      </trkpt>
      <trkpt lat="38.67198817" lon="0.0384535">
        <ele>110.0</ele>
        <time>2018-06-10T05:47:53.000Z</time>
      </trkpt>
      <trkpt lat="38.67202833" lon="0.0384775">
        <ele>110.0</ele>
        <time>2018-06-10T05:47:54.000Z</time>
      </trkpt>
      <trkpt lat="38.6720695" lon="0.03849983">
        <ele>111.0</ele>
        <time>2018-06-10T05:47:55.000Z</time>
      </trkpt>
      <trkpt lat="38.672112" lon="0.0385205">
        <ele>111.0</ele>
        <time>2018-06-10T05:47:56.000Z</time>
      </trkpt>
      <trkpt lat="38.67215567" lon="0.03854017">
        <ele>111.0</ele>
        <time>2018-06-10T05:47:57.000Z</time>
      </trkpt>
      <trkpt lat="38.6722005" lon="0.03855833">
        <ele>111.0</ele>
        <time>2018-06-10T05:47:58.000Z</time>
      </trkpt>
      <trkpt lat="38.6722455" lon="0.03857483">
        <ele>111.0</ele>
        <time>2018-06-10T05:47:59.000Z</time>
      </trkpt>
      <trkpt lat="38.672291" lon="0.03858767">
        <ele>111.0</ele>
        <time>2018-06-10T05:48:00.000Z</time>
      </trkpt>
      <trkpt lat="38.672337" lon="0.03859683">
        <ele>111.0</ele>
        <time>2018-06-10T05:48:01.000Z</time>
      </trkpt>
      <trkpt lat="38.6723835" lon="0.03860267">
        <ele>111.0</ele>
        <time>2018-06-10T05:48:02.000Z</time>
      </trkpt>
      <trkpt lat="38.67243017" lon="0.03860633">
        <ele>111.0</ele>
        <time>2018-06-10T05:48:03.000Z</time>
      </trkpt>
      <trkpt lat="38.67247683" lon="0.03860783">
        <ele>112.0</ele>
        <time>2018-06-10T05:48:04.000Z</time>
      </trkpt>
      <trkpt lat="38.672524" lon="0.0386075">
        <ele>112.0</ele>
        <time>2018-06-10T05:48:05.000Z</time>
      </trkpt>
      <trkpt lat="38.67257133" lon="0.03860633">
        <ele>112.0</ele>
        <time>2018-06-10T05:48:06.000Z</time>
      </trkpt>
      <trkpt lat="38.6726185" lon="0.0386045">
        <ele>112.0</ele>
        <time>2018-06-10T05:48:07.000Z</time>
      </trkpt>
      <trkpt lat="38.672666" lon="0.03860267">
        <ele>112.0</ele>
        <time>2018-06-10T05:48:08.000Z</time>
      </trkpt>
      <trkpt lat="38.672714" lon="0.03860083">
        <ele>112.0</ele>
        <time>2018-06-10T05:48:09.000Z</time>
      </trkpt>
      <trkpt lat="38.67276283" lon="0.03859833">
        <ele>112.0</ele>
        <time>2018-06-10T05:48:10.000Z</time>
      </trkpt>
      <trkpt lat="38.67281217" lon="0.038595">
        <ele>113.0</ele>
        <time>2018-06-10T05:48:11.000Z</time>
      </trkpt>
      <trkpt lat="38.672862" lon="0.038592">
        <ele>113.0</ele>
        <time>2018-06-10T05:48:12.000Z</time>
      </trkpt>
      <trkpt lat="38.67291183" lon="0.0385895">
        <ele>113.0</ele>
        <time>2018-06-10T05:48:13.000Z</time>
      </trkpt>
      <trkpt lat="38.6729615" lon="0.03858633">
        <ele>113.0</ele>
        <time>2018-06-10T05:48:14.000Z</time>
      </trkpt>
      <trkpt lat="38.673011" lon="0.038583">
        <ele>113.0</ele>
        <time>2018-06-10T05:48:15.000Z</time>
      </trkpt>
      <trkpt lat="38.67306017" lon="0.03857933">
        <ele>114.0</ele>
        <time>2018-06-10T05:48:16.000Z</time>
      </trkpt>
      <trkpt lat="38.67311" lon="0.03857683">
        <ele>114.0</ele>
        <time>2018-06-10T05:48:17.000Z</time>
      </trkpt>
      <trkpt lat="38.673161" lon="0.03857367">
        <ele>114.0</ele>
        <time>2018-06-10T05:48:18.000Z</time>
      </trkpt>
      <trkpt lat="38.67321267" lon="0.03857">
        <ele>115.0</ele>
        <time>2018-06-10T05:48:19.000Z</time>
      </trkpt>
      <trkpt lat="38.67326367" lon="0.03856567">
        <ele>115.0</ele>
        <time>2018-06-10T05:48:20.000Z</time>
      </trkpt>
      <trkpt lat="38.67331367" lon="0.03856133">
        <ele>115.0</ele>
        <time>2018-06-10T05:48:21.000Z</time>
      </trkpt>
      <trkpt lat="38.67336283" lon="0.03855717">
        <ele>115.0</ele>
        <time>2018-06-10T05:48:22.000Z</time>
      </trkpt>
      <trkpt lat="38.67341083" lon="0.03855317">
        <ele>116.0</ele>
        <time>2018-06-10T05:48:23.000Z</time>
      </trkpt>
      <trkpt lat="38.67345817" lon="0.0385495">
        <ele>116.0</ele>
        <time>2018-06-10T05:48:24.000Z</time>
      </trkpt>
      <trkpt lat="38.67350583" lon="0.038546">
        <ele>116.0</ele>
        <time>2018-06-10T05:48:25.000Z</time>
      </trkpt>
      <trkpt lat="38.673554" lon="0.0385425">
        <ele>116.0</ele>
        <time>2018-06-10T05:48:26.000Z</time>
      </trkpt>
      <trkpt lat="38.67360233" lon="0.03853867">
        <ele>117.0</ele>
        <time>2018-06-10T05:48:27.000Z</time>
      </trkpt>
      <trkpt lat="38.67365067" lon="0.03853517">
        <ele>117.0</ele>
        <time>2018-06-10T05:48:28.000Z</time>
      </trkpt>
      <trkpt lat="38.67369917" lon="0.03853183">
        <ele>117.0</ele>
        <time>2018-06-10T05:48:29.000Z</time>
      </trkpt>
      <trkpt lat="38.67374733" lon="0.03852883">
        <ele>117.0</ele>
        <time>2018-06-10T05:48:30.000Z</time>
      </trkpt>
      <trkpt lat="38.67379467" lon="0.038526">
        <ele>118.0</ele>
        <time>2018-06-10T05:48:31.000Z</time>
      </trkpt>
      <trkpt lat="38.67384067" lon="0.03852367">
        <ele>118.0</ele>
        <time>2018-06-10T05:48:32.000Z</time>
      </trkpt>
      <trkpt lat="38.673886" lon="0.03852117">
        <ele>118.0</ele>
        <time>2018-06-10T05:48:33.000Z</time>
      </trkpt>
      <trkpt lat="38.6739305" lon="0.0385185">
        <ele>118.0</ele>
        <time>2018-06-10T05:48:34.000Z</time>
      </trkpt>
      <trkpt lat="38.67397483" lon="0.03851567">
        <ele>118.0</ele>
        <time>2018-06-10T05:48:35.000Z</time>
      </trkpt>
      <trkpt lat="38.67401917" lon="0.0385125">
        <ele>119.0</ele>
        <time>2018-06-10T05:48:36.000Z</time>
      </trkpt>
      <trkpt lat="38.67406383" lon="0.038509">
        <ele>119.0</ele>
        <time>2018-06-10T05:48:37.000Z</time>
      </trkpt>
      <trkpt lat="38.674109" lon="0.03850517">
        <ele>119.0</ele>
        <time>2018-06-10T05:48:38.000Z</time>
      </trkpt>
      <trkpt lat="38.67415467" lon="0.038501">
        <ele>119.0</ele>
        <time>2018-06-10T05:48:39.000Z</time>
      </trkpt>
      <trkpt lat="38.674201" lon="0.038497">
        <ele>119.0</ele>
        <time>2018-06-10T05:48:40.000Z</time>
      </trkpt>
      <trkpt lat="38.67424833" lon="0.038493">
        <ele>120.0</ele>
        <time>2018-06-10T05:48:41.000Z</time>
      </trkpt>
      <trkpt lat="38.6742965" lon="0.03848917">
        <ele>120.0</ele>
        <time>2018-06-10T05:48:42.000Z</time>
      </trkpt>
      <trkpt lat="38.6743445" lon="0.03848617">
        <ele>120.0</ele>
        <time>2018-06-10T05:48:43.000Z</time>
      </trkpt>
      <trkpt lat="38.67439183" lon="0.03848333">
        <ele>120.0</ele>
        <time>2018-06-10T05:48:44.000Z</time>
      </trkpt>
      <trkpt lat="38.6744385" lon="0.0384805">
        <ele>120.0</ele>
        <time>2018-06-10T05:48:45.000Z</time>
      </trkpt>
      <trkpt lat="38.674485" lon="0.03847733">
        <ele>120.0</ele>
        <time>2018-06-10T05:48:46.000Z</time>
      </trkpt>
      <trkpt lat="38.674532" lon="0.03847433">
        <ele>120.0</ele>
        <time>2018-06-10T05:48:47.000Z</time>
      </trkpt>
      <trkpt lat="38.67457983" lon="0.0384715">
        <ele>120.0</ele>
        <time>2018-06-10T05:48:48.000Z</time>
      </trkpt>
      <trkpt lat="38.674628" lon="0.03846833">
        <ele>121.0</ele>
        <time>2018-06-10T05:48:49.000Z</time>
      </trkpt>
      <trkpt lat="38.6746765" lon="0.03846417">
        <ele>121.0</ele>
        <time>2018-06-10T05:48:50.000Z</time>
      </trkpt>
      <trkpt lat="38.67472533" lon="0.03846033">
        <ele>121.0</ele>
        <time>2018-06-10T05:48:51.000Z</time>
      </trkpt>
      <trkpt lat="38.67477467" lon="0.03845733">
        <ele>121.0</ele>
        <time>2018-06-10T05:48:52.000Z</time>
      </trkpt>
      <trkpt lat="38.674824" lon="0.03845483">
        <ele>121.0</ele>
        <time>2018-06-10T05:48:53.000Z</time>
      </trkpt>
      <trkpt lat="38.67487317" lon="0.03845217">
        <ele>121.0</ele>
        <time>2018-06-10T05:48:54.000Z</time>
      </trkpt>
      <trkpt lat="38.67492217" lon="0.038449">
        <ele>121.0</ele>
        <time>2018-06-10T05:48:55.000Z</time>
      </trkpt>
      <trkpt lat="38.674971" lon="0.038445">
        <ele>121.0</ele>
        <time>2018-06-10T05:48:56.000Z</time>
      </trkpt>
      <trkpt lat="38.67501983" lon="0.03844083">
        <ele>121.0</ele>
        <time>2018-06-10T05:48:57.000Z</time>
      </trkpt>
      <trkpt lat="38.6750685" lon="0.03843633">
        <ele>121.0</ele>
        <time>2018-06-10T05:48:58.000Z</time>
      </trkpt>
      <trkpt lat="38.67511717" lon="0.03843217">
        <ele>121.0</ele>
        <time>2018-06-10T05:48:59.000Z</time>
      </trkpt>
      <trkpt lat="38.6751655" lon="0.0384285">
        <ele>121.0</ele>
        <time>2018-06-10T05:49:00.000Z</time>
      </trkpt>
      <trkpt lat="38.67521367" lon="0.03842517">
        <ele>122.0</ele>
        <time>2018-06-10T05:49:01.000Z</time>
      </trkpt>
      <trkpt lat="38.6752615" lon="0.038422">
        <ele>122.0</ele>
        <time>2018-06-10T05:49:02.000Z</time>
      </trkpt>
      <trkpt lat="38.67530933" lon="0.03841817">
        <ele>122.0</ele>
        <time>2018-06-10T05:49:03.000Z</time>
      </trkpt>
      <trkpt lat="38.67535733" lon="0.03841417">
        <ele>122.0</ele>
        <time>2018-06-10T05:49:04.000Z</time>
      </trkpt>
      <trkpt lat="38.675406" lon="0.03841033">
        <ele>122.0</ele>
        <time>2018-06-10T05:49:05.000Z</time>
      </trkpt>
      <trkpt lat="38.675455" lon="0.03840667">
        <ele>122.0</ele>
        <time>2018-06-10T05:49:06.000Z</time>
      </trkpt>
      <trkpt lat="38.675504" lon="0.038403">
        <ele>122.0</ele>
        <time>2018-06-10T05:49:07.000Z</time>
      </trkpt>
      <trkpt lat="38.675553" lon="0.03839917">
        <ele>122.0</ele>
        <time>2018-06-10T05:49:08.000Z</time>
      </trkpt>
      <trkpt lat="38.67560167" lon="0.038395">
        <ele>122.0</ele>
        <time>2018-06-10T05:49:09.000Z</time>
      </trkpt>
      <trkpt lat="38.67565" lon="0.03839">
        <ele>123.0</ele>
        <time>2018-06-10T05:49:10.000Z</time>
      </trkpt>
      <trkpt lat="38.67569783" lon="0.038385">
        <ele>123.0</ele>
        <time>2018-06-10T05:49:11.000Z</time>
      </trkpt>
      <trkpt lat="38.67574583" lon="0.03838117">
        <ele>123.0</ele>
        <time>2018-06-10T05:49:12.000Z</time>
      </trkpt>
      <trkpt lat="38.675794" lon="0.03837817">
        <ele>123.0</ele>
        <time>2018-06-10T05:49:13.000Z</time>
      </trkpt>
      <trkpt lat="38.6758425" lon="0.0383755">
        <ele>123.0</ele>
        <time>2018-06-10T05:49:14.000Z</time>
      </trkpt>
      <trkpt lat="38.67589083" lon="0.0383725">
        <ele>123.0</ele>
        <time>2018-06-10T05:49:15.000Z</time>
      </trkpt>
      <trkpt lat="38.67593933" lon="0.03836867">
        <ele>123.0</ele>
        <time>2018-06-10T05:49:16.000Z</time>
      </trkpt>
      <trkpt lat="38.67598767" lon="0.03836517">
        <ele>123.0</ele>
        <time>2018-06-10T05:49:17.000Z</time>
      </trkpt>
      <trkpt lat="38.67603583" lon="0.03836167">
        <ele>123.0</ele>
        <time>2018-06-10T05:49:18.000Z</time>
      </trkpt>
      <trkpt lat="38.67608433" lon="0.03835833">
        <ele>123.0</ele>
        <time>2018-06-10T05:49:19.000Z</time>
      </trkpt>
      <trkpt lat="38.6761335" lon="0.03835467">
        <ele>123.0</ele>
        <time>2018-06-10T05:49:20.000Z</time>
      </trkpt>
      <trkpt lat="38.676183" lon="0.03835133">
        <ele>123.0</ele>
        <time>2018-06-10T05:49:21.000Z</time>
      </trkpt>
      <trkpt lat="38.67623283" lon="0.0383485">
        <ele>123.0</ele>
        <time>2018-06-10T05:49:22.000Z</time>
      </trkpt>
      <trkpt lat="38.67628217" lon="0.038346">
        <ele>123.0</ele>
        <time>2018-06-10T05:49:23.000Z</time>
      </trkpt>
      <trkpt lat="38.67633133" lon="0.03834333">
        <ele>123.0</ele>
        <time>2018-06-10T05:49:24.000Z</time>
      </trkpt>
      <trkpt lat="38.6763805" lon="0.0383405">
        <ele>124.0</ele>
        <time>2018-06-10T05:49:25.000Z</time>
      </trkpt>
      <trkpt lat="38.67643" lon="0.03833717">
        <ele>124.0</ele>
        <time>2018-06-10T05:49:26.000Z</time>
      </trkpt>
      <trkpt lat="38.67647917" lon="0.03833333">
        <ele>124.0</ele>
        <time>2018-06-10T05:49:27.000Z</time>
      </trkpt>
      <trkpt lat="38.6765275" lon="0.03832933">
        <ele>124.0</ele>
        <time>2018-06-10T05:49:28.000Z</time>
      </trkpt>
      <trkpt lat="38.6765745" lon="0.03832533">
        <ele>125.0</ele>
        <time>2018-06-10T05:49:29.000Z</time>
      </trkpt>
      <trkpt lat="38.6766215" lon="0.03832117">
        <ele>125.0</ele>
        <time>2018-06-10T05:49:30.000Z</time>
      </trkpt>
      <trkpt lat="38.6766685" lon="0.03831717">
        <ele>125.0</ele>
        <time>2018-06-10T05:49:31.000Z</time>
      </trkpt>
      <trkpt lat="38.67671633" lon="0.03831333">
        <ele>125.0</ele>
        <time>2018-06-10T05:49:32.000Z</time>
      </trkpt>
      <trkpt lat="38.67676333" lon="0.03830967">
        <ele>125.0</ele>
        <time>2018-06-10T05:49:33.000Z</time>
      </trkpt>
      <trkpt lat="38.67681" lon="0.03830783">
        <ele>125.0</ele>
        <time>2018-06-10T05:49:34.000Z</time>
      </trkpt>
      <trkpt lat="38.676856" lon="0.03830733">
        <ele>126.0</ele>
        <time>2018-06-10T05:49:35.000Z</time>
      </trkpt>
      <trkpt lat="38.67690233" lon="0.038309">
        <ele>126.0</ele>
        <time>2018-06-10T05:49:36.000Z</time>
      </trkpt>
      <trkpt lat="38.67694767" lon="0.03831267">
        <ele>127.0</ele>
        <time>2018-06-10T05:49:37.000Z</time>
      </trkpt>
      <trkpt lat="38.67699233" lon="0.03832033">
        <ele>127.0</ele>
        <time>2018-06-10T05:49:38.000Z</time>
      </trkpt>
      <trkpt lat="38.6770375" lon="0.03833433">
        <ele>127.0</ele>
        <time>2018-06-10T05:49:39.000Z</time>
      </trkpt>
      <trkpt lat="38.67708367" lon="0.03835317">
        <ele>127.0</ele>
        <time>2018-06-10T05:49:40.000Z</time>
      </trkpt>
      <trkpt lat="38.6771295" lon="0.03837533">
        <ele>128.0</ele>
        <time>2018-06-10T05:49:41.000Z</time>
      </trkpt>
      <trkpt lat="38.67717367" lon="0.03839833">
        <ele>128.0</ele>
        <time>2018-06-10T05:49:42.000Z</time>
      </trkpt>
      <trkpt lat="38.67721617" lon="0.03842317">
        <ele>128.0</ele>
        <time>2018-06-10T05:49:43.000Z</time>
      </trkpt>
      <trkpt lat="38.6772575" lon="0.03845033">
        <ele>129.0</ele>
        <time>2018-06-10T05:49:44.000Z</time>
      </trkpt>
      <trkpt lat="38.6772975" lon="0.0384805">
        <ele>129.0</ele>
        <time>2018-06-10T05:49:45.000Z</time>
      </trkpt>
      <trkpt lat="38.677336" lon="0.03851233">
        <ele>129.0</ele>
        <time>2018-06-10T05:49:46.000Z</time>
      </trkpt>
      <trkpt lat="38.67737267" lon="0.03854517">
        <ele>129.0</ele>
        <time>2018-06-10T05:49:47.000Z</time>
      </trkpt>
      <trkpt lat="38.67740833" lon="0.038578">
        <ele>129.0</ele>
        <time>2018-06-10T05:49:48.000Z</time>
      </trkpt>
      <trkpt lat="38.67744333" lon="0.03861183">
        <ele>130.0</ele>
        <time>2018-06-10T05:49:49.000Z</time>
      </trkpt>
      <trkpt lat="38.67747867" lon="0.038647">
        <ele>130.0</ele>
        <time>2018-06-10T05:49:50.000Z</time>
      </trkpt>
      <trkpt lat="38.67751467" lon="0.0386815">
        <ele>130.0</ele>
        <time>2018-06-10T05:49:51.000Z</time>
      </trkpt>
      <trkpt lat="38.67755167" lon="0.03871683">
        <ele>130.0</ele>
        <time>2018-06-10T05:49:52.000Z</time>
      </trkpt>
      <trkpt lat="38.6775895" lon="0.03875267">
        <ele>130.0</ele>
        <time>2018-06-10T05:49:53.000Z</time>
      </trkpt>
      <trkpt lat="38.6776275" lon="0.03879">
        <ele>130.0</ele>
        <time>2018-06-10T05:49:54.000Z</time>
      </trkpt>
      <trkpt lat="38.67766567" lon="0.03882717">
        <ele>131.0</ele>
        <time>2018-06-10T05:49:55.000Z</time>
      </trkpt>
      <trkpt lat="38.67770383" lon="0.0388635">
        <ele>131.0</ele>
        <time>2018-06-10T05:49:56.000Z</time>
      </trkpt>
      <trkpt lat="38.67774167" lon="0.038899">
        <ele>131.0</ele>
        <time>2018-06-10T05:49:57.000Z</time>
      </trkpt>
      <trkpt lat="38.67777883" lon="0.03893367">
        <ele>131.0</ele>
        <time>2018-06-10T05:49:58.000Z</time>
      </trkpt>
      <trkpt lat="38.67781583" lon="0.03896683">
        <ele>132.0</ele>
        <time>2018-06-10T05:49:59.000Z</time>
      </trkpt>
      <trkpt lat="38.677853" lon="0.03899883">
        <ele>132.0</ele>
        <time>2018-06-10T05:50:00.000Z</time>
      </trkpt>
      <trkpt lat="38.67789" lon="0.03902833">
        <ele>132.0</ele>
        <time>2018-06-10T05:50:01.000Z</time>
      </trkpt>
      <trkpt lat="38.677928" lon="0.03905517">
        <ele>132.0</ele>
        <time>2018-06-10T05:50:02.000Z</time>
      </trkpt>
      <trkpt lat="38.67796717" lon="0.03907917">
        <ele>133.0</ele>
        <time>2018-06-10T05:50:03.000Z</time>
      </trkpt>
      <trkpt lat="38.6780075" lon="0.03910067">
        <ele>133.0</ele>
        <time>2018-06-10T05:50:04.000Z</time>
      </trkpt>
      <trkpt lat="38.67804867" lon="0.0391195">
        <ele>133.0</ele>
        <time>2018-06-10T05:50:05.000Z</time>
      </trkpt>
      <trkpt lat="38.67809067" lon="0.03913533">
        <ele>133.0</ele>
        <time>2018-06-10T05:50:06.000Z</time>
      </trkpt>
      <trkpt lat="38.67813367" lon="0.03914783">
        <ele>134.0</ele>
        <time>2018-06-10T05:50:07.000Z</time>
      </trkpt>
      <trkpt lat="38.6781765" lon="0.03915533">
        <ele>134.0</ele>
        <time>2018-06-10T05:50:08.000Z</time>
      </trkpt>
      <trkpt lat="38.67821867" lon="0.03916">
        <ele>134.0</ele>
        <time>2018-06-10T05:50:09.000Z</time>
      </trkpt>
      <trkpt lat="38.67826083" lon="0.0391625">
        <ele>134.0</ele>
        <time>2018-06-10T05:50:10.000Z</time>
      </trkpt>
      <trkpt lat="38.67830367" lon="0.039165">
        <ele>134.0</ele>
        <time>2018-06-10T05:50:11.000Z</time>
      </trkpt>
      <trkpt lat="38.6783475" lon="0.03916483">
        <ele>134.0</ele>
        <time>2018-06-10T05:50:12.000Z</time>
      </trkpt>
      <trkpt lat="38.67839167" lon="0.03916167">
        <ele>134.0</ele>
        <time>2018-06-10T05:50:13.000Z</time>
      </trkpt>
      <trkpt lat="38.6784355" lon="0.03915333">
        <ele>135.0</ele>
        <time>2018-06-10T05:50:14.000Z</time>
      </trkpt>
      <trkpt lat="38.678479" lon="0.0391405">
        <ele>135.0</ele>
        <time>2018-06-10T05:50:15.000Z</time>
      </trkpt>
      <trkpt lat="38.67852233" lon="0.03912383">
        <ele>135.0</ele>
        <time>2018-06-10T05:50:16.000Z</time>
      </trkpt>
      <trkpt lat="38.67856483" lon="0.03910367">
        <ele>136.0</ele>
        <time>2018-06-10T05:50:17.000Z</time>
      </trkpt>
      <trkpt lat="38.67860583" lon="0.03907917">
        <ele>136.0</ele>
        <time>2018-06-10T05:50:18.000Z</time>
      </trkpt>
      <trkpt lat="38.67864533" lon="0.03905233">
        <ele>136.0</ele>
        <time>2018-06-10T05:50:19.000Z</time>
      </trkpt>
      <trkpt lat="38.67868367" lon="0.03902283">
        <ele>136.0</ele>
        <time>2018-06-10T05:50:20.000Z</time>
      </trkpt>
      <trkpt lat="38.6787205" lon="0.03899183">
        <ele>137.0</ele>
        <time>2018-06-10T05:50:21.000Z</time>
      </trkpt>
      <trkpt lat="38.678755" lon="0.03895817">
        <ele>137.0</ele>
        <time>2018-06-10T05:50:22.000Z</time>
      </trkpt>
      <trkpt lat="38.67878783" lon="0.03892217">
        <ele>137.0</ele>
        <time>2018-06-10T05:50:23.000Z</time>
      </trkpt>
      <trkpt lat="38.67881833" lon="0.03888317">
        <ele>138.0</ele>
        <time>2018-06-10T05:50:24.000Z</time>
      </trkpt>
      <trkpt lat="38.6788475" lon="0.03884167">
        <ele>138.0</ele>
        <time>2018-06-10T05:50:25.000Z</time>
      </trkpt>
      <trkpt lat="38.6788765" lon="0.0387985">
        <ele>139.0</ele>
        <time>2018-06-10T05:50:26.000Z</time>
      </trkpt>
      <trkpt lat="38.67890567" lon="0.03875483">
        <ele>139.0</ele>
        <time>2018-06-10T05:50:27.000Z</time>
      </trkpt>
      <trkpt lat="38.6789345" lon="0.03871117">
        <ele>139.0</ele>
        <time>2018-06-10T05:50:28.000Z</time>
      </trkpt>
      <trkpt lat="38.67896233" lon="0.03866633">
        <ele>139.0</ele>
        <time>2018-06-10T05:50:29.000Z</time>
      </trkpt>
      <trkpt lat="38.67898933" lon="0.03862117">
        <ele>140.0</ele>
        <time>2018-06-10T05:50:30.000Z</time>
      </trkpt>
      <trkpt lat="38.67901617" lon="0.03857617">
        <ele>140.0</ele>
        <time>2018-06-10T05:50:31.000Z</time>
      </trkpt>
      <trkpt lat="38.67904283" lon="0.03853217">
        <ele>140.0</ele>
        <time>2018-06-10T05:50:32.000Z</time>
      </trkpt>
      <trkpt lat="38.67906967" lon="0.03848867">
        <ele>141.0</ele>
        <time>2018-06-10T05:50:33.000Z</time>
      </trkpt>
      <trkpt lat="38.679096" lon="0.03844533">
        <ele>141.0</ele>
        <time>2018-06-10T05:50:34.000Z</time>
      </trkpt>
      <trkpt lat="38.679122" lon="0.03840217">
        <ele>141.0</ele>
        <time>2018-06-10T05:50:35.000Z</time>
      </trkpt>
      <trkpt lat="38.679148" lon="0.03835983">
        <ele>142.0</ele>
        <time>2018-06-10T05:50:36.000Z</time>
      </trkpt>
      <trkpt lat="38.67917433" lon="0.03831783">
        <ele>142.0</ele>
        <time>2018-06-10T05:50:37.000Z</time>
      </trkpt>
      <trkpt lat="38.679201" lon="0.03827533">
        <ele>142.0</ele>
        <time>2018-06-10T05:50:38.000Z</time>
      </trkpt>
      <trkpt lat="38.67922767" lon="0.038232">
        <ele>142.0</ele>
        <time>2018-06-10T05:50:39.000Z</time>
      </trkpt>
      <trkpt lat="38.67925533" lon="0.038189">
        <ele>142.0</ele>
        <time>2018-06-10T05:50:40.000Z</time>
      </trkpt>
      <trkpt lat="38.67928417" lon="0.03814717">
        <ele>143.0</ele>
        <time>2018-06-10T05:50:41.000Z</time>
      </trkpt>
      <trkpt lat="38.67931417" lon="0.03810617">
        <ele>143.0</ele>
        <time>2018-06-10T05:50:42.000Z</time>
      </trkpt>
      <trkpt lat="38.67934483" lon="0.03806567">
        <ele>143.0</ele>
        <time>2018-06-10T05:50:43.000Z</time>
      </trkpt>
      <trkpt lat="38.679376" lon="0.038026">
        <ele>143.0</ele>
        <time>2018-06-10T05:50:44.000Z</time>
      </trkpt>
      <trkpt lat="38.6794075" lon="0.0379875">
        <ele>144.0</ele>
        <time>2018-06-10T05:50:45.000Z</time>
      </trkpt>
      <trkpt lat="38.67943917" lon="0.0379505">
        <ele>144.0</ele>
        <time>2018-06-10T05:50:46.000Z</time>
      </trkpt>
      <trkpt lat="38.67947167" lon="0.03791483">
        <ele>144.0</ele>
        <time>2018-06-10T05:50:47.000Z</time>
      </trkpt>
      <trkpt lat="38.67950433" lon="0.03788033">
        <ele>144.0</ele>
        <time>2018-06-10T05:50:48.000Z</time>
      </trkpt>
      <trkpt lat="38.67953833" lon="0.03784767">
        <ele>144.0</ele>
        <time>2018-06-10T05:50:49.000Z</time>
      </trkpt>
      <trkpt lat="38.67957267" lon="0.03781583">
        <ele>145.0</ele>
        <time>2018-06-10T05:50:50.000Z</time>
      </trkpt>
      <trkpt lat="38.67960817" lon="0.03778517">
        <ele>145.0</ele>
        <time>2018-06-10T05:50:51.000Z</time>
      </trkpt>
      <trkpt lat="38.6796445" lon="0.03775467">
        <ele>145.0</ele>
        <time>2018-06-10T05:50:52.000Z</time>
      </trkpt>
      <trkpt lat="38.67968267" lon="0.03772583">
        <ele>145.0</ele>
        <time>2018-06-10T05:50:53.000Z</time>
      </trkpt>
      <trkpt lat="38.67972233" lon="0.037699">
        <ele>145.0</ele>
        <time>2018-06-10T05:50:54.000Z</time>
      </trkpt>
      <trkpt lat="38.67976217" lon="0.03767417">
        <ele>146.0</ele>
        <time>2018-06-10T05:50:55.000Z</time>
      </trkpt>
      <trkpt lat="38.67980167" lon="0.03765033">
        <ele>146.0</ele>
        <time>2018-06-10T05:50:56.000Z</time>
      </trkpt>
      <trkpt lat="38.67984083" lon="0.037628">
        <ele>146.0</ele>
        <time>2018-06-10T05:50:57.000Z</time>
      </trkpt>
      <trkpt lat="38.67988133" lon="0.03760767">
        <ele>146.0</ele>
        <time>2018-06-10T05:50:58.000Z</time>
      </trkpt>
      <trkpt lat="38.67992283" lon="0.0375895">
        <ele>146.0</ele>
        <time>2018-06-10T05:50:59.000Z</time>
      </trkpt>
      <trkpt lat="38.6799645" lon="0.03757267">
        <ele>146.0</ele>
        <time>2018-06-10T05:51:00.000Z</time>
      </trkpt>
      <trkpt lat="38.680006" lon="0.03755667">
        <ele>146.0</ele>
        <time>2018-06-10T05:51:01.000Z</time>
      </trkpt>
      <trkpt lat="38.68004733" lon="0.037542">
        <ele>146.0</ele>
        <time>2018-06-10T05:51:02.000Z</time>
      </trkpt>
      <trkpt lat="38.68008883" lon="0.037528">
        <ele>146.0</ele>
        <time>2018-06-10T05:51:03.000Z</time>
      </trkpt>
      <trkpt lat="38.68013033" lon="0.03751367">
        <ele>147.0</ele>
        <time>2018-06-10T05:51:04.000Z</time>
      </trkpt>
      <trkpt lat="38.68017183" lon="0.03749933">
        <ele>147.0</ele>
        <time>2018-06-10T05:51:05.000Z</time>
      </trkpt>
      <trkpt lat="38.6802135" lon="0.0374855">
        <ele>147.0</ele>
        <time>2018-06-10T05:51:06.000Z</time>
      </trkpt>
      <trkpt lat="38.68025617" lon="0.03747183">
        <ele>147.0</ele>
        <time>2018-06-10T05:51:07.000Z</time>
      </trkpt>
      <trkpt lat="38.68029933" lon="0.03745733">
        <ele>147.0</ele>
        <time>2018-06-10T05:51:08.000Z</time>
      </trkpt>
      <trkpt lat="38.68034267" lon="0.03744117">
        <ele>147.0</ele>
        <time>2018-06-10T05:51:09.000Z</time>
      </trkpt>
      <trkpt lat="38.680386" lon="0.03742533">
        <ele>147.0</ele>
        <time>2018-06-10T05:51:10.000Z</time>
      </trkpt>
      <trkpt lat="38.68042967" lon="0.03741083">
        <ele>147.0</ele>
        <time>2018-06-10T05:51:11.000Z</time>
      </trkpt>
      <trkpt lat="38.6804735" lon="0.0373975">
        <ele>147.0</ele>
        <time>2018-06-10T05:51:12.000Z</time>
      </trkpt>
      <trkpt lat="38.68051733" lon="0.03738433">
        <ele>147.0</ele>
        <time>2018-06-10T05:51:13.000Z</time>
      </trkpt>
      <trkpt lat="38.680561" lon="0.0373705">
        <ele>147.0</ele>
        <time>2018-06-10T05:51:14.000Z</time>
      </trkpt>
      <trkpt lat="38.680605" lon="0.03735667">
        <ele>147.0</ele>
        <time>2018-06-10T05:51:15.000Z</time>
      </trkpt>
      <trkpt lat="38.68064917" lon="0.03734267">
        <ele>148.0</ele>
        <time>2018-06-10T05:51:16.000Z</time>
      </trkpt>
      <trkpt lat="38.68069333" lon="0.03732917">
        <ele>148.0</ele>
        <time>2018-06-10T05:51:17.000Z</time>
      </trkpt>
      <trkpt lat="38.68073767" lon="0.03731517">
        <ele>148.0</ele>
        <time>2018-06-10T05:51:18.000Z</time>
      </trkpt>
      <trkpt lat="38.68078233" lon="0.03730133">
        <ele>148.0</ele>
        <time>2018-06-10T05:51:19.000Z</time>
      </trkpt>
      <trkpt lat="38.68082733" lon="0.03728717">
        <ele>148.0</ele>
        <time>2018-06-10T05:51:20.000Z</time>
      </trkpt>
      <trkpt lat="38.68087217" lon="0.0372735">
        <ele>148.0</ele>
        <time>2018-06-10T05:51:21.000Z</time>
      </trkpt>
      <trkpt lat="38.680917" lon="0.03726017">
        <ele>148.0</ele>
        <time>2018-06-10T05:51:22.000Z</time>
      </trkpt>
      <trkpt lat="38.68096217" lon="0.03724733">
        <ele>148.0</ele>
        <time>2018-06-10T05:51:23.000Z</time>
      </trkpt>
      <trkpt lat="38.68100717" lon="0.03723417">
        <ele>148.0</ele>
        <time>2018-06-10T05:51:24.000Z</time>
      </trkpt>
      <trkpt lat="38.68105217" lon="0.03722017">
        <ele>149.0</ele>
        <time>2018-06-10T05:51:25.000Z</time>
      </trkpt>
      <trkpt lat="38.6810965" lon="0.03720583">
        <ele>149.0</ele>
        <time>2018-06-10T05:51:26.000Z</time>
      </trkpt>
      <trkpt lat="38.68114083" lon="0.03719133">
        <ele>149.0</ele>
        <time>2018-06-10T05:51:27.000Z</time>
      </trkpt>
      <trkpt lat="38.68118517" lon="0.037177">
        <ele>149.0</ele>
        <time>2018-06-10T05:51:28.000Z</time>
      </trkpt>
      <trkpt lat="38.68122983" lon="0.0371625">
        <ele>149.0</ele>
        <time>2018-06-10T05:51:29.000Z</time>
      </trkpt>
      <trkpt lat="38.68127483" lon="0.03714883">
        <ele>149.0</ele>
        <time>2018-06-10T05:51:30.000Z</time>
      </trkpt>
      <trkpt lat="38.68132033" lon="0.03713617">
        <ele>150.0</ele>
        <time>2018-06-10T05:51:31.000Z</time>
      </trkpt>
      <trkpt lat="38.6813665" lon="0.03712567">
        <ele>150.0</ele>
        <time>2018-06-10T05:51:32.000Z</time>
      </trkpt>
      <trkpt lat="38.68141317" lon="0.03711717">
        <ele>150.0</ele>
        <time>2018-06-10T05:51:33.000Z</time>
      </trkpt>
      <trkpt lat="38.68146067" lon="0.03711133">
        <ele>150.0</ele>
        <time>2018-06-10T05:51:34.000Z</time>
      </trkpt>
      <trkpt lat="38.68150833" lon="0.037108">
        <ele>150.0</ele>
        <time>2018-06-10T05:51:35.000Z</time>
      </trkpt>
      <trkpt lat="38.68155633" lon="0.03710633">
        <ele>150.0</ele>
        <time>2018-06-10T05:51:36.000Z</time>
      </trkpt>
      <trkpt lat="38.68160417" lon="0.03710633">
        <ele>151.0</ele>
        <time>2018-06-10T05:51:37.000Z</time>
      </trkpt>
      <trkpt lat="38.68165183" lon="0.03710767">
        <ele>151.0</ele>
        <time>2018-06-10T05:51:38.000Z</time>
      </trkpt>
      <trkpt lat="38.681699" lon="0.03711067">
        <ele>151.0</ele>
        <time>2018-06-10T05:51:39.000Z</time>
      </trkpt>
      <trkpt lat="38.68174583" lon="0.03711567">
        <ele>151.0</ele>
        <time>2018-06-10T05:51:40.000Z</time>
      </trkpt>
      <trkpt lat="38.6817925" lon="0.03712233">
        <ele>151.0</ele>
        <time>2018-06-10T05:51:41.000Z</time>
      </trkpt>
      <trkpt lat="38.68183867" lon="0.03713133">
        <ele>151.0</ele>
        <time>2018-06-10T05:51:42.000Z</time>
      </trkpt>
      <trkpt lat="38.68188467" lon="0.03714233">
        <ele>152.0</ele>
        <time>2018-06-10T05:51:43.000Z</time>
      </trkpt>
      <trkpt lat="38.68193033" lon="0.0371555">
        <ele>152.0</ele>
        <time>2018-06-10T05:51:44.000Z</time>
      </trkpt>
      <trkpt lat="38.681976" lon="0.03716967">
        <ele>152.0</ele>
        <time>2018-06-10T05:51:45.000Z</time>
      </trkpt>
      <trkpt lat="38.68202183" lon="0.03718483">
        <ele>152.0</ele>
        <time>2018-06-10T05:51:46.000Z</time>
      </trkpt>
      <trkpt lat="38.682068" lon="0.0372005">
        <ele>152.0</ele>
        <time>2018-06-10T05:51:47.000Z</time>
      </trkpt>
      <trkpt lat="38.68211417" lon="0.0372165">
        <ele>152.0</ele>
        <time>2018-06-10T05:51:48.000Z</time>
      </trkpt>
      <trkpt lat="38.68216033" lon="0.03723267">
        <ele>152.0</ele>
        <time>2018-06-10T05:51:49.000Z</time>
      </trkpt>
      <trkpt lat="38.68220633" lon="0.03724833">
        <ele>152.0</ele>
        <time>2018-06-10T05:51:50.000Z</time>
      </trkpt>
      <trkpt lat="38.68225233" lon="0.037264">
        <ele>152.0</ele>
        <time>2018-06-10T05:51:51.000Z</time>
      </trkpt>
      <trkpt lat="38.68229783" lon="0.03727967">
        <ele>152.0</ele>
        <time>2018-06-10T05:51:52.000Z</time>
      </trkpt>
      <trkpt lat="38.68234233" lon="0.03729483">
        <ele>153.0</ele>
        <time>2018-06-10T05:51:53.000Z</time>
      </trkpt>
      <trkpt lat="38.682386" lon="0.0373095">
        <ele>153.0</ele>
        <time>2018-06-10T05:51:54.000Z</time>
      </trkpt>
      <trkpt lat="38.682432" lon="0.037322">
        <ele>153.0</ele>
        <time>2018-06-10T05:51:55.000Z</time>
      </trkpt>
      <trkpt lat="38.68247867" lon="0.03733583">
        <ele>153.0</ele>
        <time>2018-06-10T05:51:56.000Z</time>
      </trkpt>
      <trkpt lat="38.6825255" lon="0.03735033">
        <ele>153.0</ele>
        <time>2018-06-10T05:51:57.000Z</time>
      </trkpt>
      <trkpt lat="38.68256983" lon="0.03736817">
        <ele>153.0</ele>
        <time>2018-06-10T05:51:58.000Z</time>
      </trkpt>
      <trkpt lat="38.68261417" lon="0.03738617">
        <ele>154.0</ele>
        <time>2018-06-10T05:51:59.000Z</time>
      </trkpt>
      <trkpt lat="38.68265933" lon="0.037404">
        <ele>154.0</ele>
        <time>2018-06-10T05:52:00.000Z</time>
      </trkpt>
      <trkpt lat="38.68270467" lon="0.0374215">
        <ele>154.0</ele>
        <time>2018-06-10T05:52:01.000Z</time>
      </trkpt>
      <trkpt lat="38.6827505" lon="0.03743917">
        <ele>154.0</ele>
        <time>2018-06-10T05:52:02.000Z</time>
      </trkpt>
      <trkpt lat="38.68279633" lon="0.03745717">
        <ele>154.0</ele>
        <time>2018-06-10T05:52:03.000Z</time>
      </trkpt>
      <trkpt lat="38.68284183" lon="0.0374755">
        <ele>155.0</ele>
        <time>2018-06-10T05:52:04.000Z</time>
      </trkpt>
      <trkpt lat="38.68288683" lon="0.0374935">
        <ele>155.0</ele>
        <time>2018-06-10T05:52:05.000Z</time>
      </trkpt>
      <trkpt lat="38.68293183" lon="0.03751167">
        <ele>155.0</ele>
        <time>2018-06-10T05:52:06.000Z</time>
      </trkpt>
      <trkpt lat="38.68297683" lon="0.03752967">
        <ele>155.0</ele>
        <time>2018-06-10T05:52:07.000Z</time>
      </trkpt>
      <trkpt lat="38.68302233" lon="0.0375475">
        <ele>155.0</ele>
        <time>2018-06-10T05:52:08.000Z</time>
      </trkpt>
      <trkpt lat="38.68306817" lon="0.03756517">
        <ele>156.0</ele>
        <time>2018-06-10T05:52:09.000Z</time>
      </trkpt>
      <trkpt lat="38.68311417" lon="0.037583">
        <ele>156.0</ele>
        <time>2018-06-10T05:52:10.000Z</time>
      </trkpt>
      <trkpt lat="38.68316033" lon="0.03760133">
        <ele>156.0</ele>
        <time>2018-06-10T05:52:11.000Z</time>
      </trkpt>
      <trkpt lat="38.6832065" lon="0.03762017">
        <ele>156.0</ele>
        <time>2018-06-10T05:52:12.000Z</time>
      </trkpt>
      <trkpt lat="38.6832525" lon="0.03763867">
        <ele>156.0</ele>
        <time>2018-06-10T05:52:13.000Z</time>
      </trkpt>
      <trkpt lat="38.6832985" lon="0.03765683">
        <ele>156.0</ele>
        <time>2018-06-10T05:52:14.000Z</time>
      </trkpt>
      <trkpt lat="38.68334433" lon="0.03767483">
        <ele>157.0</ele>
        <time>2018-06-10T05:52:15.000Z</time>
      </trkpt>
      <trkpt lat="38.68339033" lon="0.0376925">
        <ele>157.0</ele>
        <time>2018-06-10T05:52:16.000Z</time>
      </trkpt>
      <trkpt lat="38.68343583" lon="0.03771">
        <ele>157.0</ele>
        <time>2018-06-10T05:52:17.000Z</time>
      </trkpt>
      <trkpt lat="38.6834815" lon="0.037727">
        <ele>157.0</ele>
        <time>2018-06-10T05:52:18.000Z</time>
      </trkpt>
      <trkpt lat="38.683527" lon="0.03774467">
        <ele>157.0</ele>
        <time>2018-06-10T05:52:19.000Z</time>
      </trkpt>
      <trkpt lat="38.68357233" lon="0.03776217">
        <ele>158.0</ele>
        <time>2018-06-10T05:52:20.000Z</time>
      </trkpt>
      <trkpt lat="38.68361783" lon="0.03777967">
        <ele>158.0</ele>
        <time>2018-06-10T05:52:21.000Z</time>
      </trkpt>
      <trkpt lat="38.68366367" lon="0.03779733">
        <ele>158.0</ele>
        <time>2018-06-10T05:52:22.000Z</time>
      </trkpt>
      <trkpt lat="38.68370967" lon="0.037815">
        <ele>158.0</ele>
        <time>2018-06-10T05:52:23.000Z</time>
      </trkpt>
      <trkpt lat="38.68375583" lon="0.03783333">
        <ele>158.0</ele>
        <time>2018-06-10T05:52:24.000Z</time>
      </trkpt>
      <trkpt lat="38.68380183" lon="0.03785183">
        <ele>158.0</ele>
        <time>2018-06-10T05:52:25.000Z</time>
      </trkpt>
      <trkpt lat="38.68384767" lon="0.037871">
        <ele>158.0</ele>
        <time>2018-06-10T05:52:26.000Z</time>
      </trkpt>
      <trkpt lat="38.68389367" lon="0.03789017">
        <ele>159.0</ele>
        <time>2018-06-10T05:52:27.000Z</time>
      </trkpt>
      <trkpt lat="38.68393933" lon="0.0379105">
        <ele>159.0</ele>
        <time>2018-06-10T05:52:28.000Z</time>
      </trkpt>
      <trkpt lat="38.68398517" lon="0.037932">
        <ele>159.0</ele>
        <time>2018-06-10T05:52:29.000Z</time>
      </trkpt>
      <trkpt lat="38.68403083" lon="0.0379545">
        <ele>159.0</ele>
        <time>2018-06-10T05:52:30.000Z</time>
      </trkpt>
      <trkpt lat="38.6840765" lon="0.03797733">
        <ele>159.0</ele>
        <time>2018-06-10T05:52:31.000Z</time>
      </trkpt>
      <trkpt lat="38.68412217" lon="0.03800067">
        <ele>160.0</ele>
        <time>2018-06-10T05:52:32.000Z</time>
      </trkpt>
      <trkpt lat="38.684168" lon="0.03802467">
        <ele>160.0</ele>
        <time>2018-06-10T05:52:33.000Z</time>
      </trkpt>
      <trkpt lat="38.68421317" lon="0.03804933">
        <ele>160.0</ele>
        <time>2018-06-10T05:52:34.000Z</time>
      </trkpt>
      <trkpt lat="38.68425717" lon="0.03807433">
        <ele>161.0</ele>
        <time>2018-06-10T05:52:35.000Z</time>
      </trkpt>
      <trkpt lat="38.68430067" lon="0.03809967">
        <ele>161.0</ele>
        <time>2018-06-10T05:52:36.000Z</time>
      </trkpt>
      <trkpt lat="38.68434417" lon="0.038125">
        <ele>161.0</ele>
        <time>2018-06-10T05:52:37.000Z</time>
      </trkpt>
      <trkpt lat="38.68438933" lon="0.03815">
        <ele>162.0</ele>
        <time>2018-06-10T05:52:38.000Z</time>
      </trkpt>
      <trkpt lat="38.684435" lon="0.03817483">
        <ele>162.0</ele>
        <time>2018-06-10T05:52:39.000Z</time>
      </trkpt>
      <trkpt lat="38.68448133" lon="0.03820017">
        <ele>162.0</ele>
        <time>2018-06-10T05:52:40.000Z</time>
      </trkpt>
      <trkpt lat="38.68452733" lon="0.03822567">
        <ele>162.0</ele>
        <time>2018-06-10T05:52:41.000Z</time>
      </trkpt>
      <trkpt lat="38.6845735" lon="0.03825217">
        <ele>162.0</ele>
        <time>2018-06-10T05:52:42.000Z</time>
      </trkpt>
      <trkpt lat="38.68461967" lon="0.038279">
        <ele>162.0</ele>
        <time>2018-06-10T05:52:43.000Z</time>
      </trkpt>
      <trkpt lat="38.68466617" lon="0.03830617">
        <ele>162.0</ele>
        <time>2018-06-10T05:52:44.000Z</time>
      </trkpt>
      <trkpt lat="38.68471267" lon="0.03833267">
        <ele>162.0</ele>
        <time>2018-06-10T05:52:45.000Z</time>
      </trkpt>
      <trkpt lat="38.684759" lon="0.03835883">
        <ele>162.0</ele>
        <time>2018-06-10T05:52:46.000Z</time>
      </trkpt>
      <trkpt lat="38.684805" lon="0.03838533">
        <ele>162.0</ele>
        <time>2018-06-10T05:52:47.000Z</time>
      </trkpt>
      <trkpt lat="38.68485083" lon="0.03841183">
        <ele>163.0</ele>
        <time>2018-06-10T05:52:48.000Z</time>
      </trkpt>
      <trkpt lat="38.68489617" lon="0.038438">
        <ele>163.0</ele>
        <time>2018-06-10T05:52:49.000Z</time>
      </trkpt>
      <trkpt lat="38.6849415" lon="0.03846333">
        <ele>163.0</ele>
        <time>2018-06-10T05:52:50.000Z</time>
      </trkpt>
      <trkpt lat="38.684987" lon="0.03848817">
        <ele>163.0</ele>
        <time>2018-06-10T05:52:51.000Z</time>
      </trkpt>
      <trkpt lat="38.6850325" lon="0.03851283">
        <ele>163.0</ele>
        <time>2018-06-10T05:52:52.000Z</time>
      </trkpt>
      <trkpt lat="38.68507817" lon="0.03853867">
        <ele>163.0</ele>
        <time>2018-06-10T05:52:53.000Z</time>
      </trkpt>
      <trkpt lat="38.68512367" lon="0.03856517">
        <ele>164.0</ele>
        <time>2018-06-10T05:52:54.000Z</time>
      </trkpt>
      <trkpt lat="38.68516917" lon="0.0385915">
        <ele>164.0</ele>
        <time>2018-06-10T05:52:55.000Z</time>
      </trkpt>
      <trkpt lat="38.68521433" lon="0.03861783">
        <ele>164.0</ele>
        <time>2018-06-10T05:52:56.000Z</time>
      </trkpt>
      <trkpt lat="38.68525917" lon="0.03864367">
        <ele>164.0</ele>
        <time>2018-06-10T05:52:57.000Z</time>
      </trkpt>
      <trkpt lat="38.68530383" lon="0.038669">
        <ele>164.0</ele>
        <time>2018-06-10T05:52:58.000Z</time>
      </trkpt>
      <trkpt lat="38.68534833" lon="0.03869367">
        <ele>164.0</ele>
        <time>2018-06-10T05:52:59.000Z</time>
      </trkpt>
      <trkpt lat="38.68539317" lon="0.03871833">
        <ele>164.0</ele>
        <time>2018-06-10T05:53:00.000Z</time>
      </trkpt>
      <trkpt lat="38.68543817" lon="0.0387435">
        <ele>165.0</ele>
        <time>2018-06-10T05:53:01.000Z</time>
      </trkpt>
      <trkpt lat="38.68548317" lon="0.038769">
        <ele>165.0</ele>
        <time>2018-06-10T05:53:02.000Z</time>
      </trkpt>
      <trkpt lat="38.68552817" lon="0.0387945">
        <ele>165.0</ele>
        <time>2018-06-10T05:53:03.000Z</time>
      </trkpt>
      <trkpt lat="38.68557333" lon="0.03882">
        <ele>165.0</ele>
        <time>2018-06-10T05:53:04.000Z</time>
      </trkpt>
      <trkpt lat="38.6856185" lon="0.03884533">
        <ele>165.0</ele>
        <time>2018-06-10T05:53:05.000Z</time>
      </trkpt>
      <trkpt lat="38.68566317" lon="0.0388705">
        <ele>166.0</ele>
        <time>2018-06-10T05:53:06.000Z</time>
      </trkpt>
      <trkpt lat="38.685708" lon="0.03889617">
        <ele>166.0</ele>
        <time>2018-06-10T05:53:07.000Z</time>
      </trkpt>
      <trkpt lat="38.68575283" lon="0.03892217">
        <ele>166.0</ele>
        <time>2018-06-10T05:53:08.000Z</time>
      </trkpt>
      <trkpt lat="38.685799" lon="0.03894783">
        <ele>166.0</ele>
        <time>2018-06-10T05:53:09.000Z</time>
      </trkpt>
      <trkpt lat="38.685845" lon="0.03897383">
        <ele>166.0</ele>
        <time>2018-06-10T05:53:10.000Z</time>
      </trkpt>
      <trkpt lat="38.68589067" lon="0.038999">
        <ele>167.0</ele>
        <time>2018-06-10T05:53:11.000Z</time>
      </trkpt>
      <trkpt lat="38.68593567" lon="0.0390245">
        <ele>167.0</ele>
        <time>2018-06-10T05:53:12.000Z</time>
      </trkpt>
      <trkpt lat="38.68598067" lon="0.03904983">
        <ele>167.0</ele>
        <time>2018-06-10T05:53:13.000Z</time>
      </trkpt>
      <trkpt lat="38.68602533" lon="0.03907617">
        <ele>167.0</ele>
        <time>2018-06-10T05:53:14.000Z</time>
      </trkpt>
      <trkpt lat="38.68606983" lon="0.039103">
        <ele>167.0</ele>
        <time>2018-06-10T05:53:15.000Z</time>
      </trkpt>
      <trkpt lat="38.6861145" lon="0.03913">
        <ele>167.0</ele>
        <time>2018-06-10T05:53:16.000Z</time>
      </trkpt>
      <trkpt lat="38.68615917" lon="0.03915733">
        <ele>167.0</ele>
        <time>2018-06-10T05:53:17.000Z</time>
      </trkpt>
      <trkpt lat="38.68620367" lon="0.039185">
        <ele>167.0</ele>
        <time>2018-06-10T05:53:18.000Z</time>
      </trkpt>
      <trkpt lat="38.6862475" lon="0.03921367">
        <ele>168.0</ele>
        <time>2018-06-10T05:53:19.000Z</time>
      </trkpt>
      <trkpt lat="38.68629167" lon="0.03924333">
        <ele>168.0</ele>
        <time>2018-06-10T05:53:20.000Z</time>
      </trkpt>
      <trkpt lat="38.6863355" lon="0.0392735">
        <ele>168.0</ele>
        <time>2018-06-10T05:53:21.000Z</time>
      </trkpt>
      <trkpt lat="38.686379" lon="0.03930383">
        <ele>168.0</ele>
        <time>2018-06-10T05:53:22.000Z</time>
      </trkpt>
      <trkpt lat="38.68642133" lon="0.03933483">
        <ele>168.0</ele>
        <time>2018-06-10T05:53:23.000Z</time>
      </trkpt>
      <trkpt lat="38.68646317" lon="0.0393675">
        <ele>168.0</ele>
        <time>2018-06-10T05:53:24.000Z</time>
      </trkpt>
      <trkpt lat="38.68650517" lon="0.03940183">
        <ele>168.0</ele>
        <time>2018-06-10T05:53:25.000Z</time>
      </trkpt>
      <trkpt lat="38.68654817" lon="0.03943767">
        <ele>168.0</ele>
        <time>2018-06-10T05:53:26.000Z</time>
      </trkpt>
      <trkpt lat="38.68659133" lon="0.03947633">
        <ele>168.0</ele>
        <time>2018-06-10T05:53:27.000Z</time>
      </trkpt>
      <trkpt lat="38.68663367" lon="0.03951767">
        <ele>168.0</ele>
        <time>2018-06-10T05:53:28.000Z</time>
      </trkpt>
      <trkpt lat="38.6866735" lon="0.0395625">
        <ele>168.0</ele>
        <time>2018-06-10T05:53:29.000Z</time>
      </trkpt>
      <trkpt lat="38.68671117" lon="0.03961033">
        <ele>168.0</ele>
        <time>2018-06-10T05:53:30.000Z</time>
      </trkpt>
      <trkpt lat="38.6867475" lon="0.039661">
        <ele>168.0</ele>
        <time>2018-06-10T05:53:31.000Z</time>
      </trkpt>
      <trkpt lat="38.6867835" lon="0.03971217">
        <ele>169.0</ele>
        <time>2018-06-10T05:53:32.000Z</time>
      </trkpt>
      <trkpt lat="38.68681933" lon="0.03976333">
        <ele>169.0</ele>
        <time>2018-06-10T05:53:33.000Z</time>
      </trkpt>
      <trkpt lat="38.686855" lon="0.039814">
        <ele>169.0</ele>
        <time>2018-06-10T05:53:34.000Z</time>
      </trkpt>
      <trkpt lat="38.68688983" lon="0.039865">
        <ele>169.0</ele>
        <time>2018-06-10T05:53:35.000Z</time>
      </trkpt>
      <trkpt lat="38.68692383" lon="0.03991633">
        <ele>169.0</ele>
        <time>2018-06-10T05:53:36.000Z</time>
      </trkpt>
      <trkpt lat="38.686957" lon="0.03996767">
        <ele>169.0</ele>
        <time>2018-06-10T05:53:37.000Z</time>
      </trkpt>
      <trkpt lat="38.68699" lon="0.040019">
        <ele>169.0</ele>
        <time>2018-06-10T05:53:38.000Z</time>
      </trkpt>
      <trkpt lat="38.68702283" lon="0.04006967">
        <ele>170.0</ele>
        <time>2018-06-10T05:53:39.000Z</time>
      </trkpt>
      <trkpt lat="38.68705567" lon="0.04011933">
        <ele>170.0</ele>
        <time>2018-06-10T05:53:40.000Z</time>
      </trkpt>
      <trkpt lat="38.687088" lon="0.04016883">
        <ele>170.0</ele>
        <time>2018-06-10T05:53:41.000Z</time>
      </trkpt>
      <trkpt lat="38.68711967" lon="0.04021883">
        <ele>170.0</ele>
        <time>2018-06-10T05:53:42.000Z</time>
      </trkpt>
      <trkpt lat="38.68715117" lon="0.04026883">
        <ele>170.0</ele>
        <time>2018-06-10T05:53:43.000Z</time>
      </trkpt>
      <trkpt lat="38.68718317" lon="0.04031817">
        <ele>170.0</ele>
        <time>2018-06-10T05:53:44.000Z</time>
      </trkpt>
      <trkpt lat="38.68721533" lon="0.04036717">
        <ele>170.0</ele>
        <time>2018-06-10T05:53:45.000Z</time>
      </trkpt>
      <trkpt lat="38.68724717" lon="0.04041567">
        <ele>170.0</ele>
        <time>2018-06-10T05:53:46.000Z</time>
      </trkpt>
      <trkpt lat="38.68727917" lon="0.04046367">
        <ele>171.0</ele>
        <time>2018-06-10T05:53:47.000Z</time>
      </trkpt>
      <trkpt lat="38.68731083" lon="0.04051133">
        <ele>171.0</ele>
        <time>2018-06-10T05:53:48.000Z</time>
      </trkpt>
      <trkpt lat="38.68734283" lon="0.04055933">
        <ele>171.0</ele>
        <time>2018-06-10T05:53:49.000Z</time>
      </trkpt>
      <trkpt lat="38.68737483" lon="0.04060783">
        <ele>171.0</ele>
        <time>2018-06-10T05:53:50.000Z</time>
      </trkpt>
      <trkpt lat="38.687407" lon="0.04065733">
        <ele>171.0</ele>
        <time>2018-06-10T05:53:51.000Z</time>
      </trkpt>
      <trkpt lat="38.68743883" lon="0.04070733">
        <ele>171.0</ele>
        <time>2018-06-10T05:53:52.000Z</time>
      </trkpt>
      <trkpt lat="38.6874705" lon="0.0407575">
        <ele>172.0</ele>
        <time>2018-06-10T05:53:53.000Z</time>
      </trkpt>
      <trkpt lat="38.68750217" lon="0.04080733">
        <ele>172.0</ele>
        <time>2018-06-10T05:53:54.000Z</time>
      </trkpt>
      <trkpt lat="38.68753383" lon="0.04085683">
        <ele>172.0</ele>
        <time>2018-06-10T05:53:55.000Z</time>
      </trkpt>
      <trkpt lat="38.68756567" lon="0.0409055">
        <ele>172.0</ele>
        <time>2018-06-10T05:53:56.000Z</time>
      </trkpt>
      <trkpt lat="38.6875975" lon="0.040954">
        <ele>172.0</ele>
        <time>2018-06-10T05:53:57.000Z</time>
      </trkpt>
      <trkpt lat="38.68763017" lon="0.04100233">
        <ele>172.0</ele>
        <time>2018-06-10T05:53:58.000Z</time>
      </trkpt>
      <trkpt lat="38.68766317" lon="0.0410505">
        <ele>172.0</ele>
        <time>2018-06-10T05:53:59.000Z</time>
      </trkpt>
      <trkpt lat="38.68769733" lon="0.04109783">
        <ele>173.0</ele>
        <time>2018-06-10T05:54:00.000Z</time>
      </trkpt>
      <trkpt lat="38.68773233" lon="0.04114417">
        <ele>173.0</ele>
        <time>2018-06-10T05:54:01.000Z</time>
      </trkpt>
      <trkpt lat="38.68776933" lon="0.04118917">
        <ele>173.0</ele>
        <time>2018-06-10T05:54:02.000Z</time>
      </trkpt>
      <trkpt lat="38.68780667" lon="0.04123317">
        <ele>173.0</ele>
        <time>2018-06-10T05:54:03.000Z</time>
      </trkpt>
      <trkpt lat="38.68784467" lon="0.041276">
        <ele>173.0</ele>
        <time>2018-06-10T05:54:04.000Z</time>
      </trkpt>
      <trkpt lat="38.68788233" lon="0.04131783">
        <ele>173.0</ele>
        <time>2018-06-10T05:54:05.000Z</time>
      </trkpt>
      <trkpt lat="38.6879205" lon="0.0413575">
        <ele>173.0</ele>
        <time>2018-06-10T05:54:06.000Z</time>
      </trkpt>
      <trkpt lat="38.6879595" lon="0.04139483">
        <ele>174.0</ele>
        <time>2018-06-10T05:54:07.000Z</time>
      </trkpt>
      <trkpt lat="38.68800017" lon="0.04143083">
        <ele>174.0</ele>
        <time>2018-06-10T05:54:08.000Z</time>
      </trkpt>
      <trkpt lat="38.68804233" lon="0.04146567">
        <ele>174.0</ele>
        <time>2018-06-10T05:54:09.000Z</time>
      </trkpt>
      <trkpt lat="38.6880855" lon="0.0414995">
        <ele>175.0</ele>
        <time>2018-06-10T05:54:10.000Z</time>
      </trkpt>
      <trkpt lat="38.68812917" lon="0.04153067">
        <ele>175.0</ele>
        <time>2018-06-10T05:54:11.000Z</time>
      </trkpt>
      <trkpt lat="38.6881735" lon="0.04156017">
        <ele>175.0</ele>
        <time>2018-06-10T05:54:12.000Z</time>
      </trkpt>
      <trkpt lat="38.6882185" lon="0.04158717">
        <ele>175.0</ele>
        <time>2018-06-10T05:54:13.000Z</time>
      </trkpt>
      <trkpt lat="38.6882635" lon="0.04161333">
        <ele>175.0</ele>
        <time>2018-06-10T05:54:14.000Z</time>
      </trkpt>
      <trkpt lat="38.68830933" lon="0.04163817">
        <ele>175.0</ele>
        <time>2018-06-10T05:54:15.000Z</time>
      </trkpt>
      <trkpt lat="38.68835667" lon="0.0416615">
        <ele>175.0</ele>
        <time>2018-06-10T05:54:16.000Z</time>
      </trkpt>
      <trkpt lat="38.68840567" lon="0.04168233">
        <ele>175.0</ele>
        <time>2018-06-10T05:54:17.000Z</time>
      </trkpt>
      <trkpt lat="38.6884555" lon="0.04170167">
        <ele>175.0</ele>
        <time>2018-06-10T05:54:18.000Z</time>
      </trkpt>
      <trkpt lat="38.68850533" lon="0.04171983">
        <ele>176.0</ele>
        <time>2018-06-10T05:54:19.000Z</time>
      </trkpt>
      <trkpt lat="38.68855533" lon="0.04173733">
        <ele>176.0</ele>
        <time>2018-06-10T05:54:20.000Z</time>
      </trkpt>
      <trkpt lat="38.68860567" lon="0.04175267">
        <ele>176.0</ele>
        <time>2018-06-10T05:54:21.000Z</time>
      </trkpt>
      <trkpt lat="38.68865667" lon="0.041765">
        <ele>176.0</ele>
        <time>2018-06-10T05:54:22.000Z</time>
      </trkpt>
      <trkpt lat="38.68870833" lon="0.0417735">
        <ele>177.0</ele>
        <time>2018-06-10T05:54:23.000Z</time>
      </trkpt>
      <trkpt lat="38.68876017" lon="0.04178">
        <ele>177.0</ele>
        <time>2018-06-10T05:54:24.000Z</time>
      </trkpt>
      <trkpt lat="38.688812" lon="0.04178533">
        <ele>177.0</ele>
        <time>2018-06-10T05:54:25.000Z</time>
      </trkpt>
      <trkpt lat="38.68886333" lon="0.04179">
        <ele>177.0</ele>
        <time>2018-06-10T05:54:26.000Z</time>
      </trkpt>
      <trkpt lat="38.688915" lon="0.04179267">
        <ele>178.0</ele>
        <time>2018-06-10T05:54:27.000Z</time>
      </trkpt>
      <trkpt lat="38.68896667" lon="0.04179383">
        <ele>178.0</ele>
        <time>2018-06-10T05:54:28.000Z</time>
      </trkpt>
      <trkpt lat="38.68901833" lon="0.041793">
        <ele>178.0</ele>
        <time>2018-06-10T05:54:29.000Z</time>
      </trkpt>
      <trkpt lat="38.68906933" lon="0.04179067">
        <ele>178.0</ele>
        <time>2018-06-10T05:54:30.000Z</time>
      </trkpt>
      <trkpt lat="38.68912" lon="0.04178683">
        <ele>179.0</ele>
        <time>2018-06-10T05:54:31.000Z</time>
      </trkpt>
      <trkpt lat="38.68917033" lon="0.04178233">
        <ele>179.0</ele>
        <time>2018-06-10T05:54:32.000Z</time>
      </trkpt>
      <trkpt lat="38.689221" lon="0.041777">
        <ele>179.0</ele>
        <time>2018-06-10T05:54:33.000Z</time>
      </trkpt>
      <trkpt lat="38.68927233" lon="0.04176967">
        <ele>180.0</ele>
        <time>2018-06-10T05:54:34.000Z</time>
      </trkpt>
      <trkpt lat="38.68932383" lon="0.04176083">
        <ele>180.0</ele>
        <time>2018-06-10T05:54:35.000Z</time>
      </trkpt>
      <trkpt lat="38.68937483" lon="0.04175033">
        <ele>180.0</ele>
        <time>2018-06-10T05:54:36.000Z</time>
      </trkpt>
      <trkpt lat="38.68942483" lon="0.041739">
        <ele>180.0</ele>
        <time>2018-06-10T05:54:37.000Z</time>
      </trkpt>
      <trkpt lat="38.68947433" lon="0.04172717">
        <ele>180.0</ele>
        <time>2018-06-10T05:54:38.000Z</time>
      </trkpt>
      <trkpt lat="38.68952367" lon="0.041715">
        <ele>181.0</ele>
        <time>2018-06-10T05:54:39.000Z</time>
      </trkpt>
      <trkpt lat="38.68957317" lon="0.04170283">
        <ele>181.0</ele>
        <time>2018-06-10T05:54:40.000Z</time>
      </trkpt>
      <trkpt lat="38.68962267" lon="0.0416905">
        <ele>181.0</ele>
        <time>2018-06-10T05:54:41.000Z</time>
      </trkpt>
      <trkpt lat="38.68967217" lon="0.04167867">
        <ele>182.0</ele>
        <time>2018-06-10T05:54:42.000Z</time>
      </trkpt>
      <trkpt lat="38.68972167" lon="0.041667">
        <ele>182.0</ele>
        <time>2018-06-10T05:54:43.000Z</time>
      </trkpt>
      <trkpt lat="38.68977133" lon="0.041655">
        <ele>182.0</ele>
        <time>2018-06-10T05:54:44.000Z</time>
      </trkpt>
      <trkpt lat="38.689821" lon="0.04164233">
        <ele>182.0</ele>
        <time>2018-06-10T05:54:45.000Z</time>
      </trkpt>
      <trkpt lat="38.68987067" lon="0.041629">
        <ele>183.0</ele>
        <time>2018-06-10T05:54:46.000Z</time>
      </trkpt>
      <trkpt lat="38.68991983" lon="0.04161567">
        <ele>183.0</ele>
        <time>2018-06-10T05:54:47.000Z</time>
      </trkpt>
      <trkpt lat="38.68996833" lon="0.041602">
        <ele>183.0</ele>
        <time>2018-06-10T05:54:48.000Z</time>
      </trkpt>
      <trkpt lat="38.69001633" lon="0.04158833">
        <ele>184.0</ele>
        <time>2018-06-10T05:54:49.000Z</time>
      </trkpt>
      <trkpt lat="38.69006383" lon="0.04157483">
        <ele>184.0</ele>
        <time>2018-06-10T05:54:50.000Z</time>
      </trkpt>
      <trkpt lat="38.69011167" lon="0.0415625">
        <ele>184.0</ele>
        <time>2018-06-10T05:54:51.000Z</time>
      </trkpt>
      <trkpt lat="38.69015933" lon="0.041551">
        <ele>184.0</ele>
        <time>2018-06-10T05:54:52.000Z</time>
      </trkpt>
      <trkpt lat="38.69020717" lon="0.04154">
        <ele>184.0</ele>
        <time>2018-06-10T05:54:53.000Z</time>
      </trkpt>
      <trkpt lat="38.69025467" lon="0.041528">
        <ele>185.0</ele>
        <time>2018-06-10T05:54:54.000Z</time>
      </trkpt>
      <trkpt lat="38.690302" lon="0.04151517">
        <ele>185.0</ele>
        <time>2018-06-10T05:54:55.000Z</time>
      </trkpt>
      <trkpt lat="38.69034883" lon="0.04150217">
        <ele>185.0</ele>
        <time>2018-06-10T05:54:56.000Z</time>
      </trkpt>
      <trkpt lat="38.6903955" lon="0.04148967">
        <ele>186.0</ele>
        <time>2018-06-10T05:54:57.000Z</time>
      </trkpt>
      <trkpt lat="38.69044183" lon="0.04147767">
        <ele>186.0</ele>
        <time>2018-06-10T05:54:58.000Z</time>
      </trkpt>
      <trkpt lat="38.69048783" lon="0.0414665">
        <ele>186.0</ele>
        <time>2018-06-10T05:54:59.000Z</time>
      </trkpt>
      <trkpt lat="38.69053367" lon="0.04145467">
        <ele>187.0</ele>
        <time>2018-06-10T05:55:00.000Z</time>
      </trkpt>
      <trkpt lat="38.69057933" lon="0.0414425">
        <ele>187.0</ele>
        <time>2018-06-10T05:55:01.000Z</time>
      </trkpt>
      <trkpt lat="38.69062467" lon="0.04142933">
        <ele>187.0</ele>
        <time>2018-06-10T05:55:02.000Z</time>
      </trkpt>
      <trkpt lat="38.69067" lon="0.04141667">
        <ele>188.0</ele>
        <time>2018-06-10T05:55:03.000Z</time>
      </trkpt>
      <trkpt lat="38.69071517" lon="0.04140467">
        <ele>188.0</ele>
        <time>2018-06-10T05:55:04.000Z</time>
      </trkpt>
      <trkpt lat="38.69076033" lon="0.041393">
        <ele>188.0</ele>
        <time>2018-06-10T05:55:05.000Z</time>
      </trkpt>
      <trkpt lat="38.69080567" lon="0.04138183">
        <ele>188.0</ele>
        <time>2018-06-10T05:55:06.000Z</time>
      </trkpt>
      <trkpt lat="38.6908505" lon="0.04137">
        <ele>189.0</ele>
        <time>2018-06-10T05:55:07.000Z</time>
      </trkpt>
      <trkpt lat="38.69089567" lon="0.04135783">
        <ele>189.0</ele>
        <time>2018-06-10T05:55:08.000Z</time>
      </trkpt>
      <trkpt lat="38.69094083" lon="0.04134617">
        <ele>189.0</ele>
        <time>2018-06-10T05:55:09.000Z</time>
      </trkpt>
      <trkpt lat="38.69098633" lon="0.041335">
        <ele>190.0</ele>
        <time>2018-06-10T05:55:10.000Z</time>
      </trkpt>
      <trkpt lat="38.69103183" lon="0.04132333">
        <ele>190.0</ele>
        <time>2018-06-10T05:55:11.000Z</time>
      </trkpt>
      <trkpt lat="38.69107683" lon="0.04131117">
        <ele>190.0</ele>
        <time>2018-06-10T05:55:12.000Z</time>
      </trkpt>
      <trkpt lat="38.69112167" lon="0.0413">
        <ele>191.0</ele>
        <time>2018-06-10T05:55:13.000Z</time>
      </trkpt>
      <trkpt lat="38.691166" lon="0.04128983">
        <ele>191.0</ele>
        <time>2018-06-10T05:55:14.000Z</time>
      </trkpt>
      <trkpt lat="38.69121033" lon="0.04127967">
        <ele>191.0</ele>
        <time>2018-06-10T05:55:15.000Z</time>
      </trkpt>
      <trkpt lat="38.691255" lon="0.04126917">
        <ele>191.0</ele>
        <time>2018-06-10T05:55:16.000Z</time>
      </trkpt>
      <trkpt lat="38.69129967" lon="0.041258">
        <ele>192.0</ele>
        <time>2018-06-10T05:55:17.000Z</time>
      </trkpt>
      <trkpt lat="38.69134417" lon="0.04124617">
        <ele>192.0</ele>
        <time>2018-06-10T05:55:18.000Z</time>
      </trkpt>
      <trkpt lat="38.69138833" lon="0.04123383">
        <ele>192.0</ele>
        <time>2018-06-10T05:55:19.000Z</time>
      </trkpt>
      <trkpt lat="38.69143267" lon="0.04122117">
        <ele>192.0</ele>
        <time>2018-06-10T05:55:20.000Z</time>
      </trkpt>
      <trkpt lat="38.69147733" lon="0.04120883">
        <ele>192.0</ele>
        <time>2018-06-10T05:55:21.000Z</time>
      </trkpt>
      <trkpt lat="38.69152217" lon="0.04119717">
        <ele>192.0</ele>
        <time>2018-06-10T05:55:22.000Z</time>
      </trkpt>
      <trkpt lat="38.69156683" lon="0.04118583">
        <ele>193.0</ele>
        <time>2018-06-10T05:55:23.000Z</time>
      </trkpt>
      <trkpt lat="38.69161083" lon="0.04117417">
        <ele>193.0</ele>
        <time>2018-06-10T05:55:24.000Z</time>
      </trkpt>
      <trkpt lat="38.69165483" lon="0.04116267">
        <ele>193.0</ele>
        <time>2018-06-10T05:55:25.000Z</time>
      </trkpt>
      <trkpt lat="38.69169867" lon="0.04115167">
        <ele>193.0</ele>
        <time>2018-06-10T05:55:26.000Z</time>
      </trkpt>
      <trkpt lat="38.69174217" lon="0.04114167">
        <ele>194.0</ele>
        <time>2018-06-10T05:55:27.000Z</time>
      </trkpt>
      <trkpt lat="38.69178517" lon="0.04113167">
        <ele>194.0</ele>
        <time>2018-06-10T05:55:28.000Z</time>
      </trkpt>
      <trkpt lat="38.691828" lon="0.0411215">
        <ele>194.0</ele>
        <time>2018-06-10T05:55:29.000Z</time>
      </trkpt>
      <trkpt lat="38.691871" lon="0.04111133">
        <ele>194.0</ele>
        <time>2018-06-10T05:55:30.000Z</time>
      </trkpt>
      <trkpt lat="38.691914" lon="0.04110117">
        <ele>194.0</ele>
        <time>2018-06-10T05:55:31.000Z</time>
      </trkpt>
      <trkpt lat="38.69195767" lon="0.04109033">
        <ele>195.0</ele>
        <time>2018-06-10T05:55:32.000Z</time>
      </trkpt>
      <trkpt lat="38.692002" lon="0.04107967">
        <ele>195.0</ele>
        <time>2018-06-10T05:55:33.000Z</time>
      </trkpt>
      <trkpt lat="38.69204683" lon="0.041069">
        <ele>195.0</ele>
        <time>2018-06-10T05:55:34.000Z</time>
      </trkpt>
      <trkpt lat="38.69209217" lon="0.04105867">
        <ele>195.0</ele>
        <time>2018-06-10T05:55:35.000Z</time>
      </trkpt>
      <trkpt lat="38.69213717" lon="0.04104833">
        <ele>195.0</ele>
        <time>2018-06-10T05:55:36.000Z</time>
      </trkpt>
      <trkpt lat="38.69218267" lon="0.04103867">
        <ele>195.0</ele>
        <time>2018-06-10T05:55:37.000Z</time>
      </trkpt>
      <trkpt lat="38.69222867" lon="0.04102917">
        <ele>195.0</ele>
        <time>2018-06-10T05:55:38.000Z</time>
      </trkpt>
      <trkpt lat="38.69227567" lon="0.0410205">
        <ele>195.0</ele>
        <time>2018-06-10T05:55:39.000Z</time>
      </trkpt>
      <trkpt lat="38.69232283" lon="0.04101167">
        <ele>195.0</ele>
        <time>2018-06-10T05:55:40.000Z</time>
      </trkpt>
      <trkpt lat="38.69237033" lon="0.04100367">
        <ele>195.0</ele>
        <time>2018-06-10T05:55:41.000Z</time>
      </trkpt>
      <trkpt lat="38.69241767" lon="0.04099617">
        <ele>196.0</ele>
        <time>2018-06-10T05:55:42.000Z</time>
      </trkpt>
      <trkpt lat="38.692465" lon="0.04098917">
        <ele>196.0</ele>
        <time>2018-06-10T05:55:43.000Z</time>
      </trkpt>
      <trkpt lat="38.69251217" lon="0.0409825">
        <ele>196.0</ele>
        <time>2018-06-10T05:55:44.000Z</time>
      </trkpt>
      <trkpt lat="38.69255933" lon="0.04097733">
        <ele>196.0</ele>
        <time>2018-06-10T05:55:45.000Z</time>
      </trkpt>
      <trkpt lat="38.69260667" lon="0.04097433">
        <ele>196.0</ele>
        <time>2018-06-10T05:55:46.000Z</time>
      </trkpt>
      <trkpt lat="38.69265417" lon="0.04097317">
        <ele>196.0</ele>
        <time>2018-06-10T05:55:47.000Z</time>
      </trkpt>
      <trkpt lat="38.69270167" lon="0.04097333">
        <ele>196.0</ele>
        <time>2018-06-10T05:55:48.000Z</time>
      </trkpt>
      <trkpt lat="38.6927495" lon="0.04097383">
        <ele>196.0</ele>
        <time>2018-06-10T05:55:49.000Z</time>
      </trkpt>
      <trkpt lat="38.69279767" lon="0.0409755">
        <ele>197.0</ele>
        <time>2018-06-10T05:55:50.000Z</time>
      </trkpt>
      <trkpt lat="38.692846" lon="0.040978">
        <ele>197.0</ele>
        <time>2018-06-10T05:55:51.000Z</time>
      </trkpt>
      <trkpt lat="38.69289383" lon="0.040982">
        <ele>197.0</ele>
        <time>2018-06-10T05:55:52.000Z</time>
      </trkpt>
      <trkpt lat="38.69294133" lon="0.04098733">
        <ele>197.0</ele>
        <time>2018-06-10T05:55:53.000Z</time>
      </trkpt>
      <trkpt lat="38.69298883" lon="0.04099333">
        <ele>197.0</ele>
        <time>2018-06-10T05:55:54.000Z</time>
      </trkpt>
      <trkpt lat="38.69303633" lon="0.04099967">
        <ele>197.0</ele>
        <time>2018-06-10T05:55:55.000Z</time>
      </trkpt>
      <trkpt lat="38.69308383" lon="0.0410065">
        <ele>197.0</ele>
        <time>2018-06-10T05:55:56.000Z</time>
      </trkpt>
      <trkpt lat="38.6931315" lon="0.0410145">
        <ele>198.0</ele>
        <time>2018-06-10T05:55:57.000Z</time>
      </trkpt>
      <trkpt lat="38.69317933" lon="0.041023">
        <ele>198.0</ele>
        <time>2018-06-10T05:55:58.000Z</time>
      </trkpt>
      <trkpt lat="38.69322717" lon="0.04103183">
        <ele>198.0</ele>
        <time>2018-06-10T05:55:59.000Z</time>
      </trkpt>
      <trkpt lat="38.69327467" lon="0.041041">
        <ele>198.0</ele>
        <time>2018-06-10T05:56:00.000Z</time>
      </trkpt>
      <trkpt lat="38.6933225" lon="0.04105017">
        <ele>198.0</ele>
        <time>2018-06-10T05:56:01.000Z</time>
      </trkpt>
      <trkpt lat="38.69337" lon="0.04105917">
        <ele>198.0</ele>
        <time>2018-06-10T05:56:02.000Z</time>
      </trkpt>
      <trkpt lat="38.69341767" lon="0.041068">
        <ele>198.0</ele>
        <time>2018-06-10T05:56:03.000Z</time>
      </trkpt>
      <trkpt lat="38.69346567" lon="0.04107683">
        <ele>198.0</ele>
        <time>2018-06-10T05:56:04.000Z</time>
      </trkpt>
      <trkpt lat="38.69351417" lon="0.041086">
        <ele>198.0</ele>
        <time>2018-06-10T05:56:05.000Z</time>
      </trkpt>
      <trkpt lat="38.69356283" lon="0.04109583">
        <ele>199.0</ele>
        <time>2018-06-10T05:56:06.000Z</time>
      </trkpt>
      <trkpt lat="38.69361133" lon="0.04110617">
        <ele>199.0</ele>
        <time>2018-06-10T05:56:07.000Z</time>
      </trkpt>
      <trkpt lat="38.69365983" lon="0.0411165">
        <ele>199.0</ele>
        <time>2018-06-10T05:56:08.000Z</time>
      </trkpt>
      <trkpt lat="38.69370867" lon="0.0411265">
        <ele>199.0</ele>
        <time>2018-06-10T05:56:09.000Z</time>
      </trkpt>
      <trkpt lat="38.6937575" lon="0.04113617">
        <ele>199.0</ele>
        <time>2018-06-10T05:56:10.000Z</time>
      </trkpt>
      <trkpt lat="38.6938065" lon="0.04114583">
        <ele>200.0</ele>
        <time>2018-06-10T05:56:11.000Z</time>
      </trkpt>
      <trkpt lat="38.69385567" lon="0.04115567">
        <ele>200.0</ele>
        <time>2018-06-10T05:56:12.000Z</time>
      </trkpt>
      <trkpt lat="38.69390467" lon="0.041166">
        <ele>200.0</ele>
        <time>2018-06-10T05:56:13.000Z</time>
      </trkpt>
      <trkpt lat="38.69395383" lon="0.04117617">
        <ele>200.0</ele>
        <time>2018-06-10T05:56:14.000Z</time>
      </trkpt>
      <trkpt lat="38.69400267" lon="0.04118583">
        <ele>201.0</ele>
        <time>2018-06-10T05:56:15.000Z</time>
      </trkpt>
      <trkpt lat="38.69405183" lon="0.04119567">
        <ele>201.0</ele>
        <time>2018-06-10T05:56:16.000Z</time>
      </trkpt>
      <trkpt lat="38.69410117" lon="0.041206">
        <ele>201.0</ele>
        <time>2018-06-10T05:56:17.000Z</time>
      </trkpt>
      <trkpt lat="38.69415083" lon="0.04121717">
        <ele>201.0</ele>
        <time>2018-06-10T05:56:18.000Z</time>
      </trkpt>
      <trkpt lat="38.69420083" lon="0.04122783">
        <ele>201.0</ele>
        <time>2018-06-10T05:56:19.000Z</time>
      </trkpt>
      <trkpt lat="38.69425083" lon="0.04123767">
        <ele>202.0</ele>
        <time>2018-06-10T05:56:20.000Z</time>
      </trkpt>
      <trkpt lat="38.694301" lon="0.0412475">
        <ele>202.0</ele>
        <time>2018-06-10T05:56:21.000Z</time>
      </trkpt>
      <trkpt lat="38.694351" lon="0.04125833">
        <ele>202.0</ele>
        <time>2018-06-10T05:56:22.000Z</time>
      </trkpt>
      <trkpt lat="38.69440083" lon="0.04126967">
        <ele>202.0</ele>
        <time>2018-06-10T05:56:23.000Z</time>
      </trkpt>
      <trkpt lat="38.694451" lon="0.04128117">
        <ele>202.0</ele>
        <time>2018-06-10T05:56:24.000Z</time>
      </trkpt>
      <trkpt lat="38.69450117" lon="0.04129167">
        <ele>202.0</ele>
        <time>2018-06-10T05:56:25.000Z</time>
      </trkpt>
      <trkpt lat="38.69455167" lon="0.0413025">
        <ele>202.0</ele>
        <time>2018-06-10T05:56:26.000Z</time>
      </trkpt>
      <trkpt lat="38.6946025" lon="0.04131283">
        <ele>203.0</ele>
        <time>2018-06-10T05:56:27.000Z</time>
      </trkpt>
      <trkpt lat="38.6946535" lon="0.04132267">
        <ele>203.0</ele>
        <time>2018-06-10T05:56:28.000Z</time>
      </trkpt>
      <trkpt lat="38.69470467" lon="0.0413315">
        <ele>203.0</ele>
        <time>2018-06-10T05:56:29.000Z</time>
      </trkpt>
      <trkpt lat="38.69475533" lon="0.04134033">
        <ele>203.0</ele>
        <time>2018-06-10T05:56:30.000Z</time>
      </trkpt>
      <trkpt lat="38.69480583" lon="0.04134967">
        <ele>204.0</ele>
        <time>2018-06-10T05:56:31.000Z</time>
      </trkpt>
      <trkpt lat="38.69485583" lon="0.0413595">
        <ele>204.0</ele>
        <time>2018-06-10T05:56:32.000Z</time>
      </trkpt>
      <trkpt lat="38.69490567" lon="0.04137017">
        <ele>204.0</ele>
        <time>2018-06-10T05:56:33.000Z</time>
      </trkpt>
      <trkpt lat="38.69495533" lon="0.04138067">
        <ele>205.0</ele>
        <time>2018-06-10T05:56:34.000Z</time>
      </trkpt>
      <trkpt lat="38.69500483" lon="0.0413905">
        <ele>205.0</ele>
        <time>2018-06-10T05:56:35.000Z</time>
      </trkpt>
      <trkpt lat="38.695054" lon="0.04139933">
        <ele>205.0</ele>
        <time>2018-06-10T05:56:36.000Z</time>
      </trkpt>
      <trkpt lat="38.69510283" lon="0.041407">
        <ele>206.0</ele>
        <time>2018-06-10T05:56:37.000Z</time>
      </trkpt>
      <trkpt lat="38.69515117" lon="0.04141267">
        <ele>206.0</ele>
        <time>2018-06-10T05:56:38.000Z</time>
      </trkpt>
      <trkpt lat="38.69519917" lon="0.04141533">
        <ele>206.0</ele>
        <time>2018-06-10T05:56:39.000Z</time>
      </trkpt>
      <trkpt lat="38.69524733" lon="0.04141483">
        <ele>206.0</ele>
        <time>2018-06-10T05:56:40.000Z</time>
      </trkpt>
      <trkpt lat="38.6952955" lon="0.04141233">
        <ele>206.0</ele>
        <time>2018-06-10T05:56:41.000Z</time>
      </trkpt>
      <trkpt lat="38.69534283" lon="0.041409">
        <ele>207.0</ele>
        <time>2018-06-10T05:56:42.000Z</time>
      </trkpt>
      <trkpt lat="38.69539" lon="0.04140517">
        <ele>207.0</ele>
        <time>2018-06-10T05:56:43.000Z</time>
      </trkpt>
      <trkpt lat="38.69543717" lon="0.04139967">
        <ele>207.0</ele>
        <time>2018-06-10T05:56:44.000Z</time>
      </trkpt>
      <trkpt lat="38.69548417" lon="0.04139167">
        <ele>207.0</ele>
        <time>2018-06-10T05:56:45.000Z</time>
      </trkpt>
      <trkpt lat="38.69553083" lon="0.04138117">
        <ele>207.0</ele>
        <time>2018-06-10T05:56:46.000Z</time>
      </trkpt>
      <trkpt lat="38.69557717" lon="0.04136883">
        <ele>207.0</ele>
        <time>2018-06-10T05:56:47.000Z</time>
      </trkpt>
      <trkpt lat="38.6956235" lon="0.04135467">
        <ele>208.0</ele>
        <time>2018-06-10T05:56:48.000Z</time>
      </trkpt>
      <trkpt lat="38.6956695" lon="0.04133867">
        <ele>208.0</ele>
        <time>2018-06-10T05:56:49.000Z</time>
      </trkpt>
      <trkpt lat="38.695715" lon="0.04132083">
        <ele>208.0</ele>
        <time>2018-06-10T05:56:50.000Z</time>
      </trkpt>
      <trkpt lat="38.69576" lon="0.04130217">
        <ele>208.0</ele>
        <time>2018-06-10T05:56:51.000Z</time>
      </trkpt>
      <trkpt lat="38.69580433" lon="0.04128233">
        <ele>209.0</ele>
        <time>2018-06-10T05:56:52.000Z</time>
      </trkpt>
      <trkpt lat="38.69584817" lon="0.0412615">
        <ele>209.0</ele>
        <time>2018-06-10T05:56:53.000Z</time>
      </trkpt>
      <trkpt lat="38.69589167" lon="0.04124033">
        <ele>209.0</ele>
        <time>2018-06-10T05:56:54.000Z</time>
      </trkpt>
      <trkpt lat="38.69593517" lon="0.04121917">
        <ele>209.0</ele>
        <time>2018-06-10T05:56:55.000Z</time>
      </trkpt>
      <trkpt lat="38.69597867" lon="0.04119817">
        <ele>209.0</ele>
        <time>2018-06-10T05:56:56.000Z</time>
      </trkpt>
      <trkpt lat="38.69602217" lon="0.04117683">
        <ele>210.0</ele>
        <time>2018-06-10T05:56:57.000Z</time>
      </trkpt>
      <trkpt lat="38.69606583" lon="0.041155">
        <ele>210.0</ele>
        <time>2018-06-10T05:56:58.000Z</time>
      </trkpt>
      <trkpt lat="38.69610933" lon="0.04113317">
        <ele>210.0</ele>
        <time>2018-06-10T05:56:59.000Z</time>
      </trkpt>
      <trkpt lat="38.69615283" lon="0.04111117">
        <ele>210.0</ele>
        <time>2018-06-10T05:57:00.000Z</time>
      </trkpt>
      <trkpt lat="38.69619633" lon="0.0410895">
        <ele>210.0</ele>
        <time>2018-06-10T05:57:01.000Z</time>
      </trkpt>
      <trkpt lat="38.69623917" lon="0.04106767">
        <ele>211.0</ele>
        <time>2018-06-10T05:57:02.000Z</time>
      </trkpt>
      <trkpt lat="38.69628167" lon="0.0410465">
        <ele>211.0</ele>
        <time>2018-06-10T05:57:03.000Z</time>
      </trkpt>
      <trkpt lat="38.6963235" lon="0.04102567">
        <ele>211.0</ele>
        <time>2018-06-10T05:57:04.000Z</time>
      </trkpt>
      <trkpt lat="38.69636467" lon="0.04100533">
        <ele>211.0</ele>
        <time>2018-06-10T05:57:05.000Z</time>
      </trkpt>
      <trkpt lat="38.69640533" lon="0.04098517">
        <ele>212.0</ele>
        <time>2018-06-10T05:57:06.000Z</time>
      </trkpt>
      <trkpt lat="38.69644567" lon="0.0409645">
        <ele>212.0</ele>
        <time>2018-06-10T05:57:07.000Z</time>
      </trkpt>
      <trkpt lat="38.69648567" lon="0.04094417">
        <ele>212.0</ele>
        <time>2018-06-10T05:57:08.000Z</time>
      </trkpt>
      <trkpt lat="38.69652567" lon="0.04092417">
        <ele>213.0</ele>
        <time>2018-06-10T05:57:09.000Z</time>
      </trkpt>
      <trkpt lat="38.6965655" lon="0.04090517">
        <ele>213.0</ele>
        <time>2018-06-10T05:57:10.000Z</time>
      </trkpt>
      <trkpt lat="38.6966055" lon="0.04088683">
        <ele>213.0</ele>
        <time>2018-06-10T05:57:11.000Z</time>
      </trkpt>
      <trkpt lat="38.69664533" lon="0.0408685">
        <ele>213.0</ele>
        <time>2018-06-10T05:57:12.000Z</time>
      </trkpt>
      <trkpt lat="38.69668517" lon="0.04085017">
        <ele>214.0</ele>
        <time>2018-06-10T05:57:13.000Z</time>
      </trkpt>
      <trkpt lat="38.696725" lon="0.04083117">
        <ele>214.0</ele>
        <time>2018-06-10T05:57:14.000Z</time>
      </trkpt>
      <trkpt lat="38.69676533" lon="0.04081183">
        <ele>214.0</ele>
        <time>2018-06-10T05:57:15.000Z</time>
      </trkpt>
      <trkpt lat="38.69680483" lon="0.04079083">
        <ele>214.0</ele>
        <time>2018-06-10T05:57:16.000Z</time>
      </trkpt>
      <trkpt lat="38.69684467" lon="0.04076967">
        <ele>214.0</ele>
        <time>2018-06-10T05:57:17.000Z</time>
      </trkpt>
      <trkpt lat="38.69688483" lon="0.04074783">
        <ele>215.0</ele>
        <time>2018-06-10T05:57:18.000Z</time>
      </trkpt>
      <trkpt lat="38.696926" lon="0.04072733">
        <ele>215.0</ele>
        <time>2018-06-10T05:57:19.000Z</time>
      </trkpt>
      <trkpt lat="38.696967" lon="0.04070667">
        <ele>215.0</ele>
        <time>2018-06-10T05:57:20.000Z</time>
      </trkpt>
      <trkpt lat="38.697008" lon="0.04068667">
        <ele>215.0</ele>
        <time>2018-06-10T05:57:21.000Z</time>
      </trkpt>
      <trkpt lat="38.69704883" lon="0.04066583">
        <ele>215.0</ele>
        <time>2018-06-10T05:57:22.000Z</time>
      </trkpt>
      <trkpt lat="38.69709017" lon="0.04064467">
        <ele>215.0</ele>
        <time>2018-06-10T05:57:23.000Z</time>
      </trkpt>
      <trkpt lat="38.69713067" lon="0.04062217">
        <ele>216.0</ele>
        <time>2018-06-10T05:57:24.000Z</time>
      </trkpt>
      <trkpt lat="38.69717133" lon="0.04059983">
        <ele>216.0</ele>
        <time>2018-06-10T05:57:25.000Z</time>
      </trkpt>
      <trkpt lat="38.69721233" lon="0.04057817">
        <ele>216.0</ele>
        <time>2018-06-10T05:57:26.000Z</time>
      </trkpt>
      <trkpt lat="38.69725383" lon="0.0405575">
        <ele>217.0</ele>
        <time>2018-06-10T05:57:27.000Z</time>
      </trkpt>
      <trkpt lat="38.69729567" lon="0.04053767">
        <ele>217.0</ele>
        <time>2018-06-10T05:57:28.000Z</time>
      </trkpt>
      <trkpt lat="38.6973375" lon="0.04051783">
        <ele>217.0</ele>
        <time>2018-06-10T05:57:29.000Z</time>
      </trkpt>
      <trkpt lat="38.69737867" lon="0.04049783">
        <ele>218.0</ele>
        <time>2018-06-10T05:57:30.000Z</time>
      </trkpt>
      <trkpt lat="38.69741967" lon="0.04047733">
        <ele>218.0</ele>
        <time>2018-06-10T05:57:31.000Z</time>
      </trkpt>
      <trkpt lat="38.6974605" lon="0.04045717">
        <ele>218.0</ele>
        <time>2018-06-10T05:57:32.000Z</time>
      </trkpt>
      <trkpt lat="38.69750117" lon="0.04043667">
        <ele>218.0</ele>
        <time>2018-06-10T05:57:33.000Z</time>
      </trkpt>
      <trkpt lat="38.6975415" lon="0.04041633">
        <ele>218.0</ele>
        <time>2018-06-10T05:57:34.000Z</time>
      </trkpt>
      <trkpt lat="38.6975815" lon="0.04039567">
        <ele>219.0</ele>
        <time>2018-06-10T05:57:35.000Z</time>
      </trkpt>
      <trkpt lat="38.69762217" lon="0.040376">
        <ele>219.0</ele>
        <time>2018-06-10T05:57:36.000Z</time>
      </trkpt>
      <trkpt lat="38.69766317" lon="0.040356">
        <ele>219.0</ele>
        <time>2018-06-10T05:57:37.000Z</time>
      </trkpt>
      <trkpt lat="38.69770417" lon="0.04033567">
        <ele>220.0</ele>
        <time>2018-06-10T05:57:38.000Z</time>
      </trkpt>
      <trkpt lat="38.69774533" lon="0.04031467">
        <ele>220.0</ele>
        <time>2018-06-10T05:57:39.000Z</time>
      </trkpt>
      <trkpt lat="38.69778617" lon="0.040293">
        <ele>220.0</ele>
        <time>2018-06-10T05:57:40.000Z</time>
      </trkpt>
      <trkpt lat="38.69782683" lon="0.0402715">
        <ele>220.0</ele>
        <time>2018-06-10T05:57:41.000Z</time>
      </trkpt>
      <trkpt lat="38.69786767" lon="0.0402505">
        <ele>221.0</ele>
        <time>2018-06-10T05:57:42.000Z</time>
      </trkpt>
      <trkpt lat="38.69790833" lon="0.04023017">
        <ele>221.0</ele>
        <time>2018-06-10T05:57:43.000Z</time>
      </trkpt>
      <trkpt lat="38.697949" lon="0.040209">
        <ele>221.0</ele>
        <time>2018-06-10T05:57:44.000Z</time>
      </trkpt>
      <trkpt lat="38.6979895" lon="0.04018683">
        <ele>221.0</ele>
        <time>2018-06-10T05:57:45.000Z</time>
      </trkpt>
      <trkpt lat="38.69803133" lon="0.04016533">
        <ele>222.0</ele>
        <time>2018-06-10T05:57:46.000Z</time>
      </trkpt>
      <trkpt lat="38.6980735" lon="0.04014567">
        <ele>222.0</ele>
        <time>2018-06-10T05:57:47.000Z</time>
      </trkpt>
      <trkpt lat="38.69811633" lon="0.04012683">
        <ele>222.0</ele>
        <time>2018-06-10T05:57:48.000Z</time>
      </trkpt>
      <trkpt lat="38.69815783" lon="0.040107">
        <ele>223.0</ele>
        <time>2018-06-10T05:57:49.000Z</time>
      </trkpt>
      <trkpt lat="38.69819933" lon="0.04008617">
        <ele>223.0</ele>
        <time>2018-06-10T05:57:50.000Z</time>
      </trkpt>
      <trkpt lat="38.69823983" lon="0.0400645">
        <ele>223.0</ele>
        <time>2018-06-10T05:57:51.000Z</time>
      </trkpt>
      <trkpt lat="38.698281" lon="0.04004333">
        <ele>223.0</ele>
        <time>2018-06-10T05:57:52.000Z</time>
      </trkpt>
      <trkpt lat="38.69832217" lon="0.040022">
        <ele>224.0</ele>
        <time>2018-06-10T05:57:53.000Z</time>
      </trkpt>
      <trkpt lat="38.69836483" lon="0.040001">
        <ele>224.0</ele>
        <time>2018-06-10T05:57:54.000Z</time>
      </trkpt>
      <trkpt lat="38.6984075" lon="0.0399795">
        <ele>224.0</ele>
        <time>2018-06-10T05:57:55.000Z</time>
      </trkpt>
      <trkpt lat="38.69844983" lon="0.03995783">
        <ele>225.0</ele>
        <time>2018-06-10T05:57:56.000Z</time>
      </trkpt>
      <trkpt lat="38.69849167" lon="0.039936">
        <ele>225.0</ele>
        <time>2018-06-10T05:57:57.000Z</time>
      </trkpt>
      <trkpt lat="38.69853333" lon="0.03991483">
        <ele>225.0</ele>
        <time>2018-06-10T05:57:58.000Z</time>
      </trkpt>
      <trkpt lat="38.69857533" lon="0.03989333">
        <ele>226.0</ele>
        <time>2018-06-10T05:57:59.000Z</time>
      </trkpt>
      <trkpt lat="38.69861683" lon="0.03987167">
        <ele>226.0</ele>
        <time>2018-06-10T05:58:00.000Z</time>
      </trkpt>
      <trkpt lat="38.69865817" lon="0.03985">
        <ele>226.0</ele>
        <time>2018-06-10T05:58:01.000Z</time>
      </trkpt>
      <trkpt lat="38.69869967" lon="0.03982817">
        <ele>226.0</ele>
        <time>2018-06-10T05:58:02.000Z</time>
      </trkpt>
      <trkpt lat="38.69874217" lon="0.03980483">
        <ele>226.0</ele>
        <time>2018-06-10T05:58:03.000Z</time>
      </trkpt>
      <trkpt lat="38.69878483" lon="0.03977983">
        <ele>226.0</ele>
        <time>2018-06-10T05:58:04.000Z</time>
      </trkpt>
      <trkpt lat="38.69882783" lon="0.03975467">
        <ele>225.0</ele>
        <time>2018-06-10T05:58:05.000Z</time>
      </trkpt>
      <trkpt lat="38.69887167" lon="0.0397295">
        <ele>225.0</ele>
        <time>2018-06-10T05:58:06.000Z</time>
      </trkpt>
      <trkpt lat="38.69891667" lon="0.0397035">
        <ele>225.0</ele>
        <time>2018-06-10T05:58:07.000Z</time>
      </trkpt>
      <trkpt lat="38.69896217" lon="0.03967567">
        <ele>225.0</ele>
        <time>2018-06-10T05:58:08.000Z</time>
      </trkpt>
      <trkpt lat="38.69900767" lon="0.0396465">
        <ele>225.0</ele>
        <time>2018-06-10T05:58:09.000Z</time>
      </trkpt>
      <trkpt lat="38.69905333" lon="0.039617">
        <ele>225.0</ele>
        <time>2018-06-10T05:58:10.000Z</time>
      </trkpt>
      <trkpt lat="38.69909867" lon="0.0395865">
        <ele>225.0</ele>
        <time>2018-06-10T05:58:11.000Z</time>
      </trkpt>
      <trkpt lat="38.69914433" lon="0.039555">
        <ele>225.0</ele>
        <time>2018-06-10T05:58:12.000Z</time>
      </trkpt>
      <trkpt lat="38.69919083" lon="0.03952267">
        <ele>225.0</ele>
        <time>2018-06-10T05:58:13.000Z</time>
      </trkpt>
      <trkpt lat="38.699238" lon="0.03948967">
        <ele>225.0</ele>
        <time>2018-06-10T05:58:14.000Z</time>
      </trkpt>
      <trkpt lat="38.69928567" lon="0.03945667">
        <ele>224.0</ele>
        <time>2018-06-10T05:58:15.000Z</time>
      </trkpt>
      <trkpt lat="38.69933383" lon="0.03942333">
        <ele>224.0</ele>
        <time>2018-06-10T05:58:16.000Z</time>
      </trkpt>
      <trkpt lat="38.69938267" lon="0.0393905">
        <ele>225.0</ele>
        <time>2018-06-10T05:58:17.000Z</time>
      </trkpt>
      <trkpt lat="38.69943183" lon="0.03935733">
        <ele>225.0</ele>
        <time>2018-06-10T05:58:18.000Z</time>
      </trkpt>
      <trkpt lat="38.69948083" lon="0.03932317">
        <ele>225.0</ele>
        <time>2018-06-10T05:58:19.000Z</time>
      </trkpt>
      <trkpt lat="38.69952933" lon="0.039288">
        <ele>225.0</ele>
        <time>2018-06-10T05:58:20.000Z</time>
      </trkpt>
      <trkpt lat="38.6995785" lon="0.0392515">
        <ele>225.0</ele>
        <time>2018-06-10T05:58:21.000Z</time>
      </trkpt>
      <trkpt lat="38.69962883" lon="0.0392155">
        <ele>225.0</ele>
        <time>2018-06-10T05:58:22.000Z</time>
      </trkpt>
      <trkpt lat="38.69967983" lon="0.03918">
        <ele>225.0</ele>
        <time>2018-06-10T05:58:23.000Z</time>
      </trkpt>
      <trkpt lat="38.69973117" lon="0.0391455">
        <ele>225.0</ele>
        <time>2018-06-10T05:58:24.000Z</time>
      </trkpt>
      <trkpt lat="38.6997825" lon="0.0391105">
        <ele>225.0</ele>
        <time>2018-06-10T05:58:25.000Z</time>
      </trkpt>
      <trkpt lat="38.69983383" lon="0.0390755">
        <ele>225.0</ele>
        <time>2018-06-10T05:58:26.000Z</time>
      </trkpt>
      <trkpt lat="38.69988517" lon="0.0390405">
        <ele>225.0</ele>
        <time>2018-06-10T05:58:27.000Z</time>
      </trkpt>
      <trkpt lat="38.6999365" lon="0.03900533">
        <ele>225.0</ele>
        <time>2018-06-10T05:58:28.000Z</time>
      </trkpt>
      <trkpt lat="38.69998817" lon="0.03897">
        <ele>225.0</ele>
        <time>2018-06-10T05:58:29.000Z</time>
      </trkpt>
      <trkpt lat="38.70004017" lon="0.038935">
        <ele>225.0</ele>
        <time>2018-06-10T05:58:30.000Z</time>
      </trkpt>
      <trkpt lat="38.70009267" lon="0.03890017">
        <ele>225.0</ele>
        <time>2018-06-10T05:58:31.000Z</time>
      </trkpt>
      <trkpt lat="38.700145" lon="0.03886533">
        <ele>225.0</ele>
        <time>2018-06-10T05:58:32.000Z</time>
      </trkpt>
      <trkpt lat="38.70019733" lon="0.03883033">
        <ele>226.0</ele>
        <time>2018-06-10T05:58:33.000Z</time>
      </trkpt>
      <trkpt lat="38.70025" lon="0.038796">
        <ele>226.0</ele>
        <time>2018-06-10T05:58:34.000Z</time>
      </trkpt>
      <trkpt lat="38.70030283" lon="0.03876367">
        <ele>226.0</ele>
        <time>2018-06-10T05:58:35.000Z</time>
      </trkpt>
      <trkpt lat="38.70035617" lon="0.03873317">
        <ele>226.0</ele>
        <time>2018-06-10T05:58:36.000Z</time>
      </trkpt>
      <trkpt lat="38.70040967" lon="0.0387035">
        <ele>226.0</ele>
        <time>2018-06-10T05:58:37.000Z</time>
      </trkpt>
      <trkpt lat="38.70046417" lon="0.03867417">
        <ele>226.0</ele>
        <time>2018-06-10T05:58:38.000Z</time>
      </trkpt>
      <trkpt lat="38.70052017" lon="0.03864517">
        <ele>226.0</ele>
        <time>2018-06-10T05:58:39.000Z</time>
      </trkpt>
      <trkpt lat="38.7005775" lon="0.038617">
        <ele>226.0</ele>
        <time>2018-06-10T05:58:40.000Z</time>
      </trkpt>
      <trkpt lat="38.70063567" lon="0.03859033">
        <ele>226.0</ele>
        <time>2018-06-10T05:58:41.000Z</time>
      </trkpt>
      <trkpt lat="38.70069417" lon="0.03856533">
        <ele>226.0</ele>
        <time>2018-06-10T05:58:42.000Z</time>
      </trkpt>
      <trkpt lat="38.70075233" lon="0.0385405">
        <ele>226.0</ele>
        <time>2018-06-10T05:58:43.000Z</time>
      </trkpt>
      <trkpt lat="38.70080983" lon="0.03851533">
        <ele>227.0</ele>
        <time>2018-06-10T05:58:44.000Z</time>
      </trkpt>
      <trkpt lat="38.70086667" lon="0.03849217">
        <ele>227.0</ele>
        <time>2018-06-10T05:58:45.000Z</time>
      </trkpt>
      <trkpt lat="38.70092317" lon="0.03847317">
        <ele>227.0</ele>
        <time>2018-06-10T05:58:46.000Z</time>
      </trkpt>
      <trkpt lat="38.70097933" lon="0.03845983">
        <ele>227.0</ele>
        <time>2018-06-10T05:58:47.000Z</time>
      </trkpt>
      <trkpt lat="38.70103467" lon="0.03845017">
        <ele>228.0</ele>
        <time>2018-06-10T05:58:48.000Z</time>
      </trkpt>
      <trkpt lat="38.70108917" lon="0.03844483">
        <ele>228.0</ele>
        <time>2018-06-10T05:58:49.000Z</time>
      </trkpt>
      <trkpt lat="38.70114317" lon="0.03844117">
        <ele>228.0</ele>
        <time>2018-06-10T05:58:50.000Z</time>
      </trkpt>
      <trkpt lat="38.701196" lon="0.0384385">
        <ele>229.0</ele>
        <time>2018-06-10T05:58:51.000Z</time>
      </trkpt>
      <trkpt lat="38.7012475" lon="0.03843433">
        <ele>229.0</ele>
        <time>2018-06-10T05:58:52.000Z</time>
      </trkpt>
      <trkpt lat="38.70129667" lon="0.03842917">
        <ele>229.0</ele>
        <time>2018-06-10T05:58:53.000Z</time>
      </trkpt>
      <trkpt lat="38.70134433" lon="0.038423">
        <ele>229.0</ele>
        <time>2018-06-10T05:58:54.000Z</time>
      </trkpt>
      <trkpt lat="38.7013905" lon="0.03841683">
        <ele>230.0</ele>
        <time>2018-06-10T05:58:55.000Z</time>
      </trkpt>
      <trkpt lat="38.701435" lon="0.0384115">
        <ele>230.0</ele>
        <time>2018-06-10T05:58:56.000Z</time>
      </trkpt>
      <trkpt lat="38.70147767" lon="0.0384085">
        <ele>230.0</ele>
        <time>2018-06-10T05:58:57.000Z</time>
      </trkpt>
      <trkpt lat="38.70151867" lon="0.038408">
        <ele>230.0</ele>
        <time>2018-06-10T05:58:58.000Z</time>
      </trkpt>
      <trkpt lat="38.70155917" lon="0.03840817">
        <ele>231.0</ele>
        <time>2018-06-10T05:58:59.000Z</time>
      </trkpt>
      <trkpt lat="38.70159917" lon="0.03840817">
        <ele>231.0</ele>
        <time>2018-06-10T05:59:00.000Z</time>
      </trkpt>
      <trkpt lat="38.70163917" lon="0.03840833">
        <ele>231.0</ele>
        <time>2018-06-10T05:59:01.000Z</time>
      </trkpt>
      <trkpt lat="38.70167917" lon="0.038409">
        <ele>232.0</ele>
        <time>2018-06-10T05:59:02.000Z</time>
      </trkpt>
      <trkpt lat="38.7017195" lon="0.03841">
        <ele>232.0</ele>
        <time>2018-06-10T05:59:03.000Z</time>
      </trkpt>
      <trkpt lat="38.7017595" lon="0.03841117">
        <ele>232.0</ele>
        <time>2018-06-10T05:59:04.000Z</time>
      </trkpt>
      <trkpt lat="38.70179917" lon="0.03841317">
        <ele>232.0</ele>
        <time>2018-06-10T05:59:05.000Z</time>
      </trkpt>
      <trkpt lat="38.70183867" lon="0.03841533">
        <ele>233.0</ele>
        <time>2018-06-10T05:59:06.000Z</time>
      </trkpt>
      <trkpt lat="38.70187833" lon="0.03841717">
        <ele>233.0</ele>
        <time>2018-06-10T05:59:07.000Z</time>
      </trkpt>
      <trkpt lat="38.7019175" lon="0.03841867">
        <ele>233.0</ele>
        <time>2018-06-10T05:59:08.000Z</time>
      </trkpt>
      <trkpt lat="38.70195683" lon="0.03842183">
        <ele>234.0</ele>
        <time>2018-06-10T05:59:09.000Z</time>
      </trkpt>
      <trkpt lat="38.70199583" lon="0.03842533">
        <ele>234.0</ele>
        <time>2018-06-10T05:59:10.000Z</time>
      </trkpt>
      <trkpt lat="38.70203517" lon="0.0384285">
        <ele>234.0</ele>
        <time>2018-06-10T05:59:11.000Z</time>
      </trkpt>
      <trkpt lat="38.70207433" lon="0.03843017">
        <ele>235.0</ele>
        <time>2018-06-10T05:59:12.000Z</time>
      </trkpt>
      <trkpt lat="38.70211333" lon="0.03843217">
        <ele>235.0</ele>
        <time>2018-06-10T05:59:13.000Z</time>
      </trkpt>
      <trkpt lat="38.702152" lon="0.03843467">
        <ele>235.0</ele>
        <time>2018-06-10T05:59:14.000Z</time>
      </trkpt>
      <trkpt lat="38.70219067" lon="0.0384375">
        <ele>236.0</ele>
        <time>2018-06-10T05:59:15.000Z</time>
      </trkpt>
      <trkpt lat="38.70222933" lon="0.03844017">
        <ele>236.0</ele>
        <time>2018-06-10T05:59:16.000Z</time>
      </trkpt>
      <trkpt lat="38.7022685" lon="0.03844267">
        <ele>236.0</ele>
        <time>2018-06-10T05:59:17.000Z</time>
      </trkpt>
      <trkpt lat="38.702308" lon="0.03844517">
        <ele>237.0</ele>
        <time>2018-06-10T05:59:18.000Z</time>
      </trkpt>
      <trkpt lat="38.70234717" lon="0.0384475">
        <ele>237.0</ele>
        <time>2018-06-10T05:59:19.000Z</time>
      </trkpt>
      <trkpt lat="38.70238633" lon="0.03845033">
        <ele>237.0</ele>
        <time>2018-06-10T05:59:20.000Z</time>
      </trkpt>
      <trkpt lat="38.70242517" lon="0.03845417">
        <ele>238.0</ele>
        <time>2018-06-10T05:59:21.000Z</time>
      </trkpt>
      <trkpt lat="38.70246433" lon="0.038458">
        <ele>238.0</ele>
        <time>2018-06-10T05:59:22.000Z</time>
      </trkpt>
      <trkpt lat="38.70250417" lon="0.0384605">
        <ele>238.0</ele>
        <time>2018-06-10T05:59:23.000Z</time>
      </trkpt>
      <trkpt lat="38.7025435" lon="0.038462">
        <ele>238.0</ele>
        <time>2018-06-10T05:59:24.000Z</time>
      </trkpt>
      <trkpt lat="38.7025825" lon="0.038463">
        <ele>238.0</ele>
        <time>2018-06-10T05:59:25.000Z</time>
      </trkpt>
      <trkpt lat="38.70262067" lon="0.038464">
        <ele>238.0</ele>
        <time>2018-06-10T05:59:26.000Z</time>
      </trkpt>
      <trkpt lat="38.70265883" lon="0.038465">
        <ele>238.0</ele>
        <time>2018-06-10T05:59:27.000Z</time>
      </trkpt>
      <trkpt lat="38.70269717" lon="0.03846733">
        <ele>239.0</ele>
        <time>2018-06-10T05:59:28.000Z</time>
      </trkpt>
      <trkpt lat="38.70273583" lon="0.03847067">
        <ele>239.0</ele>
        <time>2018-06-10T05:59:29.000Z</time>
      </trkpt>
      <trkpt lat="38.702775" lon="0.038474">
        <ele>239.0</ele>
        <time>2018-06-10T05:59:30.000Z</time>
      </trkpt>
      <trkpt lat="38.70281433" lon="0.0384765">
        <ele>239.0</ele>
        <time>2018-06-10T05:59:31.000Z</time>
      </trkpt>
      <trkpt lat="38.70285383" lon="0.038479">
        <ele>240.0</ele>
        <time>2018-06-10T05:59:32.000Z</time>
      </trkpt>
      <trkpt lat="38.70289333" lon="0.038482">
        <ele>240.0</ele>
        <time>2018-06-10T05:59:33.000Z</time>
      </trkpt>
      <trkpt lat="38.702933" lon="0.03848583">
        <ele>240.0</ele>
        <time>2018-06-10T05:59:34.000Z</time>
      </trkpt>
      <trkpt lat="38.7029725" lon="0.03848983">
        <ele>240.0</ele>
        <time>2018-06-10T05:59:35.000Z</time>
      </trkpt>
      <trkpt lat="38.70301183" lon="0.03849267">
        <ele>241.0</ele>
        <time>2018-06-10T05:59:36.000Z</time>
      </trkpt>
      <trkpt lat="38.703051" lon="0.03849467">
        <ele>241.0</ele>
        <time>2018-06-10T05:59:37.000Z</time>
      </trkpt>
      <trkpt lat="38.70309" lon="0.03849633">
        <ele>241.0</ele>
        <time>2018-06-10T05:59:38.000Z</time>
      </trkpt>
      <trkpt lat="38.70312933" lon="0.038499">
        <ele>241.0</ele>
        <time>2018-06-10T05:59:39.000Z</time>
      </trkpt>
      <trkpt lat="38.703169" lon="0.0385025">
        <ele>241.0</ele>
        <time>2018-06-10T05:59:40.000Z</time>
      </trkpt>
      <trkpt lat="38.70320883" lon="0.03850583">
        <ele>242.0</ele>
        <time>2018-06-10T05:59:41.000Z</time>
      </trkpt>
      <trkpt lat="38.70324933" lon="0.03850933">
        <ele>242.0</ele>
        <time>2018-06-10T05:59:42.000Z</time>
      </trkpt>
      <trkpt lat="38.70328967" lon="0.038513">
        <ele>242.0</ele>
        <time>2018-06-10T05:59:43.000Z</time>
      </trkpt>
      <trkpt lat="38.70333" lon="0.038517">
        <ele>243.0</ele>
        <time>2018-06-10T05:59:44.000Z</time>
      </trkpt>
      <trkpt lat="38.70337" lon="0.03852033">
        <ele>243.0</ele>
        <time>2018-06-10T05:59:45.000Z</time>
      </trkpt>
      <trkpt lat="38.70340967" lon="0.03852333">
        <ele>243.0</ele>
        <time>2018-06-10T05:59:46.000Z</time>
      </trkpt>
      <trkpt lat="38.70344867" lon="0.03852633">
        <ele>244.0</ele>
        <time>2018-06-10T05:59:47.000Z</time>
      </trkpt>
      <trkpt lat="38.70348733" lon="0.0385295">
        <ele>244.0</ele>
        <time>2018-06-10T05:59:48.000Z</time>
      </trkpt>
      <trkpt lat="38.7035255" lon="0.03853267">
        <ele>244.0</ele>
        <time>2018-06-10T05:59:49.000Z</time>
      </trkpt>
      <trkpt lat="38.7035635" lon="0.03853533">
        <ele>245.0</ele>
        <time>2018-06-10T05:59:50.000Z</time>
      </trkpt>
      <trkpt lat="38.70360183" lon="0.03853717">
        <ele>245.0</ele>
        <time>2018-06-10T05:59:51.000Z</time>
      </trkpt>
      <trkpt lat="38.70364017" lon="0.0385385">
        <ele>245.0</ele>
        <time>2018-06-10T05:59:52.000Z</time>
      </trkpt>
      <trkpt lat="38.70367867" lon="0.03853967">
        <ele>246.0</ele>
        <time>2018-06-10T05:59:53.000Z</time>
      </trkpt>
      <trkpt lat="38.70371733" lon="0.03854133">
        <ele>246.0</ele>
        <time>2018-06-10T05:59:54.000Z</time>
      </trkpt>
      <trkpt lat="38.70375617" lon="0.03854367">
        <ele>246.0</ele>
        <time>2018-06-10T05:59:55.000Z</time>
      </trkpt>
      <trkpt lat="38.70379517" lon="0.03854517">
        <ele>247.0</ele>
        <time>2018-06-10T05:59:56.000Z</time>
      </trkpt>
      <trkpt lat="38.70383467" lon="0.0385455">
        <ele>247.0</ele>
        <time>2018-06-10T05:59:57.000Z</time>
      </trkpt>
      <trkpt lat="38.703875" lon="0.03854533">
        <ele>248.0</ele>
        <time>2018-06-10T05:59:58.000Z</time>
      </trkpt>
      <trkpt lat="38.70391617" lon="0.03854533">
        <ele>248.0</ele>
        <time>2018-06-10T05:59:59.000Z</time>
      </trkpt>
      <trkpt lat="38.703958" lon="0.038546">
        <ele>249.0</ele>
        <time>2018-06-10T06:00:00.000Z</time>
      </trkpt>
      <trkpt lat="38.70399983" lon="0.03854667">
        <ele>249.0</ele>
        <time>2018-06-10T06:00:01.000Z</time>
      </trkpt>
      <trkpt lat="38.70404133" lon="0.03854733">
        <ele>249.0</ele>
        <time>2018-06-10T06:00:02.000Z</time>
      </trkpt>
      <trkpt lat="38.70408233" lon="0.03854767">
        <ele>250.0</ele>
        <time>2018-06-10T06:00:03.000Z</time>
      </trkpt>
      <trkpt lat="38.70412317" lon="0.038546">
        <ele>250.0</ele>
        <time>2018-06-10T06:00:04.000Z</time>
      </trkpt>
      <trkpt lat="38.70416417" lon="0.03854283">
        <ele>250.0</ele>
        <time>2018-06-10T06:00:05.000Z</time>
      </trkpt>
      <trkpt lat="38.70420583" lon="0.03853967">
        <ele>250.0</ele>
        <time>2018-06-10T06:00:06.000Z</time>
      </trkpt>
      <trkpt lat="38.704248" lon="0.0385365">
        <ele>250.0</ele>
        <time>2018-06-10T06:00:07.000Z</time>
      </trkpt>
      <trkpt lat="38.70429017" lon="0.03853233">
        <ele>250.0</ele>
        <time>2018-06-10T06:00:08.000Z</time>
      </trkpt>
      <trkpt lat="38.70433167" lon="0.03852533">
        <ele>250.0</ele>
        <time>2018-06-10T06:00:09.000Z</time>
      </trkpt>
      <trkpt lat="38.704372" lon="0.03851583">
        <ele>250.0</ele>
        <time>2018-06-10T06:00:10.000Z</time>
      </trkpt>
      <trkpt lat="38.70441133" lon="0.03850283">
        <ele>250.0</ele>
        <time>2018-06-10T06:00:11.000Z</time>
      </trkpt>
      <trkpt lat="38.70445" lon="0.038487">
        <ele>250.0</ele>
        <time>2018-06-10T06:00:12.000Z</time>
      </trkpt>
      <trkpt lat="38.70448867" lon="0.03846967">
        <ele>250.0</ele>
        <time>2018-06-10T06:00:13.000Z</time>
      </trkpt>
      <trkpt lat="38.704526" lon="0.03844983">
        <ele>250.0</ele>
        <time>2018-06-10T06:00:14.000Z</time>
      </trkpt>
      <trkpt lat="38.70456267" lon="0.03842767">
        <ele>250.0</ele>
        <time>2018-06-10T06:00:15.000Z</time>
      </trkpt>
      <trkpt lat="38.70459817" lon="0.03840233">
        <ele>250.0</ele>
        <time>2018-06-10T06:00:16.000Z</time>
      </trkpt>
      <trkpt lat="38.70463317" lon="0.03837567">
        <ele>250.0</ele>
        <time>2018-06-10T06:00:17.000Z</time>
      </trkpt>
      <trkpt lat="38.70466767" lon="0.038347">
        <ele>250.0</ele>
        <time>2018-06-10T06:00:18.000Z</time>
      </trkpt>
      <trkpt lat="38.70470067" lon="0.03831583">
        <ele>250.0</ele>
        <time>2018-06-10T06:00:19.000Z</time>
      </trkpt>
      <trkpt lat="38.70473267" lon="0.038283">
        <ele>250.0</ele>
        <time>2018-06-10T06:00:20.000Z</time>
      </trkpt>
      <trkpt lat="38.70476333" lon="0.03824617">
        <ele>250.0</ele>
        <time>2018-06-10T06:00:21.000Z</time>
      </trkpt>
      <trkpt lat="38.7047935" lon="0.03820767">
        <ele>250.0</ele>
        <time>2018-06-10T06:00:22.000Z</time>
      </trkpt>
      <trkpt lat="38.7048235" lon="0.03816717">
        <ele>250.0</ele>
        <time>2018-06-10T06:00:23.000Z</time>
      </trkpt>
      <trkpt lat="38.70485333" lon="0.03812617">
        <ele>250.0</ele>
        <time>2018-06-10T06:00:24.000Z</time>
      </trkpt>
      <trkpt lat="38.704883" lon="0.03808417">
        <ele>251.0</ele>
        <time>2018-06-10T06:00:25.000Z</time>
      </trkpt>
      <trkpt lat="38.70491267" lon="0.03804133">
        <ele>251.0</ele>
        <time>2018-06-10T06:00:26.000Z</time>
      </trkpt>
      <trkpt lat="38.70494217" lon="0.03799867">
        <ele>251.0</ele>
        <time>2018-06-10T06:00:27.000Z</time>
      </trkpt>
      <trkpt lat="38.70497117" lon="0.03795667">
        <ele>251.0</ele>
        <time>2018-06-10T06:00:28.000Z</time>
      </trkpt>
      <trkpt lat="38.70499983" lon="0.03791517">
        <ele>252.0</ele>
        <time>2018-06-10T06:00:29.000Z</time>
      </trkpt>
      <trkpt lat="38.705029" lon="0.03787483">
        <ele>252.0</ele>
        <time>2018-06-10T06:00:30.000Z</time>
      </trkpt>
      <trkpt lat="38.70505917" lon="0.0378355">
        <ele>252.0</ele>
        <time>2018-06-10T06:00:31.000Z</time>
      </trkpt>
      <trkpt lat="38.70509" lon="0.037798">
        <ele>253.0</ele>
        <time>2018-06-10T06:00:32.000Z</time>
      </trkpt>
      <trkpt lat="38.70512083" lon="0.037761">
        <ele>253.0</ele>
        <time>2018-06-10T06:00:33.000Z</time>
      </trkpt>
      <trkpt lat="38.705152" lon="0.03772483">
        <ele>253.0</ele>
        <time>2018-06-10T06:00:34.000Z</time>
      </trkpt>
      <trkpt lat="38.70518417" lon="0.03769017">
        <ele>254.0</ele>
        <time>2018-06-10T06:00:35.000Z</time>
      </trkpt>
      <trkpt lat="38.70521767" lon="0.03765767">
        <ele>254.0</ele>
        <time>2018-06-10T06:00:36.000Z</time>
      </trkpt>
      <trkpt lat="38.70525183" lon="0.037628">
        <ele>254.0</ele>
        <time>2018-06-10T06:00:37.000Z</time>
      </trkpt>
      <trkpt lat="38.70528683" lon="0.03760133">
        <ele>254.0</ele>
        <time>2018-06-10T06:00:38.000Z</time>
      </trkpt>
      <trkpt lat="38.70532317" lon="0.0375775">
        <ele>254.0</ele>
        <time>2018-06-10T06:00:39.000Z</time>
      </trkpt>
      <trkpt lat="38.70536017" lon="0.03755667">
        <ele>255.0</ele>
        <time>2018-06-10T06:00:40.000Z</time>
      </trkpt>
      <trkpt lat="38.70539883" lon="0.03753883">
        <ele>255.0</ele>
        <time>2018-06-10T06:00:41.000Z</time>
      </trkpt>
      <trkpt lat="38.70543783" lon="0.0375235">
        <ele>255.0</ele>
        <time>2018-06-10T06:00:42.000Z</time>
      </trkpt>
      <trkpt lat="38.7054785" lon="0.03751217">
        <ele>255.0</ele>
        <time>2018-06-10T06:00:43.000Z</time>
      </trkpt>
      <trkpt lat="38.70551983" lon="0.03750417">
        <ele>255.0</ele>
        <time>2018-06-10T06:00:44.000Z</time>
      </trkpt>
      <trkpt lat="38.70556133" lon="0.03749933">
        <ele>256.0</ele>
        <time>2018-06-10T06:00:45.000Z</time>
      </trkpt>
      <trkpt lat="38.70560283" lon="0.03749683">
        <ele>256.0</ele>
        <time>2018-06-10T06:00:46.000Z</time>
      </trkpt>
      <trkpt lat="38.705645" lon="0.03749617">
        <ele>256.0</ele>
        <time>2018-06-10T06:00:47.000Z</time>
      </trkpt>
      <trkpt lat="38.70568783" lon="0.0374985">
        <ele>256.0</ele>
        <time>2018-06-10T06:00:48.000Z</time>
      </trkpt>
      <trkpt lat="38.705731" lon="0.03750267">
        <ele>256.0</ele>
        <time>2018-06-10T06:00:49.000Z</time>
      </trkpt>
      <trkpt lat="38.705774" lon="0.03750817">
        <ele>256.0</ele>
        <time>2018-06-10T06:00:50.000Z</time>
      </trkpt>
      <trkpt lat="38.7058175" lon="0.03751567">
        <ele>256.0</ele>
        <time>2018-06-10T06:00:51.000Z</time>
      </trkpt>
      <trkpt lat="38.70586183" lon="0.037525">
        <ele>256.0</ele>
        <time>2018-06-10T06:00:52.000Z</time>
      </trkpt>
      <trkpt lat="38.7059065" lon="0.03753683">
        <ele>257.0</ele>
        <time>2018-06-10T06:00:53.000Z</time>
      </trkpt>
      <trkpt lat="38.7059515" lon="0.03754967">
        <ele>257.0</ele>
        <time>2018-06-10T06:00:54.000Z</time>
      </trkpt>
      <trkpt lat="38.70599633" lon="0.03756417">
        <ele>257.0</ele>
        <time>2018-06-10T06:00:55.000Z</time>
      </trkpt>
      <trkpt lat="38.70604133" lon="0.03757933">
        <ele>258.0</ele>
        <time>2018-06-10T06:00:56.000Z</time>
      </trkpt>
      <trkpt lat="38.7060865" lon="0.0375945">
        <ele>258.0</ele>
        <time>2018-06-10T06:00:57.000Z</time>
      </trkpt>
      <trkpt lat="38.706132" lon="0.03760917">
        <ele>258.0</ele>
        <time>2018-06-10T06:00:58.000Z</time>
      </trkpt>
      <trkpt lat="38.70617817" lon="0.037625">
        <ele>258.0</ele>
        <time>2018-06-10T06:00:59.000Z</time>
      </trkpt>
      <trkpt lat="38.7062245" lon="0.03764217">
        <ele>258.0</ele>
        <time>2018-06-10T06:01:00.000Z</time>
      </trkpt>
      <trkpt lat="38.70627033" lon="0.037659">
        <ele>258.0</ele>
        <time>2018-06-10T06:01:01.000Z</time>
      </trkpt>
      <trkpt lat="38.706316" lon="0.037675">
        <ele>258.0</ele>
        <time>2018-06-10T06:01:02.000Z</time>
      </trkpt>
      <trkpt lat="38.7063615" lon="0.0376905">
        <ele>258.0</ele>
        <time>2018-06-10T06:01:03.000Z</time>
      </trkpt>
      <trkpt lat="38.7064075" lon="0.0377065">
        <ele>259.0</ele>
        <time>2018-06-10T06:01:04.000Z</time>
      </trkpt>
      <trkpt lat="38.70645367" lon="0.03772233">
        <ele>259.0</ele>
        <time>2018-06-10T06:01:05.000Z</time>
      </trkpt>
      <trkpt lat="38.70650017" lon="0.03773817">
        <ele>259.0</ele>
        <time>2018-06-10T06:01:06.000Z</time>
      </trkpt>
      <trkpt lat="38.70654667" lon="0.03775333">
        <ele>259.0</ele>
        <time>2018-06-10T06:01:07.000Z</time>
      </trkpt>
      <trkpt lat="38.70659283" lon="0.037768">
        <ele>259.0</ele>
        <time>2018-06-10T06:01:08.000Z</time>
      </trkpt>
      <trkpt lat="38.70663867" lon="0.03778233">
        <ele>259.0</ele>
        <time>2018-06-10T06:01:09.000Z</time>
      </trkpt>
      <trkpt lat="38.7066845" lon="0.037797">
        <ele>259.0</ele>
        <time>2018-06-10T06:01:10.000Z</time>
      </trkpt>
      <trkpt lat="38.70673" lon="0.037813">
        <ele>260.0</ele>
        <time>2018-06-10T06:01:11.000Z</time>
      </trkpt>
      <trkpt lat="38.7067755" lon="0.0378295">
        <ele>260.0</ele>
        <time>2018-06-10T06:01:12.000Z</time>
      </trkpt>
      <trkpt lat="38.7068205" lon="0.03784667">
        <ele>260.0</ele>
        <time>2018-06-10T06:01:13.000Z</time>
      </trkpt>
      <trkpt lat="38.7068655" lon="0.0378635">
        <ele>260.0</ele>
        <time>2018-06-10T06:01:14.000Z</time>
      </trkpt>
      <trkpt lat="38.70691033" lon="0.03788083">
        <ele>260.0</ele>
        <time>2018-06-10T06:01:15.000Z</time>
      </trkpt>
      <trkpt lat="38.70695533" lon="0.0379">
        <ele>260.0</ele>
        <time>2018-06-10T06:01:16.000Z</time>
      </trkpt>
      <trkpt lat="38.70700067" lon="0.03792117">
        <ele>260.0</ele>
        <time>2018-06-10T06:01:17.000Z</time>
      </trkpt>
      <trkpt lat="38.7070465" lon="0.037944">
        <ele>260.0</ele>
        <time>2018-06-10T06:01:18.000Z</time>
      </trkpt>
      <trkpt lat="38.70709283" lon="0.03796817">
        <ele>260.0</ele>
        <time>2018-06-10T06:01:19.000Z</time>
      </trkpt>
      <trkpt lat="38.70713933" lon="0.037995">
        <ele>260.0</ele>
        <time>2018-06-10T06:01:20.000Z</time>
      </trkpt>
      <trkpt lat="38.7071855" lon="0.03802467">
        <ele>260.0</ele>
        <time>2018-06-10T06:01:21.000Z</time>
      </trkpt>
      <trkpt lat="38.707231" lon="0.03805617">
        <ele>260.0</ele>
        <time>2018-06-10T06:01:22.000Z</time>
      </trkpt>
      <trkpt lat="38.70727567" lon="0.03808833">
        <ele>260.0</ele>
        <time>2018-06-10T06:01:23.000Z</time>
      </trkpt>
      <trkpt lat="38.70732" lon="0.0381205">
        <ele>260.0</ele>
        <time>2018-06-10T06:01:24.000Z</time>
      </trkpt>
      <trkpt lat="38.70736367" lon="0.0381525">
        <ele>261.0</ele>
        <time>2018-06-10T06:01:25.000Z</time>
      </trkpt>
      <trkpt lat="38.7074065" lon="0.038184">
        <ele>261.0</ele>
        <time>2018-06-10T06:01:26.000Z</time>
      </trkpt>
      <trkpt lat="38.70744833" lon="0.038215">
        <ele>261.0</ele>
        <time>2018-06-10T06:01:27.000Z</time>
      </trkpt>
      <trkpt lat="38.70748933" lon="0.03824517">
        <ele>262.0</ele>
        <time>2018-06-10T06:01:28.000Z</time>
      </trkpt>
      <trkpt lat="38.70752933" lon="0.03827433">
        <ele>262.0</ele>
        <time>2018-06-10T06:01:29.000Z</time>
      </trkpt>
      <trkpt lat="38.70756883" lon="0.0383025">
        <ele>262.0</ele>
        <time>2018-06-10T06:01:30.000Z</time>
      </trkpt>
      <trkpt lat="38.70760783" lon="0.03832983">
        <ele>262.0</ele>
        <time>2018-06-10T06:01:31.000Z</time>
      </trkpt>
      <trkpt lat="38.70764717" lon="0.0383555">
        <ele>263.0</ele>
        <time>2018-06-10T06:01:32.000Z</time>
      </trkpt>
      <trkpt lat="38.70768733" lon="0.03837933">
        <ele>263.0</ele>
        <time>2018-06-10T06:01:33.000Z</time>
      </trkpt>
      <trkpt lat="38.7077285" lon="0.03840133">
        <ele>263.0</ele>
        <time>2018-06-10T06:01:34.000Z</time>
      </trkpt>
      <trkpt lat="38.7077705" lon="0.0384215">
        <ele>263.0</ele>
        <time>2018-06-10T06:01:35.000Z</time>
      </trkpt>
      <trkpt lat="38.70781317" lon="0.03844">
        <ele>264.0</ele>
        <time>2018-06-10T06:01:36.000Z</time>
      </trkpt>
      <trkpt lat="38.707856" lon="0.038457">
        <ele>264.0</ele>
        <time>2018-06-10T06:01:37.000Z</time>
      </trkpt>
      <trkpt lat="38.70789817" lon="0.0384715">
        <ele>264.0</ele>
        <time>2018-06-10T06:01:38.000Z</time>
      </trkpt>
      <trkpt lat="38.70794067" lon="0.03848383">
        <ele>264.0</ele>
        <time>2018-06-10T06:01:39.000Z</time>
      </trkpt>
      <trkpt lat="38.70798617" lon="0.03849167">
        <ele>264.0</ele>
        <time>2018-06-10T06:01:40.000Z</time>
      </trkpt>
      <trkpt lat="38.7080335" lon="0.03849583">
        <ele>264.0</ele>
        <time>2018-06-10T06:01:41.000Z</time>
      </trkpt>
      <trkpt lat="38.70808183" lon="0.0384965">
        <ele>264.0</ele>
        <time>2018-06-10T06:01:42.000Z</time>
      </trkpt>
      <trkpt lat="38.70812917" lon="0.03849633">
        <ele>264.0</ele>
        <time>2018-06-10T06:01:43.000Z</time>
      </trkpt>
      <trkpt lat="38.70817717" lon="0.0384955">
        <ele>264.0</ele>
        <time>2018-06-10T06:01:44.000Z</time>
      </trkpt>
      <trkpt lat="38.7082255" lon="0.03849317">
        <ele>264.0</ele>
        <time>2018-06-10T06:01:45.000Z</time>
      </trkpt>
      <trkpt lat="38.70827417" lon="0.03848933">
        <ele>264.0</ele>
        <time>2018-06-10T06:01:46.000Z</time>
      </trkpt>
      <trkpt lat="38.70832333" lon="0.03848517">
        <ele>264.0</ele>
        <time>2018-06-10T06:01:47.000Z</time>
      </trkpt>
      <trkpt lat="38.708373" lon="0.03848133">
        <ele>264.0</ele>
        <time>2018-06-10T06:01:48.000Z</time>
      </trkpt>
      <trkpt lat="38.70842267" lon="0.0384775">
        <ele>265.0</ele>
        <time>2018-06-10T06:01:49.000Z</time>
      </trkpt>
      <trkpt lat="38.70847233" lon="0.03847383">
        <ele>265.0</ele>
        <time>2018-06-10T06:01:50.000Z</time>
      </trkpt>
      <trkpt lat="38.70852167" lon="0.0384705">
        <ele>265.0</ele>
        <time>2018-06-10T06:01:51.000Z</time>
      </trkpt>
      <trkpt lat="38.70857133" lon="0.038467">
        <ele>264.0</ele>
        <time>2018-06-10T06:01:52.000Z</time>
      </trkpt>
      <trkpt lat="38.70862133" lon="0.03846267">
        <ele>264.0</ele>
        <time>2018-06-10T06:01:53.000Z</time>
      </trkpt>
      <trkpt lat="38.70867167" lon="0.038458">
        <ele>264.0</ele>
        <time>2018-06-10T06:01:54.000Z</time>
      </trkpt>
      <trkpt lat="38.70872167" lon="0.03845283">
        <ele>265.0</ele>
        <time>2018-06-10T06:01:55.000Z</time>
      </trkpt>
      <trkpt lat="38.70877117" lon="0.038448">
        <ele>265.0</ele>
        <time>2018-06-10T06:01:56.000Z</time>
      </trkpt>
      <trkpt lat="38.70882083" lon="0.03844317">
        <ele>265.0</ele>
        <time>2018-06-10T06:01:57.000Z</time>
      </trkpt>
      <trkpt lat="38.70887083" lon="0.0384385">
        <ele>265.0</ele>
        <time>2018-06-10T06:01:58.000Z</time>
      </trkpt>
      <trkpt lat="38.70892133" lon="0.038434">
        <ele>265.0</ele>
        <time>2018-06-10T06:01:59.000Z</time>
      </trkpt>
      <trkpt lat="38.70897233" lon="0.03842933">
        <ele>265.0</ele>
        <time>2018-06-10T06:02:00.000Z</time>
      </trkpt>
      <trkpt lat="38.70902367" lon="0.03842517">
        <ele>265.0</ele>
        <time>2018-06-10T06:02:01.000Z</time>
      </trkpt>
      <trkpt lat="38.70907533" lon="0.0384215">
        <ele>265.0</ele>
        <time>2018-06-10T06:02:02.000Z</time>
      </trkpt>
      <trkpt lat="38.709128" lon="0.03842">
        <ele>265.0</ele>
        <time>2018-06-10T06:02:03.000Z</time>
      </trkpt>
      <trkpt lat="38.709181" lon="0.0384205">
        <ele>265.0</ele>
        <time>2018-06-10T06:02:04.000Z</time>
      </trkpt>
      <trkpt lat="38.70923433" lon="0.03842383">
        <ele>265.0</ele>
        <time>2018-06-10T06:02:05.000Z</time>
      </trkpt>
      <trkpt lat="38.7092875" lon="0.03843183">
        <ele>265.0</ele>
        <time>2018-06-10T06:02:06.000Z</time>
      </trkpt>
      <trkpt lat="38.70933983" lon="0.038446">
        <ele>266.0</ele>
        <time>2018-06-10T06:02:07.000Z</time>
      </trkpt>
      <trkpt lat="38.709391" lon="0.03846583">
        <ele>266.0</ele>
        <time>2018-06-10T06:02:08.000Z</time>
      </trkpt>
      <trkpt lat="38.70944067" lon="0.03848967">
        <ele>266.0</ele>
        <time>2018-06-10T06:02:09.000Z</time>
      </trkpt>
      <trkpt lat="38.709489" lon="0.03851683">
        <ele>266.0</ele>
        <time>2018-06-10T06:02:10.000Z</time>
      </trkpt>
      <trkpt lat="38.70953583" lon="0.03854683">
        <ele>266.0</ele>
        <time>2018-06-10T06:02:11.000Z</time>
      </trkpt>
      <trkpt lat="38.70958117" lon="0.03857967">
        <ele>267.0</ele>
        <time>2018-06-10T06:02:12.000Z</time>
      </trkpt>
      <trkpt lat="38.70962467" lon="0.0386145">
        <ele>267.0</ele>
        <time>2018-06-10T06:02:13.000Z</time>
      </trkpt>
      <trkpt lat="38.70966633" lon="0.03865133">
        <ele>267.0</ele>
        <time>2018-06-10T06:02:14.000Z</time>
      </trkpt>
      <trkpt lat="38.70970667" lon="0.03869133">
        <ele>267.0</ele>
        <time>2018-06-10T06:02:15.000Z</time>
      </trkpt>
      <trkpt lat="38.70974617" lon="0.0387345">
        <ele>268.0</ele>
        <time>2018-06-10T06:02:16.000Z</time>
      </trkpt>
      <trkpt lat="38.70978483" lon="0.038779">
        <ele>268.0</ele>
        <time>2018-06-10T06:02:17.000Z</time>
      </trkpt>
      <trkpt lat="38.7098225" lon="0.03882317">
        <ele>268.0</ele>
        <time>2018-06-10T06:02:18.000Z</time>
      </trkpt>
      <trkpt lat="38.7098605" lon="0.03886667">
        <ele>268.0</ele>
        <time>2018-06-10T06:02:19.000Z</time>
      </trkpt>
      <trkpt lat="38.70989867" lon="0.03891067">
        <ele>268.0</ele>
        <time>2018-06-10T06:02:20.000Z</time>
      </trkpt>
      <trkpt lat="38.709937" lon="0.03895483">
        <ele>269.0</ele>
        <time>2018-06-10T06:02:21.000Z</time>
      </trkpt>
      <trkpt lat="38.70997433" lon="0.03899867">
        <ele>269.0</ele>
        <time>2018-06-10T06:02:22.000Z</time>
      </trkpt>
      <trkpt lat="38.71001017" lon="0.0390425">
        <ele>269.0</ele>
        <time>2018-06-10T06:02:23.000Z</time>
      </trkpt>
      <trkpt lat="38.71004517" lon="0.03908633">
        <ele>269.0</ele>
        <time>2018-06-10T06:02:24.000Z</time>
      </trkpt>
      <trkpt lat="38.71008033" lon="0.03913117">
        <ele>269.0</ele>
        <time>2018-06-10T06:02:25.000Z</time>
      </trkpt>
      <trkpt lat="38.710115" lon="0.039176">
        <ele>269.0</ele>
        <time>2018-06-10T06:02:26.000Z</time>
      </trkpt>
      <trkpt lat="38.71015017" lon="0.03922133">
        <ele>270.0</ele>
        <time>2018-06-10T06:02:27.000Z</time>
      </trkpt>
      <trkpt lat="38.71018533" lon="0.03926683">
        <ele>270.0</ele>
        <time>2018-06-10T06:02:28.000Z</time>
      </trkpt>
      <trkpt lat="38.7102215" lon="0.039312">
        <ele>270.0</ele>
        <time>2018-06-10T06:02:29.000Z</time>
      </trkpt>
      <trkpt lat="38.71025767" lon="0.03935667">
        <ele>270.0</ele>
        <time>2018-06-10T06:02:30.000Z</time>
      </trkpt>
      <trkpt lat="38.71029383" lon="0.03940083">
        <ele>270.0</ele>
        <time>2018-06-10T06:02:31.000Z</time>
      </trkpt>
      <trkpt lat="38.71032967" lon="0.039445">
        <ele>270.0</ele>
        <time>2018-06-10T06:02:32.000Z</time>
      </trkpt>
      <trkpt lat="38.71036533" lon="0.03948917">
        <ele>271.0</ele>
        <time>2018-06-10T06:02:33.000Z</time>
      </trkpt>
      <trkpt lat="38.71040133" lon="0.03953317">
        <ele>271.0</ele>
        <time>2018-06-10T06:02:34.000Z</time>
      </trkpt>
      <trkpt lat="38.71043783" lon="0.03957717">
        <ele>271.0</ele>
        <time>2018-06-10T06:02:35.000Z</time>
      </trkpt>
      <trkpt lat="38.71047483" lon="0.03962117">
        <ele>271.0</ele>
        <time>2018-06-10T06:02:36.000Z</time>
      </trkpt>
      <trkpt lat="38.71051167" lon="0.03966517">
        <ele>271.0</ele>
        <time>2018-06-10T06:02:37.000Z</time>
      </trkpt>
      <trkpt lat="38.7105485" lon="0.03970933">
        <ele>271.0</ele>
        <time>2018-06-10T06:02:38.000Z</time>
      </trkpt>
      <trkpt lat="38.710585" lon="0.039755">
        <ele>271.0</ele>
        <time>2018-06-10T06:02:39.000Z</time>
      </trkpt>
      <trkpt lat="38.71062117" lon="0.03980117">
        <ele>271.0</ele>
        <time>2018-06-10T06:02:40.000Z</time>
      </trkpt>
      <trkpt lat="38.710657" lon="0.03984683">
        <ele>272.0</ele>
        <time>2018-06-10T06:02:41.000Z</time>
      </trkpt>
      <trkpt lat="38.71069367" lon="0.03989117">
        <ele>272.0</ele>
        <time>2018-06-10T06:02:42.000Z</time>
      </trkpt>
      <trkpt lat="38.71073033" lon="0.039935">
        <ele>272.0</ele>
        <time>2018-06-10T06:02:43.000Z</time>
      </trkpt>
      <trkpt lat="38.71076767" lon="0.03997967">
        <ele>272.0</ele>
        <time>2018-06-10T06:02:44.000Z</time>
      </trkpt>
      <trkpt lat="38.71080467" lon="0.0400245">
        <ele>272.0</ele>
        <time>2018-06-10T06:02:45.000Z</time>
      </trkpt>
      <trkpt lat="38.71084217" lon="0.04007">
        <ele>272.0</ele>
        <time>2018-06-10T06:02:46.000Z</time>
      </trkpt>
      <trkpt lat="38.71087883" lon="0.04011517">
        <ele>272.0</ele>
        <time>2018-06-10T06:02:47.000Z</time>
      </trkpt>
      <trkpt lat="38.7109155" lon="0.04016167">
        <ele>272.0</ele>
        <time>2018-06-10T06:02:48.000Z</time>
      </trkpt>
      <trkpt lat="38.71095133" lon="0.04020767">
        <ele>273.0</ele>
        <time>2018-06-10T06:02:49.000Z</time>
      </trkpt>
      <trkpt lat="38.71098783" lon="0.04025333">
        <ele>273.0</ele>
        <time>2018-06-10T06:02:50.000Z</time>
      </trkpt>
      <trkpt lat="38.711024" lon="0.04029783">
        <ele>273.0</ele>
        <time>2018-06-10T06:02:51.000Z</time>
      </trkpt>
      <trkpt lat="38.71106017" lon="0.0403425">
        <ele>273.0</ele>
        <time>2018-06-10T06:02:52.000Z</time>
      </trkpt>
      <trkpt lat="38.71109517" lon="0.04038667">
        <ele>273.0</ele>
        <time>2018-06-10T06:02:53.000Z</time>
      </trkpt>
      <trkpt lat="38.71113067" lon="0.0404315">
        <ele>273.0</ele>
        <time>2018-06-10T06:02:54.000Z</time>
      </trkpt>
      <trkpt lat="38.71116667" lon="0.040475">
        <ele>273.0</ele>
        <time>2018-06-10T06:02:55.000Z</time>
      </trkpt>
      <trkpt lat="38.71120367" lon="0.04051933">
        <ele>273.0</ele>
        <time>2018-06-10T06:02:56.000Z</time>
      </trkpt>
      <trkpt lat="38.71124" lon="0.0405635">
        <ele>273.0</ele>
        <time>2018-06-10T06:02:57.000Z</time>
      </trkpt>
      <trkpt lat="38.71127517" lon="0.04060967">
        <ele>273.0</ele>
        <time>2018-06-10T06:02:58.000Z</time>
      </trkpt>
      <trkpt lat="38.7113095" lon="0.04065633">
        <ele>274.0</ele>
        <time>2018-06-10T06:02:59.000Z</time>
      </trkpt>
      <trkpt lat="38.71134333" lon="0.04070383">
        <ele>274.0</ele>
        <time>2018-06-10T06:03:00.000Z</time>
      </trkpt>
      <trkpt lat="38.71137733" lon="0.040752">
        <ele>274.0</ele>
        <time>2018-06-10T06:03:01.000Z</time>
      </trkpt>
      <trkpt lat="38.71141033" lon="0.04080117">
        <ele>274.0</ele>
        <time>2018-06-10T06:03:02.000Z</time>
      </trkpt>
      <trkpt lat="38.71144233" lon="0.0408525">
        <ele>274.0</ele>
        <time>2018-06-10T06:03:03.000Z</time>
      </trkpt>
      <trkpt lat="38.71147283" lon="0.040906">
        <ele>274.0</ele>
        <time>2018-06-10T06:03:04.000Z</time>
      </trkpt>
      <trkpt lat="38.71150183" lon="0.0409635">
        <ele>274.0</ele>
        <time>2018-06-10T06:03:05.000Z</time>
      </trkpt>
      <trkpt lat="38.71152883" lon="0.04102333">
        <ele>275.0</ele>
        <time>2018-06-10T06:03:06.000Z</time>
      </trkpt>
      <trkpt lat="38.71155467" lon="0.0410845">
        <ele>275.0</ele>
        <time>2018-06-10T06:03:07.000Z</time>
      </trkpt>
      <trkpt lat="38.71157933" lon="0.04114533">
        <ele>275.0</ele>
        <time>2018-06-10T06:03:08.000Z</time>
      </trkpt>
      <trkpt lat="38.71160483" lon="0.04120617">
        <ele>275.0</ele>
        <time>2018-06-10T06:03:09.000Z</time>
      </trkpt>
      <trkpt lat="38.71163" lon="0.04126733">
        <ele>275.0</ele>
        <time>2018-06-10T06:03:10.000Z</time>
      </trkpt>
      <trkpt lat="38.71165517" lon="0.041329">
        <ele>275.0</ele>
        <time>2018-06-10T06:03:11.000Z</time>
      </trkpt>
      <trkpt lat="38.711679" lon="0.04139083">
        <ele>276.0</ele>
        <time>2018-06-10T06:03:12.000Z</time>
      </trkpt>
      <trkpt lat="38.71170317" lon="0.04145267">
        <ele>276.0</ele>
        <time>2018-06-10T06:03:13.000Z</time>
      </trkpt>
      <trkpt lat="38.711727" lon="0.04151367">
        <ele>276.0</ele>
        <time>2018-06-10T06:03:14.000Z</time>
      </trkpt>
      <trkpt lat="38.71175067" lon="0.0415735">
        <ele>276.0</ele>
        <time>2018-06-10T06:03:15.000Z</time>
      </trkpt>
      <trkpt lat="38.71177317" lon="0.041632">
        <ele>275.0</ele>
        <time>2018-06-10T06:03:16.000Z</time>
      </trkpt>
      <trkpt lat="38.71179617" lon="0.04169">
        <ele>276.0</ele>
        <time>2018-06-10T06:03:17.000Z</time>
      </trkpt>
      <trkpt lat="38.71181917" lon="0.04174833">
        <ele>276.0</ele>
        <time>2018-06-10T06:03:18.000Z</time>
      </trkpt>
      <trkpt lat="38.7118435" lon="0.041808">
        <ele>276.0</ele>
        <time>2018-06-10T06:03:19.000Z</time>
      </trkpt>
      <trkpt lat="38.71186867" lon="0.0418675">
        <ele>277.0</ele>
        <time>2018-06-10T06:03:20.000Z</time>
      </trkpt>
      <trkpt lat="38.7118935" lon="0.04192683">
        <ele>276.0</ele>
        <time>2018-06-10T06:03:21.000Z</time>
      </trkpt>
      <trkpt lat="38.711917" lon="0.04198483">
        <ele>276.0</ele>
        <time>2018-06-10T06:03:22.000Z</time>
      </trkpt>
      <trkpt lat="38.71193933" lon="0.042041">
        <ele>276.0</ele>
        <time>2018-06-10T06:03:23.000Z</time>
      </trkpt>
      <trkpt lat="38.711961" lon="0.04209633">
        <ele>276.0</ele>
        <time>2018-06-10T06:03:24.000Z</time>
      </trkpt>
      <trkpt lat="38.7119815" lon="0.04215017">
        <ele>276.0</ele>
        <time>2018-06-10T06:03:25.000Z</time>
      </trkpt>
      <trkpt lat="38.7120015" lon="0.04220283">
        <ele>276.0</ele>
        <time>2018-06-10T06:03:26.000Z</time>
      </trkpt>
      <trkpt lat="38.71202033" lon="0.04225283">
        <ele>276.0</ele>
        <time>2018-06-10T06:03:27.000Z</time>
      </trkpt>
      <trkpt lat="38.71203917" lon="0.04230133">
        <ele>276.0</ele>
        <time>2018-06-10T06:03:28.000Z</time>
      </trkpt>
      <trkpt lat="38.71205767" lon="0.04234883">
        <ele>276.0</ele>
        <time>2018-06-10T06:03:29.000Z</time>
      </trkpt>
      <trkpt lat="38.7120765" lon="0.042396">
        <ele>276.0</ele>
        <time>2018-06-10T06:03:30.000Z</time>
      </trkpt>
      <trkpt lat="38.7120945" lon="0.04244083">
        <ele>276.0</ele>
        <time>2018-06-10T06:03:31.000Z</time>
      </trkpt>
      <trkpt lat="38.71211117" lon="0.04248317">
        <ele>275.0</ele>
        <time>2018-06-10T06:03:32.000Z</time>
      </trkpt>
      <trkpt lat="38.712127" lon="0.04252283">
        <ele>275.0</ele>
        <time>2018-06-10T06:03:33.000Z</time>
      </trkpt>
      <trkpt lat="38.71214217" lon="0.04256183">
        <ele>275.0</ele>
        <time>2018-06-10T06:03:34.000Z</time>
      </trkpt>
      <trkpt lat="38.71215717" lon="0.04259983">
        <ele>275.0</ele>
        <time>2018-06-10T06:03:35.000Z</time>
      </trkpt>
      <trkpt lat="38.71217083" lon="0.04263467">
        <ele>275.0</ele>
        <time>2018-06-10T06:03:36.000Z</time>
      </trkpt>
      <trkpt lat="38.712183" lon="0.04266533">
        <ele>275.0</ele>
        <time>2018-06-10T06:03:37.000Z</time>
      </trkpt>
      <trkpt lat="38.71219367" lon="0.04268917">
        <ele>275.0</ele>
        <time>2018-06-10T06:03:38.000Z</time>
      </trkpt>
      <trkpt lat="38.7122035" lon="0.04270667">
        <ele>275.0</ele>
        <time>2018-06-10T06:03:39.000Z</time>
      </trkpt>
      <trkpt lat="38.71228317" lon="0.0427905">
        <ele>277.0</ele>
        <time>2018-06-10T06:03:40.094Z</time>
      </trkpt>
      <trkpt lat="38.71229783" lon="0.042818">
        <ele>277.0</ele>
        <time>2018-06-10T06:03:41.094Z</time>
      </trkpt>
      <trkpt lat="38.712313" lon="0.042851">
        <ele>277.0</ele>
        <time>2018-06-10T06:03:42.094Z</time>
      </trkpt>
      <trkpt lat="38.71232867" lon="0.04289083">
        <ele>276.0</ele>
        <time>2018-06-10T06:03:43.094Z</time>
      </trkpt>
      <trkpt lat="38.71234633" lon="0.04293783">
        <ele>276.0</ele>
        <time>2018-06-10T06:03:44.094Z</time>
      </trkpt>
      <trkpt lat="38.712365" lon="0.04299017">
        <ele>275.0</ele>
        <time>2018-06-10T06:03:45.094Z</time>
      </trkpt>
      <trkpt lat="38.712387" lon="0.04304733">
        <ele>275.0</ele>
        <time>2018-06-10T06:03:46.094Z</time>
      </trkpt>
      <trkpt lat="38.7124095" lon="0.043106">
        <ele>275.0</ele>
        <time>2018-06-10T06:03:47.094Z</time>
      </trkpt>
      <trkpt lat="38.712432" lon="0.04316633">
        <ele>275.0</ele>
        <time>2018-06-10T06:03:48.094Z</time>
      </trkpt>
      <trkpt lat="38.7124525" lon="0.04322667">
        <ele>275.0</ele>
        <time>2018-06-10T06:03:49.094Z</time>
      </trkpt>
      <trkpt lat="38.71247283" lon="0.0432875">
        <ele>275.0</ele>
        <time>2018-06-10T06:03:50.094Z</time>
      </trkpt>
      <trkpt lat="38.71249483" lon="0.04334883">
        <ele>274.0</ele>
        <time>2018-06-10T06:03:51.094Z</time>
      </trkpt>
      <trkpt lat="38.71251833" lon="0.04341183">
        <ele>275.0</ele>
        <time>2018-06-10T06:03:52.094Z</time>
      </trkpt>
      <trkpt lat="38.71254267" lon="0.04347567">
        <ele>275.0</ele>
        <time>2018-06-10T06:03:53.094Z</time>
      </trkpt>
      <trkpt lat="38.71256617" lon="0.04353883">
        <ele>275.0</ele>
        <time>2018-06-10T06:03:54.094Z</time>
      </trkpt>
      <trkpt lat="38.712591" lon="0.043603">
        <ele>276.0</ele>
        <time>2018-06-10T06:03:55.094Z</time>
      </trkpt>
      <trkpt lat="38.71261633" lon="0.04366833">
        <ele>276.0</ele>
        <time>2018-06-10T06:03:56.094Z</time>
      </trkpt>
      <trkpt lat="38.71264083" lon="0.04373517">
        <ele>276.0</ele>
        <time>2018-06-10T06:03:57.094Z</time>
      </trkpt>
      <trkpt lat="38.71266167" lon="0.04380033">
        <ele>276.0</ele>
        <time>2018-06-10T06:03:58.094Z</time>
      </trkpt>
      <trkpt lat="38.71267917" lon="0.04386433">
        <ele>276.0</ele>
        <time>2018-06-10T06:03:59.094Z</time>
      </trkpt>
      <trkpt lat="38.71269583" lon="0.043928">
        <ele>276.0</ele>
        <time>2018-06-10T06:04:00.094Z</time>
      </trkpt>
      <trkpt lat="38.71271367" lon="0.0439945">
        <ele>276.0</ele>
        <time>2018-06-10T06:04:01.094Z</time>
      </trkpt>
      <trkpt lat="38.71273283" lon="0.04406283">
        <ele>276.0</ele>
        <time>2018-06-10T06:04:02.094Z</time>
      </trkpt>
      <trkpt lat="38.71275383" lon="0.04413033">
        <ele>275.0</ele>
        <time>2018-06-10T06:04:03.094Z</time>
      </trkpt>
      <trkpt lat="38.712777" lon="0.04419633">
        <ele>276.0</ele>
        <time>2018-06-10T06:04:04.094Z</time>
      </trkpt>
      <trkpt lat="38.712799" lon="0.04426033">
        <ele>275.0</ele>
        <time>2018-06-10T06:04:05.094Z</time>
      </trkpt>
      <trkpt lat="38.71281567" lon="0.04432417">
        <ele>275.0</ele>
        <time>2018-06-10T06:04:06.094Z</time>
      </trkpt>
      <trkpt lat="38.712825" lon="0.04439067">
        <ele>276.0</ele>
        <time>2018-06-10T06:04:07.094Z</time>
      </trkpt>
      <trkpt lat="38.71283267" lon="0.044459">
        <ele>276.0</ele>
        <time>2018-06-10T06:04:08.094Z</time>
      </trkpt>
      <trkpt lat="38.71284433" lon="0.04453">
        <ele>275.0</ele>
        <time>2018-06-10T06:04:09.094Z</time>
      </trkpt>
      <trkpt lat="38.71286383" lon="0.0446005">
        <ele>276.0</ele>
        <time>2018-06-10T06:04:10.094Z</time>
      </trkpt>
      <trkpt lat="38.71288517" lon="0.044672">
        <ele>276.0</ele>
        <time>2018-06-10T06:04:11.094Z</time>
      </trkpt>
      <trkpt lat="38.712905" lon="0.04474267">
        <ele>276.0</ele>
        <time>2018-06-10T06:04:12.094Z</time>
      </trkpt>
      <trkpt lat="38.712921" lon="0.04481083">
        <ele>276.0</ele>
        <time>2018-06-10T06:04:13.094Z</time>
      </trkpt>
      <trkpt lat="38.71293717" lon="0.04487767">
        <ele>276.0</ele>
        <time>2018-06-10T06:04:14.094Z</time>
      </trkpt>
      <trkpt lat="38.71294833" lon="0.04494183">
        <ele>276.0</ele>
        <time>2018-06-10T06:04:15.094Z</time>
      </trkpt>
      <trkpt lat="38.71296033" lon="0.04500583">
        <ele>276.0</ele>
        <time>2018-06-10T06:04:16.094Z</time>
      </trkpt>
      <trkpt lat="38.7129825" lon="0.04507733">
        <ele>276.0</ele>
        <time>2018-06-10T06:04:17.094Z</time>
      </trkpt>
      <trkpt lat="38.71301467" lon="0.04515383">
        <ele>276.0</ele>
        <time>2018-06-10T06:04:18.094Z</time>
      </trkpt>
      <trkpt lat="38.713049" lon="0.04523167">
        <ele>276.0</ele>
        <time>2018-06-10T06:04:19.094Z</time>
      </trkpt>
      <trkpt lat="38.71307133" lon="0.04530433">
        <ele>275.0</ele>
        <time>2018-06-10T06:04:20.094Z</time>
      </trkpt>
      <trkpt lat="38.71308783" lon="0.045376">
        <ele>274.0</ele>
        <time>2018-06-10T06:04:21.094Z</time>
      </trkpt>
      <trkpt lat="38.7130985" lon="0.04544833">
        <ele>274.0</ele>
        <time>2018-06-10T06:04:22.094Z</time>
      </trkpt>
      <trkpt lat="38.71310733" lon="0.0455185">
        <ele>272.0</ele>
        <time>2018-06-10T06:04:23.094Z</time>
      </trkpt>
      <trkpt lat="38.71311617" lon="0.0455895">
        <ele>271.0</ele>
        <time>2018-06-10T06:04:24.094Z</time>
      </trkpt>
      <trkpt lat="38.71312467" lon="0.04566">
        <ele>270.0</ele>
        <time>2018-06-10T06:04:25.094Z</time>
      </trkpt>
      <trkpt lat="38.713136" lon="0.045731">
        <ele>269.0</ele>
        <time>2018-06-10T06:04:26.094Z</time>
      </trkpt>
      <trkpt lat="38.7131485" lon="0.04580183">
        <ele>269.0</ele>
        <time>2018-06-10T06:04:27.094Z</time>
      </trkpt>
      <trkpt lat="38.713163" lon="0.045873">
        <ele>270.0</ele>
        <time>2018-06-10T06:04:28.094Z</time>
      </trkpt>
      <trkpt lat="38.71318017" lon="0.0459465">
        <ele>270.0</ele>
        <time>2018-06-10T06:04:29.094Z</time>
      </trkpt>
      <trkpt lat="38.71320167" lon="0.04602267">
        <ele>270.0</ele>
        <time>2018-06-10T06:04:30.094Z</time>
      </trkpt>
      <trkpt lat="38.71322633" lon="0.04610017">
        <ele>271.0</ele>
        <time>2018-06-10T06:04:31.094Z</time>
      </trkpt>
      <trkpt lat="38.71324983" lon="0.04617967">
        <ele>271.0</ele>
        <time>2018-06-10T06:04:32.094Z</time>
      </trkpt>
      <trkpt lat="38.71326967" lon="0.04625617">
        <ele>271.0</ele>
        <time>2018-06-10T06:04:33.094Z</time>
      </trkpt>
      <trkpt lat="38.713286" lon="0.04632967">
        <ele>271.0</ele>
        <time>2018-06-10T06:04:34.094Z</time>
      </trkpt>
      <trkpt lat="38.71330167" lon="0.0464">
        <ele>271.0</ele>
        <time>2018-06-10T06:04:35.094Z</time>
      </trkpt>
      <trkpt lat="38.71331767" lon="0.04647183">
        <ele>271.0</ele>
        <time>2018-06-10T06:04:36.094Z</time>
      </trkpt>
      <trkpt lat="38.713339" lon="0.04655">
        <ele>271.0</ele>
        <time>2018-06-10T06:04:37.094Z</time>
      </trkpt>
      <trkpt lat="38.71335983" lon="0.04663233">
        <ele>272.0</ele>
        <time>2018-06-10T06:04:38.094Z</time>
      </trkpt>
      <trkpt lat="38.71338067" lon="0.04671617">
        <ele>271.0</ele>
        <time>2018-06-10T06:04:39.094Z</time>
      </trkpt>
      <trkpt lat="38.71339733" lon="0.04679717">
        <ele>271.0</ele>
        <time>2018-06-10T06:04:40.094Z</time>
      </trkpt>
      <trkpt lat="38.71341817" lon="0.04687833">
        <ele>271.0</ele>
        <time>2018-06-10T06:04:41.094Z</time>
      </trkpt>
      <trkpt lat="38.71343917" lon="0.0469585">
        <ele>271.0</ele>
        <time>2018-06-10T06:04:42.094Z</time>
      </trkpt>
      <trkpt lat="38.713464" lon="0.04704333">
        <ele>270.0</ele>
        <time>2018-06-10T06:04:43.094Z</time>
      </trkpt>
      <trkpt lat="38.7134925" lon="0.04713067">
        <ele>269.0</ele>
        <time>2018-06-10T06:04:44.094Z</time>
      </trkpt>
      <trkpt lat="38.71352217" lon="0.04721983">
        <ele>269.0</ele>
        <time>2018-06-10T06:04:45.094Z</time>
      </trkpt>
      <trkpt lat="38.71354883" lon="0.04730483">
        <ele>269.0</ele>
        <time>2018-06-10T06:04:46.094Z</time>
      </trkpt>
      <trkpt lat="38.7135705" lon="0.04739317">
        <ele>268.0</ele>
        <time>2018-06-10T06:04:47.094Z</time>
      </trkpt>
      <trkpt lat="38.71359533" lon="0.04748617">
        <ele>268.0</ele>
        <time>2018-06-10T06:04:48.094Z</time>
      </trkpt>
      <trkpt lat="38.71362167" lon="0.04758067">
        <ele>268.0</ele>
        <time>2018-06-10T06:04:49.094Z</time>
      </trkpt>
      <trkpt lat="38.71364833" lon="0.04767">
        <ele>268.0</ele>
        <time>2018-06-10T06:04:50.094Z</time>
      </trkpt>
      <trkpt lat="38.71367017" lon="0.0477545">
        <ele>267.0</ele>
        <time>2018-06-10T06:04:51.094Z</time>
      </trkpt>
      <trkpt lat="38.71368983" lon="0.04783783">
        <ele>267.0</ele>
        <time>2018-06-10T06:04:52.094Z</time>
      </trkpt>
      <trkpt lat="38.71370933" lon="0.04792017">
        <ele>267.0</ele>
        <time>2018-06-10T06:04:53.094Z</time>
      </trkpt>
      <trkpt lat="38.7137265" lon="0.04800117">
        <ele>266.0</ele>
        <time>2018-06-10T06:04:54.094Z</time>
      </trkpt>
      <trkpt lat="38.71374417" lon="0.04808233">
        <ele>266.0</ele>
        <time>2018-06-10T06:04:55.094Z</time>
      </trkpt>
      <trkpt lat="38.71376017" lon="0.04816467">
        <ele>265.0</ele>
        <time>2018-06-10T06:04:56.094Z</time>
      </trkpt>
      <trkpt lat="38.71378033" lon="0.04824883">
        <ele>265.0</ele>
        <time>2018-06-10T06:04:57.094Z</time>
      </trkpt>
      <trkpt lat="38.71380367" lon="0.048337">
        <ele>264.0</ele>
        <time>2018-06-10T06:04:58.094Z</time>
      </trkpt>
      <trkpt lat="38.71382767" lon="0.048427">
        <ele>263.0</ele>
        <time>2018-06-10T06:04:59.094Z</time>
      </trkpt>
      <trkpt lat="38.7138525" lon="0.0485185">
        <ele>263.0</ele>
        <time>2018-06-10T06:05:00.094Z</time>
      </trkpt>
      <trkpt lat="38.71387617" lon="0.04860867">
        <ele>263.0</ele>
        <time>2018-06-10T06:05:01.094Z</time>
      </trkpt>
      <trkpt lat="38.71389867" lon="0.04869733">
        <ele>262.0</ele>
        <time>2018-06-10T06:05:02.094Z</time>
      </trkpt>
      <trkpt lat="38.7139195" lon="0.04878533">
        <ele>262.0</ele>
        <time>2018-06-10T06:05:03.094Z</time>
      </trkpt>
      <trkpt lat="38.713939" lon="0.04887233">
        <ele>262.0</ele>
        <time>2018-06-10T06:05:04.094Z</time>
      </trkpt>
      <trkpt lat="38.71395983" lon="0.04895967">
        <ele>261.0</ele>
        <time>2018-06-10T06:05:05.094Z</time>
      </trkpt>
      <trkpt lat="38.71398333" lon="0.0490485">
        <ele>261.0</ele>
        <time>2018-06-10T06:05:06.094Z</time>
      </trkpt>
      <trkpt lat="38.71400567" lon="0.0491355">
        <ele>262.0</ele>
        <time>2018-06-10T06:05:07.094Z</time>
      </trkpt>
      <trkpt lat="38.71402733" lon="0.04922233">
        <ele>262.0</ele>
        <time>2018-06-10T06:05:08.094Z</time>
      </trkpt>
      <trkpt lat="38.71404233" lon="0.04930617">
        <ele>260.0</ele>
        <time>2018-06-10T06:05:09.094Z</time>
      </trkpt>
      <trkpt lat="38.71406067" lon="0.04939267">
        <ele>261.0</ele>
        <time>2018-06-10T06:05:10.094Z</time>
      </trkpt>
      <trkpt lat="38.714079" lon="0.0494795">
        <ele>261.0</ele>
        <time>2018-06-10T06:05:11.094Z</time>
      </trkpt>
      <trkpt lat="38.71409383" lon="0.04956367">
        <ele>260.0</ele>
        <time>2018-06-10T06:05:12.094Z</time>
      </trkpt>
      <trkpt lat="38.7141045" lon="0.0496465">
        <ele>260.0</ele>
        <time>2018-06-10T06:05:13.094Z</time>
      </trkpt>
      <trkpt lat="38.7141165" lon="0.04973133">
        <ele>260.0</ele>
        <time>2018-06-10T06:05:14.094Z</time>
      </trkpt>
      <trkpt lat="38.7141355" lon="0.04982133">
        <ele>259.0</ele>
        <time>2018-06-10T06:05:15.094Z</time>
      </trkpt>
      <trkpt lat="38.71415617" lon="0.04991067">
        <ele>259.0</ele>
        <time>2018-06-10T06:05:16.094Z</time>
      </trkpt>
      <trkpt lat="38.71417267" lon="0.04999733">
        <ele>258.0</ele>
        <time>2018-06-10T06:05:17.094Z</time>
      </trkpt>
      <trkpt lat="38.71419083" lon="0.050085">
        <ele>258.0</ele>
        <time>2018-06-10T06:05:18.094Z</time>
      </trkpt>
      <trkpt lat="38.71421267" lon="0.05017817">
        <ele>258.0</ele>
        <time>2018-06-10T06:05:19.094Z</time>
      </trkpt>
      <trkpt lat="38.71424867" lon="0.05028433">
        <ele>257.0</ele>
        <time>2018-06-10T06:05:20.094Z</time>
      </trkpt>
      <trkpt lat="38.7143015" lon="0.05040217">
        <ele>253.0</ele>
        <time>2018-06-10T06:05:21.094Z</time>
      </trkpt>
      <trkpt lat="38.71435633" lon="0.05051817">
        <ele>254.0</ele>
        <time>2018-06-10T06:05:22.094Z</time>
      </trkpt>
      <trkpt lat="38.71439367" lon="0.050627">
        <ele>253.0</ele>
        <time>2018-06-10T06:05:23.094Z</time>
      </trkpt>
      <trkpt lat="38.71439367" lon="0.050627">
        <ele>253.0</ele>
        <time>2018-06-10T06:05:25.094Z</time>
      </trkpt>
      <trkpt lat="38.71439367" lon="0.050627">
        <ele>251.0</ele>
        <time>2018-06-10T06:05:26.094Z</time>
      </trkpt>
      <trkpt lat="38.71444733" lon="0.05084733">
        <ele>248.0</ele>
        <time>2018-06-10T06:05:27.094Z</time>
      </trkpt>
      <trkpt lat="38.71450183" lon="0.05107583">
        <ele>248.0</ele>
        <time>2018-06-10T06:05:28.094Z</time>
      </trkpt>
      <trkpt lat="38.7145675" lon="0.05130867">
        <ele>249.0</ele>
        <time>2018-06-10T06:05:29.094Z</time>
      </trkpt>
      <trkpt lat="38.714605" lon="0.05142733">
        <ele>251.0</ele>
        <time>2018-06-10T06:05:30.094Z</time>
      </trkpt>
      <trkpt lat="38.71463783" lon="0.05154517">
        <ele>250.0</ele>
        <time>2018-06-10T06:05:31.094Z</time>
      </trkpt>
      <trkpt lat="38.71466783" lon="0.05166283">
        <ele>250.0</ele>
        <time>2018-06-10T06:05:32.094Z</time>
      </trkpt>
      <trkpt lat="38.71469317" lon="0.05178083">
        <ele>248.0</ele>
        <time>2018-06-10T06:05:33.094Z</time>
      </trkpt>
      <trkpt lat="38.7147205" lon="0.05189733">
        <ele>248.0</ele>
        <time>2018-06-10T06:05:34.094Z</time>
      </trkpt>
      <trkpt lat="38.71475133" lon="0.05201683">
        <ele>247.0</ele>
        <time>2018-06-10T06:05:35.094Z</time>
      </trkpt>
      <trkpt lat="38.71478283" lon="0.05213583">
        <ele>246.0</ele>
        <time>2018-06-10T06:05:36.094Z</time>
      </trkpt>
      <trkpt lat="38.714814" lon="0.05225767">
        <ele>246.0</ele>
        <time>2018-06-10T06:05:37.094Z</time>
      </trkpt>
      <trkpt lat="38.71484317" lon="0.05238">
        <ele>245.0</ele>
        <time>2018-06-10T06:05:38.094Z</time>
      </trkpt>
      <trkpt lat="38.71486717" lon="0.05250183">
        <ele>244.0</ele>
        <time>2018-06-10T06:05:39.094Z</time>
      </trkpt>
      <trkpt lat="38.71489617" lon="0.05262467">
        <ele>244.0</ele>
        <time>2018-06-10T06:05:40.094Z</time>
      </trkpt>
      <trkpt lat="38.71492633" lon="0.0527475">
        <ele>244.0</ele>
        <time>2018-06-10T06:05:41.094Z</time>
      </trkpt>
      <trkpt lat="38.7149615" lon="0.052871">
        <ele>243.0</ele>
        <time>2018-06-10T06:05:42.094Z</time>
      </trkpt>
      <trkpt lat="38.71499017" lon="0.052994">
        <ele>243.0</ele>
        <time>2018-06-10T06:05:43.094Z</time>
      </trkpt>
      <trkpt lat="38.715017" lon="0.05311683">
        <ele>242.0</ele>
        <time>2018-06-10T06:05:44.094Z</time>
      </trkpt>
      <trkpt lat="38.71504633" lon="0.05324183">
        <ele>242.0</ele>
        <time>2018-06-10T06:05:45.094Z</time>
      </trkpt>
      <trkpt lat="38.7150755" lon="0.0533665">
        <ele>241.0</ele>
        <time>2018-06-10T06:05:46.094Z</time>
      </trkpt>
      <trkpt lat="38.7151015" lon="0.05349">
        <ele>240.0</ele>
        <time>2018-06-10T06:05:47.094Z</time>
      </trkpt>
      <trkpt lat="38.71512867" lon="0.05361533">
        <ele>240.0</ele>
        <time>2018-06-10T06:05:48.094Z</time>
      </trkpt>
      <trkpt lat="38.71516367" lon="0.05374867">
        <ele>238.0</ele>
        <time>2018-06-10T06:05:49.094Z</time>
      </trkpt>
      <trkpt lat="38.7152125" lon="0.05389067">
        <ele>238.0</ele>
        <time>2018-06-10T06:05:50.094Z</time>
      </trkpt>
      <trkpt lat="38.715259" lon="0.05403433">
        <ele>236.0</ele>
        <time>2018-06-10T06:05:51.094Z</time>
      </trkpt>
      <trkpt lat="38.71530167" lon="0.05417533">
        <ele>235.0</ele>
        <time>2018-06-10T06:05:52.094Z</time>
      </trkpt>
      <trkpt lat="38.71533867" lon="0.05431483">
        <ele>235.0</ele>
        <time>2018-06-10T06:05:53.094Z</time>
      </trkpt>
      <trkpt lat="38.7153825" lon="0.05445683">
        <ele>236.0</ele>
        <time>2018-06-10T06:05:54.094Z</time>
      </trkpt>
      <trkpt lat="38.71542933" lon="0.0545995">
        <ele>236.0</ele>
        <time>2018-06-10T06:05:55.094Z</time>
      </trkpt>
      <trkpt lat="38.71547483" lon="0.05474017">
        <ele>236.0</ele>
        <time>2018-06-10T06:05:56.094Z</time>
      </trkpt>
      <trkpt lat="38.7155175" lon="0.05487967">
        <ele>236.0</ele>
        <time>2018-06-10T06:05:57.094Z</time>
      </trkpt>
      <trkpt lat="38.715557" lon="0.05501683">
        <ele>235.0</ele>
        <time>2018-06-10T06:05:58.094Z</time>
      </trkpt>
      <trkpt lat="38.7155995" lon="0.0551555">
        <ele>235.0</ele>
        <time>2018-06-10T06:05:59.094Z</time>
      </trkpt>
      <trkpt lat="38.71564117" lon="0.05529417">
        <ele>235.0</ele>
        <time>2018-06-10T06:06:00.094Z</time>
      </trkpt>
      <trkpt lat="38.715683" lon="0.055433">
        <ele>234.0</ele>
        <time>2018-06-10T06:06:01.094Z</time>
      </trkpt>
      <trkpt lat="38.71572117" lon="0.05557033">
        <ele>233.0</ele>
        <time>2018-06-10T06:06:02.094Z</time>
      </trkpt>
      <trkpt lat="38.71575767" lon="0.05570533">
        <ele>233.0</ele>
        <time>2018-06-10T06:06:03.094Z</time>
      </trkpt>
      <trkpt lat="38.71579333" lon="0.05584">
        <ele>232.0</ele>
        <time>2018-06-10T06:06:04.094Z</time>
      </trkpt>
      <trkpt lat="38.71582867" lon="0.0559735">
        <ele>232.0</ele>
        <time>2018-06-10T06:06:05.094Z</time>
      </trkpt>
      <trkpt lat="38.71586383" lon="0.056108">
        <ele>232.0</ele>
        <time>2018-06-10T06:06:06.094Z</time>
      </trkpt>
      <trkpt lat="38.71590417" lon="0.05624583">
        <ele>232.0</ele>
        <time>2018-06-10T06:06:07.094Z</time>
      </trkpt>
      <trkpt lat="38.7159465" lon="0.05638583">
        <ele>232.0</ele>
        <time>2018-06-10T06:06:08.094Z</time>
      </trkpt>
      <trkpt lat="38.71599067" lon="0.056526">
        <ele>232.0</ele>
        <time>2018-06-10T06:06:09.094Z</time>
      </trkpt>
      <trkpt lat="38.7160295" lon="0.05666517">
        <ele>232.0</ele>
        <time>2018-06-10T06:06:10.094Z</time>
      </trkpt>
      <trkpt lat="38.716064" lon="0.0568035">
        <ele>232.0</ele>
        <time>2018-06-10T06:06:11.094Z</time>
      </trkpt>
      <trkpt lat="38.716093" lon="0.0569425">
        <ele>232.0</ele>
        <time>2018-06-10T06:06:12.094Z</time>
      </trkpt>
      <trkpt lat="38.71612117" lon="0.05708133">
        <ele>231.0</ele>
        <time>2018-06-10T06:06:13.094Z</time>
      </trkpt>
      <trkpt lat="38.71615033" lon="0.057221">
        <ele>231.0</ele>
        <time>2018-06-10T06:06:14.094Z</time>
      </trkpt>
      <trkpt lat="38.7161845" lon="0.05736117">
        <ele>231.0</ele>
        <time>2018-06-10T06:06:15.094Z</time>
      </trkpt>
      <trkpt lat="38.71621917" lon="0.05749967">
        <ele>231.0</ele>
        <time>2018-06-10T06:06:16.094Z</time>
      </trkpt>
      <trkpt lat="38.71625617" lon="0.05763683">
        <ele>231.0</ele>
        <time>2018-06-10T06:06:17.094Z</time>
      </trkpt>
      <trkpt lat="38.71629333" lon="0.05777217">
        <ele>231.0</ele>
        <time>2018-06-10T06:06:18.094Z</time>
      </trkpt>
      <trkpt lat="38.71633367" lon="0.05790583">
        <ele>232.0</ele>
        <time>2018-06-10T06:06:19.094Z</time>
      </trkpt>
      <trkpt lat="38.7163755" lon="0.05803533">
        <ele>233.0</ele>
        <time>2018-06-10T06:06:20.094Z</time>
      </trkpt>
      <trkpt lat="38.71641383" lon="0.05815833">
        <ele>233.0</ele>
        <time>2018-06-10T06:06:21.094Z</time>
      </trkpt>
      <trkpt lat="38.71644383" lon="0.05827517">
        <ele>233.0</ele>
        <time>2018-06-10T06:06:22.094Z</time>
      </trkpt>
      <trkpt lat="38.71646683" lon="0.05838783">
        <ele>233.0</ele>
        <time>2018-06-10T06:06:23.094Z</time>
      </trkpt>
      <trkpt lat="38.716484" lon="0.058499">
        <ele>233.0</ele>
        <time>2018-06-10T06:06:24.094Z</time>
      </trkpt>
      <trkpt lat="38.71649567" lon="0.05861017">
        <ele>232.0</ele>
        <time>2018-06-10T06:06:25.094Z</time>
      </trkpt>
      <trkpt lat="38.716499" lon="0.05872067">
        <ele>232.0</ele>
        <time>2018-06-10T06:06:26.094Z</time>
      </trkpt>
      <trkpt lat="38.7165" lon="0.05882817">
        <ele>232.0</ele>
        <time>2018-06-10T06:06:27.094Z</time>
      </trkpt>
      <trkpt lat="38.71650983" lon="0.05893">
        <ele>232.0</ele>
        <time>2018-06-10T06:06:28.094Z</time>
      </trkpt>
      <trkpt lat="38.71653467" lon="0.05902067">
        <ele>232.0</ele>
        <time>2018-06-10T06:06:29.094Z</time>
      </trkpt>
      <trkpt lat="38.71657517" lon="0.0590915">
        <ele>231.0</ele>
        <time>2018-06-10T06:06:30.094Z</time>
      </trkpt>
      <trkpt lat="38.71663417" lon="0.05914083">
        <ele>232.0</ele>
        <time>2018-06-10T06:06:31.094Z</time>
      </trkpt>
      <trkpt lat="38.71670583" lon="0.0591675">
        <ele>231.0</ele>
        <time>2018-06-10T06:06:32.094Z</time>
      </trkpt>
      <trkpt lat="38.71678567" lon="0.05918533">
        <ele>230.0</ele>
        <time>2018-06-10T06:06:33.094Z</time>
      </trkpt>
      <trkpt lat="38.71686317" lon="0.05920933">
        <ele>229.0</ele>
        <time>2018-06-10T06:06:34.094Z</time>
      </trkpt>
      <trkpt lat="38.71694067" lon="0.059253">
        <ele>228.0</ele>
        <time>2018-06-10T06:06:35.094Z</time>
      </trkpt>
      <trkpt lat="38.717018" lon="0.05931383">
        <ele>228.0</ele>
        <time>2018-06-10T06:06:36.094Z</time>
      </trkpt>
      <trkpt lat="38.7170965" lon="0.05938067">
        <ele>228.0</ele>
        <time>2018-06-10T06:06:37.094Z</time>
      </trkpt>
      <trkpt lat="38.71717817" lon="0.05944733">
        <ele>228.0</ele>
        <time>2018-06-10T06:06:38.094Z</time>
      </trkpt>
      <trkpt lat="38.71726367" lon="0.0595125">
        <ele>227.0</ele>
        <time>2018-06-10T06:06:39.094Z</time>
      </trkpt>
      <trkpt lat="38.71735133" lon="0.05957617">
        <ele>227.0</ele>
        <time>2018-06-10T06:06:40.094Z</time>
      </trkpt>
      <trkpt lat="38.71743867" lon="0.0596395">
        <ele>227.0</ele>
        <time>2018-06-10T06:06:41.094Z</time>
      </trkpt>
      <trkpt lat="38.717525" lon="0.059703">
        <ele>227.0</ele>
        <time>2018-06-10T06:06:42.094Z</time>
      </trkpt>
      <trkpt lat="38.71760967" lon="0.05976617">
        <ele>227.0</ele>
        <time>2018-06-10T06:06:43.094Z</time>
      </trkpt>
      <trkpt lat="38.71769317" lon="0.05982733">
        <ele>227.0</ele>
        <time>2018-06-10T06:06:44.094Z</time>
      </trkpt>
      <trkpt lat="38.7177745" lon="0.05988717">
        <ele>227.0</ele>
        <time>2018-06-10T06:06:45.094Z</time>
      </trkpt>
      <trkpt lat="38.71785467" lon="0.05994617">
        <ele>227.0</ele>
        <time>2018-06-10T06:06:46.094Z</time>
      </trkpt>
      <trkpt lat="38.71793317" lon="0.0600045">
        <ele>227.0</ele>
        <time>2018-06-10T06:06:47.094Z</time>
      </trkpt>
      <trkpt lat="38.71801017" lon="0.06006017">
        <ele>227.0</ele>
        <time>2018-06-10T06:06:48.094Z</time>
      </trkpt>
      <trkpt lat="38.7180855" lon="0.06011383">
        <ele>227.0</ele>
        <time>2018-06-10T06:06:49.094Z</time>
      </trkpt>
      <trkpt lat="38.71815967" lon="0.06016633">
        <ele>227.0</ele>
        <time>2018-06-10T06:06:50.094Z</time>
      </trkpt>
      <trkpt lat="38.71823283" lon="0.0602195">
        <ele>227.0</ele>
        <time>2018-06-10T06:06:51.094Z</time>
      </trkpt>
      <trkpt lat="38.71830417" lon="0.06027217">
        <ele>227.0</ele>
        <time>2018-06-10T06:06:52.094Z</time>
      </trkpt>
      <trkpt lat="38.71837467" lon="0.060325">
        <ele>227.0</ele>
        <time>2018-06-10T06:06:53.094Z</time>
      </trkpt>
      <trkpt lat="38.71844317" lon="0.06037683">
        <ele>227.0</ele>
        <time>2018-06-10T06:06:54.094Z</time>
      </trkpt>
      <trkpt lat="38.7185115" lon="0.06042933">
        <ele>227.0</ele>
        <time>2018-06-10T06:06:55.094Z</time>
      </trkpt>
      <trkpt lat="38.71857917" lon="0.06048133">
        <ele>228.0</ele>
        <time>2018-06-10T06:06:56.094Z</time>
      </trkpt>
      <trkpt lat="38.7186465" lon="0.0605325">
        <ele>228.0</ele>
        <time>2018-06-10T06:06:57.094Z</time>
      </trkpt>
      <trkpt lat="38.71871233" lon="0.06058233">
        <ele>228.0</ele>
        <time>2018-06-10T06:06:58.094Z</time>
      </trkpt>
      <trkpt lat="38.71877667" lon="0.0606305">
        <ele>228.0</ele>
        <time>2018-06-10T06:06:59.094Z</time>
      </trkpt>
      <trkpt lat="38.71884083" lon="0.06067817">
        <ele>228.0</ele>
        <time>2018-06-10T06:07:00.094Z</time>
      </trkpt>
      <trkpt lat="38.7189045" lon="0.06072517">
        <ele>228.0</ele>
        <time>2018-06-10T06:07:01.094Z</time>
      </trkpt>
      <trkpt lat="38.71896767" lon="0.06077183">
        <ele>228.0</ele>
        <time>2018-06-10T06:07:02.094Z</time>
      </trkpt>
      <trkpt lat="38.71903067" lon="0.06081833">
        <ele>228.0</ele>
        <time>2018-06-10T06:07:03.094Z</time>
      </trkpt>
      <trkpt lat="38.71909367" lon="0.06086417">
        <ele>228.0</ele>
        <time>2018-06-10T06:07:04.094Z</time>
      </trkpt>
      <trkpt lat="38.71915683" lon="0.06091083">
        <ele>228.0</ele>
        <time>2018-06-10T06:07:05.094Z</time>
      </trkpt>
      <trkpt lat="38.7192195" lon="0.06095817">
        <ele>229.0</ele>
        <time>2018-06-10T06:07:06.094Z</time>
      </trkpt>
      <trkpt lat="38.71928167" lon="0.06100583">
        <ele>229.0</ele>
        <time>2018-06-10T06:07:07.094Z</time>
      </trkpt>
      <trkpt lat="38.719343" lon="0.06105317">
        <ele>229.0</ele>
        <time>2018-06-10T06:07:08.094Z</time>
      </trkpt>
      <trkpt lat="38.719404" lon="0.0610995">
        <ele>229.0</ele>
        <time>2018-06-10T06:07:09.094Z</time>
      </trkpt>
      <trkpt lat="38.71946367" lon="0.06114683">
        <ele>229.0</ele>
        <time>2018-06-10T06:07:10.094Z</time>
      </trkpt>
      <trkpt lat="38.71951867" lon="0.06120267">
        <ele>229.0</ele>
        <time>2018-06-10T06:07:11.094Z</time>
      </trkpt>
      <trkpt lat="38.71956567" lon="0.06126867">
        <ele>229.0</ele>
        <time>2018-06-10T06:07:12.094Z</time>
      </trkpt>
      <trkpt lat="38.71960533" lon="0.06134217">
        <ele>229.0</ele>
        <time>2018-06-10T06:07:13.094Z</time>
      </trkpt>
      <trkpt lat="38.71964333" lon="0.06141383">
        <ele>229.0</ele>
        <time>2018-06-10T06:07:14.094Z</time>
      </trkpt>
      <trkpt lat="38.71969" lon="0.0614765">
        <ele>230.0</ele>
        <time>2018-06-10T06:07:15.094Z</time>
      </trkpt>
      <trkpt lat="38.719747" lon="0.06152367">
        <ele>230.0</ele>
        <time>2018-06-10T06:07:16.094Z</time>
      </trkpt>
      <trkpt lat="38.7198115" lon="0.06155317">
        <ele>228.0</ele>
        <time>2018-06-10T06:07:17.094Z</time>
      </trkpt>
      <trkpt lat="38.71987717" lon="0.06156733">
        <ele>228.0</ele>
        <time>2018-06-10T06:07:18.094Z</time>
      </trkpt>
      <trkpt lat="38.71994333" lon="0.06157783">
        <ele>228.0</ele>
        <time>2018-06-10T06:07:19.094Z</time>
      </trkpt>
      <trkpt lat="38.72000967" lon="0.0615935">
        <ele>228.0</ele>
        <time>2018-06-10T06:07:20.094Z</time>
      </trkpt>
      <trkpt lat="38.72007483" lon="0.06162067">
        <ele>228.0</ele>
        <time>2018-06-10T06:07:21.094Z</time>
      </trkpt>
      <trkpt lat="38.720138" lon="0.061656">
        <ele>229.0</ele>
        <time>2018-06-10T06:07:22.094Z</time>
      </trkpt>
      <trkpt lat="38.72019983" lon="0.06169633">
        <ele>229.0</ele>
        <time>2018-06-10T06:07:23.094Z</time>
      </trkpt>
      <trkpt lat="38.72026183" lon="0.06173817">
        <ele>229.0</ele>
        <time>2018-06-10T06:07:24.094Z</time>
      </trkpt>
      <trkpt lat="38.720324" lon="0.061781">
        <ele>229.0</ele>
        <time>2018-06-10T06:07:25.094Z</time>
      </trkpt>
      <trkpt lat="38.72038583" lon="0.06182417">
        <ele>229.0</ele>
        <time>2018-06-10T06:07:26.094Z</time>
      </trkpt>
      <trkpt lat="38.72044683" lon="0.06186867">
        <ele>229.0</ele>
        <time>2018-06-10T06:07:27.094Z</time>
      </trkpt>
      <trkpt lat="38.72050767" lon="0.06191483">
        <ele>229.0</ele>
        <time>2018-06-10T06:07:28.094Z</time>
      </trkpt>
      <trkpt lat="38.72056833" lon="0.06196217">
        <ele>229.0</ele>
        <time>2018-06-10T06:07:29.094Z</time>
      </trkpt>
      <trkpt lat="38.720629" lon="0.06200967">
        <ele>229.0</ele>
        <time>2018-06-10T06:07:30.094Z</time>
      </trkpt>
      <trkpt lat="38.72069017" lon="0.062057">
        <ele>229.0</ele>
        <time>2018-06-10T06:07:31.094Z</time>
      </trkpt>
      <trkpt lat="38.72075267" lon="0.06210333">
        <ele>229.0</ele>
        <time>2018-06-10T06:07:32.094Z</time>
      </trkpt>
      <trkpt lat="38.72081617" lon="0.06214967">
        <ele>229.0</ele>
        <time>2018-06-10T06:07:33.094Z</time>
      </trkpt>
      <trkpt lat="38.72088067" lon="0.06219583">
        <ele>229.0</ele>
        <time>2018-06-10T06:07:34.094Z</time>
      </trkpt>
      <trkpt lat="38.72094533" lon="0.0622425">
        <ele>229.0</ele>
        <time>2018-06-10T06:07:35.094Z</time>
      </trkpt>
      <trkpt lat="38.72100983" lon="0.0622895">
        <ele>229.0</ele>
        <time>2018-06-10T06:07:36.094Z</time>
      </trkpt>
      <trkpt lat="38.72107433" lon="0.06233733">
        <ele>229.0</ele>
        <time>2018-06-10T06:07:37.094Z</time>
      </trkpt>
      <trkpt lat="38.72113933" lon="0.06238617">
        <ele>229.0</ele>
        <time>2018-06-10T06:07:38.094Z</time>
      </trkpt>
      <trkpt lat="38.72120567" lon="0.06243633">
        <ele>230.0</ele>
        <time>2018-06-10T06:07:39.094Z</time>
      </trkpt>
      <trkpt lat="38.72127317" lon="0.06248717">
        <ele>229.0</ele>
        <time>2018-06-10T06:07:40.094Z</time>
      </trkpt>
      <trkpt lat="38.72134233" lon="0.0625385">
        <ele>229.0</ele>
        <time>2018-06-10T06:07:41.094Z</time>
      </trkpt>
      <trkpt lat="38.72141283" lon="0.06259033">
        <ele>230.0</ele>
        <time>2018-06-10T06:07:42.094Z</time>
      </trkpt>
      <trkpt lat="38.72148417" lon="0.06264367">
        <ele>230.0</ele>
        <time>2018-06-10T06:07:43.094Z</time>
      </trkpt>
      <trkpt lat="38.72155633" lon="0.06269917">
        <ele>229.0</ele>
        <time>2018-06-10T06:07:44.094Z</time>
      </trkpt>
      <trkpt lat="38.72162867" lon="0.062756">
        <ele>229.0</ele>
        <time>2018-06-10T06:07:45.094Z</time>
      </trkpt>
      <trkpt lat="38.721701" lon="0.06281283">
        <ele>229.0</ele>
        <time>2018-06-10T06:07:46.094Z</time>
      </trkpt>
      <trkpt lat="38.72177283" lon="0.06286933">
        <ele>229.0</ele>
        <time>2018-06-10T06:07:47.094Z</time>
      </trkpt>
      <trkpt lat="38.72184467" lon="0.062925">
        <ele>229.0</ele>
        <time>2018-06-10T06:07:48.094Z</time>
      </trkpt>
      <trkpt lat="38.72191667" lon="0.06298017">
        <ele>229.0</ele>
        <time>2018-06-10T06:07:49.094Z</time>
      </trkpt>
      <trkpt lat="38.72198933" lon="0.0630335">
        <ele>229.0</ele>
        <time>2018-06-10T06:07:50.094Z</time>
      </trkpt>
      <trkpt lat="38.72206283" lon="0.06308667">
        <ele>229.0</ele>
        <time>2018-06-10T06:07:51.094Z</time>
      </trkpt>
      <trkpt lat="38.7221375" lon="0.06314067">
        <ele>229.0</ele>
        <time>2018-06-10T06:07:52.094Z</time>
      </trkpt>
      <trkpt lat="38.72221233" lon="0.06319717">
        <ele>229.0</ele>
        <time>2018-06-10T06:07:53.094Z</time>
      </trkpt>
      <trkpt lat="38.72228667" lon="0.06325567">
        <ele>229.0</ele>
        <time>2018-06-10T06:07:54.094Z</time>
      </trkpt>
      <trkpt lat="38.72235983" lon="0.063314">
        <ele>229.0</ele>
        <time>2018-06-10T06:07:55.094Z</time>
      </trkpt>
      <trkpt lat="38.7224325" lon="0.063371">
        <ele>229.0</ele>
        <time>2018-06-10T06:07:56.094Z</time>
      </trkpt>
      <trkpt lat="38.72250517" lon="0.06342617">
        <ele>229.0</ele>
        <time>2018-06-10T06:07:57.094Z</time>
      </trkpt>
      <trkpt lat="38.722578" lon="0.06348">
        <ele>229.0</ele>
        <time>2018-06-10T06:07:58.094Z</time>
      </trkpt>
      <trkpt lat="38.7226505" lon="0.06353383">
        <ele>229.0</ele>
        <time>2018-06-10T06:07:59.094Z</time>
      </trkpt>
      <trkpt lat="38.722723" lon="0.063588">
        <ele>229.0</ele>
        <time>2018-06-10T06:08:00.094Z</time>
      </trkpt>
      <trkpt lat="38.7227955" lon="0.06364233">
        <ele>229.0</ele>
        <time>2018-06-10T06:08:01.094Z</time>
      </trkpt>
      <trkpt lat="38.7228675" lon="0.0636965">
        <ele>229.0</ele>
        <time>2018-06-10T06:08:02.094Z</time>
      </trkpt>
      <trkpt lat="38.72293917" lon="0.063751">
        <ele>229.0</ele>
        <time>2018-06-10T06:08:03.094Z</time>
      </trkpt>
      <trkpt lat="38.72301017" lon="0.06380567">
        <ele>229.0</ele>
        <time>2018-06-10T06:08:04.094Z</time>
      </trkpt>
      <trkpt lat="38.72308067" lon="0.06386083">
        <ele>229.0</ele>
        <time>2018-06-10T06:08:05.094Z</time>
      </trkpt>
      <trkpt lat="38.72315133" lon="0.063917">
        <ele>229.0</ele>
        <time>2018-06-10T06:08:06.094Z</time>
      </trkpt>
      <trkpt lat="38.7232225" lon="0.06397467">
        <ele>228.0</ele>
        <time>2018-06-10T06:08:07.094Z</time>
      </trkpt>
      <trkpt lat="38.72329533" lon="0.06403417">
        <ele>228.0</ele>
        <time>2018-06-10T06:08:08.094Z</time>
      </trkpt>
      <trkpt lat="38.72336967" lon="0.06409483">
        <ele>228.0</ele>
        <time>2018-06-10T06:08:09.094Z</time>
      </trkpt>
      <trkpt lat="38.72344567" lon="0.0641565">
        <ele>228.0</ele>
        <time>2018-06-10T06:08:10.094Z</time>
      </trkpt>
      <trkpt lat="38.72352317" lon="0.0642185">
        <ele>227.0</ele>
        <time>2018-06-10T06:08:11.094Z</time>
      </trkpt>
      <trkpt lat="38.7236025" lon="0.06428017">
        <ele>227.0</ele>
        <time>2018-06-10T06:08:12.094Z</time>
      </trkpt>
      <trkpt lat="38.7236845" lon="0.06434283">
        <ele>227.0</ele>
        <time>2018-06-10T06:08:13.094Z</time>
      </trkpt>
      <trkpt lat="38.723768" lon="0.06440567">
        <ele>226.0</ele>
        <time>2018-06-10T06:08:14.094Z</time>
      </trkpt>
      <trkpt lat="38.723853" lon="0.06446867">
        <ele>226.0</ele>
        <time>2018-06-10T06:08:15.094Z</time>
      </trkpt>
      <trkpt lat="38.72393883" lon="0.06453167">
        <ele>225.0</ele>
        <time>2018-06-10T06:08:16.094Z</time>
      </trkpt>
      <trkpt lat="38.72402567" lon="0.06459583">
        <ele>225.0</ele>
        <time>2018-06-10T06:08:17.094Z</time>
      </trkpt>
      <trkpt lat="38.72411283" lon="0.0646605">
        <ele>224.0</ele>
        <time>2018-06-10T06:08:18.094Z</time>
      </trkpt>
      <trkpt lat="38.72420083" lon="0.064725">
        <ele>224.0</ele>
        <time>2018-06-10T06:08:19.094Z</time>
      </trkpt>
      <trkpt lat="38.72428917" lon="0.06478917">
        <ele>224.0</ele>
        <time>2018-06-10T06:08:20.094Z</time>
      </trkpt>
      <trkpt lat="38.724378" lon="0.0648545">
        <ele>223.0</ele>
        <time>2018-06-10T06:08:21.094Z</time>
      </trkpt>
      <trkpt lat="38.72446717" lon="0.064921">
        <ele>223.0</ele>
        <time>2018-06-10T06:08:22.094Z</time>
      </trkpt>
      <trkpt lat="38.72455683" lon="0.06498867">
        <ele>222.0</ele>
        <time>2018-06-10T06:08:23.094Z</time>
      </trkpt>
      <trkpt lat="38.724647" lon="0.06505683">
        <ele>222.0</ele>
        <time>2018-06-10T06:08:24.094Z</time>
      </trkpt>
      <trkpt lat="38.72473683" lon="0.06512533">
        <ele>222.0</ele>
        <time>2018-06-10T06:08:25.094Z</time>
      </trkpt>
      <trkpt lat="38.7248265" lon="0.0651935">
        <ele>222.0</ele>
        <time>2018-06-10T06:08:26.094Z</time>
      </trkpt>
      <trkpt lat="38.724916" lon="0.06526133">
        <ele>221.0</ele>
        <time>2018-06-10T06:08:27.094Z</time>
      </trkpt>
      <trkpt lat="38.72500667" lon="0.06532933">
        <ele>221.0</ele>
        <time>2018-06-10T06:08:28.094Z</time>
      </trkpt>
      <trkpt lat="38.7250985" lon="0.06539833">
        <ele>220.0</ele>
        <time>2018-06-10T06:08:29.094Z</time>
      </trkpt>
      <trkpt lat="38.72519117" lon="0.065469">
        <ele>220.0</ele>
        <time>2018-06-10T06:08:30.094Z</time>
      </trkpt>
      <trkpt lat="38.725283" lon="0.06554367">
        <ele>219.0</ele>
        <time>2018-06-10T06:08:31.094Z</time>
      </trkpt>
      <trkpt lat="38.7253725" lon="0.065626">
        <ele>219.0</ele>
        <time>2018-06-10T06:08:32.094Z</time>
      </trkpt>
      <trkpt lat="38.72545467" lon="0.0657235">
        <ele>218.0</ele>
        <time>2018-06-10T06:08:33.094Z</time>
      </trkpt>
      <trkpt lat="38.725526" lon="0.0658405">
        <ele>217.0</ele>
        <time>2018-06-10T06:08:34.094Z</time>
      </trkpt>
      <trkpt lat="38.725583" lon="0.0659765">
        <ele>217.0</ele>
        <time>2018-06-10T06:08:35.094Z</time>
      </trkpt>
      <trkpt lat="38.72561817" lon="0.06612567">
        <ele>216.0</ele>
        <time>2018-06-10T06:08:36.094Z</time>
      </trkpt>
      <trkpt lat="38.72563417" lon="0.06628267">
        <ele>217.0</ele>
        <time>2018-06-10T06:08:37.094Z</time>
      </trkpt>
      <trkpt lat="38.725626" lon="0.06644233">
        <ele>217.0</ele>
        <time>2018-06-10T06:08:38.094Z</time>
      </trkpt>
      <trkpt lat="38.72559583" lon="0.066597">
        <ele>217.0</ele>
        <time>2018-06-10T06:08:39.094Z</time>
      </trkpt>
      <trkpt lat="38.72554967" lon="0.06674683">
        <ele>217.0</ele>
        <time>2018-06-10T06:08:40.094Z</time>
      </trkpt>
      <trkpt lat="38.725496" lon="0.06689067">
        <ele>217.0</ele>
        <time>2018-06-10T06:08:41.094Z</time>
      </trkpt>
      <trkpt lat="38.72544067" lon="0.06703667">
        <ele>217.0</ele>
        <time>2018-06-10T06:08:42.094Z</time>
      </trkpt>
      <trkpt lat="38.7253735" lon="0.067177">
        <ele>216.0</ele>
        <time>2018-06-10T06:08:43.094Z</time>
      </trkpt>
      <trkpt lat="38.72530133" lon="0.06731783">
        <ele>215.0</ele>
        <time>2018-06-10T06:08:44.094Z</time>
      </trkpt>
      <trkpt lat="38.72522767" lon="0.0674565">
        <ele>215.0</ele>
        <time>2018-06-10T06:08:45.094Z</time>
      </trkpt>
      <trkpt lat="38.725161" lon="0.06759917">
        <ele>214.0</ele>
        <time>2018-06-10T06:08:46.094Z</time>
      </trkpt>
      <trkpt lat="38.72509633" lon="0.0677445">
        <ele>214.0</ele>
        <time>2018-06-10T06:08:47.094Z</time>
      </trkpt>
      <trkpt lat="38.72503467" lon="0.0678935">
        <ele>213.0</ele>
        <time>2018-06-10T06:08:48.094Z</time>
      </trkpt>
      <trkpt lat="38.7249785" lon="0.06804883">
        <ele>213.0</ele>
        <time>2018-06-10T06:08:49.094Z</time>
      </trkpt>
      <trkpt lat="38.72493817" lon="0.06821317">
        <ele>213.0</ele>
        <time>2018-06-10T06:08:50.094Z</time>
      </trkpt>
      <trkpt lat="38.724917" lon="0.06838533">
        <ele>212.0</ele>
        <time>2018-06-10T06:08:51.094Z</time>
      </trkpt>
      <trkpt lat="38.724915" lon="0.06856167">
        <ele>211.0</ele>
        <time>2018-06-10T06:08:52.094Z</time>
      </trkpt>
      <trkpt lat="38.72492667" lon="0.06873883">
        <ele>211.0</ele>
        <time>2018-06-10T06:08:53.094Z</time>
      </trkpt>
      <trkpt lat="38.72494817" lon="0.06891567">
        <ele>209.0</ele>
        <time>2018-06-10T06:08:54.094Z</time>
      </trkpt>
      <trkpt lat="38.7249775" lon="0.06909333">
        <ele>209.0</ele>
        <time>2018-06-10T06:08:55.094Z</time>
      </trkpt>
      <trkpt lat="38.7250095" lon="0.069272">
        <ele>208.0</ele>
        <time>2018-06-10T06:08:56.094Z</time>
      </trkpt>
      <trkpt lat="38.72504567" lon="0.0694555">
        <ele>207.0</ele>
        <time>2018-06-10T06:08:57.094Z</time>
      </trkpt>
      <trkpt lat="38.72508383" lon="0.0696445">
        <ele>206.0</ele>
        <time>2018-06-10T06:08:58.094Z</time>
      </trkpt>
      <trkpt lat="38.72512333" lon="0.0698385">
        <ele>205.0</ele>
        <time>2018-06-10T06:08:59.094Z</time>
      </trkpt>
      <trkpt lat="38.72516233" lon="0.070035">
        <ele>204.0</ele>
        <time>2018-06-10T06:09:00.094Z</time>
      </trkpt>
      <trkpt lat="38.72520183" lon="0.07023267">
        <ele>203.0</ele>
        <time>2018-06-10T06:09:01.094Z</time>
      </trkpt>
      <trkpt lat="38.72524167" lon="0.070431">
        <ele>202.0</ele>
        <time>2018-06-10T06:09:02.094Z</time>
      </trkpt>
      <trkpt lat="38.725283" lon="0.07063">
        <ele>201.0</ele>
        <time>2018-06-10T06:09:03.094Z</time>
      </trkpt>
      <trkpt lat="38.7253245" lon="0.07083033">
        <ele>200.0</ele>
        <time>2018-06-10T06:09:04.094Z</time>
      </trkpt>
      <trkpt lat="38.725366" lon="0.071032">
        <ele>199.0</ele>
        <time>2018-06-10T06:09:05.094Z</time>
      </trkpt>
      <trkpt lat="38.7254075" lon="0.0712345">
        <ele>199.0</ele>
        <time>2018-06-10T06:09:06.094Z</time>
      </trkpt>
      <trkpt lat="38.72545" lon="0.07143817">
        <ele>198.0</ele>
        <time>2018-06-10T06:09:07.094Z</time>
      </trkpt>
      <trkpt lat="38.72549317" lon="0.0716425">
        <ele>197.0</ele>
        <time>2018-06-10T06:09:08.094Z</time>
      </trkpt>
      <trkpt lat="38.725537" lon="0.07184783">
        <ele>196.0</ele>
        <time>2018-06-10T06:09:09.094Z</time>
      </trkpt>
      <trkpt lat="38.72558167" lon="0.07205383">
        <ele>195.0</ele>
        <time>2018-06-10T06:09:10.094Z</time>
      </trkpt>
      <trkpt lat="38.7256255" lon="0.07225967">
        <ele>194.0</ele>
        <time>2018-06-10T06:09:11.094Z</time>
      </trkpt>
      <trkpt lat="38.7256695" lon="0.0724635">
        <ele>193.0</ele>
        <time>2018-06-10T06:09:12.094Z</time>
      </trkpt>
      <trkpt lat="38.72571433" lon="0.07266483">
        <ele>193.0</ele>
        <time>2018-06-10T06:09:13.094Z</time>
      </trkpt>
      <trkpt lat="38.72576067" lon="0.07286267">
        <ele>192.0</ele>
        <time>2018-06-10T06:09:14.094Z</time>
      </trkpt>
      <trkpt lat="38.72580467" lon="0.07305717">
        <ele>192.0</ele>
        <time>2018-06-10T06:09:15.094Z</time>
      </trkpt>
      <trkpt lat="38.72584483" lon="0.07324733">
        <ele>191.0</ele>
        <time>2018-06-10T06:09:16.094Z</time>
      </trkpt>
      <trkpt lat="38.72588233" lon="0.07343417">
        <ele>190.0</ele>
        <time>2018-06-10T06:09:17.094Z</time>
      </trkpt>
      <trkpt lat="38.72591817" lon="0.073619">
        <ele>190.0</ele>
        <time>2018-06-10T06:09:18.094Z</time>
      </trkpt>
      <trkpt lat="38.72595383" lon="0.07380467">
        <ele>189.0</ele>
        <time>2018-06-10T06:09:19.094Z</time>
      </trkpt>
      <trkpt lat="38.72599117" lon="0.073992">
        <ele>189.0</ele>
        <time>2018-06-10T06:09:20.094Z</time>
      </trkpt>
      <trkpt lat="38.72603183" lon="0.0741815">
        <ele>188.0</ele>
        <time>2018-06-10T06:09:21.094Z</time>
      </trkpt>
      <trkpt lat="38.72607483" lon="0.07437233">
        <ele>187.0</ele>
        <time>2018-06-10T06:09:22.094Z</time>
      </trkpt>
      <trkpt lat="38.726117" lon="0.07456417">
        <ele>187.0</ele>
        <time>2018-06-10T06:09:23.094Z</time>
      </trkpt>
      <trkpt lat="38.72615717" lon="0.07475683">
        <ele>186.0</ele>
        <time>2018-06-10T06:09:24.094Z</time>
      </trkpt>
      <trkpt lat="38.72619567" lon="0.07494983">
        <ele>186.0</ele>
        <time>2018-06-10T06:09:25.094Z</time>
      </trkpt>
      <trkpt lat="38.72623017" lon="0.07514233">
        <ele>185.0</ele>
        <time>2018-06-10T06:09:26.094Z</time>
      </trkpt>
      <trkpt lat="38.72625633" lon="0.07533417">
        <ele>184.0</ele>
        <time>2018-06-10T06:09:27.094Z</time>
      </trkpt>
      <trkpt lat="38.72627233" lon="0.07552617">
        <ele>183.0</ele>
        <time>2018-06-10T06:09:28.094Z</time>
      </trkpt>
      <trkpt lat="38.726281" lon="0.07571933">
        <ele>183.0</ele>
        <time>2018-06-10T06:09:29.094Z</time>
      </trkpt>
      <trkpt lat="38.72628683" lon="0.075913">
        <ele>183.0</ele>
        <time>2018-06-10T06:09:30.094Z</time>
      </trkpt>
      <trkpt lat="38.72629133" lon="0.07610583">
        <ele>182.0</ele>
        <time>2018-06-10T06:09:31.094Z</time>
      </trkpt>
      <trkpt lat="38.72629483" lon="0.07629667">
        <ele>182.0</ele>
        <time>2018-06-10T06:09:32.094Z</time>
      </trkpt>
      <trkpt lat="38.72629783" lon="0.07648633">
        <ele>181.0</ele>
        <time>2018-06-10T06:09:33.094Z</time>
      </trkpt>
      <trkpt lat="38.72630033" lon="0.07667467">
        <ele>181.0</ele>
        <time>2018-06-10T06:09:34.094Z</time>
      </trkpt>
      <trkpt lat="38.72630233" lon="0.07686217">
        <ele>180.0</ele>
        <time>2018-06-10T06:09:35.094Z</time>
      </trkpt>
      <trkpt lat="38.7263045" lon="0.07705">
        <ele>180.0</ele>
        <time>2018-06-10T06:09:36.094Z</time>
      </trkpt>
      <trkpt lat="38.726308" lon="0.07723933">
        <ele>179.0</ele>
        <time>2018-06-10T06:09:37.094Z</time>
      </trkpt>
      <trkpt lat="38.72631233" lon="0.07742983">
        <ele>179.0</ele>
        <time>2018-06-10T06:09:38.094Z</time>
      </trkpt>
      <trkpt lat="38.72631633" lon="0.077621">
        <ele>178.0</ele>
        <time>2018-06-10T06:09:39.094Z</time>
      </trkpt>
      <trkpt lat="38.72631867" lon="0.07781067">
        <ele>178.0</ele>
        <time>2018-06-10T06:09:40.094Z</time>
      </trkpt>
      <trkpt lat="38.72632" lon="0.07799767">
        <ele>178.0</ele>
        <time>2018-06-10T06:09:41.094Z</time>
      </trkpt>
      <trkpt lat="38.72632133" lon="0.07818083">
        <ele>178.0</ele>
        <time>2018-06-10T06:09:42.094Z</time>
      </trkpt>
      <trkpt lat="38.72632317" lon="0.078359">
        <ele>178.0</ele>
        <time>2018-06-10T06:09:43.094Z</time>
      </trkpt>
      <trkpt lat="38.7263255" lon="0.07853133">
        <ele>178.0</ele>
        <time>2018-06-10T06:09:44.094Z</time>
      </trkpt>
      <trkpt lat="38.7263285" lon="0.07869767">
        <ele>178.0</ele>
        <time>2018-06-10T06:09:45.094Z</time>
      </trkpt>
      <trkpt lat="38.72633283" lon="0.07885933">
        <ele>178.0</ele>
        <time>2018-06-10T06:09:46.094Z</time>
      </trkpt>
      <trkpt lat="38.7263385" lon="0.07901817">
        <ele>178.0</ele>
        <time>2018-06-10T06:09:47.094Z</time>
      </trkpt>
      <trkpt lat="38.7263485" lon="0.07917783">
        <ele>178.0</ele>
        <time>2018-06-10T06:09:48.094Z</time>
      </trkpt>
      <trkpt lat="38.72636333" lon="0.07933867">
        <ele>178.0</ele>
        <time>2018-06-10T06:09:49.094Z</time>
      </trkpt>
      <trkpt lat="38.72638683" lon="0.07950067">
        <ele>177.0</ele>
        <time>2018-06-10T06:09:50.094Z</time>
      </trkpt>
      <trkpt lat="38.72642033" lon="0.079659">
        <ele>176.0</ele>
        <time>2018-06-10T06:09:51.094Z</time>
      </trkpt>
      <trkpt lat="38.726469" lon="0.07981083">
        <ele>176.0</ele>
        <time>2018-06-10T06:09:52.094Z</time>
      </trkpt>
      <trkpt lat="38.7265455" lon="0.07995167">
        <ele>177.0</ele>
        <time>2018-06-10T06:09:53.094Z</time>
      </trkpt>
      <trkpt lat="38.72664383" lon="0.08007967">
        <ele>177.0</ele>
        <time>2018-06-10T06:09:54.094Z</time>
      </trkpt>
      <trkpt lat="38.72675383" lon="0.08019433">
        <ele>176.0</ele>
        <time>2018-06-10T06:09:55.094Z</time>
      </trkpt>
      <trkpt lat="38.72686117" lon="0.08029933">
        <ele>175.0</ele>
        <time>2018-06-10T06:09:56.094Z</time>
      </trkpt>
      <trkpt lat="38.72697" lon="0.0804">
        <ele>174.0</ele>
        <time>2018-06-10T06:09:57.094Z</time>
      </trkpt>
      <trkpt lat="38.72708217" lon="0.08050233">
        <ele>173.0</ele>
        <time>2018-06-10T06:09:58.094Z</time>
      </trkpt>
      <trkpt lat="38.7271965" lon="0.08060733">
        <ele>172.0</ele>
        <time>2018-06-10T06:09:59.094Z</time>
      </trkpt>
      <trkpt lat="38.72730917" lon="0.08071533">
        <ele>172.0</ele>
        <time>2018-06-10T06:10:00.094Z</time>
      </trkpt>
      <trkpt lat="38.72741817" lon="0.080828">
        <ele>171.0</ele>
        <time>2018-06-10T06:10:01.094Z</time>
      </trkpt>
      <trkpt lat="38.727518" lon="0.080957">
        <ele>169.0</ele>
        <time>2018-06-10T06:10:02.094Z</time>
      </trkpt>
      <trkpt lat="38.72760183" lon="0.0811025">
        <ele>169.0</ele>
        <time>2018-06-10T06:10:03.094Z</time>
      </trkpt>
      <trkpt lat="38.72766583" lon="0.0812645">
        <ele>170.0</ele>
        <time>2018-06-10T06:10:04.094Z</time>
      </trkpt>
      <trkpt lat="38.72770717" lon="0.08143233">
        <ele>171.0</ele>
        <time>2018-06-10T06:10:05.094Z</time>
      </trkpt>
      <trkpt lat="38.72773117" lon="0.0816065">
        <ele>171.0</ele>
        <time>2018-06-10T06:10:06.094Z</time>
      </trkpt>
      <trkpt lat="38.72773883" lon="0.081781">
        <ele>172.0</ele>
        <time>2018-06-10T06:10:07.094Z</time>
      </trkpt>
      <trkpt lat="38.7277315" lon="0.0819505">
        <ele>172.0</ele>
        <time>2018-06-10T06:10:08.094Z</time>
      </trkpt>
      <trkpt lat="38.72771467" lon="0.08211333">
        <ele>172.0</ele>
        <time>2018-06-10T06:10:09.094Z</time>
      </trkpt>
      <trkpt lat="38.72769617" lon="0.0822715">
        <ele>172.0</ele>
        <time>2018-06-10T06:10:10.094Z</time>
      </trkpt>
      <trkpt lat="38.72768283" lon="0.0824285">
        <ele>172.0</ele>
        <time>2018-06-10T06:10:11.094Z</time>
      </trkpt>
      <trkpt lat="38.72767233" lon="0.08258417">
        <ele>172.0</ele>
        <time>2018-06-10T06:10:12.094Z</time>
      </trkpt>
      <trkpt lat="38.72766183" lon="0.082738">
        <ele>173.0</ele>
        <time>2018-06-10T06:10:13.094Z</time>
      </trkpt>
      <trkpt lat="38.72765083" lon="0.08289067">
        <ele>173.0</ele>
        <time>2018-06-10T06:10:14.094Z</time>
      </trkpt>
      <trkpt lat="38.72763917" lon="0.08304217">
        <ele>173.0</ele>
        <time>2018-06-10T06:10:15.094Z</time>
      </trkpt>
      <trkpt lat="38.727629" lon="0.0831935">
        <ele>173.0</ele>
        <time>2018-06-10T06:10:16.094Z</time>
      </trkpt>
      <trkpt lat="38.72762017" lon="0.08334483">
        <ele>172.0</ele>
        <time>2018-06-10T06:10:17.094Z</time>
      </trkpt>
      <trkpt lat="38.72761267" lon="0.08349617">
        <ele>172.0</ele>
        <time>2018-06-10T06:10:18.094Z</time>
      </trkpt>
      <trkpt lat="38.727609" lon="0.08364767">
        <ele>172.0</ele>
        <time>2018-06-10T06:10:19.094Z</time>
      </trkpt>
      <trkpt lat="38.72761083" lon="0.08379933">
        <ele>172.0</ele>
        <time>2018-06-10T06:10:20.094Z</time>
      </trkpt>
      <trkpt lat="38.72761933" lon="0.08394983">
        <ele>172.0</ele>
        <time>2018-06-10T06:10:21.094Z</time>
      </trkpt>
      <trkpt lat="38.7276375" lon="0.08409767">
        <ele>172.0</ele>
        <time>2018-06-10T06:10:22.094Z</time>
      </trkpt>
      <trkpt lat="38.72766367" lon="0.08424133">
        <ele>171.0</ele>
        <time>2018-06-10T06:10:23.094Z</time>
      </trkpt>
      <trkpt lat="38.72769533" lon="0.08438117">
        <ele>171.0</ele>
        <time>2018-06-10T06:10:24.094Z</time>
      </trkpt>
      <trkpt lat="38.72772717" lon="0.08451817">
        <ele>170.0</ele>
        <time>2018-06-10T06:10:25.094Z</time>
      </trkpt>
      <trkpt lat="38.72776133" lon="0.08465417">
        <ele>170.0</ele>
        <time>2018-06-10T06:10:26.094Z</time>
      </trkpt>
      <trkpt lat="38.72779883" lon="0.084791">
        <ele>169.0</ele>
        <time>2018-06-10T06:10:27.094Z</time>
      </trkpt>
      <trkpt lat="38.72783817" lon="0.084929">
        <ele>169.0</ele>
        <time>2018-06-10T06:10:28.094Z</time>
      </trkpt>
      <trkpt lat="38.727876" lon="0.08506767">
        <ele>168.0</ele>
        <time>2018-06-10T06:10:29.094Z</time>
      </trkpt>
      <trkpt lat="38.72791317" lon="0.0852065">
        <ele>168.0</ele>
        <time>2018-06-10T06:10:30.094Z</time>
      </trkpt>
      <trkpt lat="38.72794933" lon="0.0853455">
        <ele>168.0</ele>
        <time>2018-06-10T06:10:31.094Z</time>
      </trkpt>
      <trkpt lat="38.72798567" lon="0.08548483">
        <ele>167.0</ele>
        <time>2018-06-10T06:10:32.094Z</time>
      </trkpt>
      <trkpt lat="38.72802217" lon="0.0856245">
        <ele>167.0</ele>
        <time>2018-06-10T06:10:33.094Z</time>
      </trkpt>
      <trkpt lat="38.72806033" lon="0.085765">
        <ele>167.0</ele>
        <time>2018-06-10T06:10:34.094Z</time>
      </trkpt>
      <trkpt lat="38.72809933" lon="0.08590617">
        <ele>166.0</ele>
        <time>2018-06-10T06:10:35.094Z</time>
      </trkpt>
      <trkpt lat="38.7281395" lon="0.08604833">
        <ele>166.0</ele>
        <time>2018-06-10T06:10:36.094Z</time>
      </trkpt>
      <trkpt lat="38.72818017" lon="0.08619117">
        <ele>166.0</ele>
        <time>2018-06-10T06:10:37.094Z</time>
      </trkpt>
      <trkpt lat="38.72822117" lon="0.08633417">
        <ele>166.0</ele>
        <time>2018-06-10T06:10:38.094Z</time>
      </trkpt>
      <trkpt lat="38.72826117" lon="0.08647717">
        <ele>165.0</ele>
        <time>2018-06-10T06:10:39.094Z</time>
      </trkpt>
      <trkpt lat="38.7283005" lon="0.08662033">
        <ele>165.0</ele>
        <time>2018-06-10T06:10:40.094Z</time>
      </trkpt>
      <trkpt lat="38.72834" lon="0.08676333">
        <ele>164.0</ele>
        <time>2018-06-10T06:10:41.094Z</time>
      </trkpt>
      <trkpt lat="38.7283795" lon="0.086906">
        <ele>164.0</ele>
        <time>2018-06-10T06:10:42.094Z</time>
      </trkpt>
      <trkpt lat="38.7284195" lon="0.08704833">
        <ele>164.0</ele>
        <time>2018-06-10T06:10:43.094Z</time>
      </trkpt>
      <trkpt lat="38.72845817" lon="0.0871905">
        <ele>163.0</ele>
        <time>2018-06-10T06:10:44.094Z</time>
      </trkpt>
      <trkpt lat="38.72849717" lon="0.08733233">
        <ele>163.0</ele>
        <time>2018-06-10T06:10:45.094Z</time>
      </trkpt>
      <trkpt lat="38.72853667" lon="0.08747383">
        <ele>162.0</ele>
        <time>2018-06-10T06:10:46.094Z</time>
      </trkpt>
      <trkpt lat="38.72857717" lon="0.0876145">
        <ele>162.0</ele>
        <time>2018-06-10T06:10:47.094Z</time>
      </trkpt>
      <trkpt lat="38.72861633" lon="0.08775483">
        <ele>161.0</ele>
        <time>2018-06-10T06:10:48.094Z</time>
      </trkpt>
      <trkpt lat="38.7286545" lon="0.087895">
        <ele>161.0</ele>
        <time>2018-06-10T06:10:49.094Z</time>
      </trkpt>
      <trkpt lat="38.72869233" lon="0.08803617">
        <ele>161.0</ele>
        <time>2018-06-10T06:10:50.094Z</time>
      </trkpt>
      <trkpt lat="38.728731" lon="0.0881775">
        <ele>160.0</ele>
        <time>2018-06-10T06:10:51.094Z</time>
      </trkpt>
      <trkpt lat="38.72877117" lon="0.0883185">
        <ele>160.0</ele>
        <time>2018-06-10T06:10:52.094Z</time>
      </trkpt>
      <trkpt lat="38.728812" lon="0.08845967">
        <ele>159.0</ele>
        <time>2018-06-10T06:10:53.094Z</time>
      </trkpt>
      <trkpt lat="38.72885233" lon="0.08860067">
        <ele>159.0</ele>
        <time>2018-06-10T06:10:54.094Z</time>
      </trkpt>
      <trkpt lat="38.72889133" lon="0.0887415">
        <ele>159.0</ele>
        <time>2018-06-10T06:10:55.094Z</time>
      </trkpt>
      <trkpt lat="38.728931" lon="0.08888117">
        <ele>158.0</ele>
        <time>2018-06-10T06:10:56.094Z</time>
      </trkpt>
      <trkpt lat="38.728975" lon="0.0890185">
        <ele>158.0</ele>
        <time>2018-06-10T06:10:57.094Z</time>
      </trkpt>
      <trkpt lat="38.72902367" lon="0.08915267">
        <ele>157.0</ele>
        <time>2018-06-10T06:10:58.094Z</time>
      </trkpt>
      <trkpt lat="38.72907817" lon="0.08928417">
        <ele>156.0</ele>
        <time>2018-06-10T06:10:59.094Z</time>
      </trkpt>
      <trkpt lat="38.72913933" lon="0.089416">
        <ele>155.0</ele>
        <time>2018-06-10T06:11:00.094Z</time>
      </trkpt>
      <trkpt lat="38.72920817" lon="0.08955017">
        <ele>155.0</ele>
        <time>2018-06-10T06:11:01.094Z</time>
      </trkpt>
      <trkpt lat="38.7292825" lon="0.08968533">
        <ele>154.0</ele>
        <time>2018-06-10T06:11:02.094Z</time>
      </trkpt>
      <trkpt lat="38.72935817" lon="0.0898205">
        <ele>153.0</ele>
        <time>2018-06-10T06:11:03.094Z</time>
      </trkpt>
      <trkpt lat="38.729433" lon="0.08995383">
        <ele>153.0</ele>
        <time>2018-06-10T06:11:04.094Z</time>
      </trkpt>
      <trkpt lat="38.7295075" lon="0.09008617">
        <ele>153.0</ele>
        <time>2018-06-10T06:11:05.094Z</time>
      </trkpt>
      <trkpt lat="38.729584" lon="0.090217">
        <ele>152.0</ele>
        <time>2018-06-10T06:11:06.094Z</time>
      </trkpt>
      <trkpt lat="38.729662" lon="0.090347">
        <ele>152.0</ele>
        <time>2018-06-10T06:11:07.094Z</time>
      </trkpt>
      <trkpt lat="38.72974083" lon="0.0904765">
        <ele>152.0</ele>
        <time>2018-06-10T06:11:08.094Z</time>
      </trkpt>
      <trkpt lat="38.72981917" lon="0.09060533">
        <ele>151.0</ele>
        <time>2018-06-10T06:11:09.094Z</time>
      </trkpt>
      <trkpt lat="38.72989783" lon="0.09073317">
        <ele>151.0</ele>
        <time>2018-06-10T06:11:10.094Z</time>
      </trkpt>
      <trkpt lat="38.72997583" lon="0.09085767">
        <ele>151.0</ele>
        <time>2018-06-10T06:11:11.094Z</time>
      </trkpt>
      <trkpt lat="38.73005283" lon="0.0909825">
        <ele>151.0</ele>
        <time>2018-06-10T06:11:12.094Z</time>
      </trkpt>
      <trkpt lat="38.73012833" lon="0.09110783">
        <ele>151.0</ele>
        <time>2018-06-10T06:11:13.094Z</time>
      </trkpt>
      <trkpt lat="38.73019817" lon="0.0912365">
        <ele>151.0</ele>
        <time>2018-06-10T06:11:14.094Z</time>
      </trkpt>
      <trkpt lat="38.730261" lon="0.09136617">
        <ele>151.0</ele>
        <time>2018-06-10T06:11:15.094Z</time>
      </trkpt>
      <trkpt lat="38.73030383" lon="0.09149283">
        <ele>150.0</ele>
        <time>2018-06-10T06:11:16.094Z</time>
      </trkpt>
      <trkpt lat="38.73032883" lon="0.09161617">
        <ele>150.0</ele>
        <time>2018-06-10T06:11:17.094Z</time>
      </trkpt>
      <trkpt lat="38.73034733" lon="0.09173483">
        <ele>150.0</ele>
        <time>2018-06-10T06:11:18.094Z</time>
      </trkpt>
      <trkpt lat="38.7303775" lon="0.09184783">
        <ele>150.0</ele>
        <time>2018-06-10T06:11:19.094Z</time>
      </trkpt>
      <trkpt lat="38.73042833" lon="0.091948">
        <ele>150.0</ele>
        <time>2018-06-10T06:11:20.094Z</time>
      </trkpt>
      <trkpt lat="38.73049417" lon="0.09202833">
        <ele>150.0</ele>
        <time>2018-06-10T06:11:21.094Z</time>
      </trkpt>
      <trkpt lat="38.73056783" lon="0.092091">
        <ele>149.0</ele>
        <time>2018-06-10T06:11:22.094Z</time>
      </trkpt>
      <trkpt lat="38.73064217" lon="0.09214317">
        <ele>149.0</ele>
        <time>2018-06-10T06:11:23.094Z</time>
      </trkpt>
      <trkpt lat="38.73071167" lon="0.09219567">
        <ele>149.0</ele>
        <time>2018-06-10T06:11:24.094Z</time>
      </trkpt>
      <trkpt lat="38.730778" lon="0.0922565">
        <ele>150.0</ele>
        <time>2018-06-10T06:11:25.094Z</time>
      </trkpt>
      <trkpt lat="38.73083883" lon="0.09232617">
        <ele>149.0</ele>
        <time>2018-06-10T06:11:26.094Z</time>
      </trkpt>
      <trkpt lat="38.7308935" lon="0.092403">
        <ele>149.0</ele>
        <time>2018-06-10T06:11:27.094Z</time>
      </trkpt>
      <trkpt lat="38.73094233" lon="0.09248133">
        <ele>149.0</ele>
        <time>2018-06-10T06:11:28.094Z</time>
      </trkpt>
      <trkpt lat="38.73098767" lon="0.0925595">
        <ele>150.0</ele>
        <time>2018-06-10T06:11:29.094Z</time>
      </trkpt>
      <trkpt lat="38.73103283" lon="0.09263633">
        <ele>149.0</ele>
        <time>2018-06-10T06:11:30.094Z</time>
      </trkpt>
      <trkpt lat="38.7310795" lon="0.0927115">
        <ele>150.0</ele>
        <time>2018-06-10T06:11:31.094Z</time>
      </trkpt>
      <trkpt lat="38.7311275" lon="0.092788">
        <ele>150.0</ele>
        <time>2018-06-10T06:11:32.094Z</time>
      </trkpt>
      <trkpt lat="38.73117517" lon="0.09286383">
        <ele>150.0</ele>
        <time>2018-06-10T06:11:33.094Z</time>
      </trkpt>
      <trkpt lat="38.73122183" lon="0.0929405">
        <ele>150.0</ele>
        <time>2018-06-10T06:11:34.094Z</time>
      </trkpt>
      <trkpt lat="38.73126833" lon="0.09301583">
        <ele>149.0</ele>
        <time>2018-06-10T06:11:35.094Z</time>
      </trkpt>
      <trkpt lat="38.731316" lon="0.09309383">
        <ele>149.0</ele>
        <time>2018-06-10T06:11:36.094Z</time>
      </trkpt>
      <trkpt lat="38.73136483" lon="0.09317467">
        <ele>149.0</ele>
        <time>2018-06-10T06:11:37.094Z</time>
      </trkpt>
      <trkpt lat="38.73141367" lon="0.0932585">
        <ele>149.0</ele>
        <time>2018-06-10T06:11:38.094Z</time>
      </trkpt>
      <trkpt lat="38.73146317" lon="0.0933455">
        <ele>149.0</ele>
        <time>2018-06-10T06:11:39.094Z</time>
      </trkpt>
      <trkpt lat="38.73151417" lon="0.09343567">
        <ele>149.0</ele>
        <time>2018-06-10T06:11:40.094Z</time>
      </trkpt>
      <trkpt lat="38.7315675" lon="0.09352817">
        <ele>149.0</ele>
        <time>2018-06-10T06:11:41.094Z</time>
      </trkpt>
      <trkpt lat="38.7316205" lon="0.0936195">
        <ele>149.0</ele>
        <time>2018-06-10T06:11:42.094Z</time>
      </trkpt>
      <trkpt lat="38.731674" lon="0.093709">
        <ele>149.0</ele>
        <time>2018-06-10T06:11:43.094Z</time>
      </trkpt>
      <trkpt lat="38.73172517" lon="0.093796">
        <ele>149.0</ele>
        <time>2018-06-10T06:11:44.094Z</time>
      </trkpt>
      <trkpt lat="38.73177867" lon="0.093884">
        <ele>149.0</ele>
        <time>2018-06-10T06:11:45.094Z</time>
      </trkpt>
      <trkpt lat="38.73183133" lon="0.09397233">
        <ele>149.0</ele>
        <time>2018-06-10T06:11:46.094Z</time>
      </trkpt>
      <trkpt lat="38.7318855" lon="0.09406067">
        <ele>149.0</ele>
        <time>2018-06-10T06:11:47.094Z</time>
      </trkpt>
      <trkpt lat="38.73193933" lon="0.09414767">
        <ele>149.0</ele>
        <time>2018-06-10T06:11:48.094Z</time>
      </trkpt>
      <trkpt lat="38.731994" lon="0.0942335">
        <ele>149.0</ele>
        <time>2018-06-10T06:11:49.094Z</time>
      </trkpt>
      <trkpt lat="38.73204917" lon="0.09431783">
        <ele>149.0</ele>
        <time>2018-06-10T06:11:50.094Z</time>
      </trkpt>
      <trkpt lat="38.73210583" lon="0.09439833">
        <ele>149.0</ele>
        <time>2018-06-10T06:11:51.094Z</time>
      </trkpt>
      <trkpt lat="38.732165" lon="0.0944735">
        <ele>149.0</ele>
        <time>2018-06-10T06:11:52.094Z</time>
      </trkpt>
      <trkpt lat="38.73223" lon="0.09454133">
        <ele>149.0</ele>
        <time>2018-06-10T06:11:53.094Z</time>
      </trkpt>
      <trkpt lat="38.73229983" lon="0.09460083">
        <ele>149.0</ele>
        <time>2018-06-10T06:11:54.094Z</time>
      </trkpt>
      <trkpt lat="38.732374" lon="0.09465083">
        <ele>148.0</ele>
        <time>2018-06-10T06:11:55.094Z</time>
      </trkpt>
      <trkpt lat="38.7324505" lon="0.0946915">
        <ele>148.0</ele>
        <time>2018-06-10T06:11:56.094Z</time>
      </trkpt>
      <trkpt lat="38.732529" lon="0.094724">
        <ele>147.0</ele>
        <time>2018-06-10T06:11:57.094Z</time>
      </trkpt>
      <trkpt lat="38.73260967" lon="0.09474817">
        <ele>146.0</ele>
        <time>2018-06-10T06:11:58.094Z</time>
      </trkpt>
      <trkpt lat="38.73269217" lon="0.09476817">
        <ele>146.0</ele>
        <time>2018-06-10T06:11:59.094Z</time>
      </trkpt>
      <trkpt lat="38.7327755" lon="0.094784">
        <ele>146.0</ele>
        <time>2018-06-10T06:12:00.094Z</time>
      </trkpt>
      <trkpt lat="38.73285967" lon="0.09479867">
        <ele>145.0</ele>
        <time>2018-06-10T06:12:01.094Z</time>
      </trkpt>
      <trkpt lat="38.732944" lon="0.09481167">
        <ele>145.0</ele>
        <time>2018-06-10T06:12:02.094Z</time>
      </trkpt>
      <trkpt lat="38.73302917" lon="0.094824">
        <ele>145.0</ele>
        <time>2018-06-10T06:12:03.094Z</time>
      </trkpt>
      <trkpt lat="38.7331155" lon="0.09483583">
        <ele>144.0</ele>
        <time>2018-06-10T06:12:04.094Z</time>
      </trkpt>
      <trkpt lat="38.73320283" lon="0.09484667">
        <ele>144.0</ele>
        <time>2018-06-10T06:12:05.094Z</time>
      </trkpt>
      <trkpt lat="38.73329067" lon="0.0948575">
        <ele>144.0</ele>
        <time>2018-06-10T06:12:06.094Z</time>
      </trkpt>
      <trkpt lat="38.73337833" lon="0.094869">
        <ele>144.0</ele>
        <time>2018-06-10T06:12:07.094Z</time>
      </trkpt>
      <trkpt lat="38.73346567" lon="0.09488083">
        <ele>143.0</ele>
        <time>2018-06-10T06:12:08.094Z</time>
      </trkpt>
      <trkpt lat="38.7335525" lon="0.094893">
        <ele>143.0</ele>
        <time>2018-06-10T06:12:09.094Z</time>
      </trkpt>
      <trkpt lat="38.733639" lon="0.09490483">
        <ele>143.0</ele>
        <time>2018-06-10T06:12:10.094Z</time>
      </trkpt>
      <trkpt lat="38.73372567" lon="0.09491617">
        <ele>143.0</ele>
        <time>2018-06-10T06:12:11.094Z</time>
      </trkpt>
      <trkpt lat="38.73381233" lon="0.09492683">
        <ele>143.0</ele>
        <time>2018-06-10T06:12:12.094Z</time>
      </trkpt>
      <trkpt lat="38.73389883" lon="0.09493767">
        <ele>143.0</ele>
        <time>2018-06-10T06:12:13.094Z</time>
      </trkpt>
      <trkpt lat="38.7339845" lon="0.09494917">
        <ele>143.0</ele>
        <time>2018-06-10T06:12:14.094Z</time>
      </trkpt>
      <trkpt lat="38.7340685" lon="0.09496167">
        <ele>142.0</ele>
        <time>2018-06-10T06:12:15.094Z</time>
      </trkpt>
      <trkpt lat="38.734151" lon="0.09497367">
        <ele>142.0</ele>
        <time>2018-06-10T06:12:16.094Z</time>
      </trkpt>
      <trkpt lat="38.73423267" lon="0.09498467">
        <ele>142.0</ele>
        <time>2018-06-10T06:12:17.094Z</time>
      </trkpt>
      <trkpt lat="38.7343135" lon="0.0949955">
        <ele>142.0</ele>
        <time>2018-06-10T06:12:18.094Z</time>
      </trkpt>
      <trkpt lat="38.73439317" lon="0.09500667">
        <ele>142.0</ele>
        <time>2018-06-10T06:12:19.094Z</time>
      </trkpt>
      <trkpt lat="38.73447133" lon="0.09501717">
        <ele>142.0</ele>
        <time>2018-06-10T06:12:20.094Z</time>
      </trkpt>
      <trkpt lat="38.734548" lon="0.09502817">
        <ele>142.0</ele>
        <time>2018-06-10T06:12:21.094Z</time>
      </trkpt>
      <trkpt lat="38.734624" lon="0.09503867">
        <ele>143.0</ele>
        <time>2018-06-10T06:12:22.094Z</time>
      </trkpt>
      <trkpt lat="38.734699" lon="0.0950495">
        <ele>143.0</ele>
        <time>2018-06-10T06:12:23.094Z</time>
      </trkpt>
      <trkpt lat="38.73477367" lon="0.09506">
        <ele>143.0</ele>
        <time>2018-06-10T06:12:24.094Z</time>
      </trkpt>
      <trkpt lat="38.73484767" lon="0.09507033">
        <ele>143.0</ele>
        <time>2018-06-10T06:12:25.094Z</time>
      </trkpt>
      <trkpt lat="38.73492083" lon="0.09508083">
        <ele>143.0</ele>
        <time>2018-06-10T06:12:26.094Z</time>
      </trkpt>
      <trkpt lat="38.73499333" lon="0.09509017">
        <ele>143.0</ele>
        <time>2018-06-10T06:12:27.094Z</time>
      </trkpt>
      <trkpt lat="38.73506483" lon="0.09509867">
        <ele>143.0</ele>
        <time>2018-06-10T06:12:28.094Z</time>
      </trkpt>
      <trkpt lat="38.7351355" lon="0.09510717">
        <ele>143.0</ele>
        <time>2018-06-10T06:12:29.094Z</time>
      </trkpt>
      <trkpt lat="38.735205" lon="0.09511617">
        <ele>143.0</ele>
        <time>2018-06-10T06:12:30.094Z</time>
      </trkpt>
      <trkpt lat="38.73527333" lon="0.09512583">
        <ele>143.0</ele>
        <time>2018-06-10T06:12:31.094Z</time>
      </trkpt>
      <trkpt lat="38.73534017" lon="0.09513467">
        <ele>143.0</ele>
        <time>2018-06-10T06:12:32.094Z</time>
      </trkpt>
      <trkpt lat="38.73540583" lon="0.09514267">
        <ele>143.0</ele>
        <time>2018-06-10T06:12:33.094Z</time>
      </trkpt>
      <trkpt lat="38.73547167" lon="0.09515">
        <ele>143.0</ele>
        <time>2018-06-10T06:12:34.094Z</time>
      </trkpt>
      <trkpt lat="38.73553917" lon="0.0951575">
        <ele>143.0</ele>
        <time>2018-06-10T06:12:35.094Z</time>
      </trkpt>
      <trkpt lat="38.7356095" lon="0.0951655">
        <ele>143.0</ele>
        <time>2018-06-10T06:12:36.094Z</time>
      </trkpt>
      <trkpt lat="38.73568233" lon="0.09517433">
        <ele>143.0</ele>
        <time>2018-06-10T06:12:37.094Z</time>
      </trkpt>
      <trkpt lat="38.73575667" lon="0.09518367">
        <ele>143.0</ele>
        <time>2018-06-10T06:12:38.094Z</time>
      </trkpt>
      <trkpt lat="38.735831" lon="0.09519417">
        <ele>143.0</ele>
        <time>2018-06-10T06:12:39.094Z</time>
      </trkpt>
      <trkpt lat="38.73590517" lon="0.09520417">
        <ele>143.0</ele>
        <time>2018-06-10T06:12:40.094Z</time>
      </trkpt>
      <trkpt lat="38.73597867" lon="0.09521367">
        <ele>143.0</ele>
        <time>2018-06-10T06:12:41.094Z</time>
      </trkpt>
      <trkpt lat="38.73605217" lon="0.0952225">
        <ele>143.0</ele>
        <time>2018-06-10T06:12:42.094Z</time>
      </trkpt>
      <trkpt lat="38.73612567" lon="0.09523167">
        <ele>143.0</ele>
        <time>2018-06-10T06:12:43.094Z</time>
      </trkpt>
      <trkpt lat="38.73619967" lon="0.09524183">
        <ele>143.0</ele>
        <time>2018-06-10T06:12:44.094Z</time>
      </trkpt>
      <trkpt lat="38.73627483" lon="0.09525217">
        <ele>143.0</ele>
        <time>2018-06-10T06:12:45.094Z</time>
      </trkpt>
      <trkpt lat="38.73635067" lon="0.09526283">
        <ele>143.0</ele>
        <time>2018-06-10T06:12:46.094Z</time>
      </trkpt>
      <trkpt lat="38.73642667" lon="0.0952725">
        <ele>143.0</ele>
        <time>2018-06-10T06:12:47.094Z</time>
      </trkpt>
      <trkpt lat="38.73650217" lon="0.09528167">
        <ele>143.0</ele>
        <time>2018-06-10T06:12:48.094Z</time>
      </trkpt>
      <trkpt lat="38.73657717" lon="0.09528833">
        <ele>142.0</ele>
        <time>2018-06-10T06:12:49.094Z</time>
      </trkpt>
      <trkpt lat="38.73665183" lon="0.0952935">
        <ele>142.0</ele>
        <time>2018-06-10T06:12:50.094Z</time>
      </trkpt>
      <trkpt lat="38.73672633" lon="0.09529717">
        <ele>142.0</ele>
        <time>2018-06-10T06:12:51.094Z</time>
      </trkpt>
      <trkpt lat="38.73680083" lon="0.09529967">
        <ele>142.0</ele>
        <time>2018-06-10T06:12:52.094Z</time>
      </trkpt>
      <trkpt lat="38.7368755" lon="0.095301">
        <ele>142.0</ele>
        <time>2018-06-10T06:12:53.094Z</time>
      </trkpt>
      <trkpt lat="38.73695033" lon="0.09530083">
        <ele>141.0</ele>
        <time>2018-06-10T06:12:54.094Z</time>
      </trkpt>
      <trkpt lat="38.73702567" lon="0.0953">
        <ele>141.0</ele>
        <time>2018-06-10T06:12:55.094Z</time>
      </trkpt>
      <trkpt lat="38.73710183" lon="0.09529883">
        <ele>141.0</ele>
        <time>2018-06-10T06:12:56.094Z</time>
      </trkpt>
      <trkpt lat="38.737179" lon="0.095297">
        <ele>141.0</ele>
        <time>2018-06-10T06:12:57.094Z</time>
      </trkpt>
      <trkpt lat="38.737257" lon="0.09529533">
        <ele>141.0</ele>
        <time>2018-06-10T06:12:58.094Z</time>
      </trkpt>
      <trkpt lat="38.73733483" lon="0.09529317">
        <ele>140.0</ele>
        <time>2018-06-10T06:12:59.094Z</time>
      </trkpt>
      <trkpt lat="38.7374145" lon="0.09529083">
        <ele>140.0</ele>
        <time>2018-06-10T06:13:00.094Z</time>
      </trkpt>
      <trkpt lat="38.73749417" lon="0.09528833">
        <ele>140.0</ele>
        <time>2018-06-10T06:13:01.094Z</time>
      </trkpt>
      <trkpt lat="38.73757467" lon="0.0952865">
        <ele>139.0</ele>
        <time>2018-06-10T06:13:02.094Z</time>
      </trkpt>
      <trkpt lat="38.73765367" lon="0.09528567">
        <ele>139.0</ele>
        <time>2018-06-10T06:13:03.094Z</time>
      </trkpt>
      <trkpt lat="38.73773283" lon="0.09528433">
        <ele>139.0</ele>
        <time>2018-06-10T06:13:04.094Z</time>
      </trkpt>
      <trkpt lat="38.737812" lon="0.0952825">
        <ele>139.0</ele>
        <time>2018-06-10T06:13:05.094Z</time>
      </trkpt>
      <trkpt lat="38.73789133" lon="0.09528083">
        <ele>139.0</ele>
        <time>2018-06-10T06:13:06.094Z</time>
      </trkpt>
      <trkpt lat="38.73796983" lon="0.09527983">
        <ele>139.0</ele>
        <time>2018-06-10T06:13:07.094Z</time>
      </trkpt>
      <trkpt lat="38.7380475" lon="0.095279">
        <ele>139.0</ele>
        <time>2018-06-10T06:13:08.094Z</time>
      </trkpt>
      <trkpt lat="38.738124" lon="0.09527783">
        <ele>138.0</ele>
        <time>2018-06-10T06:13:09.094Z</time>
      </trkpt>
      <trkpt lat="38.73819883" lon="0.09527617">
        <ele>138.0</ele>
        <time>2018-06-10T06:13:10.094Z</time>
      </trkpt>
      <trkpt lat="38.73827233" lon="0.09527383">
        <ele>138.0</ele>
        <time>2018-06-10T06:13:11.094Z</time>
      </trkpt>
      <trkpt lat="38.738345" lon="0.09527083">
        <ele>138.0</ele>
        <time>2018-06-10T06:13:12.094Z</time>
      </trkpt>
      <trkpt lat="38.73841767" lon="0.095268">
        <ele>138.0</ele>
        <time>2018-06-10T06:13:13.094Z</time>
      </trkpt>
      <trkpt lat="38.73849033" lon="0.095266">
        <ele>138.0</ele>
        <time>2018-06-10T06:13:14.094Z</time>
      </trkpt>
      <trkpt lat="38.73856317" lon="0.09526467">
        <ele>138.0</ele>
        <time>2018-06-10T06:13:15.094Z</time>
      </trkpt>
      <trkpt lat="38.73863667" lon="0.09526283">
        <ele>137.0</ele>
        <time>2018-06-10T06:13:16.094Z</time>
      </trkpt>
      <trkpt lat="38.73871067" lon="0.09526017">
        <ele>137.0</ele>
        <time>2018-06-10T06:13:17.094Z</time>
      </trkpt>
      <trkpt lat="38.73878467" lon="0.095257">
        <ele>137.0</ele>
        <time>2018-06-10T06:13:18.094Z</time>
      </trkpt>
      <trkpt lat="38.738858" lon="0.09525467">
        <ele>137.0</ele>
        <time>2018-06-10T06:13:19.094Z</time>
      </trkpt>
      <trkpt lat="38.73893033" lon="0.09525283">
        <ele>137.0</ele>
        <time>2018-06-10T06:13:20.094Z</time>
      </trkpt>
      <trkpt lat="38.73900133" lon="0.0952515">
        <ele>137.0</ele>
        <time>2018-06-10T06:13:21.094Z</time>
      </trkpt>
      <trkpt lat="38.73907283" lon="0.09525167">
        <ele>137.0</ele>
        <time>2018-06-10T06:13:22.094Z</time>
      </trkpt>
      <trkpt lat="38.73914683" lon="0.09525317">
        <ele>137.0</ele>
        <time>2018-06-10T06:13:23.094Z</time>
      </trkpt>
      <trkpt lat="38.73922083" lon="0.09525417">
        <ele>137.0</ele>
        <time>2018-06-10T06:13:24.094Z</time>
      </trkpt>
      <trkpt lat="38.73929483" lon="0.095253">
        <ele>136.0</ele>
        <time>2018-06-10T06:13:25.094Z</time>
      </trkpt>
      <trkpt lat="38.73936733" lon="0.09525">
        <ele>136.0</ele>
        <time>2018-06-10T06:13:26.094Z</time>
      </trkpt>
      <trkpt lat="38.7394415" lon="0.09524567">
        <ele>136.0</ele>
        <time>2018-06-10T06:13:27.094Z</time>
      </trkpt>
      <trkpt lat="38.73951767" lon="0.09524117">
        <ele>136.0</ele>
        <time>2018-06-10T06:13:28.094Z</time>
      </trkpt>
      <trkpt lat="38.7395955" lon="0.095236">
        <ele>136.0</ele>
        <time>2018-06-10T06:13:29.094Z</time>
      </trkpt>
      <trkpt lat="38.73967433" lon="0.095232">
        <ele>136.0</ele>
        <time>2018-06-10T06:13:30.094Z</time>
      </trkpt>
      <trkpt lat="38.7397525" lon="0.09522783">
        <ele>136.0</ele>
        <time>2018-06-10T06:13:31.094Z</time>
      </trkpt>
      <trkpt lat="38.7398305" lon="0.09522567">
        <ele>136.0</ele>
        <time>2018-06-10T06:13:32.094Z</time>
      </trkpt>
      <trkpt lat="38.7399085" lon="0.09522467">
        <ele>136.0</ele>
        <time>2018-06-10T06:13:33.094Z</time>
      </trkpt>
      <trkpt lat="38.7399865" lon="0.09522533">
        <ele>136.0</ele>
        <time>2018-06-10T06:13:34.094Z</time>
      </trkpt>
      <trkpt lat="38.74006383" lon="0.095226">
        <ele>136.0</ele>
        <time>2018-06-10T06:13:35.094Z</time>
      </trkpt>
      <trkpt lat="38.74014033" lon="0.0952265">
        <ele>136.0</ele>
        <time>2018-06-10T06:13:36.094Z</time>
      </trkpt>
      <trkpt lat="38.74021617" lon="0.09522617">
        <ele>135.0</ele>
        <time>2018-06-10T06:13:37.094Z</time>
      </trkpt>
      <trkpt lat="38.74029167" lon="0.09522483">
        <ele>135.0</ele>
        <time>2018-06-10T06:13:38.094Z</time>
      </trkpt>
      <trkpt lat="38.74036717" lon="0.095223">
        <ele>135.0</ele>
        <time>2018-06-10T06:13:39.094Z</time>
      </trkpt>
      <trkpt lat="38.740443" lon="0.0952215">
        <ele>135.0</ele>
        <time>2018-06-10T06:13:40.094Z</time>
      </trkpt>
      <trkpt lat="38.74051917" lon="0.09522083">
        <ele>135.0</ele>
        <time>2018-06-10T06:13:41.094Z</time>
      </trkpt>
      <trkpt lat="38.74059583" lon="0.09522167">
        <ele>135.0</ele>
        <time>2018-06-10T06:13:42.094Z</time>
      </trkpt>
      <trkpt lat="38.74067267" lon="0.09522517">
        <ele>135.0</ele>
        <time>2018-06-10T06:13:43.094Z</time>
      </trkpt>
      <trkpt lat="38.74074983" lon="0.09523617">
        <ele>134.0</ele>
        <time>2018-06-10T06:13:44.094Z</time>
      </trkpt>
      <trkpt lat="38.74082567" lon="0.095255">
        <ele>134.0</ele>
        <time>2018-06-10T06:13:45.094Z</time>
      </trkpt>
      <trkpt lat="38.74090033" lon="0.09528267">
        <ele>134.0</ele>
        <time>2018-06-10T06:13:46.094Z</time>
      </trkpt>
      <trkpt lat="38.74097333" lon="0.09531617">
        <ele>134.0</ele>
        <time>2018-06-10T06:13:47.094Z</time>
      </trkpt>
      <trkpt lat="38.74104617" lon="0.09535417">
        <ele>134.0</ele>
        <time>2018-06-10T06:13:48.094Z</time>
      </trkpt>
      <trkpt lat="38.741119" lon="0.095394">
        <ele>134.0</ele>
        <time>2018-06-10T06:13:49.094Z</time>
      </trkpt>
      <trkpt lat="38.74119283" lon="0.09543333">
        <ele>134.0</ele>
        <time>2018-06-10T06:13:50.094Z</time>
      </trkpt>
      <trkpt lat="38.74126783" lon="0.095471">
        <ele>134.0</ele>
        <time>2018-06-10T06:13:51.094Z</time>
      </trkpt>
      <trkpt lat="38.74134383" lon="0.09550617">
        <ele>134.0</ele>
        <time>2018-06-10T06:13:52.094Z</time>
      </trkpt>
      <trkpt lat="38.741421" lon="0.09553883">
        <ele>134.0</ele>
        <time>2018-06-10T06:13:53.094Z</time>
      </trkpt>
      <trkpt lat="38.741499" lon="0.09556983">
        <ele>134.0</ele>
        <time>2018-06-10T06:13:54.094Z</time>
      </trkpt>
      <trkpt lat="38.7415775" lon="0.09559983">
        <ele>134.0</ele>
        <time>2018-06-10T06:13:55.094Z</time>
      </trkpt>
      <trkpt lat="38.74165467" lon="0.0956295">
        <ele>134.0</ele>
        <time>2018-06-10T06:13:56.094Z</time>
      </trkpt>
      <trkpt lat="38.74173067" lon="0.0956585">
        <ele>134.0</ele>
        <time>2018-06-10T06:13:57.094Z</time>
      </trkpt>
      <trkpt lat="38.741806" lon="0.09568667">
        <ele>134.0</ele>
        <time>2018-06-10T06:13:58.094Z</time>
      </trkpt>
      <trkpt lat="38.741881" lon="0.09571333">
        <ele>134.0</ele>
        <time>2018-06-10T06:13:59.094Z</time>
      </trkpt>
      <trkpt lat="38.74195667" lon="0.09573767">
        <ele>134.0</ele>
        <time>2018-06-10T06:14:00.094Z</time>
      </trkpt>
      <trkpt lat="38.7420325" lon="0.0957615">
        <ele>134.0</ele>
        <time>2018-06-10T06:14:01.094Z</time>
      </trkpt>
      <trkpt lat="38.74210767" lon="0.09578667">
        <ele>134.0</ele>
        <time>2018-06-10T06:14:02.094Z</time>
      </trkpt>
      <trkpt lat="38.74218233" lon="0.09581383">
        <ele>134.0</ele>
        <time>2018-06-10T06:14:03.094Z</time>
      </trkpt>
      <trkpt lat="38.742256" lon="0.095842">
        <ele>134.0</ele>
        <time>2018-06-10T06:14:04.094Z</time>
      </trkpt>
      <trkpt lat="38.74233017" lon="0.09587">
        <ele>133.0</ele>
        <time>2018-06-10T06:14:05.094Z</time>
      </trkpt>
      <trkpt lat="38.74240267" lon="0.0959015">
        <ele>133.0</ele>
        <time>2018-06-10T06:14:06.094Z</time>
      </trkpt>
      <trkpt lat="38.7424735" lon="0.09593767">
        <ele>133.0</ele>
        <time>2018-06-10T06:14:07.094Z</time>
      </trkpt>
      <trkpt lat="38.74254267" lon="0.0959815">
        <ele>133.0</ele>
        <time>2018-06-10T06:14:08.094Z</time>
      </trkpt>
      <trkpt lat="38.74260917" lon="0.09603317">
        <ele>133.0</ele>
        <time>2018-06-10T06:14:09.094Z</time>
      </trkpt>
      <trkpt lat="38.74267167" lon="0.09609117">
        <ele>133.0</ele>
        <time>2018-06-10T06:14:10.094Z</time>
      </trkpt>
      <trkpt lat="38.74273" lon="0.09615533">
        <ele>133.0</ele>
        <time>2018-06-10T06:14:11.094Z</time>
      </trkpt>
      <trkpt lat="38.74278383" lon="0.096225">
        <ele>132.0</ele>
        <time>2018-06-10T06:14:12.094Z</time>
      </trkpt>
      <trkpt lat="38.74283383" lon="0.0963025">
        <ele>132.0</ele>
        <time>2018-06-10T06:14:13.094Z</time>
      </trkpt>
      <trkpt lat="38.7428805" lon="0.09638483">
        <ele>132.0</ele>
        <time>2018-06-10T06:14:14.094Z</time>
      </trkpt>
      <trkpt lat="38.7429245" lon="0.09647067">
        <ele>132.0</ele>
        <time>2018-06-10T06:14:15.094Z</time>
      </trkpt>
      <trkpt lat="38.74296467" lon="0.09656133">
        <ele>132.0</ele>
        <time>2018-06-10T06:14:16.094Z</time>
      </trkpt>
      <trkpt lat="38.7430015" lon="0.09665467">
        <ele>132.0</ele>
        <time>2018-06-10T06:14:17.094Z</time>
      </trkpt>
      <trkpt lat="38.74303633" lon="0.09674983">
        <ele>132.0</ele>
        <time>2018-06-10T06:14:18.094Z</time>
      </trkpt>
      <trkpt lat="38.74307183" lon="0.0968445">
        <ele>132.0</ele>
        <time>2018-06-10T06:14:19.094Z</time>
      </trkpt>
      <trkpt lat="38.74310633" lon="0.09694183">
        <ele>132.0</ele>
        <time>2018-06-10T06:14:20.094Z</time>
      </trkpt>
      <trkpt lat="38.74313833" lon="0.09704133">
        <ele>132.0</ele>
        <time>2018-06-10T06:14:21.094Z</time>
      </trkpt>
      <trkpt lat="38.74316633" lon="0.09714333">
        <ele>132.0</ele>
        <time>2018-06-10T06:14:22.094Z</time>
      </trkpt>
      <trkpt lat="38.7431875" lon="0.0972485">
        <ele>132.0</ele>
        <time>2018-06-10T06:14:23.094Z</time>
      </trkpt>
      <trkpt lat="38.74320167" lon="0.0973575">
        <ele>132.0</ele>
        <time>2018-06-10T06:14:24.094Z</time>
      </trkpt>
      <trkpt lat="38.74320783" lon="0.09746967">
        <ele>132.0</ele>
        <time>2018-06-10T06:14:25.094Z</time>
      </trkpt>
      <trkpt lat="38.74320683" lon="0.097583">
        <ele>132.0</ele>
        <time>2018-06-10T06:14:26.094Z</time>
      </trkpt>
      <trkpt lat="38.74320117" lon="0.0976975">
        <ele>132.0</ele>
        <time>2018-06-10T06:14:27.094Z</time>
      </trkpt>
      <trkpt lat="38.7431905" lon="0.09781067">
        <ele>132.0</ele>
        <time>2018-06-10T06:14:28.094Z</time>
      </trkpt>
      <trkpt lat="38.7431765" lon="0.097925">
        <ele>133.0</ele>
        <time>2018-06-10T06:14:29.094Z</time>
      </trkpt>
      <trkpt lat="38.74316017" lon="0.09804033">
        <ele>133.0</ele>
        <time>2018-06-10T06:14:30.094Z</time>
      </trkpt>
      <trkpt lat="38.74315083" lon="0.09816067">
        <ele>132.0</ele>
        <time>2018-06-10T06:14:31.094Z</time>
      </trkpt>
      <trkpt lat="38.74315217" lon="0.09828417">
        <ele>132.0</ele>
        <time>2018-06-10T06:14:32.094Z</time>
      </trkpt>
      <trkpt lat="38.74316567" lon="0.0984105">
        <ele>132.0</ele>
        <time>2018-06-10T06:14:33.094Z</time>
      </trkpt>
      <trkpt lat="38.74318517" lon="0.0985365">
        <ele>132.0</ele>
        <time>2018-06-10T06:14:34.094Z</time>
      </trkpt>
      <trkpt lat="38.74320933" lon="0.09866383">
        <ele>132.0</ele>
        <time>2018-06-10T06:14:35.094Z</time>
      </trkpt>
      <trkpt lat="38.743234" lon="0.09879183">
        <ele>131.0</ele>
        <time>2018-06-10T06:14:36.094Z</time>
      </trkpt>
      <trkpt lat="38.74325933" lon="0.09892417">
        <ele>131.0</ele>
        <time>2018-06-10T06:14:37.094Z</time>
      </trkpt>
      <trkpt lat="38.74328417" lon="0.09905933">
        <ele>131.0</ele>
        <time>2018-06-10T06:14:38.094Z</time>
      </trkpt>
      <trkpt lat="38.74331233" lon="0.0991965">
        <ele>131.0</ele>
        <time>2018-06-10T06:14:39.094Z</time>
      </trkpt>
      <trkpt lat="38.74334633" lon="0.09933317">
        <ele>131.0</ele>
        <time>2018-06-10T06:14:40.094Z</time>
      </trkpt>
      <trkpt lat="38.743388" lon="0.09947">
        <ele>131.0</ele>
        <time>2018-06-10T06:14:41.094Z</time>
      </trkpt>
      <trkpt lat="38.74343617" lon="0.09960383">
        <ele>130.0</ele>
        <time>2018-06-10T06:14:42.094Z</time>
      </trkpt>
      <trkpt lat="38.74349367" lon="0.0997295">
        <ele>129.0</ele>
        <time>2018-06-10T06:14:43.094Z</time>
      </trkpt>
      <trkpt lat="38.74356183" lon="0.09983983">
        <ele>128.0</ele>
        <time>2018-06-10T06:14:44.094Z</time>
      </trkpt>
      <trkpt lat="38.7436435" lon="0.0999335">
        <ele>128.0</ele>
        <time>2018-06-10T06:14:45.094Z</time>
      </trkpt>
      <trkpt lat="38.74373383" lon="0.1000095">
        <ele>127.0</ele>
        <time>2018-06-10T06:14:46.094Z</time>
      </trkpt>
      <trkpt lat="38.74383483" lon="0.1000675">
        <ele>127.0</ele>
        <time>2018-06-10T06:14:47.094Z</time>
      </trkpt>
      <trkpt lat="38.74394517" lon="0.10010267">
        <ele>126.0</ele>
        <time>2018-06-10T06:14:48.094Z</time>
      </trkpt>
      <trkpt lat="38.744062" lon="0.1001155">
        <ele>126.0</ele>
        <time>2018-06-10T06:14:49.094Z</time>
      </trkpt>
      <trkpt lat="38.744181" lon="0.10011317">
        <ele>124.0</ele>
        <time>2018-06-10T06:14:50.094Z</time>
      </trkpt>
      <trkpt lat="38.74429883" lon="0.10010533">
        <ele>123.0</ele>
        <time>2018-06-10T06:14:51.094Z</time>
      </trkpt>
      <trkpt lat="38.74441783" lon="0.100098">
        <ele>122.0</ele>
        <time>2018-06-10T06:14:52.094Z</time>
      </trkpt>
      <trkpt lat="38.74453767" lon="0.10009117">
        <ele>122.0</ele>
        <time>2018-06-10T06:14:53.094Z</time>
      </trkpt>
      <trkpt lat="38.744658" lon="0.10008367">
        <ele>121.0</ele>
        <time>2018-06-10T06:14:54.094Z</time>
      </trkpt>
      <trkpt lat="38.74477867" lon="0.100076">
        <ele>120.0</ele>
        <time>2018-06-10T06:14:55.094Z</time>
      </trkpt>
      <trkpt lat="38.7448995" lon="0.10006883">
        <ele>119.0</ele>
        <time>2018-06-10T06:14:56.094Z</time>
      </trkpt>
      <trkpt lat="38.74502" lon="0.10006333">
        <ele>119.0</ele>
        <time>2018-06-10T06:14:57.094Z</time>
      </trkpt>
      <trkpt lat="38.74513983" lon="0.10006">
        <ele>119.0</ele>
        <time>2018-06-10T06:14:58.094Z</time>
      </trkpt>
      <trkpt lat="38.74525817" lon="0.10006883">
        <ele>118.0</ele>
        <time>2018-06-10T06:14:59.094Z</time>
      </trkpt>
      <trkpt lat="38.7453735" lon="0.10009117">
        <ele>118.0</ele>
        <time>2018-06-10T06:15:00.094Z</time>
      </trkpt>
      <trkpt lat="38.74548217" lon="0.100133">
        <ele>120.0</ele>
        <time>2018-06-10T06:15:01.094Z</time>
      </trkpt>
      <trkpt lat="38.7455825" lon="0.100194">
        <ele>120.0</ele>
        <time>2018-06-10T06:15:02.094Z</time>
      </trkpt>
      <trkpt lat="38.74567417" lon="0.10028667">
        <ele>119.0</ele>
        <time>2018-06-10T06:15:03.094Z</time>
      </trkpt>
      <trkpt lat="38.745759" lon="0.10040083">
        <ele>119.0</ele>
        <time>2018-06-10T06:15:04.094Z</time>
      </trkpt>
      <trkpt lat="38.74583417" lon="0.1005265">
        <ele>122.0</ele>
        <time>2018-06-10T06:15:05.094Z</time>
      </trkpt>
      <trkpt lat="38.74590133" lon="0.1006625">
        <ele>120.0</ele>
        <time>2018-06-10T06:15:06.094Z</time>
      </trkpt>
      <trkpt lat="38.745959" lon="0.10080783">
        <ele>120.0</ele>
        <time>2018-06-10T06:15:07.094Z</time>
      </trkpt>
      <trkpt lat="38.74600233" lon="0.10095517">
        <ele>119.0</ele>
        <time>2018-06-10T06:15:08.094Z</time>
      </trkpt>
      <trkpt lat="38.74603183" lon="0.101094">
        <ele>118.0</ele>
        <time>2018-06-10T06:15:09.094Z</time>
      </trkpt>
      <trkpt lat="38.74605567" lon="0.101234">
        <ele>118.0</ele>
        <time>2018-06-10T06:15:10.094Z</time>
      </trkpt>
      <trkpt lat="38.74608333" lon="0.10138183">
        <ele>118.0</ele>
        <time>2018-06-10T06:15:11.094Z</time>
      </trkpt>
      <trkpt lat="38.74611317" lon="0.10153517">
        <ele>118.0</ele>
        <time>2018-06-10T06:15:12.094Z</time>
      </trkpt>
      <trkpt lat="38.74613917" lon="0.101688">
        <ele>118.0</ele>
        <time>2018-06-10T06:15:13.094Z</time>
      </trkpt>
      <trkpt lat="38.74615333" lon="0.10183867">
        <ele>117.0</ele>
        <time>2018-06-10T06:15:14.094Z</time>
      </trkpt>
      <trkpt lat="38.74615033" lon="0.10198417">
        <ele>115.0</ele>
        <time>2018-06-10T06:15:15.094Z</time>
      </trkpt>
      <trkpt lat="38.74612967" lon="0.10212583">
        <ele>115.0</ele>
        <time>2018-06-10T06:15:16.094Z</time>
      </trkpt>
      <trkpt lat="38.746104" lon="0.1022695">
        <ele>116.0</ele>
        <time>2018-06-10T06:15:17.094Z</time>
      </trkpt>
      <trkpt lat="38.74608067" lon="0.10241883">
        <ele>116.0</ele>
        <time>2018-06-10T06:15:18.094Z</time>
      </trkpt>
      <trkpt lat="38.74605917" lon="0.1025705">
        <ele>117.0</ele>
        <time>2018-06-10T06:15:19.094Z</time>
      </trkpt>
      <trkpt lat="38.7460345" lon="0.10272067">
        <ele>117.0</ele>
        <time>2018-06-10T06:15:20.094Z</time>
      </trkpt>
      <trkpt lat="38.7460065" lon="0.10286733">
        <ele>117.0</ele>
        <time>2018-06-10T06:15:21.094Z</time>
      </trkpt>
      <trkpt lat="38.745977" lon="0.10301083">
        <ele>116.0</ele>
        <time>2018-06-10T06:15:22.094Z</time>
      </trkpt>
      <trkpt lat="38.74594717" lon="0.1031515">
        <ele>116.0</ele>
        <time>2018-06-10T06:15:23.094Z</time>
      </trkpt>
      <trkpt lat="38.74591767" lon="0.10328933">
        <ele>116.0</ele>
        <time>2018-06-10T06:15:24.094Z</time>
      </trkpt>
      <trkpt lat="38.74588983" lon="0.10342533">
        <ele>116.0</ele>
        <time>2018-06-10T06:15:25.094Z</time>
      </trkpt>
      <trkpt lat="38.74586533" lon="0.1035595">
        <ele>116.0</ele>
        <time>2018-06-10T06:15:26.094Z</time>
      </trkpt>
      <trkpt lat="38.74584883" lon="0.103693">
        <ele>115.0</ele>
        <time>2018-06-10T06:15:27.094Z</time>
      </trkpt>
      <trkpt lat="38.74584183" lon="0.10382567">
        <ele>114.0</ele>
        <time>2018-06-10T06:15:28.094Z</time>
      </trkpt>
      <trkpt lat="38.74584767" lon="0.103958">
        <ele>115.0</ele>
        <time>2018-06-10T06:15:29.094Z</time>
      </trkpt>
      <trkpt lat="38.74586067" lon="0.10408783">
        <ele>115.0</ele>
        <time>2018-06-10T06:15:30.094Z</time>
      </trkpt>
      <trkpt lat="38.74587983" lon="0.104216">
        <ele>115.0</ele>
        <time>2018-06-10T06:15:31.094Z</time>
      </trkpt>
      <trkpt lat="38.745903" lon="0.10434183">
        <ele>115.0</ele>
        <time>2018-06-10T06:15:32.094Z</time>
      </trkpt>
      <trkpt lat="38.74592917" lon="0.104468">
        <ele>115.0</ele>
        <time>2018-06-10T06:15:33.094Z</time>
      </trkpt>
      <trkpt lat="38.74595617" lon="0.104594">
        <ele>115.0</ele>
        <time>2018-06-10T06:15:34.094Z</time>
      </trkpt>
      <trkpt lat="38.74598367" lon="0.10472017">
        <ele>115.0</ele>
        <time>2018-06-10T06:15:35.094Z</time>
      </trkpt>
      <trkpt lat="38.74601233" lon="0.10484617">
        <ele>114.0</ele>
        <time>2018-06-10T06:15:36.094Z</time>
      </trkpt>
      <trkpt lat="38.74604283" lon="0.1049725">
        <ele>114.0</ele>
        <time>2018-06-10T06:15:37.094Z</time>
      </trkpt>
      <trkpt lat="38.74607283" lon="0.10509817">
        <ele>114.0</ele>
        <time>2018-06-10T06:15:38.094Z</time>
      </trkpt>
      <trkpt lat="38.74610267" lon="0.10522233">
        <ele>114.0</ele>
        <time>2018-06-10T06:15:39.094Z</time>
      </trkpt>
      <trkpt lat="38.7461335" lon="0.10534333">
        <ele>114.0</ele>
        <time>2018-06-10T06:15:40.094Z</time>
      </trkpt>
      <trkpt lat="38.74617067" lon="0.105459">
        <ele>114.0</ele>
        <time>2018-06-10T06:15:41.094Z</time>
      </trkpt>
      <trkpt lat="38.74621367" lon="0.10557067">
        <ele>114.0</ele>
        <time>2018-06-10T06:15:42.094Z</time>
      </trkpt>
      <trkpt lat="38.746262" lon="0.10567933">
        <ele>114.0</ele>
        <time>2018-06-10T06:15:43.094Z</time>
      </trkpt>
      <trkpt lat="38.74631267" lon="0.10578667">
        <ele>113.0</ele>
        <time>2018-06-10T06:15:44.094Z</time>
      </trkpt>
      <trkpt lat="38.74636833" lon="0.10589083">
        <ele>112.0</ele>
        <time>2018-06-10T06:15:45.094Z</time>
      </trkpt>
      <trkpt lat="38.74643367" lon="0.1059905">
        <ele>113.0</ele>
        <time>2018-06-10T06:15:46.094Z</time>
      </trkpt>
      <trkpt lat="38.746506" lon="0.10608633">
        <ele>113.0</ele>
        <time>2018-06-10T06:15:47.094Z</time>
      </trkpt>
      <trkpt lat="38.74658417" lon="0.106178">
        <ele>112.0</ele>
        <time>2018-06-10T06:15:48.094Z</time>
      </trkpt>
      <trkpt lat="38.74666367" lon="0.10626633">
        <ele>112.0</ele>
        <time>2018-06-10T06:15:49.094Z</time>
      </trkpt>
      <trkpt lat="38.74674483" lon="0.10635283">
        <ele>112.0</ele>
        <time>2018-06-10T06:15:50.094Z</time>
      </trkpt>
      <trkpt lat="38.74682717" lon="0.106439">
        <ele>112.0</ele>
        <time>2018-06-10T06:15:51.094Z</time>
      </trkpt>
      <trkpt lat="38.74691" lon="0.1065265">
        <ele>111.0</ele>
        <time>2018-06-10T06:15:52.094Z</time>
      </trkpt>
      <trkpt lat="38.7469945" lon="0.1066145">
        <ele>111.0</ele>
        <time>2018-06-10T06:15:53.094Z</time>
      </trkpt>
      <trkpt lat="38.74708" lon="0.10670267">
        <ele>111.0</ele>
        <time>2018-06-10T06:15:54.094Z</time>
      </trkpt>
      <trkpt lat="38.747167" lon="0.10679117">
        <ele>111.0</ele>
        <time>2018-06-10T06:15:55.094Z</time>
      </trkpt>
      <trkpt lat="38.74725483" lon="0.10688083">
        <ele>110.0</ele>
        <time>2018-06-10T06:15:56.094Z</time>
      </trkpt>
      <trkpt lat="38.747343" lon="0.106971">
        <ele>110.0</ele>
        <time>2018-06-10T06:15:57.094Z</time>
      </trkpt>
      <trkpt lat="38.747432" lon="0.10706133">
        <ele>110.0</ele>
        <time>2018-06-10T06:15:58.094Z</time>
      </trkpt>
      <trkpt lat="38.7475215" lon="0.1071515">
        <ele>110.0</ele>
        <time>2018-06-10T06:15:59.094Z</time>
      </trkpt>
      <trkpt lat="38.74761233" lon="0.10724233">
        <ele>109.0</ele>
        <time>2018-06-10T06:16:00.094Z</time>
      </trkpt>
      <trkpt lat="38.74770317" lon="0.10733317">
        <ele>109.0</ele>
        <time>2018-06-10T06:16:01.094Z</time>
      </trkpt>
      <trkpt lat="38.74779383" lon="0.1074225">
        <ele>109.0</ele>
        <time>2018-06-10T06:16:02.094Z</time>
      </trkpt>
      <trkpt lat="38.747886" lon="0.107509">
        <ele>109.0</ele>
        <time>2018-06-10T06:16:03.094Z</time>
      </trkpt>
      <trkpt lat="38.74798267" lon="0.10758933">
        <ele>108.0</ele>
        <time>2018-06-10T06:16:04.094Z</time>
      </trkpt>
      <trkpt lat="38.7480865" lon="0.10765833">
        <ele>107.0</ele>
        <time>2018-06-10T06:16:05.094Z</time>
      </trkpt>
      <trkpt lat="38.74819617" lon="0.10770983">
        <ele>104.0</ele>
        <time>2018-06-10T06:16:06.094Z</time>
      </trkpt>
      <trkpt lat="38.74830883" lon="0.1077405">
        <ele>104.0</ele>
        <time>2018-06-10T06:16:07.094Z</time>
      </trkpt>
      <trkpt lat="38.74841833" lon="0.10773067">
        <ele>110.0</ele>
        <time>2018-06-10T06:16:08.094Z</time>
      </trkpt>
      <trkpt lat="38.74852567" lon="0.107697">
        <ele>113.0</ele>
        <time>2018-06-10T06:16:09.094Z</time>
      </trkpt>
      <trkpt lat="38.74863333" lon="0.107649">
        <ele>113.0</ele>
        <time>2018-06-10T06:16:10.094Z</time>
      </trkpt>
      <trkpt lat="38.74874367" lon="0.1076135">
        <ele>112.0</ele>
        <time>2018-06-10T06:16:11.094Z</time>
      </trkpt>
      <trkpt lat="38.74885667" lon="0.10758417">
        <ele>110.0</ele>
        <time>2018-06-10T06:16:12.094Z</time>
      </trkpt>
      <trkpt lat="38.74897133" lon="0.10755733">
        <ele>108.0</ele>
        <time>2018-06-10T06:16:13.094Z</time>
      </trkpt>
      <trkpt lat="38.74908883" lon="0.10752967">
        <ele>107.0</ele>
        <time>2018-06-10T06:16:14.094Z</time>
      </trkpt>
      <trkpt lat="38.749207" lon="0.10749717">
        <ele>107.0</ele>
        <time>2018-06-10T06:16:15.094Z</time>
      </trkpt>
      <trkpt lat="38.7493235" lon="0.10745733">
        <ele>107.0</ele>
        <time>2018-06-10T06:16:16.094Z</time>
      </trkpt>
      <trkpt lat="38.74943783" lon="0.1074105">
        <ele>108.0</ele>
        <time>2018-06-10T06:16:17.094Z</time>
      </trkpt>
      <trkpt lat="38.74955083" lon="0.10736233">
        <ele>108.0</ele>
        <time>2018-06-10T06:16:18.094Z</time>
      </trkpt>
      <trkpt lat="38.74966467" lon="0.10731967">
        <ele>108.0</ele>
        <time>2018-06-10T06:16:19.094Z</time>
      </trkpt>
      <trkpt lat="38.749779" lon="0.10728417">
        <ele>108.0</ele>
        <time>2018-06-10T06:16:20.094Z</time>
      </trkpt>
      <trkpt lat="38.749893" lon="0.1072535">
        <ele>108.0</ele>
        <time>2018-06-10T06:16:21.094Z</time>
      </trkpt>
      <trkpt lat="38.75000633" lon="0.10722733">
        <ele>107.0</ele>
        <time>2018-06-10T06:16:22.094Z</time>
      </trkpt>
      <trkpt lat="38.75011883" lon="0.10720483">
        <ele>106.0</ele>
        <time>2018-06-10T06:16:23.094Z</time>
      </trkpt>
      <trkpt lat="38.75023083" lon="0.10718317">
        <ele>105.0</ele>
        <time>2018-06-10T06:16:24.094Z</time>
      </trkpt>
      <trkpt lat="38.75034267" lon="0.1071605">
        <ele>105.0</ele>
        <time>2018-06-10T06:16:25.094Z</time>
      </trkpt>
      <trkpt lat="38.75045533" lon="0.10713717">
        <ele>104.0</ele>
        <time>2018-06-10T06:16:26.094Z</time>
      </trkpt>
      <trkpt lat="38.750569" lon="0.10711317">
        <ele>104.0</ele>
        <time>2018-06-10T06:16:27.094Z</time>
      </trkpt>
      <trkpt lat="38.7506835" lon="0.10708767">
        <ele>104.0</ele>
        <time>2018-06-10T06:16:28.094Z</time>
      </trkpt>
      <trkpt lat="38.75079817" lon="0.10706133">
        <ele>104.0</ele>
        <time>2018-06-10T06:16:29.094Z</time>
      </trkpt>
      <trkpt lat="38.75091267" lon="0.10703517">
        <ele>103.0</ele>
        <time>2018-06-10T06:16:30.094Z</time>
      </trkpt>
      <trkpt lat="38.75102717" lon="0.10701017">
        <ele>103.0</ele>
        <time>2018-06-10T06:16:31.094Z</time>
      </trkpt>
      <trkpt lat="38.75114267" lon="0.10698783">
        <ele>103.0</ele>
        <time>2018-06-10T06:16:32.094Z</time>
      </trkpt>
      <trkpt lat="38.75125917" lon="0.10697">
        <ele>102.0</ele>
        <time>2018-06-10T06:16:33.094Z</time>
      </trkpt>
      <trkpt lat="38.75137583" lon="0.1069615">
        <ele>102.0</ele>
        <time>2018-06-10T06:16:34.094Z</time>
      </trkpt>
      <trkpt lat="38.751493" lon="0.10696783">
        <ele>101.0</ele>
        <time>2018-06-10T06:16:35.094Z</time>
      </trkpt>
      <trkpt lat="38.75160717" lon="0.106989">
        <ele>102.0</ele>
        <time>2018-06-10T06:16:36.094Z</time>
      </trkpt>
      <trkpt lat="38.75171633" lon="0.1070235">
        <ele>103.0</ele>
        <time>2018-06-10T06:16:37.094Z</time>
      </trkpt>
      <trkpt lat="38.7518185" lon="0.1070675">
        <ele>104.0</ele>
        <time>2018-06-10T06:16:38.094Z</time>
      </trkpt>
      <trkpt lat="38.75191683" lon="0.10712433">
        <ele>103.0</ele>
        <time>2018-06-10T06:16:39.094Z</time>
      </trkpt>
      <trkpt lat="38.75201167" lon="0.1071935">
        <ele>104.0</ele>
        <time>2018-06-10T06:16:40.094Z</time>
      </trkpt>
      <trkpt lat="38.75210433" lon="0.10727367">
        <ele>104.0</ele>
        <time>2018-06-10T06:16:41.094Z</time>
      </trkpt>
      <trkpt lat="38.752196" lon="0.10737067">
        <ele>101.0</ele>
        <time>2018-06-10T06:16:42.094Z</time>
      </trkpt>
      <trkpt lat="38.75228283" lon="0.10748483">
        <ele>100.0</ele>
        <time>2018-06-10T06:16:43.094Z</time>
      </trkpt>
      <trkpt lat="38.75235933" lon="0.10761783">
        <ele>100.0</ele>
        <time>2018-06-10T06:16:44.094Z</time>
      </trkpt>
      <trkpt lat="38.7524225" lon="0.10775967">
        <ele>99.0</ele>
        <time>2018-06-10T06:16:45.094Z</time>
      </trkpt>
      <trkpt lat="38.75246583" lon="0.1079005">
        <ele>100.0</ele>
        <time>2018-06-10T06:16:46.094Z</time>
      </trkpt>
      <trkpt lat="38.7524995" lon="0.10804267">
        <ele>99.0</ele>
        <time>2018-06-10T06:16:47.094Z</time>
      </trkpt>
      <trkpt lat="38.75252717" lon="0.10818417">
        <ele>98.0</ele>
        <time>2018-06-10T06:16:48.094Z</time>
      </trkpt>
      <trkpt lat="38.75256667" lon="0.10832667">
        <ele>98.0</ele>
        <time>2018-06-10T06:16:49.094Z</time>
      </trkpt>
      <trkpt lat="38.752618" lon="0.108461">
        <ele>97.0</ele>
        <time>2018-06-10T06:16:50.094Z</time>
      </trkpt>
      <trkpt lat="38.7526845" lon="0.10858133">
        <ele>96.0</ele>
        <time>2018-06-10T06:16:51.094Z</time>
      </trkpt>
      <trkpt lat="38.75277183" lon="0.10868833">
        <ele>96.0</ele>
        <time>2018-06-10T06:16:52.094Z</time>
      </trkpt>
      <trkpt lat="38.7528705" lon="0.10876767">
        <ele>96.0</ele>
        <time>2018-06-10T06:16:53.094Z</time>
      </trkpt>
      <trkpt lat="38.7529755" lon="0.1088195">
        <ele>96.0</ele>
        <time>2018-06-10T06:16:54.094Z</time>
      </trkpt>
      <trkpt lat="38.75307733" lon="0.108839">
        <ele>96.0</ele>
        <time>2018-06-10T06:16:55.094Z</time>
      </trkpt>
      <trkpt lat="38.75318083" lon="0.10883667">
        <ele>95.0</ele>
        <time>2018-06-10T06:16:56.094Z</time>
      </trkpt>
      <trkpt lat="38.7532855" lon="0.10881583">
        <ele>94.0</ele>
        <time>2018-06-10T06:16:57.094Z</time>
      </trkpt>
      <trkpt lat="38.75338733" lon="0.10876417">
        <ele>94.0</ele>
        <time>2018-06-10T06:16:58.094Z</time>
      </trkpt>
      <trkpt lat="38.7534825" lon="0.10868583">
        <ele>94.0</ele>
        <time>2018-06-10T06:16:59.094Z</time>
      </trkpt>
      <trkpt lat="38.75356983" lon="0.108587">
        <ele>92.0</ele>
        <time>2018-06-10T06:17:00.094Z</time>
      </trkpt>
      <trkpt lat="38.75364717" lon="0.10848033">
        <ele>91.0</ele>
        <time>2018-06-10T06:17:01.094Z</time>
      </trkpt>
      <trkpt lat="38.75371217" lon="0.1083655">
        <ele>90.0</ele>
        <time>2018-06-10T06:17:02.094Z</time>
      </trkpt>
      <trkpt lat="38.75376267" lon="0.10823483">
        <ele>89.0</ele>
        <time>2018-06-10T06:17:03.094Z</time>
      </trkpt>
      <trkpt lat="38.75379967" lon="0.10809217">
        <ele>90.0</ele>
        <time>2018-06-10T06:17:04.094Z</time>
      </trkpt>
      <trkpt lat="38.75382233" lon="0.1079395">
        <ele>90.0</ele>
        <time>2018-06-10T06:17:05.094Z</time>
      </trkpt>
      <trkpt lat="38.75383017" lon="0.1077835">
        <ele>90.0</ele>
        <time>2018-06-10T06:17:06.094Z</time>
      </trkpt>
      <trkpt lat="38.75382333" lon="0.10763017">
        <ele>90.0</ele>
        <time>2018-06-10T06:17:07.094Z</time>
      </trkpt>
      <trkpt lat="38.75380817" lon="0.10747917">
        <ele>89.0</ele>
        <time>2018-06-10T06:17:08.094Z</time>
      </trkpt>
      <trkpt lat="38.75378867" lon="0.10732733">
        <ele>89.0</ele>
        <time>2018-06-10T06:17:09.094Z</time>
      </trkpt>
      <trkpt lat="38.75376917" lon="0.10717433">
        <ele>88.0</ele>
        <time>2018-06-10T06:17:10.094Z</time>
      </trkpt>
      <trkpt lat="38.75375" lon="0.1070205">
        <ele>88.0</ele>
        <time>2018-06-10T06:17:11.094Z</time>
      </trkpt>
      <trkpt lat="38.75373267" lon="0.10686617">
        <ele>87.0</ele>
        <time>2018-06-10T06:17:12.094Z</time>
      </trkpt>
      <trkpt lat="38.753716" lon="0.1067105">
        <ele>86.0</ele>
        <time>2018-06-10T06:17:13.094Z</time>
      </trkpt>
      <trkpt lat="38.7536995" lon="0.10655483">
        <ele>86.0</ele>
        <time>2018-06-10T06:17:14.094Z</time>
      </trkpt>
      <trkpt lat="38.75368317" lon="0.1064">
        <ele>86.0</ele>
        <time>2018-06-10T06:17:15.094Z</time>
      </trkpt>
      <trkpt lat="38.75366667" lon="0.10624683">
        <ele>85.0</ele>
        <time>2018-06-10T06:17:16.094Z</time>
      </trkpt>
      <trkpt lat="38.7536505" lon="0.10609533">
        <ele>85.0</ele>
        <time>2018-06-10T06:17:17.094Z</time>
      </trkpt>
      <trkpt lat="38.75363433" lon="0.10594517">
        <ele>85.0</ele>
        <time>2018-06-10T06:17:18.094Z</time>
      </trkpt>
      <trkpt lat="38.75362033" lon="0.10579633">
        <ele>85.0</ele>
        <time>2018-06-10T06:17:19.094Z</time>
      </trkpt>
      <trkpt lat="38.75361133" lon="0.10564767">
        <ele>84.0</ele>
        <time>2018-06-10T06:17:20.094Z</time>
      </trkpt>
      <trkpt lat="38.75361067" lon="0.10549817">
        <ele>84.0</ele>
        <time>2018-06-10T06:17:21.094Z</time>
      </trkpt>
      <trkpt lat="38.75362067" lon="0.10534667">
        <ele>83.0</ele>
        <time>2018-06-10T06:17:22.094Z</time>
      </trkpt>
      <trkpt lat="38.75364317" lon="0.10519317">
        <ele>82.0</ele>
        <time>2018-06-10T06:17:23.094Z</time>
      </trkpt>
      <trkpt lat="38.753675" lon="0.1050395">
        <ele>81.0</ele>
        <time>2018-06-10T06:17:24.094Z</time>
      </trkpt>
      <trkpt lat="38.753713" lon="0.1048865">
        <ele>81.0</ele>
        <time>2018-06-10T06:17:25.094Z</time>
      </trkpt>
      <trkpt lat="38.7537505" lon="0.10473533">
        <ele>81.0</ele>
        <time>2018-06-10T06:17:26.094Z</time>
      </trkpt>
      <trkpt lat="38.7537875" lon="0.104583">
        <ele>80.0</ele>
        <time>2018-06-10T06:17:27.094Z</time>
      </trkpt>
      <trkpt lat="38.75382483" lon="0.10442917">
        <ele>80.0</ele>
        <time>2018-06-10T06:17:28.094Z</time>
      </trkpt>
      <trkpt lat="38.75386417" lon="0.1042735">
        <ele>79.0</ele>
        <time>2018-06-10T06:17:29.094Z</time>
      </trkpt>
      <trkpt lat="38.75390567" lon="0.10411767">
        <ele>79.0</ele>
        <time>2018-06-10T06:17:30.094Z</time>
      </trkpt>
      <trkpt lat="38.753949" lon="0.103962">
        <ele>79.0</ele>
        <time>2018-06-10T06:17:31.094Z</time>
      </trkpt>
      <trkpt lat="38.75399583" lon="0.10380833">
        <ele>80.0</ele>
        <time>2018-06-10T06:17:32.094Z</time>
      </trkpt>
      <trkpt lat="38.754049" lon="0.10365967">
        <ele>81.0</ele>
        <time>2018-06-10T06:17:33.094Z</time>
      </trkpt>
      <trkpt lat="38.75411283" lon="0.10352067">
        <ele>83.0</ele>
        <time>2018-06-10T06:17:34.094Z</time>
      </trkpt>
      <trkpt lat="38.7541925" lon="0.10339633">
        <ele>84.0</ele>
        <time>2018-06-10T06:17:35.094Z</time>
      </trkpt>
      <trkpt lat="38.754288" lon="0.10329">
        <ele>84.0</ele>
        <time>2018-06-10T06:17:36.094Z</time>
      </trkpt>
      <trkpt lat="38.754401" lon="0.10320233">
        <ele>87.0</ele>
        <time>2018-06-10T06:17:37.094Z</time>
      </trkpt>
      <trkpt lat="38.75452067" lon="0.10313617">
        <ele>90.0</ele>
        <time>2018-06-10T06:17:38.094Z</time>
      </trkpt>
      <trkpt lat="38.7546435" lon="0.10309333">
        <ele>95.0</ele>
        <time>2018-06-10T06:17:39.094Z</time>
      </trkpt>
      <trkpt lat="38.754756" lon="0.10308183">
        <ele>101.0</ele>
        <time>2018-06-10T06:17:40.094Z</time>
      </trkpt>
      <trkpt lat="38.7548625" lon="0.1030905">
        <ele>106.0</ele>
        <time>2018-06-10T06:17:41.094Z</time>
      </trkpt>
      <trkpt lat="38.75496183" lon="0.1031135">
        <ele>112.0</ele>
        <time>2018-06-10T06:17:42.094Z</time>
      </trkpt>
      <trkpt lat="38.755059" lon="0.1031415">
        <ele>117.0</ele>
        <time>2018-06-10T06:17:43.094Z</time>
      </trkpt>
      <trkpt lat="38.75515183" lon="0.10317817">
        <ele>123.0</ele>
        <time>2018-06-10T06:17:44.094Z</time>
      </trkpt>
      <trkpt lat="38.75524133" lon="0.10322017">
        <ele>129.0</ele>
        <time>2018-06-10T06:17:45.094Z</time>
      </trkpt>
      <trkpt lat="38.7553295" lon="0.10326533">
        <ele>134.0</ele>
        <time>2018-06-10T06:17:46.094Z</time>
      </trkpt>
      <trkpt lat="38.755416" lon="0.10330933">
        <ele>140.0</ele>
        <time>2018-06-10T06:17:47.094Z</time>
      </trkpt>
      <trkpt lat="38.755502" lon="0.1033515">
        <ele>144.0</ele>
        <time>2018-06-10T06:17:48.094Z</time>
      </trkpt>
      <trkpt lat="38.75559" lon="0.10339367">
        <ele>148.0</ele>
        <time>2018-06-10T06:17:49.094Z</time>
      </trkpt>
      <trkpt lat="38.75568333" lon="0.10343417">
        <ele>153.0</ele>
        <time>2018-06-10T06:17:50.094Z</time>
      </trkpt>
      <trkpt lat="38.75578517" lon="0.103469">
        <ele>155.0</ele>
        <time>2018-06-10T06:17:51.094Z</time>
      </trkpt>
      <trkpt lat="38.75589133" lon="0.10349067">
        <ele>157.0</ele>
        <time>2018-06-10T06:17:52.094Z</time>
      </trkpt>
      <trkpt lat="38.75599883" lon="0.10350283">
        <ele>161.0</ele>
        <time>2018-06-10T06:17:53.094Z</time>
      </trkpt>
      <trkpt lat="38.7561055" lon="0.1035195">
        <ele>162.0</ele>
        <time>2018-06-10T06:17:54.094Z</time>
      </trkpt>
      <trkpt lat="38.75621467" lon="0.10355217">
        <ele>161.0</ele>
        <time>2018-06-10T06:17:55.094Z</time>
      </trkpt>
      <trkpt lat="38.75632833" lon="0.10360367">
        <ele>160.0</ele>
        <time>2018-06-10T06:17:56.094Z</time>
      </trkpt>
      <trkpt lat="38.75644467" lon="0.10366467">
        <ele>157.0</ele>
        <time>2018-06-10T06:17:57.094Z</time>
      </trkpt>
      <trkpt lat="38.75656233" lon="0.103734">
        <ele>153.0</ele>
        <time>2018-06-10T06:17:58.094Z</time>
      </trkpt>
      <trkpt lat="38.7566815" lon="0.103812">
        <ele>148.0</ele>
        <time>2018-06-10T06:17:59.094Z</time>
      </trkpt>
      <trkpt lat="38.75680067" lon="0.103899">
        <ele>144.0</ele>
        <time>2018-06-10T06:18:00.094Z</time>
      </trkpt>
      <trkpt lat="38.756918" lon="0.10399333">
        <ele>139.0</ele>
        <time>2018-06-10T06:18:01.094Z</time>
      </trkpt>
      <trkpt lat="38.75702833" lon="0.1040875">
        <ele>137.0</ele>
        <time>2018-06-10T06:18:02.094Z</time>
      </trkpt>
      <trkpt lat="38.7571305" lon="0.10419533">
        <ele>135.0</ele>
        <time>2018-06-10T06:18:03.094Z</time>
      </trkpt>
      <trkpt lat="38.7572245" lon="0.1043225">
        <ele>131.0</ele>
        <time>2018-06-10T06:18:04.094Z</time>
      </trkpt>
      <trkpt lat="38.75731017" lon="0.1044755">
        <ele>127.0</ele>
        <time>2018-06-10T06:18:05.094Z</time>
      </trkpt>
      <trkpt lat="38.7573925" lon="0.10467433">
        <ele>112.0</ele>
        <time>2018-06-10T06:18:06.094Z</time>
      </trkpt>
      <trkpt lat="38.75746333" lon="0.10492467">
        <ele>91.0</ele>
        <time>2018-06-10T06:18:07.094Z</time>
      </trkpt>
      <trkpt lat="38.75751333" lon="0.10518067">
        <ele>86.0</ele>
        <time>2018-06-10T06:18:08.094Z</time>
      </trkpt>
      <trkpt lat="38.75754183" lon="0.105403">
        <ele>83.0</ele>
        <time>2018-06-10T06:18:09.094Z</time>
      </trkpt>
      <trkpt lat="38.75755633" lon="0.10557067">
        <ele>81.0</ele>
        <time>2018-06-10T06:18:10.094Z</time>
      </trkpt>
      <trkpt lat="38.75757033" lon="0.10572517">
        <ele>79.0</ele>
        <time>2018-06-10T06:18:11.094Z</time>
      </trkpt>
      <trkpt lat="38.75758717" lon="0.10586933">
        <ele>78.0</ele>
        <time>2018-06-10T06:18:12.094Z</time>
      </trkpt>
      <trkpt lat="38.7576105" lon="0.10600633">
        <ele>78.0</ele>
        <time>2018-06-10T06:18:13.094Z</time>
      </trkpt>
      <trkpt lat="38.75764467" lon="0.10613583">
        <ele>77.0</ele>
        <time>2018-06-10T06:18:14.094Z</time>
      </trkpt>
      <trkpt lat="38.75768617" lon="0.10625867">
        <ele>77.0</ele>
        <time>2018-06-10T06:18:15.094Z</time>
      </trkpt>
      <trkpt lat="38.75773917" lon="0.10637217">
        <ele>77.0</ele>
        <time>2018-06-10T06:18:16.094Z</time>
      </trkpt>
      <trkpt lat="38.75781367" lon="0.10647083">
        <ele>78.0</ele>
        <time>2018-06-10T06:18:17.094Z</time>
      </trkpt>
      <trkpt lat="38.75790533" lon="0.10655333">
        <ele>77.0</ele>
        <time>2018-06-10T06:18:18.094Z</time>
      </trkpt>
      <trkpt lat="38.75800583" lon="0.10661917">
        <ele>76.0</ele>
        <time>2018-06-10T06:18:19.094Z</time>
      </trkpt>
      <trkpt lat="38.75810517" lon="0.10667017">
        <ele>76.0</ele>
        <time>2018-06-10T06:18:20.094Z</time>
      </trkpt>
      <trkpt lat="38.75821" lon="0.10670583">
        <ele>75.0</ele>
        <time>2018-06-10T06:18:21.094Z</time>
      </trkpt>
      <trkpt lat="38.758322" lon="0.10672267">
        <ele>76.0</ele>
        <time>2018-06-10T06:18:22.094Z</time>
      </trkpt>
      <trkpt lat="38.75844017" lon="0.10672017">
        <ele>75.0</ele>
        <time>2018-06-10T06:18:23.094Z</time>
      </trkpt>
      <trkpt lat="38.75855767" lon="0.1067055">
        <ele>74.0</ele>
        <time>2018-06-10T06:18:24.094Z</time>
      </trkpt>
      <trkpt lat="38.75867517" lon="0.10668833">
        <ele>74.0</ele>
        <time>2018-06-10T06:18:25.094Z</time>
      </trkpt>
      <trkpt lat="38.75878883" lon="0.1066745">
        <ele>73.0</ele>
        <time>2018-06-10T06:18:26.094Z</time>
      </trkpt>
      <trkpt lat="38.75890367" lon="0.10666133">
        <ele>72.0</ele>
        <time>2018-06-10T06:18:27.094Z</time>
      </trkpt>
      <trkpt lat="38.7590195" lon="0.10664617">
        <ele>72.0</ele>
        <time>2018-06-10T06:18:28.094Z</time>
      </trkpt>
      <trkpt lat="38.75913717" lon="0.10662117">
        <ele>71.0</ele>
        <time>2018-06-10T06:18:29.094Z</time>
      </trkpt>
      <trkpt lat="38.7592545" lon="0.106584">
        <ele>71.0</ele>
        <time>2018-06-10T06:18:30.094Z</time>
      </trkpt>
      <trkpt lat="38.75937117" lon="0.10653683">
        <ele>70.0</ele>
        <time>2018-06-10T06:18:31.094Z</time>
      </trkpt>
      <trkpt lat="38.75948617" lon="0.106485">
        <ele>70.0</ele>
        <time>2018-06-10T06:18:32.094Z</time>
      </trkpt>
      <trkpt lat="38.75959933" lon="0.10642967">
        <ele>69.0</ele>
        <time>2018-06-10T06:18:33.094Z</time>
      </trkpt>
      <trkpt lat="38.759712" lon="0.106367">
        <ele>68.0</ele>
        <time>2018-06-10T06:18:34.094Z</time>
      </trkpt>
      <trkpt lat="38.75982367" lon="0.10630017">
        <ele>67.0</ele>
        <time>2018-06-10T06:18:35.094Z</time>
      </trkpt>
      <trkpt lat="38.75993483" lon="0.10623083">
        <ele>67.0</ele>
        <time>2018-06-10T06:18:36.094Z</time>
      </trkpt>
      <trkpt lat="38.76004433" lon="0.10616333">
        <ele>66.0</ele>
        <time>2018-06-10T06:18:37.094Z</time>
      </trkpt>
      <trkpt lat="38.76015317" lon="0.10609633">
        <ele>66.0</ele>
        <time>2018-06-10T06:18:38.094Z</time>
      </trkpt>
      <trkpt lat="38.76026067" lon="0.106031">
        <ele>66.0</ele>
        <time>2018-06-10T06:18:39.094Z</time>
      </trkpt>
      <trkpt lat="38.76036617" lon="0.10596683">
        <ele>65.0</ele>
        <time>2018-06-10T06:18:40.094Z</time>
      </trkpt>
      <trkpt lat="38.76047" lon="0.105904">
        <ele>65.0</ele>
        <time>2018-06-10T06:18:41.094Z</time>
      </trkpt>
      <trkpt lat="38.760573" lon="0.10584217">
        <ele>65.0</ele>
        <time>2018-06-10T06:18:42.094Z</time>
      </trkpt>
      <trkpt lat="38.7606755" lon="0.1057815">
        <ele>65.0</ele>
        <time>2018-06-10T06:18:43.094Z</time>
      </trkpt>
      <trkpt lat="38.76077833" lon="0.10572283">
        <ele>64.0</ele>
        <time>2018-06-10T06:18:44.094Z</time>
      </trkpt>
      <trkpt lat="38.76088167" lon="0.1056645">
        <ele>64.0</ele>
        <time>2018-06-10T06:18:45.094Z</time>
      </trkpt>
      <trkpt lat="38.76098633" lon="0.1056065">
        <ele>64.0</ele>
        <time>2018-06-10T06:18:46.094Z</time>
      </trkpt>
      <trkpt lat="38.7610915" lon="0.105551">
        <ele>64.0</ele>
        <time>2018-06-10T06:18:47.094Z</time>
      </trkpt>
      <trkpt lat="38.76119733" lon="0.10550133">
        <ele>64.0</ele>
        <time>2018-06-10T06:18:48.094Z</time>
      </trkpt>
      <trkpt lat="38.7613045" lon="0.105457">
        <ele>64.0</ele>
        <time>2018-06-10T06:18:49.094Z</time>
      </trkpt>
      <trkpt lat="38.76141417" lon="0.10542">
        <ele>63.0</ele>
        <time>2018-06-10T06:18:50.094Z</time>
      </trkpt>
      <trkpt lat="38.761525" lon="0.105391">
        <ele>63.0</ele>
        <time>2018-06-10T06:18:51.094Z</time>
      </trkpt>
      <trkpt lat="38.761635" lon="0.105372">
        <ele>63.0</ele>
        <time>2018-06-10T06:18:52.094Z</time>
      </trkpt>
      <trkpt lat="38.76174267" lon="0.1053615">
        <ele>63.0</ele>
        <time>2018-06-10T06:18:53.094Z</time>
      </trkpt>
      <trkpt lat="38.76184917" lon="0.10535783">
        <ele>63.0</ele>
        <time>2018-06-10T06:18:54.094Z</time>
      </trkpt>
      <trkpt lat="38.76195383" lon="0.105359">
        <ele>63.0</ele>
        <time>2018-06-10T06:18:55.094Z</time>
      </trkpt>
      <trkpt lat="38.76205683" lon="0.10536233">
        <ele>63.0</ele>
        <time>2018-06-10T06:18:56.094Z</time>
      </trkpt>
      <trkpt lat="38.76215717" lon="0.10536583">
        <ele>64.0</ele>
        <time>2018-06-10T06:18:57.094Z</time>
      </trkpt>
      <trkpt lat="38.7622555" lon="0.10536883">
        <ele>64.0</ele>
        <time>2018-06-10T06:18:58.094Z</time>
      </trkpt>
      <trkpt lat="38.76235233" lon="0.10537117">
        <ele>64.0</ele>
        <time>2018-06-10T06:18:59.094Z</time>
      </trkpt>
      <trkpt lat="38.76244783" lon="0.10537317">
        <ele>64.0</ele>
        <time>2018-06-10T06:19:00.094Z</time>
      </trkpt>
      <trkpt lat="38.7625425" lon="0.1053745">
        <ele>65.0</ele>
        <time>2018-06-10T06:19:01.094Z</time>
      </trkpt>
      <trkpt lat="38.76263667" lon="0.10537517">
        <ele>65.0</ele>
        <time>2018-06-10T06:19:02.094Z</time>
      </trkpt>
      <trkpt lat="38.762731" lon="0.10537567">
        <ele>65.0</ele>
        <time>2018-06-10T06:19:03.094Z</time>
      </trkpt>
      <trkpt lat="38.76282567" lon="0.105377">
        <ele>66.0</ele>
        <time>2018-06-10T06:19:04.094Z</time>
      </trkpt>
      <trkpt lat="38.76291967" lon="0.10537767">
        <ele>66.0</ele>
        <time>2018-06-10T06:19:05.094Z</time>
      </trkpt>
      <trkpt lat="38.76301317" lon="0.10537833">
        <ele>66.0</ele>
        <time>2018-06-10T06:19:06.094Z</time>
      </trkpt>
      <trkpt lat="38.76310567" lon="0.1053795">
        <ele>66.0</ele>
        <time>2018-06-10T06:19:07.094Z</time>
      </trkpt>
      <trkpt lat="38.76319767" lon="0.10538183">
        <ele>67.0</ele>
        <time>2018-06-10T06:19:08.094Z</time>
      </trkpt>
      <trkpt lat="38.76328917" lon="0.10538467">
        <ele>67.0</ele>
        <time>2018-06-10T06:19:09.094Z</time>
      </trkpt>
      <trkpt lat="38.7633805" lon="0.10538783">
        <ele>66.0</ele>
        <time>2018-06-10T06:19:10.094Z</time>
      </trkpt>
      <trkpt lat="38.763472" lon="0.10539133">
        <ele>66.0</ele>
        <time>2018-06-10T06:19:11.094Z</time>
      </trkpt>
      <trkpt lat="38.76356317" lon="0.10539517">
        <ele>66.0</ele>
        <time>2018-06-10T06:19:12.094Z</time>
      </trkpt>
      <trkpt lat="38.763654" lon="0.105398">
        <ele>67.0</ele>
        <time>2018-06-10T06:19:13.094Z</time>
      </trkpt>
      <trkpt lat="38.76374433" lon="0.10540067">
        <ele>67.0</ele>
        <time>2018-06-10T06:19:14.094Z</time>
      </trkpt>
      <trkpt lat="38.76383367" lon="0.10540333">
        <ele>67.0</ele>
        <time>2018-06-10T06:19:15.094Z</time>
      </trkpt>
      <trkpt lat="38.76392133" lon="0.1054075">
        <ele>67.0</ele>
        <time>2018-06-10T06:19:16.094Z</time>
      </trkpt>
      <trkpt lat="38.76400683" lon="0.10541183">
        <ele>67.0</ele>
        <time>2018-06-10T06:19:17.094Z</time>
      </trkpt>
      <trkpt lat="38.76408933" lon="0.10541567">
        <ele>67.0</ele>
        <time>2018-06-10T06:19:18.094Z</time>
      </trkpt>
      <trkpt lat="38.76416933" lon="0.10541783">
        <ele>68.0</ele>
        <time>2018-06-10T06:19:19.094Z</time>
      </trkpt>
      <trkpt lat="38.76424617" lon="0.10541767">
        <ele>67.0</ele>
        <time>2018-06-10T06:19:20.094Z</time>
      </trkpt>
      <trkpt lat="38.76432083" lon="0.105412">
        <ele>68.0</ele>
        <time>2018-06-10T06:19:21.094Z</time>
      </trkpt>
      <trkpt lat="38.76439383" lon="0.10540017">
        <ele>67.0</ele>
        <time>2018-06-10T06:19:22.094Z</time>
      </trkpt>
      <trkpt lat="38.764467" lon="0.10538017">
        <ele>67.0</ele>
        <time>2018-06-10T06:19:23.094Z</time>
      </trkpt>
      <trkpt lat="38.764539" lon="0.10535367">
        <ele>67.0</ele>
        <time>2018-06-10T06:19:24.094Z</time>
      </trkpt>
      <trkpt lat="38.76460883" lon="0.10531983">
        <ele>67.0</ele>
        <time>2018-06-10T06:19:25.094Z</time>
      </trkpt>
      <trkpt lat="38.76467483" lon="0.10527667">
        <ele>67.0</ele>
        <time>2018-06-10T06:19:26.094Z</time>
      </trkpt>
      <trkpt lat="38.76473583" lon="0.10522267">
        <ele>67.0</ele>
        <time>2018-06-10T06:19:27.094Z</time>
      </trkpt>
      <trkpt lat="38.7647915" lon="0.10515883">
        <ele>67.0</ele>
        <time>2018-06-10T06:19:28.094Z</time>
      </trkpt>
      <trkpt lat="38.76484133" lon="0.105088">
        <ele>67.0</ele>
        <time>2018-06-10T06:19:29.094Z</time>
      </trkpt>
      <trkpt lat="38.76488617" lon="0.10501117">
        <ele>68.0</ele>
        <time>2018-06-10T06:19:30.094Z</time>
      </trkpt>
      <trkpt lat="38.764926" lon="0.10492967">
        <ele>68.0</ele>
        <time>2018-06-10T06:19:31.094Z</time>
      </trkpt>
      <trkpt lat="38.764962" lon="0.10484433">
        <ele>68.0</ele>
        <time>2018-06-10T06:19:32.094Z</time>
      </trkpt>
      <trkpt lat="38.76499467" lon="0.10475817">
        <ele>68.0</ele>
        <time>2018-06-10T06:19:33.094Z</time>
      </trkpt>
      <trkpt lat="38.76502517" lon="0.1046705">
        <ele>68.0</ele>
        <time>2018-06-10T06:19:34.094Z</time>
      </trkpt>
      <trkpt lat="38.7650545" lon="0.10458133">
        <ele>68.0</ele>
        <time>2018-06-10T06:19:35.094Z</time>
      </trkpt>
      <trkpt lat="38.7650835" lon="0.10449017">
        <ele>68.0</ele>
        <time>2018-06-10T06:19:36.094Z</time>
      </trkpt>
      <trkpt lat="38.76511317" lon="0.1043975">
        <ele>68.0</ele>
        <time>2018-06-10T06:19:37.094Z</time>
      </trkpt>
      <trkpt lat="38.7651435" lon="0.1043035">
        <ele>68.0</ele>
        <time>2018-06-10T06:19:38.094Z</time>
      </trkpt>
      <trkpt lat="38.76517367" lon="0.10420733">
        <ele>68.0</ele>
        <time>2018-06-10T06:19:39.094Z</time>
      </trkpt>
      <trkpt lat="38.76520333" lon="0.10410833">
        <ele>68.0</ele>
        <time>2018-06-10T06:19:40.094Z</time>
      </trkpt>
      <trkpt lat="38.76523333" lon="0.1040065">
        <ele>68.0</ele>
        <time>2018-06-10T06:19:41.094Z</time>
      </trkpt>
      <trkpt lat="38.76526533" lon="0.10390233">
        <ele>68.0</ele>
        <time>2018-06-10T06:19:42.094Z</time>
      </trkpt>
      <trkpt lat="38.76529933" lon="0.10379733">
        <ele>67.0</ele>
        <time>2018-06-10T06:19:43.094Z</time>
      </trkpt>
      <trkpt lat="38.76533417" lon="0.10369183">
        <ele>67.0</ele>
        <time>2018-06-10T06:19:44.094Z</time>
      </trkpt>
      <trkpt lat="38.76536917" lon="0.103586">
        <ele>67.0</ele>
        <time>2018-06-10T06:19:45.094Z</time>
      </trkpt>
      <trkpt lat="38.76540433" lon="0.10348017">
        <ele>67.0</ele>
        <time>2018-06-10T06:19:46.094Z</time>
      </trkpt>
      <trkpt lat="38.76543967" lon="0.10337433">
        <ele>67.0</ele>
        <time>2018-06-10T06:19:47.094Z</time>
      </trkpt>
      <trkpt lat="38.76547517" lon="0.10326883">
        <ele>67.0</ele>
        <time>2018-06-10T06:19:48.094Z</time>
      </trkpt>
      <trkpt lat="38.76551117" lon="0.1031635">
        <ele>67.0</ele>
        <time>2018-06-10T06:19:49.094Z</time>
      </trkpt>
      <trkpt lat="38.76554633" lon="0.103058">
        <ele>67.0</ele>
        <time>2018-06-10T06:19:50.094Z</time>
      </trkpt>
      <trkpt lat="38.76558167" lon="0.102952">
        <ele>67.0</ele>
        <time>2018-06-10T06:19:51.094Z</time>
      </trkpt>
      <trkpt lat="38.7656165" lon="0.10284483">
        <ele>67.0</ele>
        <time>2018-06-10T06:19:52.094Z</time>
      </trkpt>
      <trkpt lat="38.765651" lon="0.10273733">
        <ele>67.0</ele>
        <time>2018-06-10T06:19:53.094Z</time>
      </trkpt>
      <trkpt lat="38.76568533" lon="0.10263">
        <ele>67.0</ele>
        <time>2018-06-10T06:19:54.094Z</time>
      </trkpt>
      <trkpt lat="38.7657195" lon="0.10252317">
        <ele>67.0</ele>
        <time>2018-06-10T06:19:55.094Z</time>
      </trkpt>
      <trkpt lat="38.76575383" lon="0.102417">
        <ele>67.0</ele>
        <time>2018-06-10T06:19:56.094Z</time>
      </trkpt>
      <trkpt lat="38.765788" lon="0.102311">
        <ele>67.0</ele>
        <time>2018-06-10T06:19:57.094Z</time>
      </trkpt>
      <trkpt lat="38.76582233" lon="0.10220533">
        <ele>67.0</ele>
        <time>2018-06-10T06:19:58.094Z</time>
      </trkpt>
      <trkpt lat="38.7658575" lon="0.10210017">
        <ele>67.0</ele>
        <time>2018-06-10T06:19:59.094Z</time>
      </trkpt>
      <trkpt lat="38.765893" lon="0.101995">
        <ele>67.0</ele>
        <time>2018-06-10T06:20:00.094Z</time>
      </trkpt>
      <trkpt lat="38.765929" lon="0.10189">
        <ele>67.0</ele>
        <time>2018-06-10T06:20:01.094Z</time>
      </trkpt>
      <trkpt lat="38.76596583" lon="0.1017855">
        <ele>67.0</ele>
        <time>2018-06-10T06:20:02.094Z</time>
      </trkpt>
      <trkpt lat="38.76600467" lon="0.10168267">
        <ele>67.0</ele>
        <time>2018-06-10T06:20:03.094Z</time>
      </trkpt>
      <trkpt lat="38.76604683" lon="0.10158233">
        <ele>67.0</ele>
        <time>2018-06-10T06:20:04.094Z</time>
      </trkpt>
      <trkpt lat="38.76609333" lon="0.101485">
        <ele>67.0</ele>
        <time>2018-06-10T06:20:05.094Z</time>
      </trkpt>
      <trkpt lat="38.76614367" lon="0.1013915">
        <ele>67.0</ele>
        <time>2018-06-10T06:20:06.094Z</time>
      </trkpt>
      <trkpt lat="38.766198" lon="0.101303">
        <ele>67.0</ele>
        <time>2018-06-10T06:20:07.094Z</time>
      </trkpt>
      <trkpt lat="38.76625467" lon="0.1012185">
        <ele>67.0</ele>
        <time>2018-06-10T06:20:08.094Z</time>
      </trkpt>
      <trkpt lat="38.76631317" lon="0.101138">
        <ele>67.0</ele>
        <time>2018-06-10T06:20:09.094Z</time>
      </trkpt>
      <trkpt lat="38.76637333" lon="0.10105983">
        <ele>68.0</ele>
        <time>2018-06-10T06:20:10.094Z</time>
      </trkpt>
      <trkpt lat="38.76643567" lon="0.10098483">
        <ele>68.0</ele>
        <time>2018-06-10T06:20:11.094Z</time>
      </trkpt>
      <trkpt lat="38.7665005" lon="0.100912">
        <ele>68.0</ele>
        <time>2018-06-10T06:20:12.094Z</time>
      </trkpt>
      <trkpt lat="38.7665655" lon="0.10083983">
        <ele>68.0</ele>
        <time>2018-06-10T06:20:13.094Z</time>
      </trkpt>
      <trkpt lat="38.76663067" lon="0.10076783">
        <ele>69.0</ele>
        <time>2018-06-10T06:20:14.094Z</time>
      </trkpt>
      <trkpt lat="38.76669517" lon="0.10069667">
        <ele>69.0</ele>
        <time>2018-06-10T06:20:15.094Z</time>
      </trkpt>
      <trkpt lat="38.76676" lon="0.100627">
        <ele>69.0</ele>
        <time>2018-06-10T06:20:16.094Z</time>
      </trkpt>
      <trkpt lat="38.76682483" lon="0.10055817">
        <ele>69.0</ele>
        <time>2018-06-10T06:20:17.094Z</time>
      </trkpt>
      <trkpt lat="38.7668895" lon="0.10048917">
        <ele>69.0</ele>
        <time>2018-06-10T06:20:18.094Z</time>
      </trkpt>
      <trkpt lat="38.76695417" lon="0.10042">
        <ele>69.0</ele>
        <time>2018-06-10T06:20:19.094Z</time>
      </trkpt>
      <trkpt lat="38.76701867" lon="0.10035">
        <ele>69.0</ele>
        <time>2018-06-10T06:20:20.094Z</time>
      </trkpt>
      <trkpt lat="38.76708283" lon="0.10027867">
        <ele>69.0</ele>
        <time>2018-06-10T06:20:21.094Z</time>
      </trkpt>
      <trkpt lat="38.767146" lon="0.10020583">
        <ele>69.0</ele>
        <time>2018-06-10T06:20:22.094Z</time>
      </trkpt>
      <trkpt lat="38.7672085" lon="0.100132">
        <ele>69.0</ele>
        <time>2018-06-10T06:20:23.094Z</time>
      </trkpt>
      <trkpt lat="38.76727017" lon="0.1000575">
        <ele>69.0</ele>
        <time>2018-06-10T06:20:24.094Z</time>
      </trkpt>
      <trkpt lat="38.76733233" lon="0.0999825">
        <ele>69.0</ele>
        <time>2018-06-10T06:20:25.094Z</time>
      </trkpt>
      <trkpt lat="38.7673945" lon="0.09990667">
        <ele>69.0</ele>
        <time>2018-06-10T06:20:26.094Z</time>
      </trkpt>
      <trkpt lat="38.767457" lon="0.09982933">
        <ele>69.0</ele>
        <time>2018-06-10T06:20:27.094Z</time>
      </trkpt>
      <trkpt lat="38.76752017" lon="0.09975083">
        <ele>69.0</ele>
        <time>2018-06-10T06:20:28.094Z</time>
      </trkpt>
      <trkpt lat="38.76758417" lon="0.099671">
        <ele>69.0</ele>
        <time>2018-06-10T06:20:29.094Z</time>
      </trkpt>
      <trkpt lat="38.76764867" lon="0.09959217">
        <ele>69.0</ele>
        <time>2018-06-10T06:20:30.094Z</time>
      </trkpt>
      <trkpt lat="38.76771283" lon="0.09951317">
        <ele>70.0</ele>
        <time>2018-06-10T06:20:31.094Z</time>
      </trkpt>
      <trkpt lat="38.7677755" lon="0.09943417">
        <ele>70.0</ele>
        <time>2018-06-10T06:20:32.094Z</time>
      </trkpt>
      <trkpt lat="38.76783717" lon="0.099355">
        <ele>70.0</ele>
        <time>2018-06-10T06:20:33.094Z</time>
      </trkpt>
      <trkpt lat="38.767898" lon="0.0992765">
        <ele>70.0</ele>
        <time>2018-06-10T06:20:34.094Z</time>
      </trkpt>
      <trkpt lat="38.7679585" lon="0.0991985">
        <ele>70.0</ele>
        <time>2018-06-10T06:20:35.094Z</time>
      </trkpt>
      <trkpt lat="38.76801933" lon="0.09912067">
        <ele>70.0</ele>
        <time>2018-06-10T06:20:36.094Z</time>
      </trkpt>
      <trkpt lat="38.76808017" lon="0.09904183">
        <ele>71.0</ele>
        <time>2018-06-10T06:20:37.094Z</time>
      </trkpt>
      <trkpt lat="38.76814" lon="0.09896067">
        <ele>71.0</ele>
        <time>2018-06-10T06:20:38.094Z</time>
      </trkpt>
      <trkpt lat="38.76819767" lon="0.0988765">
        <ele>71.0</ele>
        <time>2018-06-10T06:20:39.094Z</time>
      </trkpt>
      <trkpt lat="38.76825317" lon="0.09879">
        <ele>71.0</ele>
        <time>2018-06-10T06:20:40.094Z</time>
      </trkpt>
      <trkpt lat="38.76830567" lon="0.098701">
        <ele>71.0</ele>
        <time>2018-06-10T06:20:41.094Z</time>
      </trkpt>
      <trkpt lat="38.768353" lon="0.09860783">
        <ele>71.0</ele>
        <time>2018-06-10T06:20:42.094Z</time>
      </trkpt>
      <trkpt lat="38.7683965" lon="0.0985125">
        <ele>71.0</ele>
        <time>2018-06-10T06:20:43.094Z</time>
      </trkpt>
      <trkpt lat="38.76843733" lon="0.098416">
        <ele>71.0</ele>
        <time>2018-06-10T06:20:44.094Z</time>
      </trkpt>
      <trkpt lat="38.7684775" lon="0.09831967">
        <ele>71.0</ele>
        <time>2018-06-10T06:20:45.094Z</time>
      </trkpt>
      <trkpt lat="38.7685165" lon="0.09822267">
        <ele>71.0</ele>
        <time>2018-06-10T06:20:46.094Z</time>
      </trkpt>
      <trkpt lat="38.768555" lon="0.0981255">
        <ele>71.0</ele>
        <time>2018-06-10T06:20:47.094Z</time>
      </trkpt>
      <trkpt lat="38.76859333" lon="0.09802867">
        <ele>71.0</ele>
        <time>2018-06-10T06:20:48.094Z</time>
      </trkpt>
      <trkpt lat="38.7686315" lon="0.09793233">
        <ele>71.0</ele>
        <time>2018-06-10T06:20:49.094Z</time>
      </trkpt>
      <trkpt lat="38.76866933" lon="0.0978365">
        <ele>71.0</ele>
        <time>2018-06-10T06:20:50.094Z</time>
      </trkpt>
      <trkpt lat="38.76870717" lon="0.09774083">
        <ele>70.0</ele>
        <time>2018-06-10T06:20:51.094Z</time>
      </trkpt>
      <trkpt lat="38.76874483" lon="0.09764583">
        <ele>70.0</ele>
        <time>2018-06-10T06:20:52.094Z</time>
      </trkpt>
      <trkpt lat="38.76878283" lon="0.09755117">
        <ele>70.0</ele>
        <time>2018-06-10T06:20:53.094Z</time>
      </trkpt>
      <trkpt lat="38.76882033" lon="0.097457">
        <ele>70.0</ele>
        <time>2018-06-10T06:20:54.094Z</time>
      </trkpt>
      <trkpt lat="38.76885783" lon="0.09736283">
        <ele>70.0</ele>
        <time>2018-06-10T06:20:55.094Z</time>
      </trkpt>
      <trkpt lat="38.7688955" lon="0.0972685">
        <ele>70.0</ele>
        <time>2018-06-10T06:20:56.094Z</time>
      </trkpt>
      <trkpt lat="38.76893333" lon="0.097174">
        <ele>70.0</ele>
        <time>2018-06-10T06:20:57.094Z</time>
      </trkpt>
      <trkpt lat="38.76897167" lon="0.0970795">
        <ele>71.0</ele>
        <time>2018-06-10T06:20:58.094Z</time>
      </trkpt>
      <trkpt lat="38.76900967" lon="0.09698467">
        <ele>70.0</ele>
        <time>2018-06-10T06:20:59.094Z</time>
      </trkpt>
      <trkpt lat="38.76904717" lon="0.0968895">
        <ele>70.0</ele>
        <time>2018-06-10T06:21:00.094Z</time>
      </trkpt>
      <trkpt lat="38.76908417" lon="0.0967945">
        <ele>70.0</ele>
        <time>2018-06-10T06:21:01.094Z</time>
      </trkpt>
      <trkpt lat="38.76912133" lon="0.09669967">
        <ele>70.0</ele>
        <time>2018-06-10T06:21:02.094Z</time>
      </trkpt>
      <trkpt lat="38.7691585" lon="0.09660533">
        <ele>71.0</ele>
        <time>2018-06-10T06:21:03.094Z</time>
      </trkpt>
      <trkpt lat="38.76919517" lon="0.09651133">
        <ele>71.0</ele>
        <time>2018-06-10T06:21:04.094Z</time>
      </trkpt>
      <trkpt lat="38.769231" lon="0.09641783">
        <ele>71.0</ele>
        <time>2018-06-10T06:21:05.094Z</time>
      </trkpt>
      <trkpt lat="38.76926667" lon="0.09632517">
        <ele>71.0</ele>
        <time>2018-06-10T06:21:06.094Z</time>
      </trkpt>
      <trkpt lat="38.76930217" lon="0.09623317">
        <ele>71.0</ele>
        <time>2018-06-10T06:21:07.094Z</time>
      </trkpt>
      <trkpt lat="38.76933733" lon="0.09614183">
        <ele>71.0</ele>
        <time>2018-06-10T06:21:08.094Z</time>
      </trkpt>
      <trkpt lat="38.769372" lon="0.09605133">
        <ele>71.0</ele>
        <time>2018-06-10T06:21:09.094Z</time>
      </trkpt>
      <trkpt lat="38.769406" lon="0.09596133">
        <ele>72.0</ele>
        <time>2018-06-10T06:21:10.094Z</time>
      </trkpt>
      <trkpt lat="38.7694365" lon="0.09587133">
        <ele>71.0</ele>
        <time>2018-06-10T06:21:11.094Z</time>
      </trkpt>
      <trkpt lat="38.7694625" lon="0.09578">
        <ele>71.0</ele>
        <time>2018-06-10T06:21:12.094Z</time>
      </trkpt>
      <trkpt lat="38.7694815" lon="0.09568633">
        <ele>71.0</ele>
        <time>2018-06-10T06:21:13.094Z</time>
      </trkpt>
      <trkpt lat="38.769496" lon="0.09559067">
        <ele>71.0</ele>
        <time>2018-06-10T06:21:14.094Z</time>
      </trkpt>
      <trkpt lat="38.76950667" lon="0.09549367">
        <ele>71.0</ele>
        <time>2018-06-10T06:21:15.094Z</time>
      </trkpt>
      <trkpt lat="38.7695155" lon="0.09539567">
        <ele>71.0</ele>
        <time>2018-06-10T06:21:16.094Z</time>
      </trkpt>
      <trkpt lat="38.769524" lon="0.095296">
        <ele>71.0</ele>
        <time>2018-06-10T06:21:17.094Z</time>
      </trkpt>
      <trkpt lat="38.76953133" lon="0.09519433">
        <ele>70.0</ele>
        <time>2018-06-10T06:21:18.094Z</time>
      </trkpt>
      <trkpt lat="38.76953867" lon="0.09509">
        <ele>70.0</ele>
        <time>2018-06-10T06:21:19.094Z</time>
      </trkpt>
      <trkpt lat="38.7695475" lon="0.094984">
        <ele>70.0</ele>
        <time>2018-06-10T06:21:20.094Z</time>
      </trkpt>
      <trkpt lat="38.7695615" lon="0.09487717">
        <ele>69.0</ele>
        <time>2018-06-10T06:21:21.094Z</time>
      </trkpt>
      <trkpt lat="38.7695825" lon="0.094771">
        <ele>69.0</ele>
        <time>2018-06-10T06:21:22.094Z</time>
      </trkpt>
      <trkpt lat="38.76961417" lon="0.09466767">
        <ele>69.0</ele>
        <time>2018-06-10T06:21:23.094Z</time>
      </trkpt>
      <trkpt lat="38.7696575" lon="0.09457067">
        <ele>68.0</ele>
        <time>2018-06-10T06:21:24.094Z</time>
      </trkpt>
      <trkpt lat="38.7697145" lon="0.09448317">
        <ele>68.0</ele>
        <time>2018-06-10T06:21:25.094Z</time>
      </trkpt>
      <trkpt lat="38.76978767" lon="0.09441483">
        <ele>67.0</ele>
        <time>2018-06-10T06:21:26.094Z</time>
      </trkpt>
      <trkpt lat="38.769877" lon="0.09437583">
        <ele>67.0</ele>
        <time>2018-06-10T06:21:27.094Z</time>
      </trkpt>
      <trkpt lat="38.76997483" lon="0.094368">
        <ele>67.0</ele>
        <time>2018-06-10T06:21:28.094Z</time>
      </trkpt>
      <trkpt lat="38.77007267" lon="0.094381">
        <ele>67.0</ele>
        <time>2018-06-10T06:21:29.094Z</time>
      </trkpt>
      <trkpt lat="38.77016583" lon="0.09440183">
        <ele>67.0</ele>
        <time>2018-06-10T06:21:30.094Z</time>
      </trkpt>
      <trkpt lat="38.77025733" lon="0.0944225">
        <ele>67.0</ele>
        <time>2018-06-10T06:21:31.094Z</time>
      </trkpt>
      <trkpt lat="38.7703475" lon="0.09443783">
        <ele>67.0</ele>
        <time>2018-06-10T06:21:32.094Z</time>
      </trkpt>
      <trkpt lat="38.77043483" lon="0.09444067">
        <ele>66.0</ele>
        <time>2018-06-10T06:21:33.094Z</time>
      </trkpt>
      <trkpt lat="38.7705185" lon="0.09442517">
        <ele>67.0</ele>
        <time>2018-06-10T06:21:34.094Z</time>
      </trkpt>
      <trkpt lat="38.77059467" lon="0.09438617">
        <ele>67.0</ele>
        <time>2018-06-10T06:21:35.094Z</time>
      </trkpt>
      <trkpt lat="38.77066017" lon="0.09432583">
        <ele>67.0</ele>
        <time>2018-06-10T06:21:36.094Z</time>
      </trkpt>
      <trkpt lat="38.77071183" lon="0.09425267">
        <ele>66.0</ele>
        <time>2018-06-10T06:21:37.094Z</time>
      </trkpt>
      <trkpt lat="38.770748" lon="0.094165">
        <ele>68.0</ele>
        <time>2018-06-10T06:21:38.094Z</time>
      </trkpt>
      <trkpt lat="38.77077267" lon="0.094072">
        <ele>68.0</ele>
        <time>2018-06-10T06:21:39.094Z</time>
      </trkpt>
      <trkpt lat="38.77078683" lon="0.09397367">
        <ele>69.0</ele>
        <time>2018-06-10T06:21:40.094Z</time>
      </trkpt>
      <trkpt lat="38.770795" lon="0.09387767">
        <ele>70.0</ele>
        <time>2018-06-10T06:21:41.094Z</time>
      </trkpt>
      <trkpt lat="38.770796" lon="0.09378">
        <ele>71.0</ele>
        <time>2018-06-10T06:21:42.094Z</time>
      </trkpt>
      <trkpt lat="38.770793" lon="0.09368367">
        <ele>71.0</ele>
        <time>2018-06-10T06:21:43.094Z</time>
      </trkpt>
      <trkpt lat="38.77078567" lon="0.0935915">
        <ele>70.0</ele>
        <time>2018-06-10T06:21:44.094Z</time>
      </trkpt>
      <trkpt lat="38.77077783" lon="0.09350267">
        <ele>70.0</ele>
        <time>2018-06-10T06:21:45.094Z</time>
      </trkpt>
      <trkpt lat="38.77077" lon="0.09341383">
        <ele>70.0</ele>
        <time>2018-06-10T06:21:46.094Z</time>
      </trkpt>
      <trkpt lat="38.7707645" lon="0.09332483">
        <ele>70.0</ele>
        <time>2018-06-10T06:21:47.094Z</time>
      </trkpt>
      <trkpt lat="38.77076317" lon="0.09323617">
        <ele>70.0</ele>
        <time>2018-06-10T06:21:48.094Z</time>
      </trkpt>
      <trkpt lat="38.77078033" lon="0.093151">
        <ele>69.0</ele>
        <time>2018-06-10T06:21:49.094Z</time>
      </trkpt>
      <trkpt lat="38.7708105" lon="0.09306933">
        <ele>68.0</ele>
        <time>2018-06-10T06:21:50.094Z</time>
      </trkpt>
      <trkpt lat="38.7708495" lon="0.09298917">
        <ele>68.0</ele>
        <time>2018-06-10T06:21:51.094Z</time>
      </trkpt>
      <trkpt lat="38.77088683" lon="0.09290867">
        <ele>69.0</ele>
        <time>2018-06-10T06:21:52.094Z</time>
      </trkpt>
      <trkpt lat="38.7709255" lon="0.09282867">
        <ele>69.0</ele>
        <time>2018-06-10T06:21:53.094Z</time>
      </trkpt>
      <trkpt lat="38.77096567" lon="0.0927505">
        <ele>69.0</ele>
        <time>2018-06-10T06:21:54.094Z</time>
      </trkpt>
      <trkpt lat="38.77100217" lon="0.092673">
        <ele>70.0</ele>
        <time>2018-06-10T06:21:55.094Z</time>
      </trkpt>
      <trkpt lat="38.77103767" lon="0.09259633">
        <ele>70.0</ele>
        <time>2018-06-10T06:21:56.094Z</time>
      </trkpt>
      <trkpt lat="38.77107283" lon="0.09252167">
        <ele>70.0</ele>
        <time>2018-06-10T06:21:57.094Z</time>
      </trkpt>
      <trkpt lat="38.771107" lon="0.09244917">
        <ele>71.0</ele>
        <time>2018-06-10T06:21:58.094Z</time>
      </trkpt>
      <trkpt lat="38.7711395" lon="0.09237733">
        <ele>71.0</ele>
        <time>2018-06-10T06:21:59.094Z</time>
      </trkpt>
      <trkpt lat="38.77117067" lon="0.092307">
        <ele>71.0</ele>
        <time>2018-06-10T06:22:00.094Z</time>
      </trkpt>
      <trkpt lat="38.77120183" lon="0.09223883">
        <ele>71.0</ele>
        <time>2018-06-10T06:22:01.094Z</time>
      </trkpt>
      <trkpt lat="38.771233" lon="0.0921725">
        <ele>72.0</ele>
        <time>2018-06-10T06:22:02.094Z</time>
      </trkpt>
      <trkpt lat="38.77126383" lon="0.09210667">
        <ele>72.0</ele>
        <time>2018-06-10T06:22:03.094Z</time>
      </trkpt>
      <trkpt lat="38.77129433" lon="0.09204">
        <ele>72.0</ele>
        <time>2018-06-10T06:22:04.094Z</time>
      </trkpt>
      <trkpt lat="38.77132467" lon="0.09197433">
        <ele>72.0</ele>
        <time>2018-06-10T06:22:05.094Z</time>
      </trkpt>
      <trkpt lat="38.77135517" lon="0.09191033">
        <ele>72.0</ele>
        <time>2018-06-10T06:22:06.094Z</time>
      </trkpt>
      <trkpt lat="38.771385" lon="0.09184917">
        <ele>73.0</ele>
        <time>2018-06-10T06:22:07.094Z</time>
      </trkpt>
      <trkpt lat="38.7714135" lon="0.0917905">
        <ele>73.0</ele>
        <time>2018-06-10T06:22:08.094Z</time>
      </trkpt>
      <trkpt lat="38.7714405" lon="0.091734">
        <ele>73.0</ele>
        <time>2018-06-10T06:22:09.094Z</time>
      </trkpt>
      <trkpt lat="38.771466" lon="0.09167833">
        <ele>74.0</ele>
        <time>2018-06-10T06:22:10.094Z</time>
      </trkpt>
      <trkpt lat="38.77149083" lon="0.09162233">
        <ele>74.0</ele>
        <time>2018-06-10T06:22:11.094Z</time>
      </trkpt>
      <trkpt lat="38.77151483" lon="0.09156567">
        <ele>74.0</ele>
        <time>2018-06-10T06:22:12.094Z</time>
      </trkpt>
      <trkpt lat="38.77153967" lon="0.0915095">
        <ele>75.0</ele>
        <time>2018-06-10T06:22:13.094Z</time>
      </trkpt>
      <trkpt lat="38.77156467" lon="0.09145467">
        <ele>75.0</ele>
        <time>2018-06-10T06:22:14.094Z</time>
      </trkpt>
      <trkpt lat="38.77159117" lon="0.09140217">
        <ele>75.0</ele>
        <time>2018-06-10T06:22:15.094Z</time>
      </trkpt>
      <trkpt lat="38.77161783" lon="0.0913515">
        <ele>76.0</ele>
        <time>2018-06-10T06:22:16.094Z</time>
      </trkpt>
      <trkpt lat="38.771646" lon="0.09130383">
        <ele>76.0</ele>
        <time>2018-06-10T06:22:17.094Z</time>
      </trkpt>
      <trkpt lat="38.77167367" lon="0.09125783">
        <ele>77.0</ele>
        <time>2018-06-10T06:22:18.094Z</time>
      </trkpt>
      <trkpt lat="38.77169983" lon="0.0912135">
        <ele>77.0</ele>
        <time>2018-06-10T06:22:19.094Z</time>
      </trkpt>
      <trkpt lat="38.77172483" lon="0.09116983">
        <ele>78.0</ele>
        <time>2018-06-10T06:22:20.094Z</time>
      </trkpt>
      <trkpt lat="38.77174767" lon="0.09112517">
        <ele>78.0</ele>
        <time>2018-06-10T06:22:21.094Z</time>
      </trkpt>
      <trkpt lat="38.7717695" lon="0.09107917">
        <ele>79.0</ele>
        <time>2018-06-10T06:22:22.094Z</time>
      </trkpt>
      <trkpt lat="38.77179083" lon="0.0910335">
        <ele>80.0</ele>
        <time>2018-06-10T06:22:23.094Z</time>
      </trkpt>
      <trkpt lat="38.7718135" lon="0.0909895">
        <ele>82.0</ele>
        <time>2018-06-10T06:22:24.094Z</time>
      </trkpt>
      <trkpt lat="38.77183883" lon="0.09094283">
        <ele>84.0</ele>
        <time>2018-06-10T06:22:25.094Z</time>
      </trkpt>
      <trkpt lat="38.771863" lon="0.09089467">
        <ele>84.0</ele>
        <time>2018-06-10T06:22:26.094Z</time>
      </trkpt>
      <trkpt lat="38.77188633" lon="0.0908465">
        <ele>85.0</ele>
        <time>2018-06-10T06:22:27.094Z</time>
      </trkpt>
      <trkpt lat="38.77190533" lon="0.09080067">
        <ele>85.0</ele>
        <time>2018-06-10T06:22:28.094Z</time>
      </trkpt>
      <trkpt lat="38.7719235" lon="0.09075283">
        <ele>84.0</ele>
        <time>2018-06-10T06:22:29.094Z</time>
      </trkpt>
      <trkpt lat="38.7719395" lon="0.09070183">
        <ele>84.0</ele>
        <time>2018-06-10T06:22:30.094Z</time>
      </trkpt>
      <trkpt lat="38.77195533" lon="0.09065117">
        <ele>84.0</ele>
        <time>2018-06-10T06:22:31.094Z</time>
      </trkpt>
      <trkpt lat="38.771972" lon="0.09060233">
        <ele>85.0</ele>
        <time>2018-06-10T06:22:32.094Z</time>
      </trkpt>
      <trkpt lat="38.77199217" lon="0.0905565">
        <ele>85.0</ele>
        <time>2018-06-10T06:22:33.094Z</time>
      </trkpt>
      <trkpt lat="38.7720135" lon="0.09051233">
        <ele>85.0</ele>
        <time>2018-06-10T06:22:34.094Z</time>
      </trkpt>
      <trkpt lat="38.77203333" lon="0.09046583">
        <ele>84.0</ele>
        <time>2018-06-10T06:22:35.094Z</time>
      </trkpt>
      <trkpt lat="38.772051" lon="0.0904185">
        <ele>84.0</ele>
        <time>2018-06-10T06:22:36.094Z</time>
      </trkpt>
      <trkpt lat="38.77207117" lon="0.090372">
        <ele>85.0</ele>
        <time>2018-06-10T06:22:37.094Z</time>
      </trkpt>
      <trkpt lat="38.7720925" lon="0.09032683">
        <ele>84.0</ele>
        <time>2018-06-10T06:22:38.094Z</time>
      </trkpt>
      <trkpt lat="38.7721135" lon="0.09028067">
        <ele>84.0</ele>
        <time>2018-06-10T06:22:39.094Z</time>
      </trkpt>
      <trkpt lat="38.77213067" lon="0.09023217">
        <ele>83.0</ele>
        <time>2018-06-10T06:22:40.094Z</time>
      </trkpt>
      <trkpt lat="38.7721495" lon="0.09018617">
        <ele>83.0</ele>
        <time>2018-06-10T06:22:41.094Z</time>
      </trkpt>
      <trkpt lat="38.77217" lon="0.09014233">
        <ele>83.0</ele>
        <time>2018-06-10T06:22:42.094Z</time>
      </trkpt>
      <trkpt lat="38.7721925" lon="0.090102">
        <ele>83.0</ele>
        <time>2018-06-10T06:22:43.094Z</time>
      </trkpt>
      <trkpt lat="38.77221467" lon="0.09006317">
        <ele>83.0</ele>
        <time>2018-06-10T06:22:44.094Z</time>
      </trkpt>
      <trkpt lat="38.77223617" lon="0.09002617">
        <ele>83.0</ele>
        <time>2018-06-10T06:22:45.094Z</time>
      </trkpt>
      <trkpt lat="38.77225533" lon="0.08999333">
        <ele>82.0</ele>
        <time>2018-06-10T06:22:46.094Z</time>
      </trkpt>
      <trkpt lat="38.77227383" lon="0.0899635">
        <ele>82.0</ele>
        <time>2018-06-10T06:22:47.094Z</time>
      </trkpt>
      <trkpt lat="38.7722915" lon="0.08993983">
        <ele>81.0</ele>
        <time>2018-06-10T06:22:48.094Z</time>
      </trkpt>
      <trkpt lat="38.77230933" lon="0.08991983">
        <ele>81.0</ele>
        <time>2018-06-10T06:22:49.094Z</time>
      </trkpt>
      <trkpt lat="38.77232467" lon="0.08990717">
        <ele>80.0</ele>
        <time>2018-06-10T06:22:50.094Z</time>
      </trkpt>
      <trkpt lat="38.77233267" lon="0.089902">
        <ele>80.0</ele>
        <time>2018-06-10T06:22:51.094Z</time>
      </trkpt>
      <trkpt lat="38.77236333" lon="0.08977783">
        <ele>82.0</ele>
        <time>2018-06-10T06:22:52.015Z</time>
      </trkpt>
      <trkpt lat="38.77237717" lon="0.08976">
        <ele>82.0</ele>
        <time>2018-06-10T06:22:53.015Z</time>
      </trkpt>
      <trkpt lat="38.77238967" lon="0.08974217">
        <ele>82.0</ele>
        <time>2018-06-10T06:22:54.015Z</time>
      </trkpt>
      <trkpt lat="38.77240233" lon="0.08972467">
        <ele>82.0</ele>
        <time>2018-06-10T06:22:55.015Z</time>
      </trkpt>
      <trkpt lat="38.7724145" lon="0.0897045">
        <ele>82.0</ele>
        <time>2018-06-10T06:22:56.015Z</time>
      </trkpt>
      <trkpt lat="38.77242967" lon="0.0896825">
        <ele>82.0</ele>
        <time>2018-06-10T06:22:57.015Z</time>
      </trkpt>
      <trkpt lat="38.772445" lon="0.089658">
        <ele>82.0</ele>
        <time>2018-06-10T06:22:58.015Z</time>
      </trkpt>
      <trkpt lat="38.772461" lon="0.089632">
        <ele>82.0</ele>
        <time>2018-06-10T06:22:59.015Z</time>
      </trkpt>
      <trkpt lat="38.77247667" lon="0.0896045">
        <ele>82.0</ele>
        <time>2018-06-10T06:23:00.015Z</time>
      </trkpt>
      <trkpt lat="38.7724925" lon="0.08957533">
        <ele>82.0</ele>
        <time>2018-06-10T06:23:01.015Z</time>
      </trkpt>
      <trkpt lat="38.77250933" lon="0.08954617">
        <ele>81.0</ele>
        <time>2018-06-10T06:23:02.015Z</time>
      </trkpt>
      <trkpt lat="38.77252633" lon="0.08951667">
        <ele>81.0</ele>
        <time>2018-06-10T06:23:03.015Z</time>
      </trkpt>
      <trkpt lat="38.772544" lon="0.089487">
        <ele>82.0</ele>
        <time>2018-06-10T06:23:04.015Z</time>
      </trkpt>
      <trkpt lat="38.7725615" lon="0.0894575">
        <ele>81.0</ele>
        <time>2018-06-10T06:23:05.015Z</time>
      </trkpt>
      <trkpt lat="38.7725785" lon="0.0894285">
        <ele>81.0</ele>
        <time>2018-06-10T06:23:06.015Z</time>
      </trkpt>
      <trkpt lat="38.77259383" lon="0.0893995">
        <ele>81.0</ele>
        <time>2018-06-10T06:23:07.015Z</time>
      </trkpt>
      <trkpt lat="38.77260833" lon="0.08937033">
        <ele>81.0</ele>
        <time>2018-06-10T06:23:08.015Z</time>
      </trkpt>
      <trkpt lat="38.77262167" lon="0.08934167">
        <ele>81.0</ele>
        <time>2018-06-10T06:23:09.015Z</time>
      </trkpt>
      <trkpt lat="38.77263583" lon="0.089315">
        <ele>81.0</ele>
        <time>2018-06-10T06:23:10.015Z</time>
      </trkpt>
      <trkpt lat="38.77264917" lon="0.089288">
        <ele>82.0</ele>
        <time>2018-06-10T06:23:11.015Z</time>
      </trkpt>
      <trkpt lat="38.772661" lon="0.08925833">
        <ele>82.0</ele>
        <time>2018-06-10T06:23:12.015Z</time>
      </trkpt>
      <trkpt lat="38.7726735" lon="0.0892295">
        <ele>82.0</ele>
        <time>2018-06-10T06:23:13.015Z</time>
      </trkpt>
      <trkpt lat="38.772687" lon="0.089202">
        <ele>82.0</ele>
        <time>2018-06-10T06:23:14.015Z</time>
      </trkpt>
      <trkpt lat="38.77269967" lon="0.08917583">
        <ele>82.0</ele>
        <time>2018-06-10T06:23:15.015Z</time>
      </trkpt>
      <trkpt lat="38.77271283" lon="0.089147">
        <ele>81.0</ele>
        <time>2018-06-10T06:23:16.015Z</time>
      </trkpt>
      <trkpt lat="38.77272917" lon="0.0891175">
        <ele>82.0</ele>
        <time>2018-06-10T06:23:17.015Z</time>
      </trkpt>
      <trkpt lat="38.77275133" lon="0.08908917">
        <ele>82.0</ele>
        <time>2018-06-10T06:23:18.015Z</time>
      </trkpt>
      <trkpt lat="38.7727745" lon="0.08906217">
        <ele>82.0</ele>
        <time>2018-06-10T06:23:19.015Z</time>
      </trkpt>
      <trkpt lat="38.77279483" lon="0.08903367">
        <ele>81.0</ele>
        <time>2018-06-10T06:23:20.015Z</time>
      </trkpt>
      <trkpt lat="38.7728135" lon="0.089004">
        <ele>81.0</ele>
        <time>2018-06-10T06:23:21.015Z</time>
      </trkpt>
      <trkpt lat="38.77283217" lon="0.08897467">
        <ele>80.0</ele>
        <time>2018-06-10T06:23:22.015Z</time>
      </trkpt>
      <trkpt lat="38.77285083" lon="0.0889455">
        <ele>80.0</ele>
        <time>2018-06-10T06:23:23.015Z</time>
      </trkpt>
      <trkpt lat="38.77286867" lon="0.0889165">
        <ele>79.0</ele>
        <time>2018-06-10T06:23:24.015Z</time>
      </trkpt>
      <trkpt lat="38.77288567" lon="0.08888717">
        <ele>79.0</ele>
        <time>2018-06-10T06:23:25.015Z</time>
      </trkpt>
      <trkpt lat="38.7729035" lon="0.088857">
        <ele>80.0</ele>
        <time>2018-06-10T06:23:26.015Z</time>
      </trkpt>
      <trkpt lat="38.7729215" lon="0.08882617">
        <ele>80.0</ele>
        <time>2018-06-10T06:23:27.015Z</time>
      </trkpt>
      <trkpt lat="38.77294033" lon="0.088794">
        <ele>80.0</ele>
        <time>2018-06-10T06:23:28.015Z</time>
      </trkpt>
      <trkpt lat="38.77295967" lon="0.08876217">
        <ele>80.0</ele>
        <time>2018-06-10T06:23:29.015Z</time>
      </trkpt>
      <trkpt lat="38.77297933" lon="0.08873017">
        <ele>80.0</ele>
        <time>2018-06-10T06:23:30.015Z</time>
      </trkpt>
      <trkpt lat="38.77299817" lon="0.08869833">
        <ele>80.0</ele>
        <time>2018-06-10T06:23:31.015Z</time>
      </trkpt>
      <trkpt lat="38.77301633" lon="0.088667">
        <ele>79.0</ele>
        <time>2018-06-10T06:23:32.015Z</time>
      </trkpt>
      <trkpt lat="38.77303333" lon="0.088637">
        <ele>79.0</ele>
        <time>2018-06-10T06:23:33.015Z</time>
      </trkpt>
      <trkpt lat="38.773048" lon="0.08861017">
        <ele>79.0</ele>
        <time>2018-06-10T06:23:34.015Z</time>
      </trkpt>
      <trkpt lat="38.773061" lon="0.088585">
        <ele>80.0</ele>
        <time>2018-06-10T06:23:35.015Z</time>
      </trkpt>
      <trkpt lat="38.77307283" lon="0.08856167">
        <ele>80.0</ele>
        <time>2018-06-10T06:23:36.015Z</time>
      </trkpt>
      <trkpt lat="38.77308583" lon="0.08853667">
        <ele>80.0</ele>
        <time>2018-06-10T06:23:37.015Z</time>
      </trkpt>
      <trkpt lat="38.77310067" lon="0.08851033">
        <ele>80.0</ele>
        <time>2018-06-10T06:23:38.015Z</time>
      </trkpt>
      <trkpt lat="38.77311533" lon="0.0884825">
        <ele>80.0</ele>
        <time>2018-06-10T06:23:39.015Z</time>
      </trkpt>
      <trkpt lat="38.77312817" lon="0.088452">
        <ele>81.0</ele>
        <time>2018-06-10T06:23:40.015Z</time>
      </trkpt>
      <trkpt lat="38.77313983" lon="0.088421">
        <ele>81.0</ele>
        <time>2018-06-10T06:23:41.015Z</time>
      </trkpt>
      <trkpt lat="38.773153" lon="0.08838967">
        <ele>81.0</ele>
        <time>2018-06-10T06:23:42.015Z</time>
      </trkpt>
      <trkpt lat="38.77316867" lon="0.08835967">
        <ele>81.0</ele>
        <time>2018-06-10T06:23:43.015Z</time>
      </trkpt>
      <trkpt lat="38.77318567" lon="0.08833017">
        <ele>81.0</ele>
        <time>2018-06-10T06:23:44.015Z</time>
      </trkpt>
      <trkpt lat="38.77320383" lon="0.08829967">
        <ele>81.0</ele>
        <time>2018-06-10T06:23:45.015Z</time>
      </trkpt>
      <trkpt lat="38.77322217" lon="0.08826733">
        <ele>82.0</ele>
        <time>2018-06-10T06:23:46.015Z</time>
      </trkpt>
      <trkpt lat="38.77323983" lon="0.08823167">
        <ele>82.0</ele>
        <time>2018-06-10T06:23:47.015Z</time>
      </trkpt>
      <trkpt lat="38.773257" lon="0.088195">
        <ele>83.0</ele>
        <time>2018-06-10T06:23:48.015Z</time>
      </trkpt>
      <trkpt lat="38.77327467" lon="0.08815917">
        <ele>83.0</ele>
        <time>2018-06-10T06:23:49.015Z</time>
      </trkpt>
      <trkpt lat="38.7732925" lon="0.0881255">
        <ele>83.0</ele>
        <time>2018-06-10T06:23:50.015Z</time>
      </trkpt>
      <trkpt lat="38.77331067" lon="0.0880925">
        <ele>84.0</ele>
        <time>2018-06-10T06:23:51.015Z</time>
      </trkpt>
      <trkpt lat="38.77332933" lon="0.08806">
        <ele>84.0</ele>
        <time>2018-06-10T06:23:52.015Z</time>
      </trkpt>
      <trkpt lat="38.77334833" lon="0.08802717">
        <ele>84.0</ele>
        <time>2018-06-10T06:23:53.015Z</time>
      </trkpt>
      <trkpt lat="38.77336683" lon="0.0879945">
        <ele>85.0</ele>
        <time>2018-06-10T06:23:54.015Z</time>
      </trkpt>
      <trkpt lat="38.77338533" lon="0.08796117">
        <ele>85.0</ele>
        <time>2018-06-10T06:23:55.015Z</time>
      </trkpt>
      <trkpt lat="38.77340233" lon="0.08792817">
        <ele>85.0</ele>
        <time>2018-06-10T06:23:56.015Z</time>
      </trkpt>
      <trkpt lat="38.77342067" lon="0.0878945">
        <ele>85.0</ele>
        <time>2018-06-10T06:23:57.015Z</time>
      </trkpt>
      <trkpt lat="38.7734385" lon="0.08786083">
        <ele>85.0</ele>
        <time>2018-06-10T06:23:58.015Z</time>
      </trkpt>
      <trkpt lat="38.77345783" lon="0.087826">
        <ele>85.0</ele>
        <time>2018-06-10T06:23:59.015Z</time>
      </trkpt>
      <trkpt lat="38.77347633" lon="0.08779267">
        <ele>85.0</ele>
        <time>2018-06-10T06:24:00.015Z</time>
      </trkpt>
      <trkpt lat="38.77349517" lon="0.08775967">
        <ele>85.0</ele>
        <time>2018-06-10T06:24:01.015Z</time>
      </trkpt>
      <trkpt lat="38.773514" lon="0.08772733">
        <ele>85.0</ele>
        <time>2018-06-10T06:24:02.015Z</time>
      </trkpt>
      <trkpt lat="38.7735325" lon="0.087693">
        <ele>85.0</ele>
        <time>2018-06-10T06:24:03.015Z</time>
      </trkpt>
      <trkpt lat="38.7735515" lon="0.08765717">
        <ele>85.0</ele>
        <time>2018-06-10T06:24:04.015Z</time>
      </trkpt>
      <trkpt lat="38.77357183" lon="0.0876215">
        <ele>85.0</ele>
        <time>2018-06-10T06:24:05.015Z</time>
      </trkpt>
      <trkpt lat="38.77359283" lon="0.08758617">
        <ele>86.0</ele>
        <time>2018-06-10T06:24:06.015Z</time>
      </trkpt>
      <trkpt lat="38.77361417" lon="0.08755083">
        <ele>86.0</ele>
        <time>2018-06-10T06:24:07.015Z</time>
      </trkpt>
      <trkpt lat="38.77363367" lon="0.087514">
        <ele>87.0</ele>
        <time>2018-06-10T06:24:08.015Z</time>
      </trkpt>
      <trkpt lat="38.773653" lon="0.0874765">
        <ele>87.0</ele>
        <time>2018-06-10T06:24:09.015Z</time>
      </trkpt>
      <trkpt lat="38.77367183" lon="0.08743817">
        <ele>87.0</ele>
        <time>2018-06-10T06:24:10.015Z</time>
      </trkpt>
      <trkpt lat="38.77369167" lon="0.0873995">
        <ele>88.0</ele>
        <time>2018-06-10T06:24:11.015Z</time>
      </trkpt>
      <trkpt lat="38.7737115" lon="0.08736083">
        <ele>88.0</ele>
        <time>2018-06-10T06:24:12.015Z</time>
      </trkpt>
      <trkpt lat="38.7737315" lon="0.0873225">
        <ele>88.0</ele>
        <time>2018-06-10T06:24:13.015Z</time>
      </trkpt>
      <trkpt lat="38.77375233" lon="0.0872855">
        <ele>88.0</ele>
        <time>2018-06-10T06:24:14.015Z</time>
      </trkpt>
      <trkpt lat="38.7737725" lon="0.08725167">
        <ele>87.0</ele>
        <time>2018-06-10T06:24:15.015Z</time>
      </trkpt>
      <trkpt lat="38.77379183" lon="0.08721867">
        <ele>87.0</ele>
        <time>2018-06-10T06:24:16.015Z</time>
      </trkpt>
      <trkpt lat="38.77380983" lon="0.08718617">
        <ele>86.0</ele>
        <time>2018-06-10T06:24:17.015Z</time>
      </trkpt>
      <trkpt lat="38.77382733" lon="0.08715233">
        <ele>85.0</ele>
        <time>2018-06-10T06:24:18.015Z</time>
      </trkpt>
      <trkpt lat="38.773843" lon="0.08711717">
        <ele>86.0</ele>
        <time>2018-06-10T06:24:19.015Z</time>
      </trkpt>
      <trkpt lat="38.77385783" lon="0.08708233">
        <ele>86.0</ele>
        <time>2018-06-10T06:24:20.015Z</time>
      </trkpt>
      <trkpt lat="38.7738725" lon="0.08704817">
        <ele>86.0</ele>
        <time>2018-06-10T06:24:21.015Z</time>
      </trkpt>
      <trkpt lat="38.7738885" lon="0.08701733">
        <ele>86.0</ele>
        <time>2018-06-10T06:24:22.015Z</time>
      </trkpt>
      <trkpt lat="38.773905" lon="0.086988">
        <ele>85.0</ele>
        <time>2018-06-10T06:24:23.015Z</time>
      </trkpt>
      <trkpt lat="38.77392233" lon="0.0869585">
        <ele>85.0</ele>
        <time>2018-06-10T06:24:24.015Z</time>
      </trkpt>
      <trkpt lat="38.7739395" lon="0.08693017">
        <ele>85.0</ele>
        <time>2018-06-10T06:24:25.015Z</time>
      </trkpt>
      <trkpt lat="38.773957" lon="0.086903">
        <ele>84.0</ele>
        <time>2018-06-10T06:24:26.015Z</time>
      </trkpt>
      <trkpt lat="38.773974" lon="0.086878">
        <ele>84.0</ele>
        <time>2018-06-10T06:24:27.015Z</time>
      </trkpt>
      <trkpt lat="38.773992" lon="0.08685417">
        <ele>84.0</ele>
        <time>2018-06-10T06:24:28.015Z</time>
      </trkpt>
      <trkpt lat="38.77401" lon="0.08683067">
        <ele>84.0</ele>
        <time>2018-06-10T06:24:29.015Z</time>
      </trkpt>
      <trkpt lat="38.77402683" lon="0.08680817">
        <ele>84.0</ele>
        <time>2018-06-10T06:24:30.015Z</time>
      </trkpt>
      <trkpt lat="38.77404167" lon="0.08678533">
        <ele>84.0</ele>
        <time>2018-06-10T06:24:31.015Z</time>
      </trkpt>
      <trkpt lat="38.77405567" lon="0.08676067">
        <ele>84.0</ele>
        <time>2018-06-10T06:24:32.015Z</time>
      </trkpt>
      <trkpt lat="38.774069" lon="0.08673633">
        <ele>84.0</ele>
        <time>2018-06-10T06:24:33.015Z</time>
      </trkpt>
      <trkpt lat="38.774082" lon="0.08671417">
        <ele>84.0</ele>
        <time>2018-06-10T06:24:34.015Z</time>
      </trkpt>
      <trkpt lat="38.77409383" lon="0.0866975">
        <ele>83.0</ele>
        <time>2018-06-10T06:24:35.015Z</time>
      </trkpt>
      <trkpt lat="38.7741375" lon="0.086611">
        <ele>84.0</ele>
        <time>2018-06-10T06:24:36.108Z</time>
      </trkpt>
      <trkpt lat="38.77414517" lon="0.08659483">
        <ele>84.0</ele>
        <time>2018-06-10T06:24:37.108Z</time>
      </trkpt>
      <trkpt lat="38.77415367" lon="0.086578">
        <ele>83.0</ele>
        <time>2018-06-10T06:24:38.108Z</time>
      </trkpt>
      <trkpt lat="38.77416333" lon="0.08655983">
        <ele>84.0</ele>
        <time>2018-06-10T06:24:39.108Z</time>
      </trkpt>
      <trkpt lat="38.77417333" lon="0.08654017">
        <ele>84.0</ele>
        <time>2018-06-10T06:24:40.108Z</time>
      </trkpt>
      <trkpt lat="38.77418567" lon="0.08651917">
        <ele>84.0</ele>
        <time>2018-06-10T06:24:41.108Z</time>
      </trkpt>
      <trkpt lat="38.7742005" lon="0.086497">
        <ele>84.0</ele>
        <time>2018-06-10T06:24:42.108Z</time>
      </trkpt>
      <trkpt lat="38.77421717" lon="0.08647467">
        <ele>84.0</ele>
        <time>2018-06-10T06:24:43.108Z</time>
      </trkpt>
      <trkpt lat="38.77423333" lon="0.08645133">
        <ele>84.0</ele>
        <time>2018-06-10T06:24:44.108Z</time>
      </trkpt>
      <trkpt lat="38.7742485" lon="0.08642817">
        <ele>84.0</ele>
        <time>2018-06-10T06:24:45.108Z</time>
      </trkpt>
      <trkpt lat="38.774262" lon="0.08640633">
        <ele>83.0</ele>
        <time>2018-06-10T06:24:46.108Z</time>
      </trkpt>
      <trkpt lat="38.77427317" lon="0.08638733">
        <ele>83.0</ele>
        <time>2018-06-10T06:24:47.108Z</time>
      </trkpt>
      <trkpt lat="38.77427867" lon="0.0863745">
        <ele>84.0</ele>
        <time>2018-06-10T06:24:48.108Z</time>
      </trkpt>
      <trkpt lat="38.774281" lon="0.08636683">
        <ele>84.0</ele>
        <time>2018-06-10T06:24:49.108Z</time>
      </trkpt>
      <trkpt lat="38.77428217" lon="0.08636233">
        <ele>84.0</ele>
        <time>2018-06-10T06:24:50.108Z</time>
      </trkpt>
      <trkpt lat="38.77428767" lon="0.08635333">
        <ele>84.0</ele>
        <time>2018-06-10T06:24:51.108Z</time>
      </trkpt>
      <trkpt lat="38.77429583" lon="0.08633983">
        <ele>84.0</ele>
        <time>2018-06-10T06:24:52.108Z</time>
      </trkpt>
      <trkpt lat="38.77430583" lon="0.086323">
        <ele>84.0</ele>
        <time>2018-06-10T06:24:53.108Z</time>
      </trkpt>
      <trkpt lat="38.774316" lon="0.08630633">
        <ele>83.0</ele>
        <time>2018-06-10T06:24:54.108Z</time>
      </trkpt>
      <trkpt lat="38.77432767" lon="0.08628817">
        <ele>83.0</ele>
        <time>2018-06-10T06:24:55.108Z</time>
      </trkpt>
      <trkpt lat="38.77434333" lon="0.08626567">
        <ele>84.0</ele>
        <time>2018-06-10T06:24:56.108Z</time>
      </trkpt>
      <trkpt lat="38.77436267" lon="0.08623717">
        <ele>84.0</ele>
        <time>2018-06-10T06:24:57.108Z</time>
      </trkpt>
      <trkpt lat="38.774382" lon="0.0861995">
        <ele>85.0</ele>
        <time>2018-06-10T06:24:58.108Z</time>
      </trkpt>
      <trkpt lat="38.77440217" lon="0.0861565">
        <ele>85.0</ele>
        <time>2018-06-10T06:24:59.108Z</time>
      </trkpt>
      <trkpt lat="38.77442383" lon="0.08610967">
        <ele>84.0</ele>
        <time>2018-06-10T06:25:00.108Z</time>
      </trkpt>
      <trkpt lat="38.77444817" lon="0.08606117">
        <ele>84.0</ele>
        <time>2018-06-10T06:25:01.108Z</time>
      </trkpt>
      <trkpt lat="38.77447333" lon="0.08601167">
        <ele>84.0</ele>
        <time>2018-06-10T06:25:02.108Z</time>
      </trkpt>
      <trkpt lat="38.77449783" lon="0.0859605">
        <ele>84.0</ele>
        <time>2018-06-10T06:25:03.108Z</time>
      </trkpt>
      <trkpt lat="38.77452383" lon="0.08590983">
        <ele>85.0</ele>
        <time>2018-06-10T06:25:04.108Z</time>
      </trkpt>
      <trkpt lat="38.77455" lon="0.08585817">
        <ele>85.0</ele>
        <time>2018-06-10T06:25:05.108Z</time>
      </trkpt>
      <trkpt lat="38.77458033" lon="0.08580783">
        <ele>84.0</ele>
        <time>2018-06-10T06:25:06.108Z</time>
      </trkpt>
      <trkpt lat="38.77461233" lon="0.0857575">
        <ele>84.0</ele>
        <time>2018-06-10T06:25:07.108Z</time>
      </trkpt>
      <trkpt lat="38.77464467" lon="0.08570517">
        <ele>84.0</ele>
        <time>2018-06-10T06:25:08.108Z</time>
      </trkpt>
      <trkpt lat="38.7746755" lon="0.08564967">
        <ele>84.0</ele>
        <time>2018-06-10T06:25:09.108Z</time>
      </trkpt>
      <trkpt lat="38.77470733" lon="0.08559283">
        <ele>84.0</ele>
        <time>2018-06-10T06:25:10.108Z</time>
      </trkpt>
      <trkpt lat="38.77474" lon="0.0855345">
        <ele>84.0</ele>
        <time>2018-06-10T06:25:11.108Z</time>
      </trkpt>
      <trkpt lat="38.77477367" lon="0.08547533">
        <ele>84.0</ele>
        <time>2018-06-10T06:25:12.108Z</time>
      </trkpt>
      <trkpt lat="38.7748075" lon="0.08541483">
        <ele>84.0</ele>
        <time>2018-06-10T06:25:13.108Z</time>
      </trkpt>
      <trkpt lat="38.77484317" lon="0.085356">
        <ele>84.0</ele>
        <time>2018-06-10T06:25:14.108Z</time>
      </trkpt>
      <trkpt lat="38.77487767" lon="0.085298">
        <ele>84.0</ele>
        <time>2018-06-10T06:25:15.108Z</time>
      </trkpt>
      <trkpt lat="38.7749105" lon="0.08524083">
        <ele>84.0</ele>
        <time>2018-06-10T06:25:16.108Z</time>
      </trkpt>
      <trkpt lat="38.77494017" lon="0.085186">
        <ele>84.0</ele>
        <time>2018-06-10T06:25:17.108Z</time>
      </trkpt>
      <trkpt lat="38.77496633" lon="0.08513583">
        <ele>84.0</ele>
        <time>2018-06-10T06:25:18.108Z</time>
      </trkpt>
      <trkpt lat="38.77499017" lon="0.08509433">
        <ele>84.0</ele>
        <time>2018-06-10T06:25:19.108Z</time>
      </trkpt>
      <trkpt lat="38.77501117" lon="0.08505983">
        <ele>84.0</ele>
        <time>2018-06-10T06:25:20.108Z</time>
      </trkpt>
      <trkpt lat="38.77503083" lon="0.085029">
        <ele>85.0</ele>
        <time>2018-06-10T06:25:21.108Z</time>
      </trkpt>
      <trkpt lat="38.7750495" lon="0.084996">
        <ele>85.0</ele>
        <time>2018-06-10T06:25:22.108Z</time>
      </trkpt>
      <trkpt lat="38.77507017" lon="0.08496083">
        <ele>84.0</ele>
        <time>2018-06-10T06:25:23.108Z</time>
      </trkpt>
      <trkpt lat="38.775093" lon="0.08492367">
        <ele>84.0</ele>
        <time>2018-06-10T06:25:24.108Z</time>
      </trkpt>
      <trkpt lat="38.77511817" lon="0.08488533">
        <ele>84.0</ele>
        <time>2018-06-10T06:25:25.108Z</time>
      </trkpt>
      <trkpt lat="38.77514417" lon="0.08484283">
        <ele>85.0</ele>
        <time>2018-06-10T06:25:26.108Z</time>
      </trkpt>
      <trkpt lat="38.77517067" lon="0.08479767">
        <ele>85.0</ele>
        <time>2018-06-10T06:25:27.108Z</time>
      </trkpt>
      <trkpt lat="38.7751985" lon="0.0847505">
        <ele>85.0</ele>
        <time>2018-06-10T06:25:28.108Z</time>
      </trkpt>
      <trkpt lat="38.77522783" lon="0.08470283">
        <ele>85.0</ele>
        <time>2018-06-10T06:25:29.108Z</time>
      </trkpt>
      <trkpt lat="38.77525717" lon="0.08465317">
        <ele>85.0</ele>
        <time>2018-06-10T06:25:30.108Z</time>
      </trkpt>
      <trkpt lat="38.77528667" lon="0.08460167">
        <ele>85.0</ele>
        <time>2018-06-10T06:25:31.108Z</time>
      </trkpt>
      <trkpt lat="38.77531617" lon="0.08454967">
        <ele>85.0</ele>
        <time>2018-06-10T06:25:32.108Z</time>
      </trkpt>
      <trkpt lat="38.7753465" lon="0.08449783">
        <ele>84.0</ele>
        <time>2018-06-10T06:25:33.108Z</time>
      </trkpt>
      <trkpt lat="38.775377" lon="0.0844455">
        <ele>84.0</ele>
        <time>2018-06-10T06:25:34.108Z</time>
      </trkpt>
      <trkpt lat="38.77540933" lon="0.08439333">
        <ele>83.0</ele>
        <time>2018-06-10T06:25:35.108Z</time>
      </trkpt>
      <trkpt lat="38.7754445" lon="0.08434217">
        <ele>83.0</ele>
        <time>2018-06-10T06:25:36.108Z</time>
      </trkpt>
      <trkpt lat="38.77548183" lon="0.08429067">
        <ele>83.0</ele>
        <time>2018-06-10T06:25:37.108Z</time>
      </trkpt>
      <trkpt lat="38.7755215" lon="0.0842385">
        <ele>83.0</ele>
        <time>2018-06-10T06:25:38.108Z</time>
      </trkpt>
      <trkpt lat="38.7755625" lon="0.08418617">
        <ele>83.0</ele>
        <time>2018-06-10T06:25:39.108Z</time>
      </trkpt>
      <trkpt lat="38.77560483" lon="0.08413517">
        <ele>83.0</ele>
        <time>2018-06-10T06:25:40.108Z</time>
      </trkpt>
      <trkpt lat="38.77564783" lon="0.08408583">
        <ele>83.0</ele>
        <time>2018-06-10T06:25:41.108Z</time>
      </trkpt>
      <trkpt lat="38.77569117" lon="0.08403867">
        <ele>83.0</ele>
        <time>2018-06-10T06:25:42.108Z</time>
      </trkpt>
      <trkpt lat="38.775739" lon="0.08400083">
        <ele>85.0</ele>
        <time>2018-06-10T06:25:43.108Z</time>
      </trkpt>
      <trkpt lat="38.77579233" lon="0.08397083">
        <ele>85.0</ele>
        <time>2018-06-10T06:25:44.108Z</time>
      </trkpt>
      <trkpt lat="38.77585067" lon="0.08394933">
        <ele>85.0</ele>
        <time>2018-06-10T06:25:45.108Z</time>
      </trkpt>
      <trkpt lat="38.77590967" lon="0.08393067">
        <ele>85.0</ele>
        <time>2018-06-10T06:25:46.108Z</time>
      </trkpt>
      <trkpt lat="38.77596717" lon="0.08391683">
        <ele>85.0</ele>
        <time>2018-06-10T06:25:47.108Z</time>
      </trkpt>
      <trkpt lat="38.7760255" lon="0.08391033">
        <ele>84.0</ele>
        <time>2018-06-10T06:25:48.108Z</time>
      </trkpt>
      <trkpt lat="38.77608317" lon="0.08390867">
        <ele>84.0</ele>
        <time>2018-06-10T06:25:49.108Z</time>
      </trkpt>
      <trkpt lat="38.77614067" lon="0.0839105">
        <ele>85.0</ele>
        <time>2018-06-10T06:25:50.108Z</time>
      </trkpt>
      <trkpt lat="38.77619433" lon="0.08391217">
        <ele>85.0</ele>
        <time>2018-06-10T06:25:51.108Z</time>
      </trkpt>
      <trkpt lat="38.77624483" lon="0.08391767">
        <ele>86.0</ele>
        <time>2018-06-10T06:25:52.108Z</time>
      </trkpt>
      <trkpt lat="38.7762905" lon="0.0839255">
        <ele>86.0</ele>
        <time>2018-06-10T06:25:53.108Z</time>
      </trkpt>
      <trkpt lat="38.77633083" lon="0.08393317">
        <ele>86.0</ele>
        <time>2018-06-10T06:25:54.108Z</time>
      </trkpt>
      <trkpt lat="38.7763645" lon="0.08393667">
        <ele>86.0</ele>
        <time>2018-06-10T06:25:55.108Z</time>
      </trkpt>
      <trkpt lat="38.77638983" lon="0.08393967">
        <ele>86.0</ele>
        <time>2018-06-10T06:25:56.108Z</time>
      </trkpt>
      <trkpt lat="38.77641083" lon="0.083941">
        <ele>87.0</ele>
        <time>2018-06-10T06:25:57.108Z</time>
      </trkpt>
      <trkpt lat="38.77642817" lon="0.08394217">
        <ele>87.0</ele>
        <time>2018-06-10T06:25:58.108Z</time>
      </trkpt>
      <trkpt lat="38.77644283" lon="0.08394017">
        <ele>88.0</ele>
        <time>2018-06-10T06:25:59.108Z</time>
      </trkpt>
      <trkpt lat="38.77645267" lon="0.08393767">
        <ele>89.0</ele>
        <time>2018-06-10T06:26:00.108Z</time>
      </trkpt>
      <trkpt lat="38.77645917" lon="0.0839355">
        <ele>89.0</ele>
        <time>2018-06-10T06:26:01.108Z</time>
      </trkpt>
      <trkpt lat="38.77646517" lon="0.083933">
        <ele>90.0</ele>
        <time>2018-06-10T06:26:02.108Z</time>
      </trkpt>
      <trkpt lat="38.77647117" lon="0.08393117">
        <ele>90.0</ele>
        <time>2018-06-10T06:26:03.108Z</time>
      </trkpt>
      <trkpt lat="38.776475" lon="0.0839275">
        <ele>91.0</ele>
        <time>2018-06-10T06:26:04.108Z</time>
      </trkpt>
      <trkpt lat="38.77647233" lon="0.08391033">
        <ele>93.0</ele>
        <time>2018-06-10T06:26:05.045Z</time>
      </trkpt>
      <trkpt lat="38.77647033" lon="0.08390967">
        <ele>93.0</ele>
        <time>2018-06-10T06:26:06.045Z</time>
      </trkpt>
      <trkpt lat="38.776531" lon="0.083911">
        <ele>96.0</ele>
        <time>2018-06-10T06:26:07.069Z</time>
      </trkpt>
      <trkpt lat="38.77655617" lon="0.083915">
        <ele>96.0</ele>
        <time>2018-06-10T06:26:08.069Z</time>
      </trkpt>
      <trkpt lat="38.77658617" lon="0.08392033">
        <ele>96.0</ele>
        <time>2018-06-10T06:26:09.069Z</time>
      </trkpt>
      <trkpt lat="38.7766215" lon="0.08392717">
        <ele>97.0</ele>
        <time>2018-06-10T06:26:10.069Z</time>
      </trkpt>
      <trkpt lat="38.776662" lon="0.083935">
        <ele>97.0</ele>
        <time>2018-06-10T06:26:11.069Z</time>
      </trkpt>
      <trkpt lat="38.77670667" lon="0.0839455">
        <ele>97.0</ele>
        <time>2018-06-10T06:26:12.069Z</time>
      </trkpt>
      <trkpt lat="38.77675633" lon="0.08396067">
        <ele>96.0</ele>
        <time>2018-06-10T06:26:13.069Z</time>
      </trkpt>
      <trkpt lat="38.77680933" lon="0.08398033">
        <ele>95.0</ele>
        <time>2018-06-10T06:26:14.069Z</time>
      </trkpt>
      <trkpt lat="38.776866" lon="0.08399883">
        <ele>95.0</ele>
        <time>2018-06-10T06:26:15.069Z</time>
      </trkpt>
      <trkpt lat="38.77692433" lon="0.08401317">
        <ele>94.0</ele>
        <time>2018-06-10T06:26:16.069Z</time>
      </trkpt>
      <trkpt lat="38.77698433" lon="0.08401983">
        <ele>94.0</ele>
        <time>2018-06-10T06:26:17.069Z</time>
      </trkpt>
      <trkpt lat="38.77704383" lon="0.08402283">
        <ele>94.0</ele>
        <time>2018-06-10T06:26:18.069Z</time>
      </trkpt>
      <trkpt lat="38.7771045" lon="0.08402083">
        <ele>94.0</ele>
        <time>2018-06-10T06:26:19.069Z</time>
      </trkpt>
      <trkpt lat="38.77716567" lon="0.08401267">
        <ele>94.0</ele>
        <time>2018-06-10T06:26:20.069Z</time>
      </trkpt>
      <trkpt lat="38.77722817" lon="0.083998">
        <ele>94.0</ele>
        <time>2018-06-10T06:26:21.069Z</time>
      </trkpt>
      <trkpt lat="38.77729083" lon="0.083979">
        <ele>94.0</ele>
        <time>2018-06-10T06:26:22.069Z</time>
      </trkpt>
      <trkpt lat="38.77735417" lon="0.0839585">
        <ele>93.0</ele>
        <time>2018-06-10T06:26:23.069Z</time>
      </trkpt>
      <trkpt lat="38.77741817" lon="0.08393733">
        <ele>93.0</ele>
        <time>2018-06-10T06:26:24.069Z</time>
      </trkpt>
      <trkpt lat="38.77748217" lon="0.08391533">
        <ele>92.0</ele>
        <time>2018-06-10T06:26:25.069Z</time>
      </trkpt>
      <trkpt lat="38.7775465" lon="0.08389333">
        <ele>91.0</ele>
        <time>2018-06-10T06:26:26.069Z</time>
      </trkpt>
      <trkpt lat="38.77761317" lon="0.08386967">
        <ele>89.0</ele>
        <time>2018-06-10T06:26:27.069Z</time>
      </trkpt>
      <trkpt lat="38.77767867" lon="0.08384133">
        <ele>87.0</ele>
        <time>2018-06-10T06:26:28.069Z</time>
      </trkpt>
      <trkpt lat="38.77774383" lon="0.08380617">
        <ele>87.0</ele>
        <time>2018-06-10T06:26:29.069Z</time>
      </trkpt>
      <trkpt lat="38.77780633" lon="0.0837615">
        <ele>88.0</ele>
        <time>2018-06-10T06:26:30.069Z</time>
      </trkpt>
      <trkpt lat="38.7778685" lon="0.08371133">
        <ele>88.0</ele>
        <time>2018-06-10T06:26:31.069Z</time>
      </trkpt>
      <trkpt lat="38.777926" lon="0.08365467">
        <ele>88.0</ele>
        <time>2018-06-10T06:26:32.069Z</time>
      </trkpt>
      <trkpt lat="38.77798" lon="0.08359683">
        <ele>88.0</ele>
        <time>2018-06-10T06:26:33.069Z</time>
      </trkpt>
      <trkpt lat="38.7780315" lon="0.08353883">
        <ele>88.0</ele>
        <time>2018-06-10T06:26:34.069Z</time>
      </trkpt>
      <trkpt lat="38.778084" lon="0.0834835">
        <ele>88.0</ele>
        <time>2018-06-10T06:26:35.069Z</time>
      </trkpt>
      <trkpt lat="38.77813683" lon="0.08343033">
        <ele>88.0</ele>
        <time>2018-06-10T06:26:36.069Z</time>
      </trkpt>
      <trkpt lat="38.7781895" lon="0.083378">
        <ele>88.0</ele>
        <time>2018-06-10T06:26:37.069Z</time>
      </trkpt>
      <trkpt lat="38.77824217" lon="0.08332767">
        <ele>88.0</ele>
        <time>2018-06-10T06:26:38.069Z</time>
      </trkpt>
      <trkpt lat="38.778294" lon="0.08327733">
        <ele>88.0</ele>
        <time>2018-06-10T06:26:39.069Z</time>
      </trkpt>
      <trkpt lat="38.7783455" lon="0.083228">
        <ele>88.0</ele>
        <time>2018-06-10T06:26:40.069Z</time>
      </trkpt>
      <trkpt lat="38.77839667" lon="0.08317767">
        <ele>88.0</ele>
        <time>2018-06-10T06:26:41.069Z</time>
      </trkpt>
      <trkpt lat="38.77844767" lon="0.08312683">
        <ele>88.0</ele>
        <time>2018-06-10T06:26:42.069Z</time>
      </trkpt>
      <trkpt lat="38.77849833" lon="0.0830755">
        <ele>88.0</ele>
        <time>2018-06-10T06:26:43.069Z</time>
      </trkpt>
      <trkpt lat="38.7785485" lon="0.08302367">
        <ele>88.0</ele>
        <time>2018-06-10T06:26:44.069Z</time>
      </trkpt>
      <trkpt lat="38.778598" lon="0.08297167">
        <ele>88.0</ele>
        <time>2018-06-10T06:26:45.069Z</time>
      </trkpt>
      <trkpt lat="38.7786475" lon="0.0829175">
        <ele>89.0</ele>
        <time>2018-06-10T06:26:46.069Z</time>
      </trkpt>
      <trkpt lat="38.77869767" lon="0.08286433">
        <ele>89.0</ele>
        <time>2018-06-10T06:26:47.069Z</time>
      </trkpt>
      <trkpt lat="38.7787485" lon="0.082812">
        <ele>89.0</ele>
        <time>2018-06-10T06:26:48.069Z</time>
      </trkpt>
      <trkpt lat="38.77879933" lon="0.0827625">
        <ele>88.0</ele>
        <time>2018-06-10T06:26:49.069Z</time>
      </trkpt>
      <trkpt lat="38.7788505" lon="0.08271233">
        <ele>89.0</ele>
        <time>2018-06-10T06:26:50.069Z</time>
      </trkpt>
      <trkpt lat="38.77890167" lon="0.082662">
        <ele>89.0</ele>
        <time>2018-06-10T06:26:51.069Z</time>
      </trkpt>
      <trkpt lat="38.77895383" lon="0.08261017">
        <ele>89.0</ele>
        <time>2018-06-10T06:26:52.069Z</time>
      </trkpt>
      <trkpt lat="38.77900617" lon="0.08255867">
        <ele>89.0</ele>
        <time>2018-06-10T06:26:53.069Z</time>
      </trkpt>
      <trkpt lat="38.77905883" lon="0.08250717">
        <ele>89.0</ele>
        <time>2018-06-10T06:26:54.069Z</time>
      </trkpt>
      <trkpt lat="38.779111" lon="0.0824545">
        <ele>89.0</ele>
        <time>2018-06-10T06:26:55.069Z</time>
      </trkpt>
      <trkpt lat="38.77916267" lon="0.08240233">
        <ele>89.0</ele>
        <time>2018-06-10T06:26:56.069Z</time>
      </trkpt>
      <trkpt lat="38.77921417" lon="0.08235">
        <ele>89.0</ele>
        <time>2018-06-10T06:26:57.069Z</time>
      </trkpt>
      <trkpt lat="38.77926483" lon="0.08229867">
        <ele>89.0</ele>
        <time>2018-06-10T06:26:58.069Z</time>
      </trkpt>
      <trkpt lat="38.779315" lon="0.082247">
        <ele>89.0</ele>
        <time>2018-06-10T06:26:59.069Z</time>
      </trkpt>
      <trkpt lat="38.77936483" lon="0.0821955">
        <ele>89.0</ele>
        <time>2018-06-10T06:27:00.069Z</time>
      </trkpt>
      <trkpt lat="38.77941417" lon="0.082144">
        <ele>89.0</ele>
        <time>2018-06-10T06:27:01.069Z</time>
      </trkpt>
      <trkpt lat="38.779463" lon="0.08209317">
        <ele>89.0</ele>
        <time>2018-06-10T06:27:02.069Z</time>
      </trkpt>
      <trkpt lat="38.779511" lon="0.08204233">
        <ele>89.0</ele>
        <time>2018-06-10T06:27:03.069Z</time>
      </trkpt>
      <trkpt lat="38.77955833" lon="0.08199233">
        <ele>89.0</ele>
        <time>2018-06-10T06:27:04.069Z</time>
      </trkpt>
      <trkpt lat="38.77960483" lon="0.0819415">
        <ele>89.0</ele>
        <time>2018-06-10T06:27:05.069Z</time>
      </trkpt>
      <trkpt lat="38.7796505" lon="0.08189167">
        <ele>89.0</ele>
        <time>2018-06-10T06:27:06.069Z</time>
      </trkpt>
      <trkpt lat="38.77969567" lon="0.08184333">
        <ele>90.0</ele>
        <time>2018-06-10T06:27:07.069Z</time>
      </trkpt>
      <trkpt lat="38.77974017" lon="0.08179733">
        <ele>90.0</ele>
        <time>2018-06-10T06:27:08.069Z</time>
      </trkpt>
      <trkpt lat="38.77978367" lon="0.081752">
        <ele>90.0</ele>
        <time>2018-06-10T06:27:09.069Z</time>
      </trkpt>
      <trkpt lat="38.7798265" lon="0.081707">
        <ele>90.0</ele>
        <time>2018-06-10T06:27:10.069Z</time>
      </trkpt>
      <trkpt lat="38.77986967" lon="0.08166217">
        <ele>90.0</ele>
        <time>2018-06-10T06:27:11.069Z</time>
      </trkpt>
      <trkpt lat="38.77991317" lon="0.08161717">
        <ele>90.0</ele>
        <time>2018-06-10T06:27:12.069Z</time>
      </trkpt>
      <trkpt lat="38.77995667" lon="0.0815715">
        <ele>90.0</ele>
        <time>2018-06-10T06:27:13.069Z</time>
      </trkpt>
      <trkpt lat="38.77999983" lon="0.08152517">
        <ele>90.0</ele>
        <time>2018-06-10T06:27:14.069Z</time>
      </trkpt>
      <trkpt lat="38.780045" lon="0.08147883">
        <ele>90.0</ele>
        <time>2018-06-10T06:27:15.069Z</time>
      </trkpt>
      <trkpt lat="38.78009167" lon="0.081432">
        <ele>90.0</ele>
        <time>2018-06-10T06:27:16.069Z</time>
      </trkpt>
      <trkpt lat="38.78014033" lon="0.08138417">
        <ele>89.0</ele>
        <time>2018-06-10T06:27:17.069Z</time>
      </trkpt>
      <trkpt lat="38.78018917" lon="0.08133517">
        <ele>89.0</ele>
        <time>2018-06-10T06:27:18.069Z</time>
      </trkpt>
      <trkpt lat="38.780239" lon="0.08128533">
        <ele>89.0</ele>
        <time>2018-06-10T06:27:19.069Z</time>
      </trkpt>
      <trkpt lat="38.78028983" lon="0.08123467">
        <ele>89.0</ele>
        <time>2018-06-10T06:27:20.069Z</time>
      </trkpt>
      <trkpt lat="38.780341" lon="0.0811825">
        <ele>89.0</ele>
        <time>2018-06-10T06:27:21.069Z</time>
      </trkpt>
      <trkpt lat="38.78039283" lon="0.08112867">
        <ele>89.0</ele>
        <time>2018-06-10T06:27:22.069Z</time>
      </trkpt>
      <trkpt lat="38.78044533" lon="0.08107317">
        <ele>89.0</ele>
        <time>2018-06-10T06:27:23.069Z</time>
      </trkpt>
      <trkpt lat="38.780499" lon="0.08101667">
        <ele>89.0</ele>
        <time>2018-06-10T06:27:24.069Z</time>
      </trkpt>
      <trkpt lat="38.78055367" lon="0.08096033">
        <ele>89.0</ele>
        <time>2018-06-10T06:27:25.069Z</time>
      </trkpt>
      <trkpt lat="38.78060867" lon="0.08090383">
        <ele>89.0</ele>
        <time>2018-06-10T06:27:26.069Z</time>
      </trkpt>
      <trkpt lat="38.78066417" lon="0.08084667">
        <ele>89.0</ele>
        <time>2018-06-10T06:27:27.069Z</time>
      </trkpt>
      <trkpt lat="38.78071983" lon="0.08078883">
        <ele>89.0</ele>
        <time>2018-06-10T06:27:28.069Z</time>
      </trkpt>
      <trkpt lat="38.78077617" lon="0.08073133">
        <ele>88.0</ele>
        <time>2018-06-10T06:27:29.069Z</time>
      </trkpt>
      <trkpt lat="38.78083283" lon="0.080674">
        <ele>88.0</ele>
        <time>2018-06-10T06:27:30.069Z</time>
      </trkpt>
      <trkpt lat="38.78088983" lon="0.080616">
        <ele>88.0</ele>
        <time>2018-06-10T06:27:31.069Z</time>
      </trkpt>
      <trkpt lat="38.78094733" lon="0.08055683">
        <ele>88.0</ele>
        <time>2018-06-10T06:27:32.069Z</time>
      </trkpt>
      <trkpt lat="38.7810055" lon="0.080497">
        <ele>88.0</ele>
        <time>2018-06-10T06:27:33.069Z</time>
      </trkpt>
      <trkpt lat="38.78106483" lon="0.08043667">
        <ele>87.0</ele>
        <time>2018-06-10T06:27:34.069Z</time>
      </trkpt>
      <trkpt lat="38.7811245" lon="0.080375">
        <ele>87.0</ele>
        <time>2018-06-10T06:27:35.069Z</time>
      </trkpt>
      <trkpt lat="38.7811845" lon="0.080312">
        <ele>87.0</ele>
        <time>2018-06-10T06:27:36.069Z</time>
      </trkpt>
      <trkpt lat="38.78124517" lon="0.0802485">
        <ele>87.0</ele>
        <time>2018-06-10T06:27:37.069Z</time>
      </trkpt>
      <trkpt lat="38.78130633" lon="0.08018483">
        <ele>87.0</ele>
        <time>2018-06-10T06:27:38.069Z</time>
      </trkpt>
      <trkpt lat="38.78136817" lon="0.08012117">
        <ele>87.0</ele>
        <time>2018-06-10T06:27:39.069Z</time>
      </trkpt>
      <trkpt lat="38.78143017" lon="0.08005617">
        <ele>87.0</ele>
        <time>2018-06-10T06:27:40.069Z</time>
      </trkpt>
      <trkpt lat="38.78149283" lon="0.07999033">
        <ele>87.0</ele>
        <time>2018-06-10T06:27:41.069Z</time>
      </trkpt>
      <trkpt lat="38.78155633" lon="0.0799235">
        <ele>87.0</ele>
        <time>2018-06-10T06:27:42.069Z</time>
      </trkpt>
      <trkpt lat="38.78162117" lon="0.07985567">
        <ele>86.0</ele>
        <time>2018-06-10T06:27:43.069Z</time>
      </trkpt>
      <trkpt lat="38.7816875" lon="0.0797865">
        <ele>86.0</ele>
        <time>2018-06-10T06:27:44.069Z</time>
      </trkpt>
      <trkpt lat="38.781755" lon="0.07971633">
        <ele>86.0</ele>
        <time>2018-06-10T06:27:45.069Z</time>
      </trkpt>
      <trkpt lat="38.78182383" lon="0.07964517">
        <ele>86.0</ele>
        <time>2018-06-10T06:27:46.069Z</time>
      </trkpt>
      <trkpt lat="38.78189417" lon="0.07957267">
        <ele>86.0</ele>
        <time>2018-06-10T06:27:47.069Z</time>
      </trkpt>
      <trkpt lat="38.78196633" lon="0.079499">
        <ele>85.0</ele>
        <time>2018-06-10T06:27:48.069Z</time>
      </trkpt>
      <trkpt lat="38.78204" lon="0.079423">
        <ele>85.0</ele>
        <time>2018-06-10T06:27:49.069Z</time>
      </trkpt>
      <trkpt lat="38.7821145" lon="0.07934417">
        <ele>85.0</ele>
        <time>2018-06-10T06:27:50.069Z</time>
      </trkpt>
      <trkpt lat="38.7821905" lon="0.07926333">
        <ele>85.0</ele>
        <time>2018-06-10T06:27:51.069Z</time>
      </trkpt>
      <trkpt lat="38.7822675" lon="0.07918233">
        <ele>84.0</ele>
        <time>2018-06-10T06:27:52.069Z</time>
      </trkpt>
      <trkpt lat="38.78234517" lon="0.07910217">
        <ele>84.0</ele>
        <time>2018-06-10T06:27:53.069Z</time>
      </trkpt>
      <trkpt lat="38.782423" lon="0.0790225">
        <ele>84.0</ele>
        <time>2018-06-10T06:27:54.069Z</time>
      </trkpt>
      <trkpt lat="38.78250017" lon="0.0789425">
        <ele>83.0</ele>
        <time>2018-06-10T06:27:55.069Z</time>
      </trkpt>
      <trkpt lat="38.78257733" lon="0.07886267">
        <ele>83.0</ele>
        <time>2018-06-10T06:27:56.069Z</time>
      </trkpt>
      <trkpt lat="38.7826555" lon="0.07878233">
        <ele>83.0</ele>
        <time>2018-06-10T06:27:57.069Z</time>
      </trkpt>
      <trkpt lat="38.78273483" lon="0.078701">
        <ele>83.0</ele>
        <time>2018-06-10T06:27:58.069Z</time>
      </trkpt>
      <trkpt lat="38.78281567" lon="0.07861917">
        <ele>82.0</ele>
        <time>2018-06-10T06:27:59.069Z</time>
      </trkpt>
      <trkpt lat="38.782897" lon="0.07853667">
        <ele>82.0</ele>
        <time>2018-06-10T06:28:00.069Z</time>
      </trkpt>
      <trkpt lat="38.78297933" lon="0.078454">
        <ele>82.0</ele>
        <time>2018-06-10T06:28:01.069Z</time>
      </trkpt>
      <trkpt lat="38.7830625" lon="0.07837">
        <ele>81.0</ele>
        <time>2018-06-10T06:28:02.069Z</time>
      </trkpt>
      <trkpt lat="38.78314783" lon="0.07828533">
        <ele>81.0</ele>
        <time>2018-06-10T06:28:03.069Z</time>
      </trkpt>
      <trkpt lat="38.7832355" lon="0.07820083">
        <ele>81.0</ele>
        <time>2018-06-10T06:28:04.069Z</time>
      </trkpt>
      <trkpt lat="38.78332533" lon="0.07811833">
        <ele>80.0</ele>
        <time>2018-06-10T06:28:05.069Z</time>
      </trkpt>
      <trkpt lat="38.78341667" lon="0.07803817">
        <ele>80.0</ele>
        <time>2018-06-10T06:28:06.069Z</time>
      </trkpt>
      <trkpt lat="38.783509" lon="0.07795967">
        <ele>80.0</ele>
        <time>2018-06-10T06:28:07.069Z</time>
      </trkpt>
      <trkpt lat="38.78360217" lon="0.07788183">
        <ele>79.0</ele>
        <time>2018-06-10T06:28:08.069Z</time>
      </trkpt>
      <trkpt lat="38.7836955" lon="0.07780383">
        <ele>79.0</ele>
        <time>2018-06-10T06:28:09.069Z</time>
      </trkpt>
      <trkpt lat="38.78378833" lon="0.077726">
        <ele>79.0</ele>
        <time>2018-06-10T06:28:10.069Z</time>
      </trkpt>
      <trkpt lat="38.78388133" lon="0.07764867">
        <ele>79.0</ele>
        <time>2018-06-10T06:28:11.069Z</time>
      </trkpt>
      <trkpt lat="38.78397317" lon="0.07757233">
        <ele>78.0</ele>
        <time>2018-06-10T06:28:12.069Z</time>
      </trkpt>
      <trkpt lat="38.78406483" lon="0.0774965">
        <ele>78.0</ele>
        <time>2018-06-10T06:28:13.069Z</time>
      </trkpt>
      <trkpt lat="38.78415517" lon="0.07742133">
        <ele>78.0</ele>
        <time>2018-06-10T06:28:14.069Z</time>
      </trkpt>
      <trkpt lat="38.7842445" lon="0.07734567">
        <ele>78.0</ele>
        <time>2018-06-10T06:28:15.069Z</time>
      </trkpt>
      <trkpt lat="38.78433283" lon="0.07727">
        <ele>79.0</ele>
        <time>2018-06-10T06:28:16.069Z</time>
      </trkpt>
      <trkpt lat="38.78442" lon="0.07719517">
        <ele>79.0</ele>
        <time>2018-06-10T06:28:17.069Z</time>
      </trkpt>
      <trkpt lat="38.78450717" lon="0.0771225">
        <ele>79.0</ele>
        <time>2018-06-10T06:28:18.069Z</time>
      </trkpt>
      <trkpt lat="38.78459333" lon="0.07705067">
        <ele>79.0</ele>
        <time>2018-06-10T06:28:19.069Z</time>
      </trkpt>
      <trkpt lat="38.7846785" lon="0.07697933">
        <ele>79.0</ele>
        <time>2018-06-10T06:28:20.069Z</time>
      </trkpt>
      <trkpt lat="38.78476317" lon="0.076908">
        <ele>78.0</ele>
        <time>2018-06-10T06:28:21.069Z</time>
      </trkpt>
      <trkpt lat="38.784848" lon="0.076837">
        <ele>79.0</ele>
        <time>2018-06-10T06:28:22.069Z</time>
      </trkpt>
      <trkpt lat="38.78493333" lon="0.07676567">
        <ele>79.0</ele>
        <time>2018-06-10T06:28:23.069Z</time>
      </trkpt>
      <trkpt lat="38.78501867" lon="0.076694">
        <ele>79.0</ele>
        <time>2018-06-10T06:28:24.069Z</time>
      </trkpt>
      <trkpt lat="38.78510383" lon="0.07662317">
        <ele>78.0</ele>
        <time>2018-06-10T06:28:25.069Z</time>
      </trkpt>
      <trkpt lat="38.78518783" lon="0.0765525">
        <ele>78.0</ele>
        <time>2018-06-10T06:28:26.069Z</time>
      </trkpt>
      <trkpt lat="38.78527117" lon="0.07648117">
        <ele>79.0</ele>
        <time>2018-06-10T06:28:27.069Z</time>
      </trkpt>
      <trkpt lat="38.78535417" lon="0.07640933">
        <ele>79.0</ele>
        <time>2018-06-10T06:28:28.069Z</time>
      </trkpt>
      <trkpt lat="38.78543633" lon="0.07633667">
        <ele>79.0</ele>
        <time>2018-06-10T06:28:29.069Z</time>
      </trkpt>
      <trkpt lat="38.78551817" lon="0.07626483">
        <ele>79.0</ele>
        <time>2018-06-10T06:28:30.069Z</time>
      </trkpt>
      <trkpt lat="38.78559817" lon="0.0761935">
        <ele>79.0</ele>
        <time>2018-06-10T06:28:31.069Z</time>
      </trkpt>
      <trkpt lat="38.78567733" lon="0.07612367">
        <ele>79.0</ele>
        <time>2018-06-10T06:28:32.069Z</time>
      </trkpt>
      <trkpt lat="38.78575483" lon="0.07605333">
        <ele>79.0</ele>
        <time>2018-06-10T06:28:33.069Z</time>
      </trkpt>
      <trkpt lat="38.78582933" lon="0.07598083">
        <ele>79.0</ele>
        <time>2018-06-10T06:28:34.069Z</time>
      </trkpt>
      <trkpt lat="38.785901" lon="0.075904">
        <ele>79.0</ele>
        <time>2018-06-10T06:28:35.069Z</time>
      </trkpt>
      <trkpt lat="38.78596917" lon="0.07582217">
        <ele>79.0</ele>
        <time>2018-06-10T06:28:36.069Z</time>
      </trkpt>
      <trkpt lat="38.78603383" lon="0.075733">
        <ele>79.0</ele>
        <time>2018-06-10T06:28:37.069Z</time>
      </trkpt>
      <trkpt lat="38.7860955" lon="0.075639">
        <ele>79.0</ele>
        <time>2018-06-10T06:28:38.069Z</time>
      </trkpt>
      <trkpt lat="38.78615283" lon="0.075541">
        <ele>79.0</ele>
        <time>2018-06-10T06:28:39.069Z</time>
      </trkpt>
      <trkpt lat="38.7862085" lon="0.07544333">
        <ele>78.0</ele>
        <time>2018-06-10T06:28:40.069Z</time>
      </trkpt>
      <trkpt lat="38.7862625" lon="0.07534467">
        <ele>78.0</ele>
        <time>2018-06-10T06:28:41.069Z</time>
      </trkpt>
      <trkpt lat="38.78631683" lon="0.07524567">
        <ele>78.0</ele>
        <time>2018-06-10T06:28:42.069Z</time>
      </trkpt>
      <trkpt lat="38.78637133" lon="0.07514517">
        <ele>77.0</ele>
        <time>2018-06-10T06:28:43.069Z</time>
      </trkpt>
      <trkpt lat="38.78642567" lon="0.0750435">
        <ele>77.0</ele>
        <time>2018-06-10T06:28:44.069Z</time>
      </trkpt>
      <trkpt lat="38.78647983" lon="0.07494117">
        <ele>77.0</ele>
        <time>2018-06-10T06:28:45.069Z</time>
      </trkpt>
      <trkpt lat="38.78653383" lon="0.07483833">
        <ele>76.0</ele>
        <time>2018-06-10T06:28:46.069Z</time>
      </trkpt>
      <trkpt lat="38.78658783" lon="0.07473583">
        <ele>76.0</ele>
        <time>2018-06-10T06:28:47.069Z</time>
      </trkpt>
      <trkpt lat="38.78664233" lon="0.07463333">
        <ele>76.0</ele>
        <time>2018-06-10T06:28:48.069Z</time>
      </trkpt>
      <trkpt lat="38.78669717" lon="0.07453133">
        <ele>76.0</ele>
        <time>2018-06-10T06:28:49.069Z</time>
      </trkpt>
      <trkpt lat="38.786752" lon="0.07442883">
        <ele>76.0</ele>
        <time>2018-06-10T06:28:50.069Z</time>
      </trkpt>
      <trkpt lat="38.78680633" lon="0.07432517">
        <ele>76.0</ele>
        <time>2018-06-10T06:28:51.069Z</time>
      </trkpt>
      <trkpt lat="38.78686067" lon="0.07422067">
        <ele>76.0</ele>
        <time>2018-06-10T06:28:52.069Z</time>
      </trkpt>
      <trkpt lat="38.7869145" lon="0.07411583">
        <ele>75.0</ele>
        <time>2018-06-10T06:28:53.069Z</time>
      </trkpt>
      <trkpt lat="38.7869685" lon="0.07401167">
        <ele>75.0</ele>
        <time>2018-06-10T06:28:54.069Z</time>
      </trkpt>
      <trkpt lat="38.7870225" lon="0.07390817">
        <ele>75.0</ele>
        <time>2018-06-10T06:28:55.069Z</time>
      </trkpt>
      <trkpt lat="38.787077" lon="0.07380433">
        <ele>75.0</ele>
        <time>2018-06-10T06:28:56.069Z</time>
      </trkpt>
      <trkpt lat="38.78713167" lon="0.07369983">
        <ele>75.0</ele>
        <time>2018-06-10T06:28:57.069Z</time>
      </trkpt>
      <trkpt lat="38.78718633" lon="0.07359433">
        <ele>75.0</ele>
        <time>2018-06-10T06:28:58.069Z</time>
      </trkpt>
      <trkpt lat="38.78724117" lon="0.07348867">
        <ele>75.0</ele>
        <time>2018-06-10T06:28:59.069Z</time>
      </trkpt>
      <trkpt lat="38.7872965" lon="0.0733825">
        <ele>75.0</ele>
        <time>2018-06-10T06:29:00.069Z</time>
      </trkpt>
      <trkpt lat="38.7873525" lon="0.07327633">
        <ele>75.0</ele>
        <time>2018-06-10T06:29:01.069Z</time>
      </trkpt>
      <trkpt lat="38.7874085" lon="0.07316983">
        <ele>75.0</ele>
        <time>2018-06-10T06:29:02.069Z</time>
      </trkpt>
      <trkpt lat="38.78746417" lon="0.07306333">
        <ele>75.0</ele>
        <time>2018-06-10T06:29:03.069Z</time>
      </trkpt>
      <trkpt lat="38.78751867" lon="0.072957">
        <ele>75.0</ele>
        <time>2018-06-10T06:29:04.069Z</time>
      </trkpt>
      <trkpt lat="38.78757233" lon="0.07285183">
        <ele>75.0</ele>
        <time>2018-06-10T06:29:05.069Z</time>
      </trkpt>
      <trkpt lat="38.78762517" lon="0.07274817">
        <ele>75.0</ele>
        <time>2018-06-10T06:29:06.069Z</time>
      </trkpt>
      <trkpt lat="38.78767767" lon="0.07264583">
        <ele>75.0</ele>
        <time>2018-06-10T06:29:07.069Z</time>
      </trkpt>
      <trkpt lat="38.78772933" lon="0.0725445">
        <ele>75.0</ele>
        <time>2018-06-10T06:29:08.069Z</time>
      </trkpt>
      <trkpt lat="38.78778067" lon="0.0724445">
        <ele>75.0</ele>
        <time>2018-06-10T06:29:09.069Z</time>
      </trkpt>
      <trkpt lat="38.78783183" lon="0.07234567">
        <ele>74.0</ele>
        <time>2018-06-10T06:29:10.069Z</time>
      </trkpt>
      <trkpt lat="38.78788317" lon="0.07224767">
        <ele>74.0</ele>
        <time>2018-06-10T06:29:11.069Z</time>
      </trkpt>
      <trkpt lat="38.78793517" lon="0.0721505">
        <ele>74.0</ele>
        <time>2018-06-10T06:29:12.069Z</time>
      </trkpt>
      <trkpt lat="38.78798717" lon="0.07205317">
        <ele>74.0</ele>
        <time>2018-06-10T06:29:13.069Z</time>
      </trkpt>
      <trkpt lat="38.78803967" lon="0.071955">
        <ele>74.0</ele>
        <time>2018-06-10T06:29:14.069Z</time>
      </trkpt>
      <trkpt lat="38.78809217" lon="0.0718555">
        <ele>74.0</ele>
        <time>2018-06-10T06:29:15.069Z</time>
      </trkpt>
      <trkpt lat="38.78814467" lon="0.071755">
        <ele>74.0</ele>
        <time>2018-06-10T06:29:16.069Z</time>
      </trkpt>
      <trkpt lat="38.7881965" lon="0.0716535">
        <ele>73.0</ele>
        <time>2018-06-10T06:29:17.069Z</time>
      </trkpt>
      <trkpt lat="38.78824817" lon="0.071551">
        <ele>73.0</ele>
        <time>2018-06-10T06:29:18.069Z</time>
      </trkpt>
      <trkpt lat="38.78830017" lon="0.07144767">
        <ele>73.0</ele>
        <time>2018-06-10T06:29:19.069Z</time>
      </trkpt>
      <trkpt lat="38.78835317" lon="0.07134433">
        <ele>73.0</ele>
        <time>2018-06-10T06:29:20.069Z</time>
      </trkpt>
      <trkpt lat="38.78840633" lon="0.07124117">
        <ele>73.0</ele>
        <time>2018-06-10T06:29:21.069Z</time>
      </trkpt>
      <trkpt lat="38.78845883" lon="0.07113883">
        <ele>73.0</ele>
        <time>2018-06-10T06:29:22.069Z</time>
      </trkpt>
      <trkpt lat="38.7885105" lon="0.0710375">
        <ele>73.0</ele>
        <time>2018-06-10T06:29:23.069Z</time>
      </trkpt>
      <trkpt lat="38.78856183" lon="0.07093783">
        <ele>73.0</ele>
        <time>2018-06-10T06:29:24.069Z</time>
      </trkpt>
      <trkpt lat="38.78861317" lon="0.07083983">
        <ele>73.0</ele>
        <time>2018-06-10T06:29:25.069Z</time>
      </trkpt>
      <trkpt lat="38.788664" lon="0.07074233">
        <ele>73.0</ele>
        <time>2018-06-10T06:29:26.069Z</time>
      </trkpt>
      <trkpt lat="38.7887145" lon="0.07064483">
        <ele>73.0</ele>
        <time>2018-06-10T06:29:27.069Z</time>
      </trkpt>
      <trkpt lat="38.78876567" lon="0.07054633">
        <ele>73.0</ele>
        <time>2018-06-10T06:29:28.069Z</time>
      </trkpt>
      <trkpt lat="38.788818" lon="0.0704465">
        <ele>72.0</ele>
        <time>2018-06-10T06:29:29.069Z</time>
      </trkpt>
      <trkpt lat="38.78887167" lon="0.070344">
        <ele>72.0</ele>
        <time>2018-06-10T06:29:30.069Z</time>
      </trkpt>
      <trkpt lat="38.788926" lon="0.07024">
        <ele>72.0</ele>
        <time>2018-06-10T06:29:31.069Z</time>
      </trkpt>
      <trkpt lat="38.7889805" lon="0.07013467">
        <ele>72.0</ele>
        <time>2018-06-10T06:29:32.069Z</time>
      </trkpt>
      <trkpt lat="38.789035" lon="0.07002917">
        <ele>72.0</ele>
        <time>2018-06-10T06:29:33.069Z</time>
      </trkpt>
      <trkpt lat="38.78908967" lon="0.06992417">
        <ele>72.0</ele>
        <time>2018-06-10T06:29:34.069Z</time>
      </trkpt>
      <trkpt lat="38.78914483" lon="0.06981967">
        <ele>72.0</ele>
        <time>2018-06-10T06:29:35.069Z</time>
      </trkpt>
      <trkpt lat="38.78919983" lon="0.06971467">
        <ele>72.0</ele>
        <time>2018-06-10T06:29:36.069Z</time>
      </trkpt>
      <trkpt lat="38.789255" lon="0.06960867">
        <ele>72.0</ele>
        <time>2018-06-10T06:29:37.069Z</time>
      </trkpt>
      <trkpt lat="38.78931067" lon="0.06950183">
        <ele>72.0</ele>
        <time>2018-06-10T06:29:38.069Z</time>
      </trkpt>
      <trkpt lat="38.789367" lon="0.06939367">
        <ele>72.0</ele>
        <time>2018-06-10T06:29:39.069Z</time>
      </trkpt>
      <trkpt lat="38.78942383" lon="0.06928417">
        <ele>72.0</ele>
        <time>2018-06-10T06:29:40.069Z</time>
      </trkpt>
      <trkpt lat="38.78948117" lon="0.0691735">
        <ele>72.0</ele>
        <time>2018-06-10T06:29:41.069Z</time>
      </trkpt>
      <trkpt lat="38.78953883" lon="0.06906233">
        <ele>71.0</ele>
        <time>2018-06-10T06:29:42.069Z</time>
      </trkpt>
      <trkpt lat="38.789597" lon="0.0689505">
        <ele>71.0</ele>
        <time>2018-06-10T06:29:43.069Z</time>
      </trkpt>
      <trkpt lat="38.7896555" lon="0.06883783">
        <ele>71.0</ele>
        <time>2018-06-10T06:29:44.069Z</time>
      </trkpt>
      <trkpt lat="38.78971417" lon="0.0687245">
        <ele>71.0</ele>
        <time>2018-06-10T06:29:45.069Z</time>
      </trkpt>
      <trkpt lat="38.78977333" lon="0.06861033">
        <ele>71.0</ele>
        <time>2018-06-10T06:29:46.069Z</time>
      </trkpt>
      <trkpt lat="38.7898335" lon="0.0684955">
        <ele>71.0</ele>
        <time>2018-06-10T06:29:47.069Z</time>
      </trkpt>
      <trkpt lat="38.7898945" lon="0.06837983">
        <ele>71.0</ele>
        <time>2018-06-10T06:29:48.069Z</time>
      </trkpt>
      <trkpt lat="38.78995567" lon="0.06826417">
        <ele>71.0</ele>
        <time>2018-06-10T06:29:49.069Z</time>
      </trkpt>
      <trkpt lat="38.7900165" lon="0.0681485">
        <ele>71.0</ele>
        <time>2018-06-10T06:29:50.069Z</time>
      </trkpt>
      <trkpt lat="38.79007667" lon="0.06803283">
        <ele>71.0</ele>
        <time>2018-06-10T06:29:51.069Z</time>
      </trkpt>
      <trkpt lat="38.7901365" lon="0.067917">
        <ele>71.0</ele>
        <time>2018-06-10T06:29:52.069Z</time>
      </trkpt>
      <trkpt lat="38.79019633" lon="0.067801">
        <ele>71.0</ele>
        <time>2018-06-10T06:29:53.069Z</time>
      </trkpt>
      <trkpt lat="38.79025667" lon="0.06768517">
        <ele>71.0</ele>
        <time>2018-06-10T06:29:54.069Z</time>
      </trkpt>
      <trkpt lat="38.79031717" lon="0.06756967">
        <ele>71.0</ele>
        <time>2018-06-10T06:29:55.069Z</time>
      </trkpt>
      <trkpt lat="38.79037783" lon="0.06745417">
        <ele>71.0</ele>
        <time>2018-06-10T06:29:56.069Z</time>
      </trkpt>
      <trkpt lat="38.7904385" lon="0.06733917">
        <ele>71.0</ele>
        <time>2018-06-10T06:29:57.069Z</time>
      </trkpt>
      <trkpt lat="38.79049867" lon="0.06722467">
        <ele>72.0</ele>
        <time>2018-06-10T06:29:58.069Z</time>
      </trkpt>
      <trkpt lat="38.790558" lon="0.067111">
        <ele>72.0</ele>
        <time>2018-06-10T06:29:59.069Z</time>
      </trkpt>
      <trkpt lat="38.79061667" lon="0.06699833">
        <ele>72.0</ele>
        <time>2018-06-10T06:30:00.069Z</time>
      </trkpt>
      <trkpt lat="38.79067483" lon="0.066887">
        <ele>72.0</ele>
        <time>2018-06-10T06:30:01.069Z</time>
      </trkpt>
      <trkpt lat="38.7907325" lon="0.0667765">
        <ele>72.0</ele>
        <time>2018-06-10T06:30:02.069Z</time>
      </trkpt>
      <trkpt lat="38.79078967" lon="0.06666683">
        <ele>72.0</ele>
        <time>2018-06-10T06:30:03.069Z</time>
      </trkpt>
      <trkpt lat="38.79084633" lon="0.06655783">
        <ele>71.0</ele>
        <time>2018-06-10T06:30:04.069Z</time>
      </trkpt>
      <trkpt lat="38.79090267" lon="0.06644933">
        <ele>71.0</ele>
        <time>2018-06-10T06:30:05.069Z</time>
      </trkpt>
      <trkpt lat="38.790958" lon="0.0663405">
        <ele>71.0</ele>
        <time>2018-06-10T06:30:06.069Z</time>
      </trkpt>
      <trkpt lat="38.79101367" lon="0.06623233">
        <ele>71.0</ele>
        <time>2018-06-10T06:30:07.069Z</time>
      </trkpt>
      <trkpt lat="38.79106917" lon="0.066125">
        <ele>71.0</ele>
        <time>2018-06-10T06:30:08.069Z</time>
      </trkpt>
      <trkpt lat="38.79112517" lon="0.06601883">
        <ele>71.0</ele>
        <time>2018-06-10T06:30:09.069Z</time>
      </trkpt>
      <trkpt lat="38.79118067" lon="0.06591283">
        <ele>71.0</ele>
        <time>2018-06-10T06:30:10.069Z</time>
      </trkpt>
      <trkpt lat="38.7912355" lon="0.065807">
        <ele>71.0</ele>
        <time>2018-06-10T06:30:11.069Z</time>
      </trkpt>
      <trkpt lat="38.79128967" lon="0.06570067">
        <ele>71.0</ele>
        <time>2018-06-10T06:30:12.069Z</time>
      </trkpt>
      <trkpt lat="38.79134367" lon="0.0655945">
        <ele>71.0</ele>
        <time>2018-06-10T06:30:13.069Z</time>
      </trkpt>
      <trkpt lat="38.79139783" lon="0.06548883">
        <ele>71.0</ele>
        <time>2018-06-10T06:30:14.069Z</time>
      </trkpt>
      <trkpt lat="38.79145183" lon="0.06538433">
        <ele>71.0</ele>
        <time>2018-06-10T06:30:15.069Z</time>
      </trkpt>
      <trkpt lat="38.7915055" lon="0.06528067">
        <ele>71.0</ele>
        <time>2018-06-10T06:30:16.069Z</time>
      </trkpt>
      <trkpt lat="38.79155867" lon="0.06517817">
        <ele>71.0</ele>
        <time>2018-06-10T06:30:17.069Z</time>
      </trkpt>
      <trkpt lat="38.79161133" lon="0.065076">
        <ele>71.0</ele>
        <time>2018-06-10T06:30:18.069Z</time>
      </trkpt>
      <trkpt lat="38.79166467" lon="0.064974">
        <ele>71.0</ele>
        <time>2018-06-10T06:30:19.069Z</time>
      </trkpt>
      <trkpt lat="38.79171783" lon="0.06487167">
        <ele>71.0</ele>
        <time>2018-06-10T06:30:20.069Z</time>
      </trkpt>
      <trkpt lat="38.79177167" lon="0.0647695">
        <ele>71.0</ele>
        <time>2018-06-10T06:30:21.069Z</time>
      </trkpt>
      <trkpt lat="38.7918245" lon="0.06466683">
        <ele>71.0</ele>
        <time>2018-06-10T06:30:22.069Z</time>
      </trkpt>
      <trkpt lat="38.79187767" lon="0.064565">
        <ele>71.0</ele>
        <time>2018-06-10T06:30:23.069Z</time>
      </trkpt>
      <trkpt lat="38.791931" lon="0.06446367">
        <ele>71.0</ele>
        <time>2018-06-10T06:30:24.069Z</time>
      </trkpt>
      <trkpt lat="38.79198483" lon="0.06436317">
        <ele>71.0</ele>
        <time>2018-06-10T06:30:25.069Z</time>
      </trkpt>
      <trkpt lat="38.79203817" lon="0.06426233">
        <ele>71.0</ele>
        <time>2018-06-10T06:30:26.069Z</time>
      </trkpt>
      <trkpt lat="38.792091" lon="0.06416117">
        <ele>71.0</ele>
        <time>2018-06-10T06:30:27.069Z</time>
      </trkpt>
      <trkpt lat="38.79214333" lon="0.06406033">
        <ele>71.0</ele>
        <time>2018-06-10T06:30:28.069Z</time>
      </trkpt>
      <trkpt lat="38.79219517" lon="0.06395983">
        <ele>71.0</ele>
        <time>2018-06-10T06:30:29.069Z</time>
      </trkpt>
      <trkpt lat="38.79224733" lon="0.0638605">
        <ele>71.0</ele>
        <time>2018-06-10T06:30:30.069Z</time>
      </trkpt>
      <trkpt lat="38.79230017" lon="0.06376267">
        <ele>71.0</ele>
        <time>2018-06-10T06:30:31.069Z</time>
      </trkpt>
      <trkpt lat="38.792354" lon="0.0636665">
        <ele>71.0</ele>
        <time>2018-06-10T06:30:32.069Z</time>
      </trkpt>
      <trkpt lat="38.79240783" lon="0.06357133">
        <ele>71.0</ele>
        <time>2018-06-10T06:30:33.069Z</time>
      </trkpt>
      <trkpt lat="38.79246083" lon="0.0634765">
        <ele>71.0</ele>
        <time>2018-06-10T06:30:34.069Z</time>
      </trkpt>
      <trkpt lat="38.7925125" lon="0.06338217">
        <ele>71.0</ele>
        <time>2018-06-10T06:30:35.069Z</time>
      </trkpt>
      <trkpt lat="38.79256267" lon="0.06328767">
        <ele>71.0</ele>
        <time>2018-06-10T06:30:36.069Z</time>
      </trkpt>
      <trkpt lat="38.79261217" lon="0.0631935">
        <ele>71.0</ele>
        <time>2018-06-10T06:30:37.069Z</time>
      </trkpt>
      <trkpt lat="38.7926615" lon="0.0630995">
        <ele>71.0</ele>
        <time>2018-06-10T06:30:38.069Z</time>
      </trkpt>
      <trkpt lat="38.79271083" lon="0.06300633">
        <ele>71.0</ele>
        <time>2018-06-10T06:30:39.069Z</time>
      </trkpt>
      <trkpt lat="38.79275983" lon="0.062914">
        <ele>71.0</ele>
        <time>2018-06-10T06:30:40.069Z</time>
      </trkpt>
      <trkpt lat="38.79280833" lon="0.0628225">
        <ele>71.0</ele>
        <time>2018-06-10T06:30:41.069Z</time>
      </trkpt>
      <trkpt lat="38.79285633" lon="0.06273167">
        <ele>71.0</ele>
        <time>2018-06-10T06:30:42.069Z</time>
      </trkpt>
      <trkpt lat="38.7929045" lon="0.0626415">
        <ele>71.0</ele>
        <time>2018-06-10T06:30:43.069Z</time>
      </trkpt>
      <trkpt lat="38.792952" lon="0.0625515">
        <ele>71.0</ele>
        <time>2018-06-10T06:30:44.069Z</time>
      </trkpt>
      <trkpt lat="38.7929985" lon="0.06246083">
        <ele>71.0</ele>
        <time>2018-06-10T06:30:45.069Z</time>
      </trkpt>
      <trkpt lat="38.7930435" lon="0.06236933">
        <ele>71.0</ele>
        <time>2018-06-10T06:30:46.069Z</time>
      </trkpt>
      <trkpt lat="38.79308867" lon="0.062278">
        <ele>71.0</ele>
        <time>2018-06-10T06:30:47.069Z</time>
      </trkpt>
      <trkpt lat="38.79313417" lon="0.06218717">
        <ele>71.0</ele>
        <time>2018-06-10T06:30:48.069Z</time>
      </trkpt>
      <trkpt lat="38.79318033" lon="0.062097">
        <ele>71.0</ele>
        <time>2018-06-10T06:30:49.069Z</time>
      </trkpt>
      <trkpt lat="38.79322667" lon="0.06200717">
        <ele>71.0</ele>
        <time>2018-06-10T06:30:50.069Z</time>
      </trkpt>
      <trkpt lat="38.79327333" lon="0.06191767">
        <ele>71.0</ele>
        <time>2018-06-10T06:30:51.069Z</time>
      </trkpt>
      <trkpt lat="38.79332017" lon="0.06182783">
        <ele>71.0</ele>
        <time>2018-06-10T06:30:52.069Z</time>
      </trkpt>
      <trkpt lat="38.793367" lon="0.0617375">
        <ele>71.0</ele>
        <time>2018-06-10T06:30:53.069Z</time>
      </trkpt>
      <trkpt lat="38.79341433" lon="0.06164667">
        <ele>71.0</ele>
        <time>2018-06-10T06:30:54.069Z</time>
      </trkpt>
      <trkpt lat="38.79346167" lon="0.0615555">
        <ele>71.0</ele>
        <time>2018-06-10T06:30:55.069Z</time>
      </trkpt>
      <trkpt lat="38.79351" lon="0.061464">
        <ele>71.0</ele>
        <time>2018-06-10T06:30:56.069Z</time>
      </trkpt>
      <trkpt lat="38.79355867" lon="0.0613725">
        <ele>71.0</ele>
        <time>2018-06-10T06:30:57.069Z</time>
      </trkpt>
      <trkpt lat="38.79360783" lon="0.06128083">
        <ele>71.0</ele>
        <time>2018-06-10T06:30:58.069Z</time>
      </trkpt>
      <trkpt lat="38.79365633" lon="0.061189">
        <ele>71.0</ele>
        <time>2018-06-10T06:30:59.069Z</time>
      </trkpt>
      <trkpt lat="38.79370433" lon="0.06109667">
        <ele>71.0</ele>
        <time>2018-06-10T06:31:00.069Z</time>
      </trkpt>
      <trkpt lat="38.7937515" lon="0.061004">
        <ele>71.0</ele>
        <time>2018-06-10T06:31:01.069Z</time>
      </trkpt>
      <trkpt lat="38.79379833" lon="0.060909">
        <ele>71.0</ele>
        <time>2018-06-10T06:31:02.069Z</time>
      </trkpt>
      <trkpt lat="38.79384633" lon="0.060812">
        <ele>71.0</ele>
        <time>2018-06-10T06:31:03.069Z</time>
      </trkpt>
      <trkpt lat="38.7938965" lon="0.0607115">
        <ele>72.0</ele>
        <time>2018-06-10T06:31:04.069Z</time>
      </trkpt>
      <trkpt lat="38.793949" lon="0.06060967">
        <ele>72.0</ele>
        <time>2018-06-10T06:31:05.069Z</time>
      </trkpt>
      <trkpt lat="38.7940015" lon="0.060507">
        <ele>72.0</ele>
        <time>2018-06-10T06:31:06.069Z</time>
      </trkpt>
      <trkpt lat="38.7940535" lon="0.06040517">
        <ele>72.0</ele>
        <time>2018-06-10T06:31:07.069Z</time>
      </trkpt>
      <trkpt lat="38.79410483" lon="0.060305">
        <ele>72.0</ele>
        <time>2018-06-10T06:31:08.069Z</time>
      </trkpt>
      <trkpt lat="38.79415567" lon="0.06020667">
        <ele>72.0</ele>
        <time>2018-06-10T06:31:09.069Z</time>
      </trkpt>
      <trkpt lat="38.794206" lon="0.060111">
        <ele>72.0</ele>
        <time>2018-06-10T06:31:10.069Z</time>
      </trkpt>
      <trkpt lat="38.79425517" lon="0.06001683">
        <ele>72.0</ele>
        <time>2018-06-10T06:31:11.069Z</time>
      </trkpt>
      <trkpt lat="38.79430383" lon="0.05992467">
        <ele>72.0</ele>
        <time>2018-06-10T06:31:12.069Z</time>
      </trkpt>
      <trkpt lat="38.79435183" lon="0.05983283">
        <ele>72.0</ele>
        <time>2018-06-10T06:31:13.069Z</time>
      </trkpt>
      <trkpt lat="38.7944" lon="0.05974083">
        <ele>72.0</ele>
        <time>2018-06-10T06:31:14.069Z</time>
      </trkpt>
      <trkpt lat="38.794449" lon="0.05964683">
        <ele>72.0</ele>
        <time>2018-06-10T06:31:15.069Z</time>
      </trkpt>
      <trkpt lat="38.794499" lon="0.05955033">
        <ele>72.0</ele>
        <time>2018-06-10T06:31:16.069Z</time>
      </trkpt>
      <trkpt lat="38.7945495" lon="0.05945183">
        <ele>72.0</ele>
        <time>2018-06-10T06:31:17.069Z</time>
      </trkpt>
      <trkpt lat="38.79459967" lon="0.05935183">
        <ele>72.0</ele>
        <time>2018-06-10T06:31:18.069Z</time>
      </trkpt>
      <trkpt lat="38.7946505" lon="0.0592515">
        <ele>72.0</ele>
        <time>2018-06-10T06:31:19.069Z</time>
      </trkpt>
      <trkpt lat="38.7947025" lon="0.05915183">
        <ele>72.0</ele>
        <time>2018-06-10T06:31:20.069Z</time>
      </trkpt>
      <trkpt lat="38.7947555" lon="0.059052">
        <ele>72.0</ele>
        <time>2018-06-10T06:31:21.069Z</time>
      </trkpt>
      <trkpt lat="38.7948085" lon="0.05895133">
        <ele>72.0</ele>
        <time>2018-06-10T06:31:22.069Z</time>
      </trkpt>
      <trkpt lat="38.79486183" lon="0.05884833">
        <ele>71.0</ele>
        <time>2018-06-10T06:31:23.069Z</time>
      </trkpt>
      <trkpt lat="38.79491617" lon="0.05874317">
        <ele>71.0</ele>
        <time>2018-06-10T06:31:24.069Z</time>
      </trkpt>
      <trkpt lat="38.7949715" lon="0.05863567">
        <ele>71.0</ele>
        <time>2018-06-10T06:31:25.069Z</time>
      </trkpt>
      <trkpt lat="38.79502783" lon="0.05852667">
        <ele>71.0</ele>
        <time>2018-06-10T06:31:26.069Z</time>
      </trkpt>
      <trkpt lat="38.79508483" lon="0.05841667">
        <ele>71.0</ele>
        <time>2018-06-10T06:31:27.069Z</time>
      </trkpt>
      <trkpt lat="38.79514167" lon="0.05830667">
        <ele>70.0</ele>
        <time>2018-06-10T06:31:28.069Z</time>
      </trkpt>
      <trkpt lat="38.7951975" lon="0.05819833">
        <ele>70.0</ele>
        <time>2018-06-10T06:31:29.069Z</time>
      </trkpt>
      <trkpt lat="38.79525167" lon="0.058093">
        <ele>70.0</ele>
        <time>2018-06-10T06:31:30.069Z</time>
      </trkpt>
      <trkpt lat="38.79530533" lon="0.057991">
        <ele>70.0</ele>
        <time>2018-06-10T06:31:31.069Z</time>
      </trkpt>
      <trkpt lat="38.79535917" lon="0.05789">
        <ele>70.0</ele>
        <time>2018-06-10T06:31:32.069Z</time>
      </trkpt>
      <trkpt lat="38.79541367" lon="0.05778833">
        <ele>70.0</ele>
        <time>2018-06-10T06:31:33.069Z</time>
      </trkpt>
      <trkpt lat="38.79546817" lon="0.05768683">
        <ele>70.0</ele>
        <time>2018-06-10T06:31:34.069Z</time>
      </trkpt>
      <trkpt lat="38.79552117" lon="0.05758533">
        <ele>70.0</ele>
        <time>2018-06-10T06:31:35.069Z</time>
      </trkpt>
      <trkpt lat="38.79557283" lon="0.05748483">
        <ele>69.0</ele>
        <time>2018-06-10T06:31:36.069Z</time>
      </trkpt>
      <trkpt lat="38.795624" lon="0.05738333">
        <ele>69.0</ele>
        <time>2018-06-10T06:31:37.069Z</time>
      </trkpt>
      <trkpt lat="38.795676" lon="0.05728183">
        <ele>69.0</ele>
        <time>2018-06-10T06:31:38.069Z</time>
      </trkpt>
      <trkpt lat="38.795729" lon="0.0571795">
        <ele>69.0</ele>
        <time>2018-06-10T06:31:39.069Z</time>
      </trkpt>
      <trkpt lat="38.7957825" lon="0.05707667">
        <ele>69.0</ele>
        <time>2018-06-10T06:31:40.069Z</time>
      </trkpt>
      <trkpt lat="38.79583633" lon="0.05697283">
        <ele>69.0</ele>
        <time>2018-06-10T06:31:41.069Z</time>
      </trkpt>
      <trkpt lat="38.7958905" lon="0.0568685">
        <ele>68.0</ele>
        <time>2018-06-10T06:31:42.069Z</time>
      </trkpt>
      <trkpt lat="38.79594483" lon="0.056764">
        <ele>68.0</ele>
        <time>2018-06-10T06:31:43.069Z</time>
      </trkpt>
      <trkpt lat="38.79599917" lon="0.05666017">
        <ele>68.0</ele>
        <time>2018-06-10T06:31:44.069Z</time>
      </trkpt>
      <trkpt lat="38.79605333" lon="0.056557">
        <ele>67.0</ele>
        <time>2018-06-10T06:31:45.069Z</time>
      </trkpt>
      <trkpt lat="38.796108" lon="0.05645383">
        <ele>67.0</ele>
        <time>2018-06-10T06:31:46.069Z</time>
      </trkpt>
      <trkpt lat="38.796163" lon="0.05634983">
        <ele>67.0</ele>
        <time>2018-06-10T06:31:47.069Z</time>
      </trkpt>
      <trkpt lat="38.79621833" lon="0.05624467">
        <ele>67.0</ele>
        <time>2018-06-10T06:31:48.069Z</time>
      </trkpt>
      <trkpt lat="38.79627333" lon="0.05613817">
        <ele>67.0</ele>
        <time>2018-06-10T06:31:49.069Z</time>
      </trkpt>
      <trkpt lat="38.79632783" lon="0.05603083">
        <ele>66.0</ele>
        <time>2018-06-10T06:31:50.069Z</time>
      </trkpt>
      <trkpt lat="38.79638183" lon="0.05592333">
        <ele>66.0</ele>
        <time>2018-06-10T06:31:51.069Z</time>
      </trkpt>
      <trkpt lat="38.796436" lon="0.0558165">
        <ele>66.0</ele>
        <time>2018-06-10T06:31:52.069Z</time>
      </trkpt>
      <trkpt lat="38.7964905" lon="0.0557105">
        <ele>66.0</ele>
        <time>2018-06-10T06:31:53.069Z</time>
      </trkpt>
      <trkpt lat="38.79654517" lon="0.05560433">
        <ele>66.0</ele>
        <time>2018-06-10T06:31:54.069Z</time>
      </trkpt>
      <trkpt lat="38.79660017" lon="0.055498">
        <ele>66.0</ele>
        <time>2018-06-10T06:31:55.069Z</time>
      </trkpt>
      <trkpt lat="38.79665483" lon="0.0553915">
        <ele>66.0</ele>
        <time>2018-06-10T06:31:56.069Z</time>
      </trkpt>
      <trkpt lat="38.796709" lon="0.05528467">
        <ele>65.0</ele>
        <time>2018-06-10T06:31:57.069Z</time>
      </trkpt>
      <trkpt lat="38.796763" lon="0.0551775">
        <ele>65.0</ele>
        <time>2018-06-10T06:31:58.069Z</time>
      </trkpt>
      <trkpt lat="38.79681717" lon="0.05507033">
        <ele>65.0</ele>
        <time>2018-06-10T06:31:59.069Z</time>
      </trkpt>
      <trkpt lat="38.7968715" lon="0.05496383">
        <ele>65.0</ele>
        <time>2018-06-10T06:32:00.069Z</time>
      </trkpt>
      <trkpt lat="38.79692583" lon="0.05485817">
        <ele>66.0</ele>
        <time>2018-06-10T06:32:01.069Z</time>
      </trkpt>
      <trkpt lat="38.79698" lon="0.054753">
        <ele>66.0</ele>
        <time>2018-06-10T06:32:02.069Z</time>
      </trkpt>
      <trkpt lat="38.797034" lon="0.05464767">
        <ele>66.0</ele>
        <time>2018-06-10T06:32:03.069Z</time>
      </trkpt>
      <trkpt lat="38.797088" lon="0.05454183">
        <ele>66.0</ele>
        <time>2018-06-10T06:32:04.069Z</time>
      </trkpt>
      <trkpt lat="38.797142" lon="0.05443583">
        <ele>66.0</ele>
        <time>2018-06-10T06:32:05.069Z</time>
      </trkpt>
      <trkpt lat="38.79719617" lon="0.05433033">
        <ele>65.0</ele>
        <time>2018-06-10T06:32:06.069Z</time>
      </trkpt>
      <trkpt lat="38.79725083" lon="0.05422533">
        <ele>65.0</ele>
        <time>2018-06-10T06:32:07.069Z</time>
      </trkpt>
      <trkpt lat="38.79730567" lon="0.05412083">
        <ele>65.0</ele>
        <time>2018-06-10T06:32:08.069Z</time>
      </trkpt>
      <trkpt lat="38.7973605" lon="0.05401583">
        <ele>65.0</ele>
        <time>2018-06-10T06:32:09.069Z</time>
      </trkpt>
      <trkpt lat="38.79741517" lon="0.05391067">
        <ele>64.0</ele>
        <time>2018-06-10T06:32:10.069Z</time>
      </trkpt>
      <trkpt lat="38.79746983" lon="0.053805">
        <ele>64.0</ele>
        <time>2018-06-10T06:32:11.069Z</time>
      </trkpt>
      <trkpt lat="38.79752483" lon="0.0536995">
        <ele>64.0</ele>
        <time>2018-06-10T06:32:12.069Z</time>
      </trkpt>
      <trkpt lat="38.7975805" lon="0.053594">
        <ele>64.0</ele>
        <time>2018-06-10T06:32:13.069Z</time>
      </trkpt>
      <trkpt lat="38.79763633" lon="0.053488">
        <ele>64.0</ele>
        <time>2018-06-10T06:32:14.069Z</time>
      </trkpt>
      <trkpt lat="38.79769183" lon="0.053381">
        <ele>64.0</ele>
        <time>2018-06-10T06:32:15.069Z</time>
      </trkpt>
      <trkpt lat="38.79774783" lon="0.0532735">
        <ele>64.0</ele>
        <time>2018-06-10T06:32:16.069Z</time>
      </trkpt>
      <trkpt lat="38.79780417" lon="0.053166">
        <ele>63.0</ele>
        <time>2018-06-10T06:32:17.069Z</time>
      </trkpt>
      <trkpt lat="38.7978605" lon="0.05305833">
        <ele>63.0</ele>
        <time>2018-06-10T06:32:18.069Z</time>
      </trkpt>
      <trkpt lat="38.79791683" lon="0.05295067">
        <ele>63.0</ele>
        <time>2018-06-10T06:32:19.069Z</time>
      </trkpt>
      <trkpt lat="38.79797317" lon="0.0528445">
        <ele>63.0</ele>
        <time>2018-06-10T06:32:20.069Z</time>
      </trkpt>
      <trkpt lat="38.79803017" lon="0.0527415">
        <ele>63.0</ele>
        <time>2018-06-10T06:32:21.069Z</time>
      </trkpt>
      <trkpt lat="38.79808667" lon="0.0526405">
        <ele>63.0</ele>
        <time>2018-06-10T06:32:22.069Z</time>
      </trkpt>
      <trkpt lat="38.79814183" lon="0.05253917">
        <ele>63.0</ele>
        <time>2018-06-10T06:32:23.069Z</time>
      </trkpt>
      <trkpt lat="38.79819583" lon="0.05243667">
        <ele>63.0</ele>
        <time>2018-06-10T06:32:24.069Z</time>
      </trkpt>
      <trkpt lat="38.79824917" lon="0.05233333">
        <ele>63.0</ele>
        <time>2018-06-10T06:32:25.069Z</time>
      </trkpt>
      <trkpt lat="38.79830317" lon="0.05222983">
        <ele>63.0</ele>
        <time>2018-06-10T06:32:26.069Z</time>
      </trkpt>
      <trkpt lat="38.798358" lon="0.05212533">
        <ele>63.0</ele>
        <time>2018-06-10T06:32:27.069Z</time>
      </trkpt>
      <trkpt lat="38.79841333" lon="0.05201933">
        <ele>63.0</ele>
        <time>2018-06-10T06:32:28.069Z</time>
      </trkpt>
      <trkpt lat="38.7984685" lon="0.05191233">
        <ele>63.0</ele>
        <time>2018-06-10T06:32:29.069Z</time>
      </trkpt>
      <trkpt lat="38.7985235" lon="0.05180517">
        <ele>63.0</ele>
        <time>2018-06-10T06:32:30.069Z</time>
      </trkpt>
      <trkpt lat="38.798578" lon="0.05169833">
        <ele>62.0</ele>
        <time>2018-06-10T06:32:31.069Z</time>
      </trkpt>
      <trkpt lat="38.79863283" lon="0.051592">
        <ele>62.0</ele>
        <time>2018-06-10T06:32:32.069Z</time>
      </trkpt>
      <trkpt lat="38.79868717" lon="0.05148583">
        <ele>62.0</ele>
        <time>2018-06-10T06:32:33.069Z</time>
      </trkpt>
      <trkpt lat="38.79874133" lon="0.05138">
        <ele>62.0</ele>
        <time>2018-06-10T06:32:34.069Z</time>
      </trkpt>
      <trkpt lat="38.7987955" lon="0.0512755">
        <ele>62.0</ele>
        <time>2018-06-10T06:32:35.069Z</time>
      </trkpt>
      <trkpt lat="38.79884917" lon="0.051172">
        <ele>62.0</ele>
        <time>2018-06-10T06:32:36.069Z</time>
      </trkpt>
      <trkpt lat="38.79890283" lon="0.05106967">
        <ele>62.0</ele>
        <time>2018-06-10T06:32:37.069Z</time>
      </trkpt>
      <trkpt lat="38.7989565" lon="0.05096717">
        <ele>62.0</ele>
        <time>2018-06-10T06:32:38.069Z</time>
      </trkpt>
      <trkpt lat="38.7990105" lon="0.05086433">
        <ele>62.0</ele>
        <time>2018-06-10T06:32:39.069Z</time>
      </trkpt>
      <trkpt lat="38.799065" lon="0.05076117">
        <ele>61.0</ele>
        <time>2018-06-10T06:32:40.069Z</time>
      </trkpt>
      <trkpt lat="38.79912033" lon="0.05065783">
        <ele>61.0</ele>
        <time>2018-06-10T06:32:41.069Z</time>
      </trkpt>
      <trkpt lat="38.7991765" lon="0.05055433">
        <ele>61.0</ele>
        <time>2018-06-10T06:32:42.069Z</time>
      </trkpt>
      <trkpt lat="38.79923333" lon="0.05045033">
        <ele>61.0</ele>
        <time>2018-06-10T06:32:43.069Z</time>
      </trkpt>
      <trkpt lat="38.79929017" lon="0.05034583">
        <ele>61.0</ele>
        <time>2018-06-10T06:32:44.069Z</time>
      </trkpt>
      <trkpt lat="38.79934683" lon="0.05024017">
        <ele>61.0</ele>
        <time>2018-06-10T06:32:45.069Z</time>
      </trkpt>
      <trkpt lat="38.79940283" lon="0.05013333">
        <ele>61.0</ele>
        <time>2018-06-10T06:32:46.069Z</time>
      </trkpt>
      <trkpt lat="38.79945817" lon="0.050026">
        <ele>61.0</ele>
        <time>2018-06-10T06:32:47.069Z</time>
      </trkpt>
      <trkpt lat="38.79951283" lon="0.0499195">
        <ele>61.0</ele>
        <time>2018-06-10T06:32:48.069Z</time>
      </trkpt>
      <trkpt lat="38.79956633" lon="0.049816">
        <ele>60.0</ele>
        <time>2018-06-10T06:32:49.069Z</time>
      </trkpt>
      <trkpt lat="38.799619" lon="0.04971483">
        <ele>60.0</ele>
        <time>2018-06-10T06:32:50.069Z</time>
      </trkpt>
      <trkpt lat="38.79967183" lon="0.04961483">
        <ele>60.0</ele>
        <time>2018-06-10T06:32:51.069Z</time>
      </trkpt>
      <trkpt lat="38.79972517" lon="0.04951317">
        <ele>60.0</ele>
        <time>2018-06-10T06:32:52.069Z</time>
      </trkpt>
      <trkpt lat="38.79977917" lon="0.04941">
        <ele>60.0</ele>
        <time>2018-06-10T06:32:53.069Z</time>
      </trkpt>
      <trkpt lat="38.79983383" lon="0.0493055">
        <ele>60.0</ele>
        <time>2018-06-10T06:32:54.069Z</time>
      </trkpt>
      <trkpt lat="38.7998885" lon="0.0492">
        <ele>60.0</ele>
        <time>2018-06-10T06:32:55.069Z</time>
      </trkpt>
      <trkpt lat="38.79994333" lon="0.04909367">
        <ele>60.0</ele>
        <time>2018-06-10T06:32:56.069Z</time>
      </trkpt>
      <trkpt lat="38.79999867" lon="0.04898733">
        <ele>60.0</ele>
        <time>2018-06-10T06:32:57.069Z</time>
      </trkpt>
      <trkpt lat="38.80005417" lon="0.04888133">
        <ele>60.0</ele>
        <time>2018-06-10T06:32:58.069Z</time>
      </trkpt>
      <trkpt lat="38.80010967" lon="0.04877533">
        <ele>60.0</ele>
        <time>2018-06-10T06:32:59.069Z</time>
      </trkpt>
      <trkpt lat="38.80016467" lon="0.04866867">
        <ele>60.0</ele>
        <time>2018-06-10T06:33:00.069Z</time>
      </trkpt>
      <trkpt lat="38.80022" lon="0.04856167">
        <ele>60.0</ele>
        <time>2018-06-10T06:33:01.069Z</time>
      </trkpt>
      <trkpt lat="38.80027567" lon="0.048454">
        <ele>60.0</ele>
        <time>2018-06-10T06:33:02.069Z</time>
      </trkpt>
      <trkpt lat="38.800332" lon="0.04834633">
        <ele>60.0</ele>
        <time>2018-06-10T06:33:03.069Z</time>
      </trkpt>
      <trkpt lat="38.80038867" lon="0.048238">
        <ele>60.0</ele>
        <time>2018-06-10T06:33:04.069Z</time>
      </trkpt>
      <trkpt lat="38.80044517" lon="0.0481295">
        <ele>60.0</ele>
        <time>2018-06-10T06:33:05.069Z</time>
      </trkpt>
      <trkpt lat="38.800501" lon="0.04802167">
        <ele>60.0</ele>
        <time>2018-06-10T06:33:06.069Z</time>
      </trkpt>
      <trkpt lat="38.80055667" lon="0.04791533">
        <ele>60.0</ele>
        <time>2018-06-10T06:33:07.069Z</time>
      </trkpt>
      <trkpt lat="38.80061233" lon="0.04781017">
        <ele>60.0</ele>
        <time>2018-06-10T06:33:08.069Z</time>
      </trkpt>
      <trkpt lat="38.80066767" lon="0.047705">
        <ele>60.0</ele>
        <time>2018-06-10T06:33:09.069Z</time>
      </trkpt>
      <trkpt lat="38.8007225" lon="0.04759983">
        <ele>60.0</ele>
        <time>2018-06-10T06:33:10.069Z</time>
      </trkpt>
      <trkpt lat="38.800777" lon="0.047495">
        <ele>60.0</ele>
        <time>2018-06-10T06:33:11.069Z</time>
      </trkpt>
      <trkpt lat="38.80083183" lon="0.04739083">
        <ele>60.0</ele>
        <time>2018-06-10T06:33:12.069Z</time>
      </trkpt>
      <trkpt lat="38.80088633" lon="0.04728683">
        <ele>60.0</ele>
        <time>2018-06-10T06:33:13.069Z</time>
      </trkpt>
      <trkpt lat="38.80094133" lon="0.04718283">
        <ele>60.0</ele>
        <time>2018-06-10T06:33:14.069Z</time>
      </trkpt>
      <trkpt lat="38.80099583" lon="0.04707867">
        <ele>60.0</ele>
        <time>2018-06-10T06:33:15.069Z</time>
      </trkpt>
      <trkpt lat="38.80105067" lon="0.04697433">
        <ele>60.0</ele>
        <time>2018-06-10T06:33:16.069Z</time>
      </trkpt>
      <trkpt lat="38.80110567" lon="0.04687">
        <ele>60.0</ele>
        <time>2018-06-10T06:33:17.069Z</time>
      </trkpt>
      <trkpt lat="38.80116067" lon="0.0467655">
        <ele>61.0</ele>
        <time>2018-06-10T06:33:18.069Z</time>
      </trkpt>
      <trkpt lat="38.80121567" lon="0.04666133">
        <ele>61.0</ele>
        <time>2018-06-10T06:33:19.069Z</time>
      </trkpt>
      <trkpt lat="38.80126967" lon="0.04655767">
        <ele>61.0</ele>
        <time>2018-06-10T06:33:20.069Z</time>
      </trkpt>
      <trkpt lat="38.80132267" lon="0.04645533">
        <ele>61.0</ele>
        <time>2018-06-10T06:33:21.069Z</time>
      </trkpt>
      <trkpt lat="38.80137433" lon="0.04635433">
        <ele>61.0</ele>
        <time>2018-06-10T06:33:22.069Z</time>
      </trkpt>
      <trkpt lat="38.80142517" lon="0.04625467">
        <ele>61.0</ele>
        <time>2018-06-10T06:33:23.069Z</time>
      </trkpt>
      <trkpt lat="38.801476" lon="0.046156">
        <ele>61.0</ele>
        <time>2018-06-10T06:33:24.069Z</time>
      </trkpt>
      <trkpt lat="38.80152683" lon="0.04605767">
        <ele>61.0</ele>
        <time>2018-06-10T06:33:25.069Z</time>
      </trkpt>
      <trkpt lat="38.80157767" lon="0.0459595">
        <ele>61.0</ele>
        <time>2018-06-10T06:33:26.069Z</time>
      </trkpt>
      <trkpt lat="38.80162867" lon="0.04586117">
        <ele>61.0</ele>
        <time>2018-06-10T06:33:27.069Z</time>
      </trkpt>
      <trkpt lat="38.80167983" lon="0.0457625">
        <ele>60.0</ele>
        <time>2018-06-10T06:33:28.069Z</time>
      </trkpt>
      <trkpt lat="38.80173117" lon="0.0456635">
        <ele>61.0</ele>
        <time>2018-06-10T06:33:29.069Z</time>
      </trkpt>
      <trkpt lat="38.8017825" lon="0.0455645">
        <ele>60.0</ele>
        <time>2018-06-10T06:33:30.069Z</time>
      </trkpt>
      <trkpt lat="38.80183333" lon="0.04546533">
        <ele>60.0</ele>
        <time>2018-06-10T06:33:31.069Z</time>
      </trkpt>
      <trkpt lat="38.801884" lon="0.04536667">
        <ele>60.0</ele>
        <time>2018-06-10T06:33:32.069Z</time>
      </trkpt>
      <trkpt lat="38.80193467" lon="0.04526817">
        <ele>60.0</ele>
        <time>2018-06-10T06:33:33.069Z</time>
      </trkpt>
      <trkpt lat="38.8019855" lon="0.04517">
        <ele>60.0</ele>
        <time>2018-06-10T06:33:34.069Z</time>
      </trkpt>
      <trkpt lat="38.8020365" lon="0.0450715">
        <ele>60.0</ele>
        <time>2018-06-10T06:33:35.069Z</time>
      </trkpt>
      <trkpt lat="38.80208783" lon="0.04497283">
        <ele>60.0</ele>
        <time>2018-06-10T06:33:36.069Z</time>
      </trkpt>
      <trkpt lat="38.80213917" lon="0.04487367">
        <ele>59.0</ele>
        <time>2018-06-10T06:33:37.069Z</time>
      </trkpt>
      <trkpt lat="38.80219033" lon="0.04477483">
        <ele>59.0</ele>
        <time>2018-06-10T06:33:38.069Z</time>
      </trkpt>
      <trkpt lat="38.80224117" lon="0.0446765">
        <ele>59.0</ele>
        <time>2018-06-10T06:33:39.069Z</time>
      </trkpt>
      <trkpt lat="38.802292" lon="0.044579">
        <ele>59.0</ele>
        <time>2018-06-10T06:33:40.069Z</time>
      </trkpt>
      <trkpt lat="38.80234283" lon="0.044482">
        <ele>59.0</ele>
        <time>2018-06-10T06:33:41.069Z</time>
      </trkpt>
      <trkpt lat="38.8023935" lon="0.04438483">
        <ele>59.0</ele>
        <time>2018-06-10T06:33:42.069Z</time>
      </trkpt>
      <trkpt lat="38.8024445" lon="0.044287">
        <ele>59.0</ele>
        <time>2018-06-10T06:33:43.069Z</time>
      </trkpt>
      <trkpt lat="38.802496" lon="0.0441885">
        <ele>59.0</ele>
        <time>2018-06-10T06:33:44.069Z</time>
      </trkpt>
      <trkpt lat="38.80254833" lon="0.04408917">
        <ele>59.0</ele>
        <time>2018-06-10T06:33:45.069Z</time>
      </trkpt>
      <trkpt lat="38.802601" lon="0.0439885">
        <ele>59.0</ele>
        <time>2018-06-10T06:33:46.069Z</time>
      </trkpt>
      <trkpt lat="38.80265417" lon="0.043887">
        <ele>59.0</ele>
        <time>2018-06-10T06:33:47.069Z</time>
      </trkpt>
      <trkpt lat="38.8027075" lon="0.043785">
        <ele>59.0</ele>
        <time>2018-06-10T06:33:48.069Z</time>
      </trkpt>
      <trkpt lat="38.80276033" lon="0.0436835">
        <ele>59.0</ele>
        <time>2018-06-10T06:33:49.069Z</time>
      </trkpt>
      <trkpt lat="38.8028125" lon="0.04358267">
        <ele>59.0</ele>
        <time>2018-06-10T06:33:50.069Z</time>
      </trkpt>
      <trkpt lat="38.80286417" lon="0.04348317">
        <ele>59.0</ele>
        <time>2018-06-10T06:33:51.069Z</time>
      </trkpt>
      <trkpt lat="38.802915" lon="0.04338467">
        <ele>59.0</ele>
        <time>2018-06-10T06:33:52.069Z</time>
      </trkpt>
      <trkpt lat="38.80296517" lon="0.04328667">
        <ele>59.0</ele>
        <time>2018-06-10T06:33:53.069Z</time>
      </trkpt>
      <trkpt lat="38.803015" lon="0.0431895">
        <ele>59.0</ele>
        <time>2018-06-10T06:33:54.069Z</time>
      </trkpt>
      <trkpt lat="38.80306567" lon="0.043093">
        <ele>59.0</ele>
        <time>2018-06-10T06:33:55.069Z</time>
      </trkpt>
      <trkpt lat="38.80311733" lon="0.04299667">
        <ele>59.0</ele>
        <time>2018-06-10T06:33:56.069Z</time>
      </trkpt>
      <trkpt lat="38.80316933" lon="0.0429">
        <ele>59.0</ele>
        <time>2018-06-10T06:33:57.069Z</time>
      </trkpt>
      <trkpt lat="38.803221" lon="0.04280217">
        <ele>59.0</ele>
        <time>2018-06-10T06:33:58.069Z</time>
      </trkpt>
      <trkpt lat="38.80327217" lon="0.04270367">
        <ele>59.0</ele>
        <time>2018-06-10T06:33:59.069Z</time>
      </trkpt>
      <trkpt lat="38.80332383" lon="0.042605">
        <ele>59.0</ele>
        <time>2018-06-10T06:34:00.069Z</time>
      </trkpt>
      <trkpt lat="38.803376" lon="0.04250617">
        <ele>59.0</ele>
        <time>2018-06-10T06:34:01.069Z</time>
      </trkpt>
      <trkpt lat="38.80342817" lon="0.042407">
        <ele>59.0</ele>
        <time>2018-06-10T06:34:02.069Z</time>
      </trkpt>
      <trkpt lat="38.80348017" lon="0.042307">
        <ele>59.0</ele>
        <time>2018-06-10T06:34:03.069Z</time>
      </trkpt>
      <trkpt lat="38.80353183" lon="0.04220667">
        <ele>59.0</ele>
        <time>2018-06-10T06:34:04.069Z</time>
      </trkpt>
      <trkpt lat="38.80358367" lon="0.04210617">
        <ele>59.0</ele>
        <time>2018-06-10T06:34:05.069Z</time>
      </trkpt>
      <trkpt lat="38.80363583" lon="0.04200583">
        <ele>59.0</ele>
        <time>2018-06-10T06:34:06.069Z</time>
      </trkpt>
      <trkpt lat="38.80368933" lon="0.04190467">
        <ele>59.0</ele>
        <time>2018-06-10T06:34:07.069Z</time>
      </trkpt>
      <trkpt lat="38.8037435" lon="0.04180383">
        <ele>59.0</ele>
        <time>2018-06-10T06:34:08.069Z</time>
      </trkpt>
      <trkpt lat="38.803797" lon="0.041702">
        <ele>60.0</ele>
        <time>2018-06-10T06:34:09.069Z</time>
      </trkpt>
      <trkpt lat="38.80384867" lon="0.0415995">
        <ele>59.0</ele>
        <time>2018-06-10T06:34:10.069Z</time>
      </trkpt>
      <trkpt lat="38.80389983" lon="0.041496">
        <ele>59.0</ele>
        <time>2018-06-10T06:34:11.069Z</time>
      </trkpt>
      <trkpt lat="38.80395233" lon="0.04139317">
        <ele>59.0</ele>
        <time>2018-06-10T06:34:12.069Z</time>
      </trkpt>
      <trkpt lat="38.80400617" lon="0.04129083">
        <ele>59.0</ele>
        <time>2018-06-10T06:34:13.069Z</time>
      </trkpt>
      <trkpt lat="38.8040605" lon="0.04118833">
        <ele>59.0</ele>
        <time>2018-06-10T06:34:14.069Z</time>
      </trkpt>
      <trkpt lat="38.80411483" lon="0.04108533">
        <ele>59.0</ele>
        <time>2018-06-10T06:34:15.069Z</time>
      </trkpt>
      <trkpt lat="38.80416917" lon="0.040982">
        <ele>59.0</ele>
        <time>2018-06-10T06:34:16.069Z</time>
      </trkpt>
      <trkpt lat="38.80422367" lon="0.04087883">
        <ele>58.0</ele>
        <time>2018-06-10T06:34:17.069Z</time>
      </trkpt>
      <trkpt lat="38.80427833" lon="0.04077483">
        <ele>58.0</ele>
        <time>2018-06-10T06:34:18.069Z</time>
      </trkpt>
      <trkpt lat="38.8043335" lon="0.04066967">
        <ele>58.0</ele>
        <time>2018-06-10T06:34:19.069Z</time>
      </trkpt>
      <trkpt lat="38.804389" lon="0.040563">
        <ele>58.0</ele>
        <time>2018-06-10T06:34:20.069Z</time>
      </trkpt>
      <trkpt lat="38.8044445" lon="0.04045483">
        <ele>57.0</ele>
        <time>2018-06-10T06:34:21.069Z</time>
      </trkpt>
      <trkpt lat="38.80450033" lon="0.04034633">
        <ele>57.0</ele>
        <time>2018-06-10T06:34:22.069Z</time>
      </trkpt>
      <trkpt lat="38.80455633" lon="0.0402375">
        <ele>56.0</ele>
        <time>2018-06-10T06:34:23.069Z</time>
      </trkpt>
      <trkpt lat="38.80461217" lon="0.0401285">
        <ele>56.0</ele>
        <time>2018-06-10T06:34:24.069Z</time>
      </trkpt>
      <trkpt lat="38.80466833" lon="0.04001883">
        <ele>56.0</ele>
        <time>2018-06-10T06:34:25.069Z</time>
      </trkpt>
      <trkpt lat="38.804725" lon="0.03990867">
        <ele>55.0</ele>
        <time>2018-06-10T06:34:26.069Z</time>
      </trkpt>
      <trkpt lat="38.80478183" lon="0.0397985">
        <ele>55.0</ele>
        <time>2018-06-10T06:34:27.069Z</time>
      </trkpt>
      <trkpt lat="38.80483617" lon="0.03968567">
        <ele>55.0</ele>
        <time>2018-06-10T06:34:28.069Z</time>
      </trkpt>
      <trkpt lat="38.804888" lon="0.03957033">
        <ele>55.0</ele>
        <time>2018-06-10T06:34:29.069Z</time>
      </trkpt>
      <trkpt lat="38.80493817" lon="0.03945317">
        <ele>54.0</ele>
        <time>2018-06-10T06:34:30.069Z</time>
      </trkpt>
      <trkpt lat="38.80498783" lon="0.03933567">
        <ele>54.0</ele>
        <time>2018-06-10T06:34:31.069Z</time>
      </trkpt>
      <trkpt lat="38.8050365" lon="0.0392185">
        <ele>54.0</ele>
        <time>2018-06-10T06:34:32.069Z</time>
      </trkpt>
      <trkpt lat="38.80508383" lon="0.03910117">
        <ele>54.0</ele>
        <time>2018-06-10T06:34:33.069Z</time>
      </trkpt>
      <trkpt lat="38.80513117" lon="0.03898467">
        <ele>54.0</ele>
        <time>2018-06-10T06:34:34.069Z</time>
      </trkpt>
      <trkpt lat="38.80517817" lon="0.038869">
        <ele>54.0</ele>
        <time>2018-06-10T06:34:35.069Z</time>
      </trkpt>
      <trkpt lat="38.80522467" lon="0.03875433">
        <ele>54.0</ele>
        <time>2018-06-10T06:34:36.069Z</time>
      </trkpt>
      <trkpt lat="38.80527033" lon="0.03864">
        <ele>54.0</ele>
        <time>2018-06-10T06:34:37.069Z</time>
      </trkpt>
      <trkpt lat="38.805315" lon="0.03852583">
        <ele>54.0</ele>
        <time>2018-06-10T06:34:38.069Z</time>
      </trkpt>
      <trkpt lat="38.80535967" lon="0.03841183">
        <ele>54.0</ele>
        <time>2018-06-10T06:34:39.069Z</time>
      </trkpt>
      <trkpt lat="38.80540467" lon="0.038298">
        <ele>54.0</ele>
        <time>2018-06-10T06:34:40.069Z</time>
      </trkpt>
      <trkpt lat="38.8054495" lon="0.03818283">
        <ele>54.0</ele>
        <time>2018-06-10T06:34:41.069Z</time>
      </trkpt>
      <trkpt lat="38.80549467" lon="0.038066">
        <ele>53.0</ele>
        <time>2018-06-10T06:34:42.069Z</time>
      </trkpt>
      <trkpt lat="38.80554017" lon="0.03794717">
        <ele>53.0</ele>
        <time>2018-06-10T06:34:43.069Z</time>
      </trkpt>
      <trkpt lat="38.805587" lon="0.03782733">
        <ele>52.0</ele>
        <time>2018-06-10T06:34:44.069Z</time>
      </trkpt>
      <trkpt lat="38.80563583" lon="0.037707">
        <ele>52.0</ele>
        <time>2018-06-10T06:34:45.069Z</time>
      </trkpt>
      <trkpt lat="38.80568717" lon="0.03758683">
        <ele>51.0</ele>
        <time>2018-06-10T06:34:46.069Z</time>
      </trkpt>
      <trkpt lat="38.80574217" lon="0.037468">
        <ele>51.0</ele>
        <time>2018-06-10T06:34:47.069Z</time>
      </trkpt>
      <trkpt lat="38.80580117" lon="0.037352">
        <ele>50.0</ele>
        <time>2018-06-10T06:34:48.069Z</time>
      </trkpt>
      <trkpt lat="38.80586583" lon="0.03724067">
        <ele>50.0</ele>
        <time>2018-06-10T06:34:49.069Z</time>
      </trkpt>
      <trkpt lat="38.80593633" lon="0.0371345">
        <ele>50.0</ele>
        <time>2018-06-10T06:34:50.069Z</time>
      </trkpt>
      <trkpt lat="38.80601267" lon="0.03703383">
        <ele>50.0</ele>
        <time>2018-06-10T06:34:51.069Z</time>
      </trkpt>
      <trkpt lat="38.80609367" lon="0.036939">
        <ele>49.0</ele>
        <time>2018-06-10T06:34:52.069Z</time>
      </trkpt>
      <trkpt lat="38.80617817" lon="0.03684983">
        <ele>49.0</ele>
        <time>2018-06-10T06:34:53.069Z</time>
      </trkpt>
      <trkpt lat="38.80626533" lon="0.03676483">
        <ele>49.0</ele>
        <time>2018-06-10T06:34:54.069Z</time>
      </trkpt>
      <trkpt lat="38.806354" lon="0.03668183">
        <ele>48.0</ele>
        <time>2018-06-10T06:34:55.069Z</time>
      </trkpt>
      <trkpt lat="38.8064435" lon="0.03659933">
        <ele>48.0</ele>
        <time>2018-06-10T06:34:56.069Z</time>
      </trkpt>
      <trkpt lat="38.80653317" lon="0.0365175">
        <ele>48.0</ele>
        <time>2018-06-10T06:34:57.069Z</time>
      </trkpt>
      <trkpt lat="38.80662267" lon="0.03643567">
        <ele>48.0</ele>
        <time>2018-06-10T06:34:58.069Z</time>
      </trkpt>
      <trkpt lat="38.806712" lon="0.03635467">
        <ele>47.0</ele>
        <time>2018-06-10T06:34:59.069Z</time>
      </trkpt>
      <trkpt lat="38.8068005" lon="0.0362735">
        <ele>47.0</ele>
        <time>2018-06-10T06:35:00.069Z</time>
      </trkpt>
      <trkpt lat="38.80688833" lon="0.03619333">
        <ele>47.0</ele>
        <time>2018-06-10T06:35:01.069Z</time>
      </trkpt>
      <trkpt lat="38.806975" lon="0.0361135">
        <ele>47.0</ele>
        <time>2018-06-10T06:35:02.069Z</time>
      </trkpt>
      <trkpt lat="38.8070605" lon="0.036035">
        <ele>48.0</ele>
        <time>2018-06-10T06:35:03.069Z</time>
      </trkpt>
      <trkpt lat="38.8071445" lon="0.0359575">
        <ele>48.0</ele>
        <time>2018-06-10T06:35:04.069Z</time>
      </trkpt>
      <trkpt lat="38.80722733" lon="0.03588117">
        <ele>48.0</ele>
        <time>2018-06-10T06:35:05.069Z</time>
      </trkpt>
      <trkpt lat="38.8073095" lon="0.0358045">
        <ele>48.0</ele>
        <time>2018-06-10T06:35:06.069Z</time>
      </trkpt>
      <trkpt lat="38.80739133" lon="0.03572867">
        <ele>48.0</ele>
        <time>2018-06-10T06:35:07.069Z</time>
      </trkpt>
      <trkpt lat="38.80747283" lon="0.03565367">
        <ele>48.0</ele>
        <time>2018-06-10T06:35:08.069Z</time>
      </trkpt>
      <trkpt lat="38.80755383" lon="0.03557983">
        <ele>48.0</ele>
        <time>2018-06-10T06:35:09.069Z</time>
      </trkpt>
      <trkpt lat="38.807634" lon="0.0355055">
        <ele>48.0</ele>
        <time>2018-06-10T06:35:10.069Z</time>
      </trkpt>
      <trkpt lat="38.80771367" lon="0.03543133">
        <ele>48.0</ele>
        <time>2018-06-10T06:35:11.069Z</time>
      </trkpt>
      <trkpt lat="38.80779233" lon="0.03535733">
        <ele>48.0</ele>
        <time>2018-06-10T06:35:12.069Z</time>
      </trkpt>
      <trkpt lat="38.80787017" lon="0.03528433">
        <ele>47.0</ele>
        <time>2018-06-10T06:35:13.069Z</time>
      </trkpt>
      <trkpt lat="38.8079475" lon="0.03521183">
        <ele>48.0</ele>
        <time>2018-06-10T06:35:14.069Z</time>
      </trkpt>
      <trkpt lat="38.80802467" lon="0.03513967">
        <ele>48.0</ele>
        <time>2018-06-10T06:35:15.069Z</time>
      </trkpt>
      <trkpt lat="38.80810183" lon="0.0350675">
        <ele>48.0</ele>
        <time>2018-06-10T06:35:16.069Z</time>
      </trkpt>
      <trkpt lat="38.808178" lon="0.03499517">
        <ele>48.0</ele>
        <time>2018-06-10T06:35:17.069Z</time>
      </trkpt>
      <trkpt lat="38.8082535" lon="0.03492367">
        <ele>48.0</ele>
        <time>2018-06-10T06:35:18.069Z</time>
      </trkpt>
      <trkpt lat="38.808328" lon="0.034853">
        <ele>48.0</ele>
        <time>2018-06-10T06:35:19.069Z</time>
      </trkpt>
      <trkpt lat="38.80840183" lon="0.034784">
        <ele>48.0</ele>
        <time>2018-06-10T06:35:20.069Z</time>
      </trkpt>
      <trkpt lat="38.80847467" lon="0.03471567">
        <ele>48.0</ele>
        <time>2018-06-10T06:35:21.069Z</time>
      </trkpt>
      <trkpt lat="38.80854683" lon="0.0346475">
        <ele>47.0</ele>
        <time>2018-06-10T06:35:22.069Z</time>
      </trkpt>
      <trkpt lat="38.80861817" lon="0.03457917">
        <ele>47.0</ele>
        <time>2018-06-10T06:35:23.069Z</time>
      </trkpt>
      <trkpt lat="38.80868967" lon="0.03451067">
        <ele>47.0</ele>
        <time>2018-06-10T06:35:24.069Z</time>
      </trkpt>
      <trkpt lat="38.80876117" lon="0.034442">
        <ele>47.0</ele>
        <time>2018-06-10T06:35:25.069Z</time>
      </trkpt>
      <trkpt lat="38.80883267" lon="0.03437333">
        <ele>47.0</ele>
        <time>2018-06-10T06:35:26.069Z</time>
      </trkpt>
      <trkpt lat="38.8089045" lon="0.03430517">
        <ele>47.0</ele>
        <time>2018-06-10T06:35:27.069Z</time>
      </trkpt>
      <trkpt lat="38.80897633" lon="0.03423733">
        <ele>47.0</ele>
        <time>2018-06-10T06:35:28.069Z</time>
      </trkpt>
      <trkpt lat="38.80904817" lon="0.03417017">
        <ele>47.0</ele>
        <time>2018-06-10T06:35:29.069Z</time>
      </trkpt>
      <trkpt lat="38.80911967" lon="0.0341035">
        <ele>47.0</ele>
        <time>2018-06-10T06:35:30.069Z</time>
      </trkpt>
      <trkpt lat="38.809191" lon="0.03403733">
        <ele>47.0</ele>
        <time>2018-06-10T06:35:31.069Z</time>
      </trkpt>
      <trkpt lat="38.80926167" lon="0.03397117">
        <ele>47.0</ele>
        <time>2018-06-10T06:35:32.069Z</time>
      </trkpt>
      <trkpt lat="38.80933183" lon="0.03390483">
        <ele>48.0</ele>
        <time>2018-06-10T06:35:33.069Z</time>
      </trkpt>
      <trkpt lat="38.809402" lon="0.0338395">
        <ele>48.0</ele>
        <time>2018-06-10T06:35:34.069Z</time>
      </trkpt>
      <trkpt lat="38.80947217" lon="0.03377533">
        <ele>48.0</ele>
        <time>2018-06-10T06:35:35.069Z</time>
      </trkpt>
      <trkpt lat="38.80954283" lon="0.03371283">
        <ele>49.0</ele>
        <time>2018-06-10T06:35:36.069Z</time>
      </trkpt>
      <trkpt lat="38.809614" lon="0.03365133">
        <ele>49.0</ele>
        <time>2018-06-10T06:35:37.069Z</time>
      </trkpt>
      <trkpt lat="38.8096855" lon="0.03359117">
        <ele>49.0</ele>
        <time>2018-06-10T06:35:38.069Z</time>
      </trkpt>
      <trkpt lat="38.8097565" lon="0.03353217">
        <ele>49.0</ele>
        <time>2018-06-10T06:35:39.069Z</time>
      </trkpt>
      <trkpt lat="38.809827" lon="0.033474">
        <ele>49.0</ele>
        <time>2018-06-10T06:35:40.069Z</time>
      </trkpt>
      <trkpt lat="38.8098965" lon="0.03341567">
        <ele>49.0</ele>
        <time>2018-06-10T06:35:41.069Z</time>
      </trkpt>
      <trkpt lat="38.80996617" lon="0.03335817">
        <ele>49.0</ele>
        <time>2018-06-10T06:35:42.069Z</time>
      </trkpt>
      <trkpt lat="38.81003483" lon="0.03329967">
        <ele>50.0</ele>
        <time>2018-06-10T06:35:43.069Z</time>
      </trkpt>
      <trkpt lat="38.81010333" lon="0.0332415">
        <ele>50.0</ele>
        <time>2018-06-10T06:35:44.069Z</time>
      </trkpt>
      <trkpt lat="38.8101715" lon="0.03318267">
        <ele>50.0</ele>
        <time>2018-06-10T06:35:45.069Z</time>
      </trkpt>
      <trkpt lat="38.81023983" lon="0.03312333">
        <ele>50.0</ele>
        <time>2018-06-10T06:35:46.069Z</time>
      </trkpt>
      <trkpt lat="38.81030833" lon="0.0330635">
        <ele>50.0</ele>
        <time>2018-06-10T06:35:47.069Z</time>
      </trkpt>
      <trkpt lat="38.81037733" lon="0.03300183">
        <ele>50.0</ele>
        <time>2018-06-10T06:35:48.069Z</time>
      </trkpt>
      <trkpt lat="38.81044683" lon="0.03293983">
        <ele>50.0</ele>
        <time>2018-06-10T06:35:49.069Z</time>
      </trkpt>
      <trkpt lat="38.8105165" lon="0.032877">
        <ele>50.0</ele>
        <time>2018-06-10T06:35:50.069Z</time>
      </trkpt>
      <trkpt lat="38.81058567" lon="0.03281367">
        <ele>50.0</ele>
        <time>2018-06-10T06:35:51.069Z</time>
      </trkpt>
      <trkpt lat="38.81065533" lon="0.03274933">
        <ele>50.0</ele>
        <time>2018-06-10T06:35:52.069Z</time>
      </trkpt>
      <trkpt lat="38.8107255" lon="0.03268467">
        <ele>50.0</ele>
        <time>2018-06-10T06:35:53.069Z</time>
      </trkpt>
      <trkpt lat="38.8107965" lon="0.03261967">
        <ele>50.0</ele>
        <time>2018-06-10T06:35:54.069Z</time>
      </trkpt>
      <trkpt lat="38.81086767" lon="0.03255417">
        <ele>50.0</ele>
        <time>2018-06-10T06:35:55.069Z</time>
      </trkpt>
      <trkpt lat="38.81093917" lon="0.032488">
        <ele>50.0</ele>
        <time>2018-06-10T06:35:56.069Z</time>
      </trkpt>
      <trkpt lat="38.8110115" lon="0.03242167">
        <ele>50.0</ele>
        <time>2018-06-10T06:35:57.069Z</time>
      </trkpt>
      <trkpt lat="38.81108433" lon="0.03235517">
        <ele>50.0</ele>
        <time>2018-06-10T06:35:58.069Z</time>
      </trkpt>
      <trkpt lat="38.81115683" lon="0.0322885">
        <ele>50.0</ele>
        <time>2018-06-10T06:35:59.069Z</time>
      </trkpt>
      <trkpt lat="38.81122967" lon="0.03222133">
        <ele>50.0</ele>
        <time>2018-06-10T06:36:00.069Z</time>
      </trkpt>
      <trkpt lat="38.81130267" lon="0.03215383">
        <ele>51.0</ele>
        <time>2018-06-10T06:36:01.069Z</time>
      </trkpt>
      <trkpt lat="38.81137633" lon="0.03208683">
        <ele>50.0</ele>
        <time>2018-06-10T06:36:02.069Z</time>
      </trkpt>
      <trkpt lat="38.8114495" lon="0.03201933">
        <ele>50.0</ele>
        <time>2018-06-10T06:36:03.069Z</time>
      </trkpt>
      <trkpt lat="38.81152233" lon="0.0319515">
        <ele>50.0</ele>
        <time>2018-06-10T06:36:04.069Z</time>
      </trkpt>
      <trkpt lat="38.81159533" lon="0.031883">
        <ele>50.0</ele>
        <time>2018-06-10T06:36:05.069Z</time>
      </trkpt>
      <trkpt lat="38.8116685" lon="0.031815">
        <ele>50.0</ele>
        <time>2018-06-10T06:36:06.069Z</time>
      </trkpt>
      <trkpt lat="38.81174183" lon="0.03174633">
        <ele>50.0</ele>
        <time>2018-06-10T06:36:07.069Z</time>
      </trkpt>
      <trkpt lat="38.81181517" lon="0.03167767">
        <ele>50.0</ele>
        <time>2018-06-10T06:36:08.069Z</time>
      </trkpt>
      <trkpt lat="38.81188867" lon="0.03160917">
        <ele>50.0</ele>
        <time>2018-06-10T06:36:09.069Z</time>
      </trkpt>
      <trkpt lat="38.81196217" lon="0.031541">
        <ele>50.0</ele>
        <time>2018-06-10T06:36:10.069Z</time>
      </trkpt>
      <trkpt lat="38.8120355" lon="0.03147267">
        <ele>50.0</ele>
        <time>2018-06-10T06:36:11.069Z</time>
      </trkpt>
      <trkpt lat="38.8121085" lon="0.031404">
        <ele>50.0</ele>
        <time>2018-06-10T06:36:12.069Z</time>
      </trkpt>
      <trkpt lat="38.81218233" lon="0.03133617">
        <ele>50.0</ele>
        <time>2018-06-10T06:36:13.069Z</time>
      </trkpt>
      <trkpt lat="38.81225717" lon="0.03127">
        <ele>49.0</ele>
        <time>2018-06-10T06:36:14.069Z</time>
      </trkpt>
      <trkpt lat="38.812333" lon="0.03120483">
        <ele>49.0</ele>
        <time>2018-06-10T06:36:15.069Z</time>
      </trkpt>
      <trkpt lat="38.81240833" lon="0.031139">
        <ele>49.0</ele>
        <time>2018-06-10T06:36:16.069Z</time>
      </trkpt>
      <trkpt lat="38.81248283" lon="0.031072">
        <ele>49.0</ele>
        <time>2018-06-10T06:36:17.069Z</time>
      </trkpt>
      <trkpt lat="38.81255667" lon="0.0310045">
        <ele>49.0</ele>
        <time>2018-06-10T06:36:18.069Z</time>
      </trkpt>
      <trkpt lat="38.81263083" lon="0.03093767">
        <ele>49.0</ele>
        <time>2018-06-10T06:36:19.069Z</time>
      </trkpt>
      <trkpt lat="38.81270433" lon="0.03087017">
        <ele>49.0</ele>
        <time>2018-06-10T06:36:20.069Z</time>
      </trkpt>
      <trkpt lat="38.81277767" lon="0.03080267">
        <ele>49.0</ele>
        <time>2018-06-10T06:36:21.069Z</time>
      </trkpt>
      <trkpt lat="38.81285" lon="0.03073433">
        <ele>48.0</ele>
        <time>2018-06-10T06:36:22.069Z</time>
      </trkpt>
      <trkpt lat="38.812922" lon="0.03066633">
        <ele>48.0</ele>
        <time>2018-06-10T06:36:23.069Z</time>
      </trkpt>
      <trkpt lat="38.812994" lon="0.03059917">
        <ele>48.0</ele>
        <time>2018-06-10T06:36:24.069Z</time>
      </trkpt>
      <trkpt lat="38.8130665" lon="0.03053267">
        <ele>48.0</ele>
        <time>2018-06-10T06:36:25.069Z</time>
      </trkpt>
      <trkpt lat="38.81313883" lon="0.03046617">
        <ele>48.0</ele>
        <time>2018-06-10T06:36:26.069Z</time>
      </trkpt>
      <trkpt lat="38.8132115" lon="0.03039933">
        <ele>48.0</ele>
        <time>2018-06-10T06:36:27.069Z</time>
      </trkpt>
      <trkpt lat="38.81328417" lon="0.03033267">
        <ele>47.0</ele>
        <time>2018-06-10T06:36:28.069Z</time>
      </trkpt>
      <trkpt lat="38.81335767" lon="0.03026617">
        <ele>47.0</ele>
        <time>2018-06-10T06:36:29.069Z</time>
      </trkpt>
      <trkpt lat="38.81343117" lon="0.03019883">
        <ele>47.0</ele>
        <time>2018-06-10T06:36:30.069Z</time>
      </trkpt>
      <trkpt lat="38.8135045" lon="0.03013083">
        <ele>47.0</ele>
        <time>2018-06-10T06:36:31.069Z</time>
      </trkpt>
      <trkpt lat="38.813578" lon="0.03006233">
        <ele>47.0</ele>
        <time>2018-06-10T06:36:32.069Z</time>
      </trkpt>
      <trkpt lat="38.81365167" lon="0.029994">
        <ele>47.0</ele>
        <time>2018-06-10T06:36:33.069Z</time>
      </trkpt>
      <trkpt lat="38.8137255" lon="0.02992517">
        <ele>47.0</ele>
        <time>2018-06-10T06:36:34.069Z</time>
      </trkpt>
      <trkpt lat="38.8137995" lon="0.02985583">
        <ele>47.0</ele>
        <time>2018-06-10T06:36:35.069Z</time>
      </trkpt>
      <trkpt lat="38.81387383" lon="0.02978617">
        <ele>47.0</ele>
        <time>2018-06-10T06:36:36.069Z</time>
      </trkpt>
      <trkpt lat="38.81394783" lon="0.02971667">
        <ele>47.0</ele>
        <time>2018-06-10T06:36:37.069Z</time>
      </trkpt>
      <trkpt lat="38.81402183" lon="0.02964717">
        <ele>47.0</ele>
        <time>2018-06-10T06:36:38.069Z</time>
      </trkpt>
      <trkpt lat="38.814095" lon="0.02957783">
        <ele>47.0</ele>
        <time>2018-06-10T06:36:39.069Z</time>
      </trkpt>
      <trkpt lat="38.81416833" lon="0.02950867">
        <ele>47.0</ele>
        <time>2018-06-10T06:36:40.069Z</time>
      </trkpt>
      <trkpt lat="38.81424167" lon="0.0294395">
        <ele>47.0</ele>
        <time>2018-06-10T06:36:41.069Z</time>
      </trkpt>
      <trkpt lat="38.81431567" lon="0.029371">
        <ele>47.0</ele>
        <time>2018-06-10T06:36:42.069Z</time>
      </trkpt>
      <trkpt lat="38.8143895" lon="0.02930333">
        <ele>47.0</ele>
        <time>2018-06-10T06:36:43.069Z</time>
      </trkpt>
      <trkpt lat="38.814462" lon="0.02923583">
        <ele>47.0</ele>
        <time>2018-06-10T06:36:44.069Z</time>
      </trkpt>
      <trkpt lat="38.8145335" lon="0.02916833">
        <ele>47.0</ele>
        <time>2018-06-10T06:36:45.069Z</time>
      </trkpt>
      <trkpt lat="38.81460483" lon="0.02910133">
        <ele>47.0</ele>
        <time>2018-06-10T06:36:46.069Z</time>
      </trkpt>
      <trkpt lat="38.814676" lon="0.02903483">
        <ele>47.0</ele>
        <time>2018-06-10T06:36:47.069Z</time>
      </trkpt>
      <trkpt lat="38.81474667" lon="0.02896733">
        <ele>47.0</ele>
        <time>2018-06-10T06:36:48.069Z</time>
      </trkpt>
      <trkpt lat="38.81481667" lon="0.02889867">
        <ele>47.0</ele>
        <time>2018-06-10T06:36:49.069Z</time>
      </trkpt>
      <trkpt lat="38.8148875" lon="0.02882983">
        <ele>47.0</ele>
        <time>2018-06-10T06:36:50.069Z</time>
      </trkpt>
      <trkpt lat="38.81496033" lon="0.02876167">
        <ele>46.0</ele>
        <time>2018-06-10T06:36:51.069Z</time>
      </trkpt>
      <trkpt lat="38.81503517" lon="0.02869333">
        <ele>46.0</ele>
        <time>2018-06-10T06:36:52.069Z</time>
      </trkpt>
      <trkpt lat="38.81511133" lon="0.0286235">
        <ele>46.0</ele>
        <time>2018-06-10T06:36:53.069Z</time>
      </trkpt>
      <trkpt lat="38.81518817" lon="0.02855117">
        <ele>46.0</ele>
        <time>2018-06-10T06:36:54.069Z</time>
      </trkpt>
      <trkpt lat="38.81526567" lon="0.0284775">
        <ele>46.0</ele>
        <time>2018-06-10T06:36:55.069Z</time>
      </trkpt>
      <trkpt lat="38.81534383" lon="0.0284035">
        <ele>45.0</ele>
        <time>2018-06-10T06:36:56.069Z</time>
      </trkpt>
      <trkpt lat="38.81542217" lon="0.02833067">
        <ele>45.0</ele>
        <time>2018-06-10T06:36:57.069Z</time>
      </trkpt>
      <trkpt lat="38.81550117" lon="0.028258">
        <ele>45.0</ele>
        <time>2018-06-10T06:36:58.069Z</time>
      </trkpt>
      <trkpt lat="38.8155805" lon="0.02818667">
        <ele>44.0</ele>
        <time>2018-06-10T06:36:59.069Z</time>
      </trkpt>
      <trkpt lat="38.815661" lon="0.028117">
        <ele>44.0</ele>
        <time>2018-06-10T06:37:00.069Z</time>
      </trkpt>
      <trkpt lat="38.81574183" lon="0.02804867">
        <ele>44.0</ele>
        <time>2018-06-10T06:37:01.069Z</time>
      </trkpt>
      <trkpt lat="38.81582183" lon="0.02797983">
        <ele>44.0</ele>
        <time>2018-06-10T06:37:02.069Z</time>
      </trkpt>
      <trkpt lat="38.81590067" lon="0.02790867">
        <ele>44.0</ele>
        <time>2018-06-10T06:37:03.069Z</time>
      </trkpt>
      <trkpt lat="38.81597883" lon="0.02783617">
        <ele>44.0</ele>
        <time>2018-06-10T06:37:04.069Z</time>
      </trkpt>
      <trkpt lat="38.81605717" lon="0.02776333">
        <ele>44.0</ele>
        <time>2018-06-10T06:37:05.069Z</time>
      </trkpt>
      <trkpt lat="38.8161355" lon="0.02769067">
        <ele>43.0</ele>
        <time>2018-06-10T06:37:06.069Z</time>
      </trkpt>
      <trkpt lat="38.81621417" lon="0.027618">
        <ele>43.0</ele>
        <time>2018-06-10T06:37:07.069Z</time>
      </trkpt>
      <trkpt lat="38.81629317" lon="0.02754467">
        <ele>43.0</ele>
        <time>2018-06-10T06:37:08.069Z</time>
      </trkpt>
      <trkpt lat="38.816373" lon="0.02747083">
        <ele>43.0</ele>
        <time>2018-06-10T06:37:09.069Z</time>
      </trkpt>
      <trkpt lat="38.81645367" lon="0.02739617">
        <ele>43.0</ele>
        <time>2018-06-10T06:37:10.069Z</time>
      </trkpt>
      <trkpt lat="38.81653467" lon="0.02732133">
        <ele>43.0</ele>
        <time>2018-06-10T06:37:11.069Z</time>
      </trkpt>
      <trkpt lat="38.816616" lon="0.02724733">
        <ele>43.0</ele>
        <time>2018-06-10T06:37:12.069Z</time>
      </trkpt>
      <trkpt lat="38.81669717" lon="0.02717433">
        <ele>43.0</ele>
        <time>2018-06-10T06:37:13.069Z</time>
      </trkpt>
      <trkpt lat="38.81677817" lon="0.02710133">
        <ele>43.0</ele>
        <time>2018-06-10T06:37:14.069Z</time>
      </trkpt>
      <trkpt lat="38.816859" lon="0.027028">
        <ele>43.0</ele>
        <time>2018-06-10T06:37:15.069Z</time>
      </trkpt>
      <trkpt lat="38.81693933" lon="0.02695417">
        <ele>43.0</ele>
        <time>2018-06-10T06:37:16.069Z</time>
      </trkpt>
      <trkpt lat="38.817019" lon="0.026881">
        <ele>43.0</ele>
        <time>2018-06-10T06:37:17.069Z</time>
      </trkpt>
      <trkpt lat="38.817098" lon="0.0268085">
        <ele>43.0</ele>
        <time>2018-06-10T06:37:18.069Z</time>
      </trkpt>
      <trkpt lat="38.817176" lon="0.026737">
        <ele>43.0</ele>
        <time>2018-06-10T06:37:19.069Z</time>
      </trkpt>
      <trkpt lat="38.81725383" lon="0.02666517">
        <ele>43.0</ele>
        <time>2018-06-10T06:37:20.069Z</time>
      </trkpt>
      <trkpt lat="38.81733167" lon="0.02659467">
        <ele>43.0</ele>
        <time>2018-06-10T06:37:21.069Z</time>
      </trkpt>
      <trkpt lat="38.817409" lon="0.02652417">
        <ele>44.0</ele>
        <time>2018-06-10T06:37:22.069Z</time>
      </trkpt>
      <trkpt lat="38.81748567" lon="0.0264535">
        <ele>44.0</ele>
        <time>2018-06-10T06:37:23.069Z</time>
      </trkpt>
      <trkpt lat="38.8175615" lon="0.0263815">
        <ele>44.0</ele>
        <time>2018-06-10T06:37:24.069Z</time>
      </trkpt>
      <trkpt lat="38.81763717" lon="0.0263085">
        <ele>44.0</ele>
        <time>2018-06-10T06:37:25.069Z</time>
      </trkpt>
      <trkpt lat="38.8177125" lon="0.02623617">
        <ele>44.0</ele>
        <time>2018-06-10T06:37:26.069Z</time>
      </trkpt>
      <trkpt lat="38.817787" lon="0.02616333">
        <ele>44.0</ele>
        <time>2018-06-10T06:37:27.069Z</time>
      </trkpt>
      <trkpt lat="38.81786017" lon="0.0260905">
        <ele>44.0</ele>
        <time>2018-06-10T06:37:28.069Z</time>
      </trkpt>
      <trkpt lat="38.817932" lon="0.0260175">
        <ele>44.0</ele>
        <time>2018-06-10T06:37:29.069Z</time>
      </trkpt>
      <trkpt lat="38.8180025" lon="0.02594417">
        <ele>44.0</ele>
        <time>2018-06-10T06:37:30.069Z</time>
      </trkpt>
      <trkpt lat="38.81807183" lon="0.02586983">
        <ele>44.0</ele>
        <time>2018-06-10T06:37:31.069Z</time>
      </trkpt>
      <trkpt lat="38.81814017" lon="0.02579467">
        <ele>44.0</ele>
        <time>2018-06-10T06:37:32.069Z</time>
      </trkpt>
      <trkpt lat="38.81820733" lon="0.025718">
        <ele>45.0</ele>
        <time>2018-06-10T06:37:33.069Z</time>
      </trkpt>
      <trkpt lat="38.81827383" lon="0.02564017">
        <ele>45.0</ele>
        <time>2018-06-10T06:37:34.069Z</time>
      </trkpt>
      <trkpt lat="38.81833917" lon="0.02556">
        <ele>45.0</ele>
        <time>2018-06-10T06:37:35.069Z</time>
      </trkpt>
      <trkpt lat="38.818404" lon="0.02547767">
        <ele>45.0</ele>
        <time>2018-06-10T06:37:36.069Z</time>
      </trkpt>
      <trkpt lat="38.81846783" lon="0.0253925">
        <ele>45.0</ele>
        <time>2018-06-10T06:37:37.069Z</time>
      </trkpt>
      <trkpt lat="38.818531" lon="0.025305">
        <ele>44.0</ele>
        <time>2018-06-10T06:37:38.069Z</time>
      </trkpt>
      <trkpt lat="38.818593" lon="0.02521567">
        <ele>44.0</ele>
        <time>2018-06-10T06:37:39.069Z</time>
      </trkpt>
      <trkpt lat="38.8186535" lon="0.0251245">
        <ele>44.0</ele>
        <time>2018-06-10T06:37:40.069Z</time>
      </trkpt>
      <trkpt lat="38.81871217" lon="0.0250315">
        <ele>44.0</ele>
        <time>2018-06-10T06:37:41.069Z</time>
      </trkpt>
      <trkpt lat="38.818769" lon="0.0249365">
        <ele>44.0</ele>
        <time>2018-06-10T06:37:42.069Z</time>
      </trkpt>
      <trkpt lat="38.81882467" lon="0.02484017">
        <ele>44.0</ele>
        <time>2018-06-10T06:37:43.069Z</time>
      </trkpt>
      <trkpt lat="38.81887967" lon="0.0247425">
        <ele>44.0</ele>
        <time>2018-06-10T06:37:44.069Z</time>
      </trkpt>
      <trkpt lat="38.8189335" lon="0.024642">
        <ele>44.0</ele>
        <time>2018-06-10T06:37:45.069Z</time>
      </trkpt>
      <trkpt lat="38.81898667" lon="0.02453867">
        <ele>44.0</ele>
        <time>2018-06-10T06:37:46.069Z</time>
      </trkpt>
      <trkpt lat="38.8190385" lon="0.02443133">
        <ele>44.0</ele>
        <time>2018-06-10T06:37:47.069Z</time>
      </trkpt>
      <trkpt lat="38.81908883" lon="0.02432017">
        <ele>44.0</ele>
        <time>2018-06-10T06:37:48.069Z</time>
      </trkpt>
      <trkpt lat="38.8191365" lon="0.02420517">
        <ele>44.0</ele>
        <time>2018-06-10T06:37:49.069Z</time>
      </trkpt>
      <trkpt lat="38.819182" lon="0.02408783">
        <ele>44.0</ele>
        <time>2018-06-10T06:37:50.069Z</time>
      </trkpt>
      <trkpt lat="38.81922667" lon="0.02396967">
        <ele>44.0</ele>
        <time>2018-06-10T06:37:51.069Z</time>
      </trkpt>
      <trkpt lat="38.81927133" lon="0.023851">
        <ele>43.0</ele>
        <time>2018-06-10T06:37:52.069Z</time>
      </trkpt>
      <trkpt lat="38.81931383" lon="0.023733">
        <ele>44.0</ele>
        <time>2018-06-10T06:37:53.069Z</time>
      </trkpt>
      <trkpt lat="38.81935333" lon="0.02361533">
        <ele>43.0</ele>
        <time>2018-06-10T06:37:54.069Z</time>
      </trkpt>
      <trkpt lat="38.8193885" lon="0.02349767">
        <ele>43.0</ele>
        <time>2018-06-10T06:37:55.069Z</time>
      </trkpt>
      <trkpt lat="38.819422" lon="0.02338">
        <ele>43.0</ele>
        <time>2018-06-10T06:37:56.069Z</time>
      </trkpt>
      <trkpt lat="38.819453" lon="0.02326167">
        <ele>43.0</ele>
        <time>2018-06-10T06:37:57.069Z</time>
      </trkpt>
      <trkpt lat="38.81948217" lon="0.02314283">
        <ele>42.0</ele>
        <time>2018-06-10T06:37:58.069Z</time>
      </trkpt>
      <trkpt lat="38.81951" lon="0.02302217">
        <ele>42.0</ele>
        <time>2018-06-10T06:37:59.069Z</time>
      </trkpt>
      <trkpt lat="38.81953633" lon="0.0229">
        <ele>42.0</ele>
        <time>2018-06-10T06:38:00.069Z</time>
      </trkpt>
      <trkpt lat="38.81956067" lon="0.022777">
        <ele>41.0</ele>
        <time>2018-06-10T06:38:01.069Z</time>
      </trkpt>
      <trkpt lat="38.81958267" lon="0.02265367">
        <ele>41.0</ele>
        <time>2018-06-10T06:38:02.069Z</time>
      </trkpt>
      <trkpt lat="38.81960217" lon="0.02253033">
        <ele>41.0</ele>
        <time>2018-06-10T06:38:03.069Z</time>
      </trkpt>
      <trkpt lat="38.81962017" lon="0.0224065">
        <ele>41.0</ele>
        <time>2018-06-10T06:38:04.069Z</time>
      </trkpt>
      <trkpt lat="38.819637" lon="0.02228217">
        <ele>40.0</ele>
        <time>2018-06-10T06:38:05.069Z</time>
      </trkpt>
      <trkpt lat="38.81965267" lon="0.022157">
        <ele>40.0</ele>
        <time>2018-06-10T06:38:06.069Z</time>
      </trkpt>
      <trkpt lat="38.81966617" lon="0.02203">
        <ele>40.0</ele>
        <time>2018-06-10T06:38:07.069Z</time>
      </trkpt>
      <trkpt lat="38.81967683" lon="0.021901">
        <ele>40.0</ele>
        <time>2018-06-10T06:38:08.069Z</time>
      </trkpt>
      <trkpt lat="38.819685" lon="0.0217705">
        <ele>39.0</ele>
        <time>2018-06-10T06:38:09.069Z</time>
      </trkpt>
      <trkpt lat="38.8196905" lon="0.02163917">
        <ele>39.0</ele>
        <time>2018-06-10T06:38:10.069Z</time>
      </trkpt>
      <trkpt lat="38.819694" lon="0.02150717">
        <ele>39.0</ele>
        <time>2018-06-10T06:38:11.069Z</time>
      </trkpt>
      <trkpt lat="38.81969533" lon="0.021374">
        <ele>39.0</ele>
        <time>2018-06-10T06:38:12.069Z</time>
      </trkpt>
      <trkpt lat="38.819695" lon="0.02123967">
        <ele>38.0</ele>
        <time>2018-06-10T06:38:13.069Z</time>
      </trkpt>
      <trkpt lat="38.8196925" lon="0.02110417">
        <ele>38.0</ele>
        <time>2018-06-10T06:38:14.069Z</time>
      </trkpt>
      <trkpt lat="38.81968867" lon="0.0209685">
        <ele>37.0</ele>
        <time>2018-06-10T06:38:15.069Z</time>
      </trkpt>
      <trkpt lat="38.819684" lon="0.020833">
        <ele>37.0</ele>
        <time>2018-06-10T06:38:16.069Z</time>
      </trkpt>
      <trkpt lat="38.81967983" lon="0.02069767">
        <ele>37.0</ele>
        <time>2018-06-10T06:38:17.069Z</time>
      </trkpt>
      <trkpt lat="38.819676" lon="0.02056267">
        <ele>37.0</ele>
        <time>2018-06-10T06:38:18.069Z</time>
      </trkpt>
      <trkpt lat="38.819673" lon="0.02042817">
        <ele>37.0</ele>
        <time>2018-06-10T06:38:19.069Z</time>
      </trkpt>
      <trkpt lat="38.81967033" lon="0.02029433">
        <ele>37.0</ele>
        <time>2018-06-10T06:38:20.069Z</time>
      </trkpt>
      <trkpt lat="38.81966867" lon="0.02016083">
        <ele>37.0</ele>
        <time>2018-06-10T06:38:21.069Z</time>
      </trkpt>
      <trkpt lat="38.8196705" lon="0.02002833">
        <ele>37.0</ele>
        <time>2018-06-10T06:38:22.069Z</time>
      </trkpt>
      <trkpt lat="38.8196755" lon="0.0198975">
        <ele>37.0</ele>
        <time>2018-06-10T06:38:23.069Z</time>
      </trkpt>
      <trkpt lat="38.81968267" lon="0.01976833">
        <ele>37.0</ele>
        <time>2018-06-10T06:38:24.069Z</time>
      </trkpt>
      <trkpt lat="38.81969033" lon="0.01964033">
        <ele>36.0</ele>
        <time>2018-06-10T06:38:25.069Z</time>
      </trkpt>
      <trkpt lat="38.8197035" lon="0.01951483">
        <ele>37.0</ele>
        <time>2018-06-10T06:38:26.069Z</time>
      </trkpt>
      <trkpt lat="38.81972133" lon="0.0193925">
        <ele>37.0</ele>
        <time>2018-06-10T06:38:27.069Z</time>
      </trkpt>
      <trkpt lat="38.81974333" lon="0.01927317">
        <ele>37.0</ele>
        <time>2018-06-10T06:38:28.069Z</time>
      </trkpt>
      <trkpt lat="38.81976467" lon="0.0191545">
        <ele>37.0</ele>
        <time>2018-06-10T06:38:29.069Z</time>
      </trkpt>
      <trkpt lat="38.81978767" lon="0.0190355">
        <ele>37.0</ele>
        <time>2018-06-10T06:38:30.069Z</time>
      </trkpt>
      <trkpt lat="38.819812" lon="0.01891583">
        <ele>37.0</ele>
        <time>2018-06-10T06:38:31.069Z</time>
      </trkpt>
      <trkpt lat="38.81983883" lon="0.01879567">
        <ele>38.0</ele>
        <time>2018-06-10T06:38:32.069Z</time>
      </trkpt>
      <trkpt lat="38.819868" lon="0.01867583">
        <ele>38.0</ele>
        <time>2018-06-10T06:38:33.069Z</time>
      </trkpt>
      <trkpt lat="38.8199" lon="0.018556">
        <ele>38.0</ele>
        <time>2018-06-10T06:38:34.069Z</time>
      </trkpt>
      <trkpt lat="38.8199345" lon="0.01843683">
        <ele>38.0</ele>
        <time>2018-06-10T06:38:35.069Z</time>
      </trkpt>
      <trkpt lat="38.819972" lon="0.01831967">
        <ele>38.0</ele>
        <time>2018-06-10T06:38:36.069Z</time>
      </trkpt>
      <trkpt lat="38.820012" lon="0.01820517">
        <ele>37.0</ele>
        <time>2018-06-10T06:38:37.069Z</time>
      </trkpt>
      <trkpt lat="38.82005383" lon="0.01809217">
        <ele>38.0</ele>
        <time>2018-06-10T06:38:38.069Z</time>
      </trkpt>
      <trkpt lat="38.82009683" lon="0.01798033">
        <ele>37.0</ele>
        <time>2018-06-10T06:38:39.069Z</time>
      </trkpt>
      <trkpt lat="38.82014233" lon="0.0178695">
        <ele>37.0</ele>
        <time>2018-06-10T06:38:40.069Z</time>
      </trkpt>
      <trkpt lat="38.82019033" lon="0.01776083">
        <ele>37.0</ele>
        <time>2018-06-10T06:38:41.069Z</time>
      </trkpt>
      <trkpt lat="38.82024083" lon="0.01765333">
        <ele>37.0</ele>
        <time>2018-06-10T06:38:42.069Z</time>
      </trkpt>
      <trkpt lat="38.82029267" lon="0.01754667">
        <ele>37.0</ele>
        <time>2018-06-10T06:38:43.069Z</time>
      </trkpt>
      <trkpt lat="38.82034683" lon="0.01744133">
        <ele>37.0</ele>
        <time>2018-06-10T06:38:44.069Z</time>
      </trkpt>
      <trkpt lat="38.82040367" lon="0.01733817">
        <ele>37.0</ele>
        <time>2018-06-10T06:38:45.069Z</time>
      </trkpt>
      <trkpt lat="38.82046333" lon="0.0172375">
        <ele>37.0</ele>
        <time>2018-06-10T06:38:46.069Z</time>
      </trkpt>
      <trkpt lat="38.82052517" lon="0.0171385">
        <ele>37.0</ele>
        <time>2018-06-10T06:38:47.069Z</time>
      </trkpt>
      <trkpt lat="38.820589" lon="0.01704083">
        <ele>37.0</ele>
        <time>2018-06-10T06:38:48.069Z</time>
      </trkpt>
      <trkpt lat="38.82065533" lon="0.0169445">
        <ele>37.0</ele>
        <time>2018-06-10T06:38:49.069Z</time>
      </trkpt>
      <trkpt lat="38.8207245" lon="0.01685">
        <ele>37.0</ele>
        <time>2018-06-10T06:38:50.069Z</time>
      </trkpt>
      <trkpt lat="38.82079583" lon="0.016759">
        <ele>37.0</ele>
        <time>2018-06-10T06:38:51.069Z</time>
      </trkpt>
      <trkpt lat="38.82086833" lon="0.016671">
        <ele>37.0</ele>
        <time>2018-06-10T06:38:52.069Z</time>
      </trkpt>
      <trkpt lat="38.82094217" lon="0.01658567">
        <ele>37.0</ele>
        <time>2018-06-10T06:38:53.069Z</time>
      </trkpt>
      <trkpt lat="38.82101683" lon="0.016502">
        <ele>37.0</ele>
        <time>2018-06-10T06:38:54.069Z</time>
      </trkpt>
      <trkpt lat="38.821093" lon="0.01642117">
        <ele>37.0</ele>
        <time>2018-06-10T06:38:55.069Z</time>
      </trkpt>
      <trkpt lat="38.82117033" lon="0.0163435">
        <ele>37.0</ele>
        <time>2018-06-10T06:38:56.069Z</time>
      </trkpt>
      <trkpt lat="38.82124833" lon="0.01626867">
        <ele>37.0</ele>
        <time>2018-06-10T06:38:57.069Z</time>
      </trkpt>
      <trkpt lat="38.82132717" lon="0.01619617">
        <ele>37.0</ele>
        <time>2018-06-10T06:38:58.069Z</time>
      </trkpt>
      <trkpt lat="38.8214065" lon="0.01612467">
        <ele>37.0</ele>
        <time>2018-06-10T06:38:59.069Z</time>
      </trkpt>
      <trkpt lat="38.82148683" lon="0.01605317">
        <ele>37.0</ele>
        <time>2018-06-10T06:39:00.069Z</time>
      </trkpt>
      <trkpt lat="38.82156783" lon="0.0159805">
        <ele>37.0</ele>
        <time>2018-06-10T06:39:01.069Z</time>
      </trkpt>
      <trkpt lat="38.82165" lon="0.01590783">
        <ele>38.0</ele>
        <time>2018-06-10T06:39:02.069Z</time>
      </trkpt>
      <trkpt lat="38.8217335" lon="0.0158375">
        <ele>38.0</ele>
        <time>2018-06-10T06:39:03.069Z</time>
      </trkpt>
      <trkpt lat="38.8218175" lon="0.0157695">
        <ele>38.0</ele>
        <time>2018-06-10T06:39:04.069Z</time>
      </trkpt>
      <trkpt lat="38.82190133" lon="0.01570183">
        <ele>38.0</ele>
        <time>2018-06-10T06:39:05.069Z</time>
      </trkpt>
      <trkpt lat="38.82198483" lon="0.01563333">
        <ele>38.0</ele>
        <time>2018-06-10T06:39:06.069Z</time>
      </trkpt>
      <trkpt lat="38.822068" lon="0.0155645">
        <ele>38.0</ele>
        <time>2018-06-10T06:39:07.069Z</time>
      </trkpt>
      <trkpt lat="38.82215067" lon="0.015495">
        <ele>37.0</ele>
        <time>2018-06-10T06:39:08.069Z</time>
      </trkpt>
      <trkpt lat="38.8222335" lon="0.01542467">
        <ele>37.0</ele>
        <time>2018-06-10T06:39:09.069Z</time>
      </trkpt>
      <trkpt lat="38.82231733" lon="0.01535417">
        <ele>38.0</ele>
        <time>2018-06-10T06:39:10.069Z</time>
      </trkpt>
      <trkpt lat="38.82240217" lon="0.015285">
        <ele>38.0</ele>
        <time>2018-06-10T06:39:11.069Z</time>
      </trkpt>
      <trkpt lat="38.82248633" lon="0.01521683">
        <ele>38.0</ele>
        <time>2018-06-10T06:39:12.069Z</time>
      </trkpt>
      <trkpt lat="38.8225695" lon="0.01514967">
        <ele>38.0</ele>
        <time>2018-06-10T06:39:13.069Z</time>
      </trkpt>
      <trkpt lat="38.8226515" lon="0.01508217">
        <ele>38.0</ele>
        <time>2018-06-10T06:39:14.069Z</time>
      </trkpt>
      <trkpt lat="38.82273317" lon="0.01501417">
        <ele>39.0</ele>
        <time>2018-06-10T06:39:15.069Z</time>
      </trkpt>
      <trkpt lat="38.82281483" lon="0.01494583">
        <ele>39.0</ele>
        <time>2018-06-10T06:39:16.069Z</time>
      </trkpt>
      <trkpt lat="38.82289783" lon="0.01487817">
        <ele>39.0</ele>
        <time>2018-06-10T06:39:17.069Z</time>
      </trkpt>
      <trkpt lat="38.82298167" lon="0.0148105">
        <ele>39.0</ele>
        <time>2018-06-10T06:39:18.069Z</time>
      </trkpt>
      <trkpt lat="38.8230665" lon="0.01474267">
        <ele>40.0</ele>
        <time>2018-06-10T06:39:19.069Z</time>
      </trkpt>
      <trkpt lat="38.823151" lon="0.0146745">
        <ele>40.0</ele>
        <time>2018-06-10T06:39:20.069Z</time>
      </trkpt>
      <trkpt lat="38.8232355" lon="0.01460667">
        <ele>40.0</ele>
        <time>2018-06-10T06:39:21.069Z</time>
      </trkpt>
      <trkpt lat="38.82331917" lon="0.014539">
        <ele>40.0</ele>
        <time>2018-06-10T06:39:22.069Z</time>
      </trkpt>
      <trkpt lat="38.82340267" lon="0.01447183">
        <ele>41.0</ele>
        <time>2018-06-10T06:39:23.069Z</time>
      </trkpt>
      <trkpt lat="38.82348567" lon="0.0144045">
        <ele>41.0</ele>
        <time>2018-06-10T06:39:24.069Z</time>
      </trkpt>
      <trkpt lat="38.8235685" lon="0.01433667">
        <ele>41.0</ele>
        <time>2018-06-10T06:39:25.069Z</time>
      </trkpt>
      <trkpt lat="38.823651" lon="0.0142685">
        <ele>41.0</ele>
        <time>2018-06-10T06:39:26.069Z</time>
      </trkpt>
      <trkpt lat="38.82373283" lon="0.014201">
        <ele>41.0</ele>
        <time>2018-06-10T06:39:27.069Z</time>
      </trkpt>
      <trkpt lat="38.82381433" lon="0.01413667">
        <ele>41.0</ele>
        <time>2018-06-10T06:39:28.069Z</time>
      </trkpt>
      <trkpt lat="38.8238945" lon="0.01407517">
        <ele>42.0</ele>
        <time>2018-06-10T06:39:29.069Z</time>
      </trkpt>
      <trkpt lat="38.823972" lon="0.01401467">
        <ele>42.0</ele>
        <time>2018-06-10T06:39:30.069Z</time>
      </trkpt>
      <trkpt lat="38.82404617" lon="0.01395283">
        <ele>42.0</ele>
        <time>2018-06-10T06:39:31.069Z</time>
      </trkpt>
      <trkpt lat="38.824117" lon="0.01389017">
        <ele>42.0</ele>
        <time>2018-06-10T06:39:32.069Z</time>
      </trkpt>
      <trkpt lat="38.82418533" lon="0.01382717">
        <ele>42.0</ele>
        <time>2018-06-10T06:39:33.069Z</time>
      </trkpt>
      <trkpt lat="38.82425167" lon="0.01376417">
        <ele>42.0</ele>
        <time>2018-06-10T06:39:34.069Z</time>
      </trkpt>
      <trkpt lat="38.82431667" lon="0.01370033">
        <ele>42.0</ele>
        <time>2018-06-10T06:39:35.069Z</time>
      </trkpt>
      <trkpt lat="38.824381" lon="0.01363467">
        <ele>42.0</ele>
        <time>2018-06-10T06:39:36.069Z</time>
      </trkpt>
      <trkpt lat="38.824444" lon="0.01356667">
        <ele>42.0</ele>
        <time>2018-06-10T06:39:37.069Z</time>
      </trkpt>
      <trkpt lat="38.82450583" lon="0.01349683">
        <ele>42.0</ele>
        <time>2018-06-10T06:39:38.069Z</time>
      </trkpt>
      <trkpt lat="38.82456633" lon="0.01342617">
        <ele>42.0</ele>
        <time>2018-06-10T06:39:39.069Z</time>
      </trkpt>
      <trkpt lat="38.8246255" lon="0.01335417">
        <ele>42.0</ele>
        <time>2018-06-10T06:39:40.069Z</time>
      </trkpt>
      <trkpt lat="38.82468317" lon="0.013281">
        <ele>42.0</ele>
        <time>2018-06-10T06:39:41.069Z</time>
      </trkpt>
      <trkpt lat="38.82473967" lon="0.01320617">
        <ele>42.0</ele>
        <time>2018-06-10T06:39:42.069Z</time>
      </trkpt>
      <trkpt lat="38.8247945" lon="0.01313">
        <ele>42.0</ele>
        <time>2018-06-10T06:39:43.069Z</time>
      </trkpt>
      <trkpt lat="38.82484783" lon="0.01305183">
        <ele>42.0</ele>
        <time>2018-06-10T06:39:44.069Z</time>
      </trkpt>
      <trkpt lat="38.82490017" lon="0.01297217">
        <ele>42.0</ele>
        <time>2018-06-10T06:39:45.069Z</time>
      </trkpt>
      <trkpt lat="38.824952" lon="0.01289083">
        <ele>42.0</ele>
        <time>2018-06-10T06:39:46.069Z</time>
      </trkpt>
      <trkpt lat="38.82500233" lon="0.012809">
        <ele>42.0</ele>
        <time>2018-06-10T06:39:47.069Z</time>
      </trkpt>
      <trkpt lat="38.825051" lon="0.01272633">
        <ele>42.0</ele>
        <time>2018-06-10T06:39:48.069Z</time>
      </trkpt>
      <trkpt lat="38.82509817" lon="0.0126425">
        <ele>42.0</ele>
        <time>2018-06-10T06:39:49.069Z</time>
      </trkpt>
      <trkpt lat="38.8251445" lon="0.01255683">
        <ele>42.0</ele>
        <time>2018-06-10T06:39:50.069Z</time>
      </trkpt>
      <trkpt lat="38.82518967" lon="0.01246967">
        <ele>42.0</ele>
        <time>2018-06-10T06:39:51.069Z</time>
      </trkpt>
      <trkpt lat="38.825234" lon="0.01238083">
        <ele>42.0</ele>
        <time>2018-06-10T06:39:52.069Z</time>
      </trkpt>
      <trkpt lat="38.825277" lon="0.01229033">
        <ele>43.0</ele>
        <time>2018-06-10T06:39:53.069Z</time>
      </trkpt>
      <trkpt lat="38.825319" lon="0.01219783">
        <ele>43.0</ele>
        <time>2018-06-10T06:39:54.069Z</time>
      </trkpt>
      <trkpt lat="38.82535983" lon="0.012104">
        <ele>43.0</ele>
        <time>2018-06-10T06:39:55.069Z</time>
      </trkpt>
      <trkpt lat="38.82539983" lon="0.01200967">
        <ele>43.0</ele>
        <time>2018-06-10T06:39:56.069Z</time>
      </trkpt>
      <trkpt lat="38.825438" lon="0.01191417">
        <ele>43.0</ele>
        <time>2018-06-10T06:39:57.069Z</time>
      </trkpt>
      <trkpt lat="38.8254745" lon="0.011818">
        <ele>42.0</ele>
        <time>2018-06-10T06:39:58.069Z</time>
      </trkpt>
      <trkpt lat="38.82550917" lon="0.011721">
        <ele>43.0</ele>
        <time>2018-06-10T06:39:59.069Z</time>
      </trkpt>
      <trkpt lat="38.8255425" lon="0.01162367">
        <ele>43.0</ele>
        <time>2018-06-10T06:40:00.069Z</time>
      </trkpt>
      <trkpt lat="38.82557433" lon="0.011526">
        <ele>42.0</ele>
        <time>2018-06-10T06:40:01.069Z</time>
      </trkpt>
      <trkpt lat="38.82560533" lon="0.01142783">
        <ele>42.0</ele>
        <time>2018-06-10T06:40:02.069Z</time>
      </trkpt>
      <trkpt lat="38.8256355" lon="0.01132933">
        <ele>42.0</ele>
        <time>2018-06-10T06:40:03.069Z</time>
      </trkpt>
      <trkpt lat="38.82566567" lon="0.01123017">
        <ele>42.0</ele>
        <time>2018-06-10T06:40:04.069Z</time>
      </trkpt>
      <trkpt lat="38.82569567" lon="0.01112967">
        <ele>42.0</ele>
        <time>2018-06-10T06:40:05.069Z</time>
      </trkpt>
      <trkpt lat="38.82572583" lon="0.01102833">
        <ele>42.0</ele>
        <time>2018-06-10T06:40:06.069Z</time>
      </trkpt>
      <trkpt lat="38.82575567" lon="0.01092667">
        <ele>42.0</ele>
        <time>2018-06-10T06:40:07.069Z</time>
      </trkpt>
      <trkpt lat="38.82578583" lon="0.01082533">
        <ele>42.0</ele>
        <time>2018-06-10T06:40:08.069Z</time>
      </trkpt>
      <trkpt lat="38.82581617" lon="0.01072383">
        <ele>42.0</ele>
        <time>2018-06-10T06:40:09.069Z</time>
      </trkpt>
      <trkpt lat="38.82584717" lon="0.010622">
        <ele>42.0</ele>
        <time>2018-06-10T06:40:10.069Z</time>
      </trkpt>
      <trkpt lat="38.8258785" lon="0.01051983">
        <ele>42.0</ele>
        <time>2018-06-10T06:40:11.069Z</time>
      </trkpt>
      <trkpt lat="38.82591083" lon="0.010418">
        <ele>42.0</ele>
        <time>2018-06-10T06:40:12.069Z</time>
      </trkpt>
      <trkpt lat="38.825945" lon="0.01031717">
        <ele>42.0</ele>
        <time>2018-06-10T06:40:13.069Z</time>
      </trkpt>
      <trkpt lat="38.8259815" lon="0.010217">
        <ele>42.0</ele>
        <time>2018-06-10T06:40:14.069Z</time>
      </trkpt>
      <trkpt lat="38.82602017" lon="0.01011733">
        <ele>42.0</ele>
        <time>2018-06-10T06:40:15.069Z</time>
      </trkpt>
      <trkpt lat="38.82606083" lon="0.0100175">
        <ele>42.0</ele>
        <time>2018-06-10T06:40:16.069Z</time>
      </trkpt>
      <trkpt lat="38.826103" lon="0.00991733">
        <ele>42.0</ele>
        <time>2018-06-10T06:40:17.069Z</time>
      </trkpt>
      <trkpt lat="38.82614617" lon="0.00981583">
        <ele>42.0</ele>
        <time>2018-06-10T06:40:18.069Z</time>
      </trkpt>
      <trkpt lat="38.82618933" lon="0.009713">
        <ele>41.0</ele>
        <time>2018-06-10T06:40:19.069Z</time>
      </trkpt>
      <trkpt lat="38.82623267" lon="0.00960933">
        <ele>41.0</ele>
        <time>2018-06-10T06:40:20.069Z</time>
      </trkpt>
      <trkpt lat="38.82627683" lon="0.009506">
        <ele>41.0</ele>
        <time>2018-06-10T06:40:21.069Z</time>
      </trkpt>
      <trkpt lat="38.82632183" lon="0.009404">
        <ele>41.0</ele>
        <time>2018-06-10T06:40:22.069Z</time>
      </trkpt>
      <trkpt lat="38.8263675" lon="0.0093035">
        <ele>41.0</ele>
        <time>2018-06-10T06:40:23.069Z</time>
      </trkpt>
      <trkpt lat="38.826413" lon="0.009204">
        <ele>41.0</ele>
        <time>2018-06-10T06:40:24.069Z</time>
      </trkpt>
      <trkpt lat="38.82645883" lon="0.0091055">
        <ele>41.0</ele>
        <time>2018-06-10T06:40:25.069Z</time>
      </trkpt>
      <trkpt lat="38.82650533" lon="0.0090075">
        <ele>41.0</ele>
        <time>2018-06-10T06:40:26.069Z</time>
      </trkpt>
      <trkpt lat="38.826553" lon="0.00891017">
        <ele>41.0</ele>
        <time>2018-06-10T06:40:27.069Z</time>
      </trkpt>
      <trkpt lat="38.826602" lon="0.008814">
        <ele>41.0</ele>
        <time>2018-06-10T06:40:28.069Z</time>
      </trkpt>
      <trkpt lat="38.82665217" lon="0.0087185">
        <ele>41.0</ele>
        <time>2018-06-10T06:40:29.069Z</time>
      </trkpt>
      <trkpt lat="38.82670283" lon="0.008624">
        <ele>41.0</ele>
        <time>2018-06-10T06:40:30.069Z</time>
      </trkpt>
      <trkpt lat="38.8267545" lon="0.00853033">
        <ele>41.0</ele>
        <time>2018-06-10T06:40:31.069Z</time>
      </trkpt>
      <trkpt lat="38.82680733" lon="0.0084385">
        <ele>41.0</ele>
        <time>2018-06-10T06:40:32.069Z</time>
      </trkpt>
      <trkpt lat="38.82686167" lon="0.0083485">
        <ele>41.0</ele>
        <time>2018-06-10T06:40:33.069Z</time>
      </trkpt>
      <trkpt lat="38.82691717" lon="0.00825983">
        <ele>41.0</ele>
        <time>2018-06-10T06:40:34.069Z</time>
      </trkpt>
      <trkpt lat="38.82697333" lon="0.00817167">
        <ele>41.0</ele>
        <time>2018-06-10T06:40:35.069Z</time>
      </trkpt>
      <trkpt lat="38.82703017" lon="0.0080835">
        <ele>41.0</ele>
        <time>2018-06-10T06:40:36.069Z</time>
      </trkpt>
      <trkpt lat="38.827088" lon="0.007996">
        <ele>41.0</ele>
        <time>2018-06-10T06:40:37.069Z</time>
      </trkpt>
      <trkpt lat="38.8271465" lon="0.0079105">
        <ele>41.0</ele>
        <time>2018-06-10T06:40:38.069Z</time>
      </trkpt>
      <trkpt lat="38.82720517" lon="0.00782867">
        <ele>41.0</ele>
        <time>2018-06-10T06:40:39.069Z</time>
      </trkpt>
      <trkpt lat="38.827263" lon="0.0077505">
        <ele>41.0</ele>
        <time>2018-06-10T06:40:40.069Z</time>
      </trkpt>
      <trkpt lat="38.82731967" lon="0.00767533">
        <ele>41.0</ele>
        <time>2018-06-10T06:40:41.069Z</time>
      </trkpt>
      <trkpt lat="38.82737483" lon="0.00760183">
        <ele>41.0</ele>
        <time>2018-06-10T06:40:42.069Z</time>
      </trkpt>
      <trkpt lat="38.8274295" lon="0.00752917">
        <ele>41.0</ele>
        <time>2018-06-10T06:40:43.069Z</time>
      </trkpt>
      <trkpt lat="38.82748417" lon="0.00745767">
        <ele>41.0</ele>
        <time>2018-06-10T06:40:44.069Z</time>
      </trkpt>
      <trkpt lat="38.82753917" lon="0.00738733">
        <ele>41.0</ele>
        <time>2018-06-10T06:40:45.069Z</time>
      </trkpt>
      <trkpt lat="38.8275945" lon="0.00731833">
        <ele>41.0</ele>
        <time>2018-06-10T06:40:46.069Z</time>
      </trkpt>
      <trkpt lat="38.82764967" lon="0.0072495">
        <ele>41.0</ele>
        <time>2018-06-10T06:40:47.069Z</time>
      </trkpt>
      <trkpt lat="38.827705" lon="0.00718083">
        <ele>41.0</ele>
        <time>2018-06-10T06:40:48.069Z</time>
      </trkpt>
      <trkpt lat="38.8277605" lon="0.007111">
        <ele>41.0</ele>
        <time>2018-06-10T06:40:49.069Z</time>
      </trkpt>
      <trkpt lat="38.8278175" lon="0.00703933">
        <ele>41.0</ele>
        <time>2018-06-10T06:40:50.069Z</time>
      </trkpt>
      <trkpt lat="38.82787617" lon="0.00696583">
        <ele>41.0</ele>
        <time>2018-06-10T06:40:51.069Z</time>
      </trkpt>
      <trkpt lat="38.82793633" lon="0.006891">
        <ele>41.0</ele>
        <time>2018-06-10T06:40:52.069Z</time>
      </trkpt>
      <trkpt lat="38.827997" lon="0.006816">
        <ele>41.0</ele>
        <time>2018-06-10T06:40:53.069Z</time>
      </trkpt>
      <trkpt lat="38.8280585" lon="0.0067415">
        <ele>41.0</ele>
        <time>2018-06-10T06:40:54.069Z</time>
      </trkpt>
      <trkpt lat="38.8281205" lon="0.006667">
        <ele>41.0</ele>
        <time>2018-06-10T06:40:55.069Z</time>
      </trkpt>
      <trkpt lat="38.82818317" lon="0.00659267">
        <ele>41.0</ele>
        <time>2018-06-10T06:40:56.069Z</time>
      </trkpt>
      <trkpt lat="38.82824533" lon="0.006518">
        <ele>41.0</ele>
        <time>2018-06-10T06:40:57.069Z</time>
      </trkpt>
      <trkpt lat="38.82830683" lon="0.00644283">
        <ele>41.0</ele>
        <time>2018-06-10T06:40:58.069Z</time>
      </trkpt>
      <trkpt lat="38.82836783" lon="0.00636767">
        <ele>41.0</ele>
        <time>2018-06-10T06:40:59.069Z</time>
      </trkpt>
      <trkpt lat="38.82842867" lon="0.00629283">
        <ele>41.0</ele>
        <time>2018-06-10T06:41:00.069Z</time>
      </trkpt>
      <trkpt lat="38.8284885" lon="0.00622067">
        <ele>41.0</ele>
        <time>2018-06-10T06:41:01.069Z</time>
      </trkpt>
      <trkpt lat="38.8285505" lon="0.00614883">
        <ele>41.0</ele>
        <time>2018-06-10T06:41:02.069Z</time>
      </trkpt>
      <trkpt lat="38.82861283" lon="0.00607633">
        <ele>41.0</ele>
        <time>2018-06-10T06:41:03.069Z</time>
      </trkpt>
      <trkpt lat="38.82867567" lon="0.0060025">
        <ele>41.0</ele>
        <time>2018-06-10T06:41:04.069Z</time>
      </trkpt>
      <trkpt lat="38.82873633" lon="0.00592567">
        <ele>41.0</ele>
        <time>2018-06-10T06:41:05.069Z</time>
      </trkpt>
      <trkpt lat="38.82879767" lon="0.00584883">
        <ele>41.0</ele>
        <time>2018-06-10T06:41:06.069Z</time>
      </trkpt>
      <trkpt lat="38.82885983" lon="0.00576967">
        <ele>41.0</ele>
        <time>2018-06-10T06:41:07.069Z</time>
      </trkpt>
      <trkpt lat="38.828923" lon="0.00569183">
        <ele>41.0</ele>
        <time>2018-06-10T06:41:08.069Z</time>
      </trkpt>
      <trkpt lat="38.828986" lon="0.0056135">
        <ele>41.0</ele>
        <time>2018-06-10T06:41:09.069Z</time>
      </trkpt>
      <trkpt lat="38.82905033" lon="0.0055355">
        <ele>41.0</ele>
        <time>2018-06-10T06:41:10.069Z</time>
      </trkpt>
      <trkpt lat="38.8291145" lon="0.00545783">
        <ele>41.0</ele>
        <time>2018-06-10T06:41:11.069Z</time>
      </trkpt>
      <trkpt lat="38.82917817" lon="0.00537983">
        <ele>41.0</ele>
        <time>2018-06-10T06:41:12.069Z</time>
      </trkpt>
      <trkpt lat="38.82924083" lon="0.00530217">
        <ele>41.0</ele>
        <time>2018-06-10T06:41:13.069Z</time>
      </trkpt>
      <trkpt lat="38.8293035" lon="0.00522483">
        <ele>41.0</ele>
        <time>2018-06-10T06:41:14.069Z</time>
      </trkpt>
      <trkpt lat="38.8293665" lon="0.005148">
        <ele>40.0</ele>
        <time>2018-06-10T06:41:15.069Z</time>
      </trkpt>
      <trkpt lat="38.8294305" lon="0.00507183">
        <ele>40.0</ele>
        <time>2018-06-10T06:41:16.069Z</time>
      </trkpt>
      <trkpt lat="38.82949467" lon="0.00499567">
        <ele>40.0</ele>
        <time>2018-06-10T06:41:17.069Z</time>
      </trkpt>
      <trkpt lat="38.82955883" lon="0.00491883">
        <ele>40.0</ele>
        <time>2018-06-10T06:41:18.069Z</time>
      </trkpt>
      <trkpt lat="38.82962233" lon="0.004841">
        <ele>40.0</ele>
        <time>2018-06-10T06:41:19.069Z</time>
      </trkpt>
      <trkpt lat="38.82968583" lon="0.004763">
        <ele>40.0</ele>
        <time>2018-06-10T06:41:20.069Z</time>
      </trkpt>
      <trkpt lat="38.82974933" lon="0.0046855">
        <ele>40.0</ele>
        <time>2018-06-10T06:41:21.069Z</time>
      </trkpt>
      <trkpt lat="38.829813" lon="0.00460883">
        <ele>40.0</ele>
        <time>2018-06-10T06:41:22.069Z</time>
      </trkpt>
      <trkpt lat="38.82987633" lon="0.00453233">
        <ele>40.0</ele>
        <time>2018-06-10T06:41:23.069Z</time>
      </trkpt>
      <trkpt lat="38.8299395" lon="0.00445533">
        <ele>40.0</ele>
        <time>2018-06-10T06:41:24.069Z</time>
      </trkpt>
      <trkpt lat="38.83000233" lon="0.00437833">
        <ele>40.0</ele>
        <time>2018-06-10T06:41:25.069Z</time>
      </trkpt>
      <trkpt lat="38.83006567" lon="0.0043015">
        <ele>40.0</ele>
        <time>2018-06-10T06:41:26.069Z</time>
      </trkpt>
      <trkpt lat="38.83012933" lon="0.004225">
        <ele>40.0</ele>
        <time>2018-06-10T06:41:27.069Z</time>
      </trkpt>
      <trkpt lat="38.83019367" lon="0.00414867">
        <ele>40.0</ele>
        <time>2018-06-10T06:41:28.069Z</time>
      </trkpt>
      <trkpt lat="38.830258" lon="0.00407217">
        <ele>40.0</ele>
        <time>2018-06-10T06:41:29.069Z</time>
      </trkpt>
      <trkpt lat="38.83032267" lon="0.00399583">
        <ele>40.0</ele>
        <time>2018-06-10T06:41:30.069Z</time>
      </trkpt>
      <trkpt lat="38.83038733" lon="0.003919">
        <ele>41.0</ele>
        <time>2018-06-10T06:41:31.069Z</time>
      </trkpt>
      <trkpt lat="38.830452" lon="0.00384283">
        <ele>41.0</ele>
        <time>2018-06-10T06:41:32.069Z</time>
      </trkpt>
      <trkpt lat="38.83051683" lon="0.00376667">
        <ele>41.0</ele>
        <time>2018-06-10T06:41:33.069Z</time>
      </trkpt>
      <trkpt lat="38.8305815" lon="0.003691">
        <ele>41.0</ele>
        <time>2018-06-10T06:41:34.069Z</time>
      </trkpt>
      <trkpt lat="38.830646" lon="0.0036155">
        <ele>41.0</ele>
        <time>2018-06-10T06:41:35.069Z</time>
      </trkpt>
      <trkpt lat="38.83071033" lon="0.0035405">
        <ele>41.0</ele>
        <time>2018-06-10T06:41:36.069Z</time>
      </trkpt>
      <trkpt lat="38.83077483" lon="0.00346617">
        <ele>41.0</ele>
        <time>2018-06-10T06:41:37.069Z</time>
      </trkpt>
      <trkpt lat="38.83083967" lon="0.00339267">
        <ele>41.0</ele>
        <time>2018-06-10T06:41:38.069Z</time>
      </trkpt>
      <trkpt lat="38.83090433" lon="0.0033205">
        <ele>41.0</ele>
        <time>2018-06-10T06:41:39.069Z</time>
      </trkpt>
      <trkpt lat="38.83096867" lon="0.00325017">
        <ele>41.0</ele>
        <time>2018-06-10T06:41:40.069Z</time>
      </trkpt>
      <trkpt lat="38.83103217" lon="0.00318167">
        <ele>41.0</ele>
        <time>2018-06-10T06:41:41.069Z</time>
      </trkpt>
      <trkpt lat="38.83109483" lon="0.00311367">
        <ele>41.0</ele>
        <time>2018-06-10T06:41:42.069Z</time>
      </trkpt>
      <trkpt lat="38.831157" lon="0.00304667">
        <ele>41.0</ele>
        <time>2018-06-10T06:41:43.069Z</time>
      </trkpt>
      <trkpt lat="38.831219" lon="0.0029805">
        <ele>42.0</ele>
        <time>2018-06-10T06:41:44.069Z</time>
      </trkpt>
      <trkpt lat="38.83128183" lon="0.00291617">
        <ele>42.0</ele>
        <time>2018-06-10T06:41:45.069Z</time>
      </trkpt>
      <trkpt lat="38.83134467" lon="0.002852">
        <ele>42.0</ele>
        <time>2018-06-10T06:41:46.069Z</time>
      </trkpt>
      <trkpt lat="38.83140767" lon="0.00278833">
        <ele>42.0</ele>
        <time>2018-06-10T06:41:47.069Z</time>
      </trkpt>
      <trkpt lat="38.83146983" lon="0.00272533">
        <ele>42.0</ele>
        <time>2018-06-10T06:41:48.069Z</time>
      </trkpt>
      <trkpt lat="38.8315325" lon="0.0026635">
        <ele>42.0</ele>
        <time>2018-06-10T06:41:49.069Z</time>
      </trkpt>
      <trkpt lat="38.831596" lon="0.00260267">
        <ele>42.0</ele>
        <time>2018-06-10T06:41:50.069Z</time>
      </trkpt>
      <trkpt lat="38.83166033" lon="0.00254117">
        <ele>42.0</ele>
        <time>2018-06-10T06:41:51.069Z</time>
      </trkpt>
      <trkpt lat="38.83172583" lon="0.00247983">
        <ele>42.0</ele>
        <time>2018-06-10T06:41:52.069Z</time>
      </trkpt>
      <trkpt lat="38.83179267" lon="0.00241833">
        <ele>42.0</ele>
        <time>2018-06-10T06:41:53.069Z</time>
      </trkpt>
      <trkpt lat="38.83186117" lon="0.00235717">
        <ele>42.0</ele>
        <time>2018-06-10T06:41:54.069Z</time>
      </trkpt>
      <trkpt lat="38.83193033" lon="0.00229567">
        <ele>42.0</ele>
        <time>2018-06-10T06:41:55.069Z</time>
      </trkpt>
      <trkpt lat="38.832" lon="0.00223383">
        <ele>42.0</ele>
        <time>2018-06-10T06:41:56.069Z</time>
      </trkpt>
      <trkpt lat="38.8320705" lon="0.002173">
        <ele>42.0</ele>
        <time>2018-06-10T06:41:57.069Z</time>
      </trkpt>
      <trkpt lat="38.832142" lon="0.002113">
        <ele>42.0</ele>
        <time>2018-06-10T06:41:58.069Z</time>
      </trkpt>
      <trkpt lat="38.83221467" lon="0.00205367">
        <ele>42.0</ele>
        <time>2018-06-10T06:41:59.069Z</time>
      </trkpt>
      <trkpt lat="38.83228917" lon="0.00199367">
        <ele>42.0</ele>
        <time>2018-06-10T06:42:00.069Z</time>
      </trkpt>
      <trkpt lat="38.83236667" lon="0.00193217">
        <ele>42.0</ele>
        <time>2018-06-10T06:42:01.069Z</time>
      </trkpt>
      <trkpt lat="38.83244617" lon="0.00187017">
        <ele>42.0</ele>
        <time>2018-06-10T06:42:02.069Z</time>
      </trkpt>
      <trkpt lat="38.83252683" lon="0.00180917">
        <ele>42.0</ele>
        <time>2018-06-10T06:42:03.069Z</time>
      </trkpt>
      <trkpt lat="38.83260733" lon="0.00175033">
        <ele>42.0</ele>
        <time>2018-06-10T06:42:04.069Z</time>
      </trkpt>
      <trkpt lat="38.83268817" lon="0.001693">
        <ele>42.0</ele>
        <time>2018-06-10T06:42:05.069Z</time>
      </trkpt>
      <trkpt lat="38.83276933" lon="0.00163733">
        <ele>42.0</ele>
        <time>2018-06-10T06:42:06.069Z</time>
      </trkpt>
      <trkpt lat="38.83285033" lon="0.00158333">
        <ele>42.0</ele>
        <time>2018-06-10T06:42:07.069Z</time>
      </trkpt>
      <trkpt lat="38.83293067" lon="0.001532">
        <ele>42.0</ele>
        <time>2018-06-10T06:42:08.069Z</time>
      </trkpt>
      <trkpt lat="38.83300967" lon="0.00148233">
        <ele>41.0</ele>
        <time>2018-06-10T06:42:09.069Z</time>
      </trkpt>
      <trkpt lat="38.83308767" lon="0.00143317">
        <ele>41.0</ele>
        <time>2018-06-10T06:42:10.069Z</time>
      </trkpt>
      <trkpt lat="38.8331665" lon="0.00138433">
        <ele>41.0</ele>
        <time>2018-06-10T06:42:11.069Z</time>
      </trkpt>
      <trkpt lat="38.833247" lon="0.001335">
        <ele>41.0</ele>
        <time>2018-06-10T06:42:12.069Z</time>
      </trkpt>
      <trkpt lat="38.83332983" lon="0.00128517">
        <ele>41.0</ele>
        <time>2018-06-10T06:42:13.069Z</time>
      </trkpt>
      <trkpt lat="38.83341483" lon="0.00123483">
        <ele>41.0</ele>
        <time>2018-06-10T06:42:14.069Z</time>
      </trkpt>
      <trkpt lat="38.83350133" lon="0.001186">
        <ele>41.0</ele>
        <time>2018-06-10T06:42:15.069Z</time>
      </trkpt>
      <trkpt lat="38.83358867" lon="0.0011395">
        <ele>41.0</ele>
        <time>2018-06-10T06:42:16.069Z</time>
      </trkpt>
      <trkpt lat="38.83367617" lon="0.00109433">
        <ele>41.0</ele>
        <time>2018-06-10T06:42:17.069Z</time>
      </trkpt>
      <trkpt lat="38.8337635" lon="0.00105017">
        <ele>40.0</ele>
        <time>2018-06-10T06:42:18.069Z</time>
      </trkpt>
      <trkpt lat="38.8338515" lon="0.00100617">
        <ele>40.0</ele>
        <time>2018-06-10T06:42:19.069Z</time>
      </trkpt>
      <trkpt lat="38.83394" lon="0.00096317">
        <ele>40.0</ele>
        <time>2018-06-10T06:42:20.069Z</time>
      </trkpt>
      <trkpt lat="38.8340295" lon="0.00092183">
        <ele>40.0</ele>
        <time>2018-06-10T06:42:21.069Z</time>
      </trkpt>
      <trkpt lat="38.8341195" lon="0.000882">
        <ele>40.0</ele>
        <time>2018-06-10T06:42:22.069Z</time>
      </trkpt>
      <trkpt lat="38.8342095" lon="0.00084333">
        <ele>40.0</ele>
        <time>2018-06-10T06:42:23.069Z</time>
      </trkpt>
      <trkpt lat="38.83429967" lon="0.00080483">
        <ele>39.0</ele>
        <time>2018-06-10T06:42:24.069Z</time>
      </trkpt>
      <trkpt lat="38.83439017" lon="0.0007675">
        <ele>39.0</ele>
        <time>2018-06-10T06:42:25.069Z</time>
      </trkpt>
      <trkpt lat="38.83448133" lon="0.000731">
        <ele>39.0</ele>
        <time>2018-06-10T06:42:26.069Z</time>
      </trkpt>
      <trkpt lat="38.834573" lon="0.000695">
        <ele>39.0</ele>
        <time>2018-06-10T06:42:27.069Z</time>
      </trkpt>
      <trkpt lat="38.8346655" lon="0.00065933">
        <ele>39.0</ele>
        <time>2018-06-10T06:42:28.069Z</time>
      </trkpt>
      <trkpt lat="38.83475883" lon="0.000624">
        <ele>38.0</ele>
        <time>2018-06-10T06:42:29.069Z</time>
      </trkpt>
      <trkpt lat="38.83485317" lon="0.00058983">
        <ele>38.0</ele>
        <time>2018-06-10T06:42:30.069Z</time>
      </trkpt>
      <trkpt lat="38.83494783" lon="0.0005565">
        <ele>38.0</ele>
        <time>2018-06-10T06:42:31.069Z</time>
      </trkpt>
      <trkpt lat="38.83504267" lon="0.00052417">
        <ele>38.0</ele>
        <time>2018-06-10T06:42:32.069Z</time>
      </trkpt>
      <trkpt lat="38.835137" lon="0.00049283">
        <ele>38.0</ele>
        <time>2018-06-10T06:42:33.069Z</time>
      </trkpt>
      <trkpt lat="38.83523133" lon="0.000463">
        <ele>38.0</ele>
        <time>2018-06-10T06:42:34.069Z</time>
      </trkpt>
      <trkpt lat="38.8353245" lon="0.00043417">
        <ele>38.0</ele>
        <time>2018-06-10T06:42:35.069Z</time>
      </trkpt>
      <trkpt lat="38.83541617" lon="0.00040533">
        <ele>37.0</ele>
        <time>2018-06-10T06:42:36.069Z</time>
      </trkpt>
      <trkpt lat="38.83550633" lon="0.00037583">
        <ele>37.0</ele>
        <time>2018-06-10T06:42:37.069Z</time>
      </trkpt>
      <trkpt lat="38.83559633" lon="0.0003465">
        <ele>37.0</ele>
        <time>2018-06-10T06:42:38.069Z</time>
      </trkpt>
      <trkpt lat="38.83568717" lon="0.00031733">
        <ele>37.0</ele>
        <time>2018-06-10T06:42:39.069Z</time>
      </trkpt>
      <trkpt lat="38.8357785" lon="0.00028883">
        <ele>37.0</ele>
        <time>2018-06-10T06:42:40.069Z</time>
      </trkpt>
      <trkpt lat="38.8358705" lon="0.00026017">
        <ele>37.0</ele>
        <time>2018-06-10T06:42:41.069Z</time>
      </trkpt>
      <trkpt lat="38.83596317" lon="0.0002325">
        <ele>37.0</ele>
        <time>2018-06-10T06:42:42.069Z</time>
      </trkpt>
      <trkpt lat="38.836056" lon="0.00020433">
        <ele>36.0</ele>
        <time>2018-06-10T06:42:43.069Z</time>
      </trkpt>
      <trkpt lat="38.83614883" lon="0.0001765">
        <ele>36.0</ele>
        <time>2018-06-10T06:42:44.069Z</time>
      </trkpt>
      <trkpt lat="38.83624117" lon="0.00014817">
        <ele>36.0</ele>
        <time>2018-06-10T06:42:45.069Z</time>
      </trkpt>
      <trkpt lat="38.836333" lon="0.00012017">
        <ele>36.0</ele>
        <time>2018-06-10T06:42:46.069Z</time>
      </trkpt>
      <trkpt lat="38.83642483" lon="0.000092">
        <ele>36.0</ele>
        <time>2018-06-10T06:42:47.069Z</time>
      </trkpt>
      <trkpt lat="38.83651767" lon="0.00006283">
        <ele>36.0</ele>
        <time>2018-06-10T06:42:48.069Z</time>
      </trkpt>
      <trkpt lat="38.8366115" lon="0.00003333">
        <ele>36.0</ele>
        <time>2018-06-10T06:42:49.069Z</time>
      </trkpt>
      <trkpt lat="38.83670567" lon="0.00000383">
        <ele>36.0</ele>
        <time>2018-06-10T06:42:50.069Z</time>
      </trkpt>
      <trkpt lat="38.8367995" lon="-0.0000245">
        <ele>36.0</ele>
        <time>2018-06-10T06:42:51.069Z</time>
      </trkpt>
      <trkpt lat="38.83689317" lon="-0.00005267">
        <ele>36.0</ele>
        <time>2018-06-10T06:42:52.069Z</time>
      </trkpt>
      <trkpt lat="38.83698667" lon="-0.00008083">
        <ele>36.0</ele>
        <time>2018-06-10T06:42:53.069Z</time>
      </trkpt>
      <trkpt lat="38.8370805" lon="-0.000109">
        <ele>36.0</ele>
        <time>2018-06-10T06:42:54.069Z</time>
      </trkpt>
      <trkpt lat="38.83717467" lon="-0.000137">
        <ele>35.0</ele>
        <time>2018-06-10T06:42:55.069Z</time>
      </trkpt>
      <trkpt lat="38.83726983" lon="-0.00016467">
        <ele>35.0</ele>
        <time>2018-06-10T06:42:56.069Z</time>
      </trkpt>
      <trkpt lat="38.837365" lon="-0.00019217">
        <ele>35.0</ele>
        <time>2018-06-10T06:42:57.069Z</time>
      </trkpt>
      <trkpt lat="38.83746033" lon="-0.00021967">
        <ele>35.0</ele>
        <time>2018-06-10T06:42:58.069Z</time>
      </trkpt>
      <trkpt lat="38.83755483" lon="-0.00024717">
        <ele>35.0</ele>
        <time>2018-06-10T06:42:59.069Z</time>
      </trkpt>
      <trkpt lat="38.83764867" lon="-0.00027483">
        <ele>35.0</ele>
        <time>2018-06-10T06:43:00.069Z</time>
      </trkpt>
      <trkpt lat="38.83774233" lon="-0.000303">
        <ele>35.0</ele>
        <time>2018-06-10T06:43:01.069Z</time>
      </trkpt>
      <trkpt lat="38.83783583" lon="-0.0003315">
        <ele>35.0</ele>
        <time>2018-06-10T06:43:02.069Z</time>
      </trkpt>
      <trkpt lat="38.83792883" lon="-0.00036017">
        <ele>35.0</ele>
        <time>2018-06-10T06:43:03.069Z</time>
      </trkpt>
      <trkpt lat="38.8380215" lon="-0.000388">
        <ele>35.0</ele>
        <time>2018-06-10T06:43:04.069Z</time>
      </trkpt>
      <trkpt lat="38.8381135" lon="-0.00041567">
        <ele>35.0</ele>
        <time>2018-06-10T06:43:05.069Z</time>
      </trkpt>
      <trkpt lat="38.83820467" lon="-0.00044267">
        <ele>35.0</ele>
        <time>2018-06-10T06:43:06.069Z</time>
      </trkpt>
      <trkpt lat="38.838295" lon="-0.00046933">
        <ele>35.0</ele>
        <time>2018-06-10T06:43:07.069Z</time>
      </trkpt>
      <trkpt lat="38.838385" lon="-0.000496">
        <ele>35.0</ele>
        <time>2018-06-10T06:43:08.069Z</time>
      </trkpt>
      <trkpt lat="38.838475" lon="-0.0005225">
        <ele>35.0</ele>
        <time>2018-06-10T06:43:09.069Z</time>
      </trkpt>
      <trkpt lat="38.83856467" lon="-0.000549">
        <ele>36.0</ele>
        <time>2018-06-10T06:43:10.069Z</time>
      </trkpt>
      <trkpt lat="38.83865383" lon="-0.00057533">
        <ele>36.0</ele>
        <time>2018-06-10T06:43:11.069Z</time>
      </trkpt>
      <trkpt lat="38.83874217" lon="-0.00060217">
        <ele>36.0</ele>
        <time>2018-06-10T06:43:12.069Z</time>
      </trkpt>
      <trkpt lat="38.83883017" lon="-0.00062917">
        <ele>36.0</ele>
        <time>2018-06-10T06:43:13.069Z</time>
      </trkpt>
      <trkpt lat="38.83891817" lon="-0.0006565">
        <ele>36.0</ele>
        <time>2018-06-10T06:43:14.069Z</time>
      </trkpt>
      <trkpt lat="38.8390065" lon="-0.00068217">
        <ele>36.0</ele>
        <time>2018-06-10T06:43:15.069Z</time>
      </trkpt>
      <trkpt lat="38.8390945" lon="-0.00070817">
        <ele>36.0</ele>
        <time>2018-06-10T06:43:16.069Z</time>
      </trkpt>
      <trkpt lat="38.83918267" lon="-0.0007335">
        <ele>37.0</ele>
        <time>2018-06-10T06:43:17.069Z</time>
      </trkpt>
      <trkpt lat="38.83927067" lon="-0.00075917">
        <ele>37.0</ele>
        <time>2018-06-10T06:43:18.069Z</time>
      </trkpt>
      <trkpt lat="38.83935883" lon="-0.000785">
        <ele>37.0</ele>
        <time>2018-06-10T06:43:19.069Z</time>
      </trkpt>
      <trkpt lat="38.83944717" lon="-0.00081133">
        <ele>37.0</ele>
        <time>2018-06-10T06:43:20.069Z</time>
      </trkpt>
      <trkpt lat="38.83953617" lon="-0.000839">
        <ele>38.0</ele>
        <time>2018-06-10T06:43:21.069Z</time>
      </trkpt>
      <trkpt lat="38.83962567" lon="-0.00086683">
        <ele>38.0</ele>
        <time>2018-06-10T06:43:22.069Z</time>
      </trkpt>
      <trkpt lat="38.83971517" lon="-0.00089433">
        <ele>38.0</ele>
        <time>2018-06-10T06:43:23.069Z</time>
      </trkpt>
      <trkpt lat="38.8398035" lon="-0.00092017">
        <ele>39.0</ele>
        <time>2018-06-10T06:43:24.069Z</time>
      </trkpt>
      <trkpt lat="38.8398905" lon="-0.00094517">
        <ele>39.0</ele>
        <time>2018-06-10T06:43:25.069Z</time>
      </trkpt>
      <trkpt lat="38.8399765" lon="-0.00097033">
        <ele>39.0</ele>
        <time>2018-06-10T06:43:26.069Z</time>
      </trkpt>
      <trkpt lat="38.84006217" lon="-0.00099667">
        <ele>39.0</ele>
        <time>2018-06-10T06:43:27.069Z</time>
      </trkpt>
      <trkpt lat="38.84014783" lon="-0.00102333">
        <ele>39.0</ele>
        <time>2018-06-10T06:43:28.069Z</time>
      </trkpt>
      <trkpt lat="38.8402345" lon="-0.001049">
        <ele>39.0</ele>
        <time>2018-06-10T06:43:29.069Z</time>
      </trkpt>
      <trkpt lat="38.84032117" lon="-0.00107467">
        <ele>39.0</ele>
        <time>2018-06-10T06:43:30.069Z</time>
      </trkpt>
      <trkpt lat="38.840408" lon="-0.0011">
        <ele>39.0</ele>
        <time>2018-06-10T06:43:31.069Z</time>
      </trkpt>
      <trkpt lat="38.84049433" lon="-0.0011265">
        <ele>40.0</ele>
        <time>2018-06-10T06:43:32.069Z</time>
      </trkpt>
      <trkpt lat="38.84058117" lon="-0.00115417">
        <ele>40.0</ele>
        <time>2018-06-10T06:43:33.069Z</time>
      </trkpt>
      <trkpt lat="38.840669" lon="-0.00118183">
        <ele>40.0</ele>
        <time>2018-06-10T06:43:34.069Z</time>
      </trkpt>
      <trkpt lat="38.840758" lon="-0.0012085">
        <ele>40.0</ele>
        <time>2018-06-10T06:43:35.069Z</time>
      </trkpt>
      <trkpt lat="38.84084767" lon="-0.00123433">
        <ele>40.0</ele>
        <time>2018-06-10T06:43:36.069Z</time>
      </trkpt>
      <trkpt lat="38.84093767" lon="-0.00125967">
        <ele>40.0</ele>
        <time>2018-06-10T06:43:37.069Z</time>
      </trkpt>
      <trkpt lat="38.84102767" lon="-0.0012865">
        <ele>40.0</ele>
        <time>2018-06-10T06:43:38.069Z</time>
      </trkpt>
      <trkpt lat="38.84111717" lon="-0.0013145">
        <ele>40.0</ele>
        <time>2018-06-10T06:43:39.069Z</time>
      </trkpt>
      <trkpt lat="38.84120683" lon="-0.001343">
        <ele>40.0</ele>
        <time>2018-06-10T06:43:40.069Z</time>
      </trkpt>
      <trkpt lat="38.84129683" lon="-0.00137117">
        <ele>40.0</ele>
        <time>2018-06-10T06:43:41.069Z</time>
      </trkpt>
      <trkpt lat="38.84138733" lon="-0.001399">
        <ele>40.0</ele>
        <time>2018-06-10T06:43:42.069Z</time>
      </trkpt>
      <trkpt lat="38.841478" lon="-0.00142667">
        <ele>40.0</ele>
        <time>2018-06-10T06:43:43.069Z</time>
      </trkpt>
      <trkpt lat="38.84156917" lon="-0.0014535">
        <ele>40.0</ele>
        <time>2018-06-10T06:43:44.069Z</time>
      </trkpt>
      <trkpt lat="38.8416615" lon="-0.00147833">
        <ele>40.0</ele>
        <time>2018-06-10T06:43:45.069Z</time>
      </trkpt>
      <trkpt lat="38.84175467" lon="-0.001503">
        <ele>40.0</ele>
        <time>2018-06-10T06:43:46.069Z</time>
      </trkpt>
      <trkpt lat="38.84184917" lon="-0.00152867">
        <ele>40.0</ele>
        <time>2018-06-10T06:43:47.069Z</time>
      </trkpt>
      <trkpt lat="38.841945" lon="-0.001556">
        <ele>40.0</ele>
        <time>2018-06-10T06:43:48.069Z</time>
      </trkpt>
      <trkpt lat="38.842042" lon="-0.001585">
        <ele>40.0</ele>
        <time>2018-06-10T06:43:49.069Z</time>
      </trkpt>
      <trkpt lat="38.84213933" lon="-0.0016145">
        <ele>40.0</ele>
        <time>2018-06-10T06:43:50.069Z</time>
      </trkpt>
      <trkpt lat="38.84223583" lon="-0.00164417">
        <ele>40.0</ele>
        <time>2018-06-10T06:43:51.069Z</time>
      </trkpt>
      <trkpt lat="38.8423315" lon="-0.001672">
        <ele>40.0</ele>
        <time>2018-06-10T06:43:52.069Z</time>
      </trkpt>
      <trkpt lat="38.842426" lon="-0.00169883">
        <ele>40.0</ele>
        <time>2018-06-10T06:43:53.069Z</time>
      </trkpt>
      <trkpt lat="38.84251917" lon="-0.00172567">
        <ele>40.0</ele>
        <time>2018-06-10T06:43:54.069Z</time>
      </trkpt>
      <trkpt lat="38.8426105" lon="-0.00175367">
        <ele>40.0</ele>
        <time>2018-06-10T06:43:55.069Z</time>
      </trkpt>
      <trkpt lat="38.84270083" lon="-0.0017825">
        <ele>39.0</ele>
        <time>2018-06-10T06:43:56.069Z</time>
      </trkpt>
      <trkpt lat="38.84279083" lon="-0.00181217">
        <ele>39.0</ele>
        <time>2018-06-10T06:43:57.069Z</time>
      </trkpt>
      <trkpt lat="38.8428815" lon="-0.00184167">
        <ele>39.0</ele>
        <time>2018-06-10T06:43:58.069Z</time>
      </trkpt>
      <trkpt lat="38.8429725" lon="-0.00187067">
        <ele>39.0</ele>
        <time>2018-06-10T06:43:59.069Z</time>
      </trkpt>
      <trkpt lat="38.84306383" lon="-0.0018985">
        <ele>39.0</ele>
        <time>2018-06-10T06:44:00.069Z</time>
      </trkpt>
      <trkpt lat="38.843155" lon="-0.0019255">
        <ele>39.0</ele>
        <time>2018-06-10T06:44:01.069Z</time>
      </trkpt>
      <trkpt lat="38.84324583" lon="-0.00195267">
        <ele>39.0</ele>
        <time>2018-06-10T06:44:02.069Z</time>
      </trkpt>
      <trkpt lat="38.84333667" lon="-0.00197983">
        <ele>39.0</ele>
        <time>2018-06-10T06:44:03.069Z</time>
      </trkpt>
      <trkpt lat="38.8434275" lon="-0.00200767">
        <ele>39.0</ele>
        <time>2018-06-10T06:44:04.069Z</time>
      </trkpt>
      <trkpt lat="38.84351833" lon="-0.00203533">
        <ele>39.0</ele>
        <time>2018-06-10T06:44:05.069Z</time>
      </trkpt>
      <trkpt lat="38.84360917" lon="-0.00206217">
        <ele>39.0</ele>
        <time>2018-06-10T06:44:06.069Z</time>
      </trkpt>
      <trkpt lat="38.84369983" lon="-0.00208883">
        <ele>39.0</ele>
        <time>2018-06-10T06:44:07.069Z</time>
      </trkpt>
      <trkpt lat="38.84379033" lon="-0.0021155">
        <ele>39.0</ele>
        <time>2018-06-10T06:44:08.069Z</time>
      </trkpt>
      <trkpt lat="38.84388067" lon="-0.002143">
        <ele>39.0</ele>
        <time>2018-06-10T06:44:09.069Z</time>
      </trkpt>
      <trkpt lat="38.843971" lon="-0.002171">
        <ele>39.0</ele>
        <time>2018-06-10T06:44:10.069Z</time>
      </trkpt>
      <trkpt lat="38.84406167" lon="-0.00219917">
        <ele>39.0</ele>
        <time>2018-06-10T06:44:11.069Z</time>
      </trkpt>
      <trkpt lat="38.84415283" lon="-0.00222733">
        <ele>39.0</ele>
        <time>2018-06-10T06:44:12.069Z</time>
      </trkpt>
      <trkpt lat="38.8442445" lon="-0.00225533">
        <ele>38.0</ele>
        <time>2018-06-10T06:44:13.069Z</time>
      </trkpt>
      <trkpt lat="38.84433633" lon="-0.00228333">
        <ele>38.0</ele>
        <time>2018-06-10T06:44:14.069Z</time>
      </trkpt>
      <trkpt lat="38.84442867" lon="-0.00231083">
        <ele>38.0</ele>
        <time>2018-06-10T06:44:15.069Z</time>
      </trkpt>
      <trkpt lat="38.84452133" lon="-0.00233867">
        <ele>38.0</ele>
        <time>2018-06-10T06:44:16.069Z</time>
      </trkpt>
      <trkpt lat="38.84461467" lon="-0.0023665">
        <ele>38.0</ele>
        <time>2018-06-10T06:44:17.069Z</time>
      </trkpt>
      <trkpt lat="38.844708" lon="-0.00239517">
        <ele>37.0</ele>
        <time>2018-06-10T06:44:18.069Z</time>
      </trkpt>
      <trkpt lat="38.844802" lon="-0.00242283">
        <ele>37.0</ele>
        <time>2018-06-10T06:44:19.069Z</time>
      </trkpt>
      <trkpt lat="38.84489683" lon="-0.00244967">
        <ele>37.0</ele>
        <time>2018-06-10T06:44:20.069Z</time>
      </trkpt>
      <trkpt lat="38.84499183" lon="-0.00247633">
        <ele>36.0</ele>
        <time>2018-06-10T06:44:21.069Z</time>
      </trkpt>
      <trkpt lat="38.8450865" lon="-0.0025045">
        <ele>36.0</ele>
        <time>2018-06-10T06:44:22.069Z</time>
      </trkpt>
      <trkpt lat="38.8451805" lon="-0.00253317">
        <ele>36.0</ele>
        <time>2018-06-10T06:44:23.069Z</time>
      </trkpt>
      <trkpt lat="38.84527383" lon="-0.00256167">
        <ele>36.0</ele>
        <time>2018-06-10T06:44:24.069Z</time>
      </trkpt>
      <trkpt lat="38.8453665" lon="-0.0025905">
        <ele>35.0</ele>
        <time>2018-06-10T06:44:25.069Z</time>
      </trkpt>
      <trkpt lat="38.84545867" lon="-0.00261917">
        <ele>35.0</ele>
        <time>2018-06-10T06:44:26.069Z</time>
      </trkpt>
      <trkpt lat="38.84555033" lon="-0.00264717">
        <ele>35.0</ele>
        <time>2018-06-10T06:44:27.069Z</time>
      </trkpt>
      <trkpt lat="38.84564267" lon="-0.0026735">
        <ele>34.0</ele>
        <time>2018-06-10T06:44:28.069Z</time>
      </trkpt>
      <trkpt lat="38.845735" lon="-0.0027005">
        <ele>34.0</ele>
        <time>2018-06-10T06:44:29.069Z</time>
      </trkpt>
      <trkpt lat="38.84582767" lon="-0.00272883">
        <ele>34.0</ele>
        <time>2018-06-10T06:44:30.069Z</time>
      </trkpt>
      <trkpt lat="38.84591967" lon="-0.002758">
        <ele>34.0</ele>
        <time>2018-06-10T06:44:31.069Z</time>
      </trkpt>
      <trkpt lat="38.84601183" lon="-0.00278717">
        <ele>33.0</ele>
        <time>2018-06-10T06:44:32.069Z</time>
      </trkpt>
      <trkpt lat="38.84610433" lon="-0.00281483">
        <ele>33.0</ele>
        <time>2018-06-10T06:44:33.069Z</time>
      </trkpt>
      <trkpt lat="38.84619767" lon="-0.00284183">
        <ele>33.0</ele>
        <time>2018-06-10T06:44:34.069Z</time>
      </trkpt>
      <trkpt lat="38.8462915" lon="-0.00286833">
        <ele>33.0</ele>
        <time>2018-06-10T06:44:35.069Z</time>
      </trkpt>
      <trkpt lat="38.8463855" lon="-0.00289567">
        <ele>33.0</ele>
        <time>2018-06-10T06:44:36.069Z</time>
      </trkpt>
      <trkpt lat="38.84648" lon="-0.00292333">
        <ele>33.0</ele>
        <time>2018-06-10T06:44:37.069Z</time>
      </trkpt>
      <trkpt lat="38.84657483" lon="-0.00295117">
        <ele>33.0</ele>
        <time>2018-06-10T06:44:38.069Z</time>
      </trkpt>
      <trkpt lat="38.84667" lon="-0.00297917">
        <ele>33.0</ele>
        <time>2018-06-10T06:44:39.069Z</time>
      </trkpt>
      <trkpt lat="38.84676533" lon="-0.003007">
        <ele>33.0</ele>
        <time>2018-06-10T06:44:40.069Z</time>
      </trkpt>
      <trkpt lat="38.84686067" lon="-0.00303517">
        <ele>33.0</ele>
        <time>2018-06-10T06:44:41.069Z</time>
      </trkpt>
      <trkpt lat="38.846956" lon="-0.0030635">
        <ele>32.0</ele>
        <time>2018-06-10T06:44:42.069Z</time>
      </trkpt>
      <trkpt lat="38.84705133" lon="-0.003092">
        <ele>32.0</ele>
        <time>2018-06-10T06:44:43.069Z</time>
      </trkpt>
      <trkpt lat="38.84714633" lon="-0.00312083">
        <ele>32.0</ele>
        <time>2018-06-10T06:44:44.069Z</time>
      </trkpt>
      <trkpt lat="38.84724133" lon="-0.00314917">
        <ele>32.0</ele>
        <time>2018-06-10T06:44:45.069Z</time>
      </trkpt>
      <trkpt lat="38.84733617" lon="-0.00317783">
        <ele>32.0</ele>
        <time>2018-06-10T06:44:46.069Z</time>
      </trkpt>
      <trkpt lat="38.847431" lon="-0.00320633">
        <ele>32.0</ele>
        <time>2018-06-10T06:44:47.069Z</time>
      </trkpt>
      <trkpt lat="38.84752567" lon="-0.00323467">
        <ele>32.0</ele>
        <time>2018-06-10T06:44:48.069Z</time>
      </trkpt>
      <trkpt lat="38.8476205" lon="-0.00326167">
        <ele>32.0</ele>
        <time>2018-06-10T06:44:49.069Z</time>
      </trkpt>
      <trkpt lat="38.8477145" lon="-0.003287">
        <ele>32.0</ele>
        <time>2018-06-10T06:44:50.069Z</time>
      </trkpt>
      <trkpt lat="38.8478075" lon="-0.00331117">
        <ele>32.0</ele>
        <time>2018-06-10T06:44:51.069Z</time>
      </trkpt>
      <trkpt lat="38.84789883" lon="-0.00333583">
        <ele>32.0</ele>
        <time>2018-06-10T06:44:52.069Z</time>
      </trkpt>
      <trkpt lat="38.84798917" lon="-0.00336117">
        <ele>32.0</ele>
        <time>2018-06-10T06:44:53.069Z</time>
      </trkpt>
      <trkpt lat="38.8480785" lon="-0.003387">
        <ele>32.0</ele>
        <time>2018-06-10T06:44:54.069Z</time>
      </trkpt>
      <trkpt lat="38.84816667" lon="-0.00341283">
        <ele>32.0</ele>
        <time>2018-06-10T06:44:55.069Z</time>
      </trkpt>
      <trkpt lat="38.84825433" lon="-0.00343867">
        <ele>32.0</ele>
        <time>2018-06-10T06:44:56.069Z</time>
      </trkpt>
      <trkpt lat="38.84834117" lon="-0.00346483">
        <ele>32.0</ele>
        <time>2018-06-10T06:44:57.069Z</time>
      </trkpt>
      <trkpt lat="38.84842767" lon="-0.0034915">
        <ele>32.0</ele>
        <time>2018-06-10T06:44:58.069Z</time>
      </trkpt>
      <trkpt lat="38.84851333" lon="-0.00351817">
        <ele>32.0</ele>
        <time>2018-06-10T06:44:59.069Z</time>
      </trkpt>
      <trkpt lat="38.84859883" lon="-0.0035445">
        <ele>31.0</ele>
        <time>2018-06-10T06:45:00.069Z</time>
      </trkpt>
      <trkpt lat="38.8486835" lon="-0.00357083">
        <ele>31.0</ele>
        <time>2018-06-10T06:45:01.069Z</time>
      </trkpt>
      <trkpt lat="38.84876783" lon="-0.00359733">
        <ele>31.0</ele>
        <time>2018-06-10T06:45:02.069Z</time>
      </trkpt>
      <trkpt lat="38.84885183" lon="-0.00362417">
        <ele>31.0</ele>
        <time>2018-06-10T06:45:03.069Z</time>
      </trkpt>
      <trkpt lat="38.84893583" lon="-0.0036515">
        <ele>31.0</ele>
        <time>2018-06-10T06:45:04.069Z</time>
      </trkpt>
      <trkpt lat="38.84901983" lon="-0.00367883">
        <ele>31.0</ele>
        <time>2018-06-10T06:45:05.069Z</time>
      </trkpt>
      <trkpt lat="38.849104" lon="-0.00370583">
        <ele>31.0</ele>
        <time>2018-06-10T06:45:06.069Z</time>
      </trkpt>
      <trkpt lat="38.84918883" lon="-0.00373233">
        <ele>31.0</ele>
        <time>2018-06-10T06:45:07.069Z</time>
      </trkpt>
      <trkpt lat="38.84927367" lon="-0.003759">
        <ele>31.0</ele>
        <time>2018-06-10T06:45:08.069Z</time>
      </trkpt>
      <trkpt lat="38.84935883" lon="-0.00378633">
        <ele>31.0</ele>
        <time>2018-06-10T06:45:09.069Z</time>
      </trkpt>
      <trkpt lat="38.8494445" lon="-0.003814">
        <ele>31.0</ele>
        <time>2018-06-10T06:45:10.069Z</time>
      </trkpt>
      <trkpt lat="38.84953067" lon="-0.00384183">
        <ele>30.0</ele>
        <time>2018-06-10T06:45:11.069Z</time>
      </trkpt>
      <trkpt lat="38.8496175" lon="-0.00387">
        <ele>30.0</ele>
        <time>2018-06-10T06:45:12.069Z</time>
      </trkpt>
      <trkpt lat="38.84970517" lon="-0.00389833">
        <ele>30.0</ele>
        <time>2018-06-10T06:45:13.069Z</time>
      </trkpt>
      <trkpt lat="38.84979367" lon="-0.00392717">
        <ele>30.0</ele>
        <time>2018-06-10T06:45:14.069Z</time>
      </trkpt>
      <trkpt lat="38.849883" lon="-0.00395767">
        <ele>30.0</ele>
        <time>2018-06-10T06:45:15.069Z</time>
      </trkpt>
      <trkpt lat="38.849973" lon="-0.003989">
        <ele>30.0</ele>
        <time>2018-06-10T06:45:16.069Z</time>
      </trkpt>
      <trkpt lat="38.85006383" lon="-0.00402067">
        <ele>29.0</ele>
        <time>2018-06-10T06:45:17.069Z</time>
      </trkpt>
      <trkpt lat="38.85015567" lon="-0.00405333">
        <ele>29.0</ele>
        <time>2018-06-10T06:45:18.069Z</time>
      </trkpt>
      <trkpt lat="38.8502485" lon="-0.004087">
        <ele>29.0</ele>
        <time>2018-06-10T06:45:19.069Z</time>
      </trkpt>
      <trkpt lat="38.85034233" lon="-0.00412233">
        <ele>29.0</ele>
        <time>2018-06-10T06:45:20.069Z</time>
      </trkpt>
      <trkpt lat="38.85043717" lon="-0.004158">
        <ele>29.0</ele>
        <time>2018-06-10T06:45:21.069Z</time>
      </trkpt>
      <trkpt lat="38.8505325" lon="-0.004194">
        <ele>28.0</ele>
        <time>2018-06-10T06:45:22.069Z</time>
      </trkpt>
      <trkpt lat="38.85062883" lon="-0.00422983">
        <ele>28.0</ele>
        <time>2018-06-10T06:45:23.069Z</time>
      </trkpt>
      <trkpt lat="38.85072517" lon="-0.00426583">
        <ele>27.0</ele>
        <time>2018-06-10T06:45:24.069Z</time>
      </trkpt>
      <trkpt lat="38.850822" lon="-0.0043025">
        <ele>27.0</ele>
        <time>2018-06-10T06:45:25.069Z</time>
      </trkpt>
      <trkpt lat="38.85091917" lon="-0.00433983">
        <ele>27.0</ele>
        <time>2018-06-10T06:45:26.069Z</time>
      </trkpt>
      <trkpt lat="38.85101717" lon="-0.004378">
        <ele>26.0</ele>
        <time>2018-06-10T06:45:27.069Z</time>
      </trkpt>
      <trkpt lat="38.85111667" lon="-0.004417">
        <ele>26.0</ele>
        <time>2018-06-10T06:45:28.069Z</time>
      </trkpt>
      <trkpt lat="38.85121717" lon="-0.00445767">
        <ele>26.0</ele>
        <time>2018-06-10T06:45:29.069Z</time>
      </trkpt>
      <trkpt lat="38.85131883" lon="-0.0044995">
        <ele>25.0</ele>
        <time>2018-06-10T06:45:30.069Z</time>
      </trkpt>
      <trkpt lat="38.851421" lon="-0.00454333">
        <ele>25.0</ele>
        <time>2018-06-10T06:45:31.069Z</time>
      </trkpt>
      <trkpt lat="38.851524" lon="-0.004588">
        <ele>25.0</ele>
        <time>2018-06-10T06:45:32.069Z</time>
      </trkpt>
      <trkpt lat="38.851627" lon="-0.004634">
        <ele>24.0</ele>
        <time>2018-06-10T06:45:33.069Z</time>
      </trkpt>
      <trkpt lat="38.8517305" lon="-0.004681">
        <ele>24.0</ele>
        <time>2018-06-10T06:45:34.069Z</time>
      </trkpt>
      <trkpt lat="38.85183517" lon="-0.00472767">
        <ele>23.0</ele>
        <time>2018-06-10T06:45:35.069Z</time>
      </trkpt>
      <trkpt lat="38.85194067" lon="-0.004775">
        <ele>23.0</ele>
        <time>2018-06-10T06:45:36.069Z</time>
      </trkpt>
      <trkpt lat="38.852047" lon="-0.00482367">
        <ele>22.0</ele>
        <time>2018-06-10T06:45:37.069Z</time>
      </trkpt>
      <trkpt lat="38.8521545" lon="-0.004874">
        <ele>22.0</ele>
        <time>2018-06-10T06:45:38.069Z</time>
      </trkpt>
      <trkpt lat="38.85226367" lon="-0.00492617">
        <ele>21.0</ele>
        <time>2018-06-10T06:45:39.069Z</time>
      </trkpt>
      <trkpt lat="38.8523755" lon="-0.00497967">
        <ele>21.0</ele>
        <time>2018-06-10T06:45:40.069Z</time>
      </trkpt>
      <trkpt lat="38.852489" lon="-0.00503467">
        <ele>20.0</ele>
        <time>2018-06-10T06:45:41.069Z</time>
      </trkpt>
      <trkpt lat="38.85260383" lon="-0.00509017">
        <ele>20.0</ele>
        <time>2018-06-10T06:45:42.069Z</time>
      </trkpt>
      <trkpt lat="38.8527195" lon="-0.00514633">
        <ele>19.0</ele>
        <time>2018-06-10T06:45:43.069Z</time>
      </trkpt>
      <trkpt lat="38.85283633" lon="-0.00520333">
        <ele>18.0</ele>
        <time>2018-06-10T06:45:44.069Z</time>
      </trkpt>
      <trkpt lat="38.852954" lon="-0.00526167">
        <ele>18.0</ele>
        <time>2018-06-10T06:45:45.069Z</time>
      </trkpt>
      <trkpt lat="38.85307317" lon="-0.00532">
        <ele>17.0</ele>
        <time>2018-06-10T06:45:46.069Z</time>
      </trkpt>
      <trkpt lat="38.85319333" lon="-0.005379">
        <ele>17.0</ele>
        <time>2018-06-10T06:45:47.069Z</time>
      </trkpt>
      <trkpt lat="38.853314" lon="-0.0054385">
        <ele>16.0</ele>
        <time>2018-06-10T06:45:48.069Z</time>
      </trkpt>
      <trkpt lat="38.8534345" lon="-0.00549983">
        <ele>16.0</ele>
        <time>2018-06-10T06:45:49.069Z</time>
      </trkpt>
      <trkpt lat="38.85355467" lon="-0.0055635">
        <ele>15.0</ele>
        <time>2018-06-10T06:45:50.069Z</time>
      </trkpt>
      <trkpt lat="38.8536745" lon="-0.00562883">
        <ele>15.0</ele>
        <time>2018-06-10T06:45:51.069Z</time>
      </trkpt>
      <trkpt lat="38.85379417" lon="-0.0056955">
        <ele>14.0</ele>
        <time>2018-06-10T06:45:52.069Z</time>
      </trkpt>
      <trkpt lat="38.85391433" lon="-0.00576333">
        <ele>14.0</ele>
        <time>2018-06-10T06:45:53.069Z</time>
      </trkpt>
      <trkpt lat="38.8540335" lon="-0.005831">
        <ele>14.0</ele>
        <time>2018-06-10T06:45:54.069Z</time>
      </trkpt>
      <trkpt lat="38.85415183" lon="-0.00589933">
        <ele>14.0</ele>
        <time>2018-06-10T06:45:55.069Z</time>
      </trkpt>
      <trkpt lat="38.85426833" lon="-0.00596667">
        <ele>13.0</ele>
        <time>2018-06-10T06:45:56.069Z</time>
      </trkpt>
      <trkpt lat="38.8543835" lon="-0.00603483">
        <ele>13.0</ele>
        <time>2018-06-10T06:45:57.069Z</time>
      </trkpt>
      <trkpt lat="38.85449683" lon="-0.00610283">
        <ele>13.0</ele>
        <time>2018-06-10T06:45:58.069Z</time>
      </trkpt>
      <trkpt lat="38.8546085" lon="-0.00617117">
        <ele>12.0</ele>
        <time>2018-06-10T06:45:59.069Z</time>
      </trkpt>
      <trkpt lat="38.85471867" lon="-0.00623833">
        <ele>12.0</ele>
        <time>2018-06-10T06:46:00.069Z</time>
      </trkpt>
      <trkpt lat="38.85482717" lon="-0.00630483">
        <ele>12.0</ele>
        <time>2018-06-10T06:46:01.069Z</time>
      </trkpt>
      <trkpt lat="38.85493417" lon="-0.00637017">
        <ele>12.0</ele>
        <time>2018-06-10T06:46:02.069Z</time>
      </trkpt>
      <trkpt lat="38.85503933" lon="-0.00643517">
        <ele>11.0</ele>
        <time>2018-06-10T06:46:03.069Z</time>
      </trkpt>
      <trkpt lat="38.85514283" lon="-0.00649867">
        <ele>11.0</ele>
        <time>2018-06-10T06:46:04.069Z</time>
      </trkpt>
      <trkpt lat="38.855245" lon="-0.0065615">
        <ele>11.0</ele>
        <time>2018-06-10T06:46:05.069Z</time>
      </trkpt>
      <trkpt lat="38.85534583" lon="-0.00662517">
        <ele>11.0</ele>
        <time>2018-06-10T06:46:06.069Z</time>
      </trkpt>
      <trkpt lat="38.855446" lon="-0.00669017">
        <ele>10.0</ele>
        <time>2018-06-10T06:46:07.069Z</time>
      </trkpt>
      <trkpt lat="38.85554483" lon="-0.006756">
        <ele>10.0</ele>
        <time>2018-06-10T06:46:08.069Z</time>
      </trkpt>
      <trkpt lat="38.85564267" lon="-0.00682167">
        <ele>10.0</ele>
        <time>2018-06-10T06:46:09.069Z</time>
      </trkpt>
      <trkpt lat="38.85573883" lon="-0.00688683">
        <ele>10.0</ele>
        <time>2018-06-10T06:46:10.069Z</time>
      </trkpt>
      <trkpt lat="38.85583367" lon="-0.006951">
        <ele>10.0</ele>
        <time>2018-06-10T06:46:11.069Z</time>
      </trkpt>
      <trkpt lat="38.85592667" lon="-0.0070145">
        <ele>9.0</ele>
        <time>2018-06-10T06:46:12.069Z</time>
      </trkpt>
      <trkpt lat="38.85601817" lon="-0.00707733">
        <ele>9.0</ele>
        <time>2018-06-10T06:46:13.069Z</time>
      </trkpt>
      <trkpt lat="38.85610917" lon="-0.0071405">
        <ele>9.0</ele>
        <time>2018-06-10T06:46:14.069Z</time>
      </trkpt>
      <trkpt lat="38.8562005" lon="-0.00720367">
        <ele>9.0</ele>
        <time>2018-06-10T06:46:15.069Z</time>
      </trkpt>
      <trkpt lat="38.85629283" lon="-0.007268">
        <ele>9.0</ele>
        <time>2018-06-10T06:46:16.069Z</time>
      </trkpt>
      <trkpt lat="38.85638483" lon="-0.00733317">
        <ele>8.0</ele>
        <time>2018-06-10T06:46:17.069Z</time>
      </trkpt>
      <trkpt lat="38.85647633" lon="-0.00739933">
        <ele>8.0</ele>
        <time>2018-06-10T06:46:18.069Z</time>
      </trkpt>
      <trkpt lat="38.85656683" lon="-0.007465">
        <ele>8.0</ele>
        <time>2018-06-10T06:46:19.069Z</time>
      </trkpt>
      <trkpt lat="38.85665667" lon="-0.0075315">
        <ele>8.0</ele>
        <time>2018-06-10T06:46:20.069Z</time>
      </trkpt>
      <trkpt lat="38.85674633" lon="-0.00759833">
        <ele>8.0</ele>
        <time>2018-06-10T06:46:21.069Z</time>
      </trkpt>
      <trkpt lat="38.85683583" lon="-0.00766583">
        <ele>7.0</ele>
        <time>2018-06-10T06:46:22.069Z</time>
      </trkpt>
      <trkpt lat="38.85692533" lon="-0.0077325">
        <ele>7.0</ele>
        <time>2018-06-10T06:46:23.069Z</time>
      </trkpt>
      <trkpt lat="38.85701517" lon="-0.0077995">
        <ele>7.0</ele>
        <time>2018-06-10T06:46:24.069Z</time>
      </trkpt>
      <trkpt lat="38.85710533" lon="-0.00786733">
        <ele>7.0</ele>
        <time>2018-06-10T06:46:25.069Z</time>
      </trkpt>
      <trkpt lat="38.8571965" lon="-0.00793783">
        <ele>7.0</ele>
        <time>2018-06-10T06:46:26.069Z</time>
      </trkpt>
      <trkpt lat="38.857288" lon="-0.00801067">
        <ele>7.0</ele>
        <time>2018-06-10T06:46:27.069Z</time>
      </trkpt>
      <trkpt lat="38.8573795" lon="-0.00808567">
        <ele>7.0</ele>
        <time>2018-06-10T06:46:28.069Z</time>
      </trkpt>
      <trkpt lat="38.85747133" lon="-0.00816067">
        <ele>7.0</ele>
        <time>2018-06-10T06:46:29.069Z</time>
      </trkpt>
      <trkpt lat="38.85756333" lon="-0.00823617">
        <ele>6.0</ele>
        <time>2018-06-10T06:46:30.069Z</time>
      </trkpt>
      <trkpt lat="38.85765617" lon="-0.00831133">
        <ele>6.0</ele>
        <time>2018-06-10T06:46:31.069Z</time>
      </trkpt>
      <trkpt lat="38.85774867" lon="-0.00838667">
        <ele>6.0</ele>
        <time>2018-06-10T06:46:32.069Z</time>
      </trkpt>
      <trkpt lat="38.85784083" lon="-0.00846217">
        <ele>6.0</ele>
        <time>2018-06-10T06:46:33.069Z</time>
      </trkpt>
      <trkpt lat="38.857932" lon="-0.008539">
        <ele>6.0</ele>
        <time>2018-06-10T06:46:34.069Z</time>
      </trkpt>
      <trkpt lat="38.85802233" lon="-0.00861617">
        <ele>6.0</ele>
        <time>2018-06-10T06:46:35.069Z</time>
      </trkpt>
      <trkpt lat="38.85811217" lon="-0.0086935">
        <ele>6.0</ele>
        <time>2018-06-10T06:46:36.069Z</time>
      </trkpt>
      <trkpt lat="38.8582015" lon="-0.00877017">
        <ele>5.0</ele>
        <time>2018-06-10T06:46:37.069Z</time>
      </trkpt>
      <trkpt lat="38.85829067" lon="-0.00884767">
        <ele>5.0</ele>
        <time>2018-06-10T06:46:38.069Z</time>
      </trkpt>
      <trkpt lat="38.85837983" lon="-0.00892533">
        <ele>5.0</ele>
        <time>2018-06-10T06:46:39.069Z</time>
      </trkpt>
      <trkpt lat="38.85846933" lon="-0.00900317">
        <ele>5.0</ele>
        <time>2018-06-10T06:46:40.069Z</time>
      </trkpt>
      <trkpt lat="38.85855883" lon="-0.009081">
        <ele>5.0</ele>
        <time>2018-06-10T06:46:41.069Z</time>
      </trkpt>
      <trkpt lat="38.85864867" lon="-0.00916017">
        <ele>5.0</ele>
        <time>2018-06-10T06:46:42.069Z</time>
      </trkpt>
      <trkpt lat="38.85873783" lon="-0.009241">
        <ele>5.0</ele>
        <time>2018-06-10T06:46:43.069Z</time>
      </trkpt>
      <trkpt lat="38.85882717" lon="-0.00932283">
        <ele>4.0</ele>
        <time>2018-06-10T06:46:44.069Z</time>
      </trkpt>
      <trkpt lat="38.85891633" lon="-0.00940417">
        <ele>4.0</ele>
        <time>2018-06-10T06:46:45.069Z</time>
      </trkpt>
      <trkpt lat="38.859005" lon="-0.00948517">
        <ele>4.0</ele>
        <time>2018-06-10T06:46:46.069Z</time>
      </trkpt>
      <trkpt lat="38.85909283" lon="-0.00956533">
        <ele>4.0</ele>
        <time>2018-06-10T06:46:47.069Z</time>
      </trkpt>
      <trkpt lat="38.85917917" lon="-0.00964533">
        <ele>4.0</ele>
        <time>2018-06-10T06:46:48.069Z</time>
      </trkpt>
      <trkpt lat="38.859264" lon="-0.0097255">
        <ele>4.0</ele>
        <time>2018-06-10T06:46:49.069Z</time>
      </trkpt>
      <trkpt lat="38.859348" lon="-0.009807">
        <ele>4.0</ele>
        <time>2018-06-10T06:46:50.069Z</time>
      </trkpt>
      <trkpt lat="38.8594315" lon="-0.00989033">
        <ele>4.0</ele>
        <time>2018-06-10T06:46:51.069Z</time>
      </trkpt>
      <trkpt lat="38.859516" lon="-0.00997433">
        <ele>4.0</ele>
        <time>2018-06-10T06:46:52.069Z</time>
      </trkpt>
      <trkpt lat="38.85960133" lon="-0.01005817">
        <ele>4.0</ele>
        <time>2018-06-10T06:46:53.069Z</time>
      </trkpt>
      <trkpt lat="38.8596865" lon="-0.01014217">
        <ele>4.0</ele>
        <time>2018-06-10T06:46:54.069Z</time>
      </trkpt>
      <trkpt lat="38.859771" lon="-0.010226">
        <ele>4.0</ele>
        <time>2018-06-10T06:46:55.069Z</time>
      </trkpt>
      <trkpt lat="38.85985433" lon="-0.01031">
        <ele>4.0</ele>
        <time>2018-06-10T06:46:56.069Z</time>
      </trkpt>
      <trkpt lat="38.859937" lon="-0.01039383">
        <ele>4.0</ele>
        <time>2018-06-10T06:46:57.069Z</time>
      </trkpt>
      <trkpt lat="38.860019" lon="-0.01047717">
        <ele>4.0</ele>
        <time>2018-06-10T06:46:58.069Z</time>
      </trkpt>
      <trkpt lat="38.86010033" lon="-0.01055983">
        <ele>4.0</ele>
        <time>2018-06-10T06:46:59.069Z</time>
      </trkpt>
      <trkpt lat="38.8601805" lon="-0.010642">
        <ele>4.0</ele>
        <time>2018-06-10T06:47:00.069Z</time>
      </trkpt>
      <trkpt lat="38.86025967" lon="-0.01072367">
        <ele>4.0</ele>
        <time>2018-06-10T06:47:01.069Z</time>
      </trkpt>
      <trkpt lat="38.86033817" lon="-0.01080433">
        <ele>4.0</ele>
        <time>2018-06-10T06:47:02.069Z</time>
      </trkpt>
      <trkpt lat="38.86041567" lon="-0.010885">
        <ele>4.0</ele>
        <time>2018-06-10T06:47:03.069Z</time>
      </trkpt>
      <trkpt lat="38.86049183" lon="-0.01096633">
        <ele>4.0</ele>
        <time>2018-06-10T06:47:04.069Z</time>
      </trkpt>
      <trkpt lat="38.86056717" lon="-0.01104883">
        <ele>4.0</ele>
        <time>2018-06-10T06:47:05.069Z</time>
      </trkpt>
      <trkpt lat="38.86064267" lon="-0.01113233">
        <ele>4.0</ele>
        <time>2018-06-10T06:47:06.069Z</time>
      </trkpt>
      <trkpt lat="38.860719" lon="-0.011217">
        <ele>4.0</ele>
        <time>2018-06-10T06:47:07.069Z</time>
      </trkpt>
      <trkpt lat="38.8607955" lon="-0.011303">
        <ele>4.0</ele>
        <time>2018-06-10T06:47:08.069Z</time>
      </trkpt>
      <trkpt lat="38.8608725" lon="-0.01138883">
        <ele>4.0</ele>
        <time>2018-06-10T06:47:09.069Z</time>
      </trkpt>
      <trkpt lat="38.86094933" lon="-0.011475">
        <ele>4.0</ele>
        <time>2018-06-10T06:47:10.069Z</time>
      </trkpt>
      <trkpt lat="38.86102583" lon="-0.01156183">
        <ele>5.0</ele>
        <time>2018-06-10T06:47:11.069Z</time>
      </trkpt>
      <trkpt lat="38.86110233" lon="-0.01164933">
        <ele>5.0</ele>
        <time>2018-06-10T06:47:12.069Z</time>
      </trkpt>
      <trkpt lat="38.8611785" lon="-0.01173717">
        <ele>5.0</ele>
        <time>2018-06-10T06:47:13.069Z</time>
      </trkpt>
      <trkpt lat="38.86125467" lon="-0.0118245">
        <ele>5.0</ele>
        <time>2018-06-10T06:47:14.069Z</time>
      </trkpt>
      <trkpt lat="38.86132933" lon="-0.01191133">
        <ele>5.0</ele>
        <time>2018-06-10T06:47:15.069Z</time>
      </trkpt>
      <trkpt lat="38.86140283" lon="-0.01199767">
        <ele>5.0</ele>
        <time>2018-06-10T06:47:16.069Z</time>
      </trkpt>
      <trkpt lat="38.861475" lon="-0.0120835">
        <ele>5.0</ele>
        <time>2018-06-10T06:47:17.069Z</time>
      </trkpt>
      <trkpt lat="38.86154633" lon="-0.01216883">
        <ele>5.0</ele>
        <time>2018-06-10T06:47:18.069Z</time>
      </trkpt>
      <trkpt lat="38.86161733" lon="-0.01225367">
        <ele>5.0</ele>
        <time>2018-06-10T06:47:19.069Z</time>
      </trkpt>
      <trkpt lat="38.8616875" lon="-0.01233833">
        <ele>5.0</ele>
        <time>2018-06-10T06:47:20.069Z</time>
      </trkpt>
      <trkpt lat="38.861757" lon="-0.012423">
        <ele>5.0</ele>
        <time>2018-06-10T06:47:21.069Z</time>
      </trkpt>
      <trkpt lat="38.86182617" lon="-0.01250767">
        <ele>5.0</ele>
        <time>2018-06-10T06:47:22.069Z</time>
      </trkpt>
      <trkpt lat="38.8618945" lon="-0.01259233">
        <ele>5.0</ele>
        <time>2018-06-10T06:47:23.069Z</time>
      </trkpt>
      <trkpt lat="38.86196233" lon="-0.012677">
        <ele>5.0</ele>
        <time>2018-06-10T06:47:24.069Z</time>
      </trkpt>
      <trkpt lat="38.86202933" lon="-0.0127615">
        <ele>5.0</ele>
        <time>2018-06-10T06:47:25.069Z</time>
      </trkpt>
      <trkpt lat="38.8620965" lon="-0.01284617">
        <ele>5.0</ele>
        <time>2018-06-10T06:47:26.069Z</time>
      </trkpt>
      <trkpt lat="38.8621635" lon="-0.0129315">
        <ele>5.0</ele>
        <time>2018-06-10T06:47:27.069Z</time>
      </trkpt>
      <trkpt lat="38.86223083" lon="-0.01301767">
        <ele>5.0</ele>
        <time>2018-06-10T06:47:28.069Z</time>
      </trkpt>
      <trkpt lat="38.86229817" lon="-0.01310417">
        <ele>5.0</ele>
        <time>2018-06-10T06:47:29.069Z</time>
      </trkpt>
      <trkpt lat="38.86236567" lon="-0.01319017">
        <ele>5.0</ele>
        <time>2018-06-10T06:47:30.069Z</time>
      </trkpt>
      <trkpt lat="38.86243283" lon="-0.01327667">
        <ele>5.0</ele>
        <time>2018-06-10T06:47:31.069Z</time>
      </trkpt>
      <trkpt lat="38.86249917" lon="-0.01336367">
        <ele>5.0</ele>
        <time>2018-06-10T06:47:32.069Z</time>
      </trkpt>
      <trkpt lat="38.8625645" lon="-0.01345167">
        <ele>5.0</ele>
        <time>2018-06-10T06:47:33.069Z</time>
      </trkpt>
      <trkpt lat="38.8626295" lon="-0.013539">
        <ele>5.0</ele>
        <time>2018-06-10T06:47:34.069Z</time>
      </trkpt>
      <trkpt lat="38.8626945" lon="-0.01362567">
        <ele>5.0</ele>
        <time>2018-06-10T06:47:35.069Z</time>
      </trkpt>
      <trkpt lat="38.86275917" lon="-0.01371217">
        <ele>5.0</ele>
        <time>2018-06-10T06:47:36.069Z</time>
      </trkpt>
      <trkpt lat="38.86282333" lon="-0.01379917">
        <ele>5.0</ele>
        <time>2018-06-10T06:47:37.069Z</time>
      </trkpt>
      <trkpt lat="38.86288733" lon="-0.01388667">
        <ele>5.0</ele>
        <time>2018-06-10T06:47:38.069Z</time>
      </trkpt>
      <trkpt lat="38.862951" lon="-0.0139745">
        <ele>5.0</ele>
        <time>2018-06-10T06:47:39.069Z</time>
      </trkpt>
      <trkpt lat="38.86301467" lon="-0.014062">
        <ele>5.0</ele>
        <time>2018-06-10T06:47:40.069Z</time>
      </trkpt>
      <trkpt lat="38.86307783" lon="-0.01415017">
        <ele>5.0</ele>
        <time>2018-06-10T06:47:41.069Z</time>
      </trkpt>
      <trkpt lat="38.8631405" lon="-0.01423883">
        <ele>5.0</ele>
        <time>2018-06-10T06:47:42.069Z</time>
      </trkpt>
      <trkpt lat="38.86320233" lon="-0.0143285">
        <ele>5.0</ele>
        <time>2018-06-10T06:47:43.069Z</time>
      </trkpt>
      <trkpt lat="38.8632645" lon="-0.0144185">
        <ele>5.0</ele>
        <time>2018-06-10T06:47:44.069Z</time>
      </trkpt>
      <trkpt lat="38.86332683" lon="-0.01450883">
        <ele>5.0</ele>
        <time>2018-06-10T06:47:45.069Z</time>
      </trkpt>
      <trkpt lat="38.86338933" lon="-0.01459967">
        <ele>5.0</ele>
        <time>2018-06-10T06:47:46.069Z</time>
      </trkpt>
      <trkpt lat="38.86345217" lon="-0.01469067">
        <ele>5.0</ele>
        <time>2018-06-10T06:47:47.069Z</time>
      </trkpt>
      <trkpt lat="38.86351467" lon="-0.01478267">
        <ele>5.0</ele>
        <time>2018-06-10T06:47:48.069Z</time>
      </trkpt>
      <trkpt lat="38.863577" lon="-0.01487533">
        <ele>5.0</ele>
        <time>2018-06-10T06:47:49.069Z</time>
      </trkpt>
      <trkpt lat="38.86363933" lon="-0.014968">
        <ele>5.0</ele>
        <time>2018-06-10T06:47:50.069Z</time>
      </trkpt>
      <trkpt lat="38.86370167" lon="-0.01506083">
        <ele>5.0</ele>
        <time>2018-06-10T06:47:51.069Z</time>
      </trkpt>
      <trkpt lat="38.863764" lon="-0.01515283">
        <ele>5.0</ele>
        <time>2018-06-10T06:47:52.069Z</time>
      </trkpt>
      <trkpt lat="38.8638265" lon="-0.0152445">
        <ele>5.0</ele>
        <time>2018-06-10T06:47:53.069Z</time>
      </trkpt>
      <trkpt lat="38.86388833" lon="-0.01533567">
        <ele>5.0</ele>
        <time>2018-06-10T06:47:54.069Z</time>
      </trkpt>
      <trkpt lat="38.86394917" lon="-0.01542667">
        <ele>5.0</ele>
        <time>2018-06-10T06:47:55.069Z</time>
      </trkpt>
      <trkpt lat="38.86400867" lon="-0.0155175">
        <ele>5.0</ele>
        <time>2018-06-10T06:47:56.069Z</time>
      </trkpt>
      <trkpt lat="38.86406683" lon="-0.01560783">
        <ele>5.0</ele>
        <time>2018-06-10T06:47:57.069Z</time>
      </trkpt>
      <trkpt lat="38.86412433" lon="-0.01569783">
        <ele>5.0</ele>
        <time>2018-06-10T06:47:58.069Z</time>
      </trkpt>
      <trkpt lat="38.86418133" lon="-0.01578733">
        <ele>5.0</ele>
        <time>2018-06-10T06:47:59.069Z</time>
      </trkpt>
      <trkpt lat="38.86423767" lon="-0.0158765">
        <ele>5.0</ele>
        <time>2018-06-10T06:48:00.069Z</time>
      </trkpt>
      <trkpt lat="38.86429317" lon="-0.0159655">
        <ele>5.0</ele>
        <time>2018-06-10T06:48:01.069Z</time>
      </trkpt>
      <trkpt lat="38.8643475" lon="-0.01605483">
        <ele>4.0</ele>
        <time>2018-06-10T06:48:02.069Z</time>
      </trkpt>
      <trkpt lat="38.86440167" lon="-0.0161435">
        <ele>4.0</ele>
        <time>2018-06-10T06:48:03.069Z</time>
      </trkpt>
      <trkpt lat="38.86445517" lon="-0.01623167">
        <ele>4.0</ele>
        <time>2018-06-10T06:48:04.069Z</time>
      </trkpt>
      <trkpt lat="38.8645085" lon="-0.01631967">
        <ele>4.0</ele>
        <time>2018-06-10T06:48:05.069Z</time>
      </trkpt>
      <trkpt lat="38.86456167" lon="-0.01640767">
        <ele>4.0</ele>
        <time>2018-06-10T06:48:06.069Z</time>
      </trkpt>
      <trkpt lat="38.8646145" lon="-0.0164955">
        <ele>4.0</ele>
        <time>2018-06-10T06:48:07.069Z</time>
      </trkpt>
      <trkpt lat="38.86466767" lon="-0.01658317">
        <ele>5.0</ele>
        <time>2018-06-10T06:48:08.069Z</time>
      </trkpt>
      <trkpt lat="38.86472033" lon="-0.016671">
        <ele>5.0</ele>
        <time>2018-06-10T06:48:09.069Z</time>
      </trkpt>
      <trkpt lat="38.86477283" lon="-0.01675883">
        <ele>5.0</ele>
        <time>2018-06-10T06:48:10.069Z</time>
      </trkpt>
      <trkpt lat="38.86482467" lon="-0.016847">
        <ele>5.0</ele>
        <time>2018-06-10T06:48:11.069Z</time>
      </trkpt>
      <trkpt lat="38.86487667" lon="-0.016935">
        <ele>5.0</ele>
        <time>2018-06-10T06:48:12.069Z</time>
      </trkpt>
      <trkpt lat="38.86492867" lon="-0.017023">
        <ele>5.0</ele>
        <time>2018-06-10T06:48:13.069Z</time>
      </trkpt>
      <trkpt lat="38.86498067" lon="-0.01711117">
        <ele>5.0</ele>
        <time>2018-06-10T06:48:14.069Z</time>
      </trkpt>
      <trkpt lat="38.865032" lon="-0.01719967">
        <ele>5.0</ele>
        <time>2018-06-10T06:48:15.069Z</time>
      </trkpt>
      <trkpt lat="38.865083" lon="-0.01728833">
        <ele>5.0</ele>
        <time>2018-06-10T06:48:16.069Z</time>
      </trkpt>
      <trkpt lat="38.86513367" lon="-0.01737733">
        <ele>5.0</ele>
        <time>2018-06-10T06:48:17.069Z</time>
      </trkpt>
      <trkpt lat="38.8651845" lon="-0.0174665">
        <ele>5.0</ele>
        <time>2018-06-10T06:48:18.069Z</time>
      </trkpt>
      <trkpt lat="38.8652355" lon="-0.0175585">
        <ele>5.0</ele>
        <time>2018-06-10T06:48:19.069Z</time>
      </trkpt>
      <trkpt lat="38.865286" lon="-0.0176545">
        <ele>5.0</ele>
        <time>2018-06-10T06:48:20.069Z</time>
      </trkpt>
      <trkpt lat="38.86533767" lon="-0.01775267">
        <ele>5.0</ele>
        <time>2018-06-10T06:48:21.069Z</time>
      </trkpt>
      <trkpt lat="38.86538983" lon="-0.0178515">
        <ele>5.0</ele>
        <time>2018-06-10T06:48:22.069Z</time>
      </trkpt>
      <trkpt lat="38.86544283" lon="-0.01794983">
        <ele>5.0</ele>
        <time>2018-06-10T06:48:23.069Z</time>
      </trkpt>
      <trkpt lat="38.86549567" lon="-0.01804833">
        <ele>5.0</ele>
        <time>2018-06-10T06:48:24.069Z</time>
      </trkpt>
      <trkpt lat="38.8655495" lon="-0.0181465">
        <ele>5.0</ele>
        <time>2018-06-10T06:48:25.069Z</time>
      </trkpt>
      <trkpt lat="38.86560433" lon="-0.0182445">
        <ele>5.0</ele>
        <time>2018-06-10T06:48:26.069Z</time>
      </trkpt>
      <trkpt lat="38.865659" lon="-0.01834267">
        <ele>5.0</ele>
        <time>2018-06-10T06:48:27.069Z</time>
      </trkpt>
      <trkpt lat="38.865713" lon="-0.0184405">
        <ele>5.0</ele>
        <time>2018-06-10T06:48:28.069Z</time>
      </trkpt>
      <trkpt lat="38.86576633" lon="-0.0185375">
        <ele>5.0</ele>
        <time>2018-06-10T06:48:29.069Z</time>
      </trkpt>
      <trkpt lat="38.86581917" lon="-0.0186335">
        <ele>5.0</ele>
        <time>2018-06-10T06:48:30.069Z</time>
      </trkpt>
      <trkpt lat="38.86587183" lon="-0.01872883">
        <ele>5.0</ele>
        <time>2018-06-10T06:48:31.069Z</time>
      </trkpt>
      <trkpt lat="38.8659235" lon="-0.01882417">
        <ele>6.0</ele>
        <time>2018-06-10T06:48:32.069Z</time>
      </trkpt>
      <trkpt lat="38.86597467" lon="-0.01891983">
        <ele>6.0</ele>
        <time>2018-06-10T06:48:33.069Z</time>
      </trkpt>
      <trkpt lat="38.86602583" lon="-0.0190145">
        <ele>6.0</ele>
        <time>2018-06-10T06:48:34.069Z</time>
      </trkpt>
      <trkpt lat="38.86607733" lon="-0.019107">
        <ele>6.0</ele>
        <time>2018-06-10T06:48:35.069Z</time>
      </trkpt>
      <trkpt lat="38.86612917" lon="-0.019198">
        <ele>6.0</ele>
        <time>2018-06-10T06:48:36.069Z</time>
      </trkpt>
      <trkpt lat="38.86618083" lon="-0.01928817">
        <ele>6.0</ele>
        <time>2018-06-10T06:48:37.069Z</time>
      </trkpt>
      <trkpt lat="38.86623283" lon="-0.01937933">
        <ele>7.0</ele>
        <time>2018-06-10T06:48:38.069Z</time>
      </trkpt>
      <trkpt lat="38.86628283" lon="-0.01946983">
        <ele>7.0</ele>
        <time>2018-06-10T06:48:39.069Z</time>
      </trkpt>
      <trkpt lat="38.86633117" lon="-0.0195605">
        <ele>7.0</ele>
        <time>2018-06-10T06:48:40.069Z</time>
      </trkpt>
      <trkpt lat="38.86637733" lon="-0.01965167">
        <ele>8.0</ele>
        <time>2018-06-10T06:48:41.069Z</time>
      </trkpt>
      <trkpt lat="38.86642333" lon="-0.019743">
        <ele>7.0</ele>
        <time>2018-06-10T06:48:42.069Z</time>
      </trkpt>
      <trkpt lat="38.86646867" lon="-0.01983417">
        <ele>7.0</ele>
        <time>2018-06-10T06:48:43.069Z</time>
      </trkpt>
      <trkpt lat="38.86651533" lon="-0.01992317">
        <ele>7.0</ele>
        <time>2018-06-10T06:48:44.069Z</time>
      </trkpt>
      <trkpt lat="38.86656217" lon="-0.02001267">
        <ele>7.0</ele>
        <time>2018-06-10T06:48:45.069Z</time>
      </trkpt>
      <trkpt lat="38.866611" lon="-0.02010317">
        <ele>8.0</ele>
        <time>2018-06-10T06:48:46.069Z</time>
      </trkpt>
      <trkpt lat="38.8666615" lon="-0.02019167">
        <ele>8.0</ele>
        <time>2018-06-10T06:48:47.069Z</time>
      </trkpt>
      <trkpt lat="38.8667125" lon="-0.02027817">
        <ele>9.0</ele>
        <time>2018-06-10T06:48:48.069Z</time>
      </trkpt>
      <trkpt lat="38.86676383" lon="-0.02036367">
        <ele>9.0</ele>
        <time>2018-06-10T06:48:49.069Z</time>
      </trkpt>
      <trkpt lat="38.86681367" lon="-0.0204515">
        <ele>9.0</ele>
        <time>2018-06-10T06:48:50.069Z</time>
      </trkpt>
      <trkpt lat="38.8668655" lon="-0.02054233">
        <ele>9.0</ele>
        <time>2018-06-10T06:48:51.069Z</time>
      </trkpt>
      <trkpt lat="38.86691483" lon="-0.02063217">
        <ele>9.0</ele>
        <time>2018-06-10T06:48:52.069Z</time>
      </trkpt>
      <trkpt lat="38.86696333" lon="-0.020722">
        <ele>10.0</ele>
        <time>2018-06-10T06:48:53.069Z</time>
      </trkpt>
      <trkpt lat="38.86700917" lon="-0.0208095">
        <ele>10.0</ele>
        <time>2018-06-10T06:48:54.069Z</time>
      </trkpt>
      <trkpt lat="38.867056" lon="-0.02089583">
        <ele>10.0</ele>
        <time>2018-06-10T06:48:55.069Z</time>
      </trkpt>
      <trkpt lat="38.8671035" lon="-0.02098183">
        <ele>10.0</ele>
        <time>2018-06-10T06:48:56.069Z</time>
      </trkpt>
      <trkpt lat="38.8671505" lon="-0.0210675">
        <ele>10.0</ele>
        <time>2018-06-10T06:48:57.069Z</time>
      </trkpt>
      <trkpt lat="38.86719667" lon="-0.02115517">
        <ele>10.0</ele>
        <time>2018-06-10T06:48:58.069Z</time>
      </trkpt>
      <trkpt lat="38.867242" lon="-0.0212435">
        <ele>10.0</ele>
        <time>2018-06-10T06:48:59.069Z</time>
      </trkpt>
      <trkpt lat="38.86728817" lon="-0.02133283">
        <ele>10.0</ele>
        <time>2018-06-10T06:49:00.069Z</time>
      </trkpt>
      <trkpt lat="38.86733533" lon="-0.0214215">
        <ele>10.0</ele>
        <time>2018-06-10T06:49:01.069Z</time>
      </trkpt>
      <trkpt lat="38.86738283" lon="-0.0215105">
        <ele>11.0</ele>
        <time>2018-06-10T06:49:02.069Z</time>
      </trkpt>
      <trkpt lat="38.86742983" lon="-0.02159967">
        <ele>11.0</ele>
        <time>2018-06-10T06:49:03.069Z</time>
      </trkpt>
      <trkpt lat="38.86747667" lon="-0.02168917">
        <ele>11.0</ele>
        <time>2018-06-10T06:49:04.069Z</time>
      </trkpt>
      <trkpt lat="38.86752417" lon="-0.0217785">
        <ele>11.0</ele>
        <time>2018-06-10T06:49:05.069Z</time>
      </trkpt>
      <trkpt lat="38.86757183" lon="-0.021868">
        <ele>11.0</ele>
        <time>2018-06-10T06:49:06.069Z</time>
      </trkpt>
      <trkpt lat="38.86761983" lon="-0.02195733">
        <ele>12.0</ele>
        <time>2018-06-10T06:49:07.069Z</time>
      </trkpt>
      <trkpt lat="38.86766767" lon="-0.02204683">
        <ele>12.0</ele>
        <time>2018-06-10T06:49:08.069Z</time>
      </trkpt>
      <trkpt lat="38.86771533" lon="-0.0221365">
        <ele>12.0</ele>
        <time>2018-06-10T06:49:09.069Z</time>
      </trkpt>
      <trkpt lat="38.867763" lon="-0.0222265">
        <ele>12.0</ele>
        <time>2018-06-10T06:49:10.069Z</time>
      </trkpt>
      <trkpt lat="38.86781083" lon="-0.0223165">
        <ele>12.0</ele>
        <time>2018-06-10T06:49:11.069Z</time>
      </trkpt>
      <trkpt lat="38.86785917" lon="-0.022407">
        <ele>12.0</ele>
        <time>2018-06-10T06:49:12.069Z</time>
      </trkpt>
      <trkpt lat="38.867908" lon="-0.0224985">
        <ele>12.0</ele>
        <time>2018-06-10T06:49:13.069Z</time>
      </trkpt>
      <trkpt lat="38.86795833" lon="-0.02259133">
        <ele>12.0</ele>
        <time>2018-06-10T06:49:14.069Z</time>
      </trkpt>
      <trkpt lat="38.86801017" lon="-0.02268567">
        <ele>11.0</ele>
        <time>2018-06-10T06:49:15.069Z</time>
      </trkpt>
      <trkpt lat="38.86806283" lon="-0.02278183">
        <ele>11.0</ele>
        <time>2018-06-10T06:49:16.069Z</time>
      </trkpt>
      <trkpt lat="38.868115" lon="-0.02288017">
        <ele>11.0</ele>
        <time>2018-06-10T06:49:17.069Z</time>
      </trkpt>
      <trkpt lat="38.86816767" lon="-0.02298033">
        <ele>11.0</ele>
        <time>2018-06-10T06:49:18.069Z</time>
      </trkpt>
      <trkpt lat="38.86822133" lon="-0.023082">
        <ele>11.0</ele>
        <time>2018-06-10T06:49:19.069Z</time>
      </trkpt>
      <trkpt lat="38.86827633" lon="-0.023185">
        <ele>11.0</ele>
        <time>2018-06-10T06:49:20.069Z</time>
      </trkpt>
      <trkpt lat="38.86833233" lon="-0.0232895">
        <ele>10.0</ele>
        <time>2018-06-10T06:49:21.069Z</time>
      </trkpt>
      <trkpt lat="38.86838867" lon="-0.02339583">
        <ele>10.0</ele>
        <time>2018-06-10T06:49:22.069Z</time>
      </trkpt>
      <trkpt lat="38.86844483" lon="-0.02350433">
        <ele>10.0</ele>
        <time>2018-06-10T06:49:23.069Z</time>
      </trkpt>
      <trkpt lat="38.868501" lon="-0.02361467">
        <ele>10.0</ele>
        <time>2018-06-10T06:49:24.069Z</time>
      </trkpt>
      <trkpt lat="38.86855833" lon="-0.02372583">
        <ele>10.0</ele>
        <time>2018-06-10T06:49:25.069Z</time>
      </trkpt>
      <trkpt lat="38.86861717" lon="-0.02383733">
        <ele>9.0</ele>
        <time>2018-06-10T06:49:26.069Z</time>
      </trkpt>
      <trkpt lat="38.868677" lon="-0.02394933">
        <ele>9.0</ele>
        <time>2018-06-10T06:49:27.069Z</time>
      </trkpt>
      <trkpt lat="38.86873717" lon="-0.02406217">
        <ele>9.0</ele>
        <time>2018-06-10T06:49:28.069Z</time>
      </trkpt>
      <trkpt lat="38.86879767" lon="-0.02417583">
        <ele>9.0</ele>
        <time>2018-06-10T06:49:29.069Z</time>
      </trkpt>
      <trkpt lat="38.86885867" lon="-0.02428983">
        <ele>8.0</ele>
        <time>2018-06-10T06:49:30.069Z</time>
      </trkpt>
      <trkpt lat="38.86892" lon="-0.02440367">
        <ele>8.0</ele>
        <time>2018-06-10T06:49:31.069Z</time>
      </trkpt>
      <trkpt lat="38.8689815" lon="-0.02451817">
        <ele>8.0</ele>
        <time>2018-06-10T06:49:32.069Z</time>
      </trkpt>
      <trkpt lat="38.869043" lon="-0.02463283">
        <ele>7.0</ele>
        <time>2018-06-10T06:49:33.069Z</time>
      </trkpt>
      <trkpt lat="38.86910533" lon="-0.0247475">
        <ele>7.0</ele>
        <time>2018-06-10T06:49:34.069Z</time>
      </trkpt>
      <trkpt lat="38.8691685" lon="-0.02486117">
        <ele>7.0</ele>
        <time>2018-06-10T06:49:35.069Z</time>
      </trkpt>
      <trkpt lat="38.86923267" lon="-0.02497433">
        <ele>7.0</ele>
        <time>2018-06-10T06:49:36.069Z</time>
      </trkpt>
      <trkpt lat="38.869296" lon="-0.0250875">
        <ele>6.0</ele>
        <time>2018-06-10T06:49:37.069Z</time>
      </trkpt>
      <trkpt lat="38.869358" lon="-0.02520133">
        <ele>6.0</ele>
        <time>2018-06-10T06:49:38.069Z</time>
      </trkpt>
      <trkpt lat="38.86941917" lon="-0.02531517">
        <ele>6.0</ele>
        <time>2018-06-10T06:49:39.069Z</time>
      </trkpt>
      <trkpt lat="38.86948083" lon="-0.02542817">
        <ele>5.0</ele>
        <time>2018-06-10T06:49:40.069Z</time>
      </trkpt>
      <trkpt lat="38.86954317" lon="-0.02554067">
        <ele>5.0</ele>
        <time>2018-06-10T06:49:41.069Z</time>
      </trkpt>
      <trkpt lat="38.8696055" lon="-0.025654">
        <ele>5.0</ele>
        <time>2018-06-10T06:49:42.069Z</time>
      </trkpt>
      <trkpt lat="38.86966783" lon="-0.0257685">
        <ele>5.0</ele>
        <time>2018-06-10T06:49:43.069Z</time>
      </trkpt>
      <trkpt lat="38.8697305" lon="-0.02588333">
        <ele>5.0</ele>
        <time>2018-06-10T06:49:44.069Z</time>
      </trkpt>
      <trkpt lat="38.86979383" lon="-0.0259975">
        <ele>5.0</ele>
        <time>2018-06-10T06:49:45.069Z</time>
      </trkpt>
      <trkpt lat="38.86985733" lon="-0.026111">
        <ele>5.0</ele>
        <time>2018-06-10T06:49:46.069Z</time>
      </trkpt>
      <trkpt lat="38.86992033" lon="-0.02622383">
        <ele>4.0</ele>
        <time>2018-06-10T06:49:47.069Z</time>
      </trkpt>
      <trkpt lat="38.86998133" lon="-0.0263355">
        <ele>4.0</ele>
        <time>2018-06-10T06:49:48.069Z</time>
      </trkpt>
      <trkpt lat="38.8700405" lon="-0.02644633">
        <ele>4.0</ele>
        <time>2018-06-10T06:49:49.069Z</time>
      </trkpt>
      <trkpt lat="38.8700975" lon="-0.02655667">
        <ele>4.0</ele>
        <time>2018-06-10T06:49:50.069Z</time>
      </trkpt>
      <trkpt lat="38.870154" lon="-0.026668">
        <ele>4.0</ele>
        <time>2018-06-10T06:49:51.069Z</time>
      </trkpt>
      <trkpt lat="38.87021033" lon="-0.02678067">
        <ele>4.0</ele>
        <time>2018-06-10T06:49:52.069Z</time>
      </trkpt>
      <trkpt lat="38.87026633" lon="-0.02689417">
        <ele>4.0</ele>
        <time>2018-06-10T06:49:53.069Z</time>
      </trkpt>
      <trkpt lat="38.87032183" lon="-0.027007">
        <ele>4.0</ele>
        <time>2018-06-10T06:49:54.069Z</time>
      </trkpt>
      <trkpt lat="38.87037767" lon="-0.02711717">
        <ele>4.0</ele>
        <time>2018-06-10T06:49:55.069Z</time>
      </trkpt>
      <trkpt lat="38.87043517" lon="-0.027225">
        <ele>4.0</ele>
        <time>2018-06-10T06:49:56.069Z</time>
      </trkpt>
      <trkpt lat="38.8704935" lon="-0.0273315">
        <ele>4.0</ele>
        <time>2018-06-10T06:49:57.069Z</time>
      </trkpt>
      <trkpt lat="38.870552" lon="-0.027438">
        <ele>4.0</ele>
        <time>2018-06-10T06:49:58.069Z</time>
      </trkpt>
      <trkpt lat="38.87061" lon="-0.027545">
        <ele>4.0</ele>
        <time>2018-06-10T06:49:59.069Z</time>
      </trkpt>
      <trkpt lat="38.87066783" lon="-0.02765217">
        <ele>4.0</ele>
        <time>2018-06-10T06:50:00.069Z</time>
      </trkpt>
      <trkpt lat="38.87072467" lon="-0.02775933">
        <ele>4.0</ele>
        <time>2018-06-10T06:50:01.069Z</time>
      </trkpt>
      <trkpt lat="38.8707805" lon="-0.02786583">
        <ele>4.0</ele>
        <time>2018-06-10T06:50:02.069Z</time>
      </trkpt>
      <trkpt lat="38.87083517" lon="-0.0279715">
        <ele>4.0</ele>
        <time>2018-06-10T06:50:03.069Z</time>
      </trkpt>
      <trkpt lat="38.870889" lon="-0.0280755">
        <ele>4.0</ele>
        <time>2018-06-10T06:50:04.069Z</time>
      </trkpt>
      <trkpt lat="38.87094267" lon="-0.02817767">
        <ele>4.0</ele>
        <time>2018-06-10T06:50:05.069Z</time>
      </trkpt>
      <trkpt lat="38.8709965" lon="-0.02827833">
        <ele>4.0</ele>
        <time>2018-06-10T06:50:06.069Z</time>
      </trkpt>
      <trkpt lat="38.87104983" lon="-0.028379">
        <ele>4.0</ele>
        <time>2018-06-10T06:50:07.069Z</time>
      </trkpt>
      <trkpt lat="38.87110233" lon="-0.02848067">
        <ele>4.0</ele>
        <time>2018-06-10T06:50:08.069Z</time>
      </trkpt>
      <trkpt lat="38.87115533" lon="-0.02858317">
        <ele>4.0</ele>
        <time>2018-06-10T06:50:09.069Z</time>
      </trkpt>
      <trkpt lat="38.87120933" lon="-0.02868567">
        <ele>4.0</ele>
        <time>2018-06-10T06:50:10.069Z</time>
      </trkpt>
      <trkpt lat="38.87126433" lon="-0.02878833">
        <ele>4.0</ele>
        <time>2018-06-10T06:50:11.069Z</time>
      </trkpt>
      <trkpt lat="38.87132" lon="-0.02889267">
        <ele>4.0</ele>
        <time>2018-06-10T06:50:12.069Z</time>
      </trkpt>
      <trkpt lat="38.871376" lon="-0.02899883">
        <ele>4.0</ele>
        <time>2018-06-10T06:50:13.069Z</time>
      </trkpt>
      <trkpt lat="38.87143267" lon="-0.02910633">
        <ele>4.0</ele>
        <time>2018-06-10T06:50:14.069Z</time>
      </trkpt>
      <trkpt lat="38.87148983" lon="-0.02921417">
        <ele>4.0</ele>
        <time>2018-06-10T06:50:15.069Z</time>
      </trkpt>
      <trkpt lat="38.87154767" lon="-0.0293215">
        <ele>4.0</ele>
        <time>2018-06-10T06:50:16.069Z</time>
      </trkpt>
      <trkpt lat="38.87160517" lon="-0.029428">
        <ele>4.0</ele>
        <time>2018-06-10T06:50:17.069Z</time>
      </trkpt>
      <trkpt lat="38.871662" lon="-0.029533">
        <ele>4.0</ele>
        <time>2018-06-10T06:50:18.069Z</time>
      </trkpt>
      <trkpt lat="38.87171767" lon="-0.029636">
        <ele>4.0</ele>
        <time>2018-06-10T06:50:19.069Z</time>
      </trkpt>
      <trkpt lat="38.87177267" lon="-0.02973717">
        <ele>4.0</ele>
        <time>2018-06-10T06:50:20.069Z</time>
      </trkpt>
      <trkpt lat="38.871827" lon="-0.029838">
        <ele>4.0</ele>
        <time>2018-06-10T06:50:21.069Z</time>
      </trkpt>
      <trkpt lat="38.87188233" lon="-0.02994">
        <ele>4.0</ele>
        <time>2018-06-10T06:50:22.069Z</time>
      </trkpt>
      <trkpt lat="38.8719385" lon="-0.03004433">
        <ele>4.0</ele>
        <time>2018-06-10T06:50:23.069Z</time>
      </trkpt>
      <trkpt lat="38.87199633" lon="-0.03015017">
        <ele>4.0</ele>
        <time>2018-06-10T06:50:24.069Z</time>
      </trkpt>
      <trkpt lat="38.87205433" lon="-0.03025683">
        <ele>4.0</ele>
        <time>2018-06-10T06:50:25.069Z</time>
      </trkpt>
      <trkpt lat="38.87211217" lon="-0.03036417">
        <ele>4.0</ele>
        <time>2018-06-10T06:50:26.069Z</time>
      </trkpt>
      <trkpt lat="38.87216883" lon="-0.03047217">
        <ele>4.0</ele>
        <time>2018-06-10T06:50:27.069Z</time>
      </trkpt>
      <trkpt lat="38.872225" lon="-0.03058">
        <ele>4.0</ele>
        <time>2018-06-10T06:50:28.069Z</time>
      </trkpt>
      <trkpt lat="38.87228067" lon="-0.03068717">
        <ele>4.0</ele>
        <time>2018-06-10T06:50:29.069Z</time>
      </trkpt>
      <trkpt lat="38.87233667" lon="-0.03079267">
        <ele>4.0</ele>
        <time>2018-06-10T06:50:30.069Z</time>
      </trkpt>
      <trkpt lat="38.87239233" lon="-0.03089667">
        <ele>4.0</ele>
        <time>2018-06-10T06:50:31.069Z</time>
      </trkpt>
      <trkpt lat="38.87244783" lon="-0.03099883">
        <ele>4.0</ele>
        <time>2018-06-10T06:50:32.069Z</time>
      </trkpt>
      <trkpt lat="38.87250217" lon="-0.0310995">
        <ele>4.0</ele>
        <time>2018-06-10T06:50:33.069Z</time>
      </trkpt>
      <trkpt lat="38.87255483" lon="-0.03119917">
        <ele>4.0</ele>
        <time>2018-06-10T06:50:34.069Z</time>
      </trkpt>
      <trkpt lat="38.87260683" lon="-0.03129733">
        <ele>4.0</ele>
        <time>2018-06-10T06:50:35.069Z</time>
      </trkpt>
      <trkpt lat="38.87265833" lon="-0.03139483">
        <ele>4.0</ele>
        <time>2018-06-10T06:50:36.069Z</time>
      </trkpt>
      <trkpt lat="38.87271033" lon="-0.03149167">
        <ele>4.0</ele>
        <time>2018-06-10T06:50:37.069Z</time>
      </trkpt>
      <trkpt lat="38.872763" lon="-0.031589">
        <ele>4.0</ele>
        <time>2018-06-10T06:50:38.069Z</time>
      </trkpt>
      <trkpt lat="38.872816" lon="-0.03168717">
        <ele>4.0</ele>
        <time>2018-06-10T06:50:39.069Z</time>
      </trkpt>
      <trkpt lat="38.87286933" lon="-0.0317855">
        <ele>4.0</ele>
        <time>2018-06-10T06:50:40.069Z</time>
      </trkpt>
      <trkpt lat="38.87292233" lon="-0.03188383">
        <ele>4.0</ele>
        <time>2018-06-10T06:50:41.069Z</time>
      </trkpt>
      <trkpt lat="38.8729755" lon="-0.031982">
        <ele>4.0</ele>
        <time>2018-06-10T06:50:42.069Z</time>
      </trkpt>
      <trkpt lat="38.87302883" lon="-0.03207983">
        <ele>4.0</ele>
        <time>2018-06-10T06:50:43.069Z</time>
      </trkpt>
      <trkpt lat="38.87308217" lon="-0.032178">
        <ele>4.0</ele>
        <time>2018-06-10T06:50:44.069Z</time>
      </trkpt>
      <trkpt lat="38.8731355" lon="-0.03227667">
        <ele>4.0</ele>
        <time>2018-06-10T06:50:45.069Z</time>
      </trkpt>
      <trkpt lat="38.87318867" lon="-0.03237617">
        <ele>4.0</ele>
        <time>2018-06-10T06:50:46.069Z</time>
      </trkpt>
      <trkpt lat="38.87324167" lon="-0.032476">
        <ele>4.0</ele>
        <time>2018-06-10T06:50:47.069Z</time>
      </trkpt>
      <trkpt lat="38.873295" lon="-0.03257617">
        <ele>4.0</ele>
        <time>2018-06-10T06:50:48.069Z</time>
      </trkpt>
      <trkpt lat="38.87334833" lon="-0.032676">
        <ele>4.0</ele>
        <time>2018-06-10T06:50:49.069Z</time>
      </trkpt>
      <trkpt lat="38.87340183" lon="-0.032776">
        <ele>4.0</ele>
        <time>2018-06-10T06:50:50.069Z</time>
      </trkpt>
      <trkpt lat="38.87345517" lon="-0.0328755">
        <ele>4.0</ele>
        <time>2018-06-10T06:50:51.069Z</time>
      </trkpt>
      <trkpt lat="38.87350833" lon="-0.03297483">
        <ele>4.0</ele>
        <time>2018-06-10T06:50:52.069Z</time>
      </trkpt>
      <trkpt lat="38.873561" lon="-0.03307383">
        <ele>4.0</ele>
        <time>2018-06-10T06:50:53.069Z</time>
      </trkpt>
      <trkpt lat="38.87361283" lon="-0.033173">
        <ele>4.0</ele>
        <time>2018-06-10T06:50:54.069Z</time>
      </trkpt>
      <trkpt lat="38.8736645" lon="-0.03327233">
        <ele>4.0</ele>
        <time>2018-06-10T06:50:55.069Z</time>
      </trkpt>
      <trkpt lat="38.87371617" lon="-0.03337167">
        <ele>4.0</ele>
        <time>2018-06-10T06:50:56.069Z</time>
      </trkpt>
      <trkpt lat="38.8737685" lon="-0.03347117">
        <ele>4.0</ele>
        <time>2018-06-10T06:50:57.069Z</time>
      </trkpt>
      <trkpt lat="38.87382133" lon="-0.0335705">
        <ele>4.0</ele>
        <time>2018-06-10T06:50:58.069Z</time>
      </trkpt>
      <trkpt lat="38.87387483" lon="-0.03367017">
        <ele>4.0</ele>
        <time>2018-06-10T06:50:59.069Z</time>
      </trkpt>
      <trkpt lat="38.87392867" lon="-0.03376967">
        <ele>3.0</ele>
        <time>2018-06-10T06:51:00.069Z</time>
      </trkpt>
      <trkpt lat="38.87398233" lon="-0.033869">
        <ele>4.0</ele>
        <time>2018-06-10T06:51:01.069Z</time>
      </trkpt>
      <trkpt lat="38.87403567" lon="-0.0339685">
        <ele>3.0</ele>
        <time>2018-06-10T06:51:02.069Z</time>
      </trkpt>
      <trkpt lat="38.874089" lon="-0.03406833">
        <ele>3.0</ele>
        <time>2018-06-10T06:51:03.069Z</time>
      </trkpt>
      <trkpt lat="38.87414217" lon="-0.03416833">
        <ele>3.0</ele>
        <time>2018-06-10T06:51:04.069Z</time>
      </trkpt>
      <trkpt lat="38.87419517" lon="-0.03426883">
        <ele>3.0</ele>
        <time>2018-06-10T06:51:05.069Z</time>
      </trkpt>
      <trkpt lat="38.87424817" lon="-0.03436917">
        <ele>3.0</ele>
        <time>2018-06-10T06:51:06.069Z</time>
      </trkpt>
      <trkpt lat="38.8743015" lon="-0.03446917">
        <ele>3.0</ele>
        <time>2018-06-10T06:51:07.069Z</time>
      </trkpt>
      <trkpt lat="38.87435533" lon="-0.03456867">
        <ele>3.0</ele>
        <time>2018-06-10T06:51:08.069Z</time>
      </trkpt>
      <trkpt lat="38.87440933" lon="-0.03466833">
        <ele>4.0</ele>
        <time>2018-06-10T06:51:09.069Z</time>
      </trkpt>
      <trkpt lat="38.87446367" lon="-0.0347675">
        <ele>4.0</ele>
        <time>2018-06-10T06:51:10.069Z</time>
      </trkpt>
      <trkpt lat="38.87451783" lon="-0.03486633">
        <ele>4.0</ele>
        <time>2018-06-10T06:51:11.069Z</time>
      </trkpt>
      <trkpt lat="38.87457217" lon="-0.03496483">
        <ele>4.0</ele>
        <time>2018-06-10T06:51:12.069Z</time>
      </trkpt>
      <trkpt lat="38.87462633" lon="-0.03506333">
        <ele>4.0</ele>
        <time>2018-06-10T06:51:13.069Z</time>
      </trkpt>
      <trkpt lat="38.87468033" lon="-0.035162">
        <ele>4.0</ele>
        <time>2018-06-10T06:51:14.069Z</time>
      </trkpt>
      <trkpt lat="38.874734" lon="-0.03526133">
        <ele>4.0</ele>
        <time>2018-06-10T06:51:15.069Z</time>
      </trkpt>
      <trkpt lat="38.8747875" lon="-0.03536133">
        <ele>4.0</ele>
        <time>2018-06-10T06:51:16.069Z</time>
      </trkpt>
      <trkpt lat="38.874841" lon="-0.035462">
        <ele>4.0</ele>
        <time>2018-06-10T06:51:17.069Z</time>
      </trkpt>
      <trkpt lat="38.87489483" lon="-0.03556333">
        <ele>4.0</ele>
        <time>2018-06-10T06:51:18.069Z</time>
      </trkpt>
      <trkpt lat="38.87494867" lon="-0.0356655">
        <ele>4.0</ele>
        <time>2018-06-10T06:51:19.069Z</time>
      </trkpt>
      <trkpt lat="38.875003" lon="-0.035768">
        <ele>4.0</ele>
        <time>2018-06-10T06:51:20.069Z</time>
      </trkpt>
      <trkpt lat="38.87505817" lon="-0.035871">
        <ele>4.0</ele>
        <time>2018-06-10T06:51:21.069Z</time>
      </trkpt>
      <trkpt lat="38.8751135" lon="-0.0359745">
        <ele>4.0</ele>
        <time>2018-06-10T06:51:22.069Z</time>
      </trkpt>
      <trkpt lat="38.87516933" lon="-0.03607867">
        <ele>4.0</ele>
        <time>2018-06-10T06:51:23.069Z</time>
      </trkpt>
      <trkpt lat="38.87522533" lon="-0.0361835">
        <ele>4.0</ele>
        <time>2018-06-10T06:51:24.069Z</time>
      </trkpt>
      <trkpt lat="38.87528183" lon="-0.03628867">
        <ele>3.0</ele>
        <time>2018-06-10T06:51:25.069Z</time>
      </trkpt>
      <trkpt lat="38.87533833" lon="-0.03639417">
        <ele>3.0</ele>
        <time>2018-06-10T06:51:26.069Z</time>
      </trkpt>
      <trkpt lat="38.87539517" lon="-0.0364995">
        <ele>3.0</ele>
        <time>2018-06-10T06:51:27.069Z</time>
      </trkpt>
      <trkpt lat="38.87545167" lon="-0.03660533">
        <ele>3.0</ele>
        <time>2018-06-10T06:51:28.069Z</time>
      </trkpt>
      <trkpt lat="38.87550833" lon="-0.0367115">
        <ele>4.0</ele>
        <time>2018-06-10T06:51:29.069Z</time>
      </trkpt>
      <trkpt lat="38.87556467" lon="-0.03681783">
        <ele>4.0</ele>
        <time>2018-06-10T06:51:30.069Z</time>
      </trkpt>
      <trkpt lat="38.875621" lon="-0.03692367">
        <ele>4.0</ele>
        <time>2018-06-10T06:51:31.069Z</time>
      </trkpt>
      <trkpt lat="38.875677" lon="-0.03702917">
        <ele>4.0</ele>
        <time>2018-06-10T06:51:32.069Z</time>
      </trkpt>
      <trkpt lat="38.875733" lon="-0.03713417">
        <ele>4.0</ele>
        <time>2018-06-10T06:51:33.069Z</time>
      </trkpt>
      <trkpt lat="38.87578867" lon="-0.03723917">
        <ele>4.0</ele>
        <time>2018-06-10T06:51:34.069Z</time>
      </trkpt>
      <trkpt lat="38.87584433" lon="-0.03734433">
        <ele>4.0</ele>
        <time>2018-06-10T06:51:35.069Z</time>
      </trkpt>
      <trkpt lat="38.87590067" lon="-0.03744967">
        <ele>4.0</ele>
        <time>2018-06-10T06:51:36.069Z</time>
      </trkpt>
      <trkpt lat="38.87595733" lon="-0.03755517">
        <ele>4.0</ele>
        <time>2018-06-10T06:51:37.069Z</time>
      </trkpt>
      <trkpt lat="38.87601383" lon="-0.03766083">
        <ele>4.0</ele>
        <time>2018-06-10T06:51:38.069Z</time>
      </trkpt>
      <trkpt lat="38.8760695" lon="-0.0377665">
        <ele>4.0</ele>
        <time>2018-06-10T06:51:39.069Z</time>
      </trkpt>
      <trkpt lat="38.876125" lon="-0.03787183">
        <ele>4.0</ele>
        <time>2018-06-10T06:51:40.069Z</time>
      </trkpt>
      <trkpt lat="38.8761805" lon="-0.03797683">
        <ele>4.0</ele>
        <time>2018-06-10T06:51:41.069Z</time>
      </trkpt>
      <trkpt lat="38.87623667" lon="-0.03808167">
        <ele>4.0</ele>
        <time>2018-06-10T06:51:42.069Z</time>
      </trkpt>
      <trkpt lat="38.876293" lon="-0.03818617">
        <ele>4.0</ele>
        <time>2018-06-10T06:51:43.069Z</time>
      </trkpt>
      <trkpt lat="38.8763495" lon="-0.0382905">
        <ele>4.0</ele>
        <time>2018-06-10T06:51:44.069Z</time>
      </trkpt>
      <trkpt lat="38.8764055" lon="-0.03839483">
        <ele>4.0</ele>
        <time>2018-06-10T06:51:45.069Z</time>
      </trkpt>
      <trkpt lat="38.876461" lon="-0.038498">
        <ele>4.0</ele>
        <time>2018-06-10T06:51:46.069Z</time>
      </trkpt>
      <trkpt lat="38.87651617" lon="-0.03860017">
        <ele>4.0</ele>
        <time>2018-06-10T06:51:47.069Z</time>
      </trkpt>
      <trkpt lat="38.87657117" lon="-0.03870133">
        <ele>4.0</ele>
        <time>2018-06-10T06:51:48.069Z</time>
      </trkpt>
      <trkpt lat="38.876626" lon="-0.03880233">
        <ele>4.0</ele>
        <time>2018-06-10T06:51:49.069Z</time>
      </trkpt>
      <trkpt lat="38.87668117" lon="-0.03890333">
        <ele>4.0</ele>
        <time>2018-06-10T06:51:50.069Z</time>
      </trkpt>
      <trkpt lat="38.87673683" lon="-0.0390045">
        <ele>4.0</ele>
        <time>2018-06-10T06:51:51.069Z</time>
      </trkpt>
      <trkpt lat="38.87679283" lon="-0.0391065">
        <ele>4.0</ele>
        <time>2018-06-10T06:51:52.069Z</time>
      </trkpt>
      <trkpt lat="38.8768485" lon="-0.0392095">
        <ele>4.0</ele>
        <time>2018-06-10T06:51:53.069Z</time>
      </trkpt>
      <trkpt lat="38.87690433" lon="-0.03931333">
        <ele>4.0</ele>
        <time>2018-06-10T06:51:54.069Z</time>
      </trkpt>
      <trkpt lat="38.87696033" lon="-0.03941783">
        <ele>4.0</ele>
        <time>2018-06-10T06:51:55.069Z</time>
      </trkpt>
      <trkpt lat="38.87701683" lon="-0.0395225">
        <ele>4.0</ele>
        <time>2018-06-10T06:51:56.069Z</time>
      </trkpt>
      <trkpt lat="38.87707317" lon="-0.0396275">
        <ele>4.0</ele>
        <time>2018-06-10T06:51:57.069Z</time>
      </trkpt>
      <trkpt lat="38.87712933" lon="-0.03973233">
        <ele>4.0</ele>
        <time>2018-06-10T06:51:58.069Z</time>
      </trkpt>
      <trkpt lat="38.87718533" lon="-0.03983717">
        <ele>4.0</ele>
        <time>2018-06-10T06:51:59.069Z</time>
      </trkpt>
      <trkpt lat="38.87724167" lon="-0.03994217">
        <ele>4.0</ele>
        <time>2018-06-10T06:52:00.069Z</time>
      </trkpt>
      <trkpt lat="38.87729833" lon="-0.04004733">
        <ele>4.0</ele>
        <time>2018-06-10T06:52:01.069Z</time>
      </trkpt>
      <trkpt lat="38.8773545" lon="-0.0401525">
        <ele>4.0</ele>
        <time>2018-06-10T06:52:02.069Z</time>
      </trkpt>
      <trkpt lat="38.87740967" lon="-0.04025717">
        <ele>4.0</ele>
        <time>2018-06-10T06:52:03.069Z</time>
      </trkpt>
      <trkpt lat="38.87746433" lon="-0.04036067">
        <ele>4.0</ele>
        <time>2018-06-10T06:52:04.069Z</time>
      </trkpt>
      <trkpt lat="38.87751867" lon="-0.040463">
        <ele>4.0</ele>
        <time>2018-06-10T06:52:05.069Z</time>
      </trkpt>
      <trkpt lat="38.87757233" lon="-0.04056417">
        <ele>4.0</ele>
        <time>2018-06-10T06:52:06.069Z</time>
      </trkpt>
      <trkpt lat="38.87762483" lon="-0.04066517">
        <ele>4.0</ele>
        <time>2018-06-10T06:52:07.069Z</time>
      </trkpt>
      <trkpt lat="38.87767717" lon="-0.040766">
        <ele>4.0</ele>
        <time>2018-06-10T06:52:08.069Z</time>
      </trkpt>
      <trkpt lat="38.87773" lon="-0.0408665">
        <ele>4.0</ele>
        <time>2018-06-10T06:52:09.069Z</time>
      </trkpt>
      <trkpt lat="38.87778317" lon="-0.04096667">
        <ele>4.0</ele>
        <time>2018-06-10T06:52:10.069Z</time>
      </trkpt>
      <trkpt lat="38.87783683" lon="-0.04106717">
        <ele>4.0</ele>
        <time>2018-06-10T06:52:11.069Z</time>
      </trkpt>
      <trkpt lat="38.87789067" lon="-0.0411685">
        <ele>4.0</ele>
        <time>2018-06-10T06:52:12.069Z</time>
      </trkpt>
      <trkpt lat="38.87794433" lon="-0.0412705">
        <ele>4.0</ele>
        <time>2018-06-10T06:52:13.069Z</time>
      </trkpt>
      <trkpt lat="38.87799817" lon="-0.041373">
        <ele>4.0</ele>
        <time>2018-06-10T06:52:14.069Z</time>
      </trkpt>
      <trkpt lat="38.878052" lon="-0.04147483">
        <ele>4.0</ele>
        <time>2018-06-10T06:52:15.069Z</time>
      </trkpt>
      <trkpt lat="38.87810567" lon="-0.04157617">
        <ele>4.0</ele>
        <time>2018-06-10T06:52:16.069Z</time>
      </trkpt>
      <trkpt lat="38.87815867" lon="-0.04167683">
        <ele>4.0</ele>
        <time>2018-06-10T06:52:17.069Z</time>
      </trkpt>
      <trkpt lat="38.87821183" lon="-0.041777">
        <ele>4.0</ele>
        <time>2018-06-10T06:52:18.069Z</time>
      </trkpt>
      <trkpt lat="38.87826533" lon="-0.041876">
        <ele>4.0</ele>
        <time>2018-06-10T06:52:19.069Z</time>
      </trkpt>
      <trkpt lat="38.87831933" lon="-0.04197467">
        <ele>4.0</ele>
        <time>2018-06-10T06:52:20.069Z</time>
      </trkpt>
      <trkpt lat="38.87837367" lon="-0.04207383">
        <ele>4.0</ele>
        <time>2018-06-10T06:52:21.069Z</time>
      </trkpt>
      <trkpt lat="38.878428" lon="-0.04217433">
        <ele>4.0</ele>
        <time>2018-06-10T06:52:22.069Z</time>
      </trkpt>
      <trkpt lat="38.87848233" lon="-0.0422755">
        <ele>4.0</ele>
        <time>2018-06-10T06:52:23.069Z</time>
      </trkpt>
      <trkpt lat="38.87853633" lon="-0.042377">
        <ele>4.0</ele>
        <time>2018-06-10T06:52:24.069Z</time>
      </trkpt>
      <trkpt lat="38.87859083" lon="-0.04247833">
        <ele>4.0</ele>
        <time>2018-06-10T06:52:25.069Z</time>
      </trkpt>
      <trkpt lat="38.87864533" lon="-0.04257933">
        <ele>4.0</ele>
        <time>2018-06-10T06:52:26.069Z</time>
      </trkpt>
      <trkpt lat="38.87870033" lon="-0.04267983">
        <ele>4.0</ele>
        <time>2018-06-10T06:52:27.069Z</time>
      </trkpt>
      <trkpt lat="38.87875517" lon="-0.04278033">
        <ele>4.0</ele>
        <time>2018-06-10T06:52:28.069Z</time>
      </trkpt>
      <trkpt lat="38.8788095" lon="-0.04288083">
        <ele>4.0</ele>
        <time>2018-06-10T06:52:29.069Z</time>
      </trkpt>
      <trkpt lat="38.8788635" lon="-0.04298167">
        <ele>4.0</ele>
        <time>2018-06-10T06:52:30.069Z</time>
      </trkpt>
      <trkpt lat="38.87891767" lon="-0.04308267">
        <ele>4.0</ele>
        <time>2018-06-10T06:52:31.069Z</time>
      </trkpt>
      <trkpt lat="38.87897167" lon="-0.043184">
        <ele>4.0</ele>
        <time>2018-06-10T06:52:32.069Z</time>
      </trkpt>
      <trkpt lat="38.87902567" lon="-0.0432855">
        <ele>4.0</ele>
        <time>2018-06-10T06:52:33.069Z</time>
      </trkpt>
      <trkpt lat="38.87908" lon="-0.04338733">
        <ele>4.0</ele>
        <time>2018-06-10T06:52:34.069Z</time>
      </trkpt>
      <trkpt lat="38.87913467" lon="-0.04348933">
        <ele>4.0</ele>
        <time>2018-06-10T06:52:35.069Z</time>
      </trkpt>
      <trkpt lat="38.87918933" lon="-0.0435915">
        <ele>4.0</ele>
        <time>2018-06-10T06:52:36.069Z</time>
      </trkpt>
      <trkpt lat="38.87924417" lon="-0.0436935">
        <ele>4.0</ele>
        <time>2018-06-10T06:52:37.069Z</time>
      </trkpt>
      <trkpt lat="38.87929867" lon="-0.04379533">
        <ele>4.0</ele>
        <time>2018-06-10T06:52:38.069Z</time>
      </trkpt>
      <trkpt lat="38.87935267" lon="-0.0438975">
        <ele>4.0</ele>
        <time>2018-06-10T06:52:39.069Z</time>
      </trkpt>
      <trkpt lat="38.87940667" lon="-0.04399983">
        <ele>4.0</ele>
        <time>2018-06-10T06:52:40.069Z</time>
      </trkpt>
      <trkpt lat="38.87946067" lon="-0.04410267">
        <ele>4.0</ele>
        <time>2018-06-10T06:52:41.069Z</time>
      </trkpt>
      <trkpt lat="38.87951533" lon="-0.0442055">
        <ele>4.0</ele>
        <time>2018-06-10T06:52:42.069Z</time>
      </trkpt>
      <trkpt lat="38.8795705" lon="-0.0443085">
        <ele>4.0</ele>
        <time>2018-06-10T06:52:43.069Z</time>
      </trkpt>
      <trkpt lat="38.87962617" lon="-0.0444115">
        <ele>4.0</ele>
        <time>2018-06-10T06:52:44.069Z</time>
      </trkpt>
      <trkpt lat="38.8796815" lon="-0.04451417">
        <ele>4.0</ele>
        <time>2018-06-10T06:52:45.069Z</time>
      </trkpt>
      <trkpt lat="38.87973617" lon="-0.04461667">
        <ele>4.0</ele>
        <time>2018-06-10T06:52:46.069Z</time>
      </trkpt>
      <trkpt lat="38.87979033" lon="-0.04471867">
        <ele>4.0</ele>
        <time>2018-06-10T06:52:47.069Z</time>
      </trkpt>
      <trkpt lat="38.87984433" lon="-0.04482">
        <ele>4.0</ele>
        <time>2018-06-10T06:52:48.069Z</time>
      </trkpt>
      <trkpt lat="38.87989833" lon="-0.04492133">
        <ele>4.0</ele>
        <time>2018-06-10T06:52:49.069Z</time>
      </trkpt>
      <trkpt lat="38.8799525" lon="-0.04502267">
        <ele>4.0</ele>
        <time>2018-06-10T06:52:50.069Z</time>
      </trkpt>
      <trkpt lat="38.88000683" lon="-0.045124">
        <ele>4.0</ele>
        <time>2018-06-10T06:52:51.069Z</time>
      </trkpt>
      <trkpt lat="38.8800615" lon="-0.04522517">
        <ele>4.0</ele>
        <time>2018-06-10T06:52:52.069Z</time>
      </trkpt>
      <trkpt lat="38.88011567" lon="-0.0453265">
        <ele>4.0</ele>
        <time>2018-06-10T06:52:53.069Z</time>
      </trkpt>
      <trkpt lat="38.88016917" lon="-0.04542867">
        <ele>4.0</ele>
        <time>2018-06-10T06:52:54.069Z</time>
      </trkpt>
      <trkpt lat="38.88022233" lon="-0.045531">
        <ele>4.0</ele>
        <time>2018-06-10T06:52:55.069Z</time>
      </trkpt>
      <trkpt lat="38.88027617" lon="-0.0456335">
        <ele>4.0</ele>
        <time>2018-06-10T06:52:56.069Z</time>
      </trkpt>
      <trkpt lat="38.8803305" lon="-0.04573517">
        <ele>4.0</ele>
        <time>2018-06-10T06:52:57.069Z</time>
      </trkpt>
      <trkpt lat="38.880385" lon="-0.045837">
        <ele>4.0</ele>
        <time>2018-06-10T06:52:58.069Z</time>
      </trkpt>
      <trkpt lat="38.8804395" lon="-0.045939">
        <ele>4.0</ele>
        <time>2018-06-10T06:52:59.069Z</time>
      </trkpt>
      <trkpt lat="38.880494" lon="-0.04604117">
        <ele>4.0</ele>
        <time>2018-06-10T06:53:00.069Z</time>
      </trkpt>
      <trkpt lat="38.88054883" lon="-0.0461425">
        <ele>4.0</ele>
        <time>2018-06-10T06:53:01.069Z</time>
      </trkpt>
      <trkpt lat="38.88060533" lon="-0.046242">
        <ele>4.0</ele>
        <time>2018-06-10T06:53:02.069Z</time>
      </trkpt>
      <trkpt lat="38.880663" lon="-0.0463405">
        <ele>4.0</ele>
        <time>2018-06-10T06:53:03.069Z</time>
      </trkpt>
      <trkpt lat="38.88072117" lon="-0.04643883">
        <ele>4.0</ele>
        <time>2018-06-10T06:53:04.069Z</time>
      </trkpt>
      <trkpt lat="38.880779" lon="-0.0465395">
        <ele>4.0</ele>
        <time>2018-06-10T06:53:05.069Z</time>
      </trkpt>
      <trkpt lat="38.88083567" lon="-0.0466425">
        <ele>4.0</ele>
        <time>2018-06-10T06:53:06.069Z</time>
      </trkpt>
      <trkpt lat="38.88089183" lon="-0.04674667">
        <ele>4.0</ele>
        <time>2018-06-10T06:53:07.069Z</time>
      </trkpt>
      <trkpt lat="38.88094817" lon="-0.046851">
        <ele>4.0</ele>
        <time>2018-06-10T06:53:08.069Z</time>
      </trkpt>
      <trkpt lat="38.88100483" lon="-0.04695433">
        <ele>4.0</ele>
        <time>2018-06-10T06:53:09.069Z</time>
      </trkpt>
      <trkpt lat="38.88106167" lon="-0.04705817">
        <ele>4.0</ele>
        <time>2018-06-10T06:53:10.069Z</time>
      </trkpt>
      <trkpt lat="38.88111783" lon="-0.04716217">
        <ele>4.0</ele>
        <time>2018-06-10T06:53:11.069Z</time>
      </trkpt>
      <trkpt lat="38.88117417" lon="-0.04726683">
        <ele>4.0</ele>
        <time>2018-06-10T06:53:12.069Z</time>
      </trkpt>
      <trkpt lat="38.88123" lon="-0.04737117">
        <ele>4.0</ele>
        <time>2018-06-10T06:53:13.069Z</time>
      </trkpt>
      <trkpt lat="38.88128583" lon="-0.0474755">
        <ele>4.0</ele>
        <time>2018-06-10T06:53:14.069Z</time>
      </trkpt>
      <trkpt lat="38.88134117" lon="-0.04757867">
        <ele>4.0</ele>
        <time>2018-06-10T06:53:15.069Z</time>
      </trkpt>
      <trkpt lat="38.88139667" lon="-0.04768183">
        <ele>4.0</ele>
        <time>2018-06-10T06:53:16.069Z</time>
      </trkpt>
      <trkpt lat="38.88145233" lon="-0.04778417">
        <ele>4.0</ele>
        <time>2018-06-10T06:53:17.069Z</time>
      </trkpt>
      <trkpt lat="38.88150767" lon="-0.0478865">
        <ele>4.0</ele>
        <time>2018-06-10T06:53:18.069Z</time>
      </trkpt>
      <trkpt lat="38.881563" lon="-0.0479885">
        <ele>4.0</ele>
        <time>2018-06-10T06:53:19.069Z</time>
      </trkpt>
      <trkpt lat="38.881618" lon="-0.04809067">
        <ele>4.0</ele>
        <time>2018-06-10T06:53:20.069Z</time>
      </trkpt>
      <trkpt lat="38.88167267" lon="-0.048193">
        <ele>4.0</ele>
        <time>2018-06-10T06:53:21.069Z</time>
      </trkpt>
      <trkpt lat="38.881727" lon="-0.04829567">
        <ele>4.0</ele>
        <time>2018-06-10T06:53:22.069Z</time>
      </trkpt>
      <trkpt lat="38.88178117" lon="-0.048398">
        <ele>4.0</ele>
        <time>2018-06-10T06:53:23.069Z</time>
      </trkpt>
      <trkpt lat="38.8818355" lon="-0.04850033">
        <ele>4.0</ele>
        <time>2018-06-10T06:53:24.069Z</time>
      </trkpt>
      <trkpt lat="38.88188967" lon="-0.04860317">
        <ele>4.0</ele>
        <time>2018-06-10T06:53:25.069Z</time>
      </trkpt>
      <trkpt lat="38.881944" lon="-0.04870583">
        <ele>4.0</ele>
        <time>2018-06-10T06:53:26.069Z</time>
      </trkpt>
      <trkpt lat="38.88199817" lon="-0.048808">
        <ele>4.0</ele>
        <time>2018-06-10T06:53:27.069Z</time>
      </trkpt>
      <trkpt lat="38.88205233" lon="-0.04890967">
        <ele>4.0</ele>
        <time>2018-06-10T06:53:28.069Z</time>
      </trkpt>
      <trkpt lat="38.88210617" lon="-0.04901133">
        <ele>3.0</ele>
        <time>2018-06-10T06:53:29.069Z</time>
      </trkpt>
      <trkpt lat="38.88215983" lon="-0.0491135">
        <ele>3.0</ele>
        <time>2018-06-10T06:53:30.069Z</time>
      </trkpt>
      <trkpt lat="38.88221383" lon="-0.04921567">
        <ele>3.0</ele>
        <time>2018-06-10T06:53:31.069Z</time>
      </trkpt>
      <trkpt lat="38.8822685" lon="-0.049318">
        <ele>3.0</ele>
        <time>2018-06-10T06:53:32.069Z</time>
      </trkpt>
      <trkpt lat="38.8823235" lon="-0.04942017">
        <ele>3.0</ele>
        <time>2018-06-10T06:53:33.069Z</time>
      </trkpt>
      <trkpt lat="38.8823785" lon="-0.049523">
        <ele>4.0</ele>
        <time>2018-06-10T06:53:34.069Z</time>
      </trkpt>
      <trkpt lat="38.8824335" lon="-0.049626">
        <ele>4.0</ele>
        <time>2018-06-10T06:53:35.069Z</time>
      </trkpt>
      <trkpt lat="38.882488" lon="-0.04972933">
        <ele>3.0</ele>
        <time>2018-06-10T06:53:36.069Z</time>
      </trkpt>
      <trkpt lat="38.88254267" lon="-0.04983183">
        <ele>3.0</ele>
        <time>2018-06-10T06:53:37.069Z</time>
      </trkpt>
      <trkpt lat="38.88259733" lon="-0.04993417">
        <ele>3.0</ele>
        <time>2018-06-10T06:53:38.069Z</time>
      </trkpt>
      <trkpt lat="38.8826515" lon="-0.05003667">
        <ele>3.0</ele>
        <time>2018-06-10T06:53:39.069Z</time>
      </trkpt>
      <trkpt lat="38.88270583" lon="-0.05013967">
        <ele>3.0</ele>
        <time>2018-06-10T06:53:40.069Z</time>
      </trkpt>
      <trkpt lat="38.88275983" lon="-0.05024267">
        <ele>3.0</ele>
        <time>2018-06-10T06:53:41.069Z</time>
      </trkpt>
      <trkpt lat="38.88281417" lon="-0.0503455">
        <ele>3.0</ele>
        <time>2018-06-10T06:53:42.069Z</time>
      </trkpt>
      <trkpt lat="38.8828685" lon="-0.050448">
        <ele>3.0</ele>
        <time>2018-06-10T06:53:43.069Z</time>
      </trkpt>
      <trkpt lat="38.882923" lon="-0.0505505">
        <ele>3.0</ele>
        <time>2018-06-10T06:53:44.069Z</time>
      </trkpt>
      <trkpt lat="38.8829775" lon="-0.0506525">
        <ele>3.0</ele>
        <time>2018-06-10T06:53:45.069Z</time>
      </trkpt>
      <trkpt lat="38.883032" lon="-0.05075417">
        <ele>3.0</ele>
        <time>2018-06-10T06:53:46.069Z</time>
      </trkpt>
      <trkpt lat="38.8830865" lon="-0.05085583">
        <ele>3.0</ele>
        <time>2018-06-10T06:53:47.069Z</time>
      </trkpt>
      <trkpt lat="38.88314067" lon="-0.050958">
        <ele>4.0</ele>
        <time>2018-06-10T06:53:48.069Z</time>
      </trkpt>
      <trkpt lat="38.88319467" lon="-0.0510605">
        <ele>4.0</ele>
        <time>2018-06-10T06:53:49.069Z</time>
      </trkpt>
      <trkpt lat="38.883248" lon="-0.051163">
        <ele>4.0</ele>
        <time>2018-06-10T06:53:50.069Z</time>
      </trkpt>
      <trkpt lat="38.88330133" lon="-0.0512655">
        <ele>4.0</ele>
        <time>2018-06-10T06:53:51.069Z</time>
      </trkpt>
      <trkpt lat="38.8833545" lon="-0.05136783">
        <ele>4.0</ele>
        <time>2018-06-10T06:53:52.069Z</time>
      </trkpt>
      <trkpt lat="38.883408" lon="-0.05147">
        <ele>4.0</ele>
        <time>2018-06-10T06:53:53.069Z</time>
      </trkpt>
      <trkpt lat="38.883462" lon="-0.05157217">
        <ele>4.0</ele>
        <time>2018-06-10T06:53:54.069Z</time>
      </trkpt>
      <trkpt lat="38.88351583" lon="-0.05167483">
        <ele>4.0</ele>
        <time>2018-06-10T06:53:55.069Z</time>
      </trkpt>
      <trkpt lat="38.8835695" lon="-0.05177833">
        <ele>4.0</ele>
        <time>2018-06-10T06:53:56.069Z</time>
      </trkpt>
      <trkpt lat="38.88362283" lon="-0.05188167">
        <ele>4.0</ele>
        <time>2018-06-10T06:53:57.069Z</time>
      </trkpt>
      <trkpt lat="38.88367717" lon="-0.0519845">
        <ele>4.0</ele>
        <time>2018-06-10T06:53:58.069Z</time>
      </trkpt>
      <trkpt lat="38.88373217" lon="-0.05208633">
        <ele>4.0</ele>
        <time>2018-06-10T06:53:59.069Z</time>
      </trkpt>
      <trkpt lat="38.88378683" lon="-0.05218767">
        <ele>4.0</ele>
        <time>2018-06-10T06:54:00.069Z</time>
      </trkpt>
      <trkpt lat="38.88384133" lon="-0.05228933">
        <ele>4.0</ele>
        <time>2018-06-10T06:54:01.069Z</time>
      </trkpt>
      <trkpt lat="38.88389533" lon="-0.05239117">
        <ele>4.0</ele>
        <time>2018-06-10T06:54:02.069Z</time>
      </trkpt>
      <trkpt lat="38.88394967" lon="-0.05249267">
        <ele>4.0</ele>
        <time>2018-06-10T06:54:03.069Z</time>
      </trkpt>
      <trkpt lat="38.88400367" lon="-0.0525935">
        <ele>4.0</ele>
        <time>2018-06-10T06:54:04.069Z</time>
      </trkpt>
      <trkpt lat="38.8840575" lon="-0.05269417">
        <ele>4.0</ele>
        <time>2018-06-10T06:54:05.069Z</time>
      </trkpt>
      <trkpt lat="38.88411133" lon="-0.052795">
        <ele>4.0</ele>
        <time>2018-06-10T06:54:06.069Z</time>
      </trkpt>
      <trkpt lat="38.88416533" lon="-0.05289583">
        <ele>4.0</ele>
        <time>2018-06-10T06:54:07.069Z</time>
      </trkpt>
      <trkpt lat="38.88421983" lon="-0.05299633">
        <ele>3.0</ele>
        <time>2018-06-10T06:54:08.069Z</time>
      </trkpt>
      <trkpt lat="38.88427433" lon="-0.0530965">
        <ele>3.0</ele>
        <time>2018-06-10T06:54:09.069Z</time>
      </trkpt>
      <trkpt lat="38.88432883" lon="-0.053197">
        <ele>3.0</ele>
        <time>2018-06-10T06:54:10.069Z</time>
      </trkpt>
      <trkpt lat="38.88438317" lon="-0.05329867">
        <ele>3.0</ele>
        <time>2018-06-10T06:54:11.069Z</time>
      </trkpt>
      <trkpt lat="38.88443767" lon="-0.05340133">
        <ele>3.0</ele>
        <time>2018-06-10T06:54:12.069Z</time>
      </trkpt>
      <trkpt lat="38.88449317" lon="-0.05350433">
        <ele>3.0</ele>
        <time>2018-06-10T06:54:13.069Z</time>
      </trkpt>
      <trkpt lat="38.884549" lon="-0.0536085">
        <ele>3.0</ele>
        <time>2018-06-10T06:54:14.069Z</time>
      </trkpt>
      <trkpt lat="38.8846045" lon="-0.05371317">
        <ele>3.0</ele>
        <time>2018-06-10T06:54:15.069Z</time>
      </trkpt>
      <trkpt lat="38.88465917" lon="-0.05381867">
        <ele>3.0</ele>
        <time>2018-06-10T06:54:16.069Z</time>
      </trkpt>
      <trkpt lat="38.884714" lon="-0.05392367">
        <ele>3.0</ele>
        <time>2018-06-10T06:54:17.069Z</time>
      </trkpt>
      <trkpt lat="38.88476933" lon="-0.05402817">
        <ele>3.0</ele>
        <time>2018-06-10T06:54:18.069Z</time>
      </trkpt>
      <trkpt lat="38.88482517" lon="-0.0541325">
        <ele>4.0</ele>
        <time>2018-06-10T06:54:19.069Z</time>
      </trkpt>
      <trkpt lat="38.88488167" lon="-0.05423683">
        <ele>3.0</ele>
        <time>2018-06-10T06:54:20.069Z</time>
      </trkpt>
      <trkpt lat="38.884938" lon="-0.0543415">
        <ele>4.0</ele>
        <time>2018-06-10T06:54:21.069Z</time>
      </trkpt>
      <trkpt lat="38.884994" lon="-0.05444617">
        <ele>4.0</ele>
        <time>2018-06-10T06:54:22.069Z</time>
      </trkpt>
      <trkpt lat="38.88504967" lon="-0.054551">
        <ele>4.0</ele>
        <time>2018-06-10T06:54:23.069Z</time>
      </trkpt>
      <trkpt lat="38.8851055" lon="-0.05465533">
        <ele>4.0</ele>
        <time>2018-06-10T06:54:24.069Z</time>
      </trkpt>
      <trkpt lat="38.88516167" lon="-0.05475967">
        <ele>4.0</ele>
        <time>2018-06-10T06:54:25.069Z</time>
      </trkpt>
      <trkpt lat="38.885218" lon="-0.054864">
        <ele>4.0</ele>
        <time>2018-06-10T06:54:26.069Z</time>
      </trkpt>
      <trkpt lat="38.88527417" lon="-0.05496833">
        <ele>4.0</ele>
        <time>2018-06-10T06:54:27.069Z</time>
      </trkpt>
      <trkpt lat="38.88532967" lon="-0.05507283">
        <ele>4.0</ele>
        <time>2018-06-10T06:54:28.069Z</time>
      </trkpt>
      <trkpt lat="38.885385" lon="-0.05517717">
        <ele>4.0</ele>
        <time>2018-06-10T06:54:29.069Z</time>
      </trkpt>
      <trkpt lat="38.88544033" lon="-0.05528133">
        <ele>4.0</ele>
        <time>2018-06-10T06:54:30.069Z</time>
      </trkpt>
      <trkpt lat="38.88549583" lon="-0.05538533">
        <ele>4.0</ele>
        <time>2018-06-10T06:54:31.069Z</time>
      </trkpt>
      <trkpt lat="38.88555167" lon="-0.0554895">
        <ele>3.0</ele>
        <time>2018-06-10T06:54:32.069Z</time>
      </trkpt>
      <trkpt lat="38.88560767" lon="-0.05559367">
        <ele>3.0</ele>
        <time>2018-06-10T06:54:33.069Z</time>
      </trkpt>
      <trkpt lat="38.88566417" lon="-0.05569783">
        <ele>3.0</ele>
        <time>2018-06-10T06:54:34.069Z</time>
      </trkpt>
      <trkpt lat="38.8857215" lon="-0.05580083">
        <ele>3.0</ele>
        <time>2018-06-10T06:54:35.069Z</time>
      </trkpt>
      <trkpt lat="38.885779" lon="-0.05590233">
        <ele>3.0</ele>
        <time>2018-06-10T06:54:36.069Z</time>
      </trkpt>
      <trkpt lat="38.88583633" lon="-0.05600267">
        <ele>3.0</ele>
        <time>2018-06-10T06:54:37.069Z</time>
      </trkpt>
      <trkpt lat="38.88589133" lon="-0.05610233">
        <ele>3.0</ele>
        <time>2018-06-10T06:54:38.069Z</time>
      </trkpt>
      <trkpt lat="38.88594467" lon="-0.05620117">
        <ele>3.0</ele>
        <time>2018-06-10T06:54:39.069Z</time>
      </trkpt>
      <trkpt lat="38.8859965" lon="-0.05629833">
        <ele>3.0</ele>
        <time>2018-06-10T06:54:40.069Z</time>
      </trkpt>
      <trkpt lat="38.8860475" lon="-0.05639417">
        <ele>3.0</ele>
        <time>2018-06-10T06:54:41.069Z</time>
      </trkpt>
      <trkpt lat="38.88609767" lon="-0.05648933">
        <ele>3.0</ele>
        <time>2018-06-10T06:54:42.069Z</time>
      </trkpt>
      <trkpt lat="38.8861475" lon="-0.05658383">
        <ele>3.0</ele>
        <time>2018-06-10T06:54:43.069Z</time>
      </trkpt>
      <trkpt lat="38.88619717" lon="-0.05667767">
        <ele>3.0</ele>
        <time>2018-06-10T06:54:44.069Z</time>
      </trkpt>
      <trkpt lat="38.8862465" lon="-0.05677133">
        <ele>3.0</ele>
        <time>2018-06-10T06:54:45.069Z</time>
      </trkpt>
      <trkpt lat="38.88629583" lon="-0.0568645">
        <ele>3.0</ele>
        <time>2018-06-10T06:54:46.069Z</time>
      </trkpt>
      <trkpt lat="38.886345" lon="-0.05695817">
        <ele>3.0</ele>
        <time>2018-06-10T06:54:47.069Z</time>
      </trkpt>
      <trkpt lat="38.88639533" lon="-0.05705233">
        <ele>3.0</ele>
        <time>2018-06-10T06:54:48.069Z</time>
      </trkpt>
      <trkpt lat="38.88644683" lon="-0.0571485">
        <ele>3.0</ele>
        <time>2018-06-10T06:54:49.069Z</time>
      </trkpt>
      <trkpt lat="38.88649933" lon="-0.05724633">
        <ele>3.0</ele>
        <time>2018-06-10T06:54:50.069Z</time>
      </trkpt>
      <trkpt lat="38.886552" lon="-0.05734517">
        <ele>3.0</ele>
        <time>2018-06-10T06:54:51.069Z</time>
      </trkpt>
      <trkpt lat="38.88660467" lon="-0.0574445">
        <ele>3.0</ele>
        <time>2018-06-10T06:54:52.069Z</time>
      </trkpt>
      <trkpt lat="38.88665733" lon="-0.0575455">
        <ele>3.0</ele>
        <time>2018-06-10T06:54:53.069Z</time>
      </trkpt>
      <trkpt lat="38.886711" lon="-0.05764883">
        <ele>3.0</ele>
        <time>2018-06-10T06:54:54.069Z</time>
      </trkpt>
      <trkpt lat="38.886766" lon="-0.057754">
        <ele>3.0</ele>
        <time>2018-06-10T06:54:55.069Z</time>
      </trkpt>
      <trkpt lat="38.88682233" lon="-0.05786017">
        <ele>3.0</ele>
        <time>2018-06-10T06:54:56.069Z</time>
      </trkpt>
      <trkpt lat="38.886879" lon="-0.0579675">
        <ele>3.0</ele>
        <time>2018-06-10T06:54:57.069Z</time>
      </trkpt>
      <trkpt lat="38.88693617" lon="-0.0580765">
        <ele>3.0</ele>
        <time>2018-06-10T06:54:58.069Z</time>
      </trkpt>
      <trkpt lat="38.88699433" lon="-0.05818617">
        <ele>3.0</ele>
        <time>2018-06-10T06:54:59.069Z</time>
      </trkpt>
      <trkpt lat="38.88705317" lon="-0.05829717">
        <ele>3.0</ele>
        <time>2018-06-10T06:55:00.069Z</time>
      </trkpt>
      <trkpt lat="38.88711217" lon="-0.05840867">
        <ele>3.0</ele>
        <time>2018-06-10T06:55:01.069Z</time>
      </trkpt>
      <trkpt lat="38.88717117" lon="-0.05852083">
        <ele>3.0</ele>
        <time>2018-06-10T06:55:02.069Z</time>
      </trkpt>
      <trkpt lat="38.887231" lon="-0.05863283">
        <ele>3.0</ele>
        <time>2018-06-10T06:55:03.069Z</time>
      </trkpt>
      <trkpt lat="38.88729133" lon="-0.05874517">
        <ele>3.0</ele>
        <time>2018-06-10T06:55:04.069Z</time>
      </trkpt>
      <trkpt lat="38.88735183" lon="-0.05885867">
        <ele>4.0</ele>
        <time>2018-06-10T06:55:05.069Z</time>
      </trkpt>
      <trkpt lat="38.88741183" lon="-0.05897267">
        <ele>4.0</ele>
        <time>2018-06-10T06:55:06.069Z</time>
      </trkpt>
      <trkpt lat="38.887472" lon="-0.05908633">
        <ele>4.0</ele>
        <time>2018-06-10T06:55:07.069Z</time>
      </trkpt>
      <trkpt lat="38.88753233" lon="-0.05919867">
        <ele>4.0</ele>
        <time>2018-06-10T06:55:08.069Z</time>
      </trkpt>
      <trkpt lat="38.88759267" lon="-0.05930983">
        <ele>4.0</ele>
        <time>2018-06-10T06:55:09.069Z</time>
      </trkpt>
      <trkpt lat="38.8876525" lon="-0.059421">
        <ele>4.0</ele>
        <time>2018-06-10T06:55:10.069Z</time>
      </trkpt>
      <trkpt lat="38.887712" lon="-0.05953183">
        <ele>4.0</ele>
        <time>2018-06-10T06:55:11.069Z</time>
      </trkpt>
      <trkpt lat="38.8877715" lon="-0.05964283">
        <ele>4.0</ele>
        <time>2018-06-10T06:55:12.069Z</time>
      </trkpt>
      <trkpt lat="38.88783083" lon="-0.059754">
        <ele>4.0</ele>
        <time>2018-06-10T06:55:13.069Z</time>
      </trkpt>
      <trkpt lat="38.88789033" lon="-0.05986533">
        <ele>4.0</ele>
        <time>2018-06-10T06:55:14.069Z</time>
      </trkpt>
      <trkpt lat="38.88795" lon="-0.05997567">
        <ele>4.0</ele>
        <time>2018-06-10T06:55:15.069Z</time>
      </trkpt>
      <trkpt lat="38.88800883" lon="-0.0600845">
        <ele>4.0</ele>
        <time>2018-06-10T06:55:16.069Z</time>
      </trkpt>
      <trkpt lat="38.88806617" lon="-0.06019183">
        <ele>4.0</ele>
        <time>2018-06-10T06:55:17.069Z</time>
      </trkpt>
      <trkpt lat="38.88812267" lon="-0.06029917">
        <ele>4.0</ele>
        <time>2018-06-10T06:55:18.069Z</time>
      </trkpt>
      <trkpt lat="38.88818" lon="-0.06040667">
        <ele>4.0</ele>
        <time>2018-06-10T06:55:19.069Z</time>
      </trkpt>
      <trkpt lat="38.8882385" lon="-0.06051517">
        <ele>4.0</ele>
        <time>2018-06-10T06:55:20.069Z</time>
      </trkpt>
      <trkpt lat="38.8882975" lon="-0.060624">
        <ele>4.0</ele>
        <time>2018-06-10T06:55:21.069Z</time>
      </trkpt>
      <trkpt lat="38.88835683" lon="-0.060733">
        <ele>4.0</ele>
        <time>2018-06-10T06:55:22.069Z</time>
      </trkpt>
      <trkpt lat="38.88841567" lon="-0.06084117">
        <ele>4.0</ele>
        <time>2018-06-10T06:55:23.069Z</time>
      </trkpt>
      <trkpt lat="38.88847333" lon="-0.06094817">
        <ele>4.0</ele>
        <time>2018-06-10T06:55:24.069Z</time>
      </trkpt>
      <trkpt lat="38.88852983" lon="-0.061055">
        <ele>4.0</ele>
        <time>2018-06-10T06:55:25.069Z</time>
      </trkpt>
      <trkpt lat="38.88858617" lon="-0.0611615">
        <ele>4.0</ele>
        <time>2018-06-10T06:55:26.069Z</time>
      </trkpt>
      <trkpt lat="38.888643" lon="-0.06126733">
        <ele>3.0</ele>
        <time>2018-06-10T06:55:27.069Z</time>
      </trkpt>
      <trkpt lat="38.8887" lon="-0.0613715">
        <ele>3.0</ele>
        <time>2018-06-10T06:55:28.069Z</time>
      </trkpt>
      <trkpt lat="38.88875617" lon="-0.06147417">
        <ele>3.0</ele>
        <time>2018-06-10T06:55:29.069Z</time>
      </trkpt>
      <trkpt lat="38.88881117" lon="-0.06157617">
        <ele>3.0</ele>
        <time>2018-06-10T06:55:30.069Z</time>
      </trkpt>
      <trkpt lat="38.88886533" lon="-0.061678">
        <ele>3.0</ele>
        <time>2018-06-10T06:55:31.069Z</time>
      </trkpt>
      <trkpt lat="38.88891883" lon="-0.0617785">
        <ele>3.0</ele>
        <time>2018-06-10T06:55:32.069Z</time>
      </trkpt>
      <trkpt lat="38.88897167" lon="-0.06187867">
        <ele>3.0</ele>
        <time>2018-06-10T06:55:33.069Z</time>
      </trkpt>
      <trkpt lat="38.88902433" lon="-0.06197883">
        <ele>3.0</ele>
        <time>2018-06-10T06:55:34.069Z</time>
      </trkpt>
      <trkpt lat="38.8890775" lon="-0.06208067">
        <ele>3.0</ele>
        <time>2018-06-10T06:55:35.069Z</time>
      </trkpt>
      <trkpt lat="38.88913117" lon="-0.06218433">
        <ele>3.0</ele>
        <time>2018-06-10T06:55:36.069Z</time>
      </trkpt>
      <trkpt lat="38.88918533" lon="-0.06228933">
        <ele>3.0</ele>
        <time>2018-06-10T06:55:37.069Z</time>
      </trkpt>
      <trkpt lat="38.88924" lon="-0.062395">
        <ele>3.0</ele>
        <time>2018-06-10T06:55:38.069Z</time>
      </trkpt>
      <trkpt lat="38.88929533" lon="-0.0625005">
        <ele>3.0</ele>
        <time>2018-06-10T06:55:39.069Z</time>
      </trkpt>
      <trkpt lat="38.88935133" lon="-0.06260567">
        <ele>3.0</ele>
        <time>2018-06-10T06:55:40.069Z</time>
      </trkpt>
      <trkpt lat="38.88940767" lon="-0.06271083">
        <ele>3.0</ele>
        <time>2018-06-10T06:55:41.069Z</time>
      </trkpt>
      <trkpt lat="38.88946383" lon="-0.06281583">
        <ele>3.0</ele>
        <time>2018-06-10T06:55:42.069Z</time>
      </trkpt>
      <trkpt lat="38.88951983" lon="-0.06292">
        <ele>3.0</ele>
        <time>2018-06-10T06:55:43.069Z</time>
      </trkpt>
      <trkpt lat="38.88957567" lon="-0.06302333">
        <ele>3.0</ele>
        <time>2018-06-10T06:55:44.069Z</time>
      </trkpt>
      <trkpt lat="38.88963133" lon="-0.06312633">
        <ele>3.0</ele>
        <time>2018-06-10T06:55:45.069Z</time>
      </trkpt>
      <trkpt lat="38.88968617" lon="-0.06322917">
        <ele>3.0</ele>
        <time>2018-06-10T06:55:46.069Z</time>
      </trkpt>
      <trkpt lat="38.8897405" lon="-0.0633315">
        <ele>3.0</ele>
        <time>2018-06-10T06:55:47.069Z</time>
      </trkpt>
      <trkpt lat="38.88979417" lon="-0.06343233">
        <ele>3.0</ele>
        <time>2018-06-10T06:55:48.069Z</time>
      </trkpt>
      <trkpt lat="38.88984683" lon="-0.06353183">
        <ele>3.0</ele>
        <time>2018-06-10T06:55:49.069Z</time>
      </trkpt>
      <trkpt lat="38.88989883" lon="-0.06363017">
        <ele>3.0</ele>
        <time>2018-06-10T06:55:50.069Z</time>
      </trkpt>
      <trkpt lat="38.8899505" lon="-0.063727">
        <ele>3.0</ele>
        <time>2018-06-10T06:55:51.069Z</time>
      </trkpt>
      <trkpt lat="38.89000233" lon="-0.063823">
        <ele>3.0</ele>
        <time>2018-06-10T06:55:52.069Z</time>
      </trkpt>
      <trkpt lat="38.89005367" lon="-0.06391833">
        <ele>3.0</ele>
        <time>2018-06-10T06:55:53.069Z</time>
      </trkpt>
      <trkpt lat="38.89010517" lon="-0.06401467">
        <ele>3.0</ele>
        <time>2018-06-10T06:55:54.069Z</time>
      </trkpt>
      <trkpt lat="38.890157" lon="-0.06411283">
        <ele>3.0</ele>
        <time>2018-06-10T06:55:55.069Z</time>
      </trkpt>
      <trkpt lat="38.89021017" lon="-0.06421283">
        <ele>3.0</ele>
        <time>2018-06-10T06:55:56.069Z</time>
      </trkpt>
      <trkpt lat="38.8902645" lon="-0.064314">
        <ele>3.0</ele>
        <time>2018-06-10T06:55:57.069Z</time>
      </trkpt>
      <trkpt lat="38.89031917" lon="-0.06441483">
        <ele>3.0</ele>
        <time>2018-06-10T06:55:58.069Z</time>
      </trkpt>
      <trkpt lat="38.89037417" lon="-0.06451533">
        <ele>3.0</ele>
        <time>2018-06-10T06:55:59.069Z</time>
      </trkpt>
      <trkpt lat="38.890429" lon="-0.06461667">
        <ele>3.0</ele>
        <time>2018-06-10T06:56:00.069Z</time>
      </trkpt>
      <trkpt lat="38.89048433" lon="-0.06471883">
        <ele>3.0</ele>
        <time>2018-06-10T06:56:01.069Z</time>
      </trkpt>
      <trkpt lat="38.89054017" lon="-0.06482233">
        <ele>3.0</ele>
        <time>2018-06-10T06:56:02.069Z</time>
      </trkpt>
      <trkpt lat="38.89059617" lon="-0.06492733">
        <ele>3.0</ele>
        <time>2018-06-10T06:56:03.069Z</time>
      </trkpt>
      <trkpt lat="38.8906525" lon="-0.06503333">
        <ele>3.0</ele>
        <time>2018-06-10T06:56:04.069Z</time>
      </trkpt>
      <trkpt lat="38.8907095" lon="-0.06513967">
        <ele>3.0</ele>
        <time>2018-06-10T06:56:05.069Z</time>
      </trkpt>
      <trkpt lat="38.89076717" lon="-0.065246">
        <ele>3.0</ele>
        <time>2018-06-10T06:56:06.069Z</time>
      </trkpt>
      <trkpt lat="38.89082533" lon="-0.065353">
        <ele>3.0</ele>
        <time>2018-06-10T06:56:07.069Z</time>
      </trkpt>
      <trkpt lat="38.89088367" lon="-0.06546117">
        <ele>3.0</ele>
        <time>2018-06-10T06:56:08.069Z</time>
      </trkpt>
      <trkpt lat="38.89094183" lon="-0.06557017">
        <ele>3.0</ele>
        <time>2018-06-10T06:56:09.069Z</time>
      </trkpt>
      <trkpt lat="38.89100017" lon="-0.06567983">
        <ele>3.0</ele>
        <time>2018-06-10T06:56:10.069Z</time>
      </trkpt>
      <trkpt lat="38.891058" lon="-0.06578867">
        <ele>3.0</ele>
        <time>2018-06-10T06:56:11.069Z</time>
      </trkpt>
      <trkpt lat="38.891116" lon="-0.0658965">
        <ele>3.0</ele>
        <time>2018-06-10T06:56:12.069Z</time>
      </trkpt>
      <trkpt lat="38.89117417" lon="-0.06600317">
        <ele>3.0</ele>
        <time>2018-06-10T06:56:13.069Z</time>
      </trkpt>
      <trkpt lat="38.89123167" lon="-0.0661095">
        <ele>3.0</ele>
        <time>2018-06-10T06:56:14.069Z</time>
      </trkpt>
      <trkpt lat="38.89128767" lon="-0.06621517">
        <ele>3.0</ele>
        <time>2018-06-10T06:56:15.069Z</time>
      </trkpt>
      <trkpt lat="38.891342" lon="-0.0663195">
        <ele>3.0</ele>
        <time>2018-06-10T06:56:16.069Z</time>
      </trkpt>
      <trkpt lat="38.89139617" lon="-0.066422">
        <ele>3.0</ele>
        <time>2018-06-10T06:56:17.069Z</time>
      </trkpt>
      <trkpt lat="38.89145" lon="-0.06652333">
        <ele>3.0</ele>
        <time>2018-06-10T06:56:18.069Z</time>
      </trkpt>
      <trkpt lat="38.8915035" lon="-0.066624">
        <ele>3.0</ele>
        <time>2018-06-10T06:56:19.069Z</time>
      </trkpt>
      <trkpt lat="38.89155633" lon="-0.06672417">
        <ele>3.0</ele>
        <time>2018-06-10T06:56:20.069Z</time>
      </trkpt>
      <trkpt lat="38.8916095" lon="-0.066824">
        <ele>3.0</ele>
        <time>2018-06-10T06:56:21.069Z</time>
      </trkpt>
      <trkpt lat="38.891663" lon="-0.0669235">
        <ele>3.0</ele>
        <time>2018-06-10T06:56:22.069Z</time>
      </trkpt>
      <trkpt lat="38.89171683" lon="-0.067023">
        <ele>3.0</ele>
        <time>2018-06-10T06:56:23.069Z</time>
      </trkpt>
      <trkpt lat="38.89177067" lon="-0.06712267">
        <ele>3.0</ele>
        <time>2018-06-10T06:56:24.069Z</time>
      </trkpt>
      <trkpt lat="38.89182417" lon="-0.06722217">
        <ele>3.0</ele>
        <time>2018-06-10T06:56:25.069Z</time>
      </trkpt>
      <trkpt lat="38.891877" lon="-0.06732167">
        <ele>3.0</ele>
        <time>2018-06-10T06:56:26.069Z</time>
      </trkpt>
      <trkpt lat="38.89192933" lon="-0.067421">
        <ele>3.0</ele>
        <time>2018-06-10T06:56:27.069Z</time>
      </trkpt>
      <trkpt lat="38.89198233" lon="-0.06752033">
        <ele>3.0</ele>
        <time>2018-06-10T06:56:28.069Z</time>
      </trkpt>
      <trkpt lat="38.89203517" lon="-0.06762017">
        <ele>3.0</ele>
        <time>2018-06-10T06:56:29.069Z</time>
      </trkpt>
      <trkpt lat="38.8920885" lon="-0.0677205">
        <ele>3.0</ele>
        <time>2018-06-10T06:56:30.069Z</time>
      </trkpt>
      <trkpt lat="38.89214267" lon="-0.06782167">
        <ele>3.0</ele>
        <time>2018-06-10T06:56:31.069Z</time>
      </trkpt>
      <trkpt lat="38.89219783" lon="-0.06792383">
        <ele>3.0</ele>
        <time>2018-06-10T06:56:32.069Z</time>
      </trkpt>
      <trkpt lat="38.89225317" lon="-0.06802733">
        <ele>3.0</ele>
        <time>2018-06-10T06:56:33.069Z</time>
      </trkpt>
      <trkpt lat="38.89230833" lon="-0.06813167">
        <ele>3.0</ele>
        <time>2018-06-10T06:56:34.069Z</time>
      </trkpt>
      <trkpt lat="38.8923635" lon="-0.068237">
        <ele>3.0</ele>
        <time>2018-06-10T06:56:35.069Z</time>
      </trkpt>
      <trkpt lat="38.89241933" lon="-0.06834283">
        <ele>3.0</ele>
        <time>2018-06-10T06:56:36.069Z</time>
      </trkpt>
      <trkpt lat="38.89247583" lon="-0.068449">
        <ele>3.0</ele>
        <time>2018-06-10T06:56:37.069Z</time>
      </trkpt>
      <trkpt lat="38.89253217" lon="-0.06855417">
        <ele>3.0</ele>
        <time>2018-06-10T06:56:38.069Z</time>
      </trkpt>
      <trkpt lat="38.89258767" lon="-0.06865817">
        <ele>3.0</ele>
        <time>2018-06-10T06:56:39.069Z</time>
      </trkpt>
      <trkpt lat="38.89264283" lon="-0.06876083">
        <ele>3.0</ele>
        <time>2018-06-10T06:56:40.069Z</time>
      </trkpt>
      <trkpt lat="38.89269833" lon="-0.06886367">
        <ele>3.0</ele>
        <time>2018-06-10T06:56:41.069Z</time>
      </trkpt>
      <trkpt lat="38.892754" lon="-0.068967">
        <ele>3.0</ele>
        <time>2018-06-10T06:56:42.069Z</time>
      </trkpt>
      <trkpt lat="38.89281033" lon="-0.06907183">
        <ele>3.0</ele>
        <time>2018-06-10T06:56:43.069Z</time>
      </trkpt>
      <trkpt lat="38.8928665" lon="-0.069177">
        <ele>3.0</ele>
        <time>2018-06-10T06:56:44.069Z</time>
      </trkpt>
      <trkpt lat="38.89292233" lon="-0.0692825">
        <ele>3.0</ele>
        <time>2018-06-10T06:56:45.069Z</time>
      </trkpt>
      <trkpt lat="38.89297833" lon="-0.069387">
        <ele>3.0</ele>
        <time>2018-06-10T06:56:46.069Z</time>
      </trkpt>
      <trkpt lat="38.89303417" lon="-0.06949117">
        <ele>3.0</ele>
        <time>2018-06-10T06:56:47.069Z</time>
      </trkpt>
      <trkpt lat="38.89309" lon="-0.06959433">
        <ele>3.0</ele>
        <time>2018-06-10T06:56:48.069Z</time>
      </trkpt>
      <trkpt lat="38.89314533" lon="-0.0696975">
        <ele>3.0</ele>
        <time>2018-06-10T06:56:49.069Z</time>
      </trkpt>
      <trkpt lat="38.89320067" lon="-0.06979933">
        <ele>3.0</ele>
        <time>2018-06-10T06:56:50.069Z</time>
      </trkpt>
      <trkpt lat="38.893256" lon="-0.0699">
        <ele>3.0</ele>
        <time>2018-06-10T06:56:51.069Z</time>
      </trkpt>
      <trkpt lat="38.893311" lon="-0.06999967">
        <ele>3.0</ele>
        <time>2018-06-10T06:56:52.069Z</time>
      </trkpt>
      <trkpt lat="38.89336433" lon="-0.07009883">
        <ele>3.0</ele>
        <time>2018-06-10T06:56:53.069Z</time>
      </trkpt>
      <trkpt lat="38.893416" lon="-0.070197">
        <ele>3.0</ele>
        <time>2018-06-10T06:56:54.069Z</time>
      </trkpt>
      <trkpt lat="38.89346683" lon="-0.07029367">
        <ele>3.0</ele>
        <time>2018-06-10T06:56:55.069Z</time>
      </trkpt>
      <trkpt lat="38.89351767" lon="-0.07038917">
        <ele>3.0</ele>
        <time>2018-06-10T06:56:56.069Z</time>
      </trkpt>
      <trkpt lat="38.89356933" lon="-0.07048433">
        <ele>3.0</ele>
        <time>2018-06-10T06:56:57.069Z</time>
      </trkpt>
      <trkpt lat="38.89362233" lon="-0.070581">
        <ele>3.0</ele>
        <time>2018-06-10T06:56:58.069Z</time>
      </trkpt>
      <trkpt lat="38.89367567" lon="-0.07067967">
        <ele>3.0</ele>
        <time>2018-06-10T06:56:59.069Z</time>
      </trkpt>
      <trkpt lat="38.89372967" lon="-0.07078083">
        <ele>3.0</ele>
        <time>2018-06-10T06:57:00.069Z</time>
      </trkpt>
      <trkpt lat="38.89378383" lon="-0.070884">
        <ele>3.0</ele>
        <time>2018-06-10T06:57:01.069Z</time>
      </trkpt>
      <trkpt lat="38.89383867" lon="-0.07098867">
        <ele>3.0</ele>
        <time>2018-06-10T06:57:02.069Z</time>
      </trkpt>
      <trkpt lat="38.8938945" lon="-0.07109333">
        <ele>3.0</ele>
        <time>2018-06-10T06:57:03.069Z</time>
      </trkpt>
      <trkpt lat="38.89395067" lon="-0.07119783">
        <ele>3.0</ele>
        <time>2018-06-10T06:57:04.069Z</time>
      </trkpt>
      <trkpt lat="38.89400733" lon="-0.0713025">
        <ele>3.0</ele>
        <time>2018-06-10T06:57:05.069Z</time>
      </trkpt>
      <trkpt lat="38.89406383" lon="-0.0714075">
        <ele>3.0</ele>
        <time>2018-06-10T06:57:06.069Z</time>
      </trkpt>
      <trkpt lat="38.89412067" lon="-0.07151267">
        <ele>3.0</ele>
        <time>2018-06-10T06:57:07.069Z</time>
      </trkpt>
      <trkpt lat="38.89417733" lon="-0.07161767">
        <ele>3.0</ele>
        <time>2018-06-10T06:57:08.069Z</time>
      </trkpt>
      <trkpt lat="38.89423367" lon="-0.0717225">
        <ele>3.0</ele>
        <time>2018-06-10T06:57:09.069Z</time>
      </trkpt>
      <trkpt lat="38.89428933" lon="-0.07182717">
        <ele>3.0</ele>
        <time>2018-06-10T06:57:10.069Z</time>
      </trkpt>
      <trkpt lat="38.89434517" lon="-0.07193183">
        <ele>3.0</ele>
        <time>2018-06-10T06:57:11.069Z</time>
      </trkpt>
      <trkpt lat="38.89440133" lon="-0.07203633">
        <ele>3.0</ele>
        <time>2018-06-10T06:57:12.069Z</time>
      </trkpt>
      <trkpt lat="38.89445767" lon="-0.07214167">
        <ele>3.0</ele>
        <time>2018-06-10T06:57:13.069Z</time>
      </trkpt>
      <trkpt lat="38.8945135" lon="-0.07224733">
        <ele>3.0</ele>
        <time>2018-06-10T06:57:14.069Z</time>
      </trkpt>
      <trkpt lat="38.8945695" lon="-0.07235367">
        <ele>3.0</ele>
        <time>2018-06-10T06:57:15.069Z</time>
      </trkpt>
      <trkpt lat="38.89462583" lon="-0.0724595">
        <ele>3.0</ele>
        <time>2018-06-10T06:57:16.069Z</time>
      </trkpt>
      <trkpt lat="38.89468267" lon="-0.07256533">
        <ele>3.0</ele>
        <time>2018-06-10T06:57:17.069Z</time>
      </trkpt>
      <trkpt lat="38.89473933" lon="-0.0726715">
        <ele>3.0</ele>
        <time>2018-06-10T06:57:18.069Z</time>
      </trkpt>
      <trkpt lat="38.894796" lon="-0.07277883">
        <ele>3.0</ele>
        <time>2018-06-10T06:57:19.069Z</time>
      </trkpt>
      <trkpt lat="38.8948535" lon="-0.07288617">
        <ele>4.0</ele>
        <time>2018-06-10T06:57:20.069Z</time>
      </trkpt>
      <trkpt lat="38.8949115" lon="-0.072994">
        <ele>4.0</ele>
        <time>2018-06-10T06:57:21.069Z</time>
      </trkpt>
      <trkpt lat="38.89496983" lon="-0.07310133">
        <ele>3.0</ele>
        <time>2018-06-10T06:57:22.069Z</time>
      </trkpt>
      <trkpt lat="38.89502767" lon="-0.073209">
        <ele>4.0</ele>
        <time>2018-06-10T06:57:23.069Z</time>
      </trkpt>
      <trkpt lat="38.89508483" lon="-0.07331617">
        <ele>4.0</ele>
        <time>2018-06-10T06:57:24.069Z</time>
      </trkpt>
      <trkpt lat="38.89514133" lon="-0.07342167">
        <ele>4.0</ele>
        <time>2018-06-10T06:57:25.069Z</time>
      </trkpt>
      <trkpt lat="38.89519633" lon="-0.07352517">
        <ele>4.0</ele>
        <time>2018-06-10T06:57:26.069Z</time>
      </trkpt>
      <trkpt lat="38.89524983" lon="-0.073627">
        <ele>4.0</ele>
        <time>2018-06-10T06:57:27.069Z</time>
      </trkpt>
      <trkpt lat="38.89530233" lon="-0.07372783">
        <ele>4.0</ele>
        <time>2018-06-10T06:57:28.069Z</time>
      </trkpt>
      <trkpt lat="38.895355" lon="-0.07382733">
        <ele>4.0</ele>
        <time>2018-06-10T06:57:29.069Z</time>
      </trkpt>
      <trkpt lat="38.89540717" lon="-0.07392567">
        <ele>4.0</ele>
        <time>2018-06-10T06:57:30.069Z</time>
      </trkpt>
      <trkpt lat="38.89545917" lon="-0.07402317">
        <ele>4.0</ele>
        <time>2018-06-10T06:57:31.069Z</time>
      </trkpt>
      <trkpt lat="38.89551083" lon="-0.07412083">
        <ele>4.0</ele>
        <time>2018-06-10T06:57:32.069Z</time>
      </trkpt>
      <trkpt lat="38.89556283" lon="-0.07421917">
        <ele>4.0</ele>
        <time>2018-06-10T06:57:33.069Z</time>
      </trkpt>
      <trkpt lat="38.8956155" lon="-0.07431917">
        <ele>3.0</ele>
        <time>2018-06-10T06:57:34.069Z</time>
      </trkpt>
      <trkpt lat="38.8956695" lon="-0.07442167">
        <ele>4.0</ele>
        <time>2018-06-10T06:57:35.069Z</time>
      </trkpt>
      <trkpt lat="38.89572383" lon="-0.0745255">
        <ele>4.0</ele>
        <time>2018-06-10T06:57:36.069Z</time>
      </trkpt>
      <trkpt lat="38.89577817" lon="-0.07462933">
        <ele>4.0</ele>
        <time>2018-06-10T06:57:37.069Z</time>
      </trkpt>
      <trkpt lat="38.8958325" lon="-0.074732">
        <ele>4.0</ele>
        <time>2018-06-10T06:57:38.069Z</time>
      </trkpt>
      <trkpt lat="38.89588717" lon="-0.07483433">
        <ele>4.0</ele>
        <time>2018-06-10T06:57:39.069Z</time>
      </trkpt>
      <trkpt lat="38.8959425" lon="-0.0749375">
        <ele>4.0</ele>
        <time>2018-06-10T06:57:40.069Z</time>
      </trkpt>
      <trkpt lat="38.89599817" lon="-0.07504083">
        <ele>4.0</ele>
        <time>2018-06-10T06:57:41.069Z</time>
      </trkpt>
      <trkpt lat="38.896054" lon="-0.07514417">
        <ele>4.0</ele>
        <time>2018-06-10T06:57:42.069Z</time>
      </trkpt>
      <trkpt lat="38.89610967" lon="-0.07524533">
        <ele>4.0</ele>
        <time>2018-06-10T06:57:43.069Z</time>
      </trkpt>
      <trkpt lat="38.89616433" lon="-0.075345">
        <ele>4.0</ele>
        <time>2018-06-10T06:57:44.069Z</time>
      </trkpt>
      <trkpt lat="38.896217" lon="-0.07544267">
        <ele>4.0</ele>
        <time>2018-06-10T06:57:45.069Z</time>
      </trkpt>
      <trkpt lat="38.896268" lon="-0.07553883">
        <ele>3.0</ele>
        <time>2018-06-10T06:57:46.069Z</time>
      </trkpt>
      <trkpt lat="38.89631817" lon="-0.07563383">
        <ele>3.0</ele>
        <time>2018-06-10T06:57:47.069Z</time>
      </trkpt>
      <trkpt lat="38.8963685" lon="-0.0757275">
        <ele>3.0</ele>
        <time>2018-06-10T06:57:48.069Z</time>
      </trkpt>
      <trkpt lat="38.89641783" lon="-0.07582117">
        <ele>3.0</ele>
        <time>2018-06-10T06:57:49.069Z</time>
      </trkpt>
      <trkpt lat="38.89646617" lon="-0.0759145">
        <ele>3.0</ele>
        <time>2018-06-10T06:57:50.069Z</time>
      </trkpt>
      <trkpt lat="38.89651467" lon="-0.07600717">
        <ele>3.0</ele>
        <time>2018-06-10T06:57:51.069Z</time>
      </trkpt>
      <trkpt lat="38.896564" lon="-0.0760995">
        <ele>4.0</ele>
        <time>2018-06-10T06:57:52.069Z</time>
      </trkpt>
      <trkpt lat="38.896615" lon="-0.07619083">
        <ele>4.0</ele>
        <time>2018-06-10T06:57:53.069Z</time>
      </trkpt>
      <trkpt lat="38.89666733" lon="-0.07628133">
        <ele>4.0</ele>
        <time>2018-06-10T06:57:54.069Z</time>
      </trkpt>
      <trkpt lat="38.89672167" lon="-0.07637017">
        <ele>4.0</ele>
        <time>2018-06-10T06:57:55.069Z</time>
      </trkpt>
      <trkpt lat="38.89677733" lon="-0.07645867">
        <ele>4.0</ele>
        <time>2018-06-10T06:57:56.069Z</time>
      </trkpt>
      <trkpt lat="38.89683317" lon="-0.0765485">
        <ele>4.0</ele>
        <time>2018-06-10T06:57:57.069Z</time>
      </trkpt>
      <trkpt lat="38.896888" lon="-0.076641">
        <ele>4.0</ele>
        <time>2018-06-10T06:57:58.069Z</time>
      </trkpt>
      <trkpt lat="38.8969415" lon="-0.07673533">
        <ele>4.0</ele>
        <time>2018-06-10T06:57:59.069Z</time>
      </trkpt>
      <trkpt lat="38.896994" lon="-0.07683183">
        <ele>4.0</ele>
        <time>2018-06-10T06:58:00.069Z</time>
      </trkpt>
      <trkpt lat="38.89704583" lon="-0.07692917">
        <ele>4.0</ele>
        <time>2018-06-10T06:58:01.069Z</time>
      </trkpt>
      <trkpt lat="38.89709717" lon="-0.07702767">
        <ele>4.0</ele>
        <time>2018-06-10T06:58:02.069Z</time>
      </trkpt>
      <trkpt lat="38.89714867" lon="-0.07712617">
        <ele>4.0</ele>
        <time>2018-06-10T06:58:03.069Z</time>
      </trkpt>
      <trkpt lat="38.897199" lon="-0.07722417">
        <ele>4.0</ele>
        <time>2018-06-10T06:58:04.069Z</time>
      </trkpt>
      <trkpt lat="38.89724883" lon="-0.07732117">
        <ele>4.0</ele>
        <time>2018-06-10T06:58:05.069Z</time>
      </trkpt>
      <trkpt lat="38.89729833" lon="-0.07741767">
        <ele>4.0</ele>
        <time>2018-06-10T06:58:06.069Z</time>
      </trkpt>
      <trkpt lat="38.8973485" lon="-0.0775155">
        <ele>4.0</ele>
        <time>2018-06-10T06:58:07.069Z</time>
      </trkpt>
      <trkpt lat="38.89739833" lon="-0.07761367">
        <ele>3.0</ele>
        <time>2018-06-10T06:58:08.069Z</time>
      </trkpt>
      <trkpt lat="38.8974475" lon="-0.07771183">
        <ele>3.0</ele>
        <time>2018-06-10T06:58:09.069Z</time>
      </trkpt>
      <trkpt lat="38.89749583" lon="-0.0778085">
        <ele>3.0</ele>
        <time>2018-06-10T06:58:10.069Z</time>
      </trkpt>
      <trkpt lat="38.89754417" lon="-0.07790483">
        <ele>3.0</ele>
        <time>2018-06-10T06:58:11.069Z</time>
      </trkpt>
      <trkpt lat="38.897593" lon="-0.0780005">
        <ele>3.0</ele>
        <time>2018-06-10T06:58:12.069Z</time>
      </trkpt>
      <trkpt lat="38.89764133" lon="-0.078096">
        <ele>3.0</ele>
        <time>2018-06-10T06:58:13.069Z</time>
      </trkpt>
      <trkpt lat="38.89768917" lon="-0.0781915">
        <ele>3.0</ele>
        <time>2018-06-10T06:58:14.069Z</time>
      </trkpt>
      <trkpt lat="38.8977375" lon="-0.078286">
        <ele>3.0</ele>
        <time>2018-06-10T06:58:15.069Z</time>
      </trkpt>
      <trkpt lat="38.89778717" lon="-0.07837933">
        <ele>4.0</ele>
        <time>2018-06-10T06:58:16.069Z</time>
      </trkpt>
      <trkpt lat="38.897838" lon="-0.078472">
        <ele>4.0</ele>
        <time>2018-06-10T06:58:17.069Z</time>
      </trkpt>
      <trkpt lat="38.89788933" lon="-0.07856583">
        <ele>4.0</ele>
        <time>2018-06-10T06:58:18.069Z</time>
      </trkpt>
      <trkpt lat="38.8979405" lon="-0.07866033">
        <ele>4.0</ele>
        <time>2018-06-10T06:58:19.069Z</time>
      </trkpt>
      <trkpt lat="38.89799217" lon="-0.07875583">
        <ele>4.0</ele>
        <time>2018-06-10T06:58:20.069Z</time>
      </trkpt>
      <trkpt lat="38.89804433" lon="-0.07885217">
        <ele>4.0</ele>
        <time>2018-06-10T06:58:21.069Z</time>
      </trkpt>
      <trkpt lat="38.898097" lon="-0.07894983">
        <ele>4.0</ele>
        <time>2018-06-10T06:58:22.069Z</time>
      </trkpt>
      <trkpt lat="38.89814983" lon="-0.07904867">
        <ele>4.0</ele>
        <time>2018-06-10T06:58:23.069Z</time>
      </trkpt>
      <trkpt lat="38.89820317" lon="-0.07914733">
        <ele>4.0</ele>
        <time>2018-06-10T06:58:24.069Z</time>
      </trkpt>
      <trkpt lat="38.89825583" lon="-0.07924617">
        <ele>4.0</ele>
        <time>2018-06-10T06:58:25.069Z</time>
      </trkpt>
      <trkpt lat="38.89830733" lon="-0.07934367">
        <ele>4.0</ele>
        <time>2018-06-10T06:58:26.069Z</time>
      </trkpt>
      <trkpt lat="38.89835717" lon="-0.07943967">
        <ele>4.0</ele>
        <time>2018-06-10T06:58:27.069Z</time>
      </trkpt>
      <trkpt lat="38.89840683" lon="-0.079533">
        <ele>4.0</ele>
        <time>2018-06-10T06:58:28.069Z</time>
      </trkpt>
      <trkpt lat="38.8984575" lon="-0.07962517">
        <ele>4.0</ele>
        <time>2018-06-10T06:58:29.069Z</time>
      </trkpt>
      <trkpt lat="38.89850917" lon="-0.0797175">
        <ele>5.0</ele>
        <time>2018-06-10T06:58:30.069Z</time>
      </trkpt>
      <trkpt lat="38.898561" lon="-0.07981117">
        <ele>5.0</ele>
        <time>2018-06-10T06:58:31.069Z</time>
      </trkpt>
      <trkpt lat="38.89861283" lon="-0.07990583">
        <ele>5.0</ele>
        <time>2018-06-10T06:58:32.069Z</time>
      </trkpt>
      <trkpt lat="38.898665" lon="-0.0800015">
        <ele>5.0</ele>
        <time>2018-06-10T06:58:33.069Z</time>
      </trkpt>
      <trkpt lat="38.8987175" lon="-0.0800985">
        <ele>5.0</ele>
        <time>2018-06-10T06:58:34.069Z</time>
      </trkpt>
      <trkpt lat="38.89877017" lon="-0.08019667">
        <ele>5.0</ele>
        <time>2018-06-10T06:58:35.069Z</time>
      </trkpt>
      <trkpt lat="38.89882283" lon="-0.08029567">
        <ele>5.0</ele>
        <time>2018-06-10T06:58:36.069Z</time>
      </trkpt>
      <trkpt lat="38.89887517" lon="-0.080395">
        <ele>5.0</ele>
        <time>2018-06-10T06:58:37.069Z</time>
      </trkpt>
      <trkpt lat="38.8989275" lon="-0.080494">
        <ele>5.0</ele>
        <time>2018-06-10T06:58:38.069Z</time>
      </trkpt>
      <trkpt lat="38.89898" lon="-0.0805925">
        <ele>5.0</ele>
        <time>2018-06-10T06:58:39.069Z</time>
      </trkpt>
      <trkpt lat="38.8990325" lon="-0.08069083">
        <ele>5.0</ele>
        <time>2018-06-10T06:58:40.069Z</time>
      </trkpt>
      <trkpt lat="38.899085" lon="-0.0807895">
        <ele>5.0</ele>
        <time>2018-06-10T06:58:41.069Z</time>
      </trkpt>
      <trkpt lat="38.89913817" lon="-0.080888">
        <ele>5.0</ele>
        <time>2018-06-10T06:58:42.069Z</time>
      </trkpt>
      <trkpt lat="38.89919183" lon="-0.08098667">
        <ele>5.0</ele>
        <time>2018-06-10T06:58:43.069Z</time>
      </trkpt>
      <trkpt lat="38.89924567" lon="-0.0810855">
        <ele>5.0</ele>
        <time>2018-06-10T06:58:44.069Z</time>
      </trkpt>
      <trkpt lat="38.89929933" lon="-0.081185">
        <ele>5.0</ele>
        <time>2018-06-10T06:58:45.069Z</time>
      </trkpt>
      <trkpt lat="38.89935317" lon="-0.08128433">
        <ele>5.0</ele>
        <time>2018-06-10T06:58:46.069Z</time>
      </trkpt>
      <trkpt lat="38.899407" lon="-0.08138417">
        <ele>5.0</ele>
        <time>2018-06-10T06:58:47.069Z</time>
      </trkpt>
      <trkpt lat="38.8994605" lon="-0.08148417">
        <ele>5.0</ele>
        <time>2018-06-10T06:58:48.069Z</time>
      </trkpt>
      <trkpt lat="38.89951333" lon="-0.08158467">
        <ele>5.0</ele>
        <time>2018-06-10T06:58:49.069Z</time>
      </trkpt>
      <trkpt lat="38.89956617" lon="-0.0816845">
        <ele>5.0</ele>
        <time>2018-06-10T06:58:50.069Z</time>
      </trkpt>
      <trkpt lat="38.89961883" lon="-0.081783">
        <ele>5.0</ele>
        <time>2018-06-10T06:58:51.069Z</time>
      </trkpt>
      <trkpt lat="38.89967133" lon="-0.0818795">
        <ele>5.0</ele>
        <time>2018-06-10T06:58:52.069Z</time>
      </trkpt>
      <trkpt lat="38.89972267" lon="-0.0819745">
        <ele>5.0</ele>
        <time>2018-06-10T06:58:53.069Z</time>
      </trkpt>
      <trkpt lat="38.89977333" lon="-0.08206867">
        <ele>5.0</ele>
        <time>2018-06-10T06:58:54.069Z</time>
      </trkpt>
      <trkpt lat="38.89982367" lon="-0.08216367">
        <ele>5.0</ele>
        <time>2018-06-10T06:58:55.069Z</time>
      </trkpt>
      <trkpt lat="38.8998745" lon="-0.08226">
        <ele>5.0</ele>
        <time>2018-06-10T06:58:56.069Z</time>
      </trkpt>
      <trkpt lat="38.899926" lon="-0.08235667">
        <ele>5.0</ele>
        <time>2018-06-10T06:58:57.069Z</time>
      </trkpt>
      <trkpt lat="38.899978" lon="-0.08245333">
        <ele>5.0</ele>
        <time>2018-06-10T06:58:58.069Z</time>
      </trkpt>
      <trkpt lat="38.90003067" lon="-0.08255017">
        <ele>5.0</ele>
        <time>2018-06-10T06:58:59.069Z</time>
      </trkpt>
      <trkpt lat="38.9000835" lon="-0.08264817">
        <ele>5.0</ele>
        <time>2018-06-10T06:59:00.069Z</time>
      </trkpt>
      <trkpt lat="38.90013633" lon="-0.0827465">
        <ele>5.0</ele>
        <time>2018-06-10T06:59:01.069Z</time>
      </trkpt>
      <trkpt lat="38.90018967" lon="-0.08284517">
        <ele>5.0</ele>
        <time>2018-06-10T06:59:02.069Z</time>
      </trkpt>
      <trkpt lat="38.9002435" lon="-0.08294333">
        <ele>5.0</ele>
        <time>2018-06-10T06:59:03.069Z</time>
      </trkpt>
      <trkpt lat="38.9002975" lon="-0.08304133">
        <ele>5.0</ele>
        <time>2018-06-10T06:59:04.069Z</time>
      </trkpt>
      <trkpt lat="38.90035133" lon="-0.08313933">
        <ele>5.0</ele>
        <time>2018-06-10T06:59:05.069Z</time>
      </trkpt>
      <trkpt lat="38.90040467" lon="-0.08323683">
        <ele>5.0</ele>
        <time>2018-06-10T06:59:06.069Z</time>
      </trkpt>
      <trkpt lat="38.90045683" lon="-0.0833345">
        <ele>5.0</ele>
        <time>2018-06-10T06:59:07.069Z</time>
      </trkpt>
      <trkpt lat="38.90050817" lon="-0.0834315">
        <ele>5.0</ele>
        <time>2018-06-10T06:59:08.069Z</time>
      </trkpt>
      <trkpt lat="38.90055867" lon="-0.083528">
        <ele>5.0</ele>
        <time>2018-06-10T06:59:09.069Z</time>
      </trkpt>
      <trkpt lat="38.90061" lon="-0.0836235">
        <ele>5.0</ele>
        <time>2018-06-10T06:59:10.069Z</time>
      </trkpt>
      <trkpt lat="38.900662" lon="-0.08371883">
        <ele>5.0</ele>
        <time>2018-06-10T06:59:11.069Z</time>
      </trkpt>
      <trkpt lat="38.90071467" lon="-0.0838145">
        <ele>5.0</ele>
        <time>2018-06-10T06:59:12.069Z</time>
      </trkpt>
      <trkpt lat="38.90076717" lon="-0.08391083">
        <ele>5.0</ele>
        <time>2018-06-10T06:59:13.069Z</time>
      </trkpt>
      <trkpt lat="38.9008185" lon="-0.08400783">
        <ele>5.0</ele>
        <time>2018-06-10T06:59:14.069Z</time>
      </trkpt>
      <trkpt lat="38.90086867" lon="-0.08410433">
        <ele>5.0</ele>
        <time>2018-06-10T06:59:15.069Z</time>
      </trkpt>
      <trkpt lat="38.90091867" lon="-0.08419917">
        <ele>5.0</ele>
        <time>2018-06-10T06:59:16.069Z</time>
      </trkpt>
      <trkpt lat="38.900969" lon="-0.0842915">
        <ele>5.0</ele>
        <time>2018-06-10T06:59:17.069Z</time>
      </trkpt>
      <trkpt lat="38.90102017" lon="-0.084383">
        <ele>5.0</ele>
        <time>2018-06-10T06:59:18.069Z</time>
      </trkpt>
      <trkpt lat="38.901072" lon="-0.08447517">
        <ele>5.0</ele>
        <time>2018-06-10T06:59:19.069Z</time>
      </trkpt>
      <trkpt lat="38.90112417" lon="-0.08456917">
        <ele>5.0</ele>
        <time>2018-06-10T06:59:20.069Z</time>
      </trkpt>
      <trkpt lat="38.90117683" lon="-0.08466367">
        <ele>5.0</ele>
        <time>2018-06-10T06:59:21.069Z</time>
      </trkpt>
      <trkpt lat="38.901229" lon="-0.084759">
        <ele>5.0</ele>
        <time>2018-06-10T06:59:22.069Z</time>
      </trkpt>
      <trkpt lat="38.90128083" lon="-0.08485417">
        <ele>5.0</ele>
        <time>2018-06-10T06:59:23.069Z</time>
      </trkpt>
      <trkpt lat="38.9013325" lon="-0.08494933">
        <ele>5.0</ele>
        <time>2018-06-10T06:59:24.069Z</time>
      </trkpt>
      <trkpt lat="38.90138467" lon="-0.0850435">
        <ele>5.0</ele>
        <time>2018-06-10T06:59:25.069Z</time>
      </trkpt>
      <trkpt lat="38.90143617" lon="-0.0851365">
        <ele>5.0</ele>
        <time>2018-06-10T06:59:26.069Z</time>
      </trkpt>
      <trkpt lat="38.9014865" lon="-0.08522833">
        <ele>5.0</ele>
        <time>2018-06-10T06:59:27.069Z</time>
      </trkpt>
      <trkpt lat="38.90153583" lon="-0.08531933">
        <ele>5.0</ele>
        <time>2018-06-10T06:59:28.069Z</time>
      </trkpt>
      <trkpt lat="38.90158533" lon="-0.08541">
        <ele>5.0</ele>
        <time>2018-06-10T06:59:29.069Z</time>
      </trkpt>
      <trkpt lat="38.901635" lon="-0.08550133">
        <ele>5.0</ele>
        <time>2018-06-10T06:59:30.069Z</time>
      </trkpt>
      <trkpt lat="38.90168517" lon="-0.08559367">
        <ele>5.0</ele>
        <time>2018-06-10T06:59:31.069Z</time>
      </trkpt>
      <trkpt lat="38.90173533" lon="-0.08568667">
        <ele>5.0</ele>
        <time>2018-06-10T06:59:32.069Z</time>
      </trkpt>
      <trkpt lat="38.901786" lon="-0.08578017">
        <ele>5.0</ele>
        <time>2018-06-10T06:59:33.069Z</time>
      </trkpt>
      <trkpt lat="38.90183683" lon="-0.08587367">
        <ele>6.0</ele>
        <time>2018-06-10T06:59:34.069Z</time>
      </trkpt>
      <trkpt lat="38.90188733" lon="-0.08596717">
        <ele>6.0</ele>
        <time>2018-06-10T06:59:35.069Z</time>
      </trkpt>
      <trkpt lat="38.901938" lon="-0.08606033">
        <ele>6.0</ele>
        <time>2018-06-10T06:59:36.069Z</time>
      </trkpt>
      <trkpt lat="38.90198817" lon="-0.0861535">
        <ele>6.0</ele>
        <time>2018-06-10T06:59:37.069Z</time>
      </trkpt>
      <trkpt lat="38.9020385" lon="-0.08624633">
        <ele>6.0</ele>
        <time>2018-06-10T06:59:38.069Z</time>
      </trkpt>
      <trkpt lat="38.90208867" lon="-0.08633983">
        <ele>6.0</ele>
        <time>2018-06-10T06:59:39.069Z</time>
      </trkpt>
      <trkpt lat="38.90213917" lon="-0.08643367">
        <ele>6.0</ele>
        <time>2018-06-10T06:59:40.069Z</time>
      </trkpt>
      <trkpt lat="38.90219" lon="-0.08652783">
        <ele>6.0</ele>
        <time>2018-06-10T06:59:41.069Z</time>
      </trkpt>
      <trkpt lat="38.90224033" lon="-0.08662183">
        <ele>6.0</ele>
        <time>2018-06-10T06:59:42.069Z</time>
      </trkpt>
      <trkpt lat="38.90229017" lon="-0.08671583">
        <ele>6.0</ele>
        <time>2018-06-10T06:59:43.069Z</time>
      </trkpt>
      <trkpt lat="38.90233933" lon="-0.08680917">
        <ele>6.0</ele>
        <time>2018-06-10T06:59:44.069Z</time>
      </trkpt>
      <trkpt lat="38.90238767" lon="-0.08690233">
        <ele>6.0</ele>
        <time>2018-06-10T06:59:45.069Z</time>
      </trkpt>
      <trkpt lat="38.90243583" lon="-0.0869955">
        <ele>6.0</ele>
        <time>2018-06-10T06:59:46.069Z</time>
      </trkpt>
      <trkpt lat="38.9024845" lon="-0.08708833">
        <ele>6.0</ele>
        <time>2018-06-10T06:59:47.069Z</time>
      </trkpt>
      <trkpt lat="38.90253383" lon="-0.08718083">
        <ele>6.0</ele>
        <time>2018-06-10T06:59:48.069Z</time>
      </trkpt>
      <trkpt lat="38.90258317" lon="-0.08727317">
        <ele>6.0</ele>
        <time>2018-06-10T06:59:49.069Z</time>
      </trkpt>
      <trkpt lat="38.90263217" lon="-0.08736583">
        <ele>6.0</ele>
        <time>2018-06-10T06:59:50.069Z</time>
      </trkpt>
      <trkpt lat="38.90268117" lon="-0.0874585">
        <ele>6.0</ele>
        <time>2018-06-10T06:59:51.069Z</time>
      </trkpt>
      <trkpt lat="38.9027305" lon="-0.08755117">
        <ele>6.0</ele>
        <time>2018-06-10T06:59:52.069Z</time>
      </trkpt>
      <trkpt lat="38.90278" lon="-0.087644">
        <ele>6.0</ele>
        <time>2018-06-10T06:59:53.069Z</time>
      </trkpt>
      <trkpt lat="38.90283" lon="-0.087737">
        <ele>6.0</ele>
        <time>2018-06-10T06:59:54.069Z</time>
      </trkpt>
      <trkpt lat="38.9028795" lon="-0.0878305">
        <ele>6.0</ele>
        <time>2018-06-10T06:59:55.069Z</time>
      </trkpt>
      <trkpt lat="38.90292933" lon="-0.08792467">
        <ele>6.0</ele>
        <time>2018-06-10T06:59:56.069Z</time>
      </trkpt>
      <trkpt lat="38.90297933" lon="-0.08801883">
        <ele>6.0</ele>
        <time>2018-06-10T06:59:57.069Z</time>
      </trkpt>
      <trkpt lat="38.90302983" lon="-0.08811283">
        <ele>6.0</ele>
        <time>2018-06-10T06:59:58.069Z</time>
      </trkpt>
      <trkpt lat="38.90308067" lon="-0.08820633">
        <ele>6.0</ele>
        <time>2018-06-10T06:59:59.069Z</time>
      </trkpt>
      <trkpt lat="38.90313133" lon="-0.08830033">
        <ele>6.0</ele>
        <time>2018-06-10T07:00:00.069Z</time>
      </trkpt>
      <trkpt lat="38.90318183" lon="-0.08839417">
        <ele>6.0</ele>
        <time>2018-06-10T07:00:01.069Z</time>
      </trkpt>
      <trkpt lat="38.90323183" lon="-0.08848833">
        <ele>6.0</ele>
        <time>2018-06-10T07:00:02.069Z</time>
      </trkpt>
      <trkpt lat="38.90328183" lon="-0.0885825">
        <ele>6.0</ele>
        <time>2018-06-10T07:00:03.069Z</time>
      </trkpt>
      <trkpt lat="38.90333183" lon="-0.08867633">
        <ele>6.0</ele>
        <time>2018-06-10T07:00:04.069Z</time>
      </trkpt>
      <trkpt lat="38.90338167" lon="-0.08876983">
        <ele>6.0</ele>
        <time>2018-06-10T07:00:05.069Z</time>
      </trkpt>
      <trkpt lat="38.90343117" lon="-0.08886283">
        <ele>6.0</ele>
        <time>2018-06-10T07:00:06.069Z</time>
      </trkpt>
      <trkpt lat="38.90348017" lon="-0.08895533">
        <ele>7.0</ele>
        <time>2018-06-10T07:00:07.069Z</time>
      </trkpt>
      <trkpt lat="38.903529" lon="-0.089047">
        <ele>7.0</ele>
        <time>2018-06-10T07:00:08.069Z</time>
      </trkpt>
      <trkpt lat="38.90357733" lon="-0.0891385">
        <ele>7.0</ele>
        <time>2018-06-10T07:00:09.069Z</time>
      </trkpt>
      <trkpt lat="38.90362533" lon="-0.08922933">
        <ele>7.0</ele>
        <time>2018-06-10T07:00:10.069Z</time>
      </trkpt>
      <trkpt lat="38.903673" lon="-0.08931983">
        <ele>7.0</ele>
        <time>2018-06-10T07:00:11.069Z</time>
      </trkpt>
      <trkpt lat="38.9037205" lon="-0.08940917">
        <ele>7.0</ele>
        <time>2018-06-10T07:00:12.069Z</time>
      </trkpt>
      <trkpt lat="38.9037675" lon="-0.08949783">
        <ele>8.0</ele>
        <time>2018-06-10T07:00:13.069Z</time>
      </trkpt>
      <trkpt lat="38.90381417" lon="-0.08958583">
        <ele>8.0</ele>
        <time>2018-06-10T07:00:14.069Z</time>
      </trkpt>
      <trkpt lat="38.9038605" lon="-0.08967333">
        <ele>8.0</ele>
        <time>2018-06-10T07:00:15.069Z</time>
      </trkpt>
      <trkpt lat="38.903907" lon="-0.08975983">
        <ele>8.0</ele>
        <time>2018-06-10T07:00:16.069Z</time>
      </trkpt>
      <trkpt lat="38.90395317" lon="-0.08984533">
        <ele>8.0</ele>
        <time>2018-06-10T07:00:17.069Z</time>
      </trkpt>
      <trkpt lat="38.903999" lon="-0.08993017">
        <ele>8.0</ele>
        <time>2018-06-10T07:00:18.069Z</time>
      </trkpt>
      <trkpt lat="38.90404483" lon="-0.09001383">
        <ele>9.0</ele>
        <time>2018-06-10T07:00:19.069Z</time>
      </trkpt>
      <trkpt lat="38.90409067" lon="-0.09009667">
        <ele>9.0</ele>
        <time>2018-06-10T07:00:20.069Z</time>
      </trkpt>
      <trkpt lat="38.90413667" lon="-0.09017917">
        <ele>9.0</ele>
        <time>2018-06-10T07:00:21.069Z</time>
      </trkpt>
      <trkpt lat="38.90418217" lon="-0.09026217">
        <ele>9.0</ele>
        <time>2018-06-10T07:00:22.069Z</time>
      </trkpt>
      <trkpt lat="38.9042275" lon="-0.090345">
        <ele>9.0</ele>
        <time>2018-06-10T07:00:23.069Z</time>
      </trkpt>
      <trkpt lat="38.90427267" lon="-0.0904285">
        <ele>9.0</ele>
        <time>2018-06-10T07:00:24.069Z</time>
      </trkpt>
      <trkpt lat="38.90431817" lon="-0.09051233">
        <ele>9.0</ele>
        <time>2018-06-10T07:00:25.069Z</time>
      </trkpt>
      <trkpt lat="38.90436383" lon="-0.09059683">
        <ele>9.0</ele>
        <time>2018-06-10T07:00:26.069Z</time>
      </trkpt>
      <trkpt lat="38.90440983" lon="-0.09068133">
        <ele>9.0</ele>
        <time>2018-06-10T07:00:27.069Z</time>
      </trkpt>
      <trkpt lat="38.904456" lon="-0.09076617">
        <ele>9.0</ele>
        <time>2018-06-10T07:00:28.069Z</time>
      </trkpt>
      <trkpt lat="38.9045025" lon="-0.09085067">
        <ele>9.0</ele>
        <time>2018-06-10T07:00:29.069Z</time>
      </trkpt>
      <trkpt lat="38.90454933" lon="-0.09093517">
        <ele>9.0</ele>
        <time>2018-06-10T07:00:30.069Z</time>
      </trkpt>
      <trkpt lat="38.9045965" lon="-0.09101967">
        <ele>9.0</ele>
        <time>2018-06-10T07:00:31.069Z</time>
      </trkpt>
      <trkpt lat="38.90464367" lon="-0.09110467">
        <ele>9.0</ele>
        <time>2018-06-10T07:00:32.069Z</time>
      </trkpt>
      <trkpt lat="38.90469133" lon="-0.09119017">
        <ele>9.0</ele>
        <time>2018-06-10T07:00:33.069Z</time>
      </trkpt>
      <trkpt lat="38.90474" lon="-0.0912765">
        <ele>9.0</ele>
        <time>2018-06-10T07:00:34.069Z</time>
      </trkpt>
      <trkpt lat="38.90479033" lon="-0.09136467">
        <ele>9.0</ele>
        <time>2018-06-10T07:00:35.069Z</time>
      </trkpt>
      <trkpt lat="38.9048415" lon="-0.091455">
        <ele>9.0</ele>
        <time>2018-06-10T07:00:36.069Z</time>
      </trkpt>
      <trkpt lat="38.90489367" lon="-0.091547">
        <ele>9.0</ele>
        <time>2018-06-10T07:00:37.069Z</time>
      </trkpt>
      <trkpt lat="38.90494633" lon="-0.09163917">
        <ele>9.0</ele>
        <time>2018-06-10T07:00:38.069Z</time>
      </trkpt>
      <trkpt lat="38.90499917" lon="-0.09172917">
        <ele>9.0</ele>
        <time>2018-06-10T07:00:39.069Z</time>
      </trkpt>
      <trkpt lat="38.90505133" lon="-0.09181767">
        <ele>9.0</ele>
        <time>2018-06-10T07:00:40.069Z</time>
      </trkpt>
      <trkpt lat="38.905103" lon="-0.09190467">
        <ele>9.0</ele>
        <time>2018-06-10T07:00:41.069Z</time>
      </trkpt>
      <trkpt lat="38.905154" lon="-0.09199167">
        <ele>9.0</ele>
        <time>2018-06-10T07:00:42.069Z</time>
      </trkpt>
      <trkpt lat="38.90520467" lon="-0.09207817">
        <ele>8.0</ele>
        <time>2018-06-10T07:00:43.069Z</time>
      </trkpt>
      <trkpt lat="38.90525467" lon="-0.092165">
        <ele>8.0</ele>
        <time>2018-06-10T07:00:44.069Z</time>
      </trkpt>
      <trkpt lat="38.90530383" lon="-0.092252">
        <ele>8.0</ele>
        <time>2018-06-10T07:00:45.069Z</time>
      </trkpt>
      <trkpt lat="38.90535267" lon="-0.09233983">
        <ele>8.0</ele>
        <time>2018-06-10T07:00:46.069Z</time>
      </trkpt>
      <trkpt lat="38.90540217" lon="-0.09242767">
        <ele>8.0</ele>
        <time>2018-06-10T07:00:47.069Z</time>
      </trkpt>
      <trkpt lat="38.9054525" lon="-0.092516">
        <ele>8.0</ele>
        <time>2018-06-10T07:00:48.069Z</time>
      </trkpt>
      <trkpt lat="38.90550317" lon="-0.092605">
        <ele>8.0</ele>
        <time>2018-06-10T07:00:49.069Z</time>
      </trkpt>
      <trkpt lat="38.90555367" lon="-0.09269417">
        <ele>8.0</ele>
        <time>2018-06-10T07:00:50.069Z</time>
      </trkpt>
      <trkpt lat="38.905604" lon="-0.0927835">
        <ele>8.0</ele>
        <time>2018-06-10T07:00:51.069Z</time>
      </trkpt>
      <trkpt lat="38.90565433" lon="-0.09287183">
        <ele>8.0</ele>
        <time>2018-06-10T07:00:52.069Z</time>
      </trkpt>
      <trkpt lat="38.90570467" lon="-0.09295933">
        <ele>8.0</ele>
        <time>2018-06-10T07:00:53.069Z</time>
      </trkpt>
      <trkpt lat="38.90575483" lon="-0.09304633">
        <ele>8.0</ele>
        <time>2018-06-10T07:00:54.069Z</time>
      </trkpt>
      <trkpt lat="38.90580483" lon="-0.09313367">
        <ele>8.0</ele>
        <time>2018-06-10T07:00:55.069Z</time>
      </trkpt>
      <trkpt lat="38.90585483" lon="-0.093221">
        <ele>8.0</ele>
        <time>2018-06-10T07:00:56.069Z</time>
      </trkpt>
      <trkpt lat="38.90590467" lon="-0.09330833">
        <ele>8.0</ele>
        <time>2018-06-10T07:00:57.069Z</time>
      </trkpt>
      <trkpt lat="38.90595483" lon="-0.09339517">
        <ele>8.0</ele>
        <time>2018-06-10T07:00:58.069Z</time>
      </trkpt>
      <trkpt lat="38.906005" lon="-0.093482">
        <ele>8.0</ele>
        <time>2018-06-10T07:00:59.069Z</time>
      </trkpt>
      <trkpt lat="38.90605583" lon="-0.093568">
        <ele>8.0</ele>
        <time>2018-06-10T07:01:00.069Z</time>
      </trkpt>
      <trkpt lat="38.90610667" lon="-0.09365317">
        <ele>8.0</ele>
        <time>2018-06-10T07:01:01.069Z</time>
      </trkpt>
      <trkpt lat="38.90615717" lon="-0.09373717">
        <ele>8.0</ele>
        <time>2018-06-10T07:01:02.069Z</time>
      </trkpt>
      <trkpt lat="38.90620667" lon="-0.09381983">
        <ele>8.0</ele>
        <time>2018-06-10T07:01:03.069Z</time>
      </trkpt>
      <trkpt lat="38.90625517" lon="-0.093901">
        <ele>8.0</ele>
        <time>2018-06-10T07:01:04.069Z</time>
      </trkpt>
      <trkpt lat="38.9063025" lon="-0.09398067">
        <ele>8.0</ele>
        <time>2018-06-10T07:01:05.069Z</time>
      </trkpt>
      <trkpt lat="38.90634933" lon="-0.09405917">
        <ele>8.0</ele>
        <time>2018-06-10T07:01:06.069Z</time>
      </trkpt>
      <trkpt lat="38.90639617" lon="-0.0941365">
        <ele>8.0</ele>
        <time>2018-06-10T07:01:07.069Z</time>
      </trkpt>
      <trkpt lat="38.90644333" lon="-0.09421467">
        <ele>8.0</ele>
        <time>2018-06-10T07:01:08.069Z</time>
      </trkpt>
      <trkpt lat="38.90649017" lon="-0.09429467">
        <ele>8.0</ele>
        <time>2018-06-10T07:01:09.069Z</time>
      </trkpt>
      <trkpt lat="38.9065365" lon="-0.09437783">
        <ele>8.0</ele>
        <time>2018-06-10T07:01:10.069Z</time>
      </trkpt>
      <trkpt lat="38.90658417" lon="-0.094463">
        <ele>9.0</ele>
        <time>2018-06-10T07:01:11.069Z</time>
      </trkpt>
      <trkpt lat="38.90663333" lon="-0.094549">
        <ele>9.0</ele>
        <time>2018-06-10T07:01:12.069Z</time>
      </trkpt>
      <trkpt lat="38.90668467" lon="-0.09463567">
        <ele>9.0</ele>
        <time>2018-06-10T07:01:13.069Z</time>
      </trkpt>
      <trkpt lat="38.906736" lon="-0.0947235">
        <ele>9.0</ele>
        <time>2018-06-10T07:01:14.069Z</time>
      </trkpt>
      <trkpt lat="38.90678817" lon="-0.094812">
        <ele>9.0</ele>
        <time>2018-06-10T07:01:15.069Z</time>
      </trkpt>
      <trkpt lat="38.90684117" lon="-0.09490133">
        <ele>9.0</ele>
        <time>2018-06-10T07:01:16.069Z</time>
      </trkpt>
      <trkpt lat="38.90689467" lon="-0.094991">
        <ele>9.0</ele>
        <time>2018-06-10T07:01:17.069Z</time>
      </trkpt>
      <trkpt lat="38.90694783" lon="-0.09508167">
        <ele>10.0</ele>
        <time>2018-06-10T07:01:18.069Z</time>
      </trkpt>
      <trkpt lat="38.90700017" lon="-0.095173">
        <ele>10.0</ele>
        <time>2018-06-10T07:01:19.069Z</time>
      </trkpt>
      <trkpt lat="38.90705167" lon="-0.09526567">
        <ele>10.0</ele>
        <time>2018-06-10T07:01:20.069Z</time>
      </trkpt>
      <trkpt lat="38.90710317" lon="-0.0953585">
        <ele>10.0</ele>
        <time>2018-06-10T07:01:21.069Z</time>
      </trkpt>
      <trkpt lat="38.90715533" lon="-0.09545167">
        <ele>10.0</ele>
        <time>2018-06-10T07:01:22.069Z</time>
      </trkpt>
      <trkpt lat="38.90720833" lon="-0.09554517">
        <ele>10.0</ele>
        <time>2018-06-10T07:01:23.069Z</time>
      </trkpt>
      <trkpt lat="38.90726167" lon="-0.09563933">
        <ele>10.0</ele>
        <time>2018-06-10T07:01:24.069Z</time>
      </trkpt>
      <trkpt lat="38.90731517" lon="-0.09573367">
        <ele>10.0</ele>
        <time>2018-06-10T07:01:25.069Z</time>
      </trkpt>
      <trkpt lat="38.90736933" lon="-0.0958275">
        <ele>10.0</ele>
        <time>2018-06-10T07:01:26.069Z</time>
      </trkpt>
      <trkpt lat="38.90742383" lon="-0.09592067">
        <ele>10.0</ele>
        <time>2018-06-10T07:01:27.069Z</time>
      </trkpt>
      <trkpt lat="38.907478" lon="-0.09601333">
        <ele>10.0</ele>
        <time>2018-06-10T07:01:28.069Z</time>
      </trkpt>
      <trkpt lat="38.90753167" lon="-0.0961055">
        <ele>10.0</ele>
        <time>2018-06-10T07:01:29.069Z</time>
      </trkpt>
      <trkpt lat="38.907585" lon="-0.09619767">
        <ele>10.0</ele>
        <time>2018-06-10T07:01:30.069Z</time>
      </trkpt>
      <trkpt lat="38.90763833" lon="-0.0962895">
        <ele>10.0</ele>
        <time>2018-06-10T07:01:31.069Z</time>
      </trkpt>
      <trkpt lat="38.90769183" lon="-0.09638167">
        <ele>10.0</ele>
        <time>2018-06-10T07:01:32.069Z</time>
      </trkpt>
      <trkpt lat="38.9077455" lon="-0.09647483">
        <ele>10.0</ele>
        <time>2018-06-10T07:01:33.069Z</time>
      </trkpt>
      <trkpt lat="38.90779883" lon="-0.096569">
        <ele>10.0</ele>
        <time>2018-06-10T07:01:34.069Z</time>
      </trkpt>
      <trkpt lat="38.90785283" lon="-0.09666333">
        <ele>10.0</ele>
        <time>2018-06-10T07:01:35.069Z</time>
      </trkpt>
      <trkpt lat="38.90790733" lon="-0.09675767">
        <ele>10.0</ele>
        <time>2018-06-10T07:01:36.069Z</time>
      </trkpt>
      <trkpt lat="38.90796183" lon="-0.09685167">
        <ele>10.0</ele>
        <time>2018-06-10T07:01:37.069Z</time>
      </trkpt>
      <trkpt lat="38.90801567" lon="-0.09694583">
        <ele>11.0</ele>
        <time>2018-06-10T07:01:38.069Z</time>
      </trkpt>
      <trkpt lat="38.90806917" lon="-0.0970395">
        <ele>11.0</ele>
        <time>2018-06-10T07:01:39.069Z</time>
      </trkpt>
      <trkpt lat="38.908123" lon="-0.09713233">
        <ele>11.0</ele>
        <time>2018-06-10T07:01:40.069Z</time>
      </trkpt>
      <trkpt lat="38.9081775" lon="-0.09722483">
        <ele>11.0</ele>
        <time>2018-06-10T07:01:41.069Z</time>
      </trkpt>
      <trkpt lat="38.9082335" lon="-0.09731667">
        <ele>11.0</ele>
        <time>2018-06-10T07:01:42.069Z</time>
      </trkpt>
      <trkpt lat="38.90828967" lon="-0.097409">
        <ele>11.0</ele>
        <time>2018-06-10T07:01:43.069Z</time>
      </trkpt>
      <trkpt lat="38.90834567" lon="-0.09750183">
        <ele>11.0</ele>
        <time>2018-06-10T07:01:44.069Z</time>
      </trkpt>
      <trkpt lat="38.90840017" lon="-0.0975955">
        <ele>12.0</ele>
        <time>2018-06-10T07:01:45.069Z</time>
      </trkpt>
      <trkpt lat="38.90845333" lon="-0.09768867">
        <ele>12.0</ele>
        <time>2018-06-10T07:01:46.069Z</time>
      </trkpt>
      <trkpt lat="38.9085055" lon="-0.09778133">
        <ele>12.0</ele>
        <time>2018-06-10T07:01:47.069Z</time>
      </trkpt>
      <trkpt lat="38.9085565" lon="-0.09787467">
        <ele>12.0</ele>
        <time>2018-06-10T07:01:48.069Z</time>
      </trkpt>
      <trkpt lat="38.90860633" lon="-0.09796983">
        <ele>12.0</ele>
        <time>2018-06-10T07:01:49.069Z</time>
      </trkpt>
      <trkpt lat="38.908655" lon="-0.0980675">
        <ele>12.0</ele>
        <time>2018-06-10T07:01:50.069Z</time>
      </trkpt>
      <trkpt lat="38.90870367" lon="-0.098167">
        <ele>13.0</ele>
        <time>2018-06-10T07:01:51.069Z</time>
      </trkpt>
      <trkpt lat="38.9087525" lon="-0.09826817">
        <ele>13.0</ele>
        <time>2018-06-10T07:01:52.069Z</time>
      </trkpt>
      <trkpt lat="38.90880167" lon="-0.0983705">
        <ele>13.0</ele>
        <time>2018-06-10T07:01:53.069Z</time>
      </trkpt>
      <trkpt lat="38.9088505" lon="-0.09847417">
        <ele>13.0</ele>
        <time>2018-06-10T07:01:54.069Z</time>
      </trkpt>
      <trkpt lat="38.9088985" lon="-0.09857867">
        <ele>13.0</ele>
        <time>2018-06-10T07:01:55.069Z</time>
      </trkpt>
      <trkpt lat="38.90894533" lon="-0.09868433">
        <ele>13.0</ele>
        <time>2018-06-10T07:01:56.069Z</time>
      </trkpt>
      <trkpt lat="38.90899133" lon="-0.098791">
        <ele>13.0</ele>
        <time>2018-06-10T07:01:57.069Z</time>
      </trkpt>
      <trkpt lat="38.90903617" lon="-0.09889933">
        <ele>13.0</ele>
        <time>2018-06-10T07:01:58.069Z</time>
      </trkpt>
      <trkpt lat="38.90908083" lon="-0.09900767">
        <ele>13.0</ele>
        <time>2018-06-10T07:01:59.069Z</time>
      </trkpt>
      <trkpt lat="38.909125" lon="-0.09911517">
        <ele>13.0</ele>
        <time>2018-06-10T07:02:00.069Z</time>
      </trkpt>
      <trkpt lat="38.90916867" lon="-0.099222">
        <ele>13.0</ele>
        <time>2018-06-10T07:02:01.069Z</time>
      </trkpt>
      <trkpt lat="38.90921117" lon="-0.09933">
        <ele>13.0</ele>
        <time>2018-06-10T07:02:02.069Z</time>
      </trkpt>
      <trkpt lat="38.909253" lon="-0.099441">
        <ele>13.0</ele>
        <time>2018-06-10T07:02:03.069Z</time>
      </trkpt>
      <trkpt lat="38.90929433" lon="-0.09955433">
        <ele>13.0</ele>
        <time>2018-06-10T07:02:04.069Z</time>
      </trkpt>
      <trkpt lat="38.90933467" lon="-0.09966967">
        <ele>13.0</ele>
        <time>2018-06-10T07:02:05.069Z</time>
      </trkpt>
      <trkpt lat="38.90937383" lon="-0.099786">
        <ele>13.0</ele>
        <time>2018-06-10T07:02:06.069Z</time>
      </trkpt>
      <trkpt lat="38.90941183" lon="-0.09990367">
        <ele>13.0</ele>
        <time>2018-06-10T07:02:07.069Z</time>
      </trkpt>
      <trkpt lat="38.90944933" lon="-0.10002233">
        <ele>13.0</ele>
        <time>2018-06-10T07:02:08.069Z</time>
      </trkpt>
      <trkpt lat="38.9094865" lon="-0.100142">
        <ele>13.0</ele>
        <time>2018-06-10T07:02:09.069Z</time>
      </trkpt>
      <trkpt lat="38.9095235" lon="-0.10026267">
        <ele>12.0</ele>
        <time>2018-06-10T07:02:10.069Z</time>
      </trkpt>
      <trkpt lat="38.90956017" lon="-0.100385">
        <ele>12.0</ele>
        <time>2018-06-10T07:02:11.069Z</time>
      </trkpt>
      <trkpt lat="38.90959633" lon="-0.10050933">
        <ele>12.0</ele>
        <time>2018-06-10T07:02:12.069Z</time>
      </trkpt>
      <trkpt lat="38.909632" lon="-0.1006355">
        <ele>12.0</ele>
        <time>2018-06-10T07:02:13.069Z</time>
      </trkpt>
      <trkpt lat="38.90966733" lon="-0.10076283">
        <ele>12.0</ele>
        <time>2018-06-10T07:02:14.069Z</time>
      </trkpt>
      <trkpt lat="38.909703" lon="-0.1008905">
        <ele>11.0</ele>
        <time>2018-06-10T07:02:15.069Z</time>
      </trkpt>
      <trkpt lat="38.90973933" lon="-0.10101867">
        <ele>11.0</ele>
        <time>2018-06-10T07:02:16.069Z</time>
      </trkpt>
      <trkpt lat="38.90977633" lon="-0.101147">
        <ele>11.0</ele>
        <time>2018-06-10T07:02:17.069Z</time>
      </trkpt>
      <trkpt lat="38.909813" lon="-0.10127617">
        <ele>11.0</ele>
        <time>2018-06-10T07:02:18.069Z</time>
      </trkpt>
      <trkpt lat="38.90984967" lon="-0.10140583">
        <ele>11.0</ele>
        <time>2018-06-10T07:02:19.069Z</time>
      </trkpt>
      <trkpt lat="38.90988633" lon="-0.10153583">
        <ele>11.0</ele>
        <time>2018-06-10T07:02:20.069Z</time>
      </trkpt>
      <trkpt lat="38.909924" lon="-0.10166567">
        <ele>11.0</ele>
        <time>2018-06-10T07:02:21.069Z</time>
      </trkpt>
      <trkpt lat="38.90996117" lon="-0.10179567">
        <ele>11.0</ele>
        <time>2018-06-10T07:02:22.069Z</time>
      </trkpt>
      <trkpt lat="38.90999833" lon="-0.10192533">
        <ele>11.0</ele>
        <time>2018-06-10T07:02:23.069Z</time>
      </trkpt>
      <trkpt lat="38.91003517" lon="-0.10205467">
        <ele>11.0</ele>
        <time>2018-06-10T07:02:24.069Z</time>
      </trkpt>
      <trkpt lat="38.910072" lon="-0.10218317">
        <ele>11.0</ele>
        <time>2018-06-10T07:02:25.069Z</time>
      </trkpt>
      <trkpt lat="38.91010833" lon="-0.1023115">
        <ele>11.0</ele>
        <time>2018-06-10T07:02:26.069Z</time>
      </trkpt>
      <trkpt lat="38.9101445" lon="-0.10243967">
        <ele>11.0</ele>
        <time>2018-06-10T07:02:27.069Z</time>
      </trkpt>
      <trkpt lat="38.91018067" lon="-0.10256817">
        <ele>11.0</ele>
        <time>2018-06-10T07:02:28.069Z</time>
      </trkpt>
      <trkpt lat="38.91021683" lon="-0.10269783">
        <ele>11.0</ele>
        <time>2018-06-10T07:02:29.069Z</time>
      </trkpt>
      <trkpt lat="38.91025317" lon="-0.10282867">
        <ele>10.0</ele>
        <time>2018-06-10T07:02:30.069Z</time>
      </trkpt>
      <trkpt lat="38.91028983" lon="-0.1029605">
        <ele>10.0</ele>
        <time>2018-06-10T07:02:31.069Z</time>
      </trkpt>
      <trkpt lat="38.910327" lon="-0.1030925">
        <ele>10.0</ele>
        <time>2018-06-10T07:02:32.069Z</time>
      </trkpt>
      <trkpt lat="38.91036467" lon="-0.10322483">
        <ele>10.0</ele>
        <time>2018-06-10T07:02:33.069Z</time>
      </trkpt>
      <trkpt lat="38.91040267" lon="-0.10335833">
        <ele>10.0</ele>
        <time>2018-06-10T07:02:34.069Z</time>
      </trkpt>
      <trkpt lat="38.910441" lon="-0.103493">
        <ele>10.0</ele>
        <time>2018-06-10T07:02:35.069Z</time>
      </trkpt>
      <trkpt lat="38.91047883" lon="-0.1036285">
        <ele>10.0</ele>
        <time>2018-06-10T07:02:36.069Z</time>
      </trkpt>
      <trkpt lat="38.91051683" lon="-0.10376417">
        <ele>10.0</ele>
        <time>2018-06-10T07:02:37.069Z</time>
      </trkpt>
      <trkpt lat="38.910555" lon="-0.1039">
        <ele>10.0</ele>
        <time>2018-06-10T07:02:38.069Z</time>
      </trkpt>
      <trkpt lat="38.91059283" lon="-0.10403617">
        <ele>10.0</ele>
        <time>2018-06-10T07:02:39.069Z</time>
      </trkpt>
      <trkpt lat="38.91063017" lon="-0.10417267">
        <ele>10.0</ele>
        <time>2018-06-10T07:02:40.069Z</time>
      </trkpt>
      <trkpt lat="38.91066767" lon="-0.1043095">
        <ele>10.0</ele>
        <time>2018-06-10T07:02:41.069Z</time>
      </trkpt>
      <trkpt lat="38.91070583" lon="-0.1044465">
        <ele>10.0</ele>
        <time>2018-06-10T07:02:42.069Z</time>
      </trkpt>
      <trkpt lat="38.9107445" lon="-0.10458383">
        <ele>10.0</ele>
        <time>2018-06-10T07:02:43.069Z</time>
      </trkpt>
      <trkpt lat="38.91078367" lon="-0.10472133">
        <ele>10.0</ele>
        <time>2018-06-10T07:02:44.069Z</time>
      </trkpt>
      <trkpt lat="38.91082267" lon="-0.10485933">
        <ele>10.0</ele>
        <time>2018-06-10T07:02:45.069Z</time>
      </trkpt>
      <trkpt lat="38.910861" lon="-0.10499733">
        <ele>10.0</ele>
        <time>2018-06-10T07:02:46.069Z</time>
      </trkpt>
      <trkpt lat="38.910899" lon="-0.10513533">
        <ele>10.0</ele>
        <time>2018-06-10T07:02:47.069Z</time>
      </trkpt>
      <trkpt lat="38.910937" lon="-0.1052725">
        <ele>10.0</ele>
        <time>2018-06-10T07:02:48.069Z</time>
      </trkpt>
      <trkpt lat="38.9109755" lon="-0.10540917">
        <ele>10.0</ele>
        <time>2018-06-10T07:02:49.069Z</time>
      </trkpt>
      <trkpt lat="38.911014" lon="-0.105546">
        <ele>10.0</ele>
        <time>2018-06-10T07:02:50.069Z</time>
      </trkpt>
      <trkpt lat="38.91105267" lon="-0.10568283">
        <ele>10.0</ele>
        <time>2018-06-10T07:02:51.069Z</time>
      </trkpt>
      <trkpt lat="38.91109117" lon="-0.10581883">
        <ele>10.0</ele>
        <time>2018-06-10T07:02:52.069Z</time>
      </trkpt>
      <trkpt lat="38.91112933" lon="-0.10595283">
        <ele>10.0</ele>
        <time>2018-06-10T07:02:53.069Z</time>
      </trkpt>
      <trkpt lat="38.91116583" lon="-0.10608217">
        <ele>10.0</ele>
        <time>2018-06-10T07:02:54.069Z</time>
      </trkpt>
      <trkpt lat="38.9112005" lon="-0.10620983">
        <ele>11.0</ele>
        <time>2018-06-10T07:02:55.069Z</time>
      </trkpt>
      <trkpt lat="38.9112335" lon="-0.10633417">
        <ele>11.0</ele>
        <time>2018-06-10T07:02:56.069Z</time>
      </trkpt>
      <trkpt lat="38.91126717" lon="-0.10645867">
        <ele>10.0</ele>
        <time>2018-06-10T07:02:57.069Z</time>
      </trkpt>
      <trkpt lat="38.91130117" lon="-0.10658">
        <ele>10.0</ele>
        <time>2018-06-10T07:02:58.069Z</time>
      </trkpt>
      <trkpt lat="38.911336" lon="-0.1067">
        <ele>10.0</ele>
        <time>2018-06-10T07:02:59.069Z</time>
      </trkpt>
      <trkpt lat="38.91137017" lon="-0.10681783">
        <ele>10.0</ele>
        <time>2018-06-10T07:03:00.069Z</time>
      </trkpt>
      <trkpt lat="38.91140433" lon="-0.10693417">
        <ele>10.0</ele>
        <time>2018-06-10T07:03:01.069Z</time>
      </trkpt>
      <trkpt lat="38.911438" lon="-0.10704983">
        <ele>10.0</ele>
        <time>2018-06-10T07:03:02.069Z</time>
      </trkpt>
      <trkpt lat="38.91147083" lon="-0.10716417">
        <ele>10.0</ele>
        <time>2018-06-10T07:03:03.069Z</time>
      </trkpt>
      <trkpt lat="38.911503" lon="-0.10727783">
        <ele>10.0</ele>
        <time>2018-06-10T07:03:04.069Z</time>
      </trkpt>
      <trkpt lat="38.9115345" lon="-0.10739033">
        <ele>10.0</ele>
        <time>2018-06-10T07:03:05.069Z</time>
      </trkpt>
      <trkpt lat="38.91156617" lon="-0.10750133">
        <ele>10.0</ele>
        <time>2018-06-10T07:03:06.069Z</time>
      </trkpt>
      <trkpt lat="38.91159733" lon="-0.10761133">
        <ele>10.0</ele>
        <time>2018-06-10T07:03:07.069Z</time>
      </trkpt>
      <trkpt lat="38.9116285" lon="-0.1077205">
        <ele>10.0</ele>
        <time>2018-06-10T07:03:08.069Z</time>
      </trkpt>
      <trkpt lat="38.91165933" lon="-0.107829">
        <ele>10.0</ele>
        <time>2018-06-10T07:03:09.069Z</time>
      </trkpt>
      <trkpt lat="38.91169" lon="-0.10793667">
        <ele>10.0</ele>
        <time>2018-06-10T07:03:10.069Z</time>
      </trkpt>
      <trkpt lat="38.9117205" lon="-0.1080435">
        <ele>10.0</ele>
        <time>2018-06-10T07:03:11.069Z</time>
      </trkpt>
      <trkpt lat="38.911751" lon="-0.10814933">
        <ele>10.0</ele>
        <time>2018-06-10T07:03:12.069Z</time>
      </trkpt>
      <trkpt lat="38.91178167" lon="-0.1082545">
        <ele>10.0</ele>
        <time>2018-06-10T07:03:13.069Z</time>
      </trkpt>
      <trkpt lat="38.911812" lon="-0.1083595">
        <ele>10.0</ele>
        <time>2018-06-10T07:03:14.069Z</time>
      </trkpt>
      <trkpt lat="38.91184167" lon="-0.1084635">
        <ele>10.0</ele>
        <time>2018-06-10T07:03:15.069Z</time>
      </trkpt>
      <trkpt lat="38.91187067" lon="-0.10856817">
        <ele>10.0</ele>
        <time>2018-06-10T07:03:16.069Z</time>
      </trkpt>
      <trkpt lat="38.91190017" lon="-0.10867333">
        <ele>10.0</ele>
        <time>2018-06-10T07:03:17.069Z</time>
      </trkpt>
      <trkpt lat="38.91193117" lon="-0.10878017">
        <ele>10.0</ele>
        <time>2018-06-10T07:03:18.069Z</time>
      </trkpt>
      <trkpt lat="38.91196333" lon="-0.108888">
        <ele>10.0</ele>
        <time>2018-06-10T07:03:19.069Z</time>
      </trkpt>
      <trkpt lat="38.9119965" lon="-0.10899783">
        <ele>10.0</ele>
        <time>2018-06-10T07:03:20.069Z</time>
      </trkpt>
      <trkpt lat="38.91202983" lon="-0.10911017">
        <ele>10.0</ele>
        <time>2018-06-10T07:03:21.069Z</time>
      </trkpt>
      <trkpt lat="38.91206267" lon="-0.1092255">
        <ele>10.0</ele>
        <time>2018-06-10T07:03:22.069Z</time>
      </trkpt>
      <trkpt lat="38.912095" lon="-0.10934267">
        <ele>10.0</ele>
        <time>2018-06-10T07:03:23.069Z</time>
      </trkpt>
      <trkpt lat="38.91212567" lon="-0.10945983">
        <ele>10.0</ele>
        <time>2018-06-10T07:03:24.069Z</time>
      </trkpt>
      <trkpt lat="38.91215633" lon="-0.10957517">
        <ele>10.0</ele>
        <time>2018-06-10T07:03:25.069Z</time>
      </trkpt>
      <trkpt lat="38.91218767" lon="-0.1096875">
        <ele>10.0</ele>
        <time>2018-06-10T07:03:26.069Z</time>
      </trkpt>
      <trkpt lat="38.91222017" lon="-0.10979733">
        <ele>10.0</ele>
        <time>2018-06-10T07:03:27.069Z</time>
      </trkpt>
      <trkpt lat="38.9122525" lon="-0.10990483">
        <ele>11.0</ele>
        <time>2018-06-10T07:03:28.069Z</time>
      </trkpt>
      <trkpt lat="38.912283" lon="-0.110011">
        <ele>10.0</ele>
        <time>2018-06-10T07:03:29.069Z</time>
      </trkpt>
      <trkpt lat="38.91231233" lon="-0.11011517">
        <ele>10.0</ele>
        <time>2018-06-10T07:03:30.069Z</time>
      </trkpt>
      <trkpt lat="38.91234067" lon="-0.11021733">
        <ele>11.0</ele>
        <time>2018-06-10T07:03:31.069Z</time>
      </trkpt>
      <trkpt lat="38.912368" lon="-0.110317">
        <ele>11.0</ele>
        <time>2018-06-10T07:03:32.069Z</time>
      </trkpt>
      <trkpt lat="38.9123945" lon="-0.11041367">
        <ele>11.0</ele>
        <time>2018-06-10T07:03:33.069Z</time>
      </trkpt>
      <trkpt lat="38.91242117" lon="-0.11050767">
        <ele>11.0</ele>
        <time>2018-06-10T07:03:34.069Z</time>
      </trkpt>
      <trkpt lat="38.91244767" lon="-0.11059917">
        <ele>11.0</ele>
        <time>2018-06-10T07:03:35.069Z</time>
      </trkpt>
      <trkpt lat="38.91247367" lon="-0.11068917">
        <ele>11.0</ele>
        <time>2018-06-10T07:03:36.069Z</time>
      </trkpt>
      <trkpt lat="38.91249883" lon="-0.11077783">
        <ele>11.0</ele>
        <time>2018-06-10T07:03:37.069Z</time>
      </trkpt>
      <trkpt lat="38.91252217" lon="-0.11086633">
        <ele>12.0</ele>
        <time>2018-06-10T07:03:38.069Z</time>
      </trkpt>
      <trkpt lat="38.912545" lon="-0.11095317">
        <ele>12.0</ele>
        <time>2018-06-10T07:03:39.069Z</time>
      </trkpt>
      <trkpt lat="38.91256683" lon="-0.11103833">
        <ele>12.0</ele>
        <time>2018-06-10T07:03:40.069Z</time>
      </trkpt>
      <trkpt lat="38.912589" lon="-0.11112017">
        <ele>12.0</ele>
        <time>2018-06-10T07:03:41.069Z</time>
      </trkpt>
      <trkpt lat="38.91261033" lon="-0.1112005">
        <ele>12.0</ele>
        <time>2018-06-10T07:03:42.069Z</time>
      </trkpt>
      <trkpt lat="38.9126315" lon="-0.11127867">
        <ele>12.0</ele>
        <time>2018-06-10T07:03:43.069Z</time>
      </trkpt>
      <trkpt lat="38.91265267" lon="-0.1113545">
        <ele>12.0</ele>
        <time>2018-06-10T07:03:44.069Z</time>
      </trkpt>
      <trkpt lat="38.912675" lon="-0.11142633">
        <ele>12.0</ele>
        <time>2018-06-10T07:03:45.069Z</time>
      </trkpt>
      <trkpt lat="38.9126985" lon="-0.11149433">
        <ele>12.0</ele>
        <time>2018-06-10T07:03:46.069Z</time>
      </trkpt>
      <trkpt lat="38.91272367" lon="-0.11155833">
        <ele>12.0</ele>
        <time>2018-06-10T07:03:47.069Z</time>
      </trkpt>
      <trkpt lat="38.91275317" lon="-0.11161633">
        <ele>12.0</ele>
        <time>2018-06-10T07:03:48.069Z</time>
      </trkpt>
      <trkpt lat="38.91278917" lon="-0.11166617">
        <ele>12.0</ele>
        <time>2018-06-10T07:03:49.069Z</time>
      </trkpt>
      <trkpt lat="38.9128315" lon="-0.11170283">
        <ele>13.0</ele>
        <time>2018-06-10T07:03:50.069Z</time>
      </trkpt>
      <trkpt lat="38.9128755" lon="-0.1117345">
        <ele>13.0</ele>
        <time>2018-06-10T07:03:51.069Z</time>
      </trkpt>
      <trkpt lat="38.91291617" lon="-0.11176333">
        <ele>13.0</ele>
        <time>2018-06-10T07:03:52.069Z</time>
      </trkpt>
      <trkpt lat="38.91295117" lon="-0.11179683">
        <ele>12.0</ele>
        <time>2018-06-10T07:03:53.069Z</time>
      </trkpt>
      <trkpt lat="38.9129805" lon="-0.11183167">
        <ele>12.0</ele>
        <time>2018-06-10T07:03:54.069Z</time>
      </trkpt>
      <trkpt lat="38.9130075" lon="-0.11186817">
        <ele>12.0</ele>
        <time>2018-06-10T07:03:55.069Z</time>
      </trkpt>
      <trkpt lat="38.91303433" lon="-0.11190433">
        <ele>12.0</ele>
        <time>2018-06-10T07:03:56.069Z</time>
      </trkpt>
      <trkpt lat="38.91306233" lon="-0.11193767">
        <ele>12.0</ele>
        <time>2018-06-10T07:03:57.069Z</time>
      </trkpt>
      <trkpt lat="38.91309167" lon="-0.1119675">
        <ele>12.0</ele>
        <time>2018-06-10T07:03:58.069Z</time>
      </trkpt>
      <trkpt lat="38.9131215" lon="-0.1119935">
        <ele>12.0</ele>
        <time>2018-06-10T07:03:59.069Z</time>
      </trkpt>
      <trkpt lat="38.91315017" lon="-0.1120175">
        <ele>12.0</ele>
        <time>2018-06-10T07:04:00.069Z</time>
      </trkpt>
      <trkpt lat="38.91317367" lon="-0.1120425">
        <ele>12.0</ele>
        <time>2018-06-10T07:04:01.069Z</time>
      </trkpt>
      <trkpt lat="38.91319" lon="-0.11206917">
        <ele>11.0</ele>
        <time>2018-06-10T07:04:02.069Z</time>
      </trkpt>
      <trkpt lat="38.91320017" lon="-0.11209517">
        <ele>11.0</ele>
        <time>2018-06-10T07:04:03.069Z</time>
      </trkpt>
      <trkpt lat="38.91320517" lon="-0.112116">
        <ele>11.0</ele>
        <time>2018-06-10T07:04:04.069Z</time>
      </trkpt>
      <trkpt lat="38.91319733" lon="-0.11214683">
        <ele>19.0</ele>
        <time>2018-06-10T07:04:05.022Z</time>
      </trkpt>
      <trkpt lat="38.91320333" lon="-0.112163">
        <ele>20.0</ele>
        <time>2018-06-10T07:04:06.022Z</time>
      </trkpt>
      <trkpt lat="38.913212" lon="-0.1121845">
        <ele>20.0</ele>
        <time>2018-06-10T07:04:07.022Z</time>
      </trkpt>
      <trkpt lat="38.91322417" lon="-0.11220817">
        <ele>20.0</ele>
        <time>2018-06-10T07:04:08.022Z</time>
      </trkpt>
      <trkpt lat="38.9132425" lon="-0.11223217">
        <ele>21.0</ele>
        <time>2018-06-10T07:04:09.022Z</time>
      </trkpt>
      <trkpt lat="38.913265" lon="-0.11225333">
        <ele>21.0</ele>
        <time>2018-06-10T07:04:10.022Z</time>
      </trkpt>
      <trkpt lat="38.91328883" lon="-0.112277">
        <ele>22.0</ele>
        <time>2018-06-10T07:04:11.022Z</time>
      </trkpt>
      <trkpt lat="38.91331333" lon="-0.112303">
        <ele>22.0</ele>
        <time>2018-06-10T07:04:12.022Z</time>
      </trkpt>
      <trkpt lat="38.91333783" lon="-0.112333">
        <ele>22.0</ele>
        <time>2018-06-10T07:04:13.022Z</time>
      </trkpt>
      <trkpt lat="38.91336567" lon="-0.1123635">
        <ele>22.0</ele>
        <time>2018-06-10T07:04:14.022Z</time>
      </trkpt>
      <trkpt lat="38.9133945" lon="-0.11239417">
        <ele>22.0</ele>
        <time>2018-06-10T07:04:15.022Z</time>
      </trkpt>
      <trkpt lat="38.91342483" lon="-0.11242333">
        <ele>22.0</ele>
        <time>2018-06-10T07:04:16.022Z</time>
      </trkpt>
      <trkpt lat="38.91345417" lon="-0.11245333">
        <ele>23.0</ele>
        <time>2018-06-10T07:04:17.022Z</time>
      </trkpt>
      <trkpt lat="38.91348333" lon="-0.11248417">
        <ele>23.0</ele>
        <time>2018-06-10T07:04:18.022Z</time>
      </trkpt>
      <trkpt lat="38.913512" lon="-0.11251517">
        <ele>23.0</ele>
        <time>2018-06-10T07:04:19.022Z</time>
      </trkpt>
      <trkpt lat="38.91354167" lon="-0.11254517">
        <ele>24.0</ele>
        <time>2018-06-10T07:04:20.022Z</time>
      </trkpt>
      <trkpt lat="38.91357233" lon="-0.112579">
        <ele>23.0</ele>
        <time>2018-06-10T07:04:21.022Z</time>
      </trkpt>
      <trkpt lat="38.91360667" lon="-0.1126155">
        <ele>23.0</ele>
        <time>2018-06-10T07:04:22.022Z</time>
      </trkpt>
      <trkpt lat="38.9136425" lon="-0.1126545">
        <ele>23.0</ele>
        <time>2018-06-10T07:04:23.022Z</time>
      </trkpt>
      <trkpt lat="38.91367833" lon="-0.1126925">
        <ele>24.0</ele>
        <time>2018-06-10T07:04:24.022Z</time>
      </trkpt>
      <trkpt lat="38.91371217" lon="-0.11273067">
        <ele>25.0</ele>
        <time>2018-06-10T07:04:25.022Z</time>
      </trkpt>
      <trkpt lat="38.91374633" lon="-0.11277">
        <ele>26.0</ele>
        <time>2018-06-10T07:04:26.022Z</time>
      </trkpt>
      <trkpt lat="38.91378133" lon="-0.11281017">
        <ele>26.0</ele>
        <time>2018-06-10T07:04:27.022Z</time>
      </trkpt>
      <trkpt lat="38.91381833" lon="-0.1128495">
        <ele>26.0</ele>
        <time>2018-06-10T07:04:28.022Z</time>
      </trkpt>
      <trkpt lat="38.913859" lon="-0.1128835">
        <ele>27.0</ele>
        <time>2018-06-10T07:04:29.022Z</time>
      </trkpt>
      <trkpt lat="38.91390417" lon="-0.1129065">
        <ele>29.0</ele>
        <time>2018-06-10T07:04:30.022Z</time>
      </trkpt>
      <trkpt lat="38.9139535" lon="-0.11290017">
        <ele>26.0</ele>
        <time>2018-06-10T07:04:31.022Z</time>
      </trkpt>
      <trkpt lat="38.91400267" lon="-0.11287267">
        <ele>23.0</ele>
        <time>2018-06-10T07:04:32.022Z</time>
      </trkpt>
      <trkpt lat="38.91405033" lon="-0.11282833">
        <ele>22.0</ele>
        <time>2018-06-10T07:04:33.022Z</time>
      </trkpt>
      <trkpt lat="38.91409567" lon="-0.1127845">
        <ele>23.0</ele>
        <time>2018-06-10T07:04:34.022Z</time>
      </trkpt>
      <trkpt lat="38.91414117" lon="-0.112737">
        <ele>22.0</ele>
        <time>2018-06-10T07:04:35.022Z</time>
      </trkpt>
      <trkpt lat="38.914188" lon="-0.11269083">
        <ele>20.0</ele>
        <time>2018-06-10T07:04:36.022Z</time>
      </trkpt>
      <trkpt lat="38.91423683" lon="-0.1126465">
        <ele>20.0</ele>
        <time>2018-06-10T07:04:37.022Z</time>
      </trkpt>
      <trkpt lat="38.91428683" lon="-0.11260283">
        <ele>19.0</ele>
        <time>2018-06-10T07:04:38.022Z</time>
      </trkpt>
      <trkpt lat="38.914336" lon="-0.112555">
        <ele>18.0</ele>
        <time>2018-06-10T07:04:39.022Z</time>
      </trkpt>
      <trkpt lat="38.91438433" lon="-0.11250633">
        <ele>18.0</ele>
        <time>2018-06-10T07:04:40.022Z</time>
      </trkpt>
      <trkpt lat="38.91443133" lon="-0.11245667">
        <ele>18.0</ele>
        <time>2018-06-10T07:04:41.022Z</time>
      </trkpt>
      <trkpt lat="38.91447867" lon="-0.11240867">
        <ele>18.0</ele>
        <time>2018-06-10T07:04:42.022Z</time>
      </trkpt>
      <trkpt lat="38.91452567" lon="-0.1123605">
        <ele>17.0</ele>
        <time>2018-06-10T07:04:43.022Z</time>
      </trkpt>
      <trkpt lat="38.91457367" lon="-0.112313">
        <ele>17.0</ele>
        <time>2018-06-10T07:04:44.022Z</time>
      </trkpt>
      <trkpt lat="38.91462183" lon="-0.1122645">
        <ele>16.0</ele>
        <time>2018-06-10T07:04:45.022Z</time>
      </trkpt>
      <trkpt lat="38.91466933" lon="-0.1122135">
        <ele>16.0</ele>
        <time>2018-06-10T07:04:46.022Z</time>
      </trkpt>
      <trkpt lat="38.91471817" lon="-0.11216167">
        <ele>16.0</ele>
        <time>2018-06-10T07:04:47.022Z</time>
      </trkpt>
      <trkpt lat="38.91476667" lon="-0.11210717">
        <ele>15.0</ele>
        <time>2018-06-10T07:04:48.022Z</time>
      </trkpt>
      <trkpt lat="38.9148155" lon="-0.11205333">
        <ele>15.0</ele>
        <time>2018-06-10T07:04:49.022Z</time>
      </trkpt>
      <trkpt lat="38.91486367" lon="-0.11199933">
        <ele>14.0</ele>
        <time>2018-06-10T07:04:50.022Z</time>
      </trkpt>
      <trkpt lat="38.91491417" lon="-0.11194783">
        <ele>14.0</ele>
        <time>2018-06-10T07:04:51.022Z</time>
      </trkpt>
      <trkpt lat="38.91496683" lon="-0.111897">
        <ele>13.0</ele>
        <time>2018-06-10T07:04:52.022Z</time>
      </trkpt>
      <trkpt lat="38.91501967" lon="-0.11184517">
        <ele>12.0</ele>
        <time>2018-06-10T07:04:53.022Z</time>
      </trkpt>
      <trkpt lat="38.91507233" lon="-0.11179233">
        <ele>12.0</ele>
        <time>2018-06-10T07:04:54.022Z</time>
      </trkpt>
      <trkpt lat="38.9151245" lon="-0.11173917">
        <ele>12.0</ele>
        <time>2018-06-10T07:04:55.022Z</time>
      </trkpt>
      <trkpt lat="38.91517483" lon="-0.11168417">
        <ele>12.0</ele>
        <time>2018-06-10T07:04:56.022Z</time>
      </trkpt>
      <trkpt lat="38.9152235" lon="-0.1116285">
        <ele>12.0</ele>
        <time>2018-06-10T07:04:57.022Z</time>
      </trkpt>
      <trkpt lat="38.9152705" lon="-0.11157183">
        <ele>11.0</ele>
        <time>2018-06-10T07:04:58.022Z</time>
      </trkpt>
      <trkpt lat="38.9153185" lon="-0.1115175">
        <ele>11.0</ele>
        <time>2018-06-10T07:04:59.022Z</time>
      </trkpt>
      <trkpt lat="38.9153665" lon="-0.11146383">
        <ele>10.0</ele>
        <time>2018-06-10T07:05:00.022Z</time>
      </trkpt>
      <trkpt lat="38.91541467" lon="-0.11141167">
        <ele>10.0</ele>
        <time>2018-06-10T07:05:01.022Z</time>
      </trkpt>
      <trkpt lat="38.91546217" lon="-0.11136">
        <ele>10.0</ele>
        <time>2018-06-10T07:05:02.022Z</time>
      </trkpt>
      <trkpt lat="38.91550983" lon="-0.11130833">
        <ele>10.0</ele>
        <time>2018-06-10T07:05:03.022Z</time>
      </trkpt>
      <trkpt lat="38.915558" lon="-0.11125633">
        <ele>10.0</ele>
        <time>2018-06-10T07:05:04.022Z</time>
      </trkpt>
      <trkpt lat="38.91560633" lon="-0.11120533">
        <ele>10.0</ele>
        <time>2018-06-10T07:05:05.022Z</time>
      </trkpt>
      <trkpt lat="38.9156545" lon="-0.11115517">
        <ele>10.0</ele>
        <time>2018-06-10T07:05:06.022Z</time>
      </trkpt>
      <trkpt lat="38.9157025" lon="-0.11110617">
        <ele>10.0</ele>
        <time>2018-06-10T07:05:07.022Z</time>
      </trkpt>
      <trkpt lat="38.915751" lon="-0.1110565">
        <ele>10.0</ele>
        <time>2018-06-10T07:05:08.022Z</time>
      </trkpt>
      <trkpt lat="38.91579933" lon="-0.11100633">
        <ele>10.0</ele>
        <time>2018-06-10T07:05:09.022Z</time>
      </trkpt>
      <trkpt lat="38.91584783" lon="-0.110955">
        <ele>9.0</ele>
        <time>2018-06-10T07:05:10.022Z</time>
      </trkpt>
      <trkpt lat="38.91589667" lon="-0.11090383">
        <ele>9.0</ele>
        <time>2018-06-10T07:05:11.022Z</time>
      </trkpt>
      <trkpt lat="38.91594667" lon="-0.1108525">
        <ele>9.0</ele>
        <time>2018-06-10T07:05:12.022Z</time>
      </trkpt>
      <trkpt lat="38.9159975" lon="-0.11080083">
        <ele>9.0</ele>
        <time>2018-06-10T07:05:13.022Z</time>
      </trkpt>
      <trkpt lat="38.91604867" lon="-0.11074867">
        <ele>9.0</ele>
        <time>2018-06-10T07:05:14.022Z</time>
      </trkpt>
      <trkpt lat="38.91609983" lon="-0.11069633">
        <ele>9.0</ele>
        <time>2018-06-10T07:05:15.022Z</time>
      </trkpt>
      <trkpt lat="38.916151" lon="-0.110645">
        <ele>9.0</ele>
        <time>2018-06-10T07:05:16.022Z</time>
      </trkpt>
      <trkpt lat="38.91620183" lon="-0.11059367">
        <ele>9.0</ele>
        <time>2018-06-10T07:05:17.022Z</time>
      </trkpt>
      <trkpt lat="38.916252" lon="-0.110543">
        <ele>9.0</ele>
        <time>2018-06-10T07:05:18.022Z</time>
      </trkpt>
      <trkpt lat="38.91630183" lon="-0.11049167">
        <ele>8.0</ele>
        <time>2018-06-10T07:05:19.022Z</time>
      </trkpt>
      <trkpt lat="38.91635167" lon="-0.11044183">
        <ele>8.0</ele>
        <time>2018-06-10T07:05:20.022Z</time>
      </trkpt>
      <trkpt lat="38.91640117" lon="-0.110392">
        <ele>8.0</ele>
        <time>2018-06-10T07:05:21.022Z</time>
      </trkpt>
      <trkpt lat="38.91645033" lon="-0.11034317">
        <ele>8.0</ele>
        <time>2018-06-10T07:05:22.022Z</time>
      </trkpt>
      <trkpt lat="38.91649933" lon="-0.110296">
        <ele>8.0</ele>
        <time>2018-06-10T07:05:23.022Z</time>
      </trkpt>
      <trkpt lat="38.91654833" lon="-0.11025183">
        <ele>8.0</ele>
        <time>2018-06-10T07:05:24.022Z</time>
      </trkpt>
      <trkpt lat="38.91659667" lon="-0.110209">
        <ele>8.0</ele>
        <time>2018-06-10T07:05:25.022Z</time>
      </trkpt>
      <trkpt lat="38.91664133" lon="-0.11016367">
        <ele>8.0</ele>
        <time>2018-06-10T07:05:26.022Z</time>
      </trkpt>
      <trkpt lat="38.91668367" lon="-0.11011683">
        <ele>8.0</ele>
        <time>2018-06-10T07:05:27.022Z</time>
      </trkpt>
      <trkpt lat="38.91672517" lon="-0.11007383">
        <ele>9.0</ele>
        <time>2018-06-10T07:05:28.022Z</time>
      </trkpt>
      <trkpt lat="38.91677267" lon="-0.11004917">
        <ele>8.0</ele>
        <time>2018-06-10T07:05:29.022Z</time>
      </trkpt>
      <trkpt lat="38.9168245" lon="-0.11004367">
        <ele>7.0</ele>
        <time>2018-06-10T07:05:30.022Z</time>
      </trkpt>
      <trkpt lat="38.9168785" lon="-0.1100535">
        <ele>6.0</ele>
        <time>2018-06-10T07:05:31.022Z</time>
      </trkpt>
      <trkpt lat="38.91692983" lon="-0.11007333">
        <ele>5.0</ele>
        <time>2018-06-10T07:05:32.022Z</time>
      </trkpt>
      <trkpt lat="38.91697983" lon="-0.11009917">
        <ele>5.0</ele>
        <time>2018-06-10T07:05:33.022Z</time>
      </trkpt>
      <trkpt lat="38.91702917" lon="-0.11013067">
        <ele>5.0</ele>
        <time>2018-06-10T07:05:34.022Z</time>
      </trkpt>
      <trkpt lat="38.91707917" lon="-0.11016467">
        <ele>4.0</ele>
        <time>2018-06-10T07:05:35.022Z</time>
      </trkpt>
      <trkpt lat="38.91712667" lon="-0.11020333">
        <ele>4.0</ele>
        <time>2018-06-10T07:05:36.022Z</time>
      </trkpt>
      <trkpt lat="38.917172" lon="-0.11025133">
        <ele>4.0</ele>
        <time>2018-06-10T07:05:37.022Z</time>
      </trkpt>
      <trkpt lat="38.9172135" lon="-0.110307">
        <ele>5.0</ele>
        <time>2018-06-10T07:05:38.022Z</time>
      </trkpt>
      <trkpt lat="38.91725367" lon="-0.1103675">
        <ele>5.0</ele>
        <time>2018-06-10T07:05:39.022Z</time>
      </trkpt>
      <trkpt lat="38.91729267" lon="-0.11042783">
        <ele>6.0</ele>
        <time>2018-06-10T07:05:40.022Z</time>
      </trkpt>
      <trkpt lat="38.9173315" lon="-0.110488">
        <ele>6.0</ele>
        <time>2018-06-10T07:05:41.022Z</time>
      </trkpt>
      <trkpt lat="38.91736933" lon="-0.11054983">
        <ele>6.0</ele>
        <time>2018-06-10T07:05:42.022Z</time>
      </trkpt>
      <trkpt lat="38.9174075" lon="-0.1106125">
        <ele>6.0</ele>
        <time>2018-06-10T07:05:43.022Z</time>
      </trkpt>
      <trkpt lat="38.91744583" lon="-0.11067583">
        <ele>6.0</ele>
        <time>2018-06-10T07:05:44.022Z</time>
      </trkpt>
      <trkpt lat="38.917485" lon="-0.11073967">
        <ele>6.0</ele>
        <time>2018-06-10T07:05:45.022Z</time>
      </trkpt>
      <trkpt lat="38.91752383" lon="-0.11080467">
        <ele>6.0</ele>
        <time>2018-06-10T07:05:46.022Z</time>
      </trkpt>
      <trkpt lat="38.9175625" lon="-0.11087017">
        <ele>6.0</ele>
        <time>2018-06-10T07:05:47.022Z</time>
      </trkpt>
      <trkpt lat="38.91760083" lon="-0.11093583">
        <ele>6.0</ele>
        <time>2018-06-10T07:05:48.022Z</time>
      </trkpt>
      <trkpt lat="38.91763933" lon="-0.111001">
        <ele>6.0</ele>
        <time>2018-06-10T07:05:49.022Z</time>
      </trkpt>
      <trkpt lat="38.9176775" lon="-0.11106617">
        <ele>6.0</ele>
        <time>2018-06-10T07:05:50.022Z</time>
      </trkpt>
      <trkpt lat="38.9177155" lon="-0.11113183">
        <ele>6.0</ele>
        <time>2018-06-10T07:05:51.022Z</time>
      </trkpt>
      <trkpt lat="38.91775333" lon="-0.11119767">
        <ele>6.0</ele>
        <time>2018-06-10T07:05:52.022Z</time>
      </trkpt>
      <trkpt lat="38.917791" lon="-0.11126283">
        <ele>7.0</ele>
        <time>2018-06-10T07:05:53.022Z</time>
      </trkpt>
      <trkpt lat="38.91782933" lon="-0.11132683">
        <ele>7.0</ele>
        <time>2018-06-10T07:05:54.022Z</time>
      </trkpt>
      <trkpt lat="38.917869" lon="-0.111389">
        <ele>7.0</ele>
        <time>2018-06-10T07:05:55.022Z</time>
      </trkpt>
      <trkpt lat="38.9179105" lon="-0.11145067">
        <ele>7.0</ele>
        <time>2018-06-10T07:05:56.022Z</time>
      </trkpt>
      <trkpt lat="38.91795283" lon="-0.11151233">
        <ele>7.0</ele>
        <time>2018-06-10T07:05:57.022Z</time>
      </trkpt>
      <trkpt lat="38.917995" lon="-0.11157517">
        <ele>7.0</ele>
        <time>2018-06-10T07:05:58.022Z</time>
      </trkpt>
      <trkpt lat="38.918036" lon="-0.1116395">
        <ele>7.0</ele>
        <time>2018-06-10T07:05:59.022Z</time>
      </trkpt>
      <trkpt lat="38.91807583" lon="-0.111705">
        <ele>7.0</ele>
        <time>2018-06-10T07:06:00.022Z</time>
      </trkpt>
      <trkpt lat="38.9181155" lon="-0.11177">
        <ele>7.0</ele>
        <time>2018-06-10T07:06:01.022Z</time>
      </trkpt>
      <trkpt lat="38.9181555" lon="-0.11183383">
        <ele>7.0</ele>
        <time>2018-06-10T07:06:02.022Z</time>
      </trkpt>
      <trkpt lat="38.91819483" lon="-0.11189667">
        <ele>7.0</ele>
        <time>2018-06-10T07:06:03.022Z</time>
      </trkpt>
      <trkpt lat="38.91823167" lon="-0.11196017">
        <ele>7.0</ele>
        <time>2018-06-10T07:06:04.022Z</time>
      </trkpt>
      <trkpt lat="38.91826583" lon="-0.11202483">
        <ele>7.0</ele>
        <time>2018-06-10T07:06:05.022Z</time>
      </trkpt>
      <trkpt lat="38.91829967" lon="-0.112088">
        <ele>7.0</ele>
        <time>2018-06-10T07:06:06.022Z</time>
      </trkpt>
      <trkpt lat="38.91833483" lon="-0.112148">
        <ele>7.0</ele>
        <time>2018-06-10T07:06:07.022Z</time>
      </trkpt>
      <trkpt lat="38.918371" lon="-0.1122055">
        <ele>7.0</ele>
        <time>2018-06-10T07:06:08.022Z</time>
      </trkpt>
      <trkpt lat="38.9184065" lon="-0.11226233">
        <ele>7.0</ele>
        <time>2018-06-10T07:06:09.022Z</time>
      </trkpt>
      <trkpt lat="38.91844133" lon="-0.11231883">
        <ele>7.0</ele>
        <time>2018-06-10T07:06:10.022Z</time>
      </trkpt>
      <trkpt lat="38.91847583" lon="-0.11237533">
        <ele>7.0</ele>
        <time>2018-06-10T07:06:11.022Z</time>
      </trkpt>
      <trkpt lat="38.91851033" lon="-0.11243167">
        <ele>7.0</ele>
        <time>2018-06-10T07:06:12.022Z</time>
      </trkpt>
      <trkpt lat="38.91854533" lon="-0.11248867">
        <ele>7.0</ele>
        <time>2018-06-10T07:06:13.022Z</time>
      </trkpt>
      <trkpt lat="38.918581" lon="-0.11254567">
        <ele>7.0</ele>
        <time>2018-06-10T07:06:14.022Z</time>
      </trkpt>
      <trkpt lat="38.91861633" lon="-0.11260283">
        <ele>7.0</ele>
        <time>2018-06-10T07:06:15.022Z</time>
      </trkpt>
      <trkpt lat="38.9186515" lon="-0.11265967">
        <ele>7.0</ele>
        <time>2018-06-10T07:06:16.022Z</time>
      </trkpt>
      <trkpt lat="38.91868617" lon="-0.11271633">
        <ele>6.0</ele>
        <time>2018-06-10T07:06:17.022Z</time>
      </trkpt>
      <trkpt lat="38.91872083" lon="-0.1127725">
        <ele>6.0</ele>
        <time>2018-06-10T07:06:18.022Z</time>
      </trkpt>
      <trkpt lat="38.918756" lon="-0.11282883">
        <ele>6.0</ele>
        <time>2018-06-10T07:06:19.022Z</time>
      </trkpt>
      <trkpt lat="38.91879167" lon="-0.11288567">
        <ele>6.0</ele>
        <time>2018-06-10T07:06:20.022Z</time>
      </trkpt>
      <trkpt lat="38.9188285" lon="-0.112943">
        <ele>6.0</ele>
        <time>2018-06-10T07:06:21.022Z</time>
      </trkpt>
      <trkpt lat="38.91886617" lon="-0.11300017">
        <ele>6.0</ele>
        <time>2018-06-10T07:06:22.022Z</time>
      </trkpt>
      <trkpt lat="38.91890467" lon="-0.11305783">
        <ele>6.0</ele>
        <time>2018-06-10T07:06:23.022Z</time>
      </trkpt>
      <trkpt lat="38.91894317" lon="-0.11311517">
        <ele>6.0</ele>
        <time>2018-06-10T07:06:24.022Z</time>
      </trkpt>
      <trkpt lat="38.91898117" lon="-0.11317267">
        <ele>7.0</ele>
        <time>2018-06-10T07:06:25.022Z</time>
      </trkpt>
      <trkpt lat="38.9190185" lon="-0.11322983">
        <ele>7.0</ele>
        <time>2018-06-10T07:06:26.022Z</time>
      </trkpt>
      <trkpt lat="38.91905467" lon="-0.11328767">
        <ele>7.0</ele>
        <time>2018-06-10T07:06:27.022Z</time>
      </trkpt>
      <trkpt lat="38.91909067" lon="-0.1133455">
        <ele>7.0</ele>
        <time>2018-06-10T07:06:28.022Z</time>
      </trkpt>
      <trkpt lat="38.91912683" lon="-0.1134035">
        <ele>8.0</ele>
        <time>2018-06-10T07:06:29.022Z</time>
      </trkpt>
      <trkpt lat="38.91916383" lon="-0.11346117">
        <ele>8.0</ele>
        <time>2018-06-10T07:06:30.022Z</time>
      </trkpt>
      <trkpt lat="38.91920067" lon="-0.11351883">
        <ele>8.0</ele>
        <time>2018-06-10T07:06:31.022Z</time>
      </trkpt>
      <trkpt lat="38.9192375" lon="-0.113577">
        <ele>8.0</ele>
        <time>2018-06-10T07:06:32.022Z</time>
      </trkpt>
      <trkpt lat="38.9192745" lon="-0.11363717">
        <ele>7.0</ele>
        <time>2018-06-10T07:06:33.022Z</time>
      </trkpt>
      <trkpt lat="38.91931217" lon="-0.1136975">
        <ele>7.0</ele>
        <time>2018-06-10T07:06:34.022Z</time>
      </trkpt>
      <trkpt lat="38.91935033" lon="-0.11375783">
        <ele>7.0</ele>
        <time>2018-06-10T07:06:35.022Z</time>
      </trkpt>
      <trkpt lat="38.91938867" lon="-0.11381483">
        <ele>7.0</ele>
        <time>2018-06-10T07:06:36.022Z</time>
      </trkpt>
      <trkpt lat="38.91942533" lon="-0.11387267">
        <ele>8.0</ele>
        <time>2018-06-10T07:06:37.022Z</time>
      </trkpt>
      <trkpt lat="38.91946183" lon="-0.11393">
        <ele>8.0</ele>
        <time>2018-06-10T07:06:38.022Z</time>
      </trkpt>
      <trkpt lat="38.91949767" lon="-0.1139885">
        <ele>9.0</ele>
        <time>2018-06-10T07:06:39.022Z</time>
      </trkpt>
      <trkpt lat="38.91953483" lon="-0.11404667">
        <ele>9.0</ele>
        <time>2018-06-10T07:06:40.022Z</time>
      </trkpt>
      <trkpt lat="38.91957217" lon="-0.114105">
        <ele>9.0</ele>
        <time>2018-06-10T07:06:41.022Z</time>
      </trkpt>
      <trkpt lat="38.91961" lon="-0.11416233">
        <ele>9.0</ele>
        <time>2018-06-10T07:06:42.022Z</time>
      </trkpt>
      <trkpt lat="38.91964833" lon="-0.11421917">
        <ele>9.0</ele>
        <time>2018-06-10T07:06:43.022Z</time>
      </trkpt>
      <trkpt lat="38.91968633" lon="-0.11427883">
        <ele>10.0</ele>
        <time>2018-06-10T07:06:44.022Z</time>
      </trkpt>
      <trkpt lat="38.919724" lon="-0.11433883">
        <ele>10.0</ele>
        <time>2018-06-10T07:06:45.022Z</time>
      </trkpt>
      <trkpt lat="38.9197615" lon="-0.1144">
        <ele>11.0</ele>
        <time>2018-06-10T07:06:46.022Z</time>
      </trkpt>
      <trkpt lat="38.9198" lon="-0.1144605">
        <ele>11.0</ele>
        <time>2018-06-10T07:06:47.022Z</time>
      </trkpt>
      <trkpt lat="38.91983883" lon="-0.11452233">
        <ele>11.0</ele>
        <time>2018-06-10T07:06:48.022Z</time>
      </trkpt>
      <trkpt lat="38.9198775" lon="-0.11458417">
        <ele>12.0</ele>
        <time>2018-06-10T07:06:49.022Z</time>
      </trkpt>
      <trkpt lat="38.91991483" lon="-0.11465">
        <ele>11.0</ele>
        <time>2018-06-10T07:06:50.022Z</time>
      </trkpt>
      <trkpt lat="38.91995133" lon="-0.11471867">
        <ele>10.0</ele>
        <time>2018-06-10T07:06:51.022Z</time>
      </trkpt>
      <trkpt lat="38.91998583" lon="-0.114787">
        <ele>10.0</ele>
        <time>2018-06-10T07:06:52.022Z</time>
      </trkpt>
      <trkpt lat="38.9200215" lon="-0.1148495">
        <ele>10.0</ele>
        <time>2018-06-10T07:06:53.022Z</time>
      </trkpt>
      <trkpt lat="38.920059" lon="-0.11490217">
        <ele>11.0</ele>
        <time>2018-06-10T07:06:54.022Z</time>
      </trkpt>
      <trkpt lat="38.92009183" lon="-0.11494383">
        <ele>11.0</ele>
        <time>2018-06-10T07:06:55.022Z</time>
      </trkpt>
      <trkpt lat="38.92011383" lon="-0.11497067">
        <ele>11.0</ele>
        <time>2018-06-10T07:06:56.022Z</time>
      </trkpt>
      <trkpt lat="38.92012267" lon="-0.11498233">
        <ele>10.0</ele>
        <time>2018-06-10T07:06:57.022Z</time>
      </trkpt>
      <trkpt lat="38.92012833" lon="-0.11498367">
        <ele>10.0</ele>
        <time>2018-06-10T07:06:58.022Z</time>
      </trkpt>
      <trkpt lat="38.920133" lon="-0.114983">
        <ele>10.0</ele>
        <time>2018-06-10T07:06:59.022Z</time>
      </trkpt>
      <trkpt lat="38.92013883" lon="-0.11498483">
        <ele>10.0</ele>
        <time>2018-06-10T07:07:00.022Z</time>
      </trkpt>
      <trkpt lat="38.920149" lon="-0.114991">
        <ele>10.0</ele>
        <time>2018-06-10T07:07:01.022Z</time>
      </trkpt>
      <trkpt lat="38.92016517" lon="-0.11499767">
        <ele>9.0</ele>
        <time>2018-06-10T07:07:02.022Z</time>
      </trkpt>
      <trkpt lat="38.92018817" lon="-0.11500433">
        <ele>9.0</ele>
        <time>2018-06-10T07:07:03.022Z</time>
      </trkpt>
      <trkpt lat="38.920214" lon="-0.11501133">
        <ele>9.0</ele>
        <time>2018-06-10T07:07:04.022Z</time>
      </trkpt>
      <trkpt lat="38.92024333" lon="-0.11502117">
        <ele>9.0</ele>
        <time>2018-06-10T07:07:05.022Z</time>
      </trkpt>
      <trkpt lat="38.920275" lon="-0.115035">
        <ele>10.0</ele>
        <time>2018-06-10T07:07:06.022Z</time>
      </trkpt>
      <trkpt lat="38.9203095" lon="-0.115053">
        <ele>10.0</ele>
        <time>2018-06-10T07:07:07.022Z</time>
      </trkpt>
      <trkpt lat="38.920347" lon="-0.11507267">
        <ele>10.0</ele>
        <time>2018-06-10T07:07:08.022Z</time>
      </trkpt>
      <trkpt lat="38.92038567" lon="-0.115097">
        <ele>9.0</ele>
        <time>2018-06-10T07:07:09.022Z</time>
      </trkpt>
      <trkpt lat="38.92042333" lon="-0.11512633">
        <ele>9.0</ele>
        <time>2018-06-10T07:07:10.022Z</time>
      </trkpt>
      <trkpt lat="38.92045883" lon="-0.11516367">
        <ele>10.0</ele>
        <time>2018-06-10T07:07:11.022Z</time>
      </trkpt>
      <trkpt lat="38.92049317" lon="-0.11520417">
        <ele>10.0</ele>
        <time>2018-06-10T07:07:12.022Z</time>
      </trkpt>
      <trkpt lat="38.92052833" lon="-0.115244">
        <ele>10.0</ele>
        <time>2018-06-10T07:07:13.022Z</time>
      </trkpt>
      <trkpt lat="38.9205645" lon="-0.11528167">
        <ele>9.0</ele>
        <time>2018-06-10T07:07:14.022Z</time>
      </trkpt>
      <trkpt lat="38.9206005" lon="-0.11532">
        <ele>9.0</ele>
        <time>2018-06-10T07:07:15.022Z</time>
      </trkpt>
      <trkpt lat="38.92063517" lon="-0.11536017">
        <ele>9.0</ele>
        <time>2018-06-10T07:07:16.022Z</time>
      </trkpt>
      <trkpt lat="38.92067017" lon="-0.11540117">
        <ele>9.0</ele>
        <time>2018-06-10T07:07:17.022Z</time>
      </trkpt>
      <trkpt lat="38.9207035" lon="-0.11544233">
        <ele>9.0</ele>
        <time>2018-06-10T07:07:18.022Z</time>
      </trkpt>
      <trkpt lat="38.92073617" lon="-0.11548167">
        <ele>9.0</ele>
        <time>2018-06-10T07:07:19.022Z</time>
      </trkpt>
      <trkpt lat="38.92076783" lon="-0.1155195">
        <ele>9.0</ele>
        <time>2018-06-10T07:07:20.022Z</time>
      </trkpt>
      <trkpt lat="38.92079967" lon="-0.11555967">
        <ele>10.0</ele>
        <time>2018-06-10T07:07:21.022Z</time>
      </trkpt>
      <trkpt lat="38.92083283" lon="-0.11560417">
        <ele>10.0</ele>
        <time>2018-06-10T07:07:22.022Z</time>
      </trkpt>
      <trkpt lat="38.92086767" lon="-0.11565317">
        <ele>9.0</ele>
        <time>2018-06-10T07:07:23.022Z</time>
      </trkpt>
      <trkpt lat="38.9209055" lon="-0.1157025">
        <ele>9.0</ele>
        <time>2018-06-10T07:07:24.022Z</time>
      </trkpt>
      <trkpt lat="38.92094333" lon="-0.11574983">
        <ele>9.0</ele>
        <time>2018-06-10T07:07:25.022Z</time>
      </trkpt>
      <trkpt lat="38.92098" lon="-0.115796">
        <ele>9.0</ele>
        <time>2018-06-10T07:07:26.022Z</time>
      </trkpt>
      <trkpt lat="38.92101633" lon="-0.11584267">
        <ele>9.0</ele>
        <time>2018-06-10T07:07:27.022Z</time>
      </trkpt>
      <trkpt lat="38.921052" lon="-0.11589083">
        <ele>9.0</ele>
        <time>2018-06-10T07:07:28.022Z</time>
      </trkpt>
      <trkpt lat="38.92108817" lon="-0.11593933">
        <ele>8.0</ele>
        <time>2018-06-10T07:07:29.022Z</time>
      </trkpt>
      <trkpt lat="38.92112283" lon="-0.11598833">
        <ele>8.0</ele>
        <time>2018-06-10T07:07:30.022Z</time>
      </trkpt>
      <trkpt lat="38.92115817" lon="-0.11603467">
        <ele>9.0</ele>
        <time>2018-06-10T07:07:31.022Z</time>
      </trkpt>
      <trkpt lat="38.92119117" lon="-0.11608067">
        <ele>9.0</ele>
        <time>2018-06-10T07:07:32.022Z</time>
      </trkpt>
      <trkpt lat="38.9212235" lon="-0.116126">
        <ele>8.0</ele>
        <time>2018-06-10T07:07:33.022Z</time>
      </trkpt>
      <trkpt lat="38.92125333" lon="-0.11617583">
        <ele>8.0</ele>
        <time>2018-06-10T07:07:34.022Z</time>
      </trkpt>
      <trkpt lat="38.9212845" lon="-0.11622933">
        <ele>8.0</ele>
        <time>2018-06-10T07:07:35.022Z</time>
      </trkpt>
      <trkpt lat="38.92131617" lon="-0.11628467">
        <ele>8.0</ele>
        <time>2018-06-10T07:07:36.022Z</time>
      </trkpt>
      <trkpt lat="38.92134933" lon="-0.11633983">
        <ele>8.0</ele>
        <time>2018-06-10T07:07:37.022Z</time>
      </trkpt>
      <trkpt lat="38.92138233" lon="-0.11639417">
        <ele>8.0</ele>
        <time>2018-06-10T07:07:38.022Z</time>
      </trkpt>
      <trkpt lat="38.921416" lon="-0.116449">
        <ele>8.0</ele>
        <time>2018-06-10T07:07:39.022Z</time>
      </trkpt>
      <trkpt lat="38.92144883" lon="-0.116505">
        <ele>7.0</ele>
        <time>2018-06-10T07:07:40.022Z</time>
      </trkpt>
      <trkpt lat="38.92148117" lon="-0.11656183">
        <ele>7.0</ele>
        <time>2018-06-10T07:07:41.022Z</time>
      </trkpt>
      <trkpt lat="38.92151333" lon="-0.11661917">
        <ele>7.0</ele>
        <time>2018-06-10T07:07:42.022Z</time>
      </trkpt>
      <trkpt lat="38.921547" lon="-0.11667617">
        <ele>7.0</ele>
        <time>2018-06-10T07:07:43.022Z</time>
      </trkpt>
      <trkpt lat="38.921581" lon="-0.1167335">
        <ele>7.0</ele>
        <time>2018-06-10T07:07:44.022Z</time>
      </trkpt>
      <trkpt lat="38.9216125" lon="-0.11679267">
        <ele>7.0</ele>
        <time>2018-06-10T07:07:45.022Z</time>
      </trkpt>
      <trkpt lat="38.92164017" lon="-0.1168535">
        <ele>7.0</ele>
        <time>2018-06-10T07:07:46.022Z</time>
      </trkpt>
      <trkpt lat="38.921665" lon="-0.11691167">
        <ele>7.0</ele>
        <time>2018-06-10T07:07:47.022Z</time>
      </trkpt>
      <trkpt lat="38.921689" lon="-0.11696483">
        <ele>7.0</ele>
        <time>2018-06-10T07:07:48.022Z</time>
      </trkpt>
      <trkpt lat="38.92171283" lon="-0.11701267">
        <ele>7.0</ele>
        <time>2018-06-10T07:07:49.022Z</time>
      </trkpt>
      <trkpt lat="38.921737" lon="-0.11705867">
        <ele>7.0</ele>
        <time>2018-06-10T07:07:50.022Z</time>
      </trkpt>
      <trkpt lat="38.92176067" lon="-0.11710433">
        <ele>7.0</ele>
        <time>2018-06-10T07:07:51.022Z</time>
      </trkpt>
      <trkpt lat="38.921783" lon="-0.11715133">
        <ele>7.0</ele>
        <time>2018-06-10T07:07:52.022Z</time>
      </trkpt>
      <trkpt lat="38.92180467" lon="-0.11719933">
        <ele>8.0</ele>
        <time>2018-06-10T07:07:53.022Z</time>
      </trkpt>
      <trkpt lat="38.92182633" lon="-0.117249">
        <ele>8.0</ele>
        <time>2018-06-10T07:07:54.022Z</time>
      </trkpt>
      <trkpt lat="38.9218485" lon="-0.11730017">
        <ele>9.0</ele>
        <time>2018-06-10T07:07:55.022Z</time>
      </trkpt>
      <trkpt lat="38.92186733" lon="-0.11735317">
        <ele>10.0</ele>
        <time>2018-06-10T07:07:56.022Z</time>
      </trkpt>
      <trkpt lat="38.92187967" lon="-0.11740967">
        <ele>10.0</ele>
        <time>2018-06-10T07:07:57.022Z</time>
      </trkpt>
      <trkpt lat="38.92188517" lon="-0.11746817">
        <ele>11.0</ele>
        <time>2018-06-10T07:07:58.022Z</time>
      </trkpt>
      <trkpt lat="38.92189017" lon="-0.11752667">
        <ele>11.0</ele>
        <time>2018-06-10T07:07:59.022Z</time>
      </trkpt>
      <trkpt lat="38.92189933" lon="-0.117584">
        <ele>12.0</ele>
        <time>2018-06-10T07:08:00.022Z</time>
      </trkpt>
      <trkpt lat="38.92191717" lon="-0.117641">
        <ele>14.0</ele>
        <time>2018-06-10T07:08:01.022Z</time>
      </trkpt>
      <trkpt lat="38.92193983" lon="-0.11770033">
        <ele>13.0</ele>
        <time>2018-06-10T07:08:02.022Z</time>
      </trkpt>
      <trkpt lat="38.92196633" lon="-0.117759">
        <ele>14.0</ele>
        <time>2018-06-10T07:08:03.022Z</time>
      </trkpt>
      <trkpt lat="38.921994" lon="-0.117817">
        <ele>14.0</ele>
        <time>2018-06-10T07:08:04.022Z</time>
      </trkpt>
      <trkpt lat="38.9220255" lon="-0.117874">
        <ele>13.0</ele>
        <time>2018-06-10T07:08:05.022Z</time>
      </trkpt>
      <trkpt lat="38.92206117" lon="-0.11793083">
        <ele>13.0</ele>
        <time>2018-06-10T07:08:06.022Z</time>
      </trkpt>
      <trkpt lat="38.92209833" lon="-0.11798717">
        <ele>13.0</ele>
        <time>2018-06-10T07:08:07.022Z</time>
      </trkpt>
      <trkpt lat="38.9221355" lon="-0.11804167">
        <ele>12.0</ele>
        <time>2018-06-10T07:08:08.022Z</time>
      </trkpt>
      <trkpt lat="38.9221715" lon="-0.11809667">
        <ele>12.0</ele>
        <time>2018-06-10T07:08:09.022Z</time>
      </trkpt>
      <trkpt lat="38.92220767" lon="-0.11815183">
        <ele>11.0</ele>
        <time>2018-06-10T07:08:10.022Z</time>
      </trkpt>
      <trkpt lat="38.92224367" lon="-0.11820667">
        <ele>11.0</ele>
        <time>2018-06-10T07:08:11.022Z</time>
      </trkpt>
      <trkpt lat="38.92227983" lon="-0.11826183">
        <ele>11.0</ele>
        <time>2018-06-10T07:08:12.022Z</time>
      </trkpt>
      <trkpt lat="38.92231683" lon="-0.11831767">
        <ele>10.0</ele>
        <time>2018-06-10T07:08:13.022Z</time>
      </trkpt>
      <trkpt lat="38.92235333" lon="-0.11837633">
        <ele>9.0</ele>
        <time>2018-06-10T07:08:14.022Z</time>
      </trkpt>
      <trkpt lat="38.92239067" lon="-0.11843417">
        <ele>8.0</ele>
        <time>2018-06-10T07:08:15.022Z</time>
      </trkpt>
      <trkpt lat="38.92242733" lon="-0.1184925">
        <ele>8.0</ele>
        <time>2018-06-10T07:08:16.022Z</time>
      </trkpt>
      <trkpt lat="38.92246517" lon="-0.11855">
        <ele>7.0</ele>
        <time>2018-06-10T07:08:17.022Z</time>
      </trkpt>
      <trkpt lat="38.9225025" lon="-0.1186095">
        <ele>7.0</ele>
        <time>2018-06-10T07:08:18.022Z</time>
      </trkpt>
      <trkpt lat="38.92254" lon="-0.11866883">
        <ele>7.0</ele>
        <time>2018-06-10T07:08:19.022Z</time>
      </trkpt>
      <trkpt lat="38.92257767" lon="-0.1187285">
        <ele>7.0</ele>
        <time>2018-06-10T07:08:20.022Z</time>
      </trkpt>
      <trkpt lat="38.92261567" lon="-0.11878733">
        <ele>7.0</ele>
        <time>2018-06-10T07:08:21.022Z</time>
      </trkpt>
      <trkpt lat="38.92265417" lon="-0.11884567">
        <ele>7.0</ele>
        <time>2018-06-10T07:08:22.022Z</time>
      </trkpt>
      <trkpt lat="38.9226925" lon="-0.11890367">
        <ele>7.0</ele>
        <time>2018-06-10T07:08:23.022Z</time>
      </trkpt>
      <trkpt lat="38.92273133" lon="-0.11896117">
        <ele>7.0</ele>
        <time>2018-06-10T07:08:24.022Z</time>
      </trkpt>
      <trkpt lat="38.92276933" lon="-0.11901967">
        <ele>7.0</ele>
        <time>2018-06-10T07:08:25.022Z</time>
      </trkpt>
      <trkpt lat="38.92280767" lon="-0.11907833">
        <ele>6.0</ele>
        <time>2018-06-10T07:08:26.022Z</time>
      </trkpt>
      <trkpt lat="38.92284617" lon="-0.11913817">
        <ele>6.0</ele>
        <time>2018-06-10T07:08:27.022Z</time>
      </trkpt>
      <trkpt lat="38.922885" lon="-0.11919783">
        <ele>6.0</ele>
        <time>2018-06-10T07:08:28.022Z</time>
      </trkpt>
      <trkpt lat="38.9229245" lon="-0.11925733">
        <ele>6.0</ele>
        <time>2018-06-10T07:08:29.022Z</time>
      </trkpt>
      <trkpt lat="38.922964" lon="-0.11931733">
        <ele>6.0</ele>
        <time>2018-06-10T07:08:30.022Z</time>
      </trkpt>
      <trkpt lat="38.92300367" lon="-0.11937817">
        <ele>6.0</ele>
        <time>2018-06-10T07:08:31.022Z</time>
      </trkpt>
      <trkpt lat="38.923043" lon="-0.1194405">
        <ele>6.0</ele>
        <time>2018-06-10T07:08:32.022Z</time>
      </trkpt>
      <trkpt lat="38.92308167" lon="-0.119503">
        <ele>6.0</ele>
        <time>2018-06-10T07:08:33.022Z</time>
      </trkpt>
      <trkpt lat="38.9231205" lon="-0.11956567">
        <ele>7.0</ele>
        <time>2018-06-10T07:08:34.022Z</time>
      </trkpt>
      <trkpt lat="38.92315933" lon="-0.11962783">
        <ele>7.0</ele>
        <time>2018-06-10T07:08:35.022Z</time>
      </trkpt>
      <trkpt lat="38.92319867" lon="-0.11969017">
        <ele>7.0</ele>
        <time>2018-06-10T07:08:36.022Z</time>
      </trkpt>
      <trkpt lat="38.92323867" lon="-0.11975183">
        <ele>7.0</ele>
        <time>2018-06-10T07:08:37.022Z</time>
      </trkpt>
      <trkpt lat="38.92327917" lon="-0.119813">
        <ele>7.0</ele>
        <time>2018-06-10T07:08:38.022Z</time>
      </trkpt>
      <trkpt lat="38.92331917" lon="-0.119875">
        <ele>7.0</ele>
        <time>2018-06-10T07:08:39.022Z</time>
      </trkpt>
      <trkpt lat="38.92335817" lon="-0.119938">
        <ele>7.0</ele>
        <time>2018-06-10T07:08:40.022Z</time>
      </trkpt>
      <trkpt lat="38.92339733" lon="-0.120001">
        <ele>7.0</ele>
        <time>2018-06-10T07:08:41.022Z</time>
      </trkpt>
      <trkpt lat="38.9234375" lon="-0.12006333">
        <ele>7.0</ele>
        <time>2018-06-10T07:08:42.022Z</time>
      </trkpt>
      <trkpt lat="38.9234785" lon="-0.1201265">
        <ele>7.0</ele>
        <time>2018-06-10T07:08:43.022Z</time>
      </trkpt>
      <trkpt lat="38.92351933" lon="-0.1201905">
        <ele>7.0</ele>
        <time>2018-06-10T07:08:44.022Z</time>
      </trkpt>
      <trkpt lat="38.92356017" lon="-0.120256">
        <ele>7.0</ele>
        <time>2018-06-10T07:08:45.022Z</time>
      </trkpt>
      <trkpt lat="38.92360083" lon="-0.120321">
        <ele>6.0</ele>
        <time>2018-06-10T07:08:46.022Z</time>
      </trkpt>
      <trkpt lat="38.92364183" lon="-0.12038567">
        <ele>6.0</ele>
        <time>2018-06-10T07:08:47.022Z</time>
      </trkpt>
      <trkpt lat="38.92368233" lon="-0.12044933">
        <ele>6.0</ele>
        <time>2018-06-10T07:08:48.022Z</time>
      </trkpt>
      <trkpt lat="38.92372283" lon="-0.1205125">
        <ele>6.0</ele>
        <time>2018-06-10T07:08:49.022Z</time>
      </trkpt>
      <trkpt lat="38.92376317" lon="-0.120576">
        <ele>6.0</ele>
        <time>2018-06-10T07:08:50.022Z</time>
      </trkpt>
      <trkpt lat="38.9238035" lon="-0.12063967">
        <ele>6.0</ele>
        <time>2018-06-10T07:08:51.022Z</time>
      </trkpt>
      <trkpt lat="38.92384367" lon="-0.12070317">
        <ele>6.0</ele>
        <time>2018-06-10T07:08:52.022Z</time>
      </trkpt>
      <trkpt lat="38.92388417" lon="-0.12076667">
        <ele>6.0</ele>
        <time>2018-06-10T07:08:53.022Z</time>
      </trkpt>
      <trkpt lat="38.9239245" lon="-0.12083133">
        <ele>6.0</ele>
        <time>2018-06-10T07:08:54.022Z</time>
      </trkpt>
      <trkpt lat="38.92396517" lon="-0.12089583">
        <ele>6.0</ele>
        <time>2018-06-10T07:08:55.022Z</time>
      </trkpt>
      <trkpt lat="38.9240055" lon="-0.12096133">
        <ele>6.0</ele>
        <time>2018-06-10T07:08:56.022Z</time>
      </trkpt>
      <trkpt lat="38.92404567" lon="-0.1210265">
        <ele>6.0</ele>
        <time>2018-06-10T07:08:57.022Z</time>
      </trkpt>
      <trkpt lat="38.92408583" lon="-0.12109133">
        <ele>7.0</ele>
        <time>2018-06-10T07:08:58.022Z</time>
      </trkpt>
      <trkpt lat="38.92412583" lon="-0.121155">
        <ele>7.0</ele>
        <time>2018-06-10T07:08:59.022Z</time>
      </trkpt>
      <trkpt lat="38.92416633" lon="-0.12121667">
        <ele>7.0</ele>
        <time>2018-06-10T07:09:00.022Z</time>
      </trkpt>
      <trkpt lat="38.924205" lon="-0.12127883">
        <ele>7.0</ele>
        <time>2018-06-10T07:09:01.022Z</time>
      </trkpt>
      <trkpt lat="38.92424267" lon="-0.12134">
        <ele>7.0</ele>
        <time>2018-06-10T07:09:02.022Z</time>
      </trkpt>
      <trkpt lat="38.92427917" lon="-0.12140017">
        <ele>7.0</ele>
        <time>2018-06-10T07:09:03.022Z</time>
      </trkpt>
      <trkpt lat="38.92431867" lon="-0.12145367">
        <ele>7.0</ele>
        <time>2018-06-10T07:09:04.022Z</time>
      </trkpt>
      <trkpt lat="38.92436383" lon="-0.12149483">
        <ele>7.0</ele>
        <time>2018-06-10T07:09:05.022Z</time>
      </trkpt>
      <trkpt lat="38.92441367" lon="-0.12152783">
        <ele>7.0</ele>
        <time>2018-06-10T07:09:06.022Z</time>
      </trkpt>
      <trkpt lat="38.924465" lon="-0.1215605">
        <ele>7.0</ele>
        <time>2018-06-10T07:09:07.022Z</time>
      </trkpt>
      <trkpt lat="38.924513" lon="-0.12160417">
        <ele>8.0</ele>
        <time>2018-06-10T07:09:08.022Z</time>
      </trkpt>
      <trkpt lat="38.924556" lon="-0.12165767">
        <ele>8.0</ele>
        <time>2018-06-10T07:09:09.022Z</time>
      </trkpt>
      <trkpt lat="38.92458933" lon="-0.121722">
        <ele>8.0</ele>
        <time>2018-06-10T07:09:10.022Z</time>
      </trkpt>
      <trkpt lat="38.92461417" lon="-0.12179317">
        <ele>8.0</ele>
        <time>2018-06-10T07:09:11.022Z</time>
      </trkpt>
      <trkpt lat="38.92463467" lon="-0.12186717">
        <ele>8.0</ele>
        <time>2018-06-10T07:09:12.022Z</time>
      </trkpt>
      <trkpt lat="38.92465667" lon="-0.12193967">
        <ele>8.0</ele>
        <time>2018-06-10T07:09:13.022Z</time>
      </trkpt>
      <trkpt lat="38.924682" lon="-0.12200783">
        <ele>9.0</ele>
        <time>2018-06-10T07:09:14.022Z</time>
      </trkpt>
      <trkpt lat="38.92470883" lon="-0.12207317">
        <ele>9.0</ele>
        <time>2018-06-10T07:09:15.022Z</time>
      </trkpt>
      <trkpt lat="38.92473683" lon="-0.12213483">
        <ele>10.0</ele>
        <time>2018-06-10T07:09:16.022Z</time>
      </trkpt>
      <trkpt lat="38.92476783" lon="-0.12219117">
        <ele>11.0</ele>
        <time>2018-06-10T07:09:17.022Z</time>
      </trkpt>
      <trkpt lat="38.924804" lon="-0.12224467">
        <ele>11.0</ele>
        <time>2018-06-10T07:09:18.022Z</time>
      </trkpt>
      <trkpt lat="38.924842" lon="-0.12229667">
        <ele>12.0</ele>
        <time>2018-06-10T07:09:19.022Z</time>
      </trkpt>
      <trkpt lat="38.9248795" lon="-0.12235067">
        <ele>13.0</ele>
        <time>2018-06-10T07:09:20.022Z</time>
      </trkpt>
      <trkpt lat="38.924915" lon="-0.12240367">
        <ele>14.0</ele>
        <time>2018-06-10T07:09:21.022Z</time>
      </trkpt>
      <trkpt lat="38.9249515" lon="-0.12246133">
        <ele>14.0</ele>
        <time>2018-06-10T07:09:22.022Z</time>
      </trkpt>
      <trkpt lat="38.92498883" lon="-0.12252267">
        <ele>14.0</ele>
        <time>2018-06-10T07:09:23.022Z</time>
      </trkpt>
      <trkpt lat="38.92502533" lon="-0.12258767">
        <ele>14.0</ele>
        <time>2018-06-10T07:09:24.022Z</time>
      </trkpt>
      <trkpt lat="38.9250615" lon="-0.12265183">
        <ele>15.0</ele>
        <time>2018-06-10T07:09:25.022Z</time>
      </trkpt>
      <trkpt lat="38.92509833" lon="-0.12271117">
        <ele>16.0</ele>
        <time>2018-06-10T07:09:26.022Z</time>
      </trkpt>
      <trkpt lat="38.9251405" lon="-0.1227715">
        <ele>17.0</ele>
        <time>2018-06-10T07:09:27.022Z</time>
      </trkpt>
      <trkpt lat="38.925186" lon="-0.12283633">
        <ele>18.0</ele>
        <time>2018-06-10T07:09:28.022Z</time>
      </trkpt>
      <trkpt lat="38.92523217" lon="-0.12290683">
        <ele>18.0</ele>
        <time>2018-06-10T07:09:29.022Z</time>
      </trkpt>
      <trkpt lat="38.9252735" lon="-0.12297467">
        <ele>19.0</ele>
        <time>2018-06-10T07:09:30.022Z</time>
      </trkpt>
      <trkpt lat="38.92531317" lon="-0.12303683">
        <ele>20.0</ele>
        <time>2018-06-10T07:09:31.022Z</time>
      </trkpt>
      <trkpt lat="38.92535483" lon="-0.12309983">
        <ele>20.0</ele>
        <time>2018-06-10T07:09:32.022Z</time>
      </trkpt>
      <trkpt lat="38.92539833" lon="-0.12316483">
        <ele>21.0</ele>
        <time>2018-06-10T07:09:33.022Z</time>
      </trkpt>
      <trkpt lat="38.92543933" lon="-0.12323233">
        <ele>22.0</ele>
        <time>2018-06-10T07:09:34.022Z</time>
      </trkpt>
      <trkpt lat="38.92548067" lon="-0.123301">
        <ele>21.0</ele>
        <time>2018-06-10T07:09:35.022Z</time>
      </trkpt>
      <trkpt lat="38.9255195" lon="-0.12336833">
        <ele>21.0</ele>
        <time>2018-06-10T07:09:36.022Z</time>
      </trkpt>
      <trkpt lat="38.9255595" lon="-0.12343133">
        <ele>23.0</ele>
        <time>2018-06-10T07:09:37.022Z</time>
      </trkpt>
      <trkpt lat="38.925596" lon="-0.12348983">
        <ele>24.0</ele>
        <time>2018-06-10T07:09:38.022Z</time>
      </trkpt>
      <trkpt lat="38.92563483" lon="-0.12354667">
        <ele>26.0</ele>
        <time>2018-06-10T07:09:39.022Z</time>
      </trkpt>
      <trkpt lat="38.92567733" lon="-0.12360367">
        <ele>27.0</ele>
        <time>2018-06-10T07:09:40.022Z</time>
      </trkpt>
      <trkpt lat="38.925722" lon="-0.12365683">
        <ele>29.0</ele>
        <time>2018-06-10T07:09:41.022Z</time>
      </trkpt>
      <trkpt lat="38.925769" lon="-0.12371">
        <ele>30.0</ele>
        <time>2018-06-10T07:09:42.022Z</time>
      </trkpt>
      <trkpt lat="38.92582433" lon="-0.12377883">
        <ele>21.0</ele>
        <time>2018-06-10T07:09:43.022Z</time>
      </trkpt>
      <trkpt lat="38.92588883" lon="-0.1238535">
        <ele>16.0</ele>
        <time>2018-06-10T07:09:44.022Z</time>
      </trkpt>
      <trkpt lat="38.92595917" lon="-0.12393133">
        <ele>13.0</ele>
        <time>2018-06-10T07:09:45.022Z</time>
      </trkpt>
      <trkpt lat="38.92602617" lon="-0.12398933">
        <ele>11.0</ele>
        <time>2018-06-10T07:09:46.022Z</time>
      </trkpt>
      <trkpt lat="38.92609067" lon="-0.12404033">
        <ele>10.0</ele>
        <time>2018-06-10T07:09:47.022Z</time>
      </trkpt>
      <trkpt lat="38.926153" lon="-0.1240855">
        <ele>9.0</ele>
        <time>2018-06-10T07:09:48.022Z</time>
      </trkpt>
      <trkpt lat="38.926211" lon="-0.1241375">
        <ele>9.0</ele>
        <time>2018-06-10T07:09:49.022Z</time>
      </trkpt>
      <trkpt lat="38.926258" lon="-0.12420017">
        <ele>9.0</ele>
        <time>2018-06-10T07:09:50.022Z</time>
      </trkpt>
      <trkpt lat="38.926291" lon="-0.12427567">
        <ele>9.0</ele>
        <time>2018-06-10T07:09:51.022Z</time>
      </trkpt>
      <trkpt lat="38.9263095" lon="-0.12435883">
        <ele>9.0</ele>
        <time>2018-06-10T07:09:52.022Z</time>
      </trkpt>
      <trkpt lat="38.926321" lon="-0.12444483">
        <ele>9.0</ele>
        <time>2018-06-10T07:09:53.022Z</time>
      </trkpt>
      <trkpt lat="38.92633267" lon="-0.12453017">
        <ele>9.0</ele>
        <time>2018-06-10T07:09:54.022Z</time>
      </trkpt>
      <trkpt lat="38.92634967" lon="-0.12461333">
        <ele>9.0</ele>
        <time>2018-06-10T07:09:55.022Z</time>
      </trkpt>
      <trkpt lat="38.92637567" lon="-0.12469167">
        <ele>9.0</ele>
        <time>2018-06-10T07:09:56.022Z</time>
      </trkpt>
      <trkpt lat="38.92640983" lon="-0.12476533">
        <ele>8.0</ele>
        <time>2018-06-10T07:09:57.022Z</time>
      </trkpt>
      <trkpt lat="38.92645083" lon="-0.12483417">
        <ele>8.0</ele>
        <time>2018-06-10T07:09:58.022Z</time>
      </trkpt>
      <trkpt lat="38.926495" lon="-0.1249005">
        <ele>8.0</ele>
        <time>2018-06-10T07:09:59.022Z</time>
      </trkpt>
      <trkpt lat="38.9265415" lon="-0.1249655">
        <ele>8.0</ele>
        <time>2018-06-10T07:10:00.022Z</time>
      </trkpt>
      <trkpt lat="38.9265905" lon="-0.12502933">
        <ele>8.0</ele>
        <time>2018-06-10T07:10:01.022Z</time>
      </trkpt>
      <trkpt lat="38.926641" lon="-0.125093">
        <ele>8.0</ele>
        <time>2018-06-10T07:10:02.022Z</time>
      </trkpt>
      <trkpt lat="38.9266915" lon="-0.1251575">
        <ele>8.0</ele>
        <time>2018-06-10T07:10:03.022Z</time>
      </trkpt>
      <trkpt lat="38.92674233" lon="-0.125223">
        <ele>8.0</ele>
        <time>2018-06-10T07:10:04.022Z</time>
      </trkpt>
      <trkpt lat="38.92679367" lon="-0.12528883">
        <ele>8.0</ele>
        <time>2018-06-10T07:10:05.022Z</time>
      </trkpt>
      <trkpt lat="38.92684567" lon="-0.12535483">
        <ele>8.0</ele>
        <time>2018-06-10T07:10:06.022Z</time>
      </trkpt>
      <trkpt lat="38.926898" lon="-0.125421">
        <ele>8.0</ele>
        <time>2018-06-10T07:10:07.022Z</time>
      </trkpt>
      <trkpt lat="38.92695017" lon="-0.12548733">
        <ele>8.0</ele>
        <time>2018-06-10T07:10:08.022Z</time>
      </trkpt>
      <trkpt lat="38.92700183" lon="-0.125554">
        <ele>8.0</ele>
        <time>2018-06-10T07:10:09.022Z</time>
      </trkpt>
      <trkpt lat="38.92705317" lon="-0.1256205">
        <ele>8.0</ele>
        <time>2018-06-10T07:10:10.022Z</time>
      </trkpt>
      <trkpt lat="38.92710467" lon="-0.125687">
        <ele>8.0</ele>
        <time>2018-06-10T07:10:11.022Z</time>
      </trkpt>
      <trkpt lat="38.92715717" lon="-0.12575283">
        <ele>8.0</ele>
        <time>2018-06-10T07:10:12.022Z</time>
      </trkpt>
      <trkpt lat="38.92721017" lon="-0.12581983">
        <ele>8.0</ele>
        <time>2018-06-10T07:10:13.022Z</time>
      </trkpt>
      <trkpt lat="38.92726333" lon="-0.12588617">
        <ele>7.0</ele>
        <time>2018-06-10T07:10:14.022Z</time>
      </trkpt>
      <trkpt lat="38.927316" lon="-0.1259535">
        <ele>7.0</ele>
        <time>2018-06-10T07:10:15.022Z</time>
      </trkpt>
      <trkpt lat="38.92736833" lon="-0.12602017">
        <ele>7.0</ele>
        <time>2018-06-10T07:10:16.022Z</time>
      </trkpt>
      <trkpt lat="38.927421" lon="-0.12608867">
        <ele>8.0</ele>
        <time>2018-06-10T07:10:17.022Z</time>
      </trkpt>
      <trkpt lat="38.92747417" lon="-0.12615683">
        <ele>8.0</ele>
        <time>2018-06-10T07:10:18.022Z</time>
      </trkpt>
      <trkpt lat="38.92752767" lon="-0.126225">
        <ele>8.0</ele>
        <time>2018-06-10T07:10:19.022Z</time>
      </trkpt>
      <trkpt lat="38.92758183" lon="-0.1262925">
        <ele>8.0</ele>
        <time>2018-06-10T07:10:20.022Z</time>
      </trkpt>
      <trkpt lat="38.92763617" lon="-0.12636017">
        <ele>8.0</ele>
        <time>2018-06-10T07:10:21.022Z</time>
      </trkpt>
      <trkpt lat="38.92769017" lon="-0.126428">
        <ele>8.0</ele>
        <time>2018-06-10T07:10:22.022Z</time>
      </trkpt>
      <trkpt lat="38.92774383" lon="-0.12649567">
        <ele>8.0</ele>
        <time>2018-06-10T07:10:23.022Z</time>
      </trkpt>
      <trkpt lat="38.92779767" lon="-0.12656233">
        <ele>8.0</ele>
        <time>2018-06-10T07:10:24.022Z</time>
      </trkpt>
      <trkpt lat="38.92785233" lon="-0.12662667">
        <ele>8.0</ele>
        <time>2018-06-10T07:10:25.022Z</time>
      </trkpt>
      <trkpt lat="38.927909" lon="-0.12668767">
        <ele>8.0</ele>
        <time>2018-06-10T07:10:26.022Z</time>
      </trkpt>
      <trkpt lat="38.92796767" lon="-0.12674483">
        <ele>8.0</ele>
        <time>2018-06-10T07:10:27.022Z</time>
      </trkpt>
      <trkpt lat="38.92802783" lon="-0.12679917">
        <ele>9.0</ele>
        <time>2018-06-10T07:10:28.022Z</time>
      </trkpt>
      <trkpt lat="38.92808967" lon="-0.12685033">
        <ele>9.0</ele>
        <time>2018-06-10T07:10:29.022Z</time>
      </trkpt>
      <trkpt lat="38.92815283" lon="-0.12689917">
        <ele>9.0</ele>
        <time>2018-06-10T07:10:30.022Z</time>
      </trkpt>
      <trkpt lat="38.9282175" lon="-0.12694467">
        <ele>9.0</ele>
        <time>2018-06-10T07:10:31.022Z</time>
      </trkpt>
      <trkpt lat="38.92828283" lon="-0.1269885">
        <ele>9.0</ele>
        <time>2018-06-10T07:10:32.022Z</time>
      </trkpt>
      <trkpt lat="38.92834833" lon="-0.1270305">
        <ele>9.0</ele>
        <time>2018-06-10T07:10:33.022Z</time>
      </trkpt>
      <trkpt lat="38.92841333" lon="-0.12707133">
        <ele>9.0</ele>
        <time>2018-06-10T07:10:34.022Z</time>
      </trkpt>
      <trkpt lat="38.92847817" lon="-0.12711117">
        <ele>9.0</ele>
        <time>2018-06-10T07:10:35.022Z</time>
      </trkpt>
      <trkpt lat="38.9285425" lon="-0.1271505">
        <ele>9.0</ele>
        <time>2018-06-10T07:10:36.022Z</time>
      </trkpt>
      <trkpt lat="38.9286065" lon="-0.12719017">
        <ele>9.0</ele>
        <time>2018-06-10T07:10:37.022Z</time>
      </trkpt>
      <trkpt lat="38.92867033" lon="-0.12723033">
        <ele>9.0</ele>
        <time>2018-06-10T07:10:38.022Z</time>
      </trkpt>
      <trkpt lat="38.92873417" lon="-0.12727033">
        <ele>9.0</ele>
        <time>2018-06-10T07:10:39.022Z</time>
      </trkpt>
      <trkpt lat="38.92879817" lon="-0.12731">
        <ele>9.0</ele>
        <time>2018-06-10T07:10:40.022Z</time>
      </trkpt>
      <trkpt lat="38.928862" lon="-0.12734917">
        <ele>9.0</ele>
        <time>2018-06-10T07:10:41.022Z</time>
      </trkpt>
      <trkpt lat="38.92892567" lon="-0.1273885">
        <ele>9.0</ele>
        <time>2018-06-10T07:10:42.022Z</time>
      </trkpt>
      <trkpt lat="38.92898883" lon="-0.12742767">
        <ele>10.0</ele>
        <time>2018-06-10T07:10:43.022Z</time>
      </trkpt>
      <trkpt lat="38.9290515" lon="-0.12746733">
        <ele>10.0</ele>
        <time>2018-06-10T07:10:44.022Z</time>
      </trkpt>
      <trkpt lat="38.92911367" lon="-0.12750733">
        <ele>10.0</ele>
        <time>2018-06-10T07:10:45.022Z</time>
      </trkpt>
      <trkpt lat="38.92917583" lon="-0.12754733">
        <ele>10.0</ele>
        <time>2018-06-10T07:10:46.022Z</time>
      </trkpt>
      <trkpt lat="38.92923817" lon="-0.12758733">
        <ele>10.0</ele>
        <time>2018-06-10T07:10:47.022Z</time>
      </trkpt>
      <trkpt lat="38.92930067" lon="-0.127627">
        <ele>10.0</ele>
        <time>2018-06-10T07:10:48.022Z</time>
      </trkpt>
      <trkpt lat="38.92936317" lon="-0.12766783">
        <ele>10.0</ele>
        <time>2018-06-10T07:10:49.022Z</time>
      </trkpt>
      <trkpt lat="38.92942567" lon="-0.12770917">
        <ele>10.0</ele>
        <time>2018-06-10T07:10:50.022Z</time>
      </trkpt>
      <trkpt lat="38.929488" lon="-0.12775183">
        <ele>10.0</ele>
        <time>2018-06-10T07:10:51.022Z</time>
      </trkpt>
      <trkpt lat="38.92955017" lon="-0.1277955">
        <ele>10.0</ele>
        <time>2018-06-10T07:10:52.022Z</time>
      </trkpt>
      <trkpt lat="38.92961233" lon="-0.127841">
        <ele>10.0</ele>
        <time>2018-06-10T07:10:53.022Z</time>
      </trkpt>
      <trkpt lat="38.92967417" lon="-0.12788783">
        <ele>10.0</ele>
        <time>2018-06-10T07:10:54.022Z</time>
      </trkpt>
      <trkpt lat="38.929736" lon="-0.12793583">
        <ele>10.0</ele>
        <time>2018-06-10T07:10:55.022Z</time>
      </trkpt>
      <trkpt lat="38.929798" lon="-0.12798433">
        <ele>10.0</ele>
        <time>2018-06-10T07:10:56.022Z</time>
      </trkpt>
      <trkpt lat="38.92986017" lon="-0.128033">
        <ele>10.0</ele>
        <time>2018-06-10T07:10:57.022Z</time>
      </trkpt>
      <trkpt lat="38.929923" lon="-0.12808117">
        <ele>10.0</ele>
        <time>2018-06-10T07:10:58.022Z</time>
      </trkpt>
      <trkpt lat="38.92998633" lon="-0.12812933">
        <ele>10.0</ele>
        <time>2018-06-10T07:10:59.022Z</time>
      </trkpt>
      <trkpt lat="38.93005033" lon="-0.12817733">
        <ele>10.0</ele>
        <time>2018-06-10T07:11:00.022Z</time>
      </trkpt>
      <trkpt lat="38.93011467" lon="-0.12822517">
        <ele>10.0</ele>
        <time>2018-06-10T07:11:01.022Z</time>
      </trkpt>
      <trkpt lat="38.93017867" lon="-0.12827333">
        <ele>10.0</ele>
        <time>2018-06-10T07:11:02.022Z</time>
      </trkpt>
      <trkpt lat="38.930242" lon="-0.128321">
        <ele>10.0</ele>
        <time>2018-06-10T07:11:03.022Z</time>
      </trkpt>
      <trkpt lat="38.93030433" lon="-0.1283685">
        <ele>10.0</ele>
        <time>2018-06-10T07:11:04.022Z</time>
      </trkpt>
      <trkpt lat="38.93036617" lon="-0.12841567">
        <ele>10.0</ele>
        <time>2018-06-10T07:11:05.022Z</time>
      </trkpt>
      <trkpt lat="38.93042767" lon="-0.12846267">
        <ele>11.0</ele>
        <time>2018-06-10T07:11:06.022Z</time>
      </trkpt>
      <trkpt lat="38.93048883" lon="-0.12851017">
        <ele>11.0</ele>
        <time>2018-06-10T07:11:07.022Z</time>
      </trkpt>
      <trkpt lat="38.93054983" lon="-0.12855767">
        <ele>11.0</ele>
        <time>2018-06-10T07:11:08.022Z</time>
      </trkpt>
      <trkpt lat="38.930611" lon="-0.1286055">
        <ele>11.0</ele>
        <time>2018-06-10T07:11:09.022Z</time>
      </trkpt>
      <trkpt lat="38.93067267" lon="-0.12865333">
        <ele>11.0</ele>
        <time>2018-06-10T07:11:10.022Z</time>
      </trkpt>
      <trkpt lat="38.930735" lon="-0.12870117">
        <ele>10.0</ele>
        <time>2018-06-10T07:11:11.022Z</time>
      </trkpt>
      <trkpt lat="38.93079767" lon="-0.12874867">
        <ele>10.0</ele>
        <time>2018-06-10T07:11:12.022Z</time>
      </trkpt>
      <trkpt lat="38.93086083" lon="-0.128796">
        <ele>10.0</ele>
        <time>2018-06-10T07:11:13.022Z</time>
      </trkpt>
      <trkpt lat="38.93092417" lon="-0.1288435">
        <ele>10.0</ele>
        <time>2018-06-10T07:11:14.022Z</time>
      </trkpt>
      <trkpt lat="38.9309875" lon="-0.12889117">
        <ele>10.0</ele>
        <time>2018-06-10T07:11:15.022Z</time>
      </trkpt>
      <trkpt lat="38.93105083" lon="-0.128939">
        <ele>10.0</ele>
        <time>2018-06-10T07:11:16.022Z</time>
      </trkpt>
      <trkpt lat="38.9311145" lon="-0.12898683">
        <ele>10.0</ele>
        <time>2018-06-10T07:11:17.022Z</time>
      </trkpt>
      <trkpt lat="38.93117883" lon="-0.12903467">
        <ele>10.0</ele>
        <time>2018-06-10T07:11:18.022Z</time>
      </trkpt>
      <trkpt lat="38.931243" lon="-0.129082">
        <ele>10.0</ele>
        <time>2018-06-10T07:11:19.022Z</time>
      </trkpt>
      <trkpt lat="38.931307" lon="-0.1291295">
        <ele>10.0</ele>
        <time>2018-06-10T07:11:20.022Z</time>
      </trkpt>
      <trkpt lat="38.93137033" lon="-0.1291775">
        <ele>10.0</ele>
        <time>2018-06-10T07:11:21.022Z</time>
      </trkpt>
      <trkpt lat="38.93143383" lon="-0.12922533">
        <ele>10.0</ele>
        <time>2018-06-10T07:11:22.022Z</time>
      </trkpt>
      <trkpt lat="38.9314975" lon="-0.12927367">
        <ele>10.0</ele>
        <time>2018-06-10T07:11:23.022Z</time>
      </trkpt>
      <trkpt lat="38.93156117" lon="-0.12932183">
        <ele>10.0</ele>
        <time>2018-06-10T07:11:24.022Z</time>
      </trkpt>
      <trkpt lat="38.931625" lon="-0.12936917">
        <ele>10.0</ele>
        <time>2018-06-10T07:11:25.022Z</time>
      </trkpt>
      <trkpt lat="38.9316885" lon="-0.12941617">
        <ele>10.0</ele>
        <time>2018-06-10T07:11:26.022Z</time>
      </trkpt>
      <trkpt lat="38.93175183" lon="-0.129463">
        <ele>10.0</ele>
        <time>2018-06-10T07:11:27.022Z</time>
      </trkpt>
      <trkpt lat="38.93181433" lon="-0.1295105">
        <ele>10.0</ele>
        <time>2018-06-10T07:11:28.022Z</time>
      </trkpt>
      <trkpt lat="38.93187667" lon="-0.12955767">
        <ele>10.0</ele>
        <time>2018-06-10T07:11:29.022Z</time>
      </trkpt>
      <trkpt lat="38.93193917" lon="-0.12960433">
        <ele>10.0</ele>
        <time>2018-06-10T07:11:30.022Z</time>
      </trkpt>
      <trkpt lat="38.932002" lon="-0.1296505">
        <ele>10.0</ele>
        <time>2018-06-10T07:11:31.022Z</time>
      </trkpt>
      <trkpt lat="38.93206467" lon="-0.129697">
        <ele>10.0</ele>
        <time>2018-06-10T07:11:32.022Z</time>
      </trkpt>
      <trkpt lat="38.93212783" lon="-0.12974367">
        <ele>10.0</ele>
        <time>2018-06-10T07:11:33.022Z</time>
      </trkpt>
      <trkpt lat="38.932191" lon="-0.12979067">
        <ele>10.0</ele>
        <time>2018-06-10T07:11:34.022Z</time>
      </trkpt>
      <trkpt lat="38.93225467" lon="-0.12983817">
        <ele>10.0</ele>
        <time>2018-06-10T07:11:35.022Z</time>
      </trkpt>
      <trkpt lat="38.93231833" lon="-0.12988583">
        <ele>10.0</ele>
        <time>2018-06-10T07:11:36.022Z</time>
      </trkpt>
      <trkpt lat="38.932382" lon="-0.12993367">
        <ele>10.0</ele>
        <time>2018-06-10T07:11:37.022Z</time>
      </trkpt>
      <trkpt lat="38.93244583" lon="-0.12998117">
        <ele>10.0</ele>
        <time>2018-06-10T07:11:38.022Z</time>
      </trkpt>
      <trkpt lat="38.93250967" lon="-0.13002833">
        <ele>10.0</ele>
        <time>2018-06-10T07:11:39.022Z</time>
      </trkpt>
      <trkpt lat="38.9325735" lon="-0.130075">
        <ele>10.0</ele>
        <time>2018-06-10T07:11:40.022Z</time>
      </trkpt>
      <trkpt lat="38.93263783" lon="-0.130121">
        <ele>10.0</ele>
        <time>2018-06-10T07:11:41.022Z</time>
      </trkpt>
      <trkpt lat="38.93270267" lon="-0.1301655">
        <ele>10.0</ele>
        <time>2018-06-10T07:11:42.022Z</time>
      </trkpt>
      <trkpt lat="38.93276883" lon="-0.13020817">
        <ele>11.0</ele>
        <time>2018-06-10T07:11:43.022Z</time>
      </trkpt>
      <trkpt lat="38.93283617" lon="-0.13024717">
        <ele>11.0</ele>
        <time>2018-06-10T07:11:44.022Z</time>
      </trkpt>
      <trkpt lat="38.93290417" lon="-0.13028383">
        <ele>11.0</ele>
        <time>2018-06-10T07:11:45.022Z</time>
      </trkpt>
      <trkpt lat="38.932973" lon="-0.13031783">
        <ele>11.0</ele>
        <time>2018-06-10T07:11:46.022Z</time>
      </trkpt>
      <trkpt lat="38.9330425" lon="-0.130351">
        <ele>11.0</ele>
        <time>2018-06-10T07:11:47.022Z</time>
      </trkpt>
      <trkpt lat="38.93311267" lon="-0.13038317">
        <ele>11.0</ele>
        <time>2018-06-10T07:11:48.022Z</time>
      </trkpt>
      <trkpt lat="38.93318267" lon="-0.13041483">
        <ele>11.0</ele>
        <time>2018-06-10T07:11:49.022Z</time>
      </trkpt>
      <trkpt lat="38.93325233" lon="-0.13044617">
        <ele>11.0</ele>
        <time>2018-06-10T07:11:50.022Z</time>
      </trkpt>
      <trkpt lat="38.9333215" lon="-0.13047783">
        <ele>11.0</ele>
        <time>2018-06-10T07:11:51.022Z</time>
      </trkpt>
      <trkpt lat="38.93339067" lon="-0.13051">
        <ele>12.0</ele>
        <time>2018-06-10T07:11:52.022Z</time>
      </trkpt>
      <trkpt lat="38.93346" lon="-0.13054167">
        <ele>12.0</ele>
        <time>2018-06-10T07:11:53.022Z</time>
      </trkpt>
      <trkpt lat="38.93352917" lon="-0.13057283">
        <ele>11.0</ele>
        <time>2018-06-10T07:11:54.022Z</time>
      </trkpt>
      <trkpt lat="38.93359867" lon="-0.13060383">
        <ele>11.0</ele>
        <time>2018-06-10T07:11:55.022Z</time>
      </trkpt>
      <trkpt lat="38.9336685" lon="-0.130635">
        <ele>12.0</ele>
        <time>2018-06-10T07:11:56.022Z</time>
      </trkpt>
      <trkpt lat="38.93373833" lon="-0.13066633">
        <ele>12.0</ele>
        <time>2018-06-10T07:11:57.022Z</time>
      </trkpt>
      <trkpt lat="38.933808" lon="-0.13069767">
        <ele>12.0</ele>
        <time>2018-06-10T07:11:58.022Z</time>
      </trkpt>
      <trkpt lat="38.9338775" lon="-0.13072867">
        <ele>11.0</ele>
        <time>2018-06-10T07:11:59.022Z</time>
      </trkpt>
      <trkpt lat="38.93394717" lon="-0.13075933">
        <ele>12.0</ele>
        <time>2018-06-10T07:12:00.022Z</time>
      </trkpt>
      <trkpt lat="38.93401733" lon="-0.13079">
        <ele>12.0</ele>
        <time>2018-06-10T07:12:01.022Z</time>
      </trkpt>
      <trkpt lat="38.93408767" lon="-0.13082133">
        <ele>12.0</ele>
        <time>2018-06-10T07:12:02.022Z</time>
      </trkpt>
      <trkpt lat="38.93415783" lon="-0.13085267">
        <ele>12.0</ele>
        <time>2018-06-10T07:12:03.022Z</time>
      </trkpt>
      <trkpt lat="38.93422833" lon="-0.13088383">
        <ele>12.0</ele>
        <time>2018-06-10T07:12:04.022Z</time>
      </trkpt>
      <trkpt lat="38.93429917" lon="-0.13091483">
        <ele>12.0</ele>
        <time>2018-06-10T07:12:05.022Z</time>
      </trkpt>
      <trkpt lat="38.93437" lon="-0.130946">
        <ele>12.0</ele>
        <time>2018-06-10T07:12:06.022Z</time>
      </trkpt>
      <trkpt lat="38.93444067" lon="-0.13097817">
        <ele>12.0</ele>
        <time>2018-06-10T07:12:07.022Z</time>
      </trkpt>
      <trkpt lat="38.93451133" lon="-0.13101067">
        <ele>12.0</ele>
        <time>2018-06-10T07:12:08.022Z</time>
      </trkpt>
      <trkpt lat="38.934582" lon="-0.1310425">
        <ele>12.0</ele>
        <time>2018-06-10T07:12:09.022Z</time>
      </trkpt>
      <trkpt lat="38.93465317" lon="-0.1310725">
        <ele>12.0</ele>
        <time>2018-06-10T07:12:10.022Z</time>
      </trkpt>
      <trkpt lat="38.93472467" lon="-0.13110067">
        <ele>12.0</ele>
        <time>2018-06-10T07:12:11.022Z</time>
      </trkpt>
      <trkpt lat="38.93479667" lon="-0.13112683">
        <ele>12.0</ele>
        <time>2018-06-10T07:12:12.022Z</time>
      </trkpt>
      <trkpt lat="38.934869" lon="-0.131151">
        <ele>12.0</ele>
        <time>2018-06-10T07:12:13.022Z</time>
      </trkpt>
      <trkpt lat="38.93494183" lon="-0.13117367">
        <ele>12.0</ele>
        <time>2018-06-10T07:12:14.022Z</time>
      </trkpt>
      <trkpt lat="38.93501533" lon="-0.13119533">
        <ele>12.0</ele>
        <time>2018-06-10T07:12:15.022Z</time>
      </trkpt>
      <trkpt lat="38.93508883" lon="-0.131216">
        <ele>12.0</ele>
        <time>2018-06-10T07:12:16.022Z</time>
      </trkpt>
      <trkpt lat="38.93516233" lon="-0.13123583">
        <ele>12.0</ele>
        <time>2018-06-10T07:12:17.022Z</time>
      </trkpt>
      <trkpt lat="38.93523583" lon="-0.13125533">
        <ele>12.0</ele>
        <time>2018-06-10T07:12:18.022Z</time>
      </trkpt>
      <trkpt lat="38.93531" lon="-0.131275">
        <ele>12.0</ele>
        <time>2018-06-10T07:12:19.022Z</time>
      </trkpt>
      <trkpt lat="38.9353845" lon="-0.131294">
        <ele>12.0</ele>
        <time>2018-06-10T07:12:20.022Z</time>
      </trkpt>
      <trkpt lat="38.93545933" lon="-0.131313">
        <ele>12.0</ele>
        <time>2018-06-10T07:12:21.022Z</time>
      </trkpt>
      <trkpt lat="38.935534" lon="-0.13133167">
        <ele>12.0</ele>
        <time>2018-06-10T07:12:22.022Z</time>
      </trkpt>
      <trkpt lat="38.93560883" lon="-0.13135067">
        <ele>12.0</ele>
        <time>2018-06-10T07:12:23.022Z</time>
      </trkpt>
      <trkpt lat="38.93568367" lon="-0.13136933">
        <ele>12.0</ele>
        <time>2018-06-10T07:12:24.022Z</time>
      </trkpt>
      <trkpt lat="38.935759" lon="-0.13138783">
        <ele>12.0</ele>
        <time>2018-06-10T07:12:25.022Z</time>
      </trkpt>
      <trkpt lat="38.9358345" lon="-0.1314065">
        <ele>12.0</ele>
        <time>2018-06-10T07:12:26.022Z</time>
      </trkpt>
      <trkpt lat="38.93591" lon="-0.1314255">
        <ele>12.0</ele>
        <time>2018-06-10T07:12:27.022Z</time>
      </trkpt>
      <trkpt lat="38.9359855" lon="-0.1314445">
        <ele>12.0</ele>
        <time>2018-06-10T07:12:28.022Z</time>
      </trkpt>
      <trkpt lat="38.93606117" lon="-0.13146333">
        <ele>12.0</ele>
        <time>2018-06-10T07:12:29.022Z</time>
      </trkpt>
      <trkpt lat="38.9361365" lon="-0.13148183">
        <ele>12.0</ele>
        <time>2018-06-10T07:12:30.022Z</time>
      </trkpt>
      <trkpt lat="38.936212" lon="-0.1315005">
        <ele>12.0</ele>
        <time>2018-06-10T07:12:31.022Z</time>
      </trkpt>
      <trkpt lat="38.93628733" lon="-0.13151983">
        <ele>12.0</ele>
        <time>2018-06-10T07:12:32.022Z</time>
      </trkpt>
      <trkpt lat="38.93636283" lon="-0.13153967">
        <ele>12.0</ele>
        <time>2018-06-10T07:12:33.022Z</time>
      </trkpt>
      <trkpt lat="38.9364385" lon="-0.13155967">
        <ele>12.0</ele>
        <time>2018-06-10T07:12:34.022Z</time>
      </trkpt>
      <trkpt lat="38.9365145" lon="-0.13157917">
        <ele>12.0</ele>
        <time>2018-06-10T07:12:35.022Z</time>
      </trkpt>
      <trkpt lat="38.936591" lon="-0.13159867">
        <ele>12.0</ele>
        <time>2018-06-10T07:12:36.022Z</time>
      </trkpt>
      <trkpt lat="38.93666783" lon="-0.13161833">
        <ele>12.0</ele>
        <time>2018-06-10T07:12:37.022Z</time>
      </trkpt>
      <trkpt lat="38.93674483" lon="-0.13163883">
        <ele>12.0</ele>
        <time>2018-06-10T07:12:38.022Z</time>
      </trkpt>
      <trkpt lat="38.936822" lon="-0.1316595">
        <ele>12.0</ele>
        <time>2018-06-10T07:12:39.022Z</time>
      </trkpt>
      <trkpt lat="38.93689933" lon="-0.13167967">
        <ele>12.0</ele>
        <time>2018-06-10T07:12:40.022Z</time>
      </trkpt>
      <trkpt lat="38.93697633" lon="-0.1317">
        <ele>12.0</ele>
        <time>2018-06-10T07:12:41.022Z</time>
      </trkpt>
      <trkpt lat="38.93705267" lon="-0.13172033">
        <ele>11.0</ele>
        <time>2018-06-10T07:12:42.022Z</time>
      </trkpt>
      <trkpt lat="38.93712817" lon="-0.13174283">
        <ele>11.0</ele>
        <time>2018-06-10T07:12:43.022Z</time>
      </trkpt>
      <trkpt lat="38.93720283" lon="-0.1317675">
        <ele>11.0</ele>
        <time>2018-06-10T07:12:44.022Z</time>
      </trkpt>
      <trkpt lat="38.93727667" lon="-0.13179567">
        <ele>11.0</ele>
        <time>2018-06-10T07:12:45.022Z</time>
      </trkpt>
      <trkpt lat="38.93734883" lon="-0.131826">
        <ele>11.0</ele>
        <time>2018-06-10T07:12:46.022Z</time>
      </trkpt>
      <trkpt lat="38.93741933" lon="-0.13185783">
        <ele>12.0</ele>
        <time>2018-06-10T07:12:47.022Z</time>
      </trkpt>
      <trkpt lat="38.937489" lon="-0.1318845">
        <ele>11.0</ele>
        <time>2018-06-10T07:12:48.022Z</time>
      </trkpt>
      <trkpt lat="38.93755867" lon="-0.1318995">
        <ele>12.0</ele>
        <time>2018-06-10T07:12:49.022Z</time>
      </trkpt>
      <trkpt lat="38.93762833" lon="-0.13190783">
        <ele>12.0</ele>
        <time>2018-06-10T07:12:50.022Z</time>
      </trkpt>
      <trkpt lat="38.93769683" lon="-0.13192083">
        <ele>11.0</ele>
        <time>2018-06-10T07:12:51.022Z</time>
      </trkpt>
      <trkpt lat="38.93776267" lon="-0.1319565">
        <ele>11.0</ele>
        <time>2018-06-10T07:12:52.022Z</time>
      </trkpt>
      <trkpt lat="38.93781483" lon="-0.13201667">
        <ele>10.0</ele>
        <time>2018-06-10T07:12:53.022Z</time>
      </trkpt>
      <trkpt lat="38.93785467" lon="-0.13209517">
        <ele>10.0</ele>
        <time>2018-06-10T07:12:54.022Z</time>
      </trkpt>
      <trkpt lat="38.9378865" lon="-0.13218">
        <ele>10.0</ele>
        <time>2018-06-10T07:12:55.022Z</time>
      </trkpt>
      <trkpt lat="38.93792467" lon="-0.13226083">
        <ele>10.0</ele>
        <time>2018-06-10T07:12:56.022Z</time>
      </trkpt>
      <trkpt lat="38.93797" lon="-0.13233683">
        <ele>10.0</ele>
        <time>2018-06-10T07:12:57.022Z</time>
      </trkpt>
      <trkpt lat="38.93802017" lon="-0.13240783">
        <ele>9.0</ele>
        <time>2018-06-10T07:12:58.022Z</time>
      </trkpt>
      <trkpt lat="38.938072" lon="-0.1324785">
        <ele>9.0</ele>
        <time>2018-06-10T07:12:59.022Z</time>
      </trkpt>
      <trkpt lat="38.93812317" lon="-0.13255067">
        <ele>9.0</ele>
        <time>2018-06-10T07:13:00.022Z</time>
      </trkpt>
      <trkpt lat="38.938173" lon="-0.132625">
        <ele>9.0</ele>
        <time>2018-06-10T07:13:01.022Z</time>
      </trkpt>
      <trkpt lat="38.938222" lon="-0.13269983">
        <ele>10.0</ele>
        <time>2018-06-10T07:13:02.022Z</time>
      </trkpt>
      <trkpt lat="38.93827017" lon="-0.13277467">
        <ele>10.0</ele>
        <time>2018-06-10T07:13:03.022Z</time>
      </trkpt>
      <trkpt lat="38.938318" lon="-0.13284883">
        <ele>10.0</ele>
        <time>2018-06-10T07:13:04.022Z</time>
      </trkpt>
      <trkpt lat="38.93836517" lon="-0.132923">
        <ele>10.0</ele>
        <time>2018-06-10T07:13:05.022Z</time>
      </trkpt>
      <trkpt lat="38.93841183" lon="-0.13299667">
        <ele>10.0</ele>
        <time>2018-06-10T07:13:06.022Z</time>
      </trkpt>
      <trkpt lat="38.93845733" lon="-0.133069">
        <ele>10.0</ele>
        <time>2018-06-10T07:13:07.022Z</time>
      </trkpt>
      <trkpt lat="38.93850167" lon="-0.1331395">
        <ele>11.0</ele>
        <time>2018-06-10T07:13:08.022Z</time>
      </trkpt>
      <trkpt lat="38.9385445" lon="-0.13320833">
        <ele>11.0</ele>
        <time>2018-06-10T07:13:09.022Z</time>
      </trkpt>
      <trkpt lat="38.93858667" lon="-0.13327583">
        <ele>10.0</ele>
        <time>2018-06-10T07:13:10.022Z</time>
      </trkpt>
      <trkpt lat="38.93862917" lon="-0.13334383">
        <ele>11.0</ele>
        <time>2018-06-10T07:13:11.022Z</time>
      </trkpt>
      <trkpt lat="38.93867267" lon="-0.13341267">
        <ele>11.0</ele>
        <time>2018-06-10T07:13:12.022Z</time>
      </trkpt>
      <trkpt lat="38.938717" lon="-0.13348233">
        <ele>11.0</ele>
        <time>2018-06-10T07:13:13.022Z</time>
      </trkpt>
      <trkpt lat="38.9387615" lon="-0.1335525">
        <ele>11.0</ele>
        <time>2018-06-10T07:13:14.022Z</time>
      </trkpt>
      <trkpt lat="38.938806" lon="-0.13362333">
        <ele>11.0</ele>
        <time>2018-06-10T07:13:15.022Z</time>
      </trkpt>
      <trkpt lat="38.93885083" lon="-0.13369417">
        <ele>11.0</ele>
        <time>2018-06-10T07:13:16.022Z</time>
      </trkpt>
      <trkpt lat="38.93889583" lon="-0.13376467">
        <ele>11.0</ele>
        <time>2018-06-10T07:13:17.022Z</time>
      </trkpt>
      <trkpt lat="38.93894117" lon="-0.1338345">
        <ele>11.0</ele>
        <time>2018-06-10T07:13:18.022Z</time>
      </trkpt>
      <trkpt lat="38.93898633" lon="-0.13390433">
        <ele>11.0</ele>
        <time>2018-06-10T07:13:19.022Z</time>
      </trkpt>
      <trkpt lat="38.939031" lon="-0.1339745">
        <ele>11.0</ele>
        <time>2018-06-10T07:13:20.022Z</time>
      </trkpt>
      <trkpt lat="38.93907533" lon="-0.13404483">
        <ele>11.0</ele>
        <time>2018-06-10T07:13:21.022Z</time>
      </trkpt>
      <trkpt lat="38.939119" lon="-0.13411483">
        <ele>11.0</ele>
        <time>2018-06-10T07:13:22.022Z</time>
      </trkpt>
      <trkpt lat="38.939163" lon="-0.13418383">
        <ele>12.0</ele>
        <time>2018-06-10T07:13:23.022Z</time>
      </trkpt>
      <trkpt lat="38.93920633" lon="-0.13425167">
        <ele>12.0</ele>
        <time>2018-06-10T07:13:24.022Z</time>
      </trkpt>
      <trkpt lat="38.93924917" lon="-0.1343185">
        <ele>12.0</ele>
        <time>2018-06-10T07:13:25.022Z</time>
      </trkpt>
      <trkpt lat="38.93929183" lon="-0.1343845">
        <ele>12.0</ele>
        <time>2018-06-10T07:13:26.022Z</time>
      </trkpt>
      <trkpt lat="38.9393345" lon="-0.13445083">
        <ele>12.0</ele>
        <time>2018-06-10T07:13:27.022Z</time>
      </trkpt>
      <trkpt lat="38.93937783" lon="-0.13451733">
        <ele>12.0</ele>
        <time>2018-06-10T07:13:28.022Z</time>
      </trkpt>
      <trkpt lat="38.9394215" lon="-0.13458483">
        <ele>12.0</ele>
        <time>2018-06-10T07:13:29.022Z</time>
      </trkpt>
      <trkpt lat="38.9394655" lon="-0.13465283">
        <ele>12.0</ele>
        <time>2018-06-10T07:13:30.022Z</time>
      </trkpt>
      <trkpt lat="38.93950983" lon="-0.13472167">
        <ele>12.0</ele>
        <time>2018-06-10T07:13:31.022Z</time>
      </trkpt>
      <trkpt lat="38.939554" lon="-0.13479117">
        <ele>12.0</ele>
        <time>2018-06-10T07:13:32.022Z</time>
      </trkpt>
      <trkpt lat="38.9395985" lon="-0.13486083">
        <ele>12.0</ele>
        <time>2018-06-10T07:13:33.022Z</time>
      </trkpt>
      <trkpt lat="38.93964317" lon="-0.13493033">
        <ele>12.0</ele>
        <time>2018-06-10T07:13:34.022Z</time>
      </trkpt>
      <trkpt lat="38.93968817" lon="-0.1349995">
        <ele>12.0</ele>
        <time>2018-06-10T07:13:35.022Z</time>
      </trkpt>
      <trkpt lat="38.93973367" lon="-0.13506867">
        <ele>12.0</ele>
        <time>2018-06-10T07:13:36.022Z</time>
      </trkpt>
      <trkpt lat="38.9397805" lon="-0.135137">
        <ele>12.0</ele>
        <time>2018-06-10T07:13:37.022Z</time>
      </trkpt>
      <trkpt lat="38.93982967" lon="-0.13520333">
        <ele>12.0</ele>
        <time>2018-06-10T07:13:38.022Z</time>
      </trkpt>
      <trkpt lat="38.93988133" lon="-0.1352665">
        <ele>13.0</ele>
        <time>2018-06-10T07:13:39.022Z</time>
      </trkpt>
      <trkpt lat="38.9399345" lon="-0.13532683">
        <ele>13.0</ele>
        <time>2018-06-10T07:13:40.022Z</time>
      </trkpt>
      <trkpt lat="38.93998817" lon="-0.13538467">
        <ele>13.0</ele>
        <time>2018-06-10T07:13:41.022Z</time>
      </trkpt>
      <trkpt lat="38.940042" lon="-0.13543967">
        <ele>13.0</ele>
        <time>2018-06-10T07:13:42.022Z</time>
      </trkpt>
      <trkpt lat="38.94009667" lon="-0.135491">
        <ele>13.0</ele>
        <time>2018-06-10T07:13:43.022Z</time>
      </trkpt>
      <trkpt lat="38.94015233" lon="-0.13553917">
        <ele>14.0</ele>
        <time>2018-06-10T07:13:44.022Z</time>
      </trkpt>
      <trkpt lat="38.94020933" lon="-0.13558533">
        <ele>14.0</ele>
        <time>2018-06-10T07:13:45.022Z</time>
      </trkpt>
      <trkpt lat="38.9402675" lon="-0.13563017">
        <ele>15.0</ele>
        <time>2018-06-10T07:13:46.022Z</time>
      </trkpt>
      <trkpt lat="38.94032817" lon="-0.135672">
        <ele>15.0</ele>
        <time>2018-06-10T07:13:47.022Z</time>
      </trkpt>
      <trkpt lat="38.94039167" lon="-0.1357085">
        <ele>15.0</ele>
        <time>2018-06-10T07:13:48.022Z</time>
      </trkpt>
      <trkpt lat="38.94045783" lon="-0.1357405">
        <ele>15.0</ele>
        <time>2018-06-10T07:13:49.022Z</time>
      </trkpt>
      <trkpt lat="38.94052617" lon="-0.13576567">
        <ele>15.0</ele>
        <time>2018-06-10T07:13:50.022Z</time>
      </trkpt>
      <trkpt lat="38.940595" lon="-0.1357855">
        <ele>15.0</ele>
        <time>2018-06-10T07:13:51.022Z</time>
      </trkpt>
      <trkpt lat="38.94066317" lon="-0.1357985">
        <ele>16.0</ele>
        <time>2018-06-10T07:13:52.022Z</time>
      </trkpt>
      <trkpt lat="38.94073083" lon="-0.13580433">
        <ele>15.0</ele>
        <time>2018-06-10T07:13:53.022Z</time>
      </trkpt>
      <trkpt lat="38.94079883" lon="-0.13580717">
        <ele>15.0</ele>
        <time>2018-06-10T07:13:54.022Z</time>
      </trkpt>
      <trkpt lat="38.94086767" lon="-0.13580933">
        <ele>15.0</ele>
        <time>2018-06-10T07:13:55.022Z</time>
      </trkpt>
      <trkpt lat="38.94093717" lon="-0.13581517">
        <ele>15.0</ele>
        <time>2018-06-10T07:13:56.022Z</time>
      </trkpt>
      <trkpt lat="38.9410075" lon="-0.1358235">
        <ele>14.0</ele>
        <time>2018-06-10T07:13:57.022Z</time>
      </trkpt>
      <trkpt lat="38.94107883" lon="-0.13583517">
        <ele>14.0</ele>
        <time>2018-06-10T07:13:58.022Z</time>
      </trkpt>
      <trkpt lat="38.94115067" lon="-0.135851">
        <ele>14.0</ele>
        <time>2018-06-10T07:13:59.022Z</time>
      </trkpt>
      <trkpt lat="38.94122083" lon="-0.135874">
        <ele>14.0</ele>
        <time>2018-06-10T07:14:00.022Z</time>
      </trkpt>
      <trkpt lat="38.94128933" lon="-0.135902">
        <ele>14.0</ele>
        <time>2018-06-10T07:14:01.022Z</time>
      </trkpt>
      <trkpt lat="38.94135633" lon="-0.13593367">
        <ele>14.0</ele>
        <time>2018-06-10T07:14:02.022Z</time>
      </trkpt>
      <trkpt lat="38.94142417" lon="-0.13596417">
        <ele>14.0</ele>
        <time>2018-06-10T07:14:03.022Z</time>
      </trkpt>
      <trkpt lat="38.94149333" lon="-0.13599133">
        <ele>14.0</ele>
        <time>2018-06-10T07:14:04.022Z</time>
      </trkpt>
      <trkpt lat="38.94156417" lon="-0.13601433">
        <ele>14.0</ele>
        <time>2018-06-10T07:14:05.022Z</time>
      </trkpt>
      <trkpt lat="38.9416365" lon="-0.1360315">
        <ele>14.0</ele>
        <time>2018-06-10T07:14:06.022Z</time>
      </trkpt>
      <trkpt lat="38.9417105" lon="-0.1360435">
        <ele>14.0</ele>
        <time>2018-06-10T07:14:07.022Z</time>
      </trkpt>
      <trkpt lat="38.941786" lon="-0.13605017">
        <ele>14.0</ele>
        <time>2018-06-10T07:14:08.022Z</time>
      </trkpt>
      <trkpt lat="38.941862" lon="-0.136053">
        <ele>14.0</ele>
        <time>2018-06-10T07:14:09.022Z</time>
      </trkpt>
      <trkpt lat="38.94193767" lon="-0.13605217">
        <ele>14.0</ele>
        <time>2018-06-10T07:14:10.022Z</time>
      </trkpt>
      <trkpt lat="38.9420125" lon="-0.13604717">
        <ele>14.0</ele>
        <time>2018-06-10T07:14:11.022Z</time>
      </trkpt>
      <trkpt lat="38.94208683" lon="-0.13603617">
        <ele>15.0</ele>
        <time>2018-06-10T07:14:12.022Z</time>
      </trkpt>
      <trkpt lat="38.94216283" lon="-0.1360145">
        <ele>14.0</ele>
        <time>2018-06-10T07:14:13.022Z</time>
      </trkpt>
      <trkpt lat="38.94224" lon="-0.13598683">
        <ele>14.0</ele>
        <time>2018-06-10T07:14:14.022Z</time>
      </trkpt>
      <trkpt lat="38.94231667" lon="-0.13595133">
        <ele>14.0</ele>
        <time>2018-06-10T07:14:15.022Z</time>
      </trkpt>
      <trkpt lat="38.94239183" lon="-0.13591467">
        <ele>13.0</ele>
        <time>2018-06-10T07:14:16.022Z</time>
      </trkpt>
      <trkpt lat="38.9424645" lon="-0.135873">
        <ele>13.0</ele>
        <time>2018-06-10T07:14:17.022Z</time>
      </trkpt>
      <trkpt lat="38.94253483" lon="-0.13583017">
        <ele>13.0</ele>
        <time>2018-06-10T07:14:18.022Z</time>
      </trkpt>
      <trkpt lat="38.94260283" lon="-0.13578517">
        <ele>13.0</ele>
        <time>2018-06-10T07:14:19.022Z</time>
      </trkpt>
      <trkpt lat="38.942671" lon="-0.13573933">
        <ele>12.0</ele>
        <time>2018-06-10T07:14:20.022Z</time>
      </trkpt>
      <trkpt lat="38.94274" lon="-0.13569417">
        <ele>12.0</ele>
        <time>2018-06-10T07:14:21.022Z</time>
      </trkpt>
      <trkpt lat="38.942809" lon="-0.13564933">
        <ele>12.0</ele>
        <time>2018-06-10T07:14:22.022Z</time>
      </trkpt>
      <trkpt lat="38.94287667" lon="-0.135604">
        <ele>11.0</ele>
        <time>2018-06-10T07:14:23.022Z</time>
      </trkpt>
      <trkpt lat="38.9429425" lon="-0.1355565">
        <ele>11.0</ele>
        <time>2018-06-10T07:14:24.022Z</time>
      </trkpt>
      <trkpt lat="38.94300833" lon="-0.1355065">
        <ele>11.0</ele>
        <time>2018-06-10T07:14:25.022Z</time>
      </trkpt>
      <trkpt lat="38.94307567" lon="-0.135456">
        <ele>11.0</ele>
        <time>2018-06-10T07:14:26.022Z</time>
      </trkpt>
      <trkpt lat="38.9431455" lon="-0.1354065">
        <ele>11.0</ele>
        <time>2018-06-10T07:14:27.022Z</time>
      </trkpt>
      <trkpt lat="38.94321717" lon="-0.13536">
        <ele>11.0</ele>
        <time>2018-06-10T07:14:28.022Z</time>
      </trkpt>
      <trkpt lat="38.943291" lon="-0.1353185">
        <ele>10.0</ele>
        <time>2018-06-10T07:14:29.022Z</time>
      </trkpt>
      <trkpt lat="38.943366" lon="-0.13528267">
        <ele>10.0</ele>
        <time>2018-06-10T07:14:30.022Z</time>
      </trkpt>
      <trkpt lat="38.94344183" lon="-0.13525317">
        <ele>10.0</ele>
        <time>2018-06-10T07:14:31.022Z</time>
      </trkpt>
      <trkpt lat="38.94351683" lon="-0.1352305">
        <ele>9.0</ele>
        <time>2018-06-10T07:14:32.022Z</time>
      </trkpt>
      <trkpt lat="38.94359083" lon="-0.135215">
        <ele>9.0</ele>
        <time>2018-06-10T07:14:33.022Z</time>
      </trkpt>
      <trkpt lat="38.943663" lon="-0.13521033">
        <ele>10.0</ele>
        <time>2018-06-10T07:14:34.022Z</time>
      </trkpt>
      <trkpt lat="38.94373383" lon="-0.13521367">
        <ele>10.0</ele>
        <time>2018-06-10T07:14:35.022Z</time>
      </trkpt>
      <trkpt lat="38.94380333" lon="-0.13522033">
        <ele>10.0</ele>
        <time>2018-06-10T07:14:36.022Z</time>
      </trkpt>
      <trkpt lat="38.94387183" lon="-0.135223">
        <ele>10.0</ele>
        <time>2018-06-10T07:14:37.022Z</time>
      </trkpt>
      <trkpt lat="38.94393933" lon="-0.13522283">
        <ele>10.0</ele>
        <time>2018-06-10T07:14:38.022Z</time>
      </trkpt>
      <trkpt lat="38.94400517" lon="-0.13522817">
        <ele>10.0</ele>
        <time>2018-06-10T07:14:39.022Z</time>
      </trkpt>
      <trkpt lat="38.94406967" lon="-0.13525267">
        <ele>11.0</ele>
        <time>2018-06-10T07:14:40.022Z</time>
      </trkpt>
      <trkpt lat="38.94413" lon="-0.13529667">
        <ele>11.0</ele>
        <time>2018-06-10T07:14:41.022Z</time>
      </trkpt>
      <trkpt lat="38.94418717" lon="-0.13535383">
        <ele>11.0</ele>
        <time>2018-06-10T07:14:42.022Z</time>
      </trkpt>
      <trkpt lat="38.94424167" lon="-0.13541133">
        <ele>11.0</ele>
        <time>2018-06-10T07:14:43.022Z</time>
      </trkpt>
      <trkpt lat="38.944297" lon="-0.13546783">
        <ele>11.0</ele>
        <time>2018-06-10T07:14:44.022Z</time>
      </trkpt>
      <trkpt lat="38.94435283" lon="-0.135524">
        <ele>11.0</ele>
        <time>2018-06-10T07:14:45.022Z</time>
      </trkpt>
      <trkpt lat="38.944408" lon="-0.13558183">
        <ele>11.0</ele>
        <time>2018-06-10T07:14:46.022Z</time>
      </trkpt>
      <trkpt lat="38.94446167" lon="-0.13564117">
        <ele>11.0</ele>
        <time>2018-06-10T07:14:47.022Z</time>
      </trkpt>
      <trkpt lat="38.94451333" lon="-0.13570217">
        <ele>11.0</ele>
        <time>2018-06-10T07:14:48.022Z</time>
      </trkpt>
      <trkpt lat="38.94456333" lon="-0.13576367">
        <ele>11.0</ele>
        <time>2018-06-10T07:14:49.022Z</time>
      </trkpt>
      <trkpt lat="38.94461233" lon="-0.135825">
        <ele>11.0</ele>
        <time>2018-06-10T07:14:50.022Z</time>
      </trkpt>
      <trkpt lat="38.94466083" lon="-0.13588583">
        <ele>11.0</ele>
        <time>2018-06-10T07:14:51.022Z</time>
      </trkpt>
      <trkpt lat="38.944709" lon="-0.13594617">
        <ele>11.0</ele>
        <time>2018-06-10T07:14:52.022Z</time>
      </trkpt>
      <trkpt lat="38.944757" lon="-0.1360065">
        <ele>12.0</ele>
        <time>2018-06-10T07:14:53.022Z</time>
      </trkpt>
      <trkpt lat="38.9448045" lon="-0.136067">
        <ele>12.0</ele>
        <time>2018-06-10T07:14:54.022Z</time>
      </trkpt>
      <trkpt lat="38.94485183" lon="-0.13612783">
        <ele>12.0</ele>
        <time>2018-06-10T07:14:55.022Z</time>
      </trkpt>
      <trkpt lat="38.94489933" lon="-0.13618917">
        <ele>12.0</ele>
        <time>2018-06-10T07:14:56.022Z</time>
      </trkpt>
      <trkpt lat="38.94494733" lon="-0.13625033">
        <ele>12.0</ele>
        <time>2018-06-10T07:14:57.022Z</time>
      </trkpt>
      <trkpt lat="38.944995" lon="-0.13631233">
        <ele>12.0</ele>
        <time>2018-06-10T07:14:58.022Z</time>
      </trkpt>
      <trkpt lat="38.94504217" lon="-0.13637483">
        <ele>12.0</ele>
        <time>2018-06-10T07:14:59.022Z</time>
      </trkpt>
      <trkpt lat="38.94508917" lon="-0.13643783">
        <ele>12.0</ele>
        <time>2018-06-10T07:15:00.022Z</time>
      </trkpt>
      <trkpt lat="38.94513683" lon="-0.1365">
        <ele>12.0</ele>
        <time>2018-06-10T07:15:01.022Z</time>
      </trkpt>
      <trkpt lat="38.94518517" lon="-0.13656117">
        <ele>13.0</ele>
        <time>2018-06-10T07:15:02.022Z</time>
      </trkpt>
      <trkpt lat="38.9452345" lon="-0.13662233">
        <ele>13.0</ele>
        <time>2018-06-10T07:15:03.022Z</time>
      </trkpt>
      <trkpt lat="38.94528467" lon="-0.1366845">
        <ele>13.0</ele>
        <time>2018-06-10T07:15:04.022Z</time>
      </trkpt>
      <trkpt lat="38.945336" lon="-0.13674683">
        <ele>13.0</ele>
        <time>2018-06-10T07:15:05.022Z</time>
      </trkpt>
      <trkpt lat="38.94538817" lon="-0.1368095">
        <ele>13.0</ele>
        <time>2018-06-10T07:15:06.022Z</time>
      </trkpt>
      <trkpt lat="38.94544067" lon="-0.13687233">
        <ele>13.0</ele>
        <time>2018-06-10T07:15:07.022Z</time>
      </trkpt>
      <trkpt lat="38.94549267" lon="-0.13693633">
        <ele>13.0</ele>
        <time>2018-06-10T07:15:08.022Z</time>
      </trkpt>
      <trkpt lat="38.94554467" lon="-0.137001">
        <ele>13.0</ele>
        <time>2018-06-10T07:15:09.022Z</time>
      </trkpt>
      <trkpt lat="38.94559667" lon="-0.13706683">
        <ele>13.0</ele>
        <time>2018-06-10T07:15:10.022Z</time>
      </trkpt>
      <trkpt lat="38.945649" lon="-0.1371335">
        <ele>13.0</ele>
        <time>2018-06-10T07:15:11.022Z</time>
      </trkpt>
      <trkpt lat="38.94570233" lon="-0.1372005">
        <ele>13.0</ele>
        <time>2018-06-10T07:15:12.022Z</time>
      </trkpt>
      <trkpt lat="38.94575633" lon="-0.137268">
        <ele>13.0</ele>
        <time>2018-06-10T07:15:13.022Z</time>
      </trkpt>
      <trkpt lat="38.945811" lon="-0.1373355">
        <ele>13.0</ele>
        <time>2018-06-10T07:15:14.022Z</time>
      </trkpt>
      <trkpt lat="38.94586617" lon="-0.13740317">
        <ele>13.0</ele>
        <time>2018-06-10T07:15:15.022Z</time>
      </trkpt>
      <trkpt lat="38.94592233" lon="-0.13747017">
        <ele>13.0</ele>
        <time>2018-06-10T07:15:16.022Z</time>
      </trkpt>
      <trkpt lat="38.94597983" lon="-0.13753617">
        <ele>13.0</ele>
        <time>2018-06-10T07:15:17.022Z</time>
      </trkpt>
      <trkpt lat="38.94603983" lon="-0.1375995">
        <ele>13.0</ele>
        <time>2018-06-10T07:15:18.022Z</time>
      </trkpt>
      <trkpt lat="38.94610267" lon="-0.13765967">
        <ele>13.0</ele>
        <time>2018-06-10T07:15:19.022Z</time>
      </trkpt>
      <trkpt lat="38.946168" lon="-0.13771583">
        <ele>13.0</ele>
        <time>2018-06-10T07:15:20.022Z</time>
      </trkpt>
      <trkpt lat="38.94623567" lon="-0.1377685">
        <ele>13.0</ele>
        <time>2018-06-10T07:15:21.022Z</time>
      </trkpt>
      <trkpt lat="38.94630533" lon="-0.13781767">
        <ele>13.0</ele>
        <time>2018-06-10T07:15:22.022Z</time>
      </trkpt>
      <trkpt lat="38.946377" lon="-0.1378635">
        <ele>13.0</ele>
        <time>2018-06-10T07:15:23.022Z</time>
      </trkpt>
      <trkpt lat="38.94644967" lon="-0.137908">
        <ele>12.0</ele>
        <time>2018-06-10T07:15:24.022Z</time>
      </trkpt>
      <trkpt lat="38.94652267" lon="-0.1379515">
        <ele>12.0</ele>
        <time>2018-06-10T07:15:25.022Z</time>
      </trkpt>
      <trkpt lat="38.94659467" lon="-0.1379955">
        <ele>12.0</ele>
        <time>2018-06-10T07:15:26.022Z</time>
      </trkpt>
      <trkpt lat="38.946666" lon="-0.13803867">
        <ele>12.0</ele>
        <time>2018-06-10T07:15:27.022Z</time>
      </trkpt>
      <trkpt lat="38.94673733" lon="-0.13808117">
        <ele>12.0</ele>
        <time>2018-06-10T07:15:28.022Z</time>
      </trkpt>
      <trkpt lat="38.9468085" lon="-0.1381235">
        <ele>12.0</ele>
        <time>2018-06-10T07:15:29.022Z</time>
      </trkpt>
      <trkpt lat="38.94687917" lon="-0.1381655">
        <ele>12.0</ele>
        <time>2018-06-10T07:15:30.022Z</time>
      </trkpt>
      <trkpt lat="38.94694917" lon="-0.1382075">
        <ele>12.0</ele>
        <time>2018-06-10T07:15:31.022Z</time>
      </trkpt>
      <trkpt lat="38.9470185" lon="-0.13824917">
        <ele>13.0</ele>
        <time>2018-06-10T07:15:32.022Z</time>
      </trkpt>
      <trkpt lat="38.947087" lon="-0.1382915">
        <ele>13.0</ele>
        <time>2018-06-10T07:15:33.022Z</time>
      </trkpt>
      <trkpt lat="38.9471545" lon="-0.13833517">
        <ele>13.0</ele>
        <time>2018-06-10T07:15:34.022Z</time>
      </trkpt>
      <trkpt lat="38.947221" lon="-0.1383805">
        <ele>13.0</ele>
        <time>2018-06-10T07:15:35.022Z</time>
      </trkpt>
      <trkpt lat="38.94728667" lon="-0.1384285">
        <ele>13.0</ele>
        <time>2018-06-10T07:15:36.022Z</time>
      </trkpt>
      <trkpt lat="38.9473515" lon="-0.13847867">
        <ele>13.0</ele>
        <time>2018-06-10T07:15:37.022Z</time>
      </trkpt>
      <trkpt lat="38.94741433" lon="-0.13853017">
        <ele>13.0</ele>
        <time>2018-06-10T07:15:38.022Z</time>
      </trkpt>
      <trkpt lat="38.94747533" lon="-0.13858033">
        <ele>13.0</ele>
        <time>2018-06-10T07:15:39.022Z</time>
      </trkpt>
      <trkpt lat="38.94753433" lon="-0.13863017">
        <ele>13.0</ele>
        <time>2018-06-10T07:15:40.022Z</time>
      </trkpt>
      <trkpt lat="38.94759367" lon="-0.13868067">
        <ele>13.0</ele>
        <time>2018-06-10T07:15:41.022Z</time>
      </trkpt>
      <trkpt lat="38.9476545" lon="-0.1387335">
        <ele>13.0</ele>
        <time>2018-06-10T07:15:42.022Z</time>
      </trkpt>
      <trkpt lat="38.94771767" lon="-0.13878867">
        <ele>13.0</ele>
        <time>2018-06-10T07:15:43.022Z</time>
      </trkpt>
      <trkpt lat="38.94778217" lon="-0.138846">
        <ele>13.0</ele>
        <time>2018-06-10T07:15:44.022Z</time>
      </trkpt>
      <trkpt lat="38.947847" lon="-0.13890483">
        <ele>13.0</ele>
        <time>2018-06-10T07:15:45.022Z</time>
      </trkpt>
      <trkpt lat="38.94791" lon="-0.13896467">
        <ele>14.0</ele>
        <time>2018-06-10T07:15:46.022Z</time>
      </trkpt>
      <trkpt lat="38.94797033" lon="-0.13902617">
        <ele>14.0</ele>
        <time>2018-06-10T07:15:47.022Z</time>
      </trkpt>
      <trkpt lat="38.94802733" lon="-0.13908933">
        <ele>14.0</ele>
        <time>2018-06-10T07:15:48.022Z</time>
      </trkpt>
      <trkpt lat="38.94808083" lon="-0.139155">
        <ele>14.0</ele>
        <time>2018-06-10T07:15:49.022Z</time>
      </trkpt>
      <trkpt lat="38.948132" lon="-0.13922217">
        <ele>14.0</ele>
        <time>2018-06-10T07:15:50.022Z</time>
      </trkpt>
      <trkpt lat="38.94818083" lon="-0.13929017">
        <ele>14.0</ele>
        <time>2018-06-10T07:15:51.022Z</time>
      </trkpt>
      <trkpt lat="38.94822817" lon="-0.13935967">
        <ele>14.0</ele>
        <time>2018-06-10T07:15:52.022Z</time>
      </trkpt>
      <trkpt lat="38.94827383" lon="-0.13943067">
        <ele>14.0</ele>
        <time>2018-06-10T07:15:53.022Z</time>
      </trkpt>
      <trkpt lat="38.94831867" lon="-0.13950333">
        <ele>14.0</ele>
        <time>2018-06-10T07:15:54.022Z</time>
      </trkpt>
      <trkpt lat="38.9483625" lon="-0.13957583">
        <ele>14.0</ele>
        <time>2018-06-10T07:15:55.022Z</time>
      </trkpt>
      <trkpt lat="38.94840567" lon="-0.13964833">
        <ele>14.0</ele>
        <time>2018-06-10T07:15:56.022Z</time>
      </trkpt>
      <trkpt lat="38.94844817" lon="-0.139721">
        <ele>14.0</ele>
        <time>2018-06-10T07:15:57.022Z</time>
      </trkpt>
      <trkpt lat="38.94848967" lon="-0.13979283">
        <ele>14.0</ele>
        <time>2018-06-10T07:15:58.022Z</time>
      </trkpt>
      <trkpt lat="38.94853017" lon="-0.13986333">
        <ele>14.0</ele>
        <time>2018-06-10T07:15:59.022Z</time>
      </trkpt>
      <trkpt lat="38.94857017" lon="-0.13993217">
        <ele>14.0</ele>
        <time>2018-06-10T07:16:00.022Z</time>
      </trkpt>
      <trkpt lat="38.94861067" lon="-0.1400005">
        <ele>14.0</ele>
        <time>2018-06-10T07:16:01.022Z</time>
      </trkpt>
      <trkpt lat="38.94865383" lon="-0.14006617">
        <ele>15.0</ele>
        <time>2018-06-10T07:16:02.022Z</time>
      </trkpt>
      <trkpt lat="38.94870183" lon="-0.140126">
        <ele>15.0</ele>
        <time>2018-06-10T07:16:03.022Z</time>
      </trkpt>
      <trkpt lat="38.9487575" lon="-0.140174">
        <ele>15.0</ele>
        <time>2018-06-10T07:16:04.022Z</time>
      </trkpt>
      <trkpt lat="38.948819" lon="-0.14021183">
        <ele>15.0</ele>
        <time>2018-06-10T07:16:05.022Z</time>
      </trkpt>
      <trkpt lat="38.94888267" lon="-0.14024783">
        <ele>15.0</ele>
        <time>2018-06-10T07:16:06.022Z</time>
      </trkpt>
      <trkpt lat="38.94894183" lon="-0.1402935">
        <ele>15.0</ele>
        <time>2018-06-10T07:16:07.022Z</time>
      </trkpt>
      <trkpt lat="38.9489905" lon="-0.140356">
        <ele>15.0</ele>
        <time>2018-06-10T07:16:08.022Z</time>
      </trkpt>
      <trkpt lat="38.9490225" lon="-0.140434">
        <ele>14.0</ele>
        <time>2018-06-10T07:16:09.022Z</time>
      </trkpt>
      <trkpt lat="38.94904083" lon="-0.140521">
        <ele>14.0</ele>
        <time>2018-06-10T07:16:10.022Z</time>
      </trkpt>
      <trkpt lat="38.94905267" lon="-0.14061183">
        <ele>14.0</ele>
        <time>2018-06-10T07:16:11.022Z</time>
      </trkpt>
      <trkpt lat="38.94907033" lon="-0.14070083">
        <ele>14.0</ele>
        <time>2018-06-10T07:16:12.022Z</time>
      </trkpt>
      <trkpt lat="38.949097" lon="-0.14078683">
        <ele>14.0</ele>
        <time>2018-06-10T07:16:13.022Z</time>
      </trkpt>
      <trkpt lat="38.94913333" lon="-0.14086667">
        <ele>14.0</ele>
        <time>2018-06-10T07:16:14.022Z</time>
      </trkpt>
      <trkpt lat="38.94917517" lon="-0.140943">
        <ele>14.0</ele>
        <time>2018-06-10T07:16:15.022Z</time>
      </trkpt>
      <trkpt lat="38.94922033" lon="-0.14101717">
        <ele>15.0</ele>
        <time>2018-06-10T07:16:16.022Z</time>
      </trkpt>
      <trkpt lat="38.94926667" lon="-0.14109067">
        <ele>15.0</ele>
        <time>2018-06-10T07:16:17.022Z</time>
      </trkpt>
      <trkpt lat="38.949314" lon="-0.1411635">
        <ele>15.0</ele>
        <time>2018-06-10T07:16:18.022Z</time>
      </trkpt>
      <trkpt lat="38.94936267" lon="-0.1412345">
        <ele>15.0</ele>
        <time>2018-06-10T07:16:19.022Z</time>
      </trkpt>
      <trkpt lat="38.94941267" lon="-0.14130367">
        <ele>15.0</ele>
        <time>2018-06-10T07:16:20.022Z</time>
      </trkpt>
      <trkpt lat="38.9494645" lon="-0.14137017">
        <ele>15.0</ele>
        <time>2018-06-10T07:16:21.022Z</time>
      </trkpt>
      <trkpt lat="38.949518" lon="-0.1414335">
        <ele>15.0</ele>
        <time>2018-06-10T07:16:22.022Z</time>
      </trkpt>
      <trkpt lat="38.949573" lon="-0.14149417">
        <ele>15.0</ele>
        <time>2018-06-10T07:16:23.022Z</time>
      </trkpt>
      <trkpt lat="38.94962867" lon="-0.141554">
        <ele>15.0</ele>
        <time>2018-06-10T07:16:24.022Z</time>
      </trkpt>
      <trkpt lat="38.94968483" lon="-0.14161367">
        <ele>15.0</ele>
        <time>2018-06-10T07:16:25.022Z</time>
      </trkpt>
      <trkpt lat="38.94974083" lon="-0.14167433">
        <ele>15.0</ele>
        <time>2018-06-10T07:16:26.022Z</time>
      </trkpt>
      <trkpt lat="38.94979683" lon="-0.14173483">
        <ele>15.0</ele>
        <time>2018-06-10T07:16:27.022Z</time>
      </trkpt>
      <trkpt lat="38.949853" lon="-0.14179583">
        <ele>15.0</ele>
        <time>2018-06-10T07:16:28.022Z</time>
      </trkpt>
      <trkpt lat="38.94990933" lon="-0.14185617">
        <ele>15.0</ele>
        <time>2018-06-10T07:16:29.022Z</time>
      </trkpt>
      <trkpt lat="38.94996617" lon="-0.14191567">
        <ele>15.0</ele>
        <time>2018-06-10T07:16:30.022Z</time>
      </trkpt>
      <trkpt lat="38.95002433" lon="-0.1419735">
        <ele>15.0</ele>
        <time>2018-06-10T07:16:31.022Z</time>
      </trkpt>
      <trkpt lat="38.9500825" lon="-0.14203333">
        <ele>15.0</ele>
        <time>2018-06-10T07:16:32.022Z</time>
      </trkpt>
      <trkpt lat="38.9501405" lon="-0.1420945">
        <ele>15.0</ele>
        <time>2018-06-10T07:16:33.022Z</time>
      </trkpt>
      <trkpt lat="38.950197" lon="-0.142158">
        <ele>15.0</ele>
        <time>2018-06-10T07:16:34.022Z</time>
      </trkpt>
      <trkpt lat="38.95025317" lon="-0.14222117">
        <ele>15.0</ele>
        <time>2018-06-10T07:16:35.022Z</time>
      </trkpt>
      <trkpt lat="38.95030933" lon="-0.14228367">
        <ele>15.0</ele>
        <time>2018-06-10T07:16:36.022Z</time>
      </trkpt>
      <trkpt lat="38.95036533" lon="-0.14234617">
        <ele>15.0</ele>
        <time>2018-06-10T07:16:37.022Z</time>
      </trkpt>
      <trkpt lat="38.95042217" lon="-0.14240733">
        <ele>15.0</ele>
        <time>2018-06-10T07:16:38.022Z</time>
      </trkpt>
      <trkpt lat="38.95047933" lon="-0.14246767">
        <ele>15.0</ele>
        <time>2018-06-10T07:16:39.022Z</time>
      </trkpt>
      <trkpt lat="38.950537" lon="-0.14252717">
        <ele>16.0</ele>
        <time>2018-06-10T07:16:40.022Z</time>
      </trkpt>
      <trkpt lat="38.95059433" lon="-0.14258667">
        <ele>15.0</ele>
        <time>2018-06-10T07:16:41.022Z</time>
      </trkpt>
      <trkpt lat="38.95065067" lon="-0.142647">
        <ele>16.0</ele>
        <time>2018-06-10T07:16:42.022Z</time>
      </trkpt>
      <trkpt lat="38.95070583" lon="-0.142708">
        <ele>16.0</ele>
        <time>2018-06-10T07:16:43.022Z</time>
      </trkpt>
      <trkpt lat="38.95076117" lon="-0.14276883">
        <ele>16.0</ele>
        <time>2018-06-10T07:16:44.022Z</time>
      </trkpt>
      <trkpt lat="38.95081667" lon="-0.1428295">
        <ele>16.0</ele>
        <time>2018-06-10T07:16:45.022Z</time>
      </trkpt>
      <trkpt lat="38.95087233" lon="-0.14288983">
        <ele>16.0</ele>
        <time>2018-06-10T07:16:46.022Z</time>
      </trkpt>
      <trkpt lat="38.95092817" lon="-0.14295033">
        <ele>16.0</ele>
        <time>2018-06-10T07:16:47.022Z</time>
      </trkpt>
      <trkpt lat="38.95098433" lon="-0.1430115">
        <ele>16.0</ele>
        <time>2018-06-10T07:16:48.022Z</time>
      </trkpt>
      <trkpt lat="38.95104033" lon="-0.14307233">
        <ele>16.0</ele>
        <time>2018-06-10T07:16:49.022Z</time>
      </trkpt>
      <trkpt lat="38.9510965" lon="-0.143133">
        <ele>16.0</ele>
        <time>2018-06-10T07:16:50.022Z</time>
      </trkpt>
      <trkpt lat="38.95115283" lon="-0.14319283">
        <ele>16.0</ele>
        <time>2018-06-10T07:16:51.022Z</time>
      </trkpt>
      <trkpt lat="38.95120967" lon="-0.1432515">
        <ele>16.0</ele>
        <time>2018-06-10T07:16:52.022Z</time>
      </trkpt>
      <trkpt lat="38.95126883" lon="-0.1433055">
        <ele>16.0</ele>
        <time>2018-06-10T07:16:53.022Z</time>
      </trkpt>
      <trkpt lat="38.95133117" lon="-0.143352">
        <ele>16.0</ele>
        <time>2018-06-10T07:16:54.022Z</time>
      </trkpt>
      <trkpt lat="38.95139783" lon="-0.14338783">
        <ele>16.0</ele>
        <time>2018-06-10T07:16:55.022Z</time>
      </trkpt>
      <trkpt lat="38.9514665" lon="-0.14341533">
        <ele>16.0</ele>
        <time>2018-06-10T07:16:56.022Z</time>
      </trkpt>
      <trkpt lat="38.9515345" lon="-0.143444">
        <ele>16.0</ele>
        <time>2018-06-10T07:16:57.022Z</time>
      </trkpt>
      <trkpt lat="38.951596" lon="-0.143485">
        <ele>15.0</ele>
        <time>2018-06-10T07:16:58.022Z</time>
      </trkpt>
      <trkpt lat="38.95164867" lon="-0.14354567">
        <ele>16.0</ele>
        <time>2018-06-10T07:16:59.022Z</time>
      </trkpt>
      <trkpt lat="38.9516945" lon="-0.14361633">
        <ele>16.0</ele>
        <time>2018-06-10T07:17:00.022Z</time>
      </trkpt>
      <trkpt lat="38.951738" lon="-0.143692">
        <ele>15.0</ele>
        <time>2018-06-10T07:17:01.022Z</time>
      </trkpt>
      <trkpt lat="38.95178517" lon="-0.14376333">
        <ele>15.0</ele>
        <time>2018-06-10T07:17:02.022Z</time>
      </trkpt>
      <trkpt lat="38.95183667" lon="-0.14383283">
        <ele>15.0</ele>
        <time>2018-06-10T07:17:03.022Z</time>
      </trkpt>
      <trkpt lat="38.95189333" lon="-0.14389817">
        <ele>15.0</ele>
        <time>2018-06-10T07:17:04.022Z</time>
      </trkpt>
      <trkpt lat="38.951953" lon="-0.14396217">
        <ele>14.0</ele>
        <time>2018-06-10T07:17:05.022Z</time>
      </trkpt>
      <trkpt lat="38.95201433" lon="-0.144027">
        <ele>14.0</ele>
        <time>2018-06-10T07:17:06.022Z</time>
      </trkpt>
      <trkpt lat="38.95207733" lon="-0.14409167">
        <ele>14.0</ele>
        <time>2018-06-10T07:17:07.022Z</time>
      </trkpt>
      <trkpt lat="38.95214117" lon="-0.14415767">
        <ele>14.0</ele>
        <time>2018-06-10T07:17:08.022Z</time>
      </trkpt>
      <trkpt lat="38.95220617" lon="-0.1442235">
        <ele>14.0</ele>
        <time>2018-06-10T07:17:09.022Z</time>
      </trkpt>
      <trkpt lat="38.9522725" lon="-0.14429083">
        <ele>14.0</ele>
        <time>2018-06-10T07:17:10.022Z</time>
      </trkpt>
      <trkpt lat="38.95234067" lon="-0.14435833">
        <ele>13.0</ele>
        <time>2018-06-10T07:17:11.022Z</time>
      </trkpt>
      <trkpt lat="38.95241033" lon="-0.144426">
        <ele>13.0</ele>
        <time>2018-06-10T07:17:12.022Z</time>
      </trkpt>
      <trkpt lat="38.95248183" lon="-0.14449283">
        <ele>13.0</ele>
        <time>2018-06-10T07:17:13.022Z</time>
      </trkpt>
      <trkpt lat="38.95255517" lon="-0.14455867">
        <ele>13.0</ele>
        <time>2018-06-10T07:17:14.022Z</time>
      </trkpt>
      <trkpt lat="38.95263" lon="-0.14462217">
        <ele>13.0</ele>
        <time>2018-06-10T07:17:15.022Z</time>
      </trkpt>
      <trkpt lat="38.95270633" lon="-0.14468233">
        <ele>13.0</ele>
        <time>2018-06-10T07:17:16.022Z</time>
      </trkpt>
      <trkpt lat="38.95278383" lon="-0.14473817">
        <ele>13.0</ele>
        <time>2018-06-10T07:17:17.022Z</time>
      </trkpt>
      <trkpt lat="38.95286283" lon="-0.14478883">
        <ele>13.0</ele>
        <time>2018-06-10T07:17:18.022Z</time>
      </trkpt>
      <trkpt lat="38.9529435" lon="-0.14483383">
        <ele>13.0</ele>
        <time>2018-06-10T07:17:19.022Z</time>
      </trkpt>
      <trkpt lat="38.95302517" lon="-0.14487383">
        <ele>13.0</ele>
        <time>2018-06-10T07:17:20.022Z</time>
      </trkpt>
      <trkpt lat="38.9531075" lon="-0.14490867">
        <ele>13.0</ele>
        <time>2018-06-10T07:17:21.022Z</time>
      </trkpt>
      <trkpt lat="38.95319" lon="-0.14493833">
        <ele>13.0</ele>
        <time>2018-06-10T07:17:22.022Z</time>
      </trkpt>
      <trkpt lat="38.95327333" lon="-0.1449615">
        <ele>13.0</ele>
        <time>2018-06-10T07:17:23.022Z</time>
      </trkpt>
      <trkpt lat="38.95335683" lon="-0.14497817">
        <ele>13.0</ele>
        <time>2018-06-10T07:17:24.022Z</time>
      </trkpt>
      <trkpt lat="38.9534405" lon="-0.14498917">
        <ele>13.0</ele>
        <time>2018-06-10T07:17:25.022Z</time>
      </trkpt>
      <trkpt lat="38.95352383" lon="-0.144996">
        <ele>13.0</ele>
        <time>2018-06-10T07:17:26.022Z</time>
      </trkpt>
      <trkpt lat="38.95360633" lon="-0.14499917">
        <ele>13.0</ele>
        <time>2018-06-10T07:17:27.022Z</time>
      </trkpt>
      <trkpt lat="38.9536885" lon="-0.14499733">
        <ele>13.0</ele>
        <time>2018-06-10T07:17:28.022Z</time>
      </trkpt>
      <trkpt lat="38.95377" lon="-0.14499067">
        <ele>13.0</ele>
        <time>2018-06-10T07:17:29.022Z</time>
      </trkpt>
      <trkpt lat="38.953852" lon="-0.14498">
        <ele>13.0</ele>
        <time>2018-06-10T07:17:30.022Z</time>
      </trkpt>
      <trkpt lat="38.95393383" lon="-0.14496733">
        <ele>13.0</ele>
        <time>2018-06-10T07:17:31.022Z</time>
      </trkpt>
      <trkpt lat="38.95401583" lon="-0.1449525">
        <ele>13.0</ele>
        <time>2018-06-10T07:17:32.022Z</time>
      </trkpt>
      <trkpt lat="38.95409767" lon="-0.14493633">
        <ele>13.0</ele>
        <time>2018-06-10T07:17:33.022Z</time>
      </trkpt>
      <trkpt lat="38.9541795" lon="-0.144919">
        <ele>13.0</ele>
        <time>2018-06-10T07:17:34.022Z</time>
      </trkpt>
      <trkpt lat="38.95426117" lon="-0.14490133">
        <ele>13.0</ele>
        <time>2018-06-10T07:17:35.022Z</time>
      </trkpt>
      <trkpt lat="38.95434233" lon="-0.144884">
        <ele>13.0</ele>
        <time>2018-06-10T07:17:36.022Z</time>
      </trkpt>
      <trkpt lat="38.95442283" lon="-0.1448685">
        <ele>13.0</ele>
        <time>2018-06-10T07:17:37.022Z</time>
      </trkpt>
      <trkpt lat="38.954503" lon="-0.14485433">
        <ele>14.0</ele>
        <time>2018-06-10T07:17:38.022Z</time>
      </trkpt>
      <trkpt lat="38.95458333" lon="-0.14484183">
        <ele>14.0</ele>
        <time>2018-06-10T07:17:39.022Z</time>
      </trkpt>
      <trkpt lat="38.95466367" lon="-0.1448315">
        <ele>13.0</ele>
        <time>2018-06-10T07:17:40.022Z</time>
      </trkpt>
      <trkpt lat="38.954744" lon="-0.14482417">
        <ele>13.0</ele>
        <time>2018-06-10T07:17:41.022Z</time>
      </trkpt>
      <trkpt lat="38.9548245" lon="-0.1448215">
        <ele>13.0</ele>
        <time>2018-06-10T07:17:42.022Z</time>
      </trkpt>
      <trkpt lat="38.954905" lon="-0.14482483">
        <ele>13.0</ele>
        <time>2018-06-10T07:17:43.022Z</time>
      </trkpt>
      <trkpt lat="38.95498567" lon="-0.1448335">
        <ele>13.0</ele>
        <time>2018-06-10T07:17:44.022Z</time>
      </trkpt>
      <trkpt lat="38.9550655" lon="-0.1448465">
        <ele>13.0</ele>
        <time>2018-06-10T07:17:45.022Z</time>
      </trkpt>
      <trkpt lat="38.95514417" lon="-0.14486283">
        <ele>13.0</ele>
        <time>2018-06-10T07:17:46.022Z</time>
      </trkpt>
      <trkpt lat="38.95522083" lon="-0.144883">
        <ele>13.0</ele>
        <time>2018-06-10T07:17:47.022Z</time>
      </trkpt>
      <trkpt lat="38.95529467" lon="-0.144908">
        <ele>13.0</ele>
        <time>2018-06-10T07:17:48.022Z</time>
      </trkpt>
      <trkpt lat="38.95536617" lon="-0.14493583">
        <ele>13.0</ele>
        <time>2018-06-10T07:17:49.022Z</time>
      </trkpt>
      <trkpt lat="38.9554365" lon="-0.1449635">
        <ele>13.0</ele>
        <time>2018-06-10T07:17:50.022Z</time>
      </trkpt>
      <trkpt lat="38.9555075" lon="-0.1449855">
        <ele>13.0</ele>
        <time>2018-06-10T07:17:51.022Z</time>
      </trkpt>
      <trkpt lat="38.95558033" lon="-0.14500133">
        <ele>13.0</ele>
        <time>2018-06-10T07:17:52.022Z</time>
      </trkpt>
      <trkpt lat="38.95565583" lon="-0.1450095">
        <ele>13.0</ele>
        <time>2018-06-10T07:17:53.022Z</time>
      </trkpt>
      <trkpt lat="38.9557335" lon="-0.1450145">
        <ele>13.0</ele>
        <time>2018-06-10T07:17:54.022Z</time>
      </trkpt>
      <trkpt lat="38.95581183" lon="-0.1450225">
        <ele>13.0</ele>
        <time>2018-06-10T07:17:55.022Z</time>
      </trkpt>
      <trkpt lat="38.95588733" lon="-0.14504183">
        <ele>13.0</ele>
        <time>2018-06-10T07:17:56.022Z</time>
      </trkpt>
      <trkpt lat="38.9559565" lon="-0.14508017">
        <ele>12.0</ele>
        <time>2018-06-10T07:17:57.022Z</time>
      </trkpt>
      <trkpt lat="38.95600983" lon="-0.14514317">
        <ele>13.0</ele>
        <time>2018-06-10T07:17:58.022Z</time>
      </trkpt>
      <trkpt lat="38.95604617" lon="-0.14522733">
        <ele>13.0</ele>
        <time>2018-06-10T07:17:59.022Z</time>
      </trkpt>
      <trkpt lat="38.95606967" lon="-0.14532233">
        <ele>13.0</ele>
        <time>2018-06-10T07:18:00.022Z</time>
      </trkpt>
      <trkpt lat="38.9560925" lon="-0.14541617">
        <ele>13.0</ele>
        <time>2018-06-10T07:18:01.022Z</time>
      </trkpt>
      <trkpt lat="38.95612067" lon="-0.145504">
        <ele>13.0</ele>
        <time>2018-06-10T07:18:02.022Z</time>
      </trkpt>
      <trkpt lat="38.956154" lon="-0.1455885">
        <ele>13.0</ele>
        <time>2018-06-10T07:18:03.022Z</time>
      </trkpt>
      <trkpt lat="38.956192" lon="-0.14566967">
        <ele>13.0</ele>
        <time>2018-06-10T07:18:04.022Z</time>
      </trkpt>
      <trkpt lat="38.95623417" lon="-0.145749">
        <ele>13.0</ele>
        <time>2018-06-10T07:18:05.022Z</time>
      </trkpt>
      <trkpt lat="38.95628483" lon="-0.14582567">
        <ele>13.0</ele>
        <time>2018-06-10T07:18:06.022Z</time>
      </trkpt>
      <trkpt lat="38.95634" lon="-0.145898">
        <ele>14.0</ele>
        <time>2018-06-10T07:18:07.022Z</time>
      </trkpt>
      <trkpt lat="38.95639733" lon="-0.14596717">
        <ele>14.0</ele>
        <time>2018-06-10T07:18:08.022Z</time>
      </trkpt>
      <trkpt lat="38.95645083" lon="-0.14603417">
        <ele>14.0</ele>
        <time>2018-06-10T07:18:09.022Z</time>
      </trkpt>
      <trkpt lat="38.95650317" lon="-0.14610083">
        <ele>14.0</ele>
        <time>2018-06-10T07:18:10.022Z</time>
      </trkpt>
      <trkpt lat="38.95655567" lon="-0.14616783">
        <ele>14.0</ele>
        <time>2018-06-10T07:18:11.022Z</time>
      </trkpt>
      <trkpt lat="38.95660867" lon="-0.14623517">
        <ele>14.0</ele>
        <time>2018-06-10T07:18:12.022Z</time>
      </trkpt>
      <trkpt lat="38.95666167" lon="-0.14630317">
        <ele>14.0</ele>
        <time>2018-06-10T07:18:13.022Z</time>
      </trkpt>
      <trkpt lat="38.9567145" lon="-0.146371">
        <ele>14.0</ele>
        <time>2018-06-10T07:18:14.022Z</time>
      </trkpt>
      <trkpt lat="38.95676733" lon="-0.146438">
        <ele>14.0</ele>
        <time>2018-06-10T07:18:15.022Z</time>
      </trkpt>
      <trkpt lat="38.95682033" lon="-0.146505">
        <ele>14.0</ele>
        <time>2018-06-10T07:18:16.022Z</time>
      </trkpt>
      <trkpt lat="38.95687417" lon="-0.14657233">
        <ele>14.0</ele>
        <time>2018-06-10T07:18:17.022Z</time>
      </trkpt>
      <trkpt lat="38.95692883" lon="-0.14664">
        <ele>14.0</ele>
        <time>2018-06-10T07:18:18.022Z</time>
      </trkpt>
      <trkpt lat="38.95698467" lon="-0.146708">
        <ele>14.0</ele>
        <time>2018-06-10T07:18:19.022Z</time>
      </trkpt>
      <trkpt lat="38.9570405" lon="-0.146777">
        <ele>14.0</ele>
        <time>2018-06-10T07:18:20.022Z</time>
      </trkpt>
      <trkpt lat="38.95709717" lon="-0.1468465">
        <ele>14.0</ele>
        <time>2018-06-10T07:18:21.022Z</time>
      </trkpt>
      <trkpt lat="38.95715417" lon="-0.14691633">
        <ele>14.0</ele>
        <time>2018-06-10T07:18:22.022Z</time>
      </trkpt>
      <trkpt lat="38.95721233" lon="-0.14698617">
        <ele>14.0</ele>
        <time>2018-06-10T07:18:23.022Z</time>
      </trkpt>
      <trkpt lat="38.9572715" lon="-0.147055">
        <ele>14.0</ele>
        <time>2018-06-10T07:18:24.022Z</time>
      </trkpt>
      <trkpt lat="38.95733183" lon="-0.1471225">
        <ele>14.0</ele>
        <time>2018-06-10T07:18:25.022Z</time>
      </trkpt>
      <trkpt lat="38.9573935" lon="-0.14718867">
        <ele>14.0</ele>
        <time>2018-06-10T07:18:26.022Z</time>
      </trkpt>
      <trkpt lat="38.95745717" lon="-0.14725317">
        <ele>14.0</ele>
        <time>2018-06-10T07:18:27.022Z</time>
      </trkpt>
      <trkpt lat="38.95752283" lon="-0.14731533">
        <ele>14.0</ele>
        <time>2018-06-10T07:18:28.022Z</time>
      </trkpt>
      <trkpt lat="38.95759017" lon="-0.147375">
        <ele>14.0</ele>
        <time>2018-06-10T07:18:29.022Z</time>
      </trkpt>
      <trkpt lat="38.95765933" lon="-0.1474315">
        <ele>13.0</ele>
        <time>2018-06-10T07:18:30.022Z</time>
      </trkpt>
      <trkpt lat="38.95773017" lon="-0.14748483">
        <ele>13.0</ele>
        <time>2018-06-10T07:18:31.022Z</time>
      </trkpt>
      <trkpt lat="38.95780267" lon="-0.1475355">
        <ele>13.0</ele>
        <time>2018-06-10T07:18:32.022Z</time>
      </trkpt>
      <trkpt lat="38.95787667" lon="-0.14758383">
        <ele>13.0</ele>
        <time>2018-06-10T07:18:33.022Z</time>
      </trkpt>
      <trkpt lat="38.95795117" lon="-0.1476305">
        <ele>13.0</ele>
        <time>2018-06-10T07:18:34.022Z</time>
      </trkpt>
      <trkpt lat="38.958026" lon="-0.1476755">
        <ele>13.0</ele>
        <time>2018-06-10T07:18:35.022Z</time>
      </trkpt>
      <trkpt lat="38.958102" lon="-0.14771933">
        <ele>13.0</ele>
        <time>2018-06-10T07:18:36.022Z</time>
      </trkpt>
      <trkpt lat="38.95817967" lon="-0.14776167">
        <ele>13.0</ele>
        <time>2018-06-10T07:18:37.022Z</time>
      </trkpt>
      <trkpt lat="38.95825883" lon="-0.14780267">
        <ele>13.0</ele>
        <time>2018-06-10T07:18:38.022Z</time>
      </trkpt>
      <trkpt lat="38.9583385" lon="-0.14784233">
        <ele>13.0</ele>
        <time>2018-06-10T07:18:39.022Z</time>
      </trkpt>
      <trkpt lat="38.95841817" lon="-0.1478815">
        <ele>13.0</ele>
        <time>2018-06-10T07:18:40.022Z</time>
      </trkpt>
      <trkpt lat="38.95849783" lon="-0.147921">
        <ele>13.0</ele>
        <time>2018-06-10T07:18:41.022Z</time>
      </trkpt>
      <trkpt lat="38.9585775" lon="-0.14796083">
        <ele>13.0</ele>
        <time>2018-06-10T07:18:42.022Z</time>
      </trkpt>
      <trkpt lat="38.9586575" lon="-0.14800083">
        <ele>13.0</ele>
        <time>2018-06-10T07:18:43.022Z</time>
      </trkpt>
      <trkpt lat="38.9587375" lon="-0.14804017">
        <ele>13.0</ele>
        <time>2018-06-10T07:18:44.022Z</time>
      </trkpt>
      <trkpt lat="38.958817" lon="-0.1480795">
        <ele>12.0</ele>
        <time>2018-06-10T07:18:45.022Z</time>
      </trkpt>
      <trkpt lat="38.958896" lon="-0.14811733">
        <ele>12.0</ele>
        <time>2018-06-10T07:18:46.022Z</time>
      </trkpt>
      <trkpt lat="38.95897483" lon="-0.14815483">
        <ele>12.0</ele>
        <time>2018-06-10T07:18:47.022Z</time>
      </trkpt>
      <trkpt lat="38.95905367" lon="-0.14819167">
        <ele>12.0</ele>
        <time>2018-06-10T07:18:48.022Z</time>
      </trkpt>
      <trkpt lat="38.959132" lon="-0.14823">
        <ele>12.0</ele>
        <time>2018-06-10T07:18:49.022Z</time>
      </trkpt>
      <trkpt lat="38.95921" lon="-0.14826867">
        <ele>12.0</ele>
        <time>2018-06-10T07:18:50.022Z</time>
      </trkpt>
      <trkpt lat="38.95928767" lon="-0.1483075">
        <ele>12.0</ele>
        <time>2018-06-10T07:18:51.022Z</time>
      </trkpt>
      <trkpt lat="38.95936533" lon="-0.148346">
        <ele>12.0</ele>
        <time>2018-06-10T07:18:52.022Z</time>
      </trkpt>
      <trkpt lat="38.95944367" lon="-0.14838383">
        <ele>12.0</ele>
        <time>2018-06-10T07:18:53.022Z</time>
      </trkpt>
      <trkpt lat="38.95952183" lon="-0.1484215">
        <ele>11.0</ele>
        <time>2018-06-10T07:18:54.022Z</time>
      </trkpt>
      <trkpt lat="38.95959983" lon="-0.14845967">
        <ele>11.0</ele>
        <time>2018-06-10T07:18:55.022Z</time>
      </trkpt>
      <trkpt lat="38.95967633" lon="-0.1485">
        <ele>11.0</ele>
        <time>2018-06-10T07:18:56.022Z</time>
      </trkpt>
      <trkpt lat="38.95975133" lon="-0.148543">
        <ele>12.0</ele>
        <time>2018-06-10T07:18:57.022Z</time>
      </trkpt>
      <trkpt lat="38.95982533" lon="-0.1485885">
        <ele>12.0</ele>
        <time>2018-06-10T07:18:58.022Z</time>
      </trkpt>
      <trkpt lat="38.959899" lon="-0.148635">
        <ele>12.0</ele>
        <time>2018-06-10T07:18:59.022Z</time>
      </trkpt>
      <trkpt lat="38.95997217" lon="-0.1486825">
        <ele>12.0</ele>
        <time>2018-06-10T07:19:00.022Z</time>
      </trkpt>
      <trkpt lat="38.96004533" lon="-0.14872983">
        <ele>12.0</ele>
        <time>2018-06-10T07:19:01.022Z</time>
      </trkpt>
      <trkpt lat="38.96011833" lon="-0.148778">
        <ele>12.0</ele>
        <time>2018-06-10T07:19:02.022Z</time>
      </trkpt>
      <trkpt lat="38.9601915" lon="-0.1488255">
        <ele>12.0</ele>
        <time>2018-06-10T07:19:03.022Z</time>
      </trkpt>
      <trkpt lat="38.96026433" lon="-0.14887283">
        <ele>12.0</ele>
        <time>2018-06-10T07:19:04.022Z</time>
      </trkpt>
      <trkpt lat="38.960337" lon="-0.14892017">
        <ele>12.0</ele>
        <time>2018-06-10T07:19:05.022Z</time>
      </trkpt>
      <trkpt lat="38.9604085" lon="-0.14896783">
        <ele>12.0</ele>
        <time>2018-06-10T07:19:06.022Z</time>
      </trkpt>
      <trkpt lat="38.96047817" lon="-0.149017">
        <ele>12.0</ele>
        <time>2018-06-10T07:19:07.022Z</time>
      </trkpt>
      <trkpt lat="38.960546" lon="-0.14906733">
        <ele>13.0</ele>
        <time>2018-06-10T07:19:08.022Z</time>
      </trkpt>
      <trkpt lat="38.96061217" lon="-0.14911883">
        <ele>13.0</ele>
        <time>2018-06-10T07:19:09.022Z</time>
      </trkpt>
      <trkpt lat="38.96067733" lon="-0.1491705">
        <ele>13.0</ele>
        <time>2018-06-10T07:19:10.022Z</time>
      </trkpt>
      <trkpt lat="38.9607415" lon="-0.1492225">
        <ele>13.0</ele>
        <time>2018-06-10T07:19:11.022Z</time>
      </trkpt>
      <trkpt lat="38.96080433" lon="-0.14927467">
        <ele>13.0</ele>
        <time>2018-06-10T07:19:12.022Z</time>
      </trkpt>
      <trkpt lat="38.96086683" lon="-0.149327">
        <ele>13.0</ele>
        <time>2018-06-10T07:19:13.022Z</time>
      </trkpt>
      <trkpt lat="38.96092917" lon="-0.149379">
        <ele>13.0</ele>
        <time>2018-06-10T07:19:14.022Z</time>
      </trkpt>
      <trkpt lat="38.960992" lon="-0.14943117">
        <ele>13.0</ele>
        <time>2018-06-10T07:19:15.022Z</time>
      </trkpt>
      <trkpt lat="38.96105467" lon="-0.14948367">
        <ele>13.0</ele>
        <time>2018-06-10T07:19:16.022Z</time>
      </trkpt>
      <trkpt lat="38.96111833" lon="-0.14953733">
        <ele>13.0</ele>
        <time>2018-06-10T07:19:17.022Z</time>
      </trkpt>
      <trkpt lat="38.96118317" lon="-0.14959117">
        <ele>13.0</ele>
        <time>2018-06-10T07:19:18.022Z</time>
      </trkpt>
      <trkpt lat="38.961249" lon="-0.14964483">
        <ele>13.0</ele>
        <time>2018-06-10T07:19:19.022Z</time>
      </trkpt>
      <trkpt lat="38.9613145" lon="-0.149698">
        <ele>13.0</ele>
        <time>2018-06-10T07:19:20.022Z</time>
      </trkpt>
      <trkpt lat="38.96137883" lon="-0.1497505">
        <ele>13.0</ele>
        <time>2018-06-10T07:19:21.022Z</time>
      </trkpt>
      <trkpt lat="38.96144233" lon="-0.14980283">
        <ele>13.0</ele>
        <time>2018-06-10T07:19:22.022Z</time>
      </trkpt>
      <trkpt lat="38.96150567" lon="-0.14985433">
        <ele>13.0</ele>
        <time>2018-06-10T07:19:23.022Z</time>
      </trkpt>
      <trkpt lat="38.9615695" lon="-0.14990533">
        <ele>13.0</ele>
        <time>2018-06-10T07:19:24.022Z</time>
      </trkpt>
      <trkpt lat="38.96163433" lon="-0.14995517">
        <ele>13.0</ele>
        <time>2018-06-10T07:19:25.022Z</time>
      </trkpt>
      <trkpt lat="38.96169967" lon="-0.15000467">
        <ele>13.0</ele>
        <time>2018-06-10T07:19:26.022Z</time>
      </trkpt>
      <trkpt lat="38.9617655" lon="-0.15005417">
        <ele>13.0</ele>
        <time>2018-06-10T07:19:27.022Z</time>
      </trkpt>
      <trkpt lat="38.96183217" lon="-0.15010417">
        <ele>13.0</ele>
        <time>2018-06-10T07:19:28.022Z</time>
      </trkpt>
      <trkpt lat="38.96190067" lon="-0.15015317">
        <ele>13.0</ele>
        <time>2018-06-10T07:19:29.022Z</time>
      </trkpt>
      <trkpt lat="38.96197167" lon="-0.15019767">
        <ele>13.0</ele>
        <time>2018-06-10T07:19:30.022Z</time>
      </trkpt>
      <trkpt lat="38.962045" lon="-0.150235">
        <ele>13.0</ele>
        <time>2018-06-10T07:19:31.022Z</time>
      </trkpt>
      <trkpt lat="38.96212017" lon="-0.1502635">
        <ele>12.0</ele>
        <time>2018-06-10T07:19:32.022Z</time>
      </trkpt>
      <trkpt lat="38.96219683" lon="-0.15028367">
        <ele>12.0</ele>
        <time>2018-06-10T07:19:33.022Z</time>
      </trkpt>
      <trkpt lat="38.962274" lon="-0.15029933">
        <ele>12.0</ele>
        <time>2018-06-10T07:19:34.022Z</time>
      </trkpt>
      <trkpt lat="38.96235133" lon="-0.15031783">
        <ele>11.0</ele>
        <time>2018-06-10T07:19:35.022Z</time>
      </trkpt>
      <trkpt lat="38.96242717" lon="-0.15034883">
        <ele>11.0</ele>
        <time>2018-06-10T07:19:36.022Z</time>
      </trkpt>
      <trkpt lat="38.96249817" lon="-0.15039983">
        <ele>11.0</ele>
        <time>2018-06-10T07:19:37.022Z</time>
      </trkpt>
      <trkpt lat="38.962562" lon="-0.15046683">
        <ele>11.0</ele>
        <time>2018-06-10T07:19:38.022Z</time>
      </trkpt>
      <trkpt lat="38.962622" lon="-0.15054233">
        <ele>12.0</ele>
        <time>2018-06-10T07:19:39.022Z</time>
      </trkpt>
      <trkpt lat="38.962682" lon="-0.15061567">
        <ele>11.0</ele>
        <time>2018-06-10T07:19:40.022Z</time>
      </trkpt>
      <trkpt lat="38.96274567" lon="-0.15068433">
        <ele>12.0</ele>
        <time>2018-06-10T07:19:41.022Z</time>
      </trkpt>
      <trkpt lat="38.96281183" lon="-0.15074767">
        <ele>12.0</ele>
        <time>2018-06-10T07:19:42.022Z</time>
      </trkpt>
      <trkpt lat="38.9628805" lon="-0.15080717">
        <ele>12.0</ele>
        <time>2018-06-10T07:19:43.022Z</time>
      </trkpt>
      <trkpt lat="38.96295067" lon="-0.15086417">
        <ele>12.0</ele>
        <time>2018-06-10T07:19:44.022Z</time>
      </trkpt>
      <trkpt lat="38.9630205" lon="-0.15092117">
        <ele>12.0</ele>
        <time>2018-06-10T07:19:45.022Z</time>
      </trkpt>
      <trkpt lat="38.96309067" lon="-0.15097717">
        <ele>12.0</ele>
        <time>2018-06-10T07:19:46.022Z</time>
      </trkpt>
      <trkpt lat="38.963161" lon="-0.15103233">
        <ele>12.0</ele>
        <time>2018-06-10T07:19:47.022Z</time>
      </trkpt>
      <trkpt lat="38.96323133" lon="-0.15108733">
        <ele>12.0</ele>
        <time>2018-06-10T07:19:48.022Z</time>
      </trkpt>
      <trkpt lat="38.96330033" lon="-0.151144">
        <ele>12.0</ele>
        <time>2018-06-10T07:19:49.022Z</time>
      </trkpt>
      <trkpt lat="38.96336867" lon="-0.15120133">
        <ele>11.0</ele>
        <time>2018-06-10T07:19:50.022Z</time>
      </trkpt>
      <trkpt lat="38.96343667" lon="-0.15125883">
        <ele>11.0</ele>
        <time>2018-06-10T07:19:51.022Z</time>
      </trkpt>
      <trkpt lat="38.96350483" lon="-0.151316">
        <ele>11.0</ele>
        <time>2018-06-10T07:19:52.022Z</time>
      </trkpt>
      <trkpt lat="38.963573" lon="-0.15137467">
        <ele>11.0</ele>
        <time>2018-06-10T07:19:53.022Z</time>
      </trkpt>
      <trkpt lat="38.96364133" lon="-0.15143533">
        <ele>11.0</ele>
        <time>2018-06-10T07:19:54.022Z</time>
      </trkpt>
      <trkpt lat="38.9637095" lon="-0.1514985">
        <ele>11.0</ele>
        <time>2018-06-10T07:19:55.022Z</time>
      </trkpt>
      <trkpt lat="38.96377817" lon="-0.15156367">
        <ele>11.0</ele>
        <time>2018-06-10T07:19:56.022Z</time>
      </trkpt>
      <trkpt lat="38.96384733" lon="-0.15162983">
        <ele>11.0</ele>
        <time>2018-06-10T07:19:57.022Z</time>
      </trkpt>
      <trkpt lat="38.963917" lon="-0.15169717">
        <ele>11.0</ele>
        <time>2018-06-10T07:19:58.022Z</time>
      </trkpt>
      <trkpt lat="38.96398683" lon="-0.15176533">
        <ele>10.0</ele>
        <time>2018-06-10T07:19:59.022Z</time>
      </trkpt>
      <trkpt lat="38.96405667" lon="-0.151835">
        <ele>10.0</ele>
        <time>2018-06-10T07:20:00.022Z</time>
      </trkpt>
      <trkpt lat="38.964127" lon="-0.15190583">
        <ele>10.0</ele>
        <time>2018-06-10T07:20:01.022Z</time>
      </trkpt>
      <trkpt lat="38.96419783" lon="-0.15197767">
        <ele>10.0</ele>
        <time>2018-06-10T07:20:02.022Z</time>
      </trkpt>
      <trkpt lat="38.96426933" lon="-0.15204983">
        <ele>10.0</ele>
        <time>2018-06-10T07:20:03.022Z</time>
      </trkpt>
      <trkpt lat="38.96434217" lon="-0.152122">
        <ele>10.0</ele>
        <time>2018-06-10T07:20:04.022Z</time>
      </trkpt>
      <trkpt lat="38.9644165" lon="-0.152193">
        <ele>9.0</ele>
        <time>2018-06-10T07:20:05.022Z</time>
      </trkpt>
      <trkpt lat="38.9644925" lon="-0.15226167">
        <ele>9.0</ele>
        <time>2018-06-10T07:20:06.022Z</time>
      </trkpt>
      <trkpt lat="38.9645695" lon="-0.152327">
        <ele>9.0</ele>
        <time>2018-06-10T07:20:07.022Z</time>
      </trkpt>
      <trkpt lat="38.96464783" lon="-0.15238883">
        <ele>9.0</ele>
        <time>2018-06-10T07:20:08.022Z</time>
      </trkpt>
      <trkpt lat="38.9647265" lon="-0.15244783">
        <ele>9.0</ele>
        <time>2018-06-10T07:20:09.022Z</time>
      </trkpt>
      <trkpt lat="38.96480533" lon="-0.15250417">
        <ele>9.0</ele>
        <time>2018-06-10T07:20:10.022Z</time>
      </trkpt>
      <trkpt lat="38.96488417" lon="-0.15255683">
        <ele>9.0</ele>
        <time>2018-06-10T07:20:11.022Z</time>
      </trkpt>
      <trkpt lat="38.96496317" lon="-0.15260383">
        <ele>9.0</ele>
        <time>2018-06-10T07:20:12.022Z</time>
      </trkpt>
      <trkpt lat="38.96504183" lon="-0.1526445">
        <ele>10.0</ele>
        <time>2018-06-10T07:20:13.022Z</time>
      </trkpt>
      <trkpt lat="38.9651195" lon="-0.15268">
        <ele>10.0</ele>
        <time>2018-06-10T07:20:14.022Z</time>
      </trkpt>
      <trkpt lat="38.96519567" lon="-0.15271167">
        <ele>10.0</ele>
        <time>2018-06-10T07:20:15.022Z</time>
      </trkpt>
      <trkpt lat="38.96527117" lon="-0.15273983">
        <ele>11.0</ele>
        <time>2018-06-10T07:20:16.022Z</time>
      </trkpt>
      <trkpt lat="38.9653465" lon="-0.1527655">
        <ele>11.0</ele>
        <time>2018-06-10T07:20:17.022Z</time>
      </trkpt>
      <trkpt lat="38.96542117" lon="-0.152789">
        <ele>11.0</ele>
        <time>2018-06-10T07:20:18.022Z</time>
      </trkpt>
      <trkpt lat="38.96549483" lon="-0.15281183">
        <ele>12.0</ele>
        <time>2018-06-10T07:20:19.022Z</time>
      </trkpt>
      <trkpt lat="38.9655675" lon="-0.1528335">
        <ele>12.0</ele>
        <time>2018-06-10T07:20:20.022Z</time>
      </trkpt>
      <trkpt lat="38.9656395" lon="-0.15285467">
        <ele>13.0</ele>
        <time>2018-06-10T07:20:21.022Z</time>
      </trkpt>
      <trkpt lat="38.96571033" lon="-0.15287567">
        <ele>13.0</ele>
        <time>2018-06-10T07:20:22.022Z</time>
      </trkpt>
      <trkpt lat="38.9657795" lon="-0.15289833">
        <ele>13.0</ele>
        <time>2018-06-10T07:20:23.022Z</time>
      </trkpt>
      <trkpt lat="38.96584783" lon="-0.15292333">
        <ele>13.0</ele>
        <time>2018-06-10T07:20:24.022Z</time>
      </trkpt>
      <trkpt lat="38.965916" lon="-0.152952">
        <ele>13.0</ele>
        <time>2018-06-10T07:20:25.022Z</time>
      </trkpt>
      <trkpt lat="38.965984" lon="-0.15298417">
        <ele>13.0</ele>
        <time>2018-06-10T07:20:26.022Z</time>
      </trkpt>
      <trkpt lat="38.966051" lon="-0.1530205">
        <ele>13.0</ele>
        <time>2018-06-10T07:20:27.022Z</time>
      </trkpt>
      <trkpt lat="38.96611633" lon="-0.15306117">
        <ele>13.0</ele>
        <time>2018-06-10T07:20:28.022Z</time>
      </trkpt>
      <trkpt lat="38.96618033" lon="-0.15310417">
        <ele>13.0</ele>
        <time>2018-06-10T07:20:29.022Z</time>
      </trkpt>
      <trkpt lat="38.966244" lon="-0.15314783">
        <ele>13.0</ele>
        <time>2018-06-10T07:20:30.022Z</time>
      </trkpt>
      <trkpt lat="38.96630817" lon="-0.1531905">
        <ele>13.0</ele>
        <time>2018-06-10T07:20:31.022Z</time>
      </trkpt>
      <trkpt lat="38.9663735" lon="-0.153232">
        <ele>13.0</ele>
        <time>2018-06-10T07:20:32.022Z</time>
      </trkpt>
      <trkpt lat="38.96644067" lon="-0.15326933">
        <ele>13.0</ele>
        <time>2018-06-10T07:20:33.022Z</time>
      </trkpt>
      <trkpt lat="38.96650983" lon="-0.15330017">
        <ele>13.0</ele>
        <time>2018-06-10T07:20:34.022Z</time>
      </trkpt>
      <trkpt lat="38.96657967" lon="-0.15332883">
        <ele>13.0</ele>
        <time>2018-06-10T07:20:35.022Z</time>
      </trkpt>
      <trkpt lat="38.96664583" lon="-0.15336417">
        <ele>12.0</ele>
        <time>2018-06-10T07:20:36.022Z</time>
      </trkpt>
      <trkpt lat="38.96670333" lon="-0.1534175">
        <ele>12.0</ele>
        <time>2018-06-10T07:20:37.022Z</time>
      </trkpt>
      <trkpt lat="38.96674683" lon="-0.15349033">
        <ele>12.0</ele>
        <time>2018-06-10T07:20:38.022Z</time>
      </trkpt>
      <trkpt lat="38.9667815" lon="-0.15357633">
        <ele>12.0</ele>
        <time>2018-06-10T07:20:39.022Z</time>
      </trkpt>
      <trkpt lat="38.96681567" lon="-0.15366367">
        <ele>12.0</ele>
        <time>2018-06-10T07:20:40.022Z</time>
      </trkpt>
      <trkpt lat="38.96685933" lon="-0.15374367">
        <ele>12.0</ele>
        <time>2018-06-10T07:20:41.022Z</time>
      </trkpt>
      <trkpt lat="38.96691083" lon="-0.15381617">
        <ele>12.0</ele>
        <time>2018-06-10T07:20:42.022Z</time>
      </trkpt>
      <trkpt lat="38.96696733" lon="-0.15388333">
        <ele>12.0</ele>
        <time>2018-06-10T07:20:43.022Z</time>
      </trkpt>
      <trkpt lat="38.96702517" lon="-0.15394883">
        <ele>12.0</ele>
        <time>2018-06-10T07:20:44.022Z</time>
      </trkpt>
      <trkpt lat="38.9670835" lon="-0.1540135">
        <ele>12.0</ele>
        <time>2018-06-10T07:20:45.022Z</time>
      </trkpt>
      <trkpt lat="38.96714167" lon="-0.1540775">
        <ele>12.0</ele>
        <time>2018-06-10T07:20:46.022Z</time>
      </trkpt>
      <trkpt lat="38.96720033" lon="-0.1541405">
        <ele>12.0</ele>
        <time>2018-06-10T07:20:47.022Z</time>
      </trkpt>
      <trkpt lat="38.967259" lon="-0.15420233">
        <ele>12.0</ele>
        <time>2018-06-10T07:20:48.022Z</time>
      </trkpt>
      <trkpt lat="38.967318" lon="-0.15426233">
        <ele>12.0</ele>
        <time>2018-06-10T07:20:49.022Z</time>
      </trkpt>
      <trkpt lat="38.96737833" lon="-0.154319">
        <ele>12.0</ele>
        <time>2018-06-10T07:20:50.022Z</time>
      </trkpt>
      <trkpt lat="38.96743967" lon="-0.15437217">
        <ele>12.0</ele>
        <time>2018-06-10T07:20:51.022Z</time>
      </trkpt>
      <trkpt lat="38.96750333" lon="-0.15442167">
        <ele>12.0</ele>
        <time>2018-06-10T07:20:52.022Z</time>
      </trkpt>
      <trkpt lat="38.96756767" lon="-0.15446967">
        <ele>12.0</ele>
        <time>2018-06-10T07:20:53.022Z</time>
      </trkpt>
      <trkpt lat="38.96763233" lon="-0.15451717">
        <ele>12.0</ele>
        <time>2018-06-10T07:20:54.022Z</time>
      </trkpt>
      <trkpt lat="38.96769683" lon="-0.15456567">
        <ele>12.0</ele>
        <time>2018-06-10T07:20:55.022Z</time>
      </trkpt>
      <trkpt lat="38.96776183" lon="-0.15461333">
        <ele>12.0</ele>
        <time>2018-06-10T07:20:56.022Z</time>
      </trkpt>
      <trkpt lat="38.967827" lon="-0.1546605">
        <ele>12.0</ele>
        <time>2018-06-10T07:20:57.022Z</time>
      </trkpt>
      <trkpt lat="38.96789283" lon="-0.15470833">
        <ele>12.0</ele>
        <time>2018-06-10T07:20:58.022Z</time>
      </trkpt>
      <trkpt lat="38.96795833" lon="-0.15475767">
        <ele>12.0</ele>
        <time>2018-06-10T07:20:59.022Z</time>
      </trkpt>
      <trkpt lat="38.96802333" lon="-0.154807">
        <ele>12.0</ele>
        <time>2018-06-10T07:21:00.022Z</time>
      </trkpt>
      <trkpt lat="38.96808733" lon="-0.15485517">
        <ele>12.0</ele>
        <time>2018-06-10T07:21:01.022Z</time>
      </trkpt>
      <trkpt lat="38.96815067" lon="-0.1549025">
        <ele>13.0</ele>
        <time>2018-06-10T07:21:02.022Z</time>
      </trkpt>
      <trkpt lat="38.96821417" lon="-0.15494967">
        <ele>13.0</ele>
        <time>2018-06-10T07:21:03.022Z</time>
      </trkpt>
      <trkpt lat="38.9682775" lon="-0.154997">
        <ele>13.0</ele>
        <time>2018-06-10T07:21:04.022Z</time>
      </trkpt>
      <trkpt lat="38.96834067" lon="-0.15504417">
        <ele>13.0</ele>
        <time>2018-06-10T07:21:05.022Z</time>
      </trkpt>
      <trkpt lat="38.968404" lon="-0.15509133">
        <ele>13.0</ele>
        <time>2018-06-10T07:21:06.022Z</time>
      </trkpt>
      <trkpt lat="38.96846817" lon="-0.15513883">
        <ele>13.0</ele>
        <time>2018-06-10T07:21:07.022Z</time>
      </trkpt>
      <trkpt lat="38.96853267" lon="-0.15518667">
        <ele>13.0</ele>
        <time>2018-06-10T07:21:08.022Z</time>
      </trkpt>
      <trkpt lat="38.968598" lon="-0.15523367">
        <ele>13.0</ele>
        <time>2018-06-10T07:21:09.022Z</time>
      </trkpt>
      <trkpt lat="38.96866333" lon="-0.15528167">
        <ele>13.0</ele>
        <time>2018-06-10T07:21:10.022Z</time>
      </trkpt>
      <trkpt lat="38.96872933" lon="-0.15533">
        <ele>13.0</ele>
        <time>2018-06-10T07:21:11.022Z</time>
      </trkpt>
      <trkpt lat="38.968795" lon="-0.15538167">
        <ele>13.0</ele>
        <time>2018-06-10T07:21:12.022Z</time>
      </trkpt>
      <trkpt lat="38.96886117" lon="-0.15543317">
        <ele>13.0</ele>
        <time>2018-06-10T07:21:13.022Z</time>
      </trkpt>
      <trkpt lat="38.96892767" lon="-0.155486">
        <ele>13.0</ele>
        <time>2018-06-10T07:21:14.022Z</time>
      </trkpt>
      <trkpt lat="38.968995" lon="-0.155538">
        <ele>13.0</ele>
        <time>2018-06-10T07:21:15.022Z</time>
      </trkpt>
      <trkpt lat="38.9690635" lon="-0.15559017">
        <ele>13.0</ele>
        <time>2018-06-10T07:21:16.022Z</time>
      </trkpt>
      <trkpt lat="38.96913283" lon="-0.15564217">
        <ele>12.0</ele>
        <time>2018-06-10T07:21:17.022Z</time>
      </trkpt>
      <trkpt lat="38.96920267" lon="-0.15569417">
        <ele>12.0</ele>
        <time>2018-06-10T07:21:18.022Z</time>
      </trkpt>
      <trkpt lat="38.96927233" lon="-0.15574633">
        <ele>12.0</ele>
        <time>2018-06-10T07:21:19.022Z</time>
      </trkpt>
      <trkpt lat="38.96934217" lon="-0.15579833">
        <ele>12.0</ele>
        <time>2018-06-10T07:21:20.022Z</time>
      </trkpt>
      <trkpt lat="38.96941183" lon="-0.15584967">
        <ele>12.0</ele>
        <time>2018-06-10T07:21:21.022Z</time>
      </trkpt>
      <trkpt lat="38.96948133" lon="-0.15590033">
        <ele>12.0</ele>
        <time>2018-06-10T07:21:22.022Z</time>
      </trkpt>
      <trkpt lat="38.9695505" lon="-0.15595">
        <ele>12.0</ele>
        <time>2018-06-10T07:21:23.022Z</time>
      </trkpt>
      <trkpt lat="38.96961933" lon="-0.1559995">
        <ele>12.0</ele>
        <time>2018-06-10T07:21:24.022Z</time>
      </trkpt>
      <trkpt lat="38.969688" lon="-0.15605017">
        <ele>12.0</ele>
        <time>2018-06-10T07:21:25.022Z</time>
      </trkpt>
      <trkpt lat="38.96975633" lon="-0.156101">
        <ele>12.0</ele>
        <time>2018-06-10T07:21:26.022Z</time>
      </trkpt>
      <trkpt lat="38.96982417" lon="-0.15615033">
        <ele>12.0</ele>
        <time>2018-06-10T07:21:27.022Z</time>
      </trkpt>
      <trkpt lat="38.96989017" lon="-0.15619483">
        <ele>12.0</ele>
        <time>2018-06-10T07:21:28.022Z</time>
      </trkpt>
      <trkpt lat="38.96995467" lon="-0.15623017">
        <ele>12.0</ele>
        <time>2018-06-10T07:21:29.022Z</time>
      </trkpt>
      <trkpt lat="38.97001833" lon="-0.15625267">
        <ele>12.0</ele>
        <time>2018-06-10T07:21:30.022Z</time>
      </trkpt>
      <trkpt lat="38.97008183" lon="-0.15626117">
        <ele>12.0</ele>
        <time>2018-06-10T07:21:31.022Z</time>
      </trkpt>
      <trkpt lat="38.9701445" lon="-0.156257">
        <ele>12.0</ele>
        <time>2018-06-10T07:21:32.022Z</time>
      </trkpt>
      <trkpt lat="38.97020583" lon="-0.15624283">
        <ele>12.0</ele>
        <time>2018-06-10T07:21:33.022Z</time>
      </trkpt>
      <trkpt lat="38.97026717" lon="-0.156227">
        <ele>11.0</ele>
        <time>2018-06-10T07:21:34.022Z</time>
      </trkpt>
      <trkpt lat="38.97032883" lon="-0.15622033">
        <ele>10.0</ele>
        <time>2018-06-10T07:21:35.022Z</time>
      </trkpt>
      <trkpt lat="38.97039017" lon="-0.15624017">
        <ele>10.0</ele>
        <time>2018-06-10T07:21:36.022Z</time>
      </trkpt>
      <trkpt lat="38.970445" lon="-0.15628433">
        <ele>10.0</ele>
        <time>2018-06-10T07:21:37.022Z</time>
      </trkpt>
      <trkpt lat="38.970485" lon="-0.1563535">
        <ele>11.0</ele>
        <time>2018-06-10T07:21:38.022Z</time>
      </trkpt>
      <trkpt lat="38.97051233" lon="-0.15643017">
        <ele>10.0</ele>
        <time>2018-06-10T07:21:39.022Z</time>
      </trkpt>
      <trkpt lat="38.97053317" lon="-0.156513">
        <ele>10.0</ele>
        <time>2018-06-10T07:21:40.022Z</time>
      </trkpt>
      <trkpt lat="38.970558" lon="-0.15659383">
        <ele>9.0</ele>
        <time>2018-06-10T07:21:41.022Z</time>
      </trkpt>
      <trkpt lat="38.97058817" lon="-0.15667283">
        <ele>9.0</ele>
        <time>2018-06-10T07:21:42.022Z</time>
      </trkpt>
      <trkpt lat="38.97062433" lon="-0.15674783">
        <ele>9.0</ele>
        <time>2018-06-10T07:21:43.022Z</time>
      </trkpt>
      <trkpt lat="38.97066517" lon="-0.1568195">
        <ele>9.0</ele>
        <time>2018-06-10T07:21:44.022Z</time>
      </trkpt>
      <trkpt lat="38.9707095" lon="-0.15688833">
        <ele>9.0</ele>
        <time>2018-06-10T07:21:45.022Z</time>
      </trkpt>
      <trkpt lat="38.97075767" lon="-0.15695233">
        <ele>10.0</ele>
        <time>2018-06-10T07:21:46.022Z</time>
      </trkpt>
      <trkpt lat="38.970809" lon="-0.15701183">
        <ele>10.0</ele>
        <time>2018-06-10T07:21:47.022Z</time>
      </trkpt>
      <trkpt lat="38.97086417" lon="-0.15706583">
        <ele>9.0</ele>
        <time>2018-06-10T07:21:48.022Z</time>
      </trkpt>
      <trkpt lat="38.9709205" lon="-0.15711883">
        <ele>10.0</ele>
        <time>2018-06-10T07:21:49.022Z</time>
      </trkpt>
      <trkpt lat="38.9709775" lon="-0.15717117">
        <ele>10.0</ele>
        <time>2018-06-10T07:21:50.022Z</time>
      </trkpt>
      <trkpt lat="38.97103467" lon="-0.1572245">
        <ele>10.0</ele>
        <time>2018-06-10T07:21:51.022Z</time>
      </trkpt>
      <trkpt lat="38.97109217" lon="-0.15727783">
        <ele>10.0</ele>
        <time>2018-06-10T07:21:52.022Z</time>
      </trkpt>
      <trkpt lat="38.97115" lon="-0.157331">
        <ele>10.0</ele>
        <time>2018-06-10T07:21:53.022Z</time>
      </trkpt>
      <trkpt lat="38.971208" lon="-0.15738433">
        <ele>10.0</ele>
        <time>2018-06-10T07:21:54.022Z</time>
      </trkpt>
      <trkpt lat="38.971266" lon="-0.15743683">
        <ele>10.0</ele>
        <time>2018-06-10T07:21:55.022Z</time>
      </trkpt>
      <trkpt lat="38.971324" lon="-0.15748817">
        <ele>10.0</ele>
        <time>2018-06-10T07:21:56.022Z</time>
      </trkpt>
      <trkpt lat="38.97138267" lon="-0.15753767">
        <ele>10.0</ele>
        <time>2018-06-10T07:21:57.022Z</time>
      </trkpt>
      <trkpt lat="38.97144267" lon="-0.157584">
        <ele>11.0</ele>
        <time>2018-06-10T07:21:58.022Z</time>
      </trkpt>
      <trkpt lat="38.9715035" lon="-0.15762633">
        <ele>11.0</ele>
        <time>2018-06-10T07:21:59.022Z</time>
      </trkpt>
      <trkpt lat="38.97156567" lon="-0.15766367">
        <ele>11.0</ele>
        <time>2018-06-10T07:22:00.022Z</time>
      </trkpt>
      <trkpt lat="38.97163" lon="-0.15769367">
        <ele>11.0</ele>
        <time>2018-06-10T07:22:01.022Z</time>
      </trkpt>
      <trkpt lat="38.97169667" lon="-0.15771617">
        <ele>11.0</ele>
        <time>2018-06-10T07:22:02.022Z</time>
      </trkpt>
      <trkpt lat="38.97176467" lon="-0.15773183">
        <ele>11.0</ele>
        <time>2018-06-10T07:22:03.022Z</time>
      </trkpt>
      <trkpt lat="38.97183267" lon="-0.15775067">
        <ele>11.0</ele>
        <time>2018-06-10T07:22:04.022Z</time>
      </trkpt>
      <trkpt lat="38.9718955" lon="-0.1577825">
        <ele>11.0</ele>
        <time>2018-06-10T07:22:05.022Z</time>
      </trkpt>
      <trkpt lat="38.97195067" lon="-0.15783533">
        <ele>11.0</ele>
        <time>2018-06-10T07:22:06.022Z</time>
      </trkpt>
      <trkpt lat="38.97199783" lon="-0.15790217">
        <ele>11.0</ele>
        <time>2018-06-10T07:22:07.022Z</time>
      </trkpt>
      <trkpt lat="38.97204583" lon="-0.1579715">
        <ele>11.0</ele>
        <time>2018-06-10T07:22:08.022Z</time>
      </trkpt>
      <trkpt lat="38.972098" lon="-0.1580345">
        <ele>11.0</ele>
        <time>2018-06-10T07:22:09.022Z</time>
      </trkpt>
      <trkpt lat="38.972156" lon="-0.15809017">
        <ele>11.0</ele>
        <time>2018-06-10T07:22:10.022Z</time>
      </trkpt>
      <trkpt lat="38.97221767" lon="-0.15813983">
        <ele>11.0</ele>
        <time>2018-06-10T07:22:11.022Z</time>
      </trkpt>
      <trkpt lat="38.972282" lon="-0.15818533">
        <ele>11.0</ele>
        <time>2018-06-10T07:22:12.022Z</time>
      </trkpt>
      <trkpt lat="38.97234817" lon="-0.15822733">
        <ele>11.0</ele>
        <time>2018-06-10T07:22:13.022Z</time>
      </trkpt>
      <trkpt lat="38.97241433" lon="-0.15826883">
        <ele>11.0</ele>
        <time>2018-06-10T07:22:14.022Z</time>
      </trkpt>
      <trkpt lat="38.9724805" lon="-0.15830933">
        <ele>11.0</ele>
        <time>2018-06-10T07:22:15.022Z</time>
      </trkpt>
      <trkpt lat="38.972546" lon="-0.15834983">
        <ele>11.0</ele>
        <time>2018-06-10T07:22:16.022Z</time>
      </trkpt>
      <trkpt lat="38.972611" lon="-0.15839033">
        <ele>11.0</ele>
        <time>2018-06-10T07:22:17.022Z</time>
      </trkpt>
      <trkpt lat="38.9726755" lon="-0.15843033">
        <ele>12.0</ele>
        <time>2018-06-10T07:22:18.022Z</time>
      </trkpt>
      <trkpt lat="38.97274017" lon="-0.158469">
        <ele>12.0</ele>
        <time>2018-06-10T07:22:19.022Z</time>
      </trkpt>
      <trkpt lat="38.97280467" lon="-0.15850717">
        <ele>12.0</ele>
        <time>2018-06-10T07:22:20.022Z</time>
      </trkpt>
      <trkpt lat="38.97286967" lon="-0.15854483">
        <ele>12.0</ele>
        <time>2018-06-10T07:22:21.022Z</time>
      </trkpt>
      <trkpt lat="38.97293517" lon="-0.15858333">
        <ele>12.0</ele>
        <time>2018-06-10T07:22:22.022Z</time>
      </trkpt>
      <trkpt lat="38.97300133" lon="-0.15862283">
        <ele>12.0</ele>
        <time>2018-06-10T07:22:23.022Z</time>
      </trkpt>
      <trkpt lat="38.9730675" lon="-0.15866367">
        <ele>12.0</ele>
        <time>2018-06-10T07:22:24.022Z</time>
      </trkpt>
      <trkpt lat="38.973134" lon="-0.15870533">
        <ele>12.0</ele>
        <time>2018-06-10T07:22:25.022Z</time>
      </trkpt>
      <trkpt lat="38.973201" lon="-0.15874733">
        <ele>12.0</ele>
        <time>2018-06-10T07:22:26.022Z</time>
      </trkpt>
      <trkpt lat="38.9732685" lon="-0.1587895">
        <ele>12.0</ele>
        <time>2018-06-10T07:22:27.022Z</time>
      </trkpt>
      <trkpt lat="38.973336" lon="-0.15883233">
        <ele>12.0</ele>
        <time>2018-06-10T07:22:28.022Z</time>
      </trkpt>
      <trkpt lat="38.97340317" lon="-0.15887617">
        <ele>12.0</ele>
        <time>2018-06-10T07:22:29.022Z</time>
      </trkpt>
      <trkpt lat="38.97346983" lon="-0.15892117">
        <ele>12.0</ele>
        <time>2018-06-10T07:22:30.022Z</time>
      </trkpt>
      <trkpt lat="38.97353617" lon="-0.158967">
        <ele>12.0</ele>
        <time>2018-06-10T07:22:31.022Z</time>
      </trkpt>
      <trkpt lat="38.973602" lon="-0.15901383">
        <ele>12.0</ele>
        <time>2018-06-10T07:22:32.022Z</time>
      </trkpt>
      <trkpt lat="38.97366717" lon="-0.15906167">
        <ele>12.0</ele>
        <time>2018-06-10T07:22:33.022Z</time>
      </trkpt>
      <trkpt lat="38.9737315" lon="-0.15911017">
        <ele>13.0</ele>
        <time>2018-06-10T07:22:34.022Z</time>
      </trkpt>
      <trkpt lat="38.97379483" lon="-0.159159">
        <ele>13.0</ele>
        <time>2018-06-10T07:22:35.022Z</time>
      </trkpt>
      <trkpt lat="38.97385733" lon="-0.159208">
        <ele>13.0</ele>
        <time>2018-06-10T07:22:36.022Z</time>
      </trkpt>
      <trkpt lat="38.97391933" lon="-0.15925817">
        <ele>13.0</ele>
        <time>2018-06-10T07:22:37.022Z</time>
      </trkpt>
      <trkpt lat="38.97398183" lon="-0.1593095">
        <ele>12.0</ele>
        <time>2018-06-10T07:22:38.022Z</time>
      </trkpt>
      <trkpt lat="38.97404467" lon="-0.1593615">
        <ele>12.0</ele>
        <time>2018-06-10T07:22:39.022Z</time>
      </trkpt>
      <trkpt lat="38.9741075" lon="-0.159414">
        <ele>13.0</ele>
        <time>2018-06-10T07:22:40.022Z</time>
      </trkpt>
      <trkpt lat="38.97416983" lon="-0.15946633">
        <ele>12.0</ele>
        <time>2018-06-10T07:22:41.022Z</time>
      </trkpt>
      <trkpt lat="38.97423217" lon="-0.15951917">
        <ele>13.0</ele>
        <time>2018-06-10T07:22:42.022Z</time>
      </trkpt>
      <trkpt lat="38.97429417" lon="-0.15957183">
        <ele>12.0</ele>
        <time>2018-06-10T07:22:43.022Z</time>
      </trkpt>
      <trkpt lat="38.97435567" lon="-0.159625">
        <ele>13.0</ele>
        <time>2018-06-10T07:22:44.022Z</time>
      </trkpt>
      <trkpt lat="38.97441683" lon="-0.15967783">
        <ele>13.0</ele>
        <time>2018-06-10T07:22:45.022Z</time>
      </trkpt>
      <trkpt lat="38.97447817" lon="-0.15973">
        <ele>12.0</ele>
        <time>2018-06-10T07:22:46.022Z</time>
      </trkpt>
      <trkpt lat="38.97453967" lon="-0.15978167">
        <ele>12.0</ele>
        <time>2018-06-10T07:22:47.022Z</time>
      </trkpt>
      <trkpt lat="38.97460167" lon="-0.15983267">
        <ele>12.0</ele>
        <time>2018-06-10T07:22:48.022Z</time>
      </trkpt>
      <trkpt lat="38.974664" lon="-0.15988383">
        <ele>13.0</ele>
        <time>2018-06-10T07:22:49.022Z</time>
      </trkpt>
      <trkpt lat="38.9747265" lon="-0.15993433">
        <ele>13.0</ele>
        <time>2018-06-10T07:22:50.022Z</time>
      </trkpt>
      <trkpt lat="38.974789" lon="-0.1599845">
        <ele>13.0</ele>
        <time>2018-06-10T07:22:51.022Z</time>
      </trkpt>
      <trkpt lat="38.97485167" lon="-0.1600335">
        <ele>13.0</ele>
        <time>2018-06-10T07:22:52.022Z</time>
      </trkpt>
      <trkpt lat="38.97491417" lon="-0.1600825">
        <ele>13.0</ele>
        <time>2018-06-10T07:22:53.022Z</time>
      </trkpt>
      <trkpt lat="38.97497633" lon="-0.16013067">
        <ele>13.0</ele>
        <time>2018-06-10T07:22:54.022Z</time>
      </trkpt>
      <trkpt lat="38.97503867" lon="-0.16017867">
        <ele>13.0</ele>
        <time>2018-06-10T07:22:55.022Z</time>
      </trkpt>
      <trkpt lat="38.97510133" lon="-0.16022567">
        <ele>13.0</ele>
        <time>2018-06-10T07:22:56.022Z</time>
      </trkpt>
      <trkpt lat="38.975165" lon="-0.160272">
        <ele>13.0</ele>
        <time>2018-06-10T07:22:57.022Z</time>
      </trkpt>
      <trkpt lat="38.97522983" lon="-0.16031783">
        <ele>13.0</ele>
        <time>2018-06-10T07:22:58.022Z</time>
      </trkpt>
      <trkpt lat="38.97529517" lon="-0.16036367">
        <ele>13.0</ele>
        <time>2018-06-10T07:22:59.022Z</time>
      </trkpt>
      <trkpt lat="38.9753605" lon="-0.16040983">
        <ele>13.0</ele>
        <time>2018-06-10T07:23:00.022Z</time>
      </trkpt>
      <trkpt lat="38.97542567" lon="-0.16045583">
        <ele>13.0</ele>
        <time>2018-06-10T07:23:01.022Z</time>
      </trkpt>
      <trkpt lat="38.9754915" lon="-0.160501">
        <ele>13.0</ele>
        <time>2018-06-10T07:23:02.022Z</time>
      </trkpt>
      <trkpt lat="38.975558" lon="-0.16054483">
        <ele>13.0</ele>
        <time>2018-06-10T07:23:03.022Z</time>
      </trkpt>
      <trkpt lat="38.975625" lon="-0.1605875">
        <ele>13.0</ele>
        <time>2018-06-10T07:23:04.022Z</time>
      </trkpt>
      <trkpt lat="38.975692" lon="-0.1606295">
        <ele>13.0</ele>
        <time>2018-06-10T07:23:05.022Z</time>
      </trkpt>
      <trkpt lat="38.975759" lon="-0.16067083">
        <ele>13.0</ele>
        <time>2018-06-10T07:23:06.022Z</time>
      </trkpt>
      <trkpt lat="38.97582617" lon="-0.160712">
        <ele>13.0</ele>
        <time>2018-06-10T07:23:07.022Z</time>
      </trkpt>
      <trkpt lat="38.97589317" lon="-0.1607535">
        <ele>13.0</ele>
        <time>2018-06-10T07:23:08.022Z</time>
      </trkpt>
      <trkpt lat="38.97595933" lon="-0.16079667">
        <ele>13.0</ele>
        <time>2018-06-10T07:23:09.022Z</time>
      </trkpt>
      <trkpt lat="38.97602367" lon="-0.1608435">
        <ele>13.0</ele>
        <time>2018-06-10T07:23:10.022Z</time>
      </trkpt>
      <trkpt lat="38.976086" lon="-0.1608935">
        <ele>13.0</ele>
        <time>2018-06-10T07:23:11.022Z</time>
      </trkpt>
      <trkpt lat="38.97614683" lon="-0.160944">
        <ele>13.0</ele>
        <time>2018-06-10T07:23:12.022Z</time>
      </trkpt>
      <trkpt lat="38.97620783" lon="-0.160992">
        <ele>13.0</ele>
        <time>2018-06-10T07:23:13.022Z</time>
      </trkpt>
      <trkpt lat="38.97627167" lon="-0.16103167">
        <ele>13.0</ele>
        <time>2018-06-10T07:23:14.022Z</time>
      </trkpt>
      <trkpt lat="38.976339" lon="-0.161058">
        <ele>13.0</ele>
        <time>2018-06-10T07:23:15.022Z</time>
      </trkpt>
      <trkpt lat="38.97640917" lon="-0.16106767">
        <ele>13.0</ele>
        <time>2018-06-10T07:23:16.022Z</time>
      </trkpt>
      <trkpt lat="38.97647967" lon="-0.16106633">
        <ele>13.0</ele>
        <time>2018-06-10T07:23:17.022Z</time>
      </trkpt>
      <trkpt lat="38.97655033" lon="-0.16106133">
        <ele>13.0</ele>
        <time>2018-06-10T07:23:18.022Z</time>
      </trkpt>
      <trkpt lat="38.9766215" lon="-0.16105967">
        <ele>13.0</ele>
        <time>2018-06-10T07:23:19.022Z</time>
      </trkpt>
      <trkpt lat="38.9766925" lon="-0.161066">
        <ele>12.0</ele>
        <time>2018-06-10T07:23:20.022Z</time>
      </trkpt>
      <trkpt lat="38.9767615" lon="-0.161085">
        <ele>12.0</ele>
        <time>2018-06-10T07:23:21.022Z</time>
      </trkpt>
      <trkpt lat="38.97682767" lon="-0.16111683">
        <ele>12.0</ele>
        <time>2018-06-10T07:23:22.022Z</time>
      </trkpt>
      <trkpt lat="38.9768905" lon="-0.16115967">
        <ele>12.0</ele>
        <time>2018-06-10T07:23:23.022Z</time>
      </trkpt>
      <trkpt lat="38.976948" lon="-0.161214">
        <ele>12.0</ele>
        <time>2018-06-10T07:23:24.022Z</time>
      </trkpt>
      <trkpt lat="38.9769995" lon="-0.1612785">
        <ele>12.0</ele>
        <time>2018-06-10T07:23:25.022Z</time>
      </trkpt>
      <trkpt lat="38.9770425" lon="-0.16135283">
        <ele>12.0</ele>
        <time>2018-06-10T07:23:26.022Z</time>
      </trkpt>
      <trkpt lat="38.97707717" lon="-0.16143217">
        <ele>12.0</ele>
        <time>2018-06-10T07:23:27.022Z</time>
      </trkpt>
      <trkpt lat="38.977103" lon="-0.16151467">
        <ele>13.0</ele>
        <time>2018-06-10T07:23:28.022Z</time>
      </trkpt>
      <trkpt lat="38.9771215" lon="-0.16159783">
        <ele>13.0</ele>
        <time>2018-06-10T07:23:29.022Z</time>
      </trkpt>
      <trkpt lat="38.97713267" lon="-0.16168033">
        <ele>13.0</ele>
        <time>2018-06-10T07:23:30.022Z</time>
      </trkpt>
      <trkpt lat="38.97713467" lon="-0.16176333">
        <ele>12.0</ele>
        <time>2018-06-10T07:23:31.022Z</time>
      </trkpt>
      <trkpt lat="38.97712633" lon="-0.16184683">
        <ele>12.0</ele>
        <time>2018-06-10T07:23:32.022Z</time>
      </trkpt>
      <trkpt lat="38.97710733" lon="-0.1619295">
        <ele>12.0</ele>
        <time>2018-06-10T07:23:33.022Z</time>
      </trkpt>
      <trkpt lat="38.97707817" lon="-0.1620105">
        <ele>13.0</ele>
        <time>2018-06-10T07:23:34.022Z</time>
      </trkpt>
      <trkpt lat="38.97704117" lon="-0.1620875">
        <ele>13.0</ele>
        <time>2018-06-10T07:23:35.022Z</time>
      </trkpt>
      <trkpt lat="38.97699933" lon="-0.16216167">
        <ele>13.0</ele>
        <time>2018-06-10T07:23:36.022Z</time>
      </trkpt>
      <trkpt lat="38.97695767" lon="-0.1622345">
        <ele>13.0</ele>
        <time>2018-06-10T07:23:37.022Z</time>
      </trkpt>
      <trkpt lat="38.97692117" lon="-0.162311">
        <ele>13.0</ele>
        <time>2018-06-10T07:23:38.022Z</time>
      </trkpt>
      <trkpt lat="38.97689417" lon="-0.16239333">
        <ele>13.0</ele>
        <time>2018-06-10T07:23:39.022Z</time>
      </trkpt>
      <trkpt lat="38.976877" lon="-0.16248133">
        <ele>13.0</ele>
        <time>2018-06-10T07:23:40.022Z</time>
      </trkpt>
      <trkpt lat="38.9768635" lon="-0.1625705">
        <ele>13.0</ele>
        <time>2018-06-10T07:23:41.022Z</time>
      </trkpt>
      <trkpt lat="38.9768485" lon="-0.162656">
        <ele>13.0</ele>
        <time>2018-06-10T07:23:42.022Z</time>
      </trkpt>
      <trkpt lat="38.97682683" lon="-0.16274167">
        <ele>13.0</ele>
        <time>2018-06-10T07:23:43.022Z</time>
      </trkpt>
      <trkpt lat="38.97679867" lon="-0.16282317">
        <ele>13.0</ele>
        <time>2018-06-10T07:23:44.022Z</time>
      </trkpt>
      <trkpt lat="38.976762" lon="-0.1629025">
        <ele>14.0</ele>
        <time>2018-06-10T07:23:45.022Z</time>
      </trkpt>
      <trkpt lat="38.9767175" lon="-0.16297">
        <ele>14.0</ele>
        <time>2018-06-10T07:23:46.022Z</time>
      </trkpt>
      <trkpt lat="38.97666633" lon="-0.16302983">
        <ele>14.0</ele>
        <time>2018-06-10T07:23:47.022Z</time>
      </trkpt>
      <trkpt lat="38.976609" lon="-0.1630805">
        <ele>14.0</ele>
        <time>2018-06-10T07:23:48.022Z</time>
      </trkpt>
      <trkpt lat="38.97654767" lon="-0.1631235">
        <ele>14.0</ele>
        <time>2018-06-10T07:23:49.022Z</time>
      </trkpt>
      <trkpt lat="38.97648233" lon="-0.1631595">
        <ele>14.0</ele>
        <time>2018-06-10T07:23:50.022Z</time>
      </trkpt>
      <trkpt lat="38.97641617" lon="-0.1631935">
        <ele>14.0</ele>
        <time>2018-06-10T07:23:51.022Z</time>
      </trkpt>
      <trkpt lat="38.97635017" lon="-0.16323083">
        <ele>14.0</ele>
        <time>2018-06-10T07:23:52.022Z</time>
      </trkpt>
      <trkpt lat="38.97628533" lon="-0.16327267">
        <ele>14.0</ele>
        <time>2018-06-10T07:23:53.022Z</time>
      </trkpt>
      <trkpt lat="38.97622183" lon="-0.16331833">
        <ele>14.0</ele>
        <time>2018-06-10T07:23:54.022Z</time>
      </trkpt>
      <trkpt lat="38.97615967" lon="-0.16336733">
        <ele>14.0</ele>
        <time>2018-06-10T07:23:55.022Z</time>
      </trkpt>
      <trkpt lat="38.9760985" lon="-0.1634175">
        <ele>14.0</ele>
        <time>2018-06-10T07:23:56.022Z</time>
      </trkpt>
      <trkpt lat="38.97603867" lon="-0.1634685">
        <ele>14.0</ele>
        <time>2018-06-10T07:23:57.022Z</time>
      </trkpt>
      <trkpt lat="38.97597983" lon="-0.16351967">
        <ele>14.0</ele>
        <time>2018-06-10T07:23:58.022Z</time>
      </trkpt>
      <trkpt lat="38.97592333" lon="-0.16357433">
        <ele>14.0</ele>
        <time>2018-06-10T07:23:59.022Z</time>
      </trkpt>
      <trkpt lat="38.975869" lon="-0.16362967">
        <ele>15.0</ele>
        <time>2018-06-10T07:24:00.022Z</time>
      </trkpt>
      <trkpt lat="38.97581483" lon="-0.1636855">
        <ele>15.0</ele>
        <time>2018-06-10T07:24:01.022Z</time>
      </trkpt>
      <trkpt lat="38.97575917" lon="-0.16374217">
        <ele>15.0</ele>
        <time>2018-06-10T07:24:02.022Z</time>
      </trkpt>
      <trkpt lat="38.97570233" lon="-0.16380033">
        <ele>15.0</ele>
        <time>2018-06-10T07:24:03.022Z</time>
      </trkpt>
      <trkpt lat="38.97564583" lon="-0.16385983">
        <ele>15.0</ele>
        <time>2018-06-10T07:24:04.022Z</time>
      </trkpt>
      <trkpt lat="38.97559" lon="-0.16391667">
        <ele>15.0</ele>
        <time>2018-06-10T07:24:05.022Z</time>
      </trkpt>
      <trkpt lat="38.975534" lon="-0.16397317">
        <ele>15.0</ele>
        <time>2018-06-10T07:24:06.022Z</time>
      </trkpt>
      <trkpt lat="38.97547917" lon="-0.16402883">
        <ele>15.0</ele>
        <time>2018-06-10T07:24:07.022Z</time>
      </trkpt>
      <trkpt lat="38.975425" lon="-0.16408283">
        <ele>15.0</ele>
        <time>2018-06-10T07:24:08.022Z</time>
      </trkpt>
      <trkpt lat="38.97537283" lon="-0.16413383">
        <ele>15.0</ele>
        <time>2018-06-10T07:24:09.022Z</time>
      </trkpt>
      <trkpt lat="38.97532283" lon="-0.16418233">
        <ele>15.0</ele>
        <time>2018-06-10T07:24:10.022Z</time>
      </trkpt>
      <trkpt lat="38.97527517" lon="-0.16422967">
        <ele>15.0</ele>
        <time>2018-06-10T07:24:11.022Z</time>
      </trkpt>
      <trkpt lat="38.975229" lon="-0.16427417">
        <ele>15.0</ele>
        <time>2018-06-10T07:24:12.022Z</time>
      </trkpt>
      <trkpt lat="38.97518383" lon="-0.16431617">
        <ele>15.0</ele>
        <time>2018-06-10T07:24:13.022Z</time>
      </trkpt>
      <trkpt lat="38.97513933" lon="-0.16435483">
        <ele>15.0</ele>
        <time>2018-06-10T07:24:14.022Z</time>
      </trkpt>
      <trkpt lat="38.975095" lon="-0.1643915">
        <ele>14.0</ele>
        <time>2018-06-10T07:24:15.022Z</time>
      </trkpt>
      <trkpt lat="38.97504983" lon="-0.16442617">
        <ele>14.0</ele>
        <time>2018-06-10T07:24:16.022Z</time>
      </trkpt>
      <trkpt lat="38.975005" lon="-0.16446017">
        <ele>15.0</ele>
        <time>2018-06-10T07:24:17.022Z</time>
      </trkpt>
      <trkpt lat="38.97496117" lon="-0.16449367">
        <ele>15.0</ele>
        <time>2018-06-10T07:24:18.022Z</time>
      </trkpt>
      <trkpt lat="38.97491817" lon="-0.16452667">
        <ele>15.0</ele>
        <time>2018-06-10T07:24:19.022Z</time>
      </trkpt>
      <trkpt lat="38.97487683" lon="-0.16456">
        <ele>15.0</ele>
        <time>2018-06-10T07:24:20.022Z</time>
      </trkpt>
      <trkpt lat="38.97483633" lon="-0.164594">
        <ele>15.0</ele>
        <time>2018-06-10T07:24:21.022Z</time>
      </trkpt>
      <trkpt lat="38.97479683" lon="-0.16462633">
        <ele>15.0</ele>
        <time>2018-06-10T07:24:22.022Z</time>
      </trkpt>
      <trkpt lat="38.97475833" lon="-0.16465533">
        <ele>15.0</ele>
        <time>2018-06-10T07:24:23.022Z</time>
      </trkpt>
      <trkpt lat="38.97472" lon="-0.164681">
        <ele>15.0</ele>
        <time>2018-06-10T07:24:24.022Z</time>
      </trkpt>
      <trkpt lat="38.97468283" lon="-0.16470483">
        <ele>15.0</ele>
        <time>2018-06-10T07:24:25.022Z</time>
      </trkpt>
      <trkpt lat="38.974645" lon="-0.16472833">
        <ele>15.0</ele>
        <time>2018-06-10T07:24:26.022Z</time>
      </trkpt>
      <trkpt lat="38.974608" lon="-0.16475083">
        <ele>15.0</ele>
        <time>2018-06-10T07:24:27.022Z</time>
      </trkpt>
      <trkpt lat="38.97457133" lon="-0.164777">
        <ele>15.0</ele>
        <time>2018-06-10T07:24:28.022Z</time>
      </trkpt>
      <trkpt lat="38.97453667" lon="-0.16480317">
        <ele>15.0</ele>
        <time>2018-06-10T07:24:29.022Z</time>
      </trkpt>
      <trkpt lat="38.97450333" lon="-0.16482883">
        <ele>15.0</ele>
        <time>2018-06-10T07:24:30.022Z</time>
      </trkpt>
      <trkpt lat="38.97447133" lon="-0.16485">
        <ele>15.0</ele>
        <time>2018-06-10T07:24:31.022Z</time>
      </trkpt>
      <trkpt lat="38.97443933" lon="-0.16486967">
        <ele>15.0</ele>
        <time>2018-06-10T07:24:32.022Z</time>
      </trkpt>
      <trkpt lat="38.97440667" lon="-0.16489033">
        <ele>15.0</ele>
        <time>2018-06-10T07:24:33.022Z</time>
      </trkpt>
      <trkpt lat="38.97437417" lon="-0.16491133">
        <ele>15.0</ele>
        <time>2018-06-10T07:24:34.022Z</time>
      </trkpt>
      <trkpt lat="38.97434233" lon="-0.16493433">
        <ele>15.0</ele>
        <time>2018-06-10T07:24:35.022Z</time>
      </trkpt>
      <trkpt lat="38.97431083" lon="-0.1649575">
        <ele>15.0</ele>
        <time>2018-06-10T07:24:36.022Z</time>
      </trkpt>
      <trkpt lat="38.97427767" lon="-0.16498167">
        <ele>15.0</ele>
        <time>2018-06-10T07:24:37.022Z</time>
      </trkpt>
      <trkpt lat="38.9742465" lon="-0.165004">
        <ele>15.0</ele>
        <time>2018-06-10T07:24:38.022Z</time>
      </trkpt>
      <trkpt lat="38.97422167" lon="-0.16502317">
        <ele>16.0</ele>
        <time>2018-06-10T07:24:39.022Z</time>
      </trkpt>
      <trkpt lat="38.97420633" lon="-0.16503767">
        <ele>16.0</ele>
        <time>2018-06-10T07:24:40.022Z</time>
      </trkpt>
      <trkpt lat="38.97419717" lon="-0.165048">
        <ele>16.0</ele>
        <time>2018-06-10T07:24:41.022Z</time>
      </trkpt>
      <trkpt lat="38.97419183" lon="-0.165057">
        <ele>16.0</ele>
        <time>2018-06-10T07:24:42.022Z</time>
      </trkpt>
      <trkpt lat="38.97419233" lon="-0.16505833">
        <ele>15.0</ele>
        <time>2018-06-10T07:24:43.085Z</time>
      </trkpt>
      <trkpt lat="38.974177" lon="-0.16506367">
        <ele>15.0</ele>
        <time>2018-06-10T07:24:44.085Z</time>
      </trkpt>
      <trkpt lat="38.97415717" lon="-0.16507">
        <ele>16.0</ele>
        <time>2018-06-10T07:24:45.085Z</time>
      </trkpt>
      <trkpt lat="38.97413433" lon="-0.16507883">
        <ele>15.0</ele>
        <time>2018-06-10T07:24:46.085Z</time>
      </trkpt>
      <trkpt lat="38.97410733" lon="-0.16509317">
        <ele>16.0</ele>
        <time>2018-06-10T07:24:47.085Z</time>
      </trkpt>
      <trkpt lat="38.97407617" lon="-0.16511383">
        <ele>16.0</ele>
        <time>2018-06-10T07:24:48.085Z</time>
      </trkpt>
      <trkpt lat="38.97403967" lon="-0.16514033">
        <ele>16.0</ele>
        <time>2018-06-10T07:24:49.085Z</time>
      </trkpt>
      <trkpt lat="38.97399933" lon="-0.16517133">
        <ele>15.0</ele>
        <time>2018-06-10T07:24:50.085Z</time>
      </trkpt>
      <trkpt lat="38.973955" lon="-0.16520533">
        <ele>15.0</ele>
        <time>2018-06-10T07:24:51.085Z</time>
      </trkpt>
      <trkpt lat="38.97390717" lon="-0.16524217">
        <ele>16.0</ele>
        <time>2018-06-10T07:24:52.085Z</time>
      </trkpt>
      <trkpt lat="38.9738565" lon="-0.1652815">
        <ele>16.0</ele>
        <time>2018-06-10T07:24:53.085Z</time>
      </trkpt>
      <trkpt lat="38.97380483" lon="-0.165323">
        <ele>16.0</ele>
        <time>2018-06-10T07:24:54.085Z</time>
      </trkpt>
      <trkpt lat="38.973752" lon="-0.1653655">
        <ele>16.0</ele>
        <time>2018-06-10T07:24:55.085Z</time>
      </trkpt>
      <trkpt lat="38.97369817" lon="-0.165408">
        <ele>16.0</ele>
        <time>2018-06-10T07:24:56.085Z</time>
      </trkpt>
      <trkpt lat="38.97364367" lon="-0.16545067">
        <ele>16.0</ele>
        <time>2018-06-10T07:24:57.085Z</time>
      </trkpt>
      <trkpt lat="38.97358867" lon="-0.16549417">
        <ele>16.0</ele>
        <time>2018-06-10T07:24:58.085Z</time>
      </trkpt>
      <trkpt lat="38.97353333" lon="-0.16553783">
        <ele>16.0</ele>
        <time>2018-06-10T07:24:59.085Z</time>
      </trkpt>
      <trkpt lat="38.97347733" lon="-0.165582">
        <ele>16.0</ele>
        <time>2018-06-10T07:25:00.085Z</time>
      </trkpt>
      <trkpt lat="38.97342083" lon="-0.16562667">
        <ele>16.0</ele>
        <time>2018-06-10T07:25:01.085Z</time>
      </trkpt>
      <trkpt lat="38.97336417" lon="-0.16567233">
        <ele>16.0</ele>
        <time>2018-06-10T07:25:02.085Z</time>
      </trkpt>
      <trkpt lat="38.97330767" lon="-0.165718">
        <ele>16.0</ele>
        <time>2018-06-10T07:25:03.085Z</time>
      </trkpt>
      <trkpt lat="38.97325133" lon="-0.165764">
        <ele>16.0</ele>
        <time>2018-06-10T07:25:04.085Z</time>
      </trkpt>
      <trkpt lat="38.97319533" lon="-0.16581067">
        <ele>16.0</ele>
        <time>2018-06-10T07:25:05.085Z</time>
      </trkpt>
      <trkpt lat="38.9731405" lon="-0.16585883">
        <ele>16.0</ele>
        <time>2018-06-10T07:25:06.085Z</time>
      </trkpt>
      <trkpt lat="38.97308667" lon="-0.16590833">
        <ele>16.0</ele>
        <time>2018-06-10T07:25:07.085Z</time>
      </trkpt>
      <trkpt lat="38.97303333" lon="-0.165959">
        <ele>16.0</ele>
        <time>2018-06-10T07:25:08.085Z</time>
      </trkpt>
      <trkpt lat="38.97298" lon="-0.16600967">
        <ele>16.0</ele>
        <time>2018-06-10T07:25:09.085Z</time>
      </trkpt>
      <trkpt lat="38.97292633" lon="-0.166061">
        <ele>16.0</ele>
        <time>2018-06-10T07:25:10.085Z</time>
      </trkpt>
      <trkpt lat="38.97287167" lon="-0.1661125">
        <ele>16.0</ele>
        <time>2018-06-10T07:25:11.085Z</time>
      </trkpt>
      <trkpt lat="38.972817" lon="-0.16616533">
        <ele>16.0</ele>
        <time>2018-06-10T07:25:12.085Z</time>
      </trkpt>
      <trkpt lat="38.972762" lon="-0.16621933">
        <ele>16.0</ele>
        <time>2018-06-10T07:25:13.085Z</time>
      </trkpt>
      <trkpt lat="38.97270683" lon="-0.166274">
        <ele>16.0</ele>
        <time>2018-06-10T07:25:14.085Z</time>
      </trkpt>
      <trkpt lat="38.97265083" lon="-0.16632883">
        <ele>17.0</ele>
        <time>2018-06-10T07:25:15.085Z</time>
      </trkpt>
      <trkpt lat="38.97259433" lon="-0.1663845">
        <ele>17.0</ele>
        <time>2018-06-10T07:25:16.085Z</time>
      </trkpt>
      <trkpt lat="38.97253783" lon="-0.16644083">
        <ele>17.0</ele>
        <time>2018-06-10T07:25:17.085Z</time>
      </trkpt>
      <trkpt lat="38.972482" lon="-0.1664975">
        <ele>17.0</ele>
        <time>2018-06-10T07:25:18.085Z</time>
      </trkpt>
      <trkpt lat="38.9724265" lon="-0.16655267">
        <ele>17.0</ele>
        <time>2018-06-10T07:25:19.085Z</time>
      </trkpt>
      <trkpt lat="38.97237217" lon="-0.16660633">
        <ele>17.0</ele>
        <time>2018-06-10T07:25:20.085Z</time>
      </trkpt>
      <trkpt lat="38.97231883" lon="-0.16665917">
        <ele>17.0</ele>
        <time>2018-06-10T07:25:21.085Z</time>
      </trkpt>
      <trkpt lat="38.9722665" lon="-0.16671183">
        <ele>17.0</ele>
        <time>2018-06-10T07:25:22.085Z</time>
      </trkpt>
      <trkpt lat="38.97221483" lon="-0.16676433">
        <ele>17.0</ele>
        <time>2018-06-10T07:25:23.085Z</time>
      </trkpt>
      <trkpt lat="38.9721635" lon="-0.1668165">
        <ele>17.0</ele>
        <time>2018-06-10T07:25:24.085Z</time>
      </trkpt>
      <trkpt lat="38.972113" lon="-0.16686883">
        <ele>17.0</ele>
        <time>2018-06-10T07:25:25.085Z</time>
      </trkpt>
      <trkpt lat="38.972064" lon="-0.16692133">
        <ele>17.0</ele>
        <time>2018-06-10T07:25:26.085Z</time>
      </trkpt>
      <trkpt lat="38.97201633" lon="-0.16697433">
        <ele>17.0</ele>
        <time>2018-06-10T07:25:27.085Z</time>
      </trkpt>
      <trkpt lat="38.97197" lon="-0.167028">
        <ele>17.0</ele>
        <time>2018-06-10T07:25:28.085Z</time>
      </trkpt>
      <trkpt lat="38.97192483" lon="-0.16708317">
        <ele>17.0</ele>
        <time>2018-06-10T07:25:29.085Z</time>
      </trkpt>
      <trkpt lat="38.9718805" lon="-0.16714033">
        <ele>17.0</ele>
        <time>2018-06-10T07:25:30.085Z</time>
      </trkpt>
      <trkpt lat="38.97183617" lon="-0.16719933">
        <ele>17.0</ele>
        <time>2018-06-10T07:25:31.085Z</time>
      </trkpt>
      <trkpt lat="38.97179133" lon="-0.16725917">
        <ele>17.0</ele>
        <time>2018-06-10T07:25:32.085Z</time>
      </trkpt>
      <trkpt lat="38.97174517" lon="-0.16731833">
        <ele>17.0</ele>
        <time>2018-06-10T07:25:33.085Z</time>
      </trkpt>
      <trkpt lat="38.97169867" lon="-0.16737783">
        <ele>17.0</ele>
        <time>2018-06-10T07:25:34.085Z</time>
      </trkpt>
      <trkpt lat="38.97165233" lon="-0.1674375">
        <ele>17.0</ele>
        <time>2018-06-10T07:25:35.085Z</time>
      </trkpt>
      <trkpt lat="38.9716065" lon="-0.16749783">
        <ele>17.0</ele>
        <time>2018-06-10T07:25:36.085Z</time>
      </trkpt>
      <trkpt lat="38.971561" lon="-0.167558">
        <ele>17.0</ele>
        <time>2018-06-10T07:25:37.085Z</time>
      </trkpt>
      <trkpt lat="38.97151533" lon="-0.1676175">
        <ele>17.0</ele>
        <time>2018-06-10T07:25:38.085Z</time>
      </trkpt>
      <trkpt lat="38.97147017" lon="-0.16767683">
        <ele>17.0</ele>
        <time>2018-06-10T07:25:39.085Z</time>
      </trkpt>
      <trkpt lat="38.97142517" lon="-0.16773583">
        <ele>17.0</ele>
        <time>2018-06-10T07:25:40.085Z</time>
      </trkpt>
      <trkpt lat="38.97138033" lon="-0.16779367">
        <ele>17.0</ele>
        <time>2018-06-10T07:25:41.085Z</time>
      </trkpt>
      <trkpt lat="38.97133533" lon="-0.16785083">
        <ele>17.0</ele>
        <time>2018-06-10T07:25:42.085Z</time>
      </trkpt>
      <trkpt lat="38.9712905" lon="-0.16790717">
        <ele>18.0</ele>
        <time>2018-06-10T07:25:43.085Z</time>
      </trkpt>
      <trkpt lat="38.971246" lon="-0.16796367">
        <ele>18.0</ele>
        <time>2018-06-10T07:25:44.085Z</time>
      </trkpt>
      <trkpt lat="38.971202" lon="-0.1680195">
        <ele>18.0</ele>
        <time>2018-06-10T07:25:45.085Z</time>
      </trkpt>
      <trkpt lat="38.97115817" lon="-0.16807517">
        <ele>18.0</ele>
        <time>2018-06-10T07:25:46.085Z</time>
      </trkpt>
      <trkpt lat="38.9711145" lon="-0.16813017">
        <ele>18.0</ele>
        <time>2018-06-10T07:25:47.085Z</time>
      </trkpt>
      <trkpt lat="38.97107133" lon="-0.16818583">
        <ele>18.0</ele>
        <time>2018-06-10T07:25:48.085Z</time>
      </trkpt>
      <trkpt lat="38.97102983" lon="-0.168243">
        <ele>18.0</ele>
        <time>2018-06-10T07:25:49.085Z</time>
      </trkpt>
      <trkpt lat="38.9709925" lon="-0.16830483">
        <ele>18.0</ele>
        <time>2018-06-10T07:25:50.085Z</time>
      </trkpt>
      <trkpt lat="38.9709605" lon="-0.16837083">
        <ele>19.0</ele>
        <time>2018-06-10T07:25:51.085Z</time>
      </trkpt>
      <trkpt lat="38.97093567" lon="-0.16844167">
        <ele>19.0</ele>
        <time>2018-06-10T07:25:52.085Z</time>
      </trkpt>
      <trkpt lat="38.9709175" lon="-0.1685155">
        <ele>19.0</ele>
        <time>2018-06-10T07:25:53.085Z</time>
      </trkpt>
      <trkpt lat="38.9709045" lon="-0.168592">
        <ele>20.0</ele>
        <time>2018-06-10T07:25:54.085Z</time>
      </trkpt>
      <trkpt lat="38.97089167" lon="-0.16866917">
        <ele>20.0</ele>
        <time>2018-06-10T07:25:55.085Z</time>
      </trkpt>
      <trkpt lat="38.9708735" lon="-0.1687445">
        <ele>20.0</ele>
        <time>2018-06-10T07:25:56.085Z</time>
      </trkpt>
      <trkpt lat="38.970848" lon="-0.16881417">
        <ele>21.0</ele>
        <time>2018-06-10T07:25:57.085Z</time>
      </trkpt>
      <trkpt lat="38.97081033" lon="-0.16886983">
        <ele>21.0</ele>
        <time>2018-06-10T07:25:58.085Z</time>
      </trkpt>
      <trkpt lat="38.97076467" lon="-0.16890717">
        <ele>20.0</ele>
        <time>2018-06-10T07:25:59.085Z</time>
      </trkpt>
      <trkpt lat="38.97071017" lon="-0.16892717">
        <ele>19.0</ele>
        <time>2018-06-10T07:26:00.085Z</time>
      </trkpt>
      <trkpt lat="38.97065367" lon="-0.168939">
        <ele>18.0</ele>
        <time>2018-06-10T07:26:01.085Z</time>
      </trkpt>
      <trkpt lat="38.970594" lon="-0.1689485">
        <ele>18.0</ele>
        <time>2018-06-10T07:26:02.085Z</time>
      </trkpt>
      <trkpt lat="38.97053333" lon="-0.16896017">
        <ele>18.0</ele>
        <time>2018-06-10T07:26:03.085Z</time>
      </trkpt>
      <trkpt lat="38.9704725" lon="-0.16897783">
        <ele>18.0</ele>
        <time>2018-06-10T07:26:04.085Z</time>
      </trkpt>
      <trkpt lat="38.97041417" lon="-0.16900567">
        <ele>19.0</ele>
        <time>2018-06-10T07:26:05.085Z</time>
      </trkpt>
      <trkpt lat="38.97036" lon="-0.16904417">
        <ele>19.0</ele>
        <time>2018-06-10T07:26:06.085Z</time>
      </trkpt>
      <trkpt lat="38.97030917" lon="-0.16908983">
        <ele>19.0</ele>
        <time>2018-06-10T07:26:07.085Z</time>
      </trkpt>
      <trkpt lat="38.97025967" lon="-0.16913883">
        <ele>19.0</ele>
        <time>2018-06-10T07:26:08.085Z</time>
      </trkpt>
      <trkpt lat="38.97020967" lon="-0.16918867">
        <ele>19.0</ele>
        <time>2018-06-10T07:26:09.085Z</time>
      </trkpt>
      <trkpt lat="38.97015933" lon="-0.16923833">
        <ele>19.0</ele>
        <time>2018-06-10T07:26:10.085Z</time>
      </trkpt>
      <trkpt lat="38.97010867" lon="-0.16928733">
        <ele>20.0</ele>
        <time>2018-06-10T07:26:11.085Z</time>
      </trkpt>
      <trkpt lat="38.970058" lon="-0.169336">
        <ele>20.0</ele>
        <time>2018-06-10T07:26:12.085Z</time>
      </trkpt>
      <trkpt lat="38.97000683" lon="-0.169384">
        <ele>20.0</ele>
        <time>2018-06-10T07:26:13.085Z</time>
      </trkpt>
      <trkpt lat="38.9699555" lon="-0.16943167">
        <ele>20.0</ele>
        <time>2018-06-10T07:26:14.085Z</time>
      </trkpt>
      <trkpt lat="38.96990383" lon="-0.169479">
        <ele>20.0</ele>
        <time>2018-06-10T07:26:15.085Z</time>
      </trkpt>
      <trkpt lat="38.96985233" lon="-0.16952633">
        <ele>20.0</ele>
        <time>2018-06-10T07:26:16.085Z</time>
      </trkpt>
      <trkpt lat="38.96980033" lon="-0.16957317">
        <ele>20.0</ele>
        <time>2018-06-10T07:26:17.085Z</time>
      </trkpt>
      <trkpt lat="38.96974783" lon="-0.16961883">
        <ele>21.0</ele>
        <time>2018-06-10T07:26:18.085Z</time>
      </trkpt>
      <trkpt lat="38.96969483" lon="-0.16966467">
        <ele>21.0</ele>
        <time>2018-06-10T07:26:19.085Z</time>
      </trkpt>
      <trkpt lat="38.96964133" lon="-0.16970967">
        <ele>21.0</ele>
        <time>2018-06-10T07:26:20.085Z</time>
      </trkpt>
      <trkpt lat="38.96958783" lon="-0.1697555">
        <ele>21.0</ele>
        <time>2018-06-10T07:26:21.085Z</time>
      </trkpt>
      <trkpt lat="38.9695345" lon="-0.16980167">
        <ele>21.0</ele>
        <time>2018-06-10T07:26:22.085Z</time>
      </trkpt>
      <trkpt lat="38.9694815" lon="-0.16984833">
        <ele>21.0</ele>
        <time>2018-06-10T07:26:23.085Z</time>
      </trkpt>
      <trkpt lat="38.96942833" lon="-0.16989483">
        <ele>21.0</ele>
        <time>2018-06-10T07:26:24.085Z</time>
      </trkpt>
      <trkpt lat="38.969375" lon="-0.16994">
        <ele>21.0</ele>
        <time>2018-06-10T07:26:25.085Z</time>
      </trkpt>
      <trkpt lat="38.96932133" lon="-0.16998383">
        <ele>22.0</ele>
        <time>2018-06-10T07:26:26.085Z</time>
      </trkpt>
      <trkpt lat="38.96926783" lon="-0.170027">
        <ele>22.0</ele>
        <time>2018-06-10T07:26:27.085Z</time>
      </trkpt>
      <trkpt lat="38.96921467" lon="-0.17007133">
        <ele>21.0</ele>
        <time>2018-06-10T07:26:28.085Z</time>
      </trkpt>
      <trkpt lat="38.96916167" lon="-0.17011667">
        <ele>22.0</ele>
        <time>2018-06-10T07:26:29.085Z</time>
      </trkpt>
      <trkpt lat="38.96910883" lon="-0.17016283">
        <ele>22.0</ele>
        <time>2018-06-10T07:26:30.085Z</time>
      </trkpt>
      <trkpt lat="38.96905583" lon="-0.17020883">
        <ele>22.0</ele>
        <time>2018-06-10T07:26:31.085Z</time>
      </trkpt>
      <trkpt lat="38.96900233" lon="-0.1702555">
        <ele>22.0</ele>
        <time>2018-06-10T07:26:32.085Z</time>
      </trkpt>
      <trkpt lat="38.968949" lon="-0.170303">
        <ele>22.0</ele>
        <time>2018-06-10T07:26:33.085Z</time>
      </trkpt>
      <trkpt lat="38.96889583" lon="-0.17035083">
        <ele>22.0</ele>
        <time>2018-06-10T07:26:34.085Z</time>
      </trkpt>
      <trkpt lat="38.96884267" lon="-0.17039867">
        <ele>22.0</ele>
        <time>2018-06-10T07:26:35.085Z</time>
      </trkpt>
      <trkpt lat="38.968789" lon="-0.1704455">
        <ele>22.0</ele>
        <time>2018-06-10T07:26:36.085Z</time>
      </trkpt>
      <trkpt lat="38.9687355" lon="-0.17049217">
        <ele>22.0</ele>
        <time>2018-06-10T07:26:37.085Z</time>
      </trkpt>
      <trkpt lat="38.9686825" lon="-0.17053917">
        <ele>22.0</ele>
        <time>2018-06-10T07:26:38.085Z</time>
      </trkpt>
      <trkpt lat="38.96863033" lon="-0.17058667">
        <ele>22.0</ele>
        <time>2018-06-10T07:26:39.085Z</time>
      </trkpt>
      <trkpt lat="38.968578" lon="-0.17063333">
        <ele>22.0</ele>
        <time>2018-06-10T07:26:40.085Z</time>
      </trkpt>
      <trkpt lat="38.96852517" lon="-0.1706785">
        <ele>22.0</ele>
        <time>2018-06-10T07:26:41.085Z</time>
      </trkpt>
      <trkpt lat="38.968472" lon="-0.17072233">
        <ele>22.0</ele>
        <time>2018-06-10T07:26:42.085Z</time>
      </trkpt>
      <trkpt lat="38.96842" lon="-0.170768">
        <ele>22.0</ele>
        <time>2018-06-10T07:26:43.085Z</time>
      </trkpt>
      <trkpt lat="38.96837" lon="-0.17081633">
        <ele>22.0</ele>
        <time>2018-06-10T07:26:44.085Z</time>
      </trkpt>
      <trkpt lat="38.96832317" lon="-0.17086933">
        <ele>22.0</ele>
        <time>2018-06-10T07:26:45.085Z</time>
      </trkpt>
      <trkpt lat="38.968282" lon="-0.170929">
        <ele>22.0</ele>
        <time>2018-06-10T07:26:46.085Z</time>
      </trkpt>
      <trkpt lat="38.96824617" lon="-0.17099433">
        <ele>22.0</ele>
        <time>2018-06-10T07:26:47.085Z</time>
      </trkpt>
      <trkpt lat="38.9682125" lon="-0.17105983">
        <ele>22.0</ele>
        <time>2018-06-10T07:26:48.085Z</time>
      </trkpt>
      <trkpt lat="38.96817533" lon="-0.17111867">
        <ele>22.0</ele>
        <time>2018-06-10T07:26:49.085Z</time>
      </trkpt>
      <trkpt lat="38.96813167" lon="-0.1711675">
        <ele>21.0</ele>
        <time>2018-06-10T07:26:50.085Z</time>
      </trkpt>
      <trkpt lat="38.9680815" lon="-0.17120633">
        <ele>21.0</ele>
        <time>2018-06-10T07:26:51.085Z</time>
      </trkpt>
      <trkpt lat="38.968026" lon="-0.17123833">
        <ele>21.0</ele>
        <time>2018-06-10T07:26:52.085Z</time>
      </trkpt>
      <trkpt lat="38.96796783" lon="-0.17126933">
        <ele>21.0</ele>
        <time>2018-06-10T07:26:53.085Z</time>
      </trkpt>
      <trkpt lat="38.96790967" lon="-0.17130433">
        <ele>21.0</ele>
        <time>2018-06-10T07:26:54.085Z</time>
      </trkpt>
      <trkpt lat="38.96785433" lon="-0.1713475">
        <ele>21.0</ele>
        <time>2018-06-10T07:26:55.085Z</time>
      </trkpt>
      <trkpt lat="38.9678025" lon="-0.17139867">
        <ele>21.0</ele>
        <time>2018-06-10T07:26:56.085Z</time>
      </trkpt>
      <trkpt lat="38.96775467" lon="-0.1714555">
        <ele>21.0</ele>
        <time>2018-06-10T07:26:57.085Z</time>
      </trkpt>
      <trkpt lat="38.96770917" lon="-0.17151433">
        <ele>21.0</ele>
        <time>2018-06-10T07:26:58.085Z</time>
      </trkpt>
      <trkpt lat="38.96766517" lon="-0.1715735">
        <ele>21.0</ele>
        <time>2018-06-10T07:26:59.085Z</time>
      </trkpt>
      <trkpt lat="38.96762217" lon="-0.17163267">
        <ele>22.0</ele>
        <time>2018-06-10T07:27:00.085Z</time>
      </trkpt>
      <trkpt lat="38.96758067" lon="-0.17169267">
        <ele>22.0</ele>
        <time>2018-06-10T07:27:01.085Z</time>
      </trkpt>
      <trkpt lat="38.96754033" lon="-0.1717545">
        <ele>22.0</ele>
        <time>2018-06-10T07:27:02.085Z</time>
      </trkpt>
      <trkpt lat="38.96749933" lon="-0.17181583">
        <ele>22.0</ele>
        <time>2018-06-10T07:27:03.085Z</time>
      </trkpt>
      <trkpt lat="38.96745733" lon="-0.17187617">
        <ele>22.0</ele>
        <time>2018-06-10T07:27:04.085Z</time>
      </trkpt>
      <trkpt lat="38.96741433" lon="-0.17193517">
        <ele>22.0</ele>
        <time>2018-06-10T07:27:05.085Z</time>
      </trkpt>
      <trkpt lat="38.96737133" lon="-0.1719945">
        <ele>22.0</ele>
        <time>2018-06-10T07:27:06.085Z</time>
      </trkpt>
      <trkpt lat="38.96732783" lon="-0.17205417">
        <ele>22.0</ele>
        <time>2018-06-10T07:27:07.085Z</time>
      </trkpt>
      <trkpt lat="38.96728383" lon="-0.172114">
        <ele>22.0</ele>
        <time>2018-06-10T07:27:08.085Z</time>
      </trkpt>
      <trkpt lat="38.9672395" lon="-0.172175">
        <ele>22.0</ele>
        <time>2018-06-10T07:27:09.085Z</time>
      </trkpt>
      <trkpt lat="38.96719483" lon="-0.17223717">
        <ele>22.0</ele>
        <time>2018-06-10T07:27:10.085Z</time>
      </trkpt>
      <trkpt lat="38.9671495" lon="-0.17230017">
        <ele>22.0</ele>
        <time>2018-06-10T07:27:11.085Z</time>
      </trkpt>
      <trkpt lat="38.9671045" lon="-0.172364">
        <ele>22.0</ele>
        <time>2018-06-10T07:27:12.085Z</time>
      </trkpt>
      <trkpt lat="38.96705967" lon="-0.17242817">
        <ele>23.0</ele>
        <time>2018-06-10T07:27:13.085Z</time>
      </trkpt>
      <trkpt lat="38.96701567" lon="-0.17249333">
        <ele>23.0</ele>
        <time>2018-06-10T07:27:14.085Z</time>
      </trkpt>
      <trkpt lat="38.96697133" lon="-0.17255767">
        <ele>23.0</ele>
        <time>2018-06-10T07:27:15.085Z</time>
      </trkpt>
      <trkpt lat="38.966927" lon="-0.17262167">
        <ele>23.0</ele>
        <time>2018-06-10T07:27:16.085Z</time>
      </trkpt>
      <trkpt lat="38.966883" lon="-0.17268583">
        <ele>23.0</ele>
        <time>2018-06-10T07:27:17.085Z</time>
      </trkpt>
      <trkpt lat="38.96683967" lon="-0.17275067">
        <ele>23.0</ele>
        <time>2018-06-10T07:27:18.085Z</time>
      </trkpt>
      <trkpt lat="38.96679767" lon="-0.17281633">
        <ele>23.0</ele>
        <time>2018-06-10T07:27:19.085Z</time>
      </trkpt>
      <trkpt lat="38.96675517" lon="-0.1728815">
        <ele>23.0</ele>
        <time>2018-06-10T07:27:20.085Z</time>
      </trkpt>
      <trkpt lat="38.96671267" lon="-0.172946">
        <ele>23.0</ele>
        <time>2018-06-10T07:27:21.085Z</time>
      </trkpt>
      <trkpt lat="38.96666983" lon="-0.17301017">
        <ele>23.0</ele>
        <time>2018-06-10T07:27:22.085Z</time>
      </trkpt>
      <trkpt lat="38.96662667" lon="-0.17307333">
        <ele>23.0</ele>
        <time>2018-06-10T07:27:23.085Z</time>
      </trkpt>
      <trkpt lat="38.9665825" lon="-0.17313533">
        <ele>23.0</ele>
        <time>2018-06-10T07:27:24.085Z</time>
      </trkpt>
      <trkpt lat="38.96653667" lon="-0.17319567">
        <ele>23.0</ele>
        <time>2018-06-10T07:27:25.085Z</time>
      </trkpt>
      <trkpt lat="38.96648833" lon="-0.17325383">
        <ele>23.0</ele>
        <time>2018-06-10T07:27:26.085Z</time>
      </trkpt>
      <trkpt lat="38.96643817" lon="-0.1733105">
        <ele>23.0</ele>
        <time>2018-06-10T07:27:27.085Z</time>
      </trkpt>
      <trkpt lat="38.96638617" lon="-0.17336467">
        <ele>23.0</ele>
        <time>2018-06-10T07:27:28.085Z</time>
      </trkpt>
      <trkpt lat="38.96633383" lon="-0.1734175">
        <ele>23.0</ele>
        <time>2018-06-10T07:27:29.085Z</time>
      </trkpt>
      <trkpt lat="38.96628" lon="-0.17346867">
        <ele>23.0</ele>
        <time>2018-06-10T07:27:30.085Z</time>
      </trkpt>
      <trkpt lat="38.966225" lon="-0.17351767">
        <ele>23.0</ele>
        <time>2018-06-10T07:27:31.085Z</time>
      </trkpt>
      <trkpt lat="38.9661685" lon="-0.17356467">
        <ele>23.0</ele>
        <time>2018-06-10T07:27:32.085Z</time>
      </trkpt>
      <trkpt lat="38.966111" lon="-0.17360883">
        <ele>22.0</ele>
        <time>2018-06-10T07:27:33.085Z</time>
      </trkpt>
      <trkpt lat="38.9660525" lon="-0.17365017">
        <ele>22.0</ele>
        <time>2018-06-10T07:27:34.085Z</time>
      </trkpt>
      <trkpt lat="38.9659935" lon="-0.17368917">
        <ele>22.0</ele>
        <time>2018-06-10T07:27:35.085Z</time>
      </trkpt>
      <trkpt lat="38.96593433" lon="-0.17372617">
        <ele>22.0</ele>
        <time>2018-06-10T07:27:36.085Z</time>
      </trkpt>
      <trkpt lat="38.96587533" lon="-0.173762">
        <ele>23.0</ele>
        <time>2018-06-10T07:27:37.085Z</time>
      </trkpt>
      <trkpt lat="38.96581667" lon="-0.17379683">
        <ele>23.0</ele>
        <time>2018-06-10T07:27:38.085Z</time>
      </trkpt>
      <trkpt lat="38.96575983" lon="-0.17383033">
        <ele>23.0</ele>
        <time>2018-06-10T07:27:39.085Z</time>
      </trkpt>
      <trkpt lat="38.96570567" lon="-0.1738605">
        <ele>24.0</ele>
        <time>2018-06-10T07:27:40.085Z</time>
      </trkpt>
      <trkpt lat="38.965655" lon="-0.17388917">
        <ele>24.0</ele>
        <time>2018-06-10T07:27:41.085Z</time>
      </trkpt>
      <trkpt lat="38.96560833" lon="-0.17391733">
        <ele>23.0</ele>
        <time>2018-06-10T07:27:42.085Z</time>
      </trkpt>
      <trkpt lat="38.96556583" lon="-0.17394533">
        <ele>24.0</ele>
        <time>2018-06-10T07:27:43.085Z</time>
      </trkpt>
      <trkpt lat="38.965529" lon="-0.17397133">
        <ele>24.0</ele>
        <time>2018-06-10T07:27:44.085Z</time>
      </trkpt>
      <trkpt lat="38.96549767" lon="-0.17399433">
        <ele>24.0</ele>
        <time>2018-06-10T07:27:45.085Z</time>
      </trkpt>
      <trkpt lat="38.9654725" lon="-0.17401467">
        <ele>24.0</ele>
        <time>2018-06-10T07:27:46.085Z</time>
      </trkpt>
      <trkpt lat="38.9654535" lon="-0.17403167">
        <ele>24.0</ele>
        <time>2018-06-10T07:27:47.085Z</time>
      </trkpt>
      <trkpt lat="38.96544033" lon="-0.17404667">
        <ele>24.0</ele>
        <time>2018-06-10T07:27:48.085Z</time>
      </trkpt>
      <trkpt lat="38.96543183" lon="-0.1740595">
        <ele>24.0</ele>
        <time>2018-06-10T07:27:49.085Z</time>
      </trkpt>
      <trkpt lat="38.9654265" lon="-0.17406817">
        <ele>24.0</ele>
        <time>2018-06-10T07:27:50.085Z</time>
      </trkpt>
      <trkpt lat="38.96542383" lon="-0.17407067">
        <ele>24.0</ele>
        <time>2018-06-10T07:27:51.085Z</time>
      </trkpt>
      <trkpt lat="38.96542283" lon="-0.17406967">
        <ele>24.0</ele>
        <time>2018-06-10T07:27:52.085Z</time>
      </trkpt>
      <trkpt lat="38.965423" lon="-0.17406817">
        <ele>24.0</ele>
        <time>2018-06-10T07:27:53.085Z</time>
      </trkpt>
      <trkpt lat="38.96542333" lon="-0.17406717">
        <ele>24.0</ele>
        <time>2018-06-10T07:27:54.085Z</time>
      </trkpt>
      <trkpt lat="38.96542283" lon="-0.17406783">
        <ele>24.0</ele>
        <time>2018-06-10T07:27:55.085Z</time>
      </trkpt>
      <trkpt lat="38.965418" lon="-0.17407233">
        <ele>25.0</ele>
        <time>2018-06-10T07:27:56.085Z</time>
      </trkpt>
      <trkpt lat="38.96541067" lon="-0.17408117">
        <ele>25.0</ele>
        <time>2018-06-10T07:27:57.085Z</time>
      </trkpt>
      <trkpt lat="38.96540117" lon="-0.17409617">
        <ele>25.0</ele>
        <time>2018-06-10T07:27:58.085Z</time>
      </trkpt>
      <trkpt lat="38.96539133" lon="-0.1741135">
        <ele>25.0</ele>
        <time>2018-06-10T07:27:59.085Z</time>
      </trkpt>
      <trkpt lat="38.96538" lon="-0.174132">
        <ele>25.0</ele>
        <time>2018-06-10T07:28:00.085Z</time>
      </trkpt>
      <trkpt lat="38.965369" lon="-0.17414783">
        <ele>25.0</ele>
        <time>2018-06-10T07:28:01.085Z</time>
      </trkpt>
      <trkpt lat="38.96536" lon="-0.17416133">
        <ele>25.0</ele>
        <time>2018-06-10T07:28:02.085Z</time>
      </trkpt>
      <trkpt lat="38.96535367" lon="-0.17417617">
        <ele>25.0</ele>
        <time>2018-06-10T07:28:03.085Z</time>
      </trkpt>
      <trkpt lat="38.965349" lon="-0.17419333">
        <ele>24.0</ele>
        <time>2018-06-10T07:28:04.085Z</time>
      </trkpt>
      <trkpt lat="38.965344" lon="-0.17421167">
        <ele>24.0</ele>
        <time>2018-06-10T07:28:05.085Z</time>
      </trkpt>
      <trkpt lat="38.96533467" lon="-0.17423083">
        <ele>24.0</ele>
        <time>2018-06-10T07:28:06.085Z</time>
      </trkpt>
      <trkpt lat="38.965319" lon="-0.17425133">
        <ele>24.0</ele>
        <time>2018-06-10T07:28:07.085Z</time>
      </trkpt>
      <trkpt lat="38.96529767" lon="-0.17427467">
        <ele>24.0</ele>
        <time>2018-06-10T07:28:08.085Z</time>
      </trkpt>
      <trkpt lat="38.9652725" lon="-0.174298">
        <ele>24.0</ele>
        <time>2018-06-10T07:28:09.085Z</time>
      </trkpt>
      <trkpt lat="38.96524433" lon="-0.17431817">
        <ele>24.0</ele>
        <time>2018-06-10T07:28:10.085Z</time>
      </trkpt>
      <trkpt lat="38.9652135" lon="-0.1743335">
        <ele>23.0</ele>
        <time>2018-06-10T07:28:11.085Z</time>
      </trkpt>
      <trkpt lat="38.9651785" lon="-0.17434217">
        <ele>22.0</ele>
        <time>2018-06-10T07:28:12.085Z</time>
      </trkpt>
      <trkpt lat="38.96514117" lon="-0.1743435">
        <ele>22.0</ele>
        <time>2018-06-10T07:28:13.085Z</time>
      </trkpt>
      <trkpt lat="38.96510217" lon="-0.17433533">
        <ele>21.0</ele>
        <time>2018-06-10T07:28:14.085Z</time>
      </trkpt>
      <trkpt lat="38.96506317" lon="-0.174318">
        <ele>21.0</ele>
        <time>2018-06-10T07:28:15.085Z</time>
      </trkpt>
      <trkpt lat="38.9650215" lon="-0.174291">
        <ele>22.0</ele>
        <time>2018-06-10T07:28:16.085Z</time>
      </trkpt>
      <trkpt lat="38.9649765" lon="-0.1742615">
        <ele>21.0</ele>
        <time>2018-06-10T07:28:17.085Z</time>
      </trkpt>
      <trkpt lat="38.964929" lon="-0.174231">
        <ele>21.0</ele>
        <time>2018-06-10T07:28:18.085Z</time>
      </trkpt>
      <trkpt lat="38.9648795" lon="-0.17420367">
        <ele>21.0</ele>
        <time>2018-06-10T07:28:19.085Z</time>
      </trkpt>
      <trkpt lat="38.9648275" lon="-0.1741735">
        <ele>21.0</ele>
        <time>2018-06-10T07:28:20.085Z</time>
      </trkpt>
      <trkpt lat="38.96477317" lon="-0.1741425">
        <ele>21.0</ele>
        <time>2018-06-10T07:28:21.085Z</time>
      </trkpt>
      <trkpt lat="38.9647175" lon="-0.17410917">
        <ele>21.0</ele>
        <time>2018-06-10T07:28:22.085Z</time>
      </trkpt>
      <trkpt lat="38.96466083" lon="-0.174076">
        <ele>21.0</ele>
        <time>2018-06-10T07:28:23.085Z</time>
      </trkpt>
      <trkpt lat="38.96460367" lon="-0.17404167">
        <ele>21.0</ele>
        <time>2018-06-10T07:28:24.085Z</time>
      </trkpt>
      <trkpt lat="38.96454633" lon="-0.17400667">
        <ele>21.0</ele>
        <time>2018-06-10T07:28:25.085Z</time>
      </trkpt>
      <trkpt lat="38.96448883" lon="-0.17397083">
        <ele>21.0</ele>
        <time>2018-06-10T07:28:26.085Z</time>
      </trkpt>
      <trkpt lat="38.964431" lon="-0.17393583">
        <ele>20.0</ele>
        <time>2018-06-10T07:28:27.085Z</time>
      </trkpt>
      <trkpt lat="38.96437267" lon="-0.17390117">
        <ele>21.0</ele>
        <time>2018-06-10T07:28:28.085Z</time>
      </trkpt>
      <trkpt lat="38.96431383" lon="-0.173866">
        <ele>21.0</ele>
        <time>2018-06-10T07:28:29.085Z</time>
      </trkpt>
      <trkpt lat="38.96425417" lon="-0.17382983">
        <ele>21.0</ele>
        <time>2018-06-10T07:28:30.085Z</time>
      </trkpt>
      <trkpt lat="38.96419417" lon="-0.17379367">
        <ele>21.0</ele>
        <time>2018-06-10T07:28:31.085Z</time>
      </trkpt>
      <trkpt lat="38.96413483" lon="-0.173758">
        <ele>21.0</ele>
        <time>2018-06-10T07:28:32.085Z</time>
      </trkpt>
      <trkpt lat="38.9640755" lon="-0.17372183">
        <ele>21.0</ele>
        <time>2018-06-10T07:28:33.085Z</time>
      </trkpt>
      <trkpt lat="38.96401667" lon="-0.17368517">
        <ele>21.0</ele>
        <time>2018-06-10T07:28:34.085Z</time>
      </trkpt>
      <trkpt lat="38.96395767" lon="-0.17364683">
        <ele>21.0</ele>
        <time>2018-06-10T07:28:35.085Z</time>
      </trkpt>
      <trkpt lat="38.96389817" lon="-0.17360867">
        <ele>22.0</ele>
        <time>2018-06-10T07:28:36.085Z</time>
      </trkpt>
      <trkpt lat="38.96383833" lon="-0.1735715">
        <ele>22.0</ele>
        <time>2018-06-10T07:28:37.085Z</time>
      </trkpt>
      <trkpt lat="38.96377717" lon="-0.17353533">
        <ele>22.0</ele>
        <time>2018-06-10T07:28:38.085Z</time>
      </trkpt>
      <trkpt lat="38.963716" lon="-0.17349983">
        <ele>22.0</ele>
        <time>2018-06-10T07:28:39.085Z</time>
      </trkpt>
      <trkpt lat="38.96365467" lon="-0.17346417">
        <ele>21.0</ele>
        <time>2018-06-10T07:28:40.085Z</time>
      </trkpt>
      <trkpt lat="38.963594" lon="-0.17342717">
        <ele>22.0</ele>
        <time>2018-06-10T07:28:41.085Z</time>
      </trkpt>
      <trkpt lat="38.963533" lon="-0.17338933">
        <ele>21.0</ele>
        <time>2018-06-10T07:28:42.085Z</time>
      </trkpt>
      <trkpt lat="38.963471" lon="-0.173352">
        <ele>21.0</ele>
        <time>2018-06-10T07:28:43.085Z</time>
      </trkpt>
      <trkpt lat="38.963408" lon="-0.17331517">
        <ele>22.0</ele>
        <time>2018-06-10T07:28:44.085Z</time>
      </trkpt>
      <trkpt lat="38.963344" lon="-0.1732775">
        <ele>22.0</ele>
        <time>2018-06-10T07:28:45.085Z</time>
      </trkpt>
      <trkpt lat="38.96327983" lon="-0.17323717">
        <ele>22.0</ele>
        <time>2018-06-10T07:28:46.085Z</time>
      </trkpt>
      <trkpt lat="38.963216" lon="-0.17319667">
        <ele>22.0</ele>
        <time>2018-06-10T07:28:47.085Z</time>
      </trkpt>
      <trkpt lat="38.9631525" lon="-0.1731565">
        <ele>22.0</ele>
        <time>2018-06-10T07:28:48.085Z</time>
      </trkpt>
      <trkpt lat="38.96308917" lon="-0.1731175">
        <ele>22.0</ele>
        <time>2018-06-10T07:28:49.085Z</time>
      </trkpt>
      <trkpt lat="38.96302617" lon="-0.17307883">
        <ele>22.0</ele>
        <time>2018-06-10T07:28:50.085Z</time>
      </trkpt>
      <trkpt lat="38.96296233" lon="-0.17304033">
        <ele>22.0</ele>
        <time>2018-06-10T07:28:51.085Z</time>
      </trkpt>
      <trkpt lat="38.96289867" lon="-0.17300183">
        <ele>22.0</ele>
        <time>2018-06-10T07:28:52.085Z</time>
      </trkpt>
      <trkpt lat="38.96283417" lon="-0.17296283">
        <ele>22.0</ele>
        <time>2018-06-10T07:28:53.085Z</time>
      </trkpt>
      <trkpt lat="38.96276983" lon="-0.17292317">
        <ele>22.0</ele>
        <time>2018-06-10T07:28:54.085Z</time>
      </trkpt>
      <trkpt lat="38.962705" lon="-0.172883">
        <ele>22.0</ele>
        <time>2018-06-10T07:28:55.085Z</time>
      </trkpt>
      <trkpt lat="38.96264083" lon="-0.17284617">
        <ele>23.0</ele>
        <time>2018-06-10T07:28:56.085Z</time>
      </trkpt>
      <trkpt lat="38.9625775" lon="-0.172816">
        <ele>24.0</ele>
        <time>2018-06-10T07:28:57.085Z</time>
      </trkpt>
      <trkpt lat="38.96251417" lon="-0.1727945">
        <ele>24.0</ele>
        <time>2018-06-10T07:28:58.085Z</time>
      </trkpt>
      <trkpt lat="38.96244917" lon="-0.17278283">
        <ele>25.0</ele>
        <time>2018-06-10T07:28:59.085Z</time>
      </trkpt>
      <trkpt lat="38.96238217" lon="-0.17278883">
        <ele>24.0</ele>
        <time>2018-06-10T07:29:00.085Z</time>
      </trkpt>
      <trkpt lat="38.9623125" lon="-0.17280467">
        <ele>24.0</ele>
        <time>2018-06-10T07:29:01.085Z</time>
      </trkpt>
      <trkpt lat="38.96224" lon="-0.17281833">
        <ele>24.0</ele>
        <time>2018-06-10T07:29:02.085Z</time>
      </trkpt>
      <trkpt lat="38.96216533" lon="-0.17281117">
        <ele>24.0</ele>
        <time>2018-06-10T07:29:03.085Z</time>
      </trkpt>
      <trkpt lat="38.96209067" lon="-0.17277933">
        <ele>24.0</ele>
        <time>2018-06-10T07:29:04.085Z</time>
      </trkpt>
      <trkpt lat="38.962022" lon="-0.17272467">
        <ele>24.0</ele>
        <time>2018-06-10T07:29:05.085Z</time>
      </trkpt>
      <trkpt lat="38.96196367" lon="-0.17265267">
        <ele>24.0</ele>
        <time>2018-06-10T07:29:06.085Z</time>
      </trkpt>
      <trkpt lat="38.961915" lon="-0.17257233">
        <ele>24.0</ele>
        <time>2018-06-10T07:29:07.085Z</time>
      </trkpt>
      <trkpt lat="38.96187233" lon="-0.172489">
        <ele>23.0</ele>
        <time>2018-06-10T07:29:08.085Z</time>
      </trkpt>
      <trkpt lat="38.9618255" lon="-0.17240983">
        <ele>23.0</ele>
        <time>2018-06-10T07:29:09.085Z</time>
      </trkpt>
      <trkpt lat="38.961772" lon="-0.17234133">
        <ele>23.0</ele>
        <time>2018-06-10T07:29:10.085Z</time>
      </trkpt>
      <trkpt lat="38.96171" lon="-0.172286">
        <ele>23.0</ele>
        <time>2018-06-10T07:29:11.085Z</time>
      </trkpt>
      <trkpt lat="38.96164567" lon="-0.17223867">
        <ele>23.0</ele>
        <time>2018-06-10T07:29:12.085Z</time>
      </trkpt>
      <trkpt lat="38.96158" lon="-0.172195">
        <ele>23.0</ele>
        <time>2018-06-10T07:29:13.085Z</time>
      </trkpt>
      <trkpt lat="38.96151417" lon="-0.17215217">
        <ele>23.0</ele>
        <time>2018-06-10T07:29:14.085Z</time>
      </trkpt>
      <trkpt lat="38.9614475" lon="-0.17210983">
        <ele>23.0</ele>
        <time>2018-06-10T07:29:15.085Z</time>
      </trkpt>
      <trkpt lat="38.96138033" lon="-0.17206817">
        <ele>23.0</ele>
        <time>2018-06-10T07:29:16.085Z</time>
      </trkpt>
      <trkpt lat="38.96131233" lon="-0.17202667">
        <ele>23.0</ele>
        <time>2018-06-10T07:29:17.085Z</time>
      </trkpt>
      <trkpt lat="38.96124367" lon="-0.17198567">
        <ele>23.0</ele>
        <time>2018-06-10T07:29:18.085Z</time>
      </trkpt>
      <trkpt lat="38.96117483" lon="-0.171944">
        <ele>23.0</ele>
        <time>2018-06-10T07:29:19.085Z</time>
      </trkpt>
      <trkpt lat="38.96110583" lon="-0.1719015">
        <ele>23.0</ele>
        <time>2018-06-10T07:29:20.085Z</time>
      </trkpt>
      <trkpt lat="38.96103617" lon="-0.17185833">
        <ele>23.0</ele>
        <time>2018-06-10T07:29:21.085Z</time>
      </trkpt>
      <trkpt lat="38.96096617" lon="-0.17181483">
        <ele>23.0</ele>
        <time>2018-06-10T07:29:22.085Z</time>
      </trkpt>
      <trkpt lat="38.96089617" lon="-0.17177183">
        <ele>23.0</ele>
        <time>2018-06-10T07:29:23.085Z</time>
      </trkpt>
      <trkpt lat="38.9608265" lon="-0.17172917">
        <ele>23.0</ele>
        <time>2018-06-10T07:29:24.085Z</time>
      </trkpt>
      <trkpt lat="38.960757" lon="-0.17168683">
        <ele>23.0</ele>
        <time>2018-06-10T07:29:25.085Z</time>
      </trkpt>
      <trkpt lat="38.960687" lon="-0.17164617">
        <ele>24.0</ele>
        <time>2018-06-10T07:29:26.085Z</time>
      </trkpt>
      <trkpt lat="38.96061717" lon="-0.1716065">
        <ele>24.0</ele>
        <time>2018-06-10T07:29:27.085Z</time>
      </trkpt>
      <trkpt lat="38.960548" lon="-0.17156767">
        <ele>24.0</ele>
        <time>2018-06-10T07:29:28.085Z</time>
      </trkpt>
      <trkpt lat="38.96047967" lon="-0.17152733">
        <ele>24.0</ele>
        <time>2018-06-10T07:29:29.085Z</time>
      </trkpt>
      <trkpt lat="38.960412" lon="-0.17148583">
        <ele>24.0</ele>
        <time>2018-06-10T07:29:30.085Z</time>
      </trkpt>
      <trkpt lat="38.9603445" lon="-0.17144383">
        <ele>24.0</ele>
        <time>2018-06-10T07:29:31.085Z</time>
      </trkpt>
      <trkpt lat="38.9602765" lon="-0.171403">
        <ele>24.0</ele>
        <time>2018-06-10T07:29:32.085Z</time>
      </trkpt>
      <trkpt lat="38.9602085" lon="-0.17136283">
        <ele>24.0</ele>
        <time>2018-06-10T07:29:33.085Z</time>
      </trkpt>
      <trkpt lat="38.96014033" lon="-0.17132267">
        <ele>24.0</ele>
        <time>2018-06-10T07:29:34.085Z</time>
      </trkpt>
      <trkpt lat="38.96007233" lon="-0.171282">
        <ele>24.0</ele>
        <time>2018-06-10T07:29:35.085Z</time>
      </trkpt>
      <trkpt lat="38.9600045" lon="-0.17124183">
        <ele>24.0</ele>
        <time>2018-06-10T07:29:36.085Z</time>
      </trkpt>
      <trkpt lat="38.959937" lon="-0.17120317">
        <ele>24.0</ele>
        <time>2018-06-10T07:29:37.085Z</time>
      </trkpt>
      <trkpt lat="38.95987033" lon="-0.171164">
        <ele>24.0</ele>
        <time>2018-06-10T07:29:38.085Z</time>
      </trkpt>
      <trkpt lat="38.95980417" lon="-0.1711245">
        <ele>24.0</ele>
        <time>2018-06-10T07:29:39.085Z</time>
      </trkpt>
      <trkpt lat="38.95973833" lon="-0.171084">
        <ele>24.0</ele>
        <time>2018-06-10T07:29:40.085Z</time>
      </trkpt>
      <trkpt lat="38.95967183" lon="-0.17104367">
        <ele>24.0</ele>
        <time>2018-06-10T07:29:41.085Z</time>
      </trkpt>
      <trkpt lat="38.95960467" lon="-0.17100333">
        <ele>24.0</ele>
        <time>2018-06-10T07:29:42.085Z</time>
      </trkpt>
      <trkpt lat="38.95953683" lon="-0.170963">
        <ele>24.0</ele>
        <time>2018-06-10T07:29:43.085Z</time>
      </trkpt>
      <trkpt lat="38.95946917" lon="-0.17092283">
        <ele>24.0</ele>
        <time>2018-06-10T07:29:44.085Z</time>
      </trkpt>
      <trkpt lat="38.9594015" lon="-0.1708825">
        <ele>24.0</ele>
        <time>2018-06-10T07:29:45.085Z</time>
      </trkpt>
      <trkpt lat="38.959334" lon="-0.17084183">
        <ele>24.0</ele>
        <time>2018-06-10T07:29:46.085Z</time>
      </trkpt>
      <trkpt lat="38.95926667" lon="-0.17080067">
        <ele>24.0</ele>
        <time>2018-06-10T07:29:47.085Z</time>
      </trkpt>
      <trkpt lat="38.95919883" lon="-0.17075933">
        <ele>24.0</ele>
        <time>2018-06-10T07:29:48.085Z</time>
      </trkpt>
      <trkpt lat="38.95913083" lon="-0.17071833">
        <ele>24.0</ele>
        <time>2018-06-10T07:29:49.085Z</time>
      </trkpt>
      <trkpt lat="38.959063" lon="-0.17067767">
        <ele>24.0</ele>
        <time>2018-06-10T07:29:50.085Z</time>
      </trkpt>
      <trkpt lat="38.95899583" lon="-0.17063717">
        <ele>24.0</ele>
        <time>2018-06-10T07:29:51.085Z</time>
      </trkpt>
      <trkpt lat="38.958929" lon="-0.170597">
        <ele>24.0</ele>
        <time>2018-06-10T07:29:52.085Z</time>
      </trkpt>
      <trkpt lat="38.95886283" lon="-0.170557">
        <ele>24.0</ele>
        <time>2018-06-10T07:29:53.085Z</time>
      </trkpt>
      <trkpt lat="38.95879733" lon="-0.17051767">
        <ele>24.0</ele>
        <time>2018-06-10T07:29:54.085Z</time>
      </trkpt>
      <trkpt lat="38.95873267" lon="-0.17047783">
        <ele>24.0</ele>
        <time>2018-06-10T07:29:55.085Z</time>
      </trkpt>
      <trkpt lat="38.958668" lon="-0.17043833">
        <ele>24.0</ele>
        <time>2018-06-10T07:29:56.085Z</time>
      </trkpt>
      <trkpt lat="38.95860333" lon="-0.17039933">
        <ele>24.0</ele>
        <time>2018-06-10T07:29:57.085Z</time>
      </trkpt>
      <trkpt lat="38.958538" lon="-0.170361">
        <ele>24.0</ele>
        <time>2018-06-10T07:29:58.085Z</time>
      </trkpt>
      <trkpt lat="38.9584725" lon="-0.170322">
        <ele>24.0</ele>
        <time>2018-06-10T07:29:59.085Z</time>
      </trkpt>
      <trkpt lat="38.9584065" lon="-0.17028233">
        <ele>24.0</ele>
        <time>2018-06-10T07:30:00.085Z</time>
      </trkpt>
      <trkpt lat="38.95834" lon="-0.170242">
        <ele>24.0</ele>
        <time>2018-06-10T07:30:01.085Z</time>
      </trkpt>
      <trkpt lat="38.95827267" lon="-0.17020117">
        <ele>24.0</ele>
        <time>2018-06-10T07:30:02.085Z</time>
      </trkpt>
      <trkpt lat="38.958205" lon="-0.17016017">
        <ele>24.0</ele>
        <time>2018-06-10T07:30:03.085Z</time>
      </trkpt>
      <trkpt lat="38.95813717" lon="-0.17011933">
        <ele>24.0</ele>
        <time>2018-06-10T07:30:04.085Z</time>
      </trkpt>
      <trkpt lat="38.9580695" lon="-0.17007883">
        <ele>24.0</ele>
        <time>2018-06-10T07:30:05.085Z</time>
      </trkpt>
      <trkpt lat="38.9580015" lon="-0.17003917">
        <ele>24.0</ele>
        <time>2018-06-10T07:30:06.085Z</time>
      </trkpt>
      <trkpt lat="38.957934" lon="-0.17">
        <ele>24.0</ele>
        <time>2018-06-10T07:30:07.085Z</time>
      </trkpt>
      <trkpt lat="38.95786717" lon="-0.16996033">
        <ele>24.0</ele>
        <time>2018-06-10T07:30:08.085Z</time>
      </trkpt>
      <trkpt lat="38.957801" lon="-0.16991983">
        <ele>24.0</ele>
        <time>2018-06-10T07:30:09.085Z</time>
      </trkpt>
      <trkpt lat="38.957735" lon="-0.16987867">
        <ele>24.0</ele>
        <time>2018-06-10T07:30:10.085Z</time>
      </trkpt>
      <trkpt lat="38.95766917" lon="-0.16983933">
        <ele>24.0</ele>
        <time>2018-06-10T07:30:11.085Z</time>
      </trkpt>
      <trkpt lat="38.957604" lon="-0.169801">
        <ele>24.0</ele>
        <time>2018-06-10T07:30:12.085Z</time>
      </trkpt>
      <trkpt lat="38.95753917" lon="-0.169764">
        <ele>24.0</ele>
        <time>2018-06-10T07:30:13.085Z</time>
      </trkpt>
      <trkpt lat="38.95747467" lon="-0.16972633">
        <ele>24.0</ele>
        <time>2018-06-10T07:30:14.085Z</time>
      </trkpt>
      <trkpt lat="38.95740983" lon="-0.1696885">
        <ele>24.0</ele>
        <time>2018-06-10T07:30:15.085Z</time>
      </trkpt>
      <trkpt lat="38.957345" lon="-0.1696515">
        <ele>24.0</ele>
        <time>2018-06-10T07:30:16.085Z</time>
      </trkpt>
      <trkpt lat="38.95727983" lon="-0.16961567">
        <ele>24.0</ele>
        <time>2018-06-10T07:30:17.085Z</time>
      </trkpt>
      <trkpt lat="38.95721367" lon="-0.16958267">
        <ele>24.0</ele>
        <time>2018-06-10T07:30:18.085Z</time>
      </trkpt>
      <trkpt lat="38.95714633" lon="-0.16955417">
        <ele>24.0</ele>
        <time>2018-06-10T07:30:19.085Z</time>
      </trkpt>
      <trkpt lat="38.95707667" lon="-0.16953333">
        <ele>24.0</ele>
        <time>2018-06-10T07:30:20.085Z</time>
      </trkpt>
      <trkpt lat="38.95700533" lon="-0.169529">
        <ele>23.0</ele>
        <time>2018-06-10T07:30:21.085Z</time>
      </trkpt>
      <trkpt lat="38.95693567" lon="-0.16954583">
        <ele>23.0</ele>
        <time>2018-06-10T07:30:22.085Z</time>
      </trkpt>
      <trkpt lat="38.9568695" lon="-0.169581">
        <ele>23.0</ele>
        <time>2018-06-10T07:30:23.085Z</time>
      </trkpt>
      <trkpt lat="38.956806" lon="-0.16962317">
        <ele>24.0</ele>
        <time>2018-06-10T07:30:24.085Z</time>
      </trkpt>
      <trkpt lat="38.95674067" lon="-0.16966133">
        <ele>24.0</ele>
        <time>2018-06-10T07:30:25.085Z</time>
      </trkpt>
      <trkpt lat="38.9566725" lon="-0.16969183">
        <ele>24.0</ele>
        <time>2018-06-10T07:30:26.085Z</time>
      </trkpt>
      <trkpt lat="38.95660133" lon="-0.16970983">
        <ele>24.0</ele>
        <time>2018-06-10T07:30:27.085Z</time>
      </trkpt>
      <trkpt lat="38.95652933" lon="-0.16971683">
        <ele>24.0</ele>
        <time>2018-06-10T07:30:28.085Z</time>
      </trkpt>
      <trkpt lat="38.95645733" lon="-0.16971267">
        <ele>23.0</ele>
        <time>2018-06-10T07:30:29.085Z</time>
      </trkpt>
      <trkpt lat="38.95638683" lon="-0.1696965">
        <ele>23.0</ele>
        <time>2018-06-10T07:30:30.085Z</time>
      </trkpt>
      <trkpt lat="38.95631817" lon="-0.169665">
        <ele>24.0</ele>
        <time>2018-06-10T07:30:31.085Z</time>
      </trkpt>
      <trkpt lat="38.95625317" lon="-0.16961883">
        <ele>24.0</ele>
        <time>2018-06-10T07:30:32.085Z</time>
      </trkpt>
      <trkpt lat="38.95619383" lon="-0.169561">
        <ele>24.0</ele>
        <time>2018-06-10T07:30:33.085Z</time>
      </trkpt>
      <trkpt lat="38.95614183" lon="-0.1694935">
        <ele>23.0</ele>
        <time>2018-06-10T07:30:34.085Z</time>
      </trkpt>
      <trkpt lat="38.9560985" lon="-0.16941583">
        <ele>24.0</ele>
        <time>2018-06-10T07:30:35.085Z</time>
      </trkpt>
      <trkpt lat="38.95606333" lon="-0.16933117">
        <ele>24.0</ele>
        <time>2018-06-10T07:30:36.085Z</time>
      </trkpt>
      <trkpt lat="38.95603467" lon="-0.16924217">
        <ele>23.0</ele>
        <time>2018-06-10T07:30:37.085Z</time>
      </trkpt>
      <trkpt lat="38.9560085" lon="-0.16915217">
        <ele>23.0</ele>
        <time>2018-06-10T07:30:38.085Z</time>
      </trkpt>
      <trkpt lat="38.95597933" lon="-0.1690635">
        <ele>23.0</ele>
        <time>2018-06-10T07:30:39.085Z</time>
      </trkpt>
      <trkpt lat="38.95594133" lon="-0.16898017">
        <ele>23.0</ele>
        <time>2018-06-10T07:30:40.085Z</time>
      </trkpt>
      <trkpt lat="38.955894" lon="-0.1689045">
        <ele>23.0</ele>
        <time>2018-06-10T07:30:41.085Z</time>
      </trkpt>
      <trkpt lat="38.95583967" lon="-0.168835">
        <ele>23.0</ele>
        <time>2018-06-10T07:30:42.085Z</time>
      </trkpt>
      <trkpt lat="38.95578217" lon="-0.16876967">
        <ele>23.0</ele>
        <time>2018-06-10T07:30:43.085Z</time>
      </trkpt>
      <trkpt lat="38.955722" lon="-0.1687075">
        <ele>23.0</ele>
        <time>2018-06-10T07:30:44.085Z</time>
      </trkpt>
      <trkpt lat="38.95565967" lon="-0.16864917">
        <ele>23.0</ele>
        <time>2018-06-10T07:30:45.085Z</time>
      </trkpt>
      <trkpt lat="38.95559617" lon="-0.16859317">
        <ele>23.0</ele>
        <time>2018-06-10T07:30:46.085Z</time>
      </trkpt>
      <trkpt lat="38.95553217" lon="-0.16853883">
        <ele>24.0</ele>
        <time>2018-06-10T07:30:47.085Z</time>
      </trkpt>
      <trkpt lat="38.95546717" lon="-0.16848567">
        <ele>23.0</ele>
        <time>2018-06-10T07:30:48.085Z</time>
      </trkpt>
      <trkpt lat="38.955401" lon="-0.16843417">
        <ele>23.0</ele>
        <time>2018-06-10T07:30:49.085Z</time>
      </trkpt>
      <trkpt lat="38.955333" lon="-0.16838517">
        <ele>24.0</ele>
        <time>2018-06-10T07:30:50.085Z</time>
      </trkpt>
      <trkpt lat="38.95526417" lon="-0.16833883">
        <ele>24.0</ele>
        <time>2018-06-10T07:30:51.085Z</time>
      </trkpt>
      <trkpt lat="38.955195" lon="-0.1682945">
        <ele>24.0</ele>
        <time>2018-06-10T07:30:52.085Z</time>
      </trkpt>
      <trkpt lat="38.95512583" lon="-0.1682515">
        <ele>24.0</ele>
        <time>2018-06-10T07:30:53.085Z</time>
      </trkpt>
      <trkpt lat="38.95505667" lon="-0.16820867">
        <ele>24.0</ele>
        <time>2018-06-10T07:30:54.085Z</time>
      </trkpt>
      <trkpt lat="38.95498717" lon="-0.16816533">
        <ele>24.0</ele>
        <time>2018-06-10T07:30:55.085Z</time>
      </trkpt>
      <trkpt lat="38.9549175" lon="-0.16812133">
        <ele>24.0</ele>
        <time>2018-06-10T07:30:56.085Z</time>
      </trkpt>
      <trkpt lat="38.9548475" lon="-0.16807717">
        <ele>24.0</ele>
        <time>2018-06-10T07:30:57.085Z</time>
      </trkpt>
      <trkpt lat="38.95477683" lon="-0.16803433">
        <ele>24.0</ele>
        <time>2018-06-10T07:30:58.085Z</time>
      </trkpt>
      <trkpt lat="38.95470533" lon="-0.16799233">
        <ele>24.0</ele>
        <time>2018-06-10T07:30:59.085Z</time>
      </trkpt>
      <trkpt lat="38.95463333" lon="-0.16795083">
        <ele>24.0</ele>
        <time>2018-06-10T07:31:00.085Z</time>
      </trkpt>
      <trkpt lat="38.95456167" lon="-0.16790917">
        <ele>24.0</ele>
        <time>2018-06-10T07:31:01.085Z</time>
      </trkpt>
      <trkpt lat="38.95449017" lon="-0.16786733">
        <ele>24.0</ele>
        <time>2018-06-10T07:31:02.085Z</time>
      </trkpt>
      <trkpt lat="38.954419" lon="-0.16782517">
        <ele>24.0</ele>
        <time>2018-06-10T07:31:03.085Z</time>
      </trkpt>
      <trkpt lat="38.95434783" lon="-0.16778367">
        <ele>24.0</ele>
        <time>2018-06-10T07:31:04.085Z</time>
      </trkpt>
      <trkpt lat="38.954277" lon="-0.16774267">
        <ele>24.0</ele>
        <time>2018-06-10T07:31:05.085Z</time>
      </trkpt>
      <trkpt lat="38.95420633" lon="-0.167702">
        <ele>24.0</ele>
        <time>2018-06-10T07:31:06.085Z</time>
      </trkpt>
      <trkpt lat="38.95413633" lon="-0.16766083">
        <ele>24.0</ele>
        <time>2018-06-10T07:31:07.085Z</time>
      </trkpt>
      <trkpt lat="38.95406683" lon="-0.167619">
        <ele>24.0</ele>
        <time>2018-06-10T07:31:08.085Z</time>
      </trkpt>
      <trkpt lat="38.9539975" lon="-0.16757717">
        <ele>24.0</ele>
        <time>2018-06-10T07:31:09.085Z</time>
      </trkpt>
      <trkpt lat="38.95392883" lon="-0.16753533">
        <ele>24.0</ele>
        <time>2018-06-10T07:31:10.085Z</time>
      </trkpt>
      <trkpt lat="38.95386" lon="-0.1674945">
        <ele>25.0</ele>
        <time>2018-06-10T07:31:11.085Z</time>
      </trkpt>
      <trkpt lat="38.953791" lon="-0.1674555">
        <ele>25.0</ele>
        <time>2018-06-10T07:31:12.085Z</time>
      </trkpt>
      <trkpt lat="38.95372183" lon="-0.1674165">
        <ele>25.0</ele>
        <time>2018-06-10T07:31:13.085Z</time>
      </trkpt>
      <trkpt lat="38.9536525" lon="-0.1673765">
        <ele>25.0</ele>
        <time>2018-06-10T07:31:14.085Z</time>
      </trkpt>
      <trkpt lat="38.95358317" lon="-0.167335">
        <ele>25.0</ele>
        <time>2018-06-10T07:31:15.085Z</time>
      </trkpt>
      <trkpt lat="38.95351367" lon="-0.16729317">
        <ele>25.0</ele>
        <time>2018-06-10T07:31:16.085Z</time>
      </trkpt>
      <trkpt lat="38.95344367" lon="-0.16725133">
        <ele>25.0</ele>
        <time>2018-06-10T07:31:17.085Z</time>
      </trkpt>
      <trkpt lat="38.95337367" lon="-0.16720867">
        <ele>25.0</ele>
        <time>2018-06-10T07:31:18.085Z</time>
      </trkpt>
      <trkpt lat="38.9533035" lon="-0.1671655">
        <ele>25.0</ele>
        <time>2018-06-10T07:31:19.085Z</time>
      </trkpt>
      <trkpt lat="38.95323367" lon="-0.16712167">
        <ele>25.0</ele>
        <time>2018-06-10T07:31:20.085Z</time>
      </trkpt>
      <trkpt lat="38.95316383" lon="-0.167078">
        <ele>25.0</ele>
        <time>2018-06-10T07:31:21.085Z</time>
      </trkpt>
      <trkpt lat="38.9530945" lon="-0.1670345">
        <ele>25.0</ele>
        <time>2018-06-10T07:31:22.085Z</time>
      </trkpt>
      <trkpt lat="38.9530255" lon="-0.1669915">
        <ele>25.0</ele>
        <time>2018-06-10T07:31:23.085Z</time>
      </trkpt>
      <trkpt lat="38.9529565" lon="-0.16695017">
        <ele>26.0</ele>
        <time>2018-06-10T07:31:24.085Z</time>
      </trkpt>
      <trkpt lat="38.952888" lon="-0.16691067">
        <ele>26.0</ele>
        <time>2018-06-10T07:31:25.085Z</time>
      </trkpt>
      <trkpt lat="38.95281983" lon="-0.16687217">
        <ele>26.0</ele>
        <time>2018-06-10T07:31:26.085Z</time>
      </trkpt>
      <trkpt lat="38.9527525" lon="-0.16683317">
        <ele>26.0</ele>
        <time>2018-06-10T07:31:27.085Z</time>
      </trkpt>
      <trkpt lat="38.95268517" lon="-0.16679317">
        <ele>26.0</ele>
        <time>2018-06-10T07:31:28.085Z</time>
      </trkpt>
      <trkpt lat="38.95261833" lon="-0.166753">
        <ele>26.0</ele>
        <time>2018-06-10T07:31:29.085Z</time>
      </trkpt>
      <trkpt lat="38.95255133" lon="-0.16671283">
        <ele>26.0</ele>
        <time>2018-06-10T07:31:30.085Z</time>
      </trkpt>
      <trkpt lat="38.9524845" lon="-0.1666725">
        <ele>26.0</ele>
        <time>2018-06-10T07:31:31.085Z</time>
      </trkpt>
      <trkpt lat="38.95241767" lon="-0.16663133">
        <ele>26.0</ele>
        <time>2018-06-10T07:31:32.085Z</time>
      </trkpt>
      <trkpt lat="38.95235083" lon="-0.1665895">
        <ele>26.0</ele>
        <time>2018-06-10T07:31:33.085Z</time>
      </trkpt>
      <trkpt lat="38.9522835" lon="-0.1665475">
        <ele>27.0</ele>
        <time>2018-06-10T07:31:34.085Z</time>
      </trkpt>
      <trkpt lat="38.95221617" lon="-0.166506">
        <ele>27.0</ele>
        <time>2018-06-10T07:31:35.085Z</time>
      </trkpt>
      <trkpt lat="38.95214867" lon="-0.16646517">
        <ele>27.0</ele>
        <time>2018-06-10T07:31:36.085Z</time>
      </trkpt>
      <trkpt lat="38.95208133" lon="-0.16642483">
        <ele>27.0</ele>
        <time>2018-06-10T07:31:37.085Z</time>
      </trkpt>
      <trkpt lat="38.9520135" lon="-0.16638467">
        <ele>27.0</ele>
        <time>2018-06-10T07:31:38.085Z</time>
      </trkpt>
      <trkpt lat="38.95194583" lon="-0.1663445">
        <ele>27.0</ele>
        <time>2018-06-10T07:31:39.085Z</time>
      </trkpt>
      <trkpt lat="38.9518785" lon="-0.166304">
        <ele>27.0</ele>
        <time>2018-06-10T07:31:40.085Z</time>
      </trkpt>
      <trkpt lat="38.95181183" lon="-0.16626383">
        <ele>27.0</ele>
        <time>2018-06-10T07:31:41.085Z</time>
      </trkpt>
      <trkpt lat="38.951746" lon="-0.16622433">
        <ele>27.0</ele>
        <time>2018-06-10T07:31:42.085Z</time>
      </trkpt>
      <trkpt lat="38.95168067" lon="-0.16618617">
        <ele>27.0</ele>
        <time>2018-06-10T07:31:43.085Z</time>
      </trkpt>
      <trkpt lat="38.9516155" lon="-0.16614817">
        <ele>27.0</ele>
        <time>2018-06-10T07:31:44.085Z</time>
      </trkpt>
      <trkpt lat="38.9515505" lon="-0.16611">
        <ele>27.0</ele>
        <time>2018-06-10T07:31:45.085Z</time>
      </trkpt>
      <trkpt lat="38.95148567" lon="-0.16607117">
        <ele>27.0</ele>
        <time>2018-06-10T07:31:46.085Z</time>
      </trkpt>
      <trkpt lat="38.951421" lon="-0.16603167">
        <ele>27.0</ele>
        <time>2018-06-10T07:31:47.085Z</time>
      </trkpt>
      <trkpt lat="38.9513555" lon="-0.16599283">
        <ele>27.0</ele>
        <time>2018-06-10T07:31:48.085Z</time>
      </trkpt>
      <trkpt lat="38.95128983" lon="-0.16595383">
        <ele>27.0</ele>
        <time>2018-06-10T07:31:49.085Z</time>
      </trkpt>
      <trkpt lat="38.95122383" lon="-0.16591433">
        <ele>27.0</ele>
        <time>2018-06-10T07:31:50.085Z</time>
      </trkpt>
      <trkpt lat="38.95115717" lon="-0.16587433">
        <ele>27.0</ele>
        <time>2018-06-10T07:31:51.085Z</time>
      </trkpt>
      <trkpt lat="38.95108983" lon="-0.165834">
        <ele>28.0</ele>
        <time>2018-06-10T07:31:52.085Z</time>
      </trkpt>
      <trkpt lat="38.951022" lon="-0.16579283">
        <ele>28.0</ele>
        <time>2018-06-10T07:31:53.085Z</time>
      </trkpt>
      <trkpt lat="38.95095383" lon="-0.16575133">
        <ele>28.0</ele>
        <time>2018-06-10T07:31:54.085Z</time>
      </trkpt>
      <trkpt lat="38.95088533" lon="-0.1657105">
        <ele>28.0</ele>
        <time>2018-06-10T07:31:55.085Z</time>
      </trkpt>
      <trkpt lat="38.95081667" lon="-0.16566983">
        <ele>28.0</ele>
        <time>2018-06-10T07:31:56.085Z</time>
      </trkpt>
      <trkpt lat="38.950748" lon="-0.16562833">
        <ele>28.0</ele>
        <time>2018-06-10T07:31:57.085Z</time>
      </trkpt>
      <trkpt lat="38.95067933" lon="-0.165586">
        <ele>28.0</ele>
        <time>2018-06-10T07:31:58.085Z</time>
      </trkpt>
      <trkpt lat="38.95061083" lon="-0.16554383">
        <ele>28.0</ele>
        <time>2018-06-10T07:31:59.085Z</time>
      </trkpt>
      <trkpt lat="38.95054317" lon="-0.16550233">
        <ele>28.0</ele>
        <time>2018-06-10T07:32:00.085Z</time>
      </trkpt>
      <trkpt lat="38.95047667" lon="-0.16546133">
        <ele>28.0</ele>
        <time>2018-06-10T07:32:01.085Z</time>
      </trkpt>
      <trkpt lat="38.9504105" lon="-0.16542117">
        <ele>28.0</ele>
        <time>2018-06-10T07:32:02.085Z</time>
      </trkpt>
      <trkpt lat="38.95034417" lon="-0.16538117">
        <ele>28.0</ele>
        <time>2018-06-10T07:32:03.085Z</time>
      </trkpt>
      <trkpt lat="38.95027733" lon="-0.16534133">
        <ele>28.0</ele>
        <time>2018-06-10T07:32:04.085Z</time>
      </trkpt>
      <trkpt lat="38.95021033" lon="-0.16530117">
        <ele>28.0</ele>
        <time>2018-06-10T07:32:05.085Z</time>
      </trkpt>
      <trkpt lat="38.950143" lon="-0.1652605">
        <ele>28.0</ele>
        <time>2018-06-10T07:32:06.085Z</time>
      </trkpt>
      <trkpt lat="38.95007533" lon="-0.16522">
        <ele>28.0</ele>
        <time>2018-06-10T07:32:07.085Z</time>
      </trkpt>
      <trkpt lat="38.95000717" lon="-0.16517983">
        <ele>28.0</ele>
        <time>2018-06-10T07:32:08.085Z</time>
      </trkpt>
      <trkpt lat="38.94993883" lon="-0.16513983">
        <ele>28.0</ele>
        <time>2018-06-10T07:32:09.085Z</time>
      </trkpt>
      <trkpt lat="38.94986983" lon="-0.16509933">
        <ele>27.0</ele>
        <time>2018-06-10T07:32:10.085Z</time>
      </trkpt>
      <trkpt lat="38.94980083" lon="-0.165058">
        <ele>27.0</ele>
        <time>2018-06-10T07:32:11.085Z</time>
      </trkpt>
      <trkpt lat="38.94973183" lon="-0.16501733">
        <ele>27.0</ele>
        <time>2018-06-10T07:32:12.085Z</time>
      </trkpt>
      <trkpt lat="38.94966317" lon="-0.16497667">
        <ele>27.0</ele>
        <time>2018-06-10T07:32:13.085Z</time>
      </trkpt>
      <trkpt lat="38.949595" lon="-0.1649365">
        <ele>27.0</ele>
        <time>2018-06-10T07:32:14.085Z</time>
      </trkpt>
      <trkpt lat="38.9495275" lon="-0.16489467">
        <ele>27.0</ele>
        <time>2018-06-10T07:32:15.085Z</time>
      </trkpt>
      <trkpt lat="38.94946033" lon="-0.1648525">
        <ele>27.0</ele>
        <time>2018-06-10T07:32:16.085Z</time>
      </trkpt>
      <trkpt lat="38.94939433" lon="-0.16480967">
        <ele>27.0</ele>
        <time>2018-06-10T07:32:17.085Z</time>
      </trkpt>
      <trkpt lat="38.94932967" lon="-0.16476767">
        <ele>27.0</ele>
        <time>2018-06-10T07:32:18.085Z</time>
      </trkpt>
      <trkpt lat="38.94926683" lon="-0.16472533">
        <ele>27.0</ele>
        <time>2018-06-10T07:32:19.085Z</time>
      </trkpt>
      <trkpt lat="38.94920517" lon="-0.164683">
        <ele>27.0</ele>
        <time>2018-06-10T07:32:20.085Z</time>
      </trkpt>
      <trkpt lat="38.949144" lon="-0.16464067">
        <ele>27.0</ele>
        <time>2018-06-10T07:32:21.085Z</time>
      </trkpt>
      <trkpt lat="38.94908233" lon="-0.16459917">
        <ele>27.0</ele>
        <time>2018-06-10T07:32:22.085Z</time>
      </trkpt>
      <trkpt lat="38.94901933" lon="-0.16455917">
        <ele>27.0</ele>
        <time>2018-06-10T07:32:23.085Z</time>
      </trkpt>
      <trkpt lat="38.94895533" lon="-0.16451983">
        <ele>27.0</ele>
        <time>2018-06-10T07:32:24.085Z</time>
      </trkpt>
      <trkpt lat="38.9488905" lon="-0.1644805">
        <ele>26.0</ele>
        <time>2018-06-10T07:32:25.085Z</time>
      </trkpt>
      <trkpt lat="38.94882533" lon="-0.16443983">
        <ele>26.0</ele>
        <time>2018-06-10T07:32:26.085Z</time>
      </trkpt>
      <trkpt lat="38.94875967" lon="-0.16439867">
        <ele>27.0</ele>
        <time>2018-06-10T07:32:27.085Z</time>
      </trkpt>
      <trkpt lat="38.94869433" lon="-0.16435783">
        <ele>27.0</ele>
        <time>2018-06-10T07:32:28.085Z</time>
      </trkpt>
      <trkpt lat="38.9486295" lon="-0.164318">
        <ele>27.0</ele>
        <time>2018-06-10T07:32:29.085Z</time>
      </trkpt>
      <trkpt lat="38.94856617" lon="-0.16427917">
        <ele>26.0</ele>
        <time>2018-06-10T07:32:30.085Z</time>
      </trkpt>
      <trkpt lat="38.948504" lon="-0.1642415">
        <ele>27.0</ele>
        <time>2018-06-10T07:32:31.085Z</time>
      </trkpt>
      <trkpt lat="38.94844183" lon="-0.16420533">
        <ele>27.0</ele>
        <time>2018-06-10T07:32:32.085Z</time>
      </trkpt>
      <trkpt lat="38.94837917" lon="-0.16416917">
        <ele>27.0</ele>
        <time>2018-06-10T07:32:33.085Z</time>
      </trkpt>
      <trkpt lat="38.94831633" lon="-0.16413133">
        <ele>27.0</ele>
        <time>2018-06-10T07:32:34.085Z</time>
      </trkpt>
      <trkpt lat="38.94825283" lon="-0.16409267">
        <ele>27.0</ele>
        <time>2018-06-10T07:32:35.085Z</time>
      </trkpt>
      <trkpt lat="38.94818833" lon="-0.16405383">
        <ele>27.0</ele>
        <time>2018-06-10T07:32:36.085Z</time>
      </trkpt>
      <trkpt lat="38.94812317" lon="-0.16401633">
        <ele>26.0</ele>
        <time>2018-06-10T07:32:37.085Z</time>
      </trkpt>
      <trkpt lat="38.9480575" lon="-0.1639785">
        <ele>26.0</ele>
        <time>2018-06-10T07:32:38.085Z</time>
      </trkpt>
      <trkpt lat="38.94799167" lon="-0.16393967">
        <ele>26.0</ele>
        <time>2018-06-10T07:32:39.085Z</time>
      </trkpt>
      <trkpt lat="38.947925" lon="-0.16389883">
        <ele>26.0</ele>
        <time>2018-06-10T07:32:40.085Z</time>
      </trkpt>
      <trkpt lat="38.94785883" lon="-0.163858">
        <ele>26.0</ele>
        <time>2018-06-10T07:32:41.085Z</time>
      </trkpt>
      <trkpt lat="38.94779167" lon="-0.163813">
        <ele>27.0</ele>
        <time>2018-06-10T07:32:42.085Z</time>
      </trkpt>
      <trkpt lat="38.94772433" lon="-0.16376833">
        <ele>27.0</ele>
        <time>2018-06-10T07:32:43.085Z</time>
      </trkpt>
      <trkpt lat="38.94765567" lon="-0.16372317">
        <ele>27.0</ele>
        <time>2018-06-10T07:32:44.085Z</time>
      </trkpt>
      <trkpt lat="38.94758583" lon="-0.16368233">
        <ele>27.0</ele>
        <time>2018-06-10T07:32:45.085Z</time>
      </trkpt>
      <trkpt lat="38.94751533" lon="-0.16363967">
        <ele>28.0</ele>
        <time>2018-06-10T07:32:46.085Z</time>
      </trkpt>
      <trkpt lat="38.94744367" lon="-0.16359517">
        <ele>28.0</ele>
        <time>2018-06-10T07:32:47.085Z</time>
      </trkpt>
      <trkpt lat="38.947372" lon="-0.16354917">
        <ele>29.0</ele>
        <time>2018-06-10T07:32:48.085Z</time>
      </trkpt>
      <trkpt lat="38.94729983" lon="-0.1635045">
        <ele>29.0</ele>
        <time>2018-06-10T07:32:49.085Z</time>
      </trkpt>
      <trkpt lat="38.947228" lon="-0.1634595">
        <ele>29.0</ele>
        <time>2018-06-10T07:32:50.085Z</time>
      </trkpt>
      <trkpt lat="38.94715633" lon="-0.16341417">
        <ele>30.0</ele>
        <time>2018-06-10T07:32:51.085Z</time>
      </trkpt>
      <trkpt lat="38.94708417" lon="-0.16336733">
        <ele>30.0</ele>
        <time>2018-06-10T07:32:52.085Z</time>
      </trkpt>
      <trkpt lat="38.94701267" lon="-0.16332217">
        <ele>29.0</ele>
        <time>2018-06-10T07:32:53.085Z</time>
      </trkpt>
      <trkpt lat="38.94694167" lon="-0.16327883">
        <ele>28.0</ele>
        <time>2018-06-10T07:32:54.085Z</time>
      </trkpt>
      <trkpt lat="38.9468705" lon="-0.163236">
        <ele>29.0</ele>
        <time>2018-06-10T07:32:55.085Z</time>
      </trkpt>
      <trkpt lat="38.9467985" lon="-0.16319117">
        <ele>29.0</ele>
        <time>2018-06-10T07:32:56.085Z</time>
      </trkpt>
      <trkpt lat="38.94672683" lon="-0.163142">
        <ele>28.0</ele>
        <time>2018-06-10T07:32:57.085Z</time>
      </trkpt>
      <trkpt lat="38.94665583" lon="-0.16309133">
        <ele>27.0</ele>
        <time>2018-06-10T07:32:58.085Z</time>
      </trkpt>
      <trkpt lat="38.9465865" lon="-0.16303933">
        <ele>27.0</ele>
        <time>2018-06-10T07:32:59.085Z</time>
      </trkpt>
      <trkpt lat="38.9465195" lon="-0.16298633">
        <ele>27.0</ele>
        <time>2018-06-10T07:33:00.085Z</time>
      </trkpt>
      <trkpt lat="38.946456" lon="-0.16293033">
        <ele>26.0</ele>
        <time>2018-06-10T07:33:01.085Z</time>
      </trkpt>
      <trkpt lat="38.946395" lon="-0.16287317">
        <ele>26.0</ele>
        <time>2018-06-10T07:33:02.085Z</time>
      </trkpt>
      <trkpt lat="38.94633667" lon="-0.162815">
        <ele>26.0</ele>
        <time>2018-06-10T07:33:03.085Z</time>
      </trkpt>
      <trkpt lat="38.94628267" lon="-0.16276017">
        <ele>25.0</ele>
        <time>2018-06-10T07:33:04.085Z</time>
      </trkpt>
      <trkpt lat="38.9462365" lon="-0.16270617">
        <ele>23.0</ele>
        <time>2018-06-10T07:33:05.085Z</time>
      </trkpt>
      <trkpt lat="38.9461965" lon="-0.16265367">
        <ele>22.0</ele>
        <time>2018-06-10T07:33:06.085Z</time>
      </trkpt>
      <trkpt lat="38.9461605" lon="-0.16260367">
        <ele>22.0</ele>
        <time>2018-06-10T07:33:07.085Z</time>
      </trkpt>
      <trkpt lat="38.94612717" lon="-0.16255783">
        <ele>22.0</ele>
        <time>2018-06-10T07:33:08.085Z</time>
      </trkpt>
      <trkpt lat="38.946098" lon="-0.16251883">
        <ele>22.0</ele>
        <time>2018-06-10T07:33:09.085Z</time>
      </trkpt>
      <trkpt lat="38.946074" lon="-0.16248317">
        <ele>21.0</ele>
        <time>2018-06-10T07:33:10.085Z</time>
      </trkpt>
      <trkpt lat="38.94605517" lon="-0.16245133">
        <ele>21.0</ele>
        <time>2018-06-10T07:33:11.085Z</time>
      </trkpt>
      <trkpt lat="38.946044" lon="-0.16242433">
        <ele>22.0</ele>
        <time>2018-06-10T07:33:12.085Z</time>
      </trkpt>
      <trkpt lat="38.946035" lon="-0.162402">
        <ele>22.0</ele>
        <time>2018-06-10T07:33:13.085Z</time>
      </trkpt>
      <trkpt lat="38.9460285" lon="-0.16238467">
        <ele>21.0</ele>
        <time>2018-06-10T07:33:14.085Z</time>
      </trkpt>
      <trkpt lat="38.94602167" lon="-0.162372">
        <ele>22.0</ele>
        <time>2018-06-10T07:33:15.085Z</time>
      </trkpt>
      <trkpt lat="38.94607017" lon="-0.16235317">
        <ele>30.0</ele>
        <time>2018-06-10T07:33:16.089Z</time>
      </trkpt>
      <trkpt lat="38.94607383" lon="-0.16235017">
        <ele>30.0</ele>
        <time>2018-06-10T07:33:17.089Z</time>
      </trkpt>
      <trkpt lat="38.94606533" lon="-0.16226783">
        <ele>34.0</ele>
        <time>2018-06-10T07:33:18.112Z</time>
      </trkpt>
      <trkpt lat="38.946059" lon="-0.1622425">
        <ele>34.0</ele>
        <time>2018-06-10T07:33:19.112Z</time>
      </trkpt>
      <trkpt lat="38.94605083" lon="-0.16221533">
        <ele>35.0</ele>
        <time>2018-06-10T07:33:20.112Z</time>
      </trkpt>
      <trkpt lat="38.94604033" lon="-0.16218317">
        <ele>35.0</ele>
        <time>2018-06-10T07:33:21.112Z</time>
      </trkpt>
      <trkpt lat="38.946025" lon="-0.16214583">
        <ele>35.0</ele>
        <time>2018-06-10T07:33:22.112Z</time>
      </trkpt>
      <trkpt lat="38.946005" lon="-0.16210583">
        <ele>34.0</ele>
        <time>2018-06-10T07:33:23.112Z</time>
      </trkpt>
      <trkpt lat="38.94597983" lon="-0.16206033">
        <ele>34.0</ele>
        <time>2018-06-10T07:33:24.112Z</time>
      </trkpt>
      <trkpt lat="38.9459465" lon="-0.1620045">
        <ele>34.0</ele>
        <time>2018-06-10T07:33:25.112Z</time>
      </trkpt>
      <trkpt lat="38.94590867" lon="-0.16194317">
        <ele>34.0</ele>
        <time>2018-06-10T07:33:26.112Z</time>
      </trkpt>
      <trkpt lat="38.945872" lon="-0.16187983">
        <ele>34.0</ele>
        <time>2018-06-10T07:33:27.112Z</time>
      </trkpt>
      <trkpt lat="38.9458395" lon="-0.1618195">
        <ele>34.0</ele>
        <time>2018-06-10T07:33:28.112Z</time>
      </trkpt>
      <trkpt lat="38.94580383" lon="-0.161759">
        <ele>34.0</ele>
        <time>2018-06-10T07:33:29.112Z</time>
      </trkpt>
      <trkpt lat="38.945758" lon="-0.16169533">
        <ele>33.0</ele>
        <time>2018-06-10T07:33:30.112Z</time>
      </trkpt>
      <trkpt lat="38.94571117" lon="-0.1616285">
        <ele>33.0</ele>
        <time>2018-06-10T07:33:31.112Z</time>
      </trkpt>
      <trkpt lat="38.94567183" lon="-0.16155633">
        <ele>34.0</ele>
        <time>2018-06-10T07:33:32.112Z</time>
      </trkpt>
      <trkpt lat="38.94564233" lon="-0.1614825">
        <ele>34.0</ele>
        <time>2018-06-10T07:33:33.112Z</time>
      </trkpt>
      <trkpt lat="38.94561467" lon="-0.16140667">
        <ele>34.0</ele>
        <time>2018-06-10T07:33:34.112Z</time>
      </trkpt>
      <trkpt lat="38.94558917" lon="-0.1613305">
        <ele>34.0</ele>
        <time>2018-06-10T07:33:35.112Z</time>
      </trkpt>
      <trkpt lat="38.945565" lon="-0.16125417">
        <ele>35.0</ele>
        <time>2018-06-10T07:33:36.112Z</time>
      </trkpt>
      <trkpt lat="38.94553883" lon="-0.1611775">
        <ele>35.0</ele>
        <time>2018-06-10T07:33:37.112Z</time>
      </trkpt>
      <trkpt lat="38.94551083" lon="-0.16110167">
        <ele>36.0</ele>
        <time>2018-06-10T07:33:38.112Z</time>
      </trkpt>
      <trkpt lat="38.94547917" lon="-0.16102433">
        <ele>36.0</ele>
        <time>2018-06-10T07:33:39.112Z</time>
      </trkpt>
      <trkpt lat="38.94544783" lon="-0.160945">
        <ele>36.0</ele>
        <time>2018-06-10T07:33:40.112Z</time>
      </trkpt>
      <trkpt lat="38.94541483" lon="-0.1608615">
        <ele>36.0</ele>
        <time>2018-06-10T07:33:41.112Z</time>
      </trkpt>
      <trkpt lat="38.94538367" lon="-0.160779">
        <ele>37.0</ele>
        <time>2018-06-10T07:33:42.112Z</time>
      </trkpt>
      <trkpt lat="38.94535017" lon="-0.16069717">
        <ele>37.0</ele>
        <time>2018-06-10T07:33:43.112Z</time>
      </trkpt>
      <trkpt lat="38.94531" lon="-0.160613">
        <ele>36.0</ele>
        <time>2018-06-10T07:33:44.112Z</time>
      </trkpt>
      <trkpt lat="38.94526983" lon="-0.1605265">
        <ele>35.0</ele>
        <time>2018-06-10T07:33:45.112Z</time>
      </trkpt>
      <trkpt lat="38.94523217" lon="-0.1604345">
        <ele>34.0</ele>
        <time>2018-06-10T07:33:46.112Z</time>
      </trkpt>
      <trkpt lat="38.94520117" lon="-0.16034417">
        <ele>36.0</ele>
        <time>2018-06-10T07:33:47.112Z</time>
      </trkpt>
      <trkpt lat="38.945139" lon="-0.16016267">
        <ele>35.0</ele>
        <time>2018-06-10T07:33:48.112Z</time>
      </trkpt>
      <trkpt lat="38.945139" lon="-0.16016267">
        <ele>35.0</ele>
        <time>2018-06-10T07:33:49.112Z</time>
      </trkpt>
      <trkpt lat="38.94510283" lon="-0.16006917">
        <ele>34.0</ele>
        <time>2018-06-10T07:33:50.112Z</time>
      </trkpt>
      <trkpt lat="38.9450645" lon="-0.15997383">
        <ele>34.0</ele>
        <time>2018-06-10T07:33:51.112Z</time>
      </trkpt>
      <trkpt lat="38.94502383" lon="-0.15987733">
        <ele>33.0</ele>
        <time>2018-06-10T07:33:52.112Z</time>
      </trkpt>
      <trkpt lat="38.944945" lon="-0.15968583">
        <ele>33.0</ele>
        <time>2018-06-10T07:33:53.112Z</time>
      </trkpt>
      <trkpt lat="38.94490467" lon="-0.1595895">
        <ele>33.0</ele>
        <time>2018-06-10T07:33:54.112Z</time>
      </trkpt>
      <trkpt lat="38.94486567" lon="-0.15949317">
        <ele>33.0</ele>
        <time>2018-06-10T07:33:55.112Z</time>
      </trkpt>
      <trkpt lat="38.94486567" lon="-0.15949317">
        <ele>33.0</ele>
        <time>2018-06-10T07:33:56.112Z</time>
      </trkpt>
      <trkpt lat="38.9448265" lon="-0.15939633">
        <ele>33.0</ele>
        <time>2018-06-10T07:33:57.112Z</time>
      </trkpt>
      <trkpt lat="38.94478767" lon="-0.1592995">
        <ele>33.0</ele>
        <time>2018-06-10T07:33:58.112Z</time>
      </trkpt>
      <trkpt lat="38.94474633" lon="-0.159201">
        <ele>33.0</ele>
        <time>2018-06-10T07:33:59.112Z</time>
      </trkpt>
      <trkpt lat="38.94470083" lon="-0.15909917">
        <ele>32.0</ele>
        <time>2018-06-10T07:34:00.112Z</time>
      </trkpt>
      <trkpt lat="38.94461683" lon="-0.15889833">
        <ele>32.0</ele>
        <time>2018-06-10T07:34:01.112Z</time>
      </trkpt>
      <trkpt lat="38.94461683" lon="-0.15889833">
        <ele>32.0</ele>
        <time>2018-06-10T07:34:02.112Z</time>
      </trkpt>
      <trkpt lat="38.94457267" lon="-0.15879633">
        <ele>32.0</ele>
        <time>2018-06-10T07:34:03.112Z</time>
      </trkpt>
      <trkpt lat="38.9445215" lon="-0.15868867">
        <ele>32.0</ele>
        <time>2018-06-10T07:34:04.112Z</time>
      </trkpt>
      <trkpt lat="38.94446667" lon="-0.15857717">
        <ele>30.0</ele>
        <time>2018-06-10T07:34:05.112Z</time>
      </trkpt>
      <trkpt lat="38.94441733" lon="-0.15846833">
        <ele>30.0</ele>
        <time>2018-06-10T07:34:06.112Z</time>
      </trkpt>
      <trkpt lat="38.9443715" lon="-0.15836533">
        <ele>31.0</ele>
        <time>2018-06-10T07:34:07.112Z</time>
      </trkpt>
      <trkpt lat="38.94432983" lon="-0.158267">
        <ele>31.0</ele>
        <time>2018-06-10T07:34:08.112Z</time>
      </trkpt>
      <trkpt lat="38.94428917" lon="-0.15817267">
        <ele>32.0</ele>
        <time>2018-06-10T07:34:09.112Z</time>
      </trkpt>
      <trkpt lat="38.9442495" lon="-0.15807933">
        <ele>32.0</ele>
        <time>2018-06-10T07:34:10.112Z</time>
      </trkpt>
      <trkpt lat="38.94420783" lon="-0.157988">
        <ele>32.0</ele>
        <time>2018-06-10T07:34:11.112Z</time>
      </trkpt>
      <trkpt lat="38.944163" lon="-0.1579005">
        <ele>32.0</ele>
        <time>2018-06-10T07:34:12.112Z</time>
      </trkpt>
      <trkpt lat="38.9441155" lon="-0.15781517">
        <ele>32.0</ele>
        <time>2018-06-10T07:34:13.112Z</time>
      </trkpt>
      <trkpt lat="38.94406117" lon="-0.15773017">
        <ele>31.0</ele>
        <time>2018-06-10T07:34:14.112Z</time>
      </trkpt>
      <trkpt lat="38.94400267" lon="-0.15764517">
        <ele>30.0</ele>
        <time>2018-06-10T07:34:15.112Z</time>
      </trkpt>
      <trkpt lat="38.94393667" lon="-0.15756183">
        <ele>29.0</ele>
        <time>2018-06-10T07:34:16.112Z</time>
      </trkpt>
      <trkpt lat="38.94387133" lon="-0.15748183">
        <ele>29.0</ele>
        <time>2018-06-10T07:34:17.112Z</time>
      </trkpt>
      <trkpt lat="38.943805" lon="-0.15740433">
        <ele>29.0</ele>
        <time>2018-06-10T07:34:18.112Z</time>
      </trkpt>
      <trkpt lat="38.94373983" lon="-0.15733133">
        <ele>29.0</ele>
        <time>2018-06-10T07:34:19.112Z</time>
      </trkpt>
      <trkpt lat="38.94367417" lon="-0.15726283">
        <ele>30.0</ele>
        <time>2018-06-10T07:34:20.112Z</time>
      </trkpt>
      <trkpt lat="38.94360933" lon="-0.15719867">
        <ele>30.0</ele>
        <time>2018-06-10T07:34:21.112Z</time>
      </trkpt>
      <trkpt lat="38.9435455" lon="-0.15713717">
        <ele>30.0</ele>
        <time>2018-06-10T07:34:22.112Z</time>
      </trkpt>
      <trkpt lat="38.94348233" lon="-0.15707883">
        <ele>30.0</ele>
        <time>2018-06-10T07:34:23.112Z</time>
      </trkpt>
      <trkpt lat="38.943419" lon="-0.157022">
        <ele>30.0</ele>
        <time>2018-06-10T07:34:24.112Z</time>
      </trkpt>
      <trkpt lat="38.943356" lon="-0.15696517">
        <ele>31.0</ele>
        <time>2018-06-10T07:34:25.112Z</time>
      </trkpt>
      <trkpt lat="38.94329333" lon="-0.156907">
        <ele>31.0</ele>
        <time>2018-06-10T07:34:26.112Z</time>
      </trkpt>
      <trkpt lat="38.943231" lon="-0.15684817">
        <ele>31.0</ele>
        <time>2018-06-10T07:34:27.112Z</time>
      </trkpt>
      <trkpt lat="38.94316833" lon="-0.15679">
        <ele>31.0</ele>
        <time>2018-06-10T07:34:28.112Z</time>
      </trkpt>
      <trkpt lat="38.94310567" lon="-0.15673217">
        <ele>31.0</ele>
        <time>2018-06-10T07:34:29.112Z</time>
      </trkpt>
      <trkpt lat="38.94304333" lon="-0.15667483">
        <ele>31.0</ele>
        <time>2018-06-10T07:34:30.112Z</time>
      </trkpt>
      <trkpt lat="38.94298067" lon="-0.1566185">
        <ele>31.0</ele>
        <time>2018-06-10T07:34:31.112Z</time>
      </trkpt>
      <trkpt lat="38.94291767" lon="-0.15656317">
        <ele>31.0</ele>
        <time>2018-06-10T07:34:32.112Z</time>
      </trkpt>
      <trkpt lat="38.94285433" lon="-0.15650817">
        <ele>31.0</ele>
        <time>2018-06-10T07:34:33.112Z</time>
      </trkpt>
      <trkpt lat="38.9427925" lon="-0.15645467">
        <ele>31.0</ele>
        <time>2018-06-10T07:34:34.112Z</time>
      </trkpt>
      <trkpt lat="38.9427315" lon="-0.156402">
        <ele>30.0</ele>
        <time>2018-06-10T07:34:35.112Z</time>
      </trkpt>
      <trkpt lat="38.94267033" lon="-0.156346">
        <ele>31.0</ele>
        <time>2018-06-10T07:34:36.112Z</time>
      </trkpt>
      <trkpt lat="38.94260867" lon="-0.15628717">
        <ele>32.0</ele>
        <time>2018-06-10T07:34:37.112Z</time>
      </trkpt>
      <trkpt lat="38.942547" lon="-0.156227">
        <ele>32.0</ele>
        <time>2018-06-10T07:34:38.112Z</time>
      </trkpt>
      <trkpt lat="38.942486" lon="-0.15616883">
        <ele>33.0</ele>
        <time>2018-06-10T07:34:39.112Z</time>
      </trkpt>
      <trkpt lat="38.9424255" lon="-0.15611167">
        <ele>33.0</ele>
        <time>2018-06-10T07:34:40.112Z</time>
      </trkpt>
      <trkpt lat="38.94236383" lon="-0.15605567">
        <ele>33.0</ele>
        <time>2018-06-10T07:34:41.112Z</time>
      </trkpt>
      <trkpt lat="38.94230217" lon="-0.15600017">
        <ele>32.0</ele>
        <time>2018-06-10T07:34:42.112Z</time>
      </trkpt>
      <trkpt lat="38.94223867" lon="-0.155945">
        <ele>32.0</ele>
        <time>2018-06-10T07:34:43.112Z</time>
      </trkpt>
      <trkpt lat="38.942176" lon="-0.1558895">
        <ele>32.0</ele>
        <time>2018-06-10T07:34:44.112Z</time>
      </trkpt>
      <trkpt lat="38.94211317" lon="-0.15583417">
        <ele>32.0</ele>
        <time>2018-06-10T07:34:45.112Z</time>
      </trkpt>
      <trkpt lat="38.94205217" lon="-0.155778">
        <ele>32.0</ele>
        <time>2018-06-10T07:34:46.112Z</time>
      </trkpt>
      <trkpt lat="38.9419915" lon="-0.15572433">
        <ele>31.0</ele>
        <time>2018-06-10T07:34:47.112Z</time>
      </trkpt>
      <trkpt lat="38.94193233" lon="-0.1556715">
        <ele>30.0</ele>
        <time>2018-06-10T07:34:48.112Z</time>
      </trkpt>
      <trkpt lat="38.941873" lon="-0.15561883">
        <ele>30.0</ele>
        <time>2018-06-10T07:34:49.112Z</time>
      </trkpt>
      <trkpt lat="38.94181383" lon="-0.15556367">
        <ele>30.0</ele>
        <time>2018-06-10T07:34:50.112Z</time>
      </trkpt>
      <trkpt lat="38.9417535" lon="-0.155508">
        <ele>30.0</ele>
        <time>2018-06-10T07:34:51.112Z</time>
      </trkpt>
      <trkpt lat="38.94169183" lon="-0.15545117">
        <ele>31.0</ele>
        <time>2018-06-10T07:34:52.112Z</time>
      </trkpt>
      <trkpt lat="38.94162983" lon="-0.155393">
        <ele>32.0</ele>
        <time>2018-06-10T07:34:53.112Z</time>
      </trkpt>
      <trkpt lat="38.9415695" lon="-0.1553345">
        <ele>31.0</ele>
        <time>2018-06-10T07:34:54.112Z</time>
      </trkpt>
      <trkpt lat="38.9415105" lon="-0.15527717">
        <ele>31.0</ele>
        <time>2018-06-10T07:34:55.112Z</time>
      </trkpt>
      <trkpt lat="38.9414525" lon="-0.15522183">
        <ele>30.0</ele>
        <time>2018-06-10T07:34:56.112Z</time>
      </trkpt>
      <trkpt lat="38.94139333" lon="-0.155167">
        <ele>30.0</ele>
        <time>2018-06-10T07:34:57.112Z</time>
      </trkpt>
      <trkpt lat="38.94133383" lon="-0.15511433">
        <ele>30.0</ele>
        <time>2018-06-10T07:34:58.112Z</time>
      </trkpt>
      <trkpt lat="38.9412745" lon="-0.15506117">
        <ele>30.0</ele>
        <time>2018-06-10T07:34:59.112Z</time>
      </trkpt>
      <trkpt lat="38.94121517" lon="-0.15500817">
        <ele>30.0</ele>
        <time>2018-06-10T07:35:00.112Z</time>
      </trkpt>
      <trkpt lat="38.94109783" lon="-0.15489867">
        <ele>30.0</ele>
        <time>2018-06-10T07:35:01.112Z</time>
      </trkpt>
      <trkpt lat="38.94109783" lon="-0.15489867">
        <ele>30.0</ele>
        <time>2018-06-10T07:35:02.112Z</time>
      </trkpt>
      <trkpt lat="38.94104017" lon="-0.15484333">
        <ele>30.0</ele>
        <time>2018-06-10T07:35:03.112Z</time>
      </trkpt>
      <trkpt lat="38.94098233" lon="-0.15478883">
        <ele>30.0</ele>
        <time>2018-06-10T07:35:04.112Z</time>
      </trkpt>
      <trkpt lat="38.94092483" lon="-0.15473483">
        <ele>30.0</ele>
        <time>2018-06-10T07:35:05.112Z</time>
      </trkpt>
      <trkpt lat="38.94086733" lon="-0.15467983">
        <ele>30.0</ele>
        <time>2018-06-10T07:35:06.112Z</time>
      </trkpt>
      <trkpt lat="38.9408115" lon="-0.1546225">
        <ele>30.0</ele>
        <time>2018-06-10T07:35:07.112Z</time>
      </trkpt>
      <trkpt lat="38.94070167" lon="-0.15450633">
        <ele>30.0</ele>
        <time>2018-06-10T07:35:08.112Z</time>
      </trkpt>
      <trkpt lat="38.94070167" lon="-0.15450633">
        <ele>30.0</ele>
        <time>2018-06-10T07:35:09.112Z</time>
      </trkpt>
      <trkpt lat="38.94064633" lon="-0.15444967">
        <ele>29.0</ele>
        <time>2018-06-10T07:35:10.112Z</time>
      </trkpt>
      <trkpt lat="38.940591" lon="-0.154392">
        <ele>29.0</ele>
        <time>2018-06-10T07:35:11.112Z</time>
      </trkpt>
      <trkpt lat="38.94053567" lon="-0.15433367">
        <ele>29.0</ele>
        <time>2018-06-10T07:35:12.112Z</time>
      </trkpt>
      <trkpt lat="38.94048067" lon="-0.15427217">
        <ele>29.0</ele>
        <time>2018-06-10T07:35:13.112Z</time>
      </trkpt>
      <trkpt lat="38.9404265" lon="-0.15420733">
        <ele>30.0</ele>
        <time>2018-06-10T07:35:14.112Z</time>
      </trkpt>
      <trkpt lat="38.94037283" lon="-0.15413933">
        <ele>30.0</ele>
        <time>2018-06-10T07:35:15.112Z</time>
      </trkpt>
      <trkpt lat="38.94031933" lon="-0.1540715">
        <ele>30.0</ele>
        <time>2018-06-10T07:35:16.112Z</time>
      </trkpt>
      <trkpt lat="38.94026583" lon="-0.15400333">
        <ele>30.0</ele>
        <time>2018-06-10T07:35:17.112Z</time>
      </trkpt>
      <trkpt lat="38.94021267" lon="-0.15393467">
        <ele>31.0</ele>
        <time>2018-06-10T07:35:18.112Z</time>
      </trkpt>
      <trkpt lat="38.94016033" lon="-0.15386417">
        <ele>31.0</ele>
        <time>2018-06-10T07:35:19.112Z</time>
      </trkpt>
      <trkpt lat="38.94010883" lon="-0.15379183">
        <ele>30.0</ele>
        <time>2018-06-10T07:35:20.112Z</time>
      </trkpt>
      <trkpt lat="38.94005767" lon="-0.15371767">
        <ele>30.0</ele>
        <time>2018-06-10T07:35:21.112Z</time>
      </trkpt>
      <trkpt lat="38.94000683" lon="-0.15364217">
        <ele>30.0</ele>
        <time>2018-06-10T07:35:22.112Z</time>
      </trkpt>
      <trkpt lat="38.9399565" lon="-0.153566">
        <ele>29.0</ele>
        <time>2018-06-10T07:35:23.112Z</time>
      </trkpt>
      <trkpt lat="38.93990717" lon="-0.153489">
        <ele>29.0</ele>
        <time>2018-06-10T07:35:24.112Z</time>
      </trkpt>
      <trkpt lat="38.939859" lon="-0.1534105">
        <ele>29.0</ele>
        <time>2018-06-10T07:35:25.112Z</time>
      </trkpt>
      <trkpt lat="38.93981267" lon="-0.153331">
        <ele>28.0</ele>
        <time>2018-06-10T07:35:26.112Z</time>
      </trkpt>
      <trkpt lat="38.93976767" lon="-0.15325067">
        <ele>28.0</ele>
        <time>2018-06-10T07:35:27.112Z</time>
      </trkpt>
      <trkpt lat="38.939723" lon="-0.15316983">
        <ele>27.0</ele>
        <time>2018-06-10T07:35:28.112Z</time>
      </trkpt>
      <trkpt lat="38.939678" lon="-0.15308817">
        <ele>27.0</ele>
        <time>2018-06-10T07:35:29.112Z</time>
      </trkpt>
      <trkpt lat="38.93963267" lon="-0.15300617">
        <ele>27.0</ele>
        <time>2018-06-10T07:35:30.112Z</time>
      </trkpt>
      <trkpt lat="38.93958733" lon="-0.15292417">
        <ele>27.0</ele>
        <time>2018-06-10T07:35:31.112Z</time>
      </trkpt>
      <trkpt lat="38.93954183" lon="-0.15284267">
        <ele>27.0</ele>
        <time>2018-06-10T07:35:32.112Z</time>
      </trkpt>
      <trkpt lat="38.93949683" lon="-0.15276067">
        <ele>27.0</ele>
        <time>2018-06-10T07:35:33.112Z</time>
      </trkpt>
      <trkpt lat="38.93945217" lon="-0.1526785">
        <ele>27.0</ele>
        <time>2018-06-10T07:35:34.112Z</time>
      </trkpt>
      <trkpt lat="38.93940817" lon="-0.152596">
        <ele>27.0</ele>
        <time>2018-06-10T07:35:35.112Z</time>
      </trkpt>
      <trkpt lat="38.93936383" lon="-0.1525145">
        <ele>27.0</ele>
        <time>2018-06-10T07:35:36.112Z</time>
      </trkpt>
      <trkpt lat="38.93931933" lon="-0.1524345">
        <ele>26.0</ele>
        <time>2018-06-10T07:35:37.112Z</time>
      </trkpt>
      <trkpt lat="38.9392765" lon="-0.15235633">
        <ele>27.0</ele>
        <time>2018-06-10T07:35:38.112Z</time>
      </trkpt>
      <trkpt lat="38.9392355" lon="-0.15228">
        <ele>27.0</ele>
        <time>2018-06-10T07:35:39.112Z</time>
      </trkpt>
      <trkpt lat="38.9391955" lon="-0.15220533">
        <ele>27.0</ele>
        <time>2018-06-10T07:35:40.112Z</time>
      </trkpt>
      <trkpt lat="38.93911233" lon="-0.1520565">
        <ele>26.0</ele>
        <time>2018-06-10T07:35:41.112Z</time>
      </trkpt>
      <trkpt lat="38.93911233" lon="-0.1520565">
        <ele>26.0</ele>
        <time>2018-06-10T07:35:42.112Z</time>
      </trkpt>
      <trkpt lat="38.93906933" lon="-0.15198233">
        <ele>26.0</ele>
        <time>2018-06-10T07:35:43.112Z</time>
      </trkpt>
      <trkpt lat="38.939027" lon="-0.151908">
        <ele>26.0</ele>
        <time>2018-06-10T07:35:44.112Z</time>
      </trkpt>
      <trkpt lat="38.93898517" lon="-0.1518335">
        <ele>26.0</ele>
        <time>2018-06-10T07:35:45.112Z</time>
      </trkpt>
      <trkpt lat="38.938944" lon="-0.15175833">
        <ele>26.0</ele>
        <time>2018-06-10T07:35:46.112Z</time>
      </trkpt>
      <trkpt lat="38.938903" lon="-0.15168283">
        <ele>26.0</ele>
        <time>2018-06-10T07:35:47.112Z</time>
      </trkpt>
      <trkpt lat="38.9388195" lon="-0.15153633">
        <ele>26.0</ele>
        <time>2018-06-10T07:35:48.112Z</time>
      </trkpt>
      <trkpt lat="38.9388195" lon="-0.15153633">
        <ele>26.0</ele>
        <time>2018-06-10T07:35:49.112Z</time>
      </trkpt>
      <trkpt lat="38.93877217" lon="-0.15146933">
        <ele>26.0</ele>
        <time>2018-06-10T07:35:50.112Z</time>
      </trkpt>
      <trkpt lat="38.93871767" lon="-0.15141033">
        <ele>26.0</ele>
        <time>2018-06-10T07:35:51.112Z</time>
      </trkpt>
      <trkpt lat="38.93865833" lon="-0.15136283">
        <ele>26.0</ele>
        <time>2018-06-10T07:35:52.112Z</time>
      </trkpt>
      <trkpt lat="38.9385965" lon="-0.151322">
        <ele>26.0</ele>
        <time>2018-06-10T07:35:53.112Z</time>
      </trkpt>
      <trkpt lat="38.93853517" lon="-0.15128367">
        <ele>26.0</ele>
        <time>2018-06-10T07:35:54.112Z</time>
      </trkpt>
      <trkpt lat="38.93847333" lon="-0.15124483">
        <ele>26.0</ele>
        <time>2018-06-10T07:35:55.112Z</time>
      </trkpt>
      <trkpt lat="38.9384115" lon="-0.151206">
        <ele>26.0</ele>
        <time>2018-06-10T07:35:56.112Z</time>
      </trkpt>
      <trkpt lat="38.93834967" lon="-0.151167">
        <ele>26.0</ele>
        <time>2018-06-10T07:35:57.112Z</time>
      </trkpt>
      <trkpt lat="38.938288" lon="-0.15112817">
        <ele>27.0</ele>
        <time>2018-06-10T07:35:58.112Z</time>
      </trkpt>
      <trkpt lat="38.93822667" lon="-0.15109083">
        <ele>27.0</ele>
        <time>2018-06-10T07:35:59.112Z</time>
      </trkpt>
      <trkpt lat="38.93816667" lon="-0.1510555">
        <ele>27.0</ele>
        <time>2018-06-10T07:36:00.112Z</time>
      </trkpt>
      <trkpt lat="38.9381085" lon="-0.15102233">
        <ele>28.0</ele>
        <time>2018-06-10T07:36:01.112Z</time>
      </trkpt>
      <trkpt lat="38.93805217" lon="-0.15099117">
        <ele>28.0</ele>
        <time>2018-06-10T07:36:02.112Z</time>
      </trkpt>
      <trkpt lat="38.93799767" lon="-0.15096117">
        <ele>29.0</ele>
        <time>2018-06-10T07:36:03.112Z</time>
      </trkpt>
      <trkpt lat="38.93794533" lon="-0.15093283">
        <ele>29.0</ele>
        <time>2018-06-10T07:36:04.112Z</time>
      </trkpt>
      <trkpt lat="38.93789517" lon="-0.150907">
        <ele>28.0</ele>
        <time>2018-06-10T07:36:05.112Z</time>
      </trkpt>
      <trkpt lat="38.93784783" lon="-0.15088567">
        <ele>28.0</ele>
        <time>2018-06-10T07:36:06.112Z</time>
      </trkpt>
      <trkpt lat="38.937803" lon="-0.15086633">
        <ele>28.0</ele>
        <time>2018-06-10T07:36:07.112Z</time>
      </trkpt>
      <trkpt lat="38.9377625" lon="-0.15084717">
        <ele>28.0</ele>
        <time>2018-06-10T07:36:08.112Z</time>
      </trkpt>
      <trkpt lat="38.93772483" lon="-0.150827">
        <ele>27.0</ele>
        <time>2018-06-10T07:36:09.112Z</time>
      </trkpt>
      <trkpt lat="38.93768833" lon="-0.150808">
        <ele>27.0</ele>
        <time>2018-06-10T07:36:10.112Z</time>
      </trkpt>
      <trkpt lat="38.93765033" lon="-0.1507895">
        <ele>27.0</ele>
        <time>2018-06-10T07:36:11.112Z</time>
      </trkpt>
      <trkpt lat="38.93761017" lon="-0.150771">
        <ele>27.0</ele>
        <time>2018-06-10T07:36:12.112Z</time>
      </trkpt>
      <trkpt lat="38.93756717" lon="-0.1507515">
        <ele>28.0</ele>
        <time>2018-06-10T07:36:13.112Z</time>
      </trkpt>
      <trkpt lat="38.93752233" lon="-0.15073317">
        <ele>27.0</ele>
        <time>2018-06-10T07:36:14.112Z</time>
      </trkpt>
      <trkpt lat="38.937477" lon="-0.1507165">
        <ele>27.0</ele>
        <time>2018-06-10T07:36:15.112Z</time>
      </trkpt>
      <trkpt lat="38.9374315" lon="-0.1507005">
        <ele>26.0</ele>
        <time>2018-06-10T07:36:16.112Z</time>
      </trkpt>
      <trkpt lat="38.9373855" lon="-0.15068333">
        <ele>27.0</ele>
        <time>2018-06-10T07:36:17.112Z</time>
      </trkpt>
      <trkpt lat="38.93733917" lon="-0.15066217">
        <ele>26.0</ele>
        <time>2018-06-10T07:36:18.112Z</time>
      </trkpt>
      <trkpt lat="38.937292" lon="-0.15064017">
        <ele>26.0</ele>
        <time>2018-06-10T07:36:19.112Z</time>
      </trkpt>
      <trkpt lat="38.93724433" lon="-0.1506185">
        <ele>26.0</ele>
        <time>2018-06-10T07:36:20.112Z</time>
      </trkpt>
      <trkpt lat="38.937196" lon="-0.15059983">
        <ele>26.0</ele>
        <time>2018-06-10T07:36:21.112Z</time>
      </trkpt>
      <trkpt lat="38.93714817" lon="-0.15058283">
        <ele>26.0</ele>
        <time>2018-06-10T07:36:22.112Z</time>
      </trkpt>
      <trkpt lat="38.93710117" lon="-0.15056667">
        <ele>27.0</ele>
        <time>2018-06-10T07:36:23.112Z</time>
      </trkpt>
      <trkpt lat="38.937053" lon="-0.150554">
        <ele>27.0</ele>
        <time>2018-06-10T07:36:24.112Z</time>
      </trkpt>
      <trkpt lat="38.937003" lon="-0.150558">
        <ele>30.0</ele>
        <time>2018-06-10T07:36:25.112Z</time>
      </trkpt>
      <trkpt lat="38.93695383" lon="-0.15057517">
        <ele>30.0</ele>
        <time>2018-06-10T07:36:26.112Z</time>
      </trkpt>
      <trkpt lat="38.93690833" lon="-0.15059733">
        <ele>31.0</ele>
        <time>2018-06-10T07:36:27.112Z</time>
      </trkpt>
      <trkpt lat="38.93687117" lon="-0.15061183">
        <ele>30.0</ele>
        <time>2018-06-10T07:36:28.112Z</time>
      </trkpt>
      <trkpt lat="38.9368415" lon="-0.15061767">
        <ele>30.0</ele>
        <time>2018-06-10T07:36:29.112Z</time>
      </trkpt>
      <trkpt lat="38.93682017" lon="-0.15062">
        <ele>30.0</ele>
        <time>2018-06-10T07:36:30.112Z</time>
      </trkpt>
      <trkpt lat="38.93680467" lon="-0.150617">
        <ele>30.0</ele>
        <time>2018-06-10T07:36:31.112Z</time>
      </trkpt>
      <trkpt lat="38.93679867" lon="-0.15061483">
        <ele>28.0</ele>
        <time>2018-06-10T07:36:32.112Z</time>
      </trkpt>
      <trkpt lat="38.93696817" lon="-0.15065483">
        <ele>33.0</ele>
        <time>2018-06-10T07:36:33.065Z</time>
      </trkpt>
      <trkpt lat="38.936967" lon="-0.150635">
        <ele>33.0</ele>
        <time>2018-06-10T07:36:34.065Z</time>
      </trkpt>
      <trkpt lat="38.93697033" lon="-0.15061333">
        <ele>32.0</ele>
        <time>2018-06-10T07:36:35.065Z</time>
      </trkpt>
      <trkpt lat="38.9369795" lon="-0.150588">
        <ele>32.0</ele>
        <time>2018-06-10T07:36:36.065Z</time>
      </trkpt>
      <trkpt lat="38.93699017" lon="-0.15055933">
        <ele>32.0</ele>
        <time>2018-06-10T07:36:37.065Z</time>
      </trkpt>
      <trkpt lat="38.93698967" lon="-0.15052317">
        <ele>32.0</ele>
        <time>2018-06-10T07:36:38.065Z</time>
      </trkpt>
      <trkpt lat="38.9369845" lon="-0.15048233">
        <ele>32.0</ele>
        <time>2018-06-10T07:36:39.065Z</time>
      </trkpt>
      <trkpt lat="38.93698183" lon="-0.15043817">
        <ele>32.0</ele>
        <time>2018-06-10T07:36:40.065Z</time>
      </trkpt>
      <trkpt lat="38.9369885" lon="-0.15039367">
        <ele>32.0</ele>
        <time>2018-06-10T07:36:41.065Z</time>
      </trkpt>
      <trkpt lat="38.936997" lon="-0.1503495">
        <ele>31.0</ele>
        <time>2018-06-10T07:36:42.065Z</time>
      </trkpt>
      <trkpt lat="38.93699933" lon="-0.150304">
        <ele>31.0</ele>
        <time>2018-06-10T07:36:43.065Z</time>
      </trkpt>
      <trkpt lat="38.93699833" lon="-0.1502585">
        <ele>32.0</ele>
        <time>2018-06-10T07:36:44.065Z</time>
      </trkpt>
      <trkpt lat="38.93699283" lon="-0.15021383">
        <ele>32.0</ele>
        <time>2018-06-10T07:36:45.065Z</time>
      </trkpt>
      <trkpt lat="38.93698583" lon="-0.15017167">
        <ele>33.0</ele>
        <time>2018-06-10T07:36:46.065Z</time>
      </trkpt>
      <trkpt lat="38.93697683" lon="-0.15013183">
        <ele>33.0</ele>
        <time>2018-06-10T07:36:47.065Z</time>
      </trkpt>
      <trkpt lat="38.93696833" lon="-0.15009233">
        <ele>34.0</ele>
        <time>2018-06-10T07:36:48.065Z</time>
      </trkpt>
      <trkpt lat="38.936956" lon="-0.15005233">
        <ele>33.0</ele>
        <time>2018-06-10T07:36:49.065Z</time>
      </trkpt>
      <trkpt lat="38.93694133" lon="-0.15001083">
        <ele>33.0</ele>
        <time>2018-06-10T07:36:50.065Z</time>
      </trkpt>
      <trkpt lat="38.93692367" lon="-0.14996717">
        <ele>33.0</ele>
        <time>2018-06-10T07:36:51.065Z</time>
      </trkpt>
      <trkpt lat="38.93690283" lon="-0.14992583">
        <ele>33.0</ele>
        <time>2018-06-10T07:36:52.065Z</time>
      </trkpt>
      <trkpt lat="38.93687083" lon="-0.14988867">
        <ele>32.0</ele>
        <time>2018-06-10T07:36:53.065Z</time>
      </trkpt>
      <trkpt lat="38.93682767" lon="-0.14985933">
        <ele>31.0</ele>
        <time>2018-06-10T07:36:54.065Z</time>
      </trkpt>
      <trkpt lat="38.9367765" lon="-0.14983783">
        <ele>31.0</ele>
        <time>2018-06-10T07:36:55.065Z</time>
      </trkpt>
      <trkpt lat="38.9367275" lon="-0.14982167">
        <ele>30.0</ele>
        <time>2018-06-10T07:36:56.065Z</time>
      </trkpt>
      <trkpt lat="38.936682" lon="-0.14981167">
        <ele>30.0</ele>
        <time>2018-06-10T07:36:57.065Z</time>
      </trkpt>
      <trkpt lat="38.9366425" lon="-0.14980717">
        <ele>29.0</ele>
        <time>2018-06-10T07:36:58.065Z</time>
      </trkpt>
      <trkpt lat="38.936607" lon="-0.149807">
        <ele>29.0</ele>
        <time>2018-06-10T07:36:59.065Z</time>
      </trkpt>
      <trkpt lat="38.93657433" lon="-0.14980383">
        <ele>29.0</ele>
        <time>2018-06-10T07:37:00.065Z</time>
      </trkpt>
      <trkpt lat="38.93654183" lon="-0.14979683">
        <ele>28.0</ele>
        <time>2018-06-10T07:37:01.065Z</time>
      </trkpt>
      <trkpt lat="38.93650867" lon="-0.14978567">
        <ele>28.0</ele>
        <time>2018-06-10T07:37:02.065Z</time>
      </trkpt>
      <trkpt lat="38.93647467" lon="-0.14977417">
        <ele>28.0</ele>
        <time>2018-06-10T07:37:03.065Z</time>
      </trkpt>
      <trkpt lat="38.93644133" lon="-0.14976017">
        <ele>28.0</ele>
        <time>2018-06-10T07:37:04.065Z</time>
      </trkpt>
      <trkpt lat="38.9364095" lon="-0.149741">
        <ele>27.0</ele>
        <time>2018-06-10T07:37:05.065Z</time>
      </trkpt>
      <trkpt lat="38.93638" lon="-0.14971217">
        <ele>27.0</ele>
        <time>2018-06-10T07:37:06.065Z</time>
      </trkpt>
      <trkpt lat="38.93635383" lon="-0.1496725">
        <ele>27.0</ele>
        <time>2018-06-10T07:37:07.065Z</time>
      </trkpt>
      <trkpt lat="38.93633233" lon="-0.14962583">
        <ele>27.0</ele>
        <time>2018-06-10T07:37:08.065Z</time>
      </trkpt>
      <trkpt lat="38.93631683" lon="-0.14957567">
        <ele>27.0</ele>
        <time>2018-06-10T07:37:09.065Z</time>
      </trkpt>
      <trkpt lat="38.93631267" lon="-0.149522">
        <ele>26.0</ele>
        <time>2018-06-10T07:37:10.065Z</time>
      </trkpt>
      <trkpt lat="38.93632067" lon="-0.149465">
        <ele>25.0</ele>
        <time>2018-06-10T07:37:11.065Z</time>
      </trkpt>
      <trkpt lat="38.9363405" lon="-0.14940867">
        <ele>25.0</ele>
        <time>2018-06-10T07:37:12.065Z</time>
      </trkpt>
      <trkpt lat="38.9363635" lon="-0.14935433">
        <ele>25.0</ele>
        <time>2018-06-10T07:37:13.065Z</time>
      </trkpt>
      <trkpt lat="38.93638683" lon="-0.149301">
        <ele>25.0</ele>
        <time>2018-06-10T07:37:14.065Z</time>
      </trkpt>
      <trkpt lat="38.93640467" lon="-0.149244">
        <ele>25.0</ele>
        <time>2018-06-10T07:37:15.065Z</time>
      </trkpt>
      <trkpt lat="38.93641633" lon="-0.14918383">
        <ele>25.0</ele>
        <time>2018-06-10T07:37:16.065Z</time>
      </trkpt>
      <trkpt lat="38.93641667" lon="-0.14912017">
        <ele>25.0</ele>
        <time>2018-06-10T07:37:17.065Z</time>
      </trkpt>
      <trkpt lat="38.93640733" lon="-0.14905567">
        <ele>24.0</ele>
        <time>2018-06-10T07:37:18.065Z</time>
      </trkpt>
      <trkpt lat="38.93639167" lon="-0.14899233">
        <ele>24.0</ele>
        <time>2018-06-10T07:37:19.065Z</time>
      </trkpt>
      <trkpt lat="38.93637567" lon="-0.14893167">
        <ele>24.0</ele>
        <time>2018-06-10T07:37:20.065Z</time>
      </trkpt>
      <trkpt lat="38.9363575" lon="-0.14887467">
        <ele>24.0</ele>
        <time>2018-06-10T07:37:21.065Z</time>
      </trkpt>
      <trkpt lat="38.93633867" lon="-0.14881967">
        <ele>25.0</ele>
        <time>2018-06-10T07:37:22.065Z</time>
      </trkpt>
      <trkpt lat="38.93631567" lon="-0.148767">
        <ele>25.0</ele>
        <time>2018-06-10T07:37:23.065Z</time>
      </trkpt>
      <trkpt lat="38.93629117" lon="-0.148715">
        <ele>25.0</ele>
        <time>2018-06-10T07:37:24.065Z</time>
      </trkpt>
      <trkpt lat="38.93626333" lon="-0.14866317">
        <ele>25.0</ele>
        <time>2018-06-10T07:37:25.065Z</time>
      </trkpt>
      <trkpt lat="38.93623433" lon="-0.14861017">
        <ele>25.0</ele>
        <time>2018-06-10T07:37:26.065Z</time>
      </trkpt>
      <trkpt lat="38.93620583" lon="-0.14855433">
        <ele>25.0</ele>
        <time>2018-06-10T07:37:27.065Z</time>
      </trkpt>
      <trkpt lat="38.936177" lon="-0.1484965">
        <ele>25.0</ele>
        <time>2018-06-10T07:37:28.065Z</time>
      </trkpt>
      <trkpt lat="38.93614867" lon="-0.14843683">
        <ele>25.0</ele>
        <time>2018-06-10T07:37:29.065Z</time>
      </trkpt>
      <trkpt lat="38.9361195" lon="-0.14837733">
        <ele>25.0</ele>
        <time>2018-06-10T07:37:30.065Z</time>
      </trkpt>
      <trkpt lat="38.93609" lon="-0.1483185">
        <ele>25.0</ele>
        <time>2018-06-10T07:37:31.065Z</time>
      </trkpt>
      <trkpt lat="38.93606017" lon="-0.1482605">
        <ele>26.0</ele>
        <time>2018-06-10T07:37:32.065Z</time>
      </trkpt>
      <trkpt lat="38.93602917" lon="-0.1482025">
        <ele>25.0</ele>
        <time>2018-06-10T07:37:33.065Z</time>
      </trkpt>
      <trkpt lat="38.93599683" lon="-0.148145">
        <ele>26.0</ele>
        <time>2018-06-10T07:37:34.065Z</time>
      </trkpt>
      <trkpt lat="38.93596383" lon="-0.148088">
        <ele>26.0</ele>
        <time>2018-06-10T07:37:35.065Z</time>
      </trkpt>
      <trkpt lat="38.93593233" lon="-0.148032">
        <ele>28.0</ele>
        <time>2018-06-10T07:37:36.065Z</time>
      </trkpt>
      <trkpt lat="38.93590083" lon="-0.1479765">
        <ele>28.0</ele>
        <time>2018-06-10T07:37:37.065Z</time>
      </trkpt>
      <trkpt lat="38.93586933" lon="-0.14792217">
        <ele>29.0</ele>
        <time>2018-06-10T07:37:38.065Z</time>
      </trkpt>
      <trkpt lat="38.93583617" lon="-0.14786833">
        <ele>30.0</ele>
        <time>2018-06-10T07:37:39.065Z</time>
      </trkpt>
      <trkpt lat="38.93580183" lon="-0.1478155">
        <ele>30.0</ele>
        <time>2018-06-10T07:37:40.065Z</time>
      </trkpt>
      <trkpt lat="38.9357655" lon="-0.14776317">
        <ele>30.0</ele>
        <time>2018-06-10T07:37:41.065Z</time>
      </trkpt>
      <trkpt lat="38.93572567" lon="-0.14771233">
        <ele>30.0</ele>
        <time>2018-06-10T07:37:42.065Z</time>
      </trkpt>
      <trkpt lat="38.93568567" lon="-0.14766233">
        <ele>30.0</ele>
        <time>2018-06-10T07:37:43.065Z</time>
      </trkpt>
      <trkpt lat="38.93564583" lon="-0.14761283">
        <ele>30.0</ele>
        <time>2018-06-10T07:37:44.065Z</time>
      </trkpt>
      <trkpt lat="38.93560717" lon="-0.14756383">
        <ele>30.0</ele>
        <time>2018-06-10T07:37:45.065Z</time>
      </trkpt>
      <trkpt lat="38.93556717" lon="-0.14751683">
        <ele>31.0</ele>
        <time>2018-06-10T07:37:46.065Z</time>
      </trkpt>
      <trkpt lat="38.93552667" lon="-0.14747117">
        <ele>31.0</ele>
        <time>2018-06-10T07:37:47.065Z</time>
      </trkpt>
      <trkpt lat="38.935487" lon="-0.14742583">
        <ele>31.0</ele>
        <time>2018-06-10T07:37:48.065Z</time>
      </trkpt>
      <trkpt lat="38.935453" lon="-0.14737883">
        <ele>32.0</ele>
        <time>2018-06-10T07:37:49.065Z</time>
      </trkpt>
      <trkpt lat="38.93542" lon="-0.14733133">
        <ele>32.0</ele>
        <time>2018-06-10T07:37:50.065Z</time>
      </trkpt>
      <trkpt lat="38.9353875" lon="-0.14728333">
        <ele>32.0</ele>
        <time>2018-06-10T07:37:51.065Z</time>
      </trkpt>
      <trkpt lat="38.93534817" lon="-0.1472345">
        <ele>32.0</ele>
        <time>2018-06-10T07:37:52.065Z</time>
      </trkpt>
      <trkpt lat="38.93530717" lon="-0.147182">
        <ele>31.0</ele>
        <time>2018-06-10T07:37:53.065Z</time>
      </trkpt>
      <trkpt lat="38.9352655" lon="-0.14712633">
        <ele>31.0</ele>
        <time>2018-06-10T07:37:54.065Z</time>
      </trkpt>
      <trkpt lat="38.93522383" lon="-0.14707017">
        <ele>30.0</ele>
        <time>2018-06-10T07:37:55.065Z</time>
      </trkpt>
      <trkpt lat="38.935181" lon="-0.14701633">
        <ele>30.0</ele>
        <time>2018-06-10T07:37:56.065Z</time>
      </trkpt>
      <trkpt lat="38.9351405" lon="-0.14696317">
        <ele>31.0</ele>
        <time>2018-06-10T07:37:57.065Z</time>
      </trkpt>
      <trkpt lat="38.935103" lon="-0.14691017">
        <ele>31.0</ele>
        <time>2018-06-10T07:37:58.065Z</time>
      </trkpt>
      <trkpt lat="38.93506817" lon="-0.146855">
        <ele>31.0</ele>
        <time>2018-06-10T07:37:59.065Z</time>
      </trkpt>
      <trkpt lat="38.9350295" lon="-0.14679967">
        <ele>31.0</ele>
        <time>2018-06-10T07:38:00.065Z</time>
      </trkpt>
      <trkpt lat="38.9349905" lon="-0.1467435">
        <ele>31.0</ele>
        <time>2018-06-10T07:38:01.065Z</time>
      </trkpt>
      <trkpt lat="38.93495117" lon="-0.14668833">
        <ele>32.0</ele>
        <time>2018-06-10T07:38:02.065Z</time>
      </trkpt>
      <trkpt lat="38.9349135" lon="-0.14663333">
        <ele>32.0</ele>
        <time>2018-06-10T07:38:03.065Z</time>
      </trkpt>
      <trkpt lat="38.93487533" lon="-0.14657933">
        <ele>32.0</ele>
        <time>2018-06-10T07:38:04.065Z</time>
      </trkpt>
      <trkpt lat="38.93483633" lon="-0.1465275">
        <ele>32.0</ele>
        <time>2018-06-10T07:38:05.065Z</time>
      </trkpt>
      <trkpt lat="38.934799" lon="-0.14647633">
        <ele>32.0</ele>
        <time>2018-06-10T07:38:06.065Z</time>
      </trkpt>
      <trkpt lat="38.93476217" lon="-0.14642633">
        <ele>32.0</ele>
        <time>2018-06-10T07:38:07.065Z</time>
      </trkpt>
      <trkpt lat="38.934724" lon="-0.14637683">
        <ele>32.0</ele>
        <time>2018-06-10T07:38:08.065Z</time>
      </trkpt>
      <trkpt lat="38.93468167" lon="-0.1463295">
        <ele>32.0</ele>
        <time>2018-06-10T07:38:09.065Z</time>
      </trkpt>
      <trkpt lat="38.9346385" lon="-0.146284">
        <ele>32.0</ele>
        <time>2018-06-10T07:38:10.065Z</time>
      </trkpt>
      <trkpt lat="38.9345965" lon="-0.14623883">
        <ele>33.0</ele>
        <time>2018-06-10T07:38:11.065Z</time>
      </trkpt>
      <trkpt lat="38.93455517" lon="-0.1461935">
        <ele>33.0</ele>
        <time>2018-06-10T07:38:12.065Z</time>
      </trkpt>
      <trkpt lat="38.93451333" lon="-0.14614617">
        <ele>33.0</ele>
        <time>2018-06-10T07:38:13.065Z</time>
      </trkpt>
      <trkpt lat="38.93447117" lon="-0.14609717">
        <ele>32.0</ele>
        <time>2018-06-10T07:38:14.065Z</time>
      </trkpt>
      <trkpt lat="38.9344325" lon="-0.1460425">
        <ele>30.0</ele>
        <time>2018-06-10T07:38:15.065Z</time>
      </trkpt>
      <trkpt lat="38.934395" lon="-0.145987">
        <ele>30.0</ele>
        <time>2018-06-10T07:38:16.065Z</time>
      </trkpt>
      <trkpt lat="38.934359" lon="-0.14593217">
        <ele>30.0</ele>
        <time>2018-06-10T07:38:17.065Z</time>
      </trkpt>
      <trkpt lat="38.9343235" lon="-0.14588133">
        <ele>29.0</ele>
        <time>2018-06-10T07:38:18.065Z</time>
      </trkpt>
      <trkpt lat="38.93429417" lon="-0.14582633">
        <ele>28.0</ele>
        <time>2018-06-10T07:38:19.065Z</time>
      </trkpt>
      <trkpt lat="38.9342715" lon="-0.14576783">
        <ele>28.0</ele>
        <time>2018-06-10T07:38:20.065Z</time>
      </trkpt>
      <trkpt lat="38.93425783" lon="-0.14570483">
        <ele>27.0</ele>
        <time>2018-06-10T07:38:21.065Z</time>
      </trkpt>
      <trkpt lat="38.9342515" lon="-0.145642">
        <ele>26.0</ele>
        <time>2018-06-10T07:38:22.065Z</time>
      </trkpt>
      <trkpt lat="38.93425517" lon="-0.14557867">
        <ele>26.0</ele>
        <time>2018-06-10T07:38:23.065Z</time>
      </trkpt>
      <trkpt lat="38.93426883" lon="-0.14551917">
        <ele>25.0</ele>
        <time>2018-06-10T07:38:24.065Z</time>
      </trkpt>
      <trkpt lat="38.93429183" lon="-0.14546433">
        <ele>24.0</ele>
        <time>2018-06-10T07:38:25.065Z</time>
      </trkpt>
      <trkpt lat="38.93432333" lon="-0.14541517">
        <ele>23.0</ele>
        <time>2018-06-10T07:38:26.065Z</time>
      </trkpt>
      <trkpt lat="38.93435817" lon="-0.14536883">
        <ele>23.0</ele>
        <time>2018-06-10T07:38:27.065Z</time>
      </trkpt>
      <trkpt lat="38.93439583" lon="-0.14532317">
        <ele>23.0</ele>
        <time>2018-06-10T07:38:28.065Z</time>
      </trkpt>
      <trkpt lat="38.9344335" lon="-0.145276">
        <ele>22.0</ele>
        <time>2018-06-10T07:38:29.065Z</time>
      </trkpt>
      <trkpt lat="38.934473" lon="-0.145228">
        <ele>22.0</ele>
        <time>2018-06-10T07:38:30.065Z</time>
      </trkpt>
      <trkpt lat="38.93451417" lon="-0.14518067">
        <ele>22.0</ele>
        <time>2018-06-10T07:38:31.065Z</time>
      </trkpt>
      <trkpt lat="38.93455767" lon="-0.14513567">
        <ele>22.0</ele>
        <time>2018-06-10T07:38:32.065Z</time>
      </trkpt>
      <trkpt lat="38.934606" lon="-0.14509517">
        <ele>23.0</ele>
        <time>2018-06-10T07:38:33.065Z</time>
      </trkpt>
      <trkpt lat="38.93465617" lon="-0.14505733">
        <ele>23.0</ele>
        <time>2018-06-10T07:38:34.065Z</time>
      </trkpt>
      <trkpt lat="38.93470633" lon="-0.14502117">
        <ele>24.0</ele>
        <time>2018-06-10T07:38:35.065Z</time>
      </trkpt>
      <trkpt lat="38.934752" lon="-0.1449855">
        <ele>24.0</ele>
        <time>2018-06-10T07:38:36.065Z</time>
      </trkpt>
      <trkpt lat="38.9347955" lon="-0.14495117">
        <ele>24.0</ele>
        <time>2018-06-10T07:38:37.065Z</time>
      </trkpt>
      <trkpt lat="38.9348345" lon="-0.14491967">
        <ele>24.0</ele>
        <time>2018-06-10T07:38:38.065Z</time>
      </trkpt>
      <trkpt lat="38.93487067" lon="-0.14489333">
        <ele>23.0</ele>
        <time>2018-06-10T07:38:39.065Z</time>
      </trkpt>
      <trkpt lat="38.9349055" lon="-0.14487483">
        <ele>23.0</ele>
        <time>2018-06-10T07:38:40.065Z</time>
      </trkpt>
      <trkpt lat="38.93494133" lon="-0.144863">
        <ele>23.0</ele>
        <time>2018-06-10T07:38:41.065Z</time>
      </trkpt>
      <trkpt lat="38.93497667" lon="-0.14485033">
        <ele>23.0</ele>
        <time>2018-06-10T07:38:42.065Z</time>
      </trkpt>
      <trkpt lat="38.93500867" lon="-0.144828">
        <ele>23.0</ele>
        <time>2018-06-10T07:38:43.065Z</time>
      </trkpt>
      <trkpt lat="38.93503317" lon="-0.1447925">
        <ele>23.0</ele>
        <time>2018-06-10T07:38:44.065Z</time>
      </trkpt>
      <trkpt lat="38.9350465" lon="-0.14474633">
        <ele>23.0</ele>
        <time>2018-06-10T07:38:45.065Z</time>
      </trkpt>
      <trkpt lat="38.9350415" lon="-0.144697">
        <ele>22.0</ele>
        <time>2018-06-10T07:38:46.065Z</time>
      </trkpt>
      <trkpt lat="38.93502033" lon="-0.14464717">
        <ele>22.0</ele>
        <time>2018-06-10T07:38:47.065Z</time>
      </trkpt>
      <trkpt lat="38.93498933" lon="-0.1445975">
        <ele>22.0</ele>
        <time>2018-06-10T07:38:48.065Z</time>
      </trkpt>
      <trkpt lat="38.93495733" lon="-0.144546">
        <ele>21.0</ele>
        <time>2018-06-10T07:38:49.065Z</time>
      </trkpt>
      <trkpt lat="38.934926" lon="-0.14449117">
        <ele>21.0</ele>
        <time>2018-06-10T07:38:50.065Z</time>
      </trkpt>
      <trkpt lat="38.93489383" lon="-0.144434">
        <ele>21.0</ele>
        <time>2018-06-10T07:38:51.065Z</time>
      </trkpt>
      <trkpt lat="38.9348615" lon="-0.14437483">
        <ele>21.0</ele>
        <time>2018-06-10T07:38:52.065Z</time>
      </trkpt>
      <trkpt lat="38.93482783" lon="-0.1443145">
        <ele>21.0</ele>
        <time>2018-06-10T07:38:53.065Z</time>
      </trkpt>
      <trkpt lat="38.93479283" lon="-0.14425267">
        <ele>21.0</ele>
        <time>2018-06-10T07:38:54.065Z</time>
      </trkpt>
      <trkpt lat="38.9347565" lon="-0.14418917">
        <ele>21.0</ele>
        <time>2018-06-10T07:38:55.065Z</time>
      </trkpt>
      <trkpt lat="38.93471967" lon="-0.14412283">
        <ele>21.0</ele>
        <time>2018-06-10T07:38:56.065Z</time>
      </trkpt>
      <trkpt lat="38.93468233" lon="-0.14405383">
        <ele>21.0</ele>
        <time>2018-06-10T07:38:57.065Z</time>
      </trkpt>
      <trkpt lat="38.9346445" lon="-0.14398317">
        <ele>21.0</ele>
        <time>2018-06-10T07:38:58.065Z</time>
      </trkpt>
      <trkpt lat="38.93460617" lon="-0.14391183">
        <ele>21.0</ele>
        <time>2018-06-10T07:38:59.065Z</time>
      </trkpt>
      <trkpt lat="38.93456767" lon="-0.14383967">
        <ele>21.0</ele>
        <time>2018-06-10T07:39:00.065Z</time>
      </trkpt>
      <trkpt lat="38.9345285" lon="-0.14376717">
        <ele>21.0</ele>
        <time>2018-06-10T07:39:01.065Z</time>
      </trkpt>
      <trkpt lat="38.93448883" lon="-0.14369483">
        <ele>21.0</ele>
        <time>2018-06-10T07:39:02.065Z</time>
      </trkpt>
      <trkpt lat="38.93444833" lon="-0.14362317">
        <ele>21.0</ele>
        <time>2018-06-10T07:39:03.065Z</time>
      </trkpt>
      <trkpt lat="38.93440767" lon="-0.14355117">
        <ele>21.0</ele>
        <time>2018-06-10T07:39:04.065Z</time>
      </trkpt>
      <trkpt lat="38.9343675" lon="-0.1434785">
        <ele>21.0</ele>
        <time>2018-06-10T07:39:05.065Z</time>
      </trkpt>
      <trkpt lat="38.93432833" lon="-0.14340517">
        <ele>20.0</ele>
        <time>2018-06-10T07:39:06.065Z</time>
      </trkpt>
      <trkpt lat="38.9342895" lon="-0.1433325">
        <ele>20.0</ele>
        <time>2018-06-10T07:39:07.065Z</time>
      </trkpt>
      <trkpt lat="38.93425067" lon="-0.14326083">
        <ele>20.0</ele>
        <time>2018-06-10T07:39:08.065Z</time>
      </trkpt>
      <trkpt lat="38.934211" lon="-0.14319017">
        <ele>20.0</ele>
        <time>2018-06-10T07:39:09.065Z</time>
      </trkpt>
      <trkpt lat="38.9341715" lon="-0.1431195">
        <ele>20.0</ele>
        <time>2018-06-10T07:39:10.065Z</time>
      </trkpt>
      <trkpt lat="38.93413183" lon="-0.14304883">
        <ele>20.0</ele>
        <time>2018-06-10T07:39:11.065Z</time>
      </trkpt>
      <trkpt lat="38.93409217" lon="-0.1429775">
        <ele>20.0</ele>
        <time>2018-06-10T07:39:12.065Z</time>
      </trkpt>
      <trkpt lat="38.9340525" lon="-0.14290567">
        <ele>20.0</ele>
        <time>2018-06-10T07:39:13.065Z</time>
      </trkpt>
      <trkpt lat="38.93401317" lon="-0.14283317">
        <ele>20.0</ele>
        <time>2018-06-10T07:39:14.065Z</time>
      </trkpt>
      <trkpt lat="38.93397433" lon="-0.14275983">
        <ele>20.0</ele>
        <time>2018-06-10T07:39:15.065Z</time>
      </trkpt>
      <trkpt lat="38.933935" lon="-0.142686">
        <ele>20.0</ele>
        <time>2018-06-10T07:39:16.065Z</time>
      </trkpt>
      <trkpt lat="38.933894" lon="-0.14261183">
        <ele>20.0</ele>
        <time>2018-06-10T07:39:17.065Z</time>
      </trkpt>
      <trkpt lat="38.93385183" lon="-0.14253783">
        <ele>19.0</ele>
        <time>2018-06-10T07:39:18.065Z</time>
      </trkpt>
      <trkpt lat="38.93380983" lon="-0.142463">
        <ele>19.0</ele>
        <time>2018-06-10T07:39:19.065Z</time>
      </trkpt>
      <trkpt lat="38.93376867" lon="-0.14238783">
        <ele>19.0</ele>
        <time>2018-06-10T07:39:20.065Z</time>
      </trkpt>
      <trkpt lat="38.93372767" lon="-0.1423125">
        <ele>19.0</ele>
        <time>2018-06-10T07:39:21.065Z</time>
      </trkpt>
      <trkpt lat="38.93368633" lon="-0.1422375">
        <ele>19.0</ele>
        <time>2018-06-10T07:39:22.065Z</time>
      </trkpt>
      <trkpt lat="38.933645" lon="-0.14216233">
        <ele>19.0</ele>
        <time>2018-06-10T07:39:23.065Z</time>
      </trkpt>
      <trkpt lat="38.9336035" lon="-0.14208733">
        <ele>19.0</ele>
        <time>2018-06-10T07:39:24.065Z</time>
      </trkpt>
      <trkpt lat="38.93356183" lon="-0.14201167">
        <ele>19.0</ele>
        <time>2018-06-10T07:39:25.065Z</time>
      </trkpt>
      <trkpt lat="38.93351983" lon="-0.1419355">
        <ele>19.0</ele>
        <time>2018-06-10T07:39:26.065Z</time>
      </trkpt>
      <trkpt lat="38.93347733" lon="-0.14185917">
        <ele>19.0</ele>
        <time>2018-06-10T07:39:27.065Z</time>
      </trkpt>
      <trkpt lat="38.93343433" lon="-0.14178283">
        <ele>19.0</ele>
        <time>2018-06-10T07:39:28.065Z</time>
      </trkpt>
      <trkpt lat="38.9333915" lon="-0.141706">
        <ele>19.0</ele>
        <time>2018-06-10T07:39:29.065Z</time>
      </trkpt>
      <trkpt lat="38.93334883" lon="-0.14162867">
        <ele>19.0</ele>
        <time>2018-06-10T07:39:30.065Z</time>
      </trkpt>
      <trkpt lat="38.9333065" lon="-0.14155117">
        <ele>19.0</ele>
        <time>2018-06-10T07:39:31.065Z</time>
      </trkpt>
      <trkpt lat="38.933264" lon="-0.14147367">
        <ele>19.0</ele>
        <time>2018-06-10T07:39:32.065Z</time>
      </trkpt>
      <trkpt lat="38.93322183" lon="-0.141396">
        <ele>19.0</ele>
        <time>2018-06-10T07:39:33.065Z</time>
      </trkpt>
      <trkpt lat="38.93317967" lon="-0.14131883">
        <ele>19.0</ele>
        <time>2018-06-10T07:39:34.065Z</time>
      </trkpt>
      <trkpt lat="38.93313733" lon="-0.14124183">
        <ele>19.0</ele>
        <time>2018-06-10T07:39:35.065Z</time>
      </trkpt>
      <trkpt lat="38.93309517" lon="-0.14116483">
        <ele>19.0</ele>
        <time>2018-06-10T07:39:36.065Z</time>
      </trkpt>
      <trkpt lat="38.93305283" lon="-0.14108783">
        <ele>19.0</ele>
        <time>2018-06-10T07:39:37.065Z</time>
      </trkpt>
      <trkpt lat="38.9330105" lon="-0.14101017">
        <ele>19.0</ele>
        <time>2018-06-10T07:39:38.065Z</time>
      </trkpt>
      <trkpt lat="38.93296783" lon="-0.14093233">
        <ele>19.0</ele>
        <time>2018-06-10T07:39:39.065Z</time>
      </trkpt>
      <trkpt lat="38.93292467" lon="-0.14085433">
        <ele>18.0</ele>
        <time>2018-06-10T07:39:40.065Z</time>
      </trkpt>
      <trkpt lat="38.93288183" lon="-0.140776">
        <ele>18.0</ele>
        <time>2018-06-10T07:39:41.065Z</time>
      </trkpt>
      <trkpt lat="38.932839" lon="-0.14069733">
        <ele>18.0</ele>
        <time>2018-06-10T07:39:42.065Z</time>
      </trkpt>
      <trkpt lat="38.9327965" lon="-0.14061833">
        <ele>18.0</ele>
        <time>2018-06-10T07:39:43.065Z</time>
      </trkpt>
      <trkpt lat="38.9327535" lon="-0.1405395">
        <ele>18.0</ele>
        <time>2018-06-10T07:39:44.065Z</time>
      </trkpt>
      <trkpt lat="38.93271017" lon="-0.14046083">
        <ele>18.0</ele>
        <time>2018-06-10T07:39:45.065Z</time>
      </trkpt>
      <trkpt lat="38.93266683" lon="-0.140382">
        <ele>18.0</ele>
        <time>2018-06-10T07:39:46.065Z</time>
      </trkpt>
      <trkpt lat="38.93262333" lon="-0.14030317">
        <ele>18.0</ele>
        <time>2018-06-10T07:39:47.065Z</time>
      </trkpt>
      <trkpt lat="38.93258033" lon="-0.140224">
        <ele>18.0</ele>
        <time>2018-06-10T07:39:48.065Z</time>
      </trkpt>
      <trkpt lat="38.93253717" lon="-0.14014483">
        <ele>18.0</ele>
        <time>2018-06-10T07:39:49.065Z</time>
      </trkpt>
      <trkpt lat="38.93249417" lon="-0.14006583">
        <ele>18.0</ele>
        <time>2018-06-10T07:39:50.065Z</time>
      </trkpt>
      <trkpt lat="38.932451" lon="-0.139987">
        <ele>18.0</ele>
        <time>2018-06-10T07:39:51.065Z</time>
      </trkpt>
      <trkpt lat="38.9324075" lon="-0.13990817">
        <ele>18.0</ele>
        <time>2018-06-10T07:39:52.065Z</time>
      </trkpt>
      <trkpt lat="38.932364" lon="-0.13982933">
        <ele>18.0</ele>
        <time>2018-06-10T07:39:53.065Z</time>
      </trkpt>
      <trkpt lat="38.93232017" lon="-0.13975033">
        <ele>18.0</ele>
        <time>2018-06-10T07:39:54.065Z</time>
      </trkpt>
      <trkpt lat="38.932277" lon="-0.139671">
        <ele>18.0</ele>
        <time>2018-06-10T07:39:55.065Z</time>
      </trkpt>
      <trkpt lat="38.93223367" lon="-0.13959167">
        <ele>18.0</ele>
        <time>2018-06-10T07:39:56.065Z</time>
      </trkpt>
      <trkpt lat="38.93218983" lon="-0.13951267">
        <ele>17.0</ele>
        <time>2018-06-10T07:39:57.065Z</time>
      </trkpt>
      <trkpt lat="38.93214633" lon="-0.13943333">
        <ele>18.0</ele>
        <time>2018-06-10T07:39:58.065Z</time>
      </trkpt>
      <trkpt lat="38.93210267" lon="-0.13935367">
        <ele>17.0</ele>
        <time>2018-06-10T07:39:59.065Z</time>
      </trkpt>
      <trkpt lat="38.93205917" lon="-0.1392735">
        <ele>17.0</ele>
        <time>2018-06-10T07:40:00.065Z</time>
      </trkpt>
      <trkpt lat="38.93201517" lon="-0.13919317">
        <ele>17.0</ele>
        <time>2018-06-10T07:40:01.065Z</time>
      </trkpt>
      <trkpt lat="38.93197083" lon="-0.13911283">
        <ele>17.0</ele>
        <time>2018-06-10T07:40:02.065Z</time>
      </trkpt>
      <trkpt lat="38.93192617" lon="-0.1390325">
        <ele>17.0</ele>
        <time>2018-06-10T07:40:03.065Z</time>
      </trkpt>
      <trkpt lat="38.93188133" lon="-0.13895283">
        <ele>17.0</ele>
        <time>2018-06-10T07:40:04.065Z</time>
      </trkpt>
      <trkpt lat="38.9318365" lon="-0.13887317">
        <ele>17.0</ele>
        <time>2018-06-10T07:40:05.065Z</time>
      </trkpt>
      <trkpt lat="38.93179217" lon="-0.13879283">
        <ele>17.0</ele>
        <time>2018-06-10T07:40:06.065Z</time>
      </trkpt>
      <trkpt lat="38.93174833" lon="-0.13871217">
        <ele>17.0</ele>
        <time>2018-06-10T07:40:07.065Z</time>
      </trkpt>
      <trkpt lat="38.93170433" lon="-0.138631">
        <ele>17.0</ele>
        <time>2018-06-10T07:40:08.065Z</time>
      </trkpt>
      <trkpt lat="38.93166067" lon="-0.1385495">
        <ele>17.0</ele>
        <time>2018-06-10T07:40:09.065Z</time>
      </trkpt>
      <trkpt lat="38.93161667" lon="-0.138468">
        <ele>17.0</ele>
        <time>2018-06-10T07:40:10.065Z</time>
      </trkpt>
      <trkpt lat="38.93157217" lon="-0.13838617">
        <ele>17.0</ele>
        <time>2018-06-10T07:40:11.065Z</time>
      </trkpt>
      <trkpt lat="38.93152667" lon="-0.138304">
        <ele>17.0</ele>
        <time>2018-06-10T07:40:12.065Z</time>
      </trkpt>
      <trkpt lat="38.93148067" lon="-0.13822117">
        <ele>17.0</ele>
        <time>2018-06-10T07:40:13.065Z</time>
      </trkpt>
      <trkpt lat="38.93143433" lon="-0.138138">
        <ele>17.0</ele>
        <time>2018-06-10T07:40:14.065Z</time>
      </trkpt>
      <trkpt lat="38.9313875" lon="-0.1380545">
        <ele>17.0</ele>
        <time>2018-06-10T07:40:15.065Z</time>
      </trkpt>
      <trkpt lat="38.9313405" lon="-0.1379705">
        <ele>17.0</ele>
        <time>2018-06-10T07:40:16.065Z</time>
      </trkpt>
      <trkpt lat="38.93129333" lon="-0.13788583">
        <ele>17.0</ele>
        <time>2018-06-10T07:40:17.065Z</time>
      </trkpt>
      <trkpt lat="38.93124667" lon="-0.13780033">
        <ele>16.0</ele>
        <time>2018-06-10T07:40:18.065Z</time>
      </trkpt>
      <trkpt lat="38.93119983" lon="-0.13771433">
        <ele>16.0</ele>
        <time>2018-06-10T07:40:19.065Z</time>
      </trkpt>
      <trkpt lat="38.93115283" lon="-0.13762817">
        <ele>16.0</ele>
        <time>2018-06-10T07:40:20.065Z</time>
      </trkpt>
      <trkpt lat="38.9311055" lon="-0.13754217">
        <ele>16.0</ele>
        <time>2018-06-10T07:40:21.065Z</time>
      </trkpt>
      <trkpt lat="38.93105817" lon="-0.137456">
        <ele>16.0</ele>
        <time>2018-06-10T07:40:22.065Z</time>
      </trkpt>
      <trkpt lat="38.931011" lon="-0.13736967">
        <ele>16.0</ele>
        <time>2018-06-10T07:40:23.065Z</time>
      </trkpt>
      <trkpt lat="38.93096367" lon="-0.1372835">
        <ele>16.0</ele>
        <time>2018-06-10T07:40:24.065Z</time>
      </trkpt>
      <trkpt lat="38.93091633" lon="-0.13719733">
        <ele>16.0</ele>
        <time>2018-06-10T07:40:25.065Z</time>
      </trkpt>
      <trkpt lat="38.930868" lon="-0.137111">
        <ele>16.0</ele>
        <time>2018-06-10T07:40:26.065Z</time>
      </trkpt>
      <trkpt lat="38.93081967" lon="-0.13702433">
        <ele>16.0</ele>
        <time>2018-06-10T07:40:27.065Z</time>
      </trkpt>
      <trkpt lat="38.930771" lon="-0.1369375">
        <ele>16.0</ele>
        <time>2018-06-10T07:40:28.065Z</time>
      </trkpt>
      <trkpt lat="38.93072283" lon="-0.13685067">
        <ele>16.0</ele>
        <time>2018-06-10T07:40:29.065Z</time>
      </trkpt>
      <trkpt lat="38.93067483" lon="-0.13676367">
        <ele>16.0</ele>
        <time>2018-06-10T07:40:30.065Z</time>
      </trkpt>
      <trkpt lat="38.93062717" lon="-0.1366765">
        <ele>16.0</ele>
        <time>2018-06-10T07:40:31.065Z</time>
      </trkpt>
      <trkpt lat="38.93057917" lon="-0.13658917">
        <ele>16.0</ele>
        <time>2018-06-10T07:40:32.065Z</time>
      </trkpt>
      <trkpt lat="38.93053133" lon="-0.13650217">
        <ele>16.0</ele>
        <time>2018-06-10T07:40:33.065Z</time>
      </trkpt>
      <trkpt lat="38.93048317" lon="-0.136415">
        <ele>16.0</ele>
        <time>2018-06-10T07:40:34.065Z</time>
      </trkpt>
      <trkpt lat="38.93043467" lon="-0.13632817">
        <ele>16.0</ele>
        <time>2018-06-10T07:40:35.065Z</time>
      </trkpt>
      <trkpt lat="38.93038583" lon="-0.136241">
        <ele>16.0</ele>
        <time>2018-06-10T07:40:36.065Z</time>
      </trkpt>
      <trkpt lat="38.930337" lon="-0.13615367">
        <ele>16.0</ele>
        <time>2018-06-10T07:40:37.065Z</time>
      </trkpt>
      <trkpt lat="38.930288" lon="-0.13606567">
        <ele>16.0</ele>
        <time>2018-06-10T07:40:38.065Z</time>
      </trkpt>
      <trkpt lat="38.93023933" lon="-0.135977">
        <ele>16.0</ele>
        <time>2018-06-10T07:40:39.065Z</time>
      </trkpt>
      <trkpt lat="38.93019117" lon="-0.13588733">
        <ele>16.0</ele>
        <time>2018-06-10T07:40:40.065Z</time>
      </trkpt>
      <trkpt lat="38.9301435" lon="-0.1357975">
        <ele>16.0</ele>
        <time>2018-06-10T07:40:41.065Z</time>
      </trkpt>
      <trkpt lat="38.93009617" lon="-0.1357075">
        <ele>15.0</ele>
        <time>2018-06-10T07:40:42.065Z</time>
      </trkpt>
      <trkpt lat="38.93004833" lon="-0.1356185">
        <ele>15.0</ele>
        <time>2018-06-10T07:40:43.065Z</time>
      </trkpt>
      <trkpt lat="38.92999983" lon="-0.13552967">
        <ele>15.0</ele>
        <time>2018-06-10T07:40:44.065Z</time>
      </trkpt>
      <trkpt lat="38.929951" lon="-0.135441">
        <ele>15.0</ele>
        <time>2018-06-10T07:40:45.065Z</time>
      </trkpt>
      <trkpt lat="38.92990233" lon="-0.13535217">
        <ele>15.0</ele>
        <time>2018-06-10T07:40:46.065Z</time>
      </trkpt>
      <trkpt lat="38.92985433" lon="-0.135263">
        <ele>15.0</ele>
        <time>2018-06-10T07:40:47.065Z</time>
      </trkpt>
      <trkpt lat="38.92980633" lon="-0.13517383">
        <ele>15.0</ele>
        <time>2018-06-10T07:40:48.065Z</time>
      </trkpt>
      <trkpt lat="38.929758" lon="-0.135085">
        <ele>15.0</ele>
        <time>2018-06-10T07:40:49.065Z</time>
      </trkpt>
      <trkpt lat="38.92970933" lon="-0.13499667">
        <ele>15.0</ele>
        <time>2018-06-10T07:40:50.065Z</time>
      </trkpt>
      <trkpt lat="38.9296615" lon="-0.1349075">
        <ele>15.0</ele>
        <time>2018-06-10T07:40:51.065Z</time>
      </trkpt>
      <trkpt lat="38.92961383" lon="-0.13481783">
        <ele>15.0</ele>
        <time>2018-06-10T07:40:52.065Z</time>
      </trkpt>
      <trkpt lat="38.929566" lon="-0.13472767">
        <ele>15.0</ele>
        <time>2018-06-10T07:40:53.065Z</time>
      </trkpt>
      <trkpt lat="38.92951683" lon="-0.134638">
        <ele>14.0</ele>
        <time>2018-06-10T07:40:54.065Z</time>
      </trkpt>
      <trkpt lat="38.929466" lon="-0.13454867">
        <ele>14.0</ele>
        <time>2018-06-10T07:40:55.065Z</time>
      </trkpt>
      <trkpt lat="38.9294145" lon="-0.13445883">
        <ele>14.0</ele>
        <time>2018-06-10T07:40:56.065Z</time>
      </trkpt>
      <trkpt lat="38.92936283" lon="-0.13436883">
        <ele>14.0</ele>
        <time>2018-06-10T07:40:57.065Z</time>
      </trkpt>
      <trkpt lat="38.9293115" lon="-0.1342785">
        <ele>14.0</ele>
        <time>2018-06-10T07:40:58.065Z</time>
      </trkpt>
      <trkpt lat="38.9292605" lon="-0.13418783">
        <ele>14.0</ele>
        <time>2018-06-10T07:40:59.065Z</time>
      </trkpt>
      <trkpt lat="38.92920983" lon="-0.13409633">
        <ele>14.0</ele>
        <time>2018-06-10T07:41:00.065Z</time>
      </trkpt>
      <trkpt lat="38.92915933" lon="-0.1340045">
        <ele>14.0</ele>
        <time>2018-06-10T07:41:01.065Z</time>
      </trkpt>
      <trkpt lat="38.9291085" lon="-0.13391267">
        <ele>14.0</ele>
        <time>2018-06-10T07:41:02.065Z</time>
      </trkpt>
      <trkpt lat="38.92905783" lon="-0.1338205">
        <ele>14.0</ele>
        <time>2018-06-10T07:41:03.065Z</time>
      </trkpt>
      <trkpt lat="38.929007" lon="-0.1337285">
        <ele>14.0</ele>
        <time>2018-06-10T07:41:04.065Z</time>
      </trkpt>
      <trkpt lat="38.92895583" lon="-0.13363667">
        <ele>14.0</ele>
        <time>2018-06-10T07:41:05.065Z</time>
      </trkpt>
      <trkpt lat="38.928904" lon="-0.13354517">
        <ele>14.0</ele>
        <time>2018-06-10T07:41:06.065Z</time>
      </trkpt>
      <trkpt lat="38.9288525" lon="-0.1334535">
        <ele>14.0</ele>
        <time>2018-06-10T07:41:07.065Z</time>
      </trkpt>
      <trkpt lat="38.928801" lon="-0.1333615">
        <ele>14.0</ele>
        <time>2018-06-10T07:41:08.065Z</time>
      </trkpt>
      <trkpt lat="38.92875033" lon="-0.13326917">
        <ele>14.0</ele>
        <time>2018-06-10T07:41:09.065Z</time>
      </trkpt>
      <trkpt lat="38.92870017" lon="-0.13317617">
        <ele>14.0</ele>
        <time>2018-06-10T07:41:10.065Z</time>
      </trkpt>
      <trkpt lat="38.92865" lon="-0.13308317">
        <ele>13.0</ele>
        <time>2018-06-10T07:41:11.065Z</time>
      </trkpt>
      <trkpt lat="38.92859983" lon="-0.1329905">
        <ele>13.0</ele>
        <time>2018-06-10T07:41:12.065Z</time>
      </trkpt>
      <trkpt lat="38.92854967" lon="-0.13289833">
        <ele>13.0</ele>
        <time>2018-06-10T07:41:13.065Z</time>
      </trkpt>
      <trkpt lat="38.9284995" lon="-0.13280633">
        <ele>13.0</ele>
        <time>2018-06-10T07:41:14.065Z</time>
      </trkpt>
      <trkpt lat="38.928449" lon="-0.13271467">
        <ele>13.0</ele>
        <time>2018-06-10T07:41:15.065Z</time>
      </trkpt>
      <trkpt lat="38.9283985" lon="-0.132623">
        <ele>13.0</ele>
        <time>2018-06-10T07:41:16.065Z</time>
      </trkpt>
      <trkpt lat="38.92834833" lon="-0.132531">
        <ele>13.0</ele>
        <time>2018-06-10T07:41:17.065Z</time>
      </trkpt>
      <trkpt lat="38.92829867" lon="-0.1324385">
        <ele>13.0</ele>
        <time>2018-06-10T07:41:18.065Z</time>
      </trkpt>
      <trkpt lat="38.92824933" lon="-0.132346">
        <ele>13.0</ele>
        <time>2018-06-10T07:41:19.065Z</time>
      </trkpt>
      <trkpt lat="38.92819983" lon="-0.132254">
        <ele>13.0</ele>
        <time>2018-06-10T07:41:20.065Z</time>
      </trkpt>
      <trkpt lat="38.92815033" lon="-0.13216267">
        <ele>13.0</ele>
        <time>2018-06-10T07:41:21.065Z</time>
      </trkpt>
      <trkpt lat="38.9281005" lon="-0.132072">
        <ele>13.0</ele>
        <time>2018-06-10T07:41:22.065Z</time>
      </trkpt>
      <trkpt lat="38.9280515" lon="-0.13198117">
        <ele>13.0</ele>
        <time>2018-06-10T07:41:23.065Z</time>
      </trkpt>
      <trkpt lat="38.9280025" lon="-0.13189033">
        <ele>13.0</ele>
        <time>2018-06-10T07:41:24.065Z</time>
      </trkpt>
      <trkpt lat="38.927953" lon="-0.13179983">
        <ele>12.0</ele>
        <time>2018-06-10T07:41:25.065Z</time>
      </trkpt>
      <trkpt lat="38.92790283" lon="-0.13171">
        <ele>12.0</ele>
        <time>2018-06-10T07:41:26.065Z</time>
      </trkpt>
      <trkpt lat="38.92785267" lon="-0.13162033">
        <ele>12.0</ele>
        <time>2018-06-10T07:41:27.065Z</time>
      </trkpt>
      <trkpt lat="38.92780283" lon="-0.13153067">
        <ele>12.0</ele>
        <time>2018-06-10T07:41:28.065Z</time>
      </trkpt>
      <trkpt lat="38.927753" lon="-0.13144083">
        <ele>12.0</ele>
        <time>2018-06-10T07:41:29.065Z</time>
      </trkpt>
      <trkpt lat="38.92770367" lon="-0.13135083">
        <ele>12.0</ele>
        <time>2018-06-10T07:41:30.065Z</time>
      </trkpt>
      <trkpt lat="38.92765433" lon="-0.131261">
        <ele>12.0</ele>
        <time>2018-06-10T07:41:31.065Z</time>
      </trkpt>
      <trkpt lat="38.92760517" lon="-0.1311715">
        <ele>12.0</ele>
        <time>2018-06-10T07:41:32.065Z</time>
      </trkpt>
      <trkpt lat="38.9275555" lon="-0.1310825">
        <ele>12.0</ele>
        <time>2018-06-10T07:41:33.065Z</time>
      </trkpt>
      <trkpt lat="38.92750583" lon="-0.1309935">
        <ele>12.0</ele>
        <time>2018-06-10T07:41:34.065Z</time>
      </trkpt>
      <trkpt lat="38.9274565" lon="-0.13090417">
        <ele>12.0</ele>
        <time>2018-06-10T07:41:35.065Z</time>
      </trkpt>
      <trkpt lat="38.927407" lon="-0.130815">
        <ele>12.0</ele>
        <time>2018-06-10T07:41:36.065Z</time>
      </trkpt>
      <trkpt lat="38.92735783" lon="-0.1307255">
        <ele>12.0</ele>
        <time>2018-06-10T07:41:37.065Z</time>
      </trkpt>
      <trkpt lat="38.927308" lon="-0.13063633">
        <ele>12.0</ele>
        <time>2018-06-10T07:41:38.065Z</time>
      </trkpt>
      <trkpt lat="38.9272585" lon="-0.13054683">
        <ele>12.0</ele>
        <time>2018-06-10T07:41:39.065Z</time>
      </trkpt>
      <trkpt lat="38.9272085" lon="-0.1304575">
        <ele>12.0</ele>
        <time>2018-06-10T07:41:40.065Z</time>
      </trkpt>
      <trkpt lat="38.92715867" lon="-0.13036817">
        <ele>12.0</ele>
        <time>2018-06-10T07:41:41.065Z</time>
      </trkpt>
      <trkpt lat="38.92710833" lon="-0.130279">
        <ele>12.0</ele>
        <time>2018-06-10T07:41:42.065Z</time>
      </trkpt>
      <trkpt lat="38.92705817" lon="-0.1301895">
        <ele>12.0</ele>
        <time>2018-06-10T07:41:43.065Z</time>
      </trkpt>
      <trkpt lat="38.927009" lon="-0.1300995">
        <ele>12.0</ele>
        <time>2018-06-10T07:41:44.065Z</time>
      </trkpt>
      <trkpt lat="38.9269605" lon="-0.130009">
        <ele>12.0</ele>
        <time>2018-06-10T07:41:45.065Z</time>
      </trkpt>
      <trkpt lat="38.92691283" lon="-0.12991867">
        <ele>12.0</ele>
        <time>2018-06-10T07:41:46.065Z</time>
      </trkpt>
      <trkpt lat="38.92686483" lon="-0.12982933">
        <ele>12.0</ele>
        <time>2018-06-10T07:41:47.065Z</time>
      </trkpt>
      <trkpt lat="38.92681617" lon="-0.12974133">
        <ele>12.0</ele>
        <time>2018-06-10T07:41:48.065Z</time>
      </trkpt>
      <trkpt lat="38.92676733" lon="-0.12965383">
        <ele>12.0</ele>
        <time>2018-06-10T07:41:49.065Z</time>
      </trkpt>
      <trkpt lat="38.92671933" lon="-0.12956633">
        <ele>12.0</ele>
        <time>2018-06-10T07:41:50.065Z</time>
      </trkpt>
      <trkpt lat="38.92667183" lon="-0.12947867">
        <ele>12.0</ele>
        <time>2018-06-10T07:41:51.065Z</time>
      </trkpt>
      <trkpt lat="38.9266245" lon="-0.12939117">
        <ele>12.0</ele>
        <time>2018-06-10T07:41:52.065Z</time>
      </trkpt>
      <trkpt lat="38.92657733" lon="-0.129304">
        <ele>12.0</ele>
        <time>2018-06-10T07:41:53.065Z</time>
      </trkpt>
      <trkpt lat="38.92653" lon="-0.12921717">
        <ele>12.0</ele>
        <time>2018-06-10T07:41:54.065Z</time>
      </trkpt>
      <trkpt lat="38.92648233" lon="-0.1291305">
        <ele>12.0</ele>
        <time>2018-06-10T07:41:55.065Z</time>
      </trkpt>
      <trkpt lat="38.92643417" lon="-0.129044">
        <ele>12.0</ele>
        <time>2018-06-10T07:41:56.065Z</time>
      </trkpt>
      <trkpt lat="38.92638617" lon="-0.1289575">
        <ele>12.0</ele>
        <time>2018-06-10T07:41:57.065Z</time>
      </trkpt>
      <trkpt lat="38.926339" lon="-0.1288715">
        <ele>12.0</ele>
        <time>2018-06-10T07:41:58.065Z</time>
      </trkpt>
      <trkpt lat="38.92629233" lon="-0.12878583">
        <ele>12.0</ele>
        <time>2018-06-10T07:41:59.065Z</time>
      </trkpt>
      <trkpt lat="38.9262465" lon="-0.12870083">
        <ele>12.0</ele>
        <time>2018-06-10T07:42:00.065Z</time>
      </trkpt>
      <trkpt lat="38.92620117" lon="-0.12861717">
        <ele>12.0</ele>
        <time>2018-06-10T07:42:01.065Z</time>
      </trkpt>
      <trkpt lat="38.92615683" lon="-0.128535">
        <ele>12.0</ele>
        <time>2018-06-10T07:42:02.065Z</time>
      </trkpt>
      <trkpt lat="38.92611283" lon="-0.12845483">
        <ele>12.0</ele>
        <time>2018-06-10T07:42:03.065Z</time>
      </trkpt>
      <trkpt lat="38.9260695" lon="-0.12837633">
        <ele>12.0</ele>
        <time>2018-06-10T07:42:04.065Z</time>
      </trkpt>
      <trkpt lat="38.9260265" lon="-0.12829867">
        <ele>12.0</ele>
        <time>2018-06-10T07:42:05.065Z</time>
      </trkpt>
      <trkpt lat="38.92598367" lon="-0.128221">
        <ele>12.0</ele>
        <time>2018-06-10T07:42:06.065Z</time>
      </trkpt>
      <trkpt lat="38.92594033" lon="-0.128143">
        <ele>12.0</ele>
        <time>2018-06-10T07:42:07.065Z</time>
      </trkpt>
      <trkpt lat="38.92589667" lon="-0.128065">
        <ele>12.0</ele>
        <time>2018-06-10T07:42:08.065Z</time>
      </trkpt>
      <trkpt lat="38.92585267" lon="-0.1279865">
        <ele>12.0</ele>
        <time>2018-06-10T07:42:09.065Z</time>
      </trkpt>
      <trkpt lat="38.92580883" lon="-0.127907">
        <ele>12.0</ele>
        <time>2018-06-10T07:42:10.065Z</time>
      </trkpt>
      <trkpt lat="38.92576483" lon="-0.1278265">
        <ele>12.0</ele>
        <time>2018-06-10T07:42:11.065Z</time>
      </trkpt>
      <trkpt lat="38.92572" lon="-0.12774567">
        <ele>12.0</ele>
        <time>2018-06-10T07:42:12.065Z</time>
      </trkpt>
      <trkpt lat="38.925674" lon="-0.1276655">
        <ele>11.0</ele>
        <time>2018-06-10T07:42:13.065Z</time>
      </trkpt>
      <trkpt lat="38.92562683" lon="-0.127586">
        <ele>11.0</ele>
        <time>2018-06-10T07:42:14.065Z</time>
      </trkpt>
      <trkpt lat="38.92557883" lon="-0.12750667">
        <ele>11.0</ele>
        <time>2018-06-10T07:42:15.065Z</time>
      </trkpt>
      <trkpt lat="38.92553033" lon="-0.12742767">
        <ele>11.0</ele>
        <time>2018-06-10T07:42:16.065Z</time>
      </trkpt>
      <trkpt lat="38.925481" lon="-0.12734967">
        <ele>11.0</ele>
        <time>2018-06-10T07:42:17.065Z</time>
      </trkpt>
      <trkpt lat="38.92543017" lon="-0.1272735">
        <ele>11.0</ele>
        <time>2018-06-10T07:42:18.065Z</time>
      </trkpt>
      <trkpt lat="38.925378" lon="-0.12719917">
        <ele>11.0</ele>
        <time>2018-06-10T07:42:19.065Z</time>
      </trkpt>
      <trkpt lat="38.92532467" lon="-0.1271265">
        <ele>11.0</ele>
        <time>2018-06-10T07:42:20.065Z</time>
      </trkpt>
      <trkpt lat="38.92527117" lon="-0.1270545">
        <ele>11.0</ele>
        <time>2018-06-10T07:42:21.065Z</time>
      </trkpt>
      <trkpt lat="38.92521767" lon="-0.1269835">
        <ele>11.0</ele>
        <time>2018-06-10T07:42:22.065Z</time>
      </trkpt>
      <trkpt lat="38.9251635" lon="-0.126914">
        <ele>11.0</ele>
        <time>2018-06-10T07:42:23.065Z</time>
      </trkpt>
      <trkpt lat="38.92510867" lon="-0.12684667">
        <ele>11.0</ele>
        <time>2018-06-10T07:42:24.065Z</time>
      </trkpt>
      <trkpt lat="38.92505317" lon="-0.12678083">
        <ele>11.0</ele>
        <time>2018-06-10T07:42:25.065Z</time>
      </trkpt>
      <trkpt lat="38.924998" lon="-0.12671633">
        <ele>11.0</ele>
        <time>2018-06-10T07:42:26.065Z</time>
      </trkpt>
      <trkpt lat="38.9249435" lon="-0.12665267">
        <ele>11.0</ele>
        <time>2018-06-10T07:42:27.065Z</time>
      </trkpt>
      <trkpt lat="38.92489" lon="-0.12659017">
        <ele>11.0</ele>
        <time>2018-06-10T07:42:28.065Z</time>
      </trkpt>
      <trkpt lat="38.92483683" lon="-0.12652817">
        <ele>11.0</ele>
        <time>2018-06-10T07:42:29.065Z</time>
      </trkpt>
      <trkpt lat="38.92478383" lon="-0.1264665">
        <ele>11.0</ele>
        <time>2018-06-10T07:42:30.065Z</time>
      </trkpt>
      <trkpt lat="38.92473033" lon="-0.126405">
        <ele>11.0</ele>
        <time>2018-06-10T07:42:31.065Z</time>
      </trkpt>
      <trkpt lat="38.9246765" lon="-0.12634317">
        <ele>11.0</ele>
        <time>2018-06-10T07:42:32.065Z</time>
      </trkpt>
      <trkpt lat="38.92462217" lon="-0.12628167">
        <ele>11.0</ele>
        <time>2018-06-10T07:42:33.065Z</time>
      </trkpt>
      <trkpt lat="38.9245675" lon="-0.12621983">
        <ele>11.0</ele>
        <time>2018-06-10T07:42:34.065Z</time>
      </trkpt>
      <trkpt lat="38.92451217" lon="-0.12615767">
        <ele>11.0</ele>
        <time>2018-06-10T07:42:35.065Z</time>
      </trkpt>
      <trkpt lat="38.9244555" lon="-0.12609383">
        <ele>11.0</ele>
        <time>2018-06-10T07:42:36.065Z</time>
      </trkpt>
      <trkpt lat="38.92439767" lon="-0.12602833">
        <ele>11.0</ele>
        <time>2018-06-10T07:42:37.065Z</time>
      </trkpt>
      <trkpt lat="38.92433917" lon="-0.12596183">
        <ele>11.0</ele>
        <time>2018-06-10T07:42:38.065Z</time>
      </trkpt>
      <trkpt lat="38.92428067" lon="-0.125895">
        <ele>11.0</ele>
        <time>2018-06-10T07:42:39.065Z</time>
      </trkpt>
      <trkpt lat="38.92422317" lon="-0.1258305">
        <ele>12.0</ele>
        <time>2018-06-10T07:42:40.065Z</time>
      </trkpt>
      <trkpt lat="38.92416717" lon="-0.12576533">
        <ele>12.0</ele>
        <time>2018-06-10T07:42:41.065Z</time>
      </trkpt>
      <trkpt lat="38.92411167" lon="-0.12570167">
        <ele>12.0</ele>
        <time>2018-06-10T07:42:42.065Z</time>
      </trkpt>
      <trkpt lat="38.92405767" lon="-0.12563533">
        <ele>12.0</ele>
        <time>2018-06-10T07:42:43.065Z</time>
      </trkpt>
      <trkpt lat="38.92400383" lon="-0.12557233">
        <ele>12.0</ele>
        <time>2018-06-10T07:42:44.065Z</time>
      </trkpt>
      <trkpt lat="38.92395533" lon="-0.12551533">
        <ele>12.0</ele>
        <time>2018-06-10T07:42:45.065Z</time>
      </trkpt>
      <trkpt lat="38.9239115" lon="-0.12546617">
        <ele>13.0</ele>
        <time>2018-06-10T07:42:46.065Z</time>
      </trkpt>
      <trkpt lat="38.923873" lon="-0.12542267">
        <ele>13.0</ele>
        <time>2018-06-10T07:42:47.065Z</time>
      </trkpt>
      <trkpt lat="38.92383583" lon="-0.12538317">
        <ele>14.0</ele>
        <time>2018-06-10T07:42:48.065Z</time>
      </trkpt>
      <trkpt lat="38.92380133" lon="-0.12534733">
        <ele>15.0</ele>
        <time>2018-06-10T07:42:49.065Z</time>
      </trkpt>
      <trkpt lat="38.923771" lon="-0.12531533">
        <ele>15.0</ele>
        <time>2018-06-10T07:42:50.065Z</time>
      </trkpt>
      <trkpt lat="38.92374817" lon="-0.12528383">
        <ele>15.0</ele>
        <time>2018-06-10T07:42:51.065Z</time>
      </trkpt>
      <trkpt lat="38.923729" lon="-0.12525567">
        <ele>15.0</ele>
        <time>2018-06-10T07:42:52.065Z</time>
      </trkpt>
      <trkpt lat="38.923714" lon="-0.12523083">
        <ele>16.0</ele>
        <time>2018-06-10T07:42:53.065Z</time>
      </trkpt>
      <trkpt lat="38.92369967" lon="-0.12521">
        <ele>16.0</ele>
        <time>2018-06-10T07:42:54.065Z</time>
      </trkpt>
      <trkpt lat="38.923688" lon="-0.12519167">
        <ele>16.0</ele>
        <time>2018-06-10T07:42:55.065Z</time>
      </trkpt>
      <trkpt lat="38.92367683" lon="-0.12517533">
        <ele>17.0</ele>
        <time>2018-06-10T07:42:56.065Z</time>
      </trkpt>
      <trkpt lat="38.9236665" lon="-0.1251615">
        <ele>17.0</ele>
        <time>2018-06-10T07:42:57.065Z</time>
      </trkpt>
      <trkpt lat="38.9236585" lon="-0.12514967">
        <ele>17.0</ele>
        <time>2018-06-10T07:42:58.065Z</time>
      </trkpt>
      <trkpt lat="38.92367283" lon="-0.12511433">
        <ele>24.0</ele>
        <time>2018-06-10T07:42:59.002Z</time>
      </trkpt>
      <trkpt lat="38.92367433" lon="-0.12511133">
        <ele>24.0</ele>
        <time>2018-06-10T07:43:00.002Z</time>
      </trkpt>
      <trkpt lat="38.92362717" lon="-0.12502483">
        <ele>25.0</ele>
        <time>2018-06-10T07:43:01.025Z</time>
      </trkpt>
      <trkpt lat="38.92361183" lon="-0.12500217">
        <ele>26.0</ele>
        <time>2018-06-10T07:43:02.025Z</time>
      </trkpt>
      <trkpt lat="38.92359683" lon="-0.12497433">
        <ele>26.0</ele>
        <time>2018-06-10T07:43:03.025Z</time>
      </trkpt>
      <trkpt lat="38.92357717" lon="-0.12494183">
        <ele>25.0</ele>
        <time>2018-06-10T07:43:04.025Z</time>
      </trkpt>
      <trkpt lat="38.923553" lon="-0.12490667">
        <ele>25.0</ele>
        <time>2018-06-10T07:43:05.025Z</time>
      </trkpt>
      <trkpt lat="38.92352117" lon="-0.1248725">
        <ele>24.0</ele>
        <time>2018-06-10T07:43:06.025Z</time>
      </trkpt>
      <trkpt lat="38.92348717" lon="-0.12483867">
        <ele>24.0</ele>
        <time>2018-06-10T07:43:07.025Z</time>
      </trkpt>
      <trkpt lat="38.92344867" lon="-0.124805">
        <ele>24.0</ele>
        <time>2018-06-10T07:43:08.025Z</time>
      </trkpt>
      <trkpt lat="38.92341067" lon="-0.12476917">
        <ele>23.0</ele>
        <time>2018-06-10T07:43:09.025Z</time>
      </trkpt>
      <trkpt lat="38.923368" lon="-0.12473283">
        <ele>22.0</ele>
        <time>2018-06-10T07:43:10.025Z</time>
      </trkpt>
      <trkpt lat="38.92332117" lon="-0.12469833">
        <ele>22.0</ele>
        <time>2018-06-10T07:43:11.025Z</time>
      </trkpt>
      <trkpt lat="38.92327167" lon="-0.1246635">
        <ele>21.0</ele>
        <time>2018-06-10T07:43:12.025Z</time>
      </trkpt>
      <trkpt lat="38.92322417" lon="-0.1246285">
        <ele>21.0</ele>
        <time>2018-06-10T07:43:13.025Z</time>
      </trkpt>
      <trkpt lat="38.9231795" lon="-0.124591">
        <ele>22.0</ele>
        <time>2018-06-10T07:43:14.025Z</time>
      </trkpt>
      <trkpt lat="38.92313533" lon="-0.1245535">
        <ele>22.0</ele>
        <time>2018-06-10T07:43:15.025Z</time>
      </trkpt>
      <trkpt lat="38.92309267" lon="-0.12451433">
        <ele>22.0</ele>
        <time>2018-06-10T07:43:16.025Z</time>
      </trkpt>
      <trkpt lat="38.92305217" lon="-0.124474">
        <ele>22.0</ele>
        <time>2018-06-10T07:43:17.025Z</time>
      </trkpt>
      <trkpt lat="38.9230175" lon="-0.12443367">
        <ele>21.0</ele>
        <time>2018-06-10T07:43:18.025Z</time>
      </trkpt>
      <trkpt lat="38.92298583" lon="-0.1243915">
        <ele>20.0</ele>
        <time>2018-06-10T07:43:19.025Z</time>
      </trkpt>
      <trkpt lat="38.92295233" lon="-0.12434933">
        <ele>20.0</ele>
        <time>2018-06-10T07:43:20.025Z</time>
      </trkpt>
      <trkpt lat="38.92291267" lon="-0.12430667">
        <ele>21.0</ele>
        <time>2018-06-10T07:43:21.025Z</time>
      </trkpt>
      <trkpt lat="38.92287117" lon="-0.12426467">
        <ele>22.0</ele>
        <time>2018-06-10T07:43:22.025Z</time>
      </trkpt>
      <trkpt lat="38.92283183" lon="-0.12422267">
        <ele>24.0</ele>
        <time>2018-06-10T07:43:23.025Z</time>
      </trkpt>
      <trkpt lat="38.92279617" lon="-0.12417917">
        <ele>25.0</ele>
        <time>2018-06-10T07:43:24.025Z</time>
      </trkpt>
      <trkpt lat="38.92276" lon="-0.12413433">
        <ele>26.0</ele>
        <time>2018-06-10T07:43:25.025Z</time>
      </trkpt>
      <trkpt lat="38.92272467" lon="-0.12408633">
        <ele>26.0</ele>
        <time>2018-06-10T07:43:26.025Z</time>
      </trkpt>
      <trkpt lat="38.9226845" lon="-0.12403833">
        <ele>25.0</ele>
        <time>2018-06-10T07:43:27.025Z</time>
      </trkpt>
      <trkpt lat="38.92264217" lon="-0.12399067">
        <ele>25.0</ele>
        <time>2018-06-10T07:43:28.025Z</time>
      </trkpt>
      <trkpt lat="38.92259467" lon="-0.1239465">
        <ele>26.0</ele>
        <time>2018-06-10T07:43:29.025Z</time>
      </trkpt>
      <trkpt lat="38.92254933" lon="-0.12390217">
        <ele>26.0</ele>
        <time>2018-06-10T07:43:30.025Z</time>
      </trkpt>
      <trkpt lat="38.92250567" lon="-0.12385917">
        <ele>26.0</ele>
        <time>2018-06-10T07:43:31.025Z</time>
      </trkpt>
      <trkpt lat="38.92246717" lon="-0.1238125">
        <ele>27.0</ele>
        <time>2018-06-10T07:43:32.025Z</time>
      </trkpt>
      <trkpt lat="38.92242767" lon="-0.12376467">
        <ele>27.0</ele>
        <time>2018-06-10T07:43:33.025Z</time>
      </trkpt>
      <trkpt lat="38.92238817" lon="-0.1237145">
        <ele>27.0</ele>
        <time>2018-06-10T07:43:34.025Z</time>
      </trkpt>
      <trkpt lat="38.92234633" lon="-0.1236655">
        <ele>28.0</ele>
        <time>2018-06-10T07:43:35.025Z</time>
      </trkpt>
      <trkpt lat="38.92230817" lon="-0.1236145">
        <ele>28.0</ele>
        <time>2018-06-10T07:43:36.025Z</time>
      </trkpt>
      <trkpt lat="38.922269" lon="-0.12356367">
        <ele>28.0</ele>
        <time>2018-06-10T07:43:37.025Z</time>
      </trkpt>
      <trkpt lat="38.9222275" lon="-0.123514">
        <ele>28.0</ele>
        <time>2018-06-10T07:43:38.025Z</time>
      </trkpt>
      <trkpt lat="38.92218417" lon="-0.123465">
        <ele>28.0</ele>
        <time>2018-06-10T07:43:39.025Z</time>
      </trkpt>
      <trkpt lat="38.92213933" lon="-0.12341617">
        <ele>28.0</ele>
        <time>2018-06-10T07:43:40.025Z</time>
      </trkpt>
      <trkpt lat="38.922096" lon="-0.1233655">
        <ele>27.0</ele>
        <time>2018-06-10T07:43:41.025Z</time>
      </trkpt>
      <trkpt lat="38.92205333" lon="-0.1233145">
        <ele>27.0</ele>
        <time>2018-06-10T07:43:42.025Z</time>
      </trkpt>
      <trkpt lat="38.92201183" lon="-0.123263">
        <ele>28.0</ele>
        <time>2018-06-10T07:43:43.025Z</time>
      </trkpt>
      <trkpt lat="38.92197133" lon="-0.12321133">
        <ele>28.0</ele>
        <time>2018-06-10T07:43:44.025Z</time>
      </trkpt>
      <trkpt lat="38.92193533" lon="-0.1231575">
        <ele>28.0</ele>
        <time>2018-06-10T07:43:45.025Z</time>
      </trkpt>
      <trkpt lat="38.92190067" lon="-0.12310317">
        <ele>29.0</ele>
        <time>2018-06-10T07:43:46.025Z</time>
      </trkpt>
      <trkpt lat="38.92186217" lon="-0.12305217">
        <ele>29.0</ele>
        <time>2018-06-10T07:43:47.025Z</time>
      </trkpt>
      <trkpt lat="38.92182267" lon="-0.12300133">
        <ele>30.0</ele>
        <time>2018-06-10T07:43:48.025Z</time>
      </trkpt>
      <trkpt lat="38.92179033" lon="-0.122944">
        <ele>31.0</ele>
        <time>2018-06-10T07:43:49.025Z</time>
      </trkpt>
      <trkpt lat="38.92176917" lon="-0.12287617">
        <ele>32.0</ele>
        <time>2018-06-10T07:43:50.025Z</time>
      </trkpt>
      <trkpt lat="38.921738" lon="-0.12281433">
        <ele>32.0</ele>
        <time>2018-06-10T07:43:51.025Z</time>
      </trkpt>
      <trkpt lat="38.92169267" lon="-0.12275983">
        <ele>31.0</ele>
        <time>2018-06-10T07:43:52.025Z</time>
      </trkpt>
      <trkpt lat="38.92163733" lon="-0.12270983">
        <ele>31.0</ele>
        <time>2018-06-10T07:43:53.025Z</time>
      </trkpt>
      <trkpt lat="38.92159083" lon="-0.12265067">
        <ele>30.0</ele>
        <time>2018-06-10T07:43:54.025Z</time>
      </trkpt>
      <trkpt lat="38.92155717" lon="-0.122582">
        <ele>30.0</ele>
        <time>2018-06-10T07:43:55.025Z</time>
      </trkpt>
      <trkpt lat="38.92153633" lon="-0.122507">
        <ele>31.0</ele>
        <time>2018-06-10T07:43:56.025Z</time>
      </trkpt>
      <trkpt lat="38.921525" lon="-0.12242817">
        <ele>31.0</ele>
        <time>2018-06-10T07:43:57.025Z</time>
      </trkpt>
      <trkpt lat="38.92152067" lon="-0.1223475">
        <ele>31.0</ele>
        <time>2018-06-10T07:43:58.025Z</time>
      </trkpt>
      <trkpt lat="38.921518" lon="-0.12226467">
        <ele>30.0</ele>
        <time>2018-06-10T07:43:59.025Z</time>
      </trkpt>
      <trkpt lat="38.92151733" lon="-0.12217983">
        <ele>30.0</ele>
        <time>2018-06-10T07:44:00.025Z</time>
      </trkpt>
      <trkpt lat="38.9215175" lon="-0.122092">
        <ele>30.0</ele>
        <time>2018-06-10T07:44:01.025Z</time>
      </trkpt>
      <trkpt lat="38.921518" lon="-0.1220045">
        <ele>29.0</ele>
        <time>2018-06-10T07:44:02.025Z</time>
      </trkpt>
      <trkpt lat="38.92152067" lon="-0.1219165">
        <ele>29.0</ele>
        <time>2018-06-10T07:44:03.025Z</time>
      </trkpt>
      <trkpt lat="38.921524" lon="-0.12182933">
        <ele>29.0</ele>
        <time>2018-06-10T07:44:04.025Z</time>
      </trkpt>
      <trkpt lat="38.9215295" lon="-0.1217415">
        <ele>30.0</ele>
        <time>2018-06-10T07:44:05.025Z</time>
      </trkpt>
      <trkpt lat="38.921534" lon="-0.12165267">
        <ele>30.0</ele>
        <time>2018-06-10T07:44:06.025Z</time>
      </trkpt>
      <trkpt lat="38.92153767" lon="-0.12156217">
        <ele>30.0</ele>
        <time>2018-06-10T07:44:07.025Z</time>
      </trkpt>
      <trkpt lat="38.9215395" lon="-0.12147067">
        <ele>31.0</ele>
        <time>2018-06-10T07:44:08.025Z</time>
      </trkpt>
      <trkpt lat="38.92154167" lon="-0.12137883">
        <ele>31.0</ele>
        <time>2018-06-10T07:44:09.025Z</time>
      </trkpt>
      <trkpt lat="38.92154417" lon="-0.12128783">
        <ele>31.0</ele>
        <time>2018-06-10T07:44:10.025Z</time>
      </trkpt>
      <trkpt lat="38.92154733" lon="-0.12119617">
        <ele>32.0</ele>
        <time>2018-06-10T07:44:11.025Z</time>
      </trkpt>
      <trkpt lat="38.92154967" lon="-0.1211045">
        <ele>32.0</ele>
        <time>2018-06-10T07:44:12.025Z</time>
      </trkpt>
      <trkpt lat="38.92155067" lon="-0.12101217">
        <ele>32.0</ele>
        <time>2018-06-10T07:44:13.025Z</time>
      </trkpt>
      <trkpt lat="38.92154767" lon="-0.12092083">
        <ele>32.0</ele>
        <time>2018-06-10T07:44:14.025Z</time>
      </trkpt>
      <trkpt lat="38.92153717" lon="-0.12083117">
        <ele>32.0</ele>
        <time>2018-06-10T07:44:15.025Z</time>
      </trkpt>
      <trkpt lat="38.92151783" lon="-0.12074283">
        <ele>32.0</ele>
        <time>2018-06-10T07:44:16.025Z</time>
      </trkpt>
      <trkpt lat="38.921494" lon="-0.12065517">
        <ele>32.0</ele>
        <time>2018-06-10T07:44:17.025Z</time>
      </trkpt>
      <trkpt lat="38.92147217" lon="-0.12056467">
        <ele>32.0</ele>
        <time>2018-06-10T07:44:18.025Z</time>
      </trkpt>
      <trkpt lat="38.92145233" lon="-0.12047183">
        <ele>32.0</ele>
        <time>2018-06-10T07:44:19.025Z</time>
      </trkpt>
      <trkpt lat="38.9214365" lon="-0.12037533">
        <ele>32.0</ele>
        <time>2018-06-10T07:44:20.025Z</time>
      </trkpt>
      <trkpt lat="38.92142067" lon="-0.12027917">
        <ele>32.0</ele>
        <time>2018-06-10T07:44:21.025Z</time>
      </trkpt>
      <trkpt lat="38.92140667" lon="-0.12018267">
        <ele>32.0</ele>
        <time>2018-06-10T07:44:22.025Z</time>
      </trkpt>
      <trkpt lat="38.92139117" lon="-0.1200875">
        <ele>32.0</ele>
        <time>2018-06-10T07:44:23.025Z</time>
      </trkpt>
      <trkpt lat="38.9213725" lon="-0.11999367">
        <ele>33.0</ele>
        <time>2018-06-10T07:44:24.025Z</time>
      </trkpt>
      <trkpt lat="38.921351" lon="-0.11990117">
        <ele>32.0</ele>
        <time>2018-06-10T07:44:25.025Z</time>
      </trkpt>
      <trkpt lat="38.92132017" lon="-0.1198125">
        <ele>30.0</ele>
        <time>2018-06-10T07:44:26.025Z</time>
      </trkpt>
      <trkpt lat="38.9212875" lon="-0.11972233">
        <ele>28.0</ele>
        <time>2018-06-10T07:44:27.025Z</time>
      </trkpt>
      <trkpt lat="38.9212555" lon="-0.11962983">
        <ele>26.0</ele>
        <time>2018-06-10T07:44:28.025Z</time>
      </trkpt>
      <trkpt lat="38.92122667" lon="-0.11953733">
        <ele>27.0</ele>
        <time>2018-06-10T07:44:29.025Z</time>
      </trkpt>
      <trkpt lat="38.921195" lon="-0.11945">
        <ele>27.0</ele>
        <time>2018-06-10T07:44:30.025Z</time>
      </trkpt>
      <trkpt lat="38.92115533" lon="-0.11937083">
        <ele>27.0</ele>
        <time>2018-06-10T07:44:31.025Z</time>
      </trkpt>
      <trkpt lat="38.92111317" lon="-0.11929383">
        <ele>27.0</ele>
        <time>2018-06-10T07:44:32.025Z</time>
      </trkpt>
      <trkpt lat="38.92106983" lon="-0.1192185">
        <ele>28.0</ele>
        <time>2018-06-10T07:44:33.025Z</time>
      </trkpt>
      <trkpt lat="38.92102667" lon="-0.11914367">
        <ele>28.0</ele>
        <time>2018-06-10T07:44:34.025Z</time>
      </trkpt>
      <trkpt lat="38.92098583" lon="-0.11906683">
        <ele>28.0</ele>
        <time>2018-06-10T07:44:35.025Z</time>
      </trkpt>
      <trkpt lat="38.920947" lon="-0.11898783">
        <ele>28.0</ele>
        <time>2018-06-10T07:44:36.025Z</time>
      </trkpt>
      <trkpt lat="38.92091217" lon="-0.1189055">
        <ele>28.0</ele>
        <time>2018-06-10T07:44:37.025Z</time>
      </trkpt>
      <trkpt lat="38.92087583" lon="-0.11882383">
        <ele>29.0</ele>
        <time>2018-06-10T07:44:38.025Z</time>
      </trkpt>
      <trkpt lat="38.92083733" lon="-0.11874333">
        <ele>29.0</ele>
        <time>2018-06-10T07:44:39.025Z</time>
      </trkpt>
      <trkpt lat="38.920796" lon="-0.11866467">
        <ele>29.0</ele>
        <time>2018-06-10T07:44:40.025Z</time>
      </trkpt>
      <trkpt lat="38.92075117" lon="-0.1185885">
        <ele>29.0</ele>
        <time>2018-06-10T07:44:41.025Z</time>
      </trkpt>
      <trkpt lat="38.920703" lon="-0.11851517">
        <ele>29.0</ele>
        <time>2018-06-10T07:44:42.025Z</time>
      </trkpt>
      <trkpt lat="38.92065667" lon="-0.11844133">
        <ele>29.0</ele>
        <time>2018-06-10T07:44:43.025Z</time>
      </trkpt>
      <trkpt lat="38.92061217" lon="-0.1183675">
        <ele>29.0</ele>
        <time>2018-06-10T07:44:44.025Z</time>
      </trkpt>
      <trkpt lat="38.92057233" lon="-0.1182915">
        <ele>29.0</ele>
        <time>2018-06-10T07:44:45.025Z</time>
      </trkpt>
      <trkpt lat="38.92052833" lon="-0.1182195">
        <ele>30.0</ele>
        <time>2018-06-10T07:44:46.025Z</time>
      </trkpt>
      <trkpt lat="38.92048283" lon="-0.11814933">
        <ele>29.0</ele>
        <time>2018-06-10T07:44:47.025Z</time>
      </trkpt>
      <trkpt lat="38.9204355" lon="-0.11808417">
        <ele>29.0</ele>
        <time>2018-06-10T07:44:48.025Z</time>
      </trkpt>
      <trkpt lat="38.92037683" lon="-0.11803283">
        <ele>29.0</ele>
        <time>2018-06-10T07:44:49.025Z</time>
      </trkpt>
      <trkpt lat="38.920311" lon="-0.11799733">
        <ele>29.0</ele>
        <time>2018-06-10T07:44:50.025Z</time>
      </trkpt>
      <trkpt lat="38.92023717" lon="-0.117982">
        <ele>29.0</ele>
        <time>2018-06-10T07:44:51.025Z</time>
      </trkpt>
      <trkpt lat="38.920171" lon="-0.11796867">
        <ele>29.0</ele>
        <time>2018-06-10T07:44:52.025Z</time>
      </trkpt>
      <trkpt lat="38.92010817" lon="-0.11795667">
        <ele>29.0</ele>
        <time>2018-06-10T07:44:53.025Z</time>
      </trkpt>
      <trkpt lat="38.9200475" lon="-0.117942">
        <ele>29.0</ele>
        <time>2018-06-10T07:44:54.025Z</time>
      </trkpt>
      <trkpt lat="38.91998383" lon="-0.11793467">
        <ele>30.0</ele>
        <time>2018-06-10T07:44:55.025Z</time>
      </trkpt>
      <trkpt lat="38.91992033" lon="-0.1179285">
        <ele>30.0</ele>
        <time>2018-06-10T07:44:56.025Z</time>
      </trkpt>
      <trkpt lat="38.919858" lon="-0.11792267">
        <ele>30.0</ele>
        <time>2018-06-10T07:44:57.025Z</time>
      </trkpt>
      <trkpt lat="38.9198005" lon="-0.11791317">
        <ele>30.0</ele>
        <time>2018-06-10T07:44:58.025Z</time>
      </trkpt>
      <trkpt lat="38.91974317" lon="-0.11790567">
        <ele>30.0</ele>
        <time>2018-06-10T07:44:59.025Z</time>
      </trkpt>
      <trkpt lat="38.9196855" lon="-0.11789867">
        <ele>30.0</ele>
        <time>2018-06-10T07:45:00.025Z</time>
      </trkpt>
      <trkpt lat="38.9196275" lon="-0.1178925">
        <ele>29.0</ele>
        <time>2018-06-10T07:45:01.025Z</time>
      </trkpt>
      <trkpt lat="38.919572" lon="-0.11788517">
        <ele>28.0</ele>
        <time>2018-06-10T07:45:02.025Z</time>
      </trkpt>
      <trkpt lat="38.91951717" lon="-0.11787967">
        <ele>28.0</ele>
        <time>2018-06-10T07:45:03.025Z</time>
      </trkpt>
      <trkpt lat="38.91946233" lon="-0.1178775">
        <ele>28.0</ele>
        <time>2018-06-10T07:45:04.025Z</time>
      </trkpt>
      <trkpt lat="38.91940667" lon="-0.1178745">
        <ele>28.0</ele>
        <time>2018-06-10T07:45:05.025Z</time>
      </trkpt>
      <trkpt lat="38.919351" lon="-0.11786533">
        <ele>28.0</ele>
        <time>2018-06-10T07:45:06.025Z</time>
      </trkpt>
      <trkpt lat="38.91929533" lon="-0.117854">
        <ele>28.0</ele>
        <time>2018-06-10T07:45:07.025Z</time>
      </trkpt>
      <trkpt lat="38.9192415" lon="-0.11784033">
        <ele>27.0</ele>
        <time>2018-06-10T07:45:08.025Z</time>
      </trkpt>
      <trkpt lat="38.9191905" lon="-0.11782883">
        <ele>26.0</ele>
        <time>2018-06-10T07:45:09.025Z</time>
      </trkpt>
      <trkpt lat="38.91914667" lon="-0.11782317">
        <ele>26.0</ele>
        <time>2018-06-10T07:45:10.025Z</time>
      </trkpt>
      <trkpt lat="38.91911017" lon="-0.11783117">
        <ele>25.0</ele>
        <time>2018-06-10T07:45:11.025Z</time>
      </trkpt>
      <trkpt lat="38.919075" lon="-0.117853">
        <ele>25.0</ele>
        <time>2018-06-10T07:45:12.025Z</time>
      </trkpt>
      <trkpt lat="38.91903433" lon="-0.1178815">
        <ele>25.0</ele>
        <time>2018-06-10T07:45:13.025Z</time>
      </trkpt>
      <trkpt lat="38.91898567" lon="-0.11791667">
        <ele>25.0</ele>
        <time>2018-06-10T07:45:14.025Z</time>
      </trkpt>
      <trkpt lat="38.918932" lon="-0.1179505">
        <ele>25.0</ele>
        <time>2018-06-10T07:45:15.025Z</time>
      </trkpt>
      <trkpt lat="38.91887533" lon="-0.11798383">
        <ele>24.0</ele>
        <time>2018-06-10T07:45:16.025Z</time>
      </trkpt>
      <trkpt lat="38.91881633" lon="-0.11801167">
        <ele>24.0</ele>
        <time>2018-06-10T07:45:17.025Z</time>
      </trkpt>
      <trkpt lat="38.91875567" lon="-0.11803217">
        <ele>24.0</ele>
        <time>2018-06-10T07:45:18.025Z</time>
      </trkpt>
      <trkpt lat="38.918693" lon="-0.11803933">
        <ele>25.0</ele>
        <time>2018-06-10T07:45:19.025Z</time>
      </trkpt>
      <trkpt lat="38.91863033" lon="-0.11803317">
        <ele>25.0</ele>
        <time>2018-06-10T07:45:20.025Z</time>
      </trkpt>
      <trkpt lat="38.91856933" lon="-0.1180185">
        <ele>25.0</ele>
        <time>2018-06-10T07:45:21.025Z</time>
      </trkpt>
      <trkpt lat="38.91851067" lon="-0.1179985">
        <ele>25.0</ele>
        <time>2018-06-10T07:45:22.025Z</time>
      </trkpt>
      <trkpt lat="38.91845333" lon="-0.11797233">
        <ele>25.0</ele>
        <time>2018-06-10T07:45:23.025Z</time>
      </trkpt>
      <trkpt lat="38.91839667" lon="-0.11794">
        <ele>25.0</ele>
        <time>2018-06-10T07:45:24.025Z</time>
      </trkpt>
      <trkpt lat="38.91834" lon="-0.11790017">
        <ele>25.0</ele>
        <time>2018-06-10T07:45:25.025Z</time>
      </trkpt>
      <trkpt lat="38.91828117" lon="-0.117861">
        <ele>25.0</ele>
        <time>2018-06-10T07:45:26.025Z</time>
      </trkpt>
      <trkpt lat="38.91822267" lon="-0.1178215">
        <ele>25.0</ele>
        <time>2018-06-10T07:45:27.025Z</time>
      </trkpt>
      <trkpt lat="38.91816767" lon="-0.11777883">
        <ele>25.0</ele>
        <time>2018-06-10T07:45:28.025Z</time>
      </trkpt>
      <trkpt lat="38.91811817" lon="-0.117733">
        <ele>25.0</ele>
        <time>2018-06-10T07:45:29.025Z</time>
      </trkpt>
      <trkpt lat="38.91806983" lon="-0.117687">
        <ele>25.0</ele>
        <time>2018-06-10T07:45:30.025Z</time>
      </trkpt>
      <trkpt lat="38.91802183" lon="-0.117639">
        <ele>25.0</ele>
        <time>2018-06-10T07:45:31.025Z</time>
      </trkpt>
      <trkpt lat="38.91797367" lon="-0.11758767">
        <ele>25.0</ele>
        <time>2018-06-10T07:45:32.025Z</time>
      </trkpt>
      <trkpt lat="38.91792583" lon="-0.117533">
        <ele>26.0</ele>
        <time>2018-06-10T07:45:33.025Z</time>
      </trkpt>
      <trkpt lat="38.9178735" lon="-0.11748417">
        <ele>26.0</ele>
        <time>2018-06-10T07:45:34.025Z</time>
      </trkpt>
      <trkpt lat="38.91782267" lon="-0.11744017">
        <ele>26.0</ele>
        <time>2018-06-10T07:45:35.025Z</time>
      </trkpt>
      <trkpt lat="38.91777683" lon="-0.11739867">
        <ele>26.0</ele>
        <time>2018-06-10T07:45:36.025Z</time>
      </trkpt>
      <trkpt lat="38.91773633" lon="-0.11736133">
        <ele>25.0</ele>
        <time>2018-06-10T07:45:37.025Z</time>
      </trkpt>
      <trkpt lat="38.917695" lon="-0.1173265">
        <ele>25.0</ele>
        <time>2018-06-10T07:45:38.025Z</time>
      </trkpt>
      <trkpt lat="38.91765767" lon="-0.11729067">
        <ele>25.0</ele>
        <time>2018-06-10T07:45:39.025Z</time>
      </trkpt>
      <trkpt lat="38.91762567" lon="-0.117253">
        <ele>25.0</ele>
        <time>2018-06-10T07:45:40.025Z</time>
      </trkpt>
      <trkpt lat="38.9175985" lon="-0.117218">
        <ele>24.0</ele>
        <time>2018-06-10T07:45:41.025Z</time>
      </trkpt>
      <trkpt lat="38.917571" lon="-0.1171905">
        <ele>24.0</ele>
        <time>2018-06-10T07:45:42.025Z</time>
      </trkpt>
      <trkpt lat="38.91754483" lon="-0.117169">
        <ele>24.0</ele>
        <time>2018-06-10T07:45:43.025Z</time>
      </trkpt>
      <trkpt lat="38.91752267" lon="-0.11715033">
        <ele>24.0</ele>
        <time>2018-06-10T07:45:44.025Z</time>
      </trkpt>
      <trkpt lat="38.91750033" lon="-0.11713667">
        <ele>24.0</ele>
        <time>2018-06-10T07:45:45.025Z</time>
      </trkpt>
      <trkpt lat="38.91748" lon="-0.11712567">
        <ele>24.0</ele>
        <time>2018-06-10T07:45:46.025Z</time>
      </trkpt>
      <trkpt lat="38.91746333" lon="-0.117117">
        <ele>25.0</ele>
        <time>2018-06-10T07:45:47.025Z</time>
      </trkpt>
      <trkpt lat="38.917455" lon="-0.117109">
        <ele>25.0</ele>
        <time>2018-06-10T07:45:48.025Z</time>
      </trkpt>
      <trkpt lat="38.9174315" lon="-0.1170955">
        <ele>25.0</ele>
        <time>2018-06-10T07:45:49.119Z</time>
      </trkpt>
      <trkpt lat="38.91743033" lon="-0.1170965">
        <ele>25.0</ele>
        <time>2018-06-10T07:45:50.119Z</time>
      </trkpt>
      <trkpt lat="38.91737917" lon="-0.117025">
        <ele>27.0</ele>
        <time>2018-06-10T07:45:52.014Z</time>
      </trkpt>
      <trkpt lat="38.917366" lon="-0.116998">
        <ele>28.0</ele>
        <time>2018-06-10T07:45:53.014Z</time>
      </trkpt>
      <trkpt lat="38.91735" lon="-0.11696817">
        <ele>28.0</ele>
        <time>2018-06-10T07:45:54.014Z</time>
      </trkpt>
      <trkpt lat="38.91733133" lon="-0.11693433">
        <ele>28.0</ele>
        <time>2018-06-10T07:45:55.014Z</time>
      </trkpt>
      <trkpt lat="38.91730783" lon="-0.11689817">
        <ele>29.0</ele>
        <time>2018-06-10T07:45:56.014Z</time>
      </trkpt>
      <trkpt lat="38.91728217" lon="-0.11685817">
        <ele>29.0</ele>
        <time>2018-06-10T07:45:57.014Z</time>
      </trkpt>
      <trkpt lat="38.91725717" lon="-0.1168115">
        <ele>29.0</ele>
        <time>2018-06-10T07:45:58.014Z</time>
      </trkpt>
      <trkpt lat="38.9172295" lon="-0.11676383">
        <ele>30.0</ele>
        <time>2018-06-10T07:45:59.014Z</time>
      </trkpt>
      <trkpt lat="38.91719817" lon="-0.11671933">
        <ele>31.0</ele>
        <time>2018-06-10T07:46:00.014Z</time>
      </trkpt>
      <trkpt lat="38.9171635" lon="-0.11667883">
        <ele>32.0</ele>
        <time>2018-06-10T07:46:01.014Z</time>
      </trkpt>
      <trkpt lat="38.9171285" lon="-0.116637">
        <ele>33.0</ele>
        <time>2018-06-10T07:46:02.014Z</time>
      </trkpt>
      <trkpt lat="38.91709583" lon="-0.11659">
        <ele>33.0</ele>
        <time>2018-06-10T07:46:03.014Z</time>
      </trkpt>
      <trkpt lat="38.917031" lon="-0.11648417">
        <ele>31.0</ele>
        <time>2018-06-10T07:46:04.014Z</time>
      </trkpt>
      <trkpt lat="38.916992" lon="-0.11643267">
        <ele>30.0</ele>
        <time>2018-06-10T07:46:05.014Z</time>
      </trkpt>
      <trkpt lat="38.91694817" lon="-0.11638417">
        <ele>29.0</ele>
        <time>2018-06-10T07:46:06.014Z</time>
      </trkpt>
      <trkpt lat="38.91694817" lon="-0.11638417">
        <ele>29.0</ele>
        <time>2018-06-10T07:46:07.014Z</time>
      </trkpt>
      <trkpt lat="38.9169" lon="-0.11634">
        <ele>28.0</ele>
        <time>2018-06-10T07:46:08.014Z</time>
      </trkpt>
      <trkpt lat="38.91685267" lon="-0.1162955">
        <ele>28.0</ele>
        <time>2018-06-10T07:46:09.014Z</time>
      </trkpt>
      <trkpt lat="38.91675517" lon="-0.11621117">
        <ele>26.0</ele>
        <time>2018-06-10T07:46:10.014Z</time>
      </trkpt>
      <trkpt lat="38.91670767" lon="-0.116172">
        <ele>27.0</ele>
        <time>2018-06-10T07:46:11.014Z</time>
      </trkpt>
      <trkpt lat="38.91666533" lon="-0.11613117">
        <ele>26.0</ele>
        <time>2018-06-10T07:46:12.014Z</time>
      </trkpt>
      <trkpt lat="38.91666533" lon="-0.11613117">
        <ele>26.0</ele>
        <time>2018-06-10T07:46:13.014Z</time>
      </trkpt>
      <trkpt lat="38.91662467" lon="-0.1160895">
        <ele>26.0</ele>
        <time>2018-06-10T07:46:14.014Z</time>
      </trkpt>
      <trkpt lat="38.916583" lon="-0.116043">
        <ele>26.0</ele>
        <time>2018-06-10T07:46:15.014Z</time>
      </trkpt>
      <trkpt lat="38.9165385" lon="-0.115996">
        <ele>25.0</ele>
        <time>2018-06-10T07:46:16.014Z</time>
      </trkpt>
      <trkpt lat="38.91649517" lon="-0.11595">
        <ele>27.0</ele>
        <time>2018-06-10T07:46:17.014Z</time>
      </trkpt>
      <trkpt lat="38.91645583" lon="-0.11590433">
        <ele>26.0</ele>
        <time>2018-06-10T07:46:18.014Z</time>
      </trkpt>
      <trkpt lat="38.91642033" lon="-0.1158585">
        <ele>26.0</ele>
        <time>2018-06-10T07:46:19.014Z</time>
      </trkpt>
      <trkpt lat="38.91638317" lon="-0.11581283">
        <ele>26.0</ele>
        <time>2018-06-10T07:46:20.014Z</time>
      </trkpt>
      <trkpt lat="38.916345" lon="-0.1157685">
        <ele>26.0</ele>
        <time>2018-06-10T07:46:21.014Z</time>
      </trkpt>
      <trkpt lat="38.91630583" lon="-0.11572417">
        <ele>26.0</ele>
        <time>2018-06-10T07:46:22.014Z</time>
      </trkpt>
      <trkpt lat="38.91626883" lon="-0.11567733">
        <ele>26.0</ele>
        <time>2018-06-10T07:46:23.014Z</time>
      </trkpt>
      <trkpt lat="38.91623317" lon="-0.11563017">
        <ele>26.0</ele>
        <time>2018-06-10T07:46:24.014Z</time>
      </trkpt>
      <trkpt lat="38.9161985" lon="-0.115584">
        <ele>26.0</ele>
        <time>2018-06-10T07:46:25.014Z</time>
      </trkpt>
      <trkpt lat="38.9161625" lon="-0.11553983">
        <ele>26.0</ele>
        <time>2018-06-10T07:46:26.014Z</time>
      </trkpt>
      <trkpt lat="38.9161265" lon="-0.1154965">
        <ele>25.0</ele>
        <time>2018-06-10T07:46:27.014Z</time>
      </trkpt>
      <trkpt lat="38.9160905" lon="-0.115455">
        <ele>25.0</ele>
        <time>2018-06-10T07:46:28.014Z</time>
      </trkpt>
      <trkpt lat="38.91605383" lon="-0.115415">
        <ele>25.0</ele>
        <time>2018-06-10T07:46:29.014Z</time>
      </trkpt>
      <trkpt lat="38.91601717" lon="-0.115375">
        <ele>25.0</ele>
        <time>2018-06-10T07:46:30.014Z</time>
      </trkpt>
      <trkpt lat="38.915977" lon="-0.11533667">
        <ele>26.0</ele>
        <time>2018-06-10T07:46:31.014Z</time>
      </trkpt>
      <trkpt lat="38.915937" lon="-0.11529783">
        <ele>25.0</ele>
        <time>2018-06-10T07:46:32.014Z</time>
      </trkpt>
      <trkpt lat="38.91589617" lon="-0.11526083">
        <ele>25.0</ele>
        <time>2018-06-10T07:46:33.014Z</time>
      </trkpt>
      <trkpt lat="38.91581167" lon="-0.11519283">
        <ele>27.0</ele>
        <time>2018-06-10T07:46:34.014Z</time>
      </trkpt>
      <trkpt lat="38.91581167" lon="-0.11519283">
        <ele>27.0</ele>
        <time>2018-06-10T07:46:35.014Z</time>
      </trkpt>
      <trkpt lat="38.915762" lon="-0.1151655">
        <ele>28.0</ele>
        <time>2018-06-10T07:46:36.014Z</time>
      </trkpt>
      <trkpt lat="38.91571133" lon="-0.115139">
        <ele>28.0</ele>
        <time>2018-06-10T07:46:37.014Z</time>
      </trkpt>
      <trkpt lat="38.91565633" lon="-0.11511517">
        <ele>26.0</ele>
        <time>2018-06-10T07:46:38.014Z</time>
      </trkpt>
      <trkpt lat="38.91560283" lon="-0.115091">
        <ele>25.0</ele>
        <time>2018-06-10T07:46:39.014Z</time>
      </trkpt>
      <trkpt lat="38.915549" lon="-0.11506867">
        <ele>25.0</ele>
        <time>2018-06-10T07:46:40.014Z</time>
      </trkpt>
      <trkpt lat="38.91549317" lon="-0.11504617">
        <ele>24.0</ele>
        <time>2018-06-10T07:46:41.014Z</time>
      </trkpt>
      <trkpt lat="38.9154375" lon="-0.1150195">
        <ele>24.0</ele>
        <time>2018-06-10T07:46:42.014Z</time>
      </trkpt>
      <trkpt lat="38.91538183" lon="-0.11498917">
        <ele>24.0</ele>
        <time>2018-06-10T07:46:43.014Z</time>
      </trkpt>
      <trkpt lat="38.915282" lon="-0.1149215">
        <ele>24.0</ele>
        <time>2018-06-10T07:46:44.014Z</time>
      </trkpt>
      <trkpt lat="38.9152305" lon="-0.114883">
        <ele>25.0</ele>
        <time>2018-06-10T07:46:45.014Z</time>
      </trkpt>
      <trkpt lat="38.915177" lon="-0.11484083">
        <ele>26.0</ele>
        <time>2018-06-10T07:46:46.014Z</time>
      </trkpt>
      <trkpt lat="38.91512533" lon="-0.1147985">
        <ele>25.0</ele>
        <time>2018-06-10T07:46:47.014Z</time>
      </trkpt>
      <trkpt lat="38.91512533" lon="-0.1147985">
        <ele>25.0</ele>
        <time>2018-06-10T07:46:48.014Z</time>
      </trkpt>
      <trkpt lat="38.91507583" lon="-0.11475817">
        <ele>24.0</ele>
        <time>2018-06-10T07:46:49.014Z</time>
      </trkpt>
      <trkpt lat="38.9150275" lon="-0.11471883">
        <ele>22.0</ele>
        <time>2018-06-10T07:46:50.014Z</time>
      </trkpt>
      <trkpt lat="38.91497767" lon="-0.11468383">
        <ele>22.0</ele>
        <time>2018-06-10T07:46:51.014Z</time>
      </trkpt>
      <trkpt lat="38.91492817" lon="-0.11465">
        <ele>22.0</ele>
        <time>2018-06-10T07:46:52.014Z</time>
      </trkpt>
      <trkpt lat="38.91487767" lon="-0.11461517">
        <ele>22.0</ele>
        <time>2018-06-10T07:46:53.014Z</time>
      </trkpt>
      <trkpt lat="38.9147865" lon="-0.11453517">
        <ele>22.0</ele>
        <time>2018-06-10T07:46:54.014Z</time>
      </trkpt>
      <trkpt lat="38.9147865" lon="-0.11453517">
        <ele>22.0</ele>
        <time>2018-06-10T07:46:55.014Z</time>
      </trkpt>
      <trkpt lat="38.91470117" lon="-0.11446167">
        <ele>22.0</ele>
        <time>2018-06-10T07:46:56.014Z</time>
      </trkpt>
      <trkpt lat="38.91470117" lon="-0.11446167">
        <ele>22.0</ele>
        <time>2018-06-10T07:46:57.014Z</time>
      </trkpt>
      <trkpt lat="38.91465683" lon="-0.11443367">
        <ele>22.0</ele>
        <time>2018-06-10T07:46:58.014Z</time>
      </trkpt>
      <trkpt lat="38.9146155" lon="-0.11440817">
        <ele>23.0</ele>
        <time>2018-06-10T07:46:59.014Z</time>
      </trkpt>
      <trkpt lat="38.91458167" lon="-0.11438367">
        <ele>24.0</ele>
        <time>2018-06-10T07:47:00.014Z</time>
      </trkpt>
      <trkpt lat="38.9145495" lon="-0.11436483">
        <ele>26.0</ele>
        <time>2018-06-10T07:47:01.014Z</time>
      </trkpt>
      <trkpt lat="38.91452317" lon="-0.1143485">
        <ele>28.0</ele>
        <time>2018-06-10T07:47:02.014Z</time>
      </trkpt>
      <trkpt lat="38.91450333" lon="-0.11433117">
        <ele>31.0</ele>
        <time>2018-06-10T07:47:03.014Z</time>
      </trkpt>
      <trkpt lat="38.91448767" lon="-0.11431467">
        <ele>31.0</ele>
        <time>2018-06-10T07:47:04.014Z</time>
      </trkpt>
      <trkpt lat="38.91447167" lon="-0.11430183">
        <ele>32.0</ele>
        <time>2018-06-10T07:47:05.014Z</time>
      </trkpt>
      <trkpt lat="38.91445183" lon="-0.11429533">
        <ele>32.0</ele>
        <time>2018-06-10T07:47:06.014Z</time>
      </trkpt>
      <trkpt lat="38.91443267" lon="-0.11429033">
        <ele>33.0</ele>
        <time>2018-06-10T07:47:07.014Z</time>
      </trkpt>
      <trkpt lat="38.9144145" lon="-0.11428567">
        <ele>33.0</ele>
        <time>2018-06-10T07:47:08.014Z</time>
      </trkpt>
      <trkpt lat="38.91439917" lon="-0.11428117">
        <ele>33.0</ele>
        <time>2018-06-10T07:47:09.014Z</time>
      </trkpt>
      <trkpt lat="38.91438617" lon="-0.11427783">
        <ele>33.0</ele>
        <time>2018-06-10T07:47:10.014Z</time>
      </trkpt>
      <trkpt lat="38.914375" lon="-0.1142755">
        <ele>34.0</ele>
        <time>2018-06-10T07:47:11.014Z</time>
      </trkpt>
      <trkpt lat="38.91436467" lon="-0.11427383">
        <ele>34.0</ele>
        <time>2018-06-10T07:47:12.014Z</time>
      </trkpt>
      <trkpt lat="38.9143555" lon="-0.11427433">
        <ele>34.0</ele>
        <time>2018-06-10T07:47:13.014Z</time>
      </trkpt>
      <trkpt lat="38.91425867" lon="-0.11429">
        <ele>59.0</ele>
        <time>2018-06-10T07:47:15.108Z</time>
      </trkpt>
      <trkpt lat="38.9142085" lon="-0.11429483">
        <ele>60.0</ele>
        <time>2018-06-10T07:47:17.038Z</time>
      </trkpt>
      <trkpt lat="38.914191" lon="-0.114288">
        <ele>60.0</ele>
        <time>2018-06-10T07:47:18.038Z</time>
      </trkpt>
      <trkpt lat="38.914174" lon="-0.1142765">
        <ele>59.0</ele>
        <time>2018-06-10T07:47:19.038Z</time>
      </trkpt>
      <trkpt lat="38.9141555" lon="-0.11425867">
        <ele>59.0</ele>
        <time>2018-06-10T07:47:20.038Z</time>
      </trkpt>
      <trkpt lat="38.914137" lon="-0.11423683">
        <ele>59.0</ele>
        <time>2018-06-10T07:47:21.038Z</time>
      </trkpt>
      <trkpt lat="38.914117" lon="-0.114218">
        <ele>58.0</ele>
        <time>2018-06-10T07:47:22.038Z</time>
      </trkpt>
      <trkpt lat="38.91409667" lon="-0.1142065">
        <ele>57.0</ele>
        <time>2018-06-10T07:47:23.038Z</time>
      </trkpt>
      <trkpt lat="38.91406983" lon="-0.11419417">
        <ele>56.0</ele>
        <time>2018-06-10T07:47:24.038Z</time>
      </trkpt>
      <trkpt lat="38.91403683" lon="-0.11417783">
        <ele>56.0</ele>
        <time>2018-06-10T07:47:25.038Z</time>
      </trkpt>
      <trkpt lat="38.91399517" lon="-0.11415017">
        <ele>55.0</ele>
        <time>2018-06-10T07:47:26.038Z</time>
      </trkpt>
      <trkpt lat="38.91395317" lon="-0.11411883">
        <ele>54.0</ele>
        <time>2018-06-10T07:47:27.038Z</time>
      </trkpt>
      <trkpt lat="38.91390517" lon="-0.114087">
        <ele>53.0</ele>
        <time>2018-06-10T07:47:28.038Z</time>
      </trkpt>
      <trkpt lat="38.9138035" lon="-0.11402883">
        <ele>52.0</ele>
        <time>2018-06-10T07:47:29.038Z</time>
      </trkpt>
      <trkpt lat="38.91375133" lon="-0.11399533">
        <ele>52.0</ele>
        <time>2018-06-10T07:47:30.038Z</time>
      </trkpt>
      <trkpt lat="38.91375133" lon="-0.11399533">
        <ele>52.0</ele>
        <time>2018-06-10T07:47:31.038Z</time>
      </trkpt>
      <trkpt lat="38.91369867" lon="-0.11396083">
        <ele>52.0</ele>
        <time>2018-06-10T07:47:32.038Z</time>
      </trkpt>
      <trkpt lat="38.91365017" lon="-0.11392583">
        <ele>52.0</ele>
        <time>2018-06-10T07:47:33.038Z</time>
      </trkpt>
      <trkpt lat="38.91359767" lon="-0.11389517">
        <ele>51.0</ele>
        <time>2018-06-10T07:47:34.038Z</time>
      </trkpt>
      <trkpt lat="38.91353933" lon="-0.11386567">
        <ele>49.0</ele>
        <time>2018-06-10T07:47:35.038Z</time>
      </trkpt>
      <trkpt lat="38.913479" lon="-0.113838">
        <ele>48.0</ele>
        <time>2018-06-10T07:47:36.038Z</time>
      </trkpt>
      <trkpt lat="38.91341833" lon="-0.11380967">
        <ele>47.0</ele>
        <time>2018-06-10T07:47:37.038Z</time>
      </trkpt>
      <trkpt lat="38.913357" lon="-0.11378117">
        <ele>47.0</ele>
        <time>2018-06-10T07:47:38.038Z</time>
      </trkpt>
      <trkpt lat="38.91329167" lon="-0.11375333">
        <ele>46.0</ele>
        <time>2018-06-10T07:47:39.038Z</time>
      </trkpt>
      <trkpt lat="38.91323017" lon="-0.1137235">
        <ele>46.0</ele>
        <time>2018-06-10T07:47:40.038Z</time>
      </trkpt>
      <trkpt lat="38.9131755" lon="-0.1136905">
        <ele>46.0</ele>
        <time>2018-06-10T07:47:41.038Z</time>
      </trkpt>
      <trkpt lat="38.91312983" lon="-0.11365283">
        <ele>45.0</ele>
        <time>2018-06-10T07:47:42.038Z</time>
      </trkpt>
      <trkpt lat="38.91308683" lon="-0.11361217">
        <ele>45.0</ele>
        <time>2018-06-10T07:47:43.038Z</time>
      </trkpt>
      <trkpt lat="38.9130445" lon="-0.1135725">
        <ele>44.0</ele>
        <time>2018-06-10T07:47:44.038Z</time>
      </trkpt>
      <trkpt lat="38.912998" lon="-0.11353583">
        <ele>44.0</ele>
        <time>2018-06-10T07:47:45.038Z</time>
      </trkpt>
      <trkpt lat="38.91294917" lon="-0.11350133">
        <ele>43.0</ele>
        <time>2018-06-10T07:47:46.038Z</time>
      </trkpt>
      <trkpt lat="38.91289567" lon="-0.11346817">
        <ele>42.0</ele>
        <time>2018-06-10T07:47:47.038Z</time>
      </trkpt>
      <trkpt lat="38.91284183" lon="-0.11343483">
        <ele>42.0</ele>
        <time>2018-06-10T07:47:48.038Z</time>
      </trkpt>
      <trkpt lat="38.9127865" lon="-0.11340217">
        <ele>41.0</ele>
        <time>2018-06-10T07:47:49.038Z</time>
      </trkpt>
      <trkpt lat="38.91273267" lon="-0.11337033">
        <ele>41.0</ele>
        <time>2018-06-10T07:47:50.038Z</time>
      </trkpt>
      <trkpt lat="38.91268067" lon="-0.1133375">
        <ele>40.0</ele>
        <time>2018-06-10T07:47:51.038Z</time>
      </trkpt>
      <trkpt lat="38.91263133" lon="-0.1133055">
        <ele>40.0</ele>
        <time>2018-06-10T07:47:52.038Z</time>
      </trkpt>
      <trkpt lat="38.91258483" lon="-0.11327283">
        <ele>40.0</ele>
        <time>2018-06-10T07:47:53.038Z</time>
      </trkpt>
      <trkpt lat="38.912535" lon="-0.11324483">
        <ele>39.0</ele>
        <time>2018-06-10T07:47:54.038Z</time>
      </trkpt>
      <trkpt lat="38.91248517" lon="-0.113217">
        <ele>38.0</ele>
        <time>2018-06-10T07:47:55.038Z</time>
      </trkpt>
      <trkpt lat="38.912435" lon="-0.11319133">
        <ele>38.0</ele>
        <time>2018-06-10T07:47:56.038Z</time>
      </trkpt>
      <trkpt lat="38.91239017" lon="-0.11316283">
        <ele>36.0</ele>
        <time>2018-06-10T07:47:57.038Z</time>
      </trkpt>
      <trkpt lat="38.91234733" lon="-0.11313617">
        <ele>35.0</ele>
        <time>2018-06-10T07:47:58.038Z</time>
      </trkpt>
      <trkpt lat="38.9123135" lon="-0.113116">
        <ele>30.0</ele>
        <time>2018-06-10T07:47:59.038Z</time>
      </trkpt>
      <trkpt lat="38.912278" lon="-0.1130975">
        <ele>30.0</ele>
        <time>2018-06-10T07:48:00.038Z</time>
      </trkpt>
      <trkpt lat="38.91224783" lon="-0.11307367">
        <ele>30.0</ele>
        <time>2018-06-10T07:48:01.038Z</time>
      </trkpt>
      <trkpt lat="38.9122155" lon="-0.11303817">
        <ele>30.0</ele>
        <time>2018-06-10T07:48:02.038Z</time>
      </trkpt>
      <trkpt lat="38.9121845" lon="-0.11300183">
        <ele>29.0</ele>
        <time>2018-06-10T07:48:03.038Z</time>
      </trkpt>
      <trkpt lat="38.912144" lon="-0.11297183">
        <ele>29.0</ele>
        <time>2018-06-10T07:48:04.038Z</time>
      </trkpt>
      <trkpt lat="38.91209633" lon="-0.11294517">
        <ele>29.0</ele>
        <time>2018-06-10T07:48:05.038Z</time>
      </trkpt>
      <trkpt lat="38.91204817" lon="-0.11291483">
        <ele>28.0</ele>
        <time>2018-06-10T07:48:06.038Z</time>
      </trkpt>
      <trkpt lat="38.912009" lon="-0.11287333">
        <ele>27.0</ele>
        <time>2018-06-10T07:48:07.038Z</time>
      </trkpt>
      <trkpt lat="38.9119765" lon="-0.11282167">
        <ele>27.0</ele>
        <time>2018-06-10T07:48:08.038Z</time>
      </trkpt>
      <trkpt lat="38.91194217" lon="-0.11276833">
        <ele>28.0</ele>
        <time>2018-06-10T07:48:09.038Z</time>
      </trkpt>
      <trkpt lat="38.91189733" lon="-0.11272667">
        <ele>27.0</ele>
        <time>2018-06-10T07:48:10.038Z</time>
      </trkpt>
      <trkpt lat="38.91184233" lon="-0.11269467">
        <ele>26.0</ele>
        <time>2018-06-10T07:48:11.038Z</time>
      </trkpt>
      <trkpt lat="38.9117845" lon="-0.1126665">
        <ele>26.0</ele>
        <time>2018-06-10T07:48:12.038Z</time>
      </trkpt>
      <trkpt lat="38.91172783" lon="-0.11263417">
        <ele>25.0</ele>
        <time>2018-06-10T07:48:13.038Z</time>
      </trkpt>
      <trkpt lat="38.9116715" lon="-0.112602">
        <ele>24.0</ele>
        <time>2018-06-10T07:48:14.038Z</time>
      </trkpt>
      <trkpt lat="38.91161517" lon="-0.1125695">
        <ele>24.0</ele>
        <time>2018-06-10T07:48:15.038Z</time>
      </trkpt>
      <trkpt lat="38.91155733" lon="-0.112537">
        <ele>24.0</ele>
        <time>2018-06-10T07:48:16.038Z</time>
      </trkpt>
      <trkpt lat="38.91149817" lon="-0.11250517">
        <ele>23.0</ele>
        <time>2018-06-10T07:48:17.038Z</time>
      </trkpt>
      <trkpt lat="38.911438" lon="-0.11247383">
        <ele>23.0</ele>
        <time>2018-06-10T07:48:18.038Z</time>
      </trkpt>
      <trkpt lat="38.91137733" lon="-0.112442">
        <ele>23.0</ele>
        <time>2018-06-10T07:48:19.038Z</time>
      </trkpt>
      <trkpt lat="38.91131683" lon="-0.11240717">
        <ele>23.0</ele>
        <time>2018-06-10T07:48:20.038Z</time>
      </trkpt>
      <trkpt lat="38.91125567" lon="-0.11236917">
        <ele>23.0</ele>
        <time>2018-06-10T07:48:21.038Z</time>
      </trkpt>
      <trkpt lat="38.911194" lon="-0.11232967">
        <ele>23.0</ele>
        <time>2018-06-10T07:48:22.038Z</time>
      </trkpt>
      <trkpt lat="38.91113267" lon="-0.11228983">
        <ele>22.0</ele>
        <time>2018-06-10T07:48:23.038Z</time>
      </trkpt>
      <trkpt lat="38.91107233" lon="-0.112251">
        <ele>22.0</ele>
        <time>2018-06-10T07:48:24.038Z</time>
      </trkpt>
      <trkpt lat="38.91101317" lon="-0.11221333">
        <ele>22.0</ele>
        <time>2018-06-10T07:48:25.038Z</time>
      </trkpt>
      <trkpt lat="38.910954" lon="-0.11217717">
        <ele>22.0</ele>
        <time>2018-06-10T07:48:26.038Z</time>
      </trkpt>
      <trkpt lat="38.910895" lon="-0.1121415">
        <ele>21.0</ele>
        <time>2018-06-10T07:48:27.038Z</time>
      </trkpt>
      <trkpt lat="38.91083583" lon="-0.112106">
        <ele>21.0</ele>
        <time>2018-06-10T07:48:28.038Z</time>
      </trkpt>
      <trkpt lat="38.91077683" lon="-0.1120695">
        <ele>21.0</ele>
        <time>2018-06-10T07:48:29.038Z</time>
      </trkpt>
      <trkpt lat="38.91071783" lon="-0.1120325">
        <ele>21.0</ele>
        <time>2018-06-10T07:48:30.038Z</time>
      </trkpt>
      <trkpt lat="38.91065933" lon="-0.11199517">
        <ele>21.0</ele>
        <time>2018-06-10T07:48:31.038Z</time>
      </trkpt>
      <trkpt lat="38.910601" lon="-0.1119585">
        <ele>21.0</ele>
        <time>2018-06-10T07:48:32.038Z</time>
      </trkpt>
      <trkpt lat="38.91054283" lon="-0.111922">
        <ele>20.0</ele>
        <time>2018-06-10T07:48:33.038Z</time>
      </trkpt>
      <trkpt lat="38.91048467" lon="-0.1118855">
        <ele>20.0</ele>
        <time>2018-06-10T07:48:34.038Z</time>
      </trkpt>
      <trkpt lat="38.910426" lon="-0.11184767">
        <ele>20.0</ele>
        <time>2018-06-10T07:48:35.038Z</time>
      </trkpt>
      <trkpt lat="38.91036683" lon="-0.1118095">
        <ele>20.0</ele>
        <time>2018-06-10T07:48:36.038Z</time>
      </trkpt>
      <trkpt lat="38.91030717" lon="-0.11177083">
        <ele>20.0</ele>
        <time>2018-06-10T07:48:37.038Z</time>
      </trkpt>
      <trkpt lat="38.91024683" lon="-0.11173183">
        <ele>20.0</ele>
        <time>2018-06-10T07:48:38.038Z</time>
      </trkpt>
      <trkpt lat="38.91018633" lon="-0.11169317">
        <ele>20.0</ele>
        <time>2018-06-10T07:48:39.038Z</time>
      </trkpt>
      <trkpt lat="38.9101255" lon="-0.11165417">
        <ele>20.0</ele>
        <time>2018-06-10T07:48:40.038Z</time>
      </trkpt>
      <trkpt lat="38.91006433" lon="-0.11161567">
        <ele>20.0</ele>
        <time>2018-06-10T07:48:41.038Z</time>
      </trkpt>
      <trkpt lat="38.910003" lon="-0.111577">
        <ele>19.0</ele>
        <time>2018-06-10T07:48:42.038Z</time>
      </trkpt>
      <trkpt lat="38.90994183" lon="-0.111538">
        <ele>20.0</ele>
        <time>2018-06-10T07:48:43.038Z</time>
      </trkpt>
      <trkpt lat="38.90988117" lon="-0.11149917">
        <ele>19.0</ele>
        <time>2018-06-10T07:48:44.038Z</time>
      </trkpt>
      <trkpt lat="38.90982067" lon="-0.11146067">
        <ele>19.0</ele>
        <time>2018-06-10T07:48:45.038Z</time>
      </trkpt>
      <trkpt lat="38.9097605" lon="-0.11142217">
        <ele>19.0</ele>
        <time>2018-06-10T07:48:46.038Z</time>
      </trkpt>
      <trkpt lat="38.90969967" lon="-0.1113835">
        <ele>19.0</ele>
        <time>2018-06-10T07:48:47.038Z</time>
      </trkpt>
      <trkpt lat="38.90963883" lon="-0.11134433">
        <ele>19.0</ele>
        <time>2018-06-10T07:48:48.038Z</time>
      </trkpt>
      <trkpt lat="38.90957767" lon="-0.111305">
        <ele>19.0</ele>
        <time>2018-06-10T07:48:49.038Z</time>
      </trkpt>
      <trkpt lat="38.90951617" lon="-0.11126533">
        <ele>19.0</ele>
        <time>2018-06-10T07:48:50.038Z</time>
      </trkpt>
      <trkpt lat="38.90945433" lon="-0.11122517">
        <ele>19.0</ele>
        <time>2018-06-10T07:48:51.038Z</time>
      </trkpt>
      <trkpt lat="38.90939217" lon="-0.11118517">
        <ele>19.0</ele>
        <time>2018-06-10T07:48:52.038Z</time>
      </trkpt>
      <trkpt lat="38.9093295" lon="-0.1111455">
        <ele>19.0</ele>
        <time>2018-06-10T07:48:53.038Z</time>
      </trkpt>
      <trkpt lat="38.90926683" lon="-0.111106">
        <ele>19.0</ele>
        <time>2018-06-10T07:48:54.038Z</time>
      </trkpt>
      <trkpt lat="38.90920467" lon="-0.11106567">
        <ele>19.0</ele>
        <time>2018-06-10T07:48:55.038Z</time>
      </trkpt>
      <trkpt lat="38.90914333" lon="-0.11102567">
        <ele>19.0</ele>
        <time>2018-06-10T07:48:56.038Z</time>
      </trkpt>
      <trkpt lat="38.90908233" lon="-0.1109855">
        <ele>19.0</ele>
        <time>2018-06-10T07:48:57.038Z</time>
      </trkpt>
      <trkpt lat="38.90902133" lon="-0.11094583">
        <ele>19.0</ele>
        <time>2018-06-10T07:48:58.038Z</time>
      </trkpt>
      <trkpt lat="38.90895983" lon="-0.11090583">
        <ele>18.0</ele>
        <time>2018-06-10T07:48:59.038Z</time>
      </trkpt>
      <trkpt lat="38.90889783" lon="-0.110866">
        <ele>18.0</ele>
        <time>2018-06-10T07:49:00.038Z</time>
      </trkpt>
      <trkpt lat="38.90883467" lon="-0.11082583">
        <ele>18.0</ele>
        <time>2018-06-10T07:49:01.038Z</time>
      </trkpt>
      <trkpt lat="38.9087705" lon="-0.11078517">
        <ele>18.0</ele>
        <time>2018-06-10T07:49:02.038Z</time>
      </trkpt>
      <trkpt lat="38.90870567" lon="-0.11074433">
        <ele>18.0</ele>
        <time>2018-06-10T07:49:03.038Z</time>
      </trkpt>
      <trkpt lat="38.90864117" lon="-0.1107035">
        <ele>18.0</ele>
        <time>2018-06-10T07:49:04.038Z</time>
      </trkpt>
      <trkpt lat="38.90857733" lon="-0.11066317">
        <ele>18.0</ele>
        <time>2018-06-10T07:49:05.038Z</time>
      </trkpt>
      <trkpt lat="38.9085145" lon="-0.11062267">
        <ele>18.0</ele>
        <time>2018-06-10T07:49:06.038Z</time>
      </trkpt>
      <trkpt lat="38.90845217" lon="-0.11058283">
        <ele>18.0</ele>
        <time>2018-06-10T07:49:07.038Z</time>
      </trkpt>
      <trkpt lat="38.90839" lon="-0.11054333">
        <ele>18.0</ele>
        <time>2018-06-10T07:49:08.038Z</time>
      </trkpt>
      <trkpt lat="38.908328" lon="-0.110504">
        <ele>17.0</ele>
        <time>2018-06-10T07:49:09.038Z</time>
      </trkpt>
      <trkpt lat="38.90826617" lon="-0.11046433">
        <ele>17.0</ele>
        <time>2018-06-10T07:49:10.038Z</time>
      </trkpt>
      <trkpt lat="38.9082045" lon="-0.11042433">
        <ele>17.0</ele>
        <time>2018-06-10T07:49:11.038Z</time>
      </trkpt>
      <trkpt lat="38.90814283" lon="-0.11038467">
        <ele>17.0</ele>
        <time>2018-06-10T07:49:12.038Z</time>
      </trkpt>
      <trkpt lat="38.90808117" lon="-0.110346">
        <ele>17.0</ele>
        <time>2018-06-10T07:49:13.038Z</time>
      </trkpt>
      <trkpt lat="38.90801933" lon="-0.110308">
        <ele>17.0</ele>
        <time>2018-06-10T07:49:14.038Z</time>
      </trkpt>
      <trkpt lat="38.90795783" lon="-0.11026967">
        <ele>17.0</ele>
        <time>2018-06-10T07:49:15.038Z</time>
      </trkpt>
      <trkpt lat="38.90789583" lon="-0.1102315">
        <ele>17.0</ele>
        <time>2018-06-10T07:49:16.038Z</time>
      </trkpt>
      <trkpt lat="38.9078335" lon="-0.11019283">
        <ele>17.0</ele>
        <time>2018-06-10T07:49:17.038Z</time>
      </trkpt>
      <trkpt lat="38.90777067" lon="-0.11015367">
        <ele>17.0</ele>
        <time>2018-06-10T07:49:18.038Z</time>
      </trkpt>
      <trkpt lat="38.9077075" lon="-0.11011317">
        <ele>17.0</ele>
        <time>2018-06-10T07:49:19.038Z</time>
      </trkpt>
      <trkpt lat="38.907644" lon="-0.110072">
        <ele>17.0</ele>
        <time>2018-06-10T07:49:20.038Z</time>
      </trkpt>
      <trkpt lat="38.9075805" lon="-0.11003117">
        <ele>17.0</ele>
        <time>2018-06-10T07:49:21.038Z</time>
      </trkpt>
      <trkpt lat="38.9075165" lon="-0.10999067">
        <ele>17.0</ele>
        <time>2018-06-10T07:49:22.038Z</time>
      </trkpt>
      <trkpt lat="38.90745233" lon="-0.10995017">
        <ele>17.0</ele>
        <time>2018-06-10T07:49:23.038Z</time>
      </trkpt>
      <trkpt lat="38.90738817" lon="-0.10990883">
        <ele>17.0</ele>
        <time>2018-06-10T07:49:24.038Z</time>
      </trkpt>
      <trkpt lat="38.90732417" lon="-0.10986683">
        <ele>17.0</ele>
        <time>2018-06-10T07:49:25.038Z</time>
      </trkpt>
      <trkpt lat="38.90719733" lon="-0.1097835">
        <ele>17.0</ele>
        <time>2018-06-10T07:49:26.038Z</time>
      </trkpt>
      <trkpt lat="38.90719733" lon="-0.1097835">
        <ele>17.0</ele>
        <time>2018-06-10T07:49:27.038Z</time>
      </trkpt>
      <trkpt lat="38.90713417" lon="-0.10974283">
        <ele>17.0</ele>
        <time>2018-06-10T07:49:28.038Z</time>
      </trkpt>
      <trkpt lat="38.907071" lon="-0.10970233">
        <ele>17.0</ele>
        <time>2018-06-10T07:49:29.038Z</time>
      </trkpt>
      <trkpt lat="38.9070075" lon="-0.10966167">
        <ele>17.0</ele>
        <time>2018-06-10T07:49:30.038Z</time>
      </trkpt>
      <trkpt lat="38.90694433" lon="-0.10962117">
        <ele>17.0</ele>
        <time>2018-06-10T07:49:31.038Z</time>
      </trkpt>
      <trkpt lat="38.90688133" lon="-0.10958067">
        <ele>17.0</ele>
        <time>2018-06-10T07:49:32.038Z</time>
      </trkpt>
      <trkpt lat="38.9068185" lon="-0.10954033">
        <ele>18.0</ele>
        <time>2018-06-10T07:49:33.038Z</time>
      </trkpt>
      <trkpt lat="38.90675583" lon="-0.10950033">
        <ele>18.0</ele>
        <time>2018-06-10T07:49:34.038Z</time>
      </trkpt>
      <trkpt lat="38.90669317" lon="-0.10946017">
        <ele>18.0</ele>
        <time>2018-06-10T07:49:35.038Z</time>
      </trkpt>
      <trkpt lat="38.90663067" lon="-0.10941983">
        <ele>18.0</ele>
        <time>2018-06-10T07:49:36.038Z</time>
      </trkpt>
      <trkpt lat="38.90656817" lon="-0.10937867">
        <ele>18.0</ele>
        <time>2018-06-10T07:49:37.038Z</time>
      </trkpt>
      <trkpt lat="38.90650617" lon="-0.10933783">
        <ele>18.0</ele>
        <time>2018-06-10T07:49:38.038Z</time>
      </trkpt>
      <trkpt lat="38.90644433" lon="-0.10929717">
        <ele>18.0</ele>
        <time>2018-06-10T07:49:39.038Z</time>
      </trkpt>
      <trkpt lat="38.90638267" lon="-0.10925717">
        <ele>18.0</ele>
        <time>2018-06-10T07:49:40.038Z</time>
      </trkpt>
      <trkpt lat="38.90632117" lon="-0.10921717">
        <ele>19.0</ele>
        <time>2018-06-10T07:49:41.038Z</time>
      </trkpt>
      <trkpt lat="38.90625983" lon="-0.10917767">
        <ele>19.0</ele>
        <time>2018-06-10T07:49:42.038Z</time>
      </trkpt>
      <trkpt lat="38.90619883" lon="-0.109138">
        <ele>19.0</ele>
        <time>2018-06-10T07:49:43.038Z</time>
      </trkpt>
      <trkpt lat="38.90613817" lon="-0.10909767">
        <ele>19.0</ele>
        <time>2018-06-10T07:49:44.038Z</time>
      </trkpt>
      <trkpt lat="38.90607733" lon="-0.1090575">
        <ele>19.0</ele>
        <time>2018-06-10T07:49:45.038Z</time>
      </trkpt>
      <trkpt lat="38.90601667" lon="-0.10901733">
        <ele>19.0</ele>
        <time>2018-06-10T07:49:46.038Z</time>
      </trkpt>
      <trkpt lat="38.90595567" lon="-0.10897783">
        <ele>19.0</ele>
        <time>2018-06-10T07:49:47.038Z</time>
      </trkpt>
      <trkpt lat="38.90589467" lon="-0.10893833">
        <ele>19.0</ele>
        <time>2018-06-10T07:49:48.038Z</time>
      </trkpt>
      <trkpt lat="38.90583367" lon="-0.10889917">
        <ele>19.0</ele>
        <time>2018-06-10T07:49:49.038Z</time>
      </trkpt>
      <trkpt lat="38.90577267" lon="-0.1088595">
        <ele>19.0</ele>
        <time>2018-06-10T07:49:50.038Z</time>
      </trkpt>
      <trkpt lat="38.90571167" lon="-0.10881983">
        <ele>19.0</ele>
        <time>2018-06-10T07:49:51.038Z</time>
      </trkpt>
      <trkpt lat="38.90565067" lon="-0.1087805">
        <ele>19.0</ele>
        <time>2018-06-10T07:49:52.038Z</time>
      </trkpt>
      <trkpt lat="38.90559" lon="-0.108742">
        <ele>20.0</ele>
        <time>2018-06-10T07:49:53.038Z</time>
      </trkpt>
      <trkpt lat="38.90552983" lon="-0.10870383">
        <ele>20.0</ele>
        <time>2018-06-10T07:49:54.038Z</time>
      </trkpt>
      <trkpt lat="38.90547017" lon="-0.108666">
        <ele>20.0</ele>
        <time>2018-06-10T07:49:55.038Z</time>
      </trkpt>
      <trkpt lat="38.90541083" lon="-0.10862783">
        <ele>20.0</ele>
        <time>2018-06-10T07:49:56.038Z</time>
      </trkpt>
      <trkpt lat="38.9053515" lon="-0.10858967">
        <ele>20.0</ele>
        <time>2018-06-10T07:49:57.038Z</time>
      </trkpt>
      <trkpt lat="38.90529183" lon="-0.1085515">
        <ele>20.0</ele>
        <time>2018-06-10T07:49:58.038Z</time>
      </trkpt>
      <trkpt lat="38.90523217" lon="-0.108513">
        <ele>20.0</ele>
        <time>2018-06-10T07:49:59.038Z</time>
      </trkpt>
      <trkpt lat="38.90517217" lon="-0.1084745">
        <ele>20.0</ele>
        <time>2018-06-10T07:50:00.038Z</time>
      </trkpt>
      <trkpt lat="38.905112" lon="-0.10843617">
        <ele>20.0</ele>
        <time>2018-06-10T07:50:01.038Z</time>
      </trkpt>
      <trkpt lat="38.905052" lon="-0.108398">
        <ele>20.0</ele>
        <time>2018-06-10T07:50:02.038Z</time>
      </trkpt>
      <trkpt lat="38.90499167" lon="-0.10836">
        <ele>20.0</ele>
        <time>2018-06-10T07:50:03.038Z</time>
      </trkpt>
      <trkpt lat="38.9049315" lon="-0.10832167">
        <ele>20.0</ele>
        <time>2018-06-10T07:50:04.038Z</time>
      </trkpt>
      <trkpt lat="38.90487133" lon="-0.108283">
        <ele>20.0</ele>
        <time>2018-06-10T07:50:05.038Z</time>
      </trkpt>
      <trkpt lat="38.90481117" lon="-0.10824317">
        <ele>20.0</ele>
        <time>2018-06-10T07:50:06.038Z</time>
      </trkpt>
      <trkpt lat="38.9047505" lon="-0.1082035">
        <ele>20.0</ele>
        <time>2018-06-10T07:50:07.038Z</time>
      </trkpt>
      <trkpt lat="38.90468967" lon="-0.108164">
        <ele>20.0</ele>
        <time>2018-06-10T07:50:08.038Z</time>
      </trkpt>
      <trkpt lat="38.9046285" lon="-0.108125">
        <ele>20.0</ele>
        <time>2018-06-10T07:50:09.038Z</time>
      </trkpt>
      <trkpt lat="38.90456733" lon="-0.10808617">
        <ele>20.0</ele>
        <time>2018-06-10T07:50:10.038Z</time>
      </trkpt>
      <trkpt lat="38.90450583" lon="-0.108047">
        <ele>20.0</ele>
        <time>2018-06-10T07:50:11.038Z</time>
      </trkpt>
      <trkpt lat="38.90444483" lon="-0.10800817">
        <ele>20.0</ele>
        <time>2018-06-10T07:50:12.038Z</time>
      </trkpt>
      <trkpt lat="38.904384" lon="-0.10796933">
        <ele>20.0</ele>
        <time>2018-06-10T07:50:13.038Z</time>
      </trkpt>
      <trkpt lat="38.9043235" lon="-0.10793067">
        <ele>21.0</ele>
        <time>2018-06-10T07:50:14.038Z</time>
      </trkpt>
      <trkpt lat="38.904263" lon="-0.107892">
        <ele>21.0</ele>
        <time>2018-06-10T07:50:15.038Z</time>
      </trkpt>
      <trkpt lat="38.904203" lon="-0.107854">
        <ele>21.0</ele>
        <time>2018-06-10T07:50:16.038Z</time>
      </trkpt>
      <trkpt lat="38.90414367" lon="-0.10781633">
        <ele>21.0</ele>
        <time>2018-06-10T07:50:17.038Z</time>
      </trkpt>
      <trkpt lat="38.90408517" lon="-0.1077785">
        <ele>21.0</ele>
        <time>2018-06-10T07:50:18.038Z</time>
      </trkpt>
      <trkpt lat="38.90402683" lon="-0.10774017">
        <ele>21.0</ele>
        <time>2018-06-10T07:50:19.038Z</time>
      </trkpt>
      <trkpt lat="38.90396817" lon="-0.10770167">
        <ele>21.0</ele>
        <time>2018-06-10T07:50:20.038Z</time>
      </trkpt>
      <trkpt lat="38.903909" lon="-0.10766267">
        <ele>21.0</ele>
        <time>2018-06-10T07:50:21.038Z</time>
      </trkpt>
      <trkpt lat="38.90384917" lon="-0.10762367">
        <ele>21.0</ele>
        <time>2018-06-10T07:50:22.038Z</time>
      </trkpt>
      <trkpt lat="38.903789" lon="-0.10758467">
        <ele>22.0</ele>
        <time>2018-06-10T07:50:23.038Z</time>
      </trkpt>
      <trkpt lat="38.90372833" lon="-0.10754517">
        <ele>22.0</ele>
        <time>2018-06-10T07:50:24.038Z</time>
      </trkpt>
      <trkpt lat="38.90366717" lon="-0.10750467">
        <ele>22.0</ele>
        <time>2018-06-10T07:50:25.038Z</time>
      </trkpt>
      <trkpt lat="38.90360517" lon="-0.10746333">
        <ele>22.0</ele>
        <time>2018-06-10T07:50:26.038Z</time>
      </trkpt>
      <trkpt lat="38.9035425" lon="-0.10742183">
        <ele>22.0</ele>
        <time>2018-06-10T07:50:27.038Z</time>
      </trkpt>
      <trkpt lat="38.90347917" lon="-0.10738067">
        <ele>22.0</ele>
        <time>2018-06-10T07:50:28.038Z</time>
      </trkpt>
      <trkpt lat="38.90341583" lon="-0.10733917">
        <ele>22.0</ele>
        <time>2018-06-10T07:50:29.038Z</time>
      </trkpt>
      <trkpt lat="38.90335217" lon="-0.10729767">
        <ele>22.0</ele>
        <time>2018-06-10T07:50:30.038Z</time>
      </trkpt>
      <trkpt lat="38.90328867" lon="-0.10725583">
        <ele>21.0</ele>
        <time>2018-06-10T07:50:31.038Z</time>
      </trkpt>
      <trkpt lat="38.90322467" lon="-0.1072135">
        <ele>21.0</ele>
        <time>2018-06-10T07:50:32.038Z</time>
      </trkpt>
      <trkpt lat="38.90316" lon="-0.1071705">
        <ele>21.0</ele>
        <time>2018-06-10T07:50:33.038Z</time>
      </trkpt>
      <trkpt lat="38.903095" lon="-0.10712733">
        <ele>21.0</ele>
        <time>2018-06-10T07:50:34.038Z</time>
      </trkpt>
      <trkpt lat="38.90302967" lon="-0.10708433">
        <ele>21.0</ele>
        <time>2018-06-10T07:50:35.038Z</time>
      </trkpt>
      <trkpt lat="38.90296367" lon="-0.10704117">
        <ele>21.0</ele>
        <time>2018-06-10T07:50:36.038Z</time>
      </trkpt>
      <trkpt lat="38.90289633" lon="-0.106998">
        <ele>21.0</ele>
        <time>2018-06-10T07:50:37.038Z</time>
      </trkpt>
      <trkpt lat="38.90282833" lon="-0.106955">
        <ele>20.0</ele>
        <time>2018-06-10T07:50:38.038Z</time>
      </trkpt>
      <trkpt lat="38.90275967" lon="-0.10691233">
        <ele>20.0</ele>
        <time>2018-06-10T07:50:39.038Z</time>
      </trkpt>
      <trkpt lat="38.9026905" lon="-0.10686983">
        <ele>20.0</ele>
        <time>2018-06-10T07:50:40.038Z</time>
      </trkpt>
      <trkpt lat="38.902621" lon="-0.10682733">
        <ele>20.0</ele>
        <time>2018-06-10T07:50:41.038Z</time>
      </trkpt>
      <trkpt lat="38.9025515" lon="-0.106785">
        <ele>21.0</ele>
        <time>2018-06-10T07:50:42.038Z</time>
      </trkpt>
      <trkpt lat="38.9024825" lon="-0.10674317">
        <ele>21.0</ele>
        <time>2018-06-10T07:50:43.038Z</time>
      </trkpt>
      <trkpt lat="38.90241417" lon="-0.10670317">
        <ele>21.0</ele>
        <time>2018-06-10T07:50:44.038Z</time>
      </trkpt>
      <trkpt lat="38.90234717" lon="-0.10666467">
        <ele>21.0</ele>
        <time>2018-06-10T07:50:45.038Z</time>
      </trkpt>
      <trkpt lat="38.90228133" lon="-0.106628">
        <ele>22.0</ele>
        <time>2018-06-10T07:50:46.038Z</time>
      </trkpt>
      <trkpt lat="38.902217" lon="-0.1065925">
        <ele>22.0</ele>
        <time>2018-06-10T07:50:47.038Z</time>
      </trkpt>
      <trkpt lat="38.90215333" lon="-0.10655867">
        <ele>22.0</ele>
        <time>2018-06-10T07:50:48.038Z</time>
      </trkpt>
      <trkpt lat="38.9020905" lon="-0.1065255">
        <ele>22.0</ele>
        <time>2018-06-10T07:50:49.038Z</time>
      </trkpt>
      <trkpt lat="38.90202817" lon="-0.10649233">
        <ele>23.0</ele>
        <time>2018-06-10T07:50:50.038Z</time>
      </trkpt>
      <trkpt lat="38.90196617" lon="-0.10645917">
        <ele>23.0</ele>
        <time>2018-06-10T07:50:51.038Z</time>
      </trkpt>
      <trkpt lat="38.901904" lon="-0.1064265">
        <ele>24.0</ele>
        <time>2018-06-10T07:50:52.038Z</time>
      </trkpt>
      <trkpt lat="38.90184183" lon="-0.106394">
        <ele>24.0</ele>
        <time>2018-06-10T07:50:53.038Z</time>
      </trkpt>
      <trkpt lat="38.90178" lon="-0.10636217">
        <ele>25.0</ele>
        <time>2018-06-10T07:50:54.038Z</time>
      </trkpt>
      <trkpt lat="38.90171867" lon="-0.106331">
        <ele>25.0</ele>
        <time>2018-06-10T07:50:55.038Z</time>
      </trkpt>
      <trkpt lat="38.90165767" lon="-0.10630133">
        <ele>25.0</ele>
        <time>2018-06-10T07:50:56.038Z</time>
      </trkpt>
      <trkpt lat="38.90159683" lon="-0.10627267">
        <ele>26.0</ele>
        <time>2018-06-10T07:50:57.038Z</time>
      </trkpt>
      <trkpt lat="38.901536" lon="-0.10624533">
        <ele>26.0</ele>
        <time>2018-06-10T07:50:58.038Z</time>
      </trkpt>
      <trkpt lat="38.901475" lon="-0.106218">
        <ele>26.0</ele>
        <time>2018-06-10T07:50:59.038Z</time>
      </trkpt>
      <trkpt lat="38.90141417" lon="-0.1061915">
        <ele>27.0</ele>
        <time>2018-06-10T07:51:00.038Z</time>
      </trkpt>
      <trkpt lat="38.90135417" lon="-0.1061655">
        <ele>27.0</ele>
        <time>2018-06-10T07:51:01.038Z</time>
      </trkpt>
      <trkpt lat="38.90129483" lon="-0.10614117">
        <ele>27.0</ele>
        <time>2018-06-10T07:51:02.038Z</time>
      </trkpt>
      <trkpt lat="38.90123567" lon="-0.1061175">
        <ele>28.0</ele>
        <time>2018-06-10T07:51:03.038Z</time>
      </trkpt>
      <trkpt lat="38.9011765" lon="-0.1060945">
        <ele>28.0</ele>
        <time>2018-06-10T07:51:04.038Z</time>
      </trkpt>
      <trkpt lat="38.901117" lon="-0.106072">
        <ele>28.0</ele>
        <time>2018-06-10T07:51:05.038Z</time>
      </trkpt>
      <trkpt lat="38.90105717" lon="-0.10604967">
        <ele>28.0</ele>
        <time>2018-06-10T07:51:06.038Z</time>
      </trkpt>
      <trkpt lat="38.90099767" lon="-0.106027">
        <ele>29.0</ele>
        <time>2018-06-10T07:51:07.038Z</time>
      </trkpt>
      <trkpt lat="38.900938" lon="-0.1060045">
        <ele>29.0</ele>
        <time>2018-06-10T07:51:08.038Z</time>
      </trkpt>
      <trkpt lat="38.90087817" lon="-0.10598233">
        <ele>29.0</ele>
        <time>2018-06-10T07:51:09.038Z</time>
      </trkpt>
      <trkpt lat="38.90081783" lon="-0.10596033">
        <ele>29.0</ele>
        <time>2018-06-10T07:51:10.038Z</time>
      </trkpt>
      <trkpt lat="38.90075617" lon="-0.1059385">
        <ele>29.0</ele>
        <time>2018-06-10T07:51:11.038Z</time>
      </trkpt>
      <trkpt lat="38.90069317" lon="-0.10591667">
        <ele>29.0</ele>
        <time>2018-06-10T07:51:12.038Z</time>
      </trkpt>
      <trkpt lat="38.90062867" lon="-0.1058945">
        <ele>29.0</ele>
        <time>2018-06-10T07:51:13.038Z</time>
      </trkpt>
      <trkpt lat="38.90056283" lon="-0.10587117">
        <ele>28.0</ele>
        <time>2018-06-10T07:51:14.038Z</time>
      </trkpt>
      <trkpt lat="38.900496" lon="-0.1058465">
        <ele>28.0</ele>
        <time>2018-06-10T07:51:15.038Z</time>
      </trkpt>
      <trkpt lat="38.90042833" lon="-0.1058215">
        <ele>28.0</ele>
        <time>2018-06-10T07:51:16.038Z</time>
      </trkpt>
      <trkpt lat="38.90035933" lon="-0.1057965">
        <ele>28.0</ele>
        <time>2018-06-10T07:51:17.038Z</time>
      </trkpt>
      <trkpt lat="38.90028867" lon="-0.10577183">
        <ele>27.0</ele>
        <time>2018-06-10T07:51:18.038Z</time>
      </trkpt>
      <trkpt lat="38.90021567" lon="-0.1057455">
        <ele>27.0</ele>
        <time>2018-06-10T07:51:19.038Z</time>
      </trkpt>
      <trkpt lat="38.90014" lon="-0.10571817">
        <ele>26.0</ele>
        <time>2018-06-10T07:51:20.038Z</time>
      </trkpt>
      <trkpt lat="38.90006133" lon="-0.10568967">
        <ele>26.0</ele>
        <time>2018-06-10T07:51:21.038Z</time>
      </trkpt>
      <trkpt lat="38.89997967" lon="-0.10565983">
        <ele>25.0</ele>
        <time>2018-06-10T07:51:22.038Z</time>
      </trkpt>
      <trkpt lat="38.89989517" lon="-0.10562883">
        <ele>25.0</ele>
        <time>2018-06-10T07:51:23.038Z</time>
      </trkpt>
      <trkpt lat="38.89980783" lon="-0.10559667">
        <ele>24.0</ele>
        <time>2018-06-10T07:51:24.038Z</time>
      </trkpt>
      <trkpt lat="38.899718" lon="-0.105564">
        <ele>24.0</ele>
        <time>2018-06-10T07:51:25.038Z</time>
      </trkpt>
      <trkpt lat="38.89962567" lon="-0.10553033">
        <ele>23.0</ele>
        <time>2018-06-10T07:51:26.038Z</time>
      </trkpt>
      <trkpt lat="38.8995305" lon="-0.10549583">
        <ele>22.0</ele>
        <time>2018-06-10T07:51:27.038Z</time>
      </trkpt>
      <trkpt lat="38.8994325" lon="-0.10546067">
        <ele>22.0</ele>
        <time>2018-06-10T07:51:28.038Z</time>
      </trkpt>
      <trkpt lat="38.89933183" lon="-0.10542467">
        <ele>21.0</ele>
        <time>2018-06-10T07:51:29.038Z</time>
      </trkpt>
      <trkpt lat="38.89922917" lon="-0.105387">
        <ele>21.0</ele>
        <time>2018-06-10T07:51:30.038Z</time>
      </trkpt>
      <trkpt lat="38.89912467" lon="-0.10534817">
        <ele>20.0</ele>
        <time>2018-06-10T07:51:31.038Z</time>
      </trkpt>
      <trkpt lat="38.89901917" lon="-0.10530867">
        <ele>20.0</ele>
        <time>2018-06-10T07:51:32.038Z</time>
      </trkpt>
      <trkpt lat="38.89891367" lon="-0.10526817">
        <ele>20.0</ele>
        <time>2018-06-10T07:51:33.038Z</time>
      </trkpt>
      <trkpt lat="38.898809" lon="-0.105227">
        <ele>20.0</ele>
        <time>2018-06-10T07:51:34.038Z</time>
      </trkpt>
      <trkpt lat="38.89870583" lon="-0.1051865">
        <ele>20.0</ele>
        <time>2018-06-10T07:51:35.038Z</time>
      </trkpt>
      <trkpt lat="38.89860417" lon="-0.10514733">
        <ele>20.0</ele>
        <time>2018-06-10T07:51:36.038Z</time>
      </trkpt>
      <trkpt lat="38.89850433" lon="-0.1051095">
        <ele>20.0</ele>
        <time>2018-06-10T07:51:37.038Z</time>
      </trkpt>
      <trkpt lat="38.89840617" lon="-0.10507167">
        <ele>21.0</ele>
        <time>2018-06-10T07:51:38.038Z</time>
      </trkpt>
      <trkpt lat="38.89830867" lon="-0.10503433">
        <ele>21.0</ele>
        <time>2018-06-10T07:51:39.038Z</time>
      </trkpt>
      <trkpt lat="38.89821167" lon="-0.10499767">
        <ele>21.0</ele>
        <time>2018-06-10T07:51:40.038Z</time>
      </trkpt>
      <trkpt lat="38.89811483" lon="-0.10496217">
        <ele>21.0</ele>
        <time>2018-06-10T07:51:41.038Z</time>
      </trkpt>
      <trkpt lat="38.898019" lon="-0.104928">
        <ele>21.0</ele>
        <time>2018-06-10T07:51:42.038Z</time>
      </trkpt>
      <trkpt lat="38.89792383" lon="-0.1048945">
        <ele>21.0</ele>
        <time>2018-06-10T07:51:43.038Z</time>
      </trkpt>
      <trkpt lat="38.8978295" lon="-0.10486117">
        <ele>21.0</ele>
        <time>2018-06-10T07:51:44.038Z</time>
      </trkpt>
      <trkpt lat="38.8977355" lon="-0.10482783">
        <ele>21.0</ele>
        <time>2018-06-10T07:51:45.038Z</time>
      </trkpt>
      <trkpt lat="38.897642" lon="-0.104795">
        <ele>21.0</ele>
        <time>2018-06-10T07:51:46.038Z</time>
      </trkpt>
      <trkpt lat="38.89754867" lon="-0.1047625">
        <ele>21.0</ele>
        <time>2018-06-10T07:51:47.038Z</time>
      </trkpt>
      <trkpt lat="38.89745567" lon="-0.10473033">
        <ele>21.0</ele>
        <time>2018-06-10T07:51:48.038Z</time>
      </trkpt>
      <trkpt lat="38.897363" lon="-0.1046985">
        <ele>21.0</ele>
        <time>2018-06-10T07:51:49.038Z</time>
      </trkpt>
      <trkpt lat="38.89727083" lon="-0.10466717">
        <ele>21.0</ele>
        <time>2018-06-10T07:51:50.038Z</time>
      </trkpt>
      <trkpt lat="38.89717933" lon="-0.1046365">
        <ele>21.0</ele>
        <time>2018-06-10T07:51:51.038Z</time>
      </trkpt>
      <trkpt lat="38.89708867" lon="-0.10460533">
        <ele>22.0</ele>
        <time>2018-06-10T07:51:52.038Z</time>
      </trkpt>
      <trkpt lat="38.89699883" lon="-0.10457333">
        <ele>22.0</ele>
        <time>2018-06-10T07:51:53.038Z</time>
      </trkpt>
      <trkpt lat="38.89690983" lon="-0.10454033">
        <ele>22.0</ele>
        <time>2018-06-10T07:51:54.038Z</time>
      </trkpt>
      <trkpt lat="38.89682133" lon="-0.10450767">
        <ele>22.0</ele>
        <time>2018-06-10T07:51:55.038Z</time>
      </trkpt>
      <trkpt lat="38.89673367" lon="-0.10447567">
        <ele>22.0</ele>
        <time>2018-06-10T07:51:56.038Z</time>
      </trkpt>
      <trkpt lat="38.89664667" lon="-0.10444383">
        <ele>22.0</ele>
        <time>2018-06-10T07:51:57.038Z</time>
      </trkpt>
      <trkpt lat="38.89656017" lon="-0.1044125">
        <ele>22.0</ele>
        <time>2018-06-10T07:51:58.038Z</time>
      </trkpt>
      <trkpt lat="38.896474" lon="-0.10438133">
        <ele>22.0</ele>
        <time>2018-06-10T07:51:59.038Z</time>
      </trkpt>
      <trkpt lat="38.896388" lon="-0.10435083">
        <ele>22.0</ele>
        <time>2018-06-10T07:52:00.038Z</time>
      </trkpt>
      <trkpt lat="38.89630217" lon="-0.10432017">
        <ele>22.0</ele>
        <time>2018-06-10T07:52:01.038Z</time>
      </trkpt>
      <trkpt lat="38.89621667" lon="-0.1042895">
        <ele>22.0</ele>
        <time>2018-06-10T07:52:02.038Z</time>
      </trkpt>
      <trkpt lat="38.89613167" lon="-0.10425883">
        <ele>22.0</ele>
        <time>2018-06-10T07:52:03.038Z</time>
      </trkpt>
      <trkpt lat="38.89604683" lon="-0.10422767">
        <ele>23.0</ele>
        <time>2018-06-10T07:52:04.038Z</time>
      </trkpt>
      <trkpt lat="38.89596233" lon="-0.1041965">
        <ele>23.0</ele>
        <time>2018-06-10T07:52:05.038Z</time>
      </trkpt>
      <trkpt lat="38.89587783" lon="-0.1041655">
        <ele>23.0</ele>
        <time>2018-06-10T07:52:06.038Z</time>
      </trkpt>
      <trkpt lat="38.89579317" lon="-0.104135">
        <ele>23.0</ele>
        <time>2018-06-10T07:52:07.038Z</time>
      </trkpt>
      <trkpt lat="38.89570833" lon="-0.10410483">
        <ele>23.0</ele>
        <time>2018-06-10T07:52:08.038Z</time>
      </trkpt>
      <trkpt lat="38.89562367" lon="-0.1040745">
        <ele>23.0</ele>
        <time>2018-06-10T07:52:09.038Z</time>
      </trkpt>
      <trkpt lat="38.89553883" lon="-0.104044">
        <ele>23.0</ele>
        <time>2018-06-10T07:52:10.038Z</time>
      </trkpt>
      <trkpt lat="38.89545433" lon="-0.10401317">
        <ele>23.0</ele>
        <time>2018-06-10T07:52:11.038Z</time>
      </trkpt>
      <trkpt lat="38.89536983" lon="-0.10398217">
        <ele>23.0</ele>
        <time>2018-06-10T07:52:12.038Z</time>
      </trkpt>
      <trkpt lat="38.895285" lon="-0.10395083">
        <ele>23.0</ele>
        <time>2018-06-10T07:52:13.038Z</time>
      </trkpt>
      <trkpt lat="38.8952" lon="-0.10391983">
        <ele>23.0</ele>
        <time>2018-06-10T07:52:14.038Z</time>
      </trkpt>
      <trkpt lat="38.89511467" lon="-0.103889">
        <ele>23.0</ele>
        <time>2018-06-10T07:52:15.038Z</time>
      </trkpt>
      <trkpt lat="38.8950295" lon="-0.10385883">
        <ele>23.0</ele>
        <time>2018-06-10T07:52:16.038Z</time>
      </trkpt>
      <trkpt lat="38.8949445" lon="-0.10382833">
        <ele>23.0</ele>
        <time>2018-06-10T07:52:17.038Z</time>
      </trkpt>
      <trkpt lat="38.89485933" lon="-0.1037975">
        <ele>23.0</ele>
        <time>2018-06-10T07:52:18.038Z</time>
      </trkpt>
      <trkpt lat="38.894774" lon="-0.1037665">
        <ele>23.0</ele>
        <time>2018-06-10T07:52:19.038Z</time>
      </trkpt>
      <trkpt lat="38.894688" lon="-0.10373633">
        <ele>23.0</ele>
        <time>2018-06-10T07:52:20.038Z</time>
      </trkpt>
      <trkpt lat="38.89460183" lon="-0.10370617">
        <ele>23.0</ele>
        <time>2018-06-10T07:52:21.038Z</time>
      </trkpt>
      <trkpt lat="38.89451517" lon="-0.103676">
        <ele>23.0</ele>
        <time>2018-06-10T07:52:22.038Z</time>
      </trkpt>
      <trkpt lat="38.8944285" lon="-0.103645">
        <ele>23.0</ele>
        <time>2018-06-10T07:52:23.038Z</time>
      </trkpt>
      <trkpt lat="38.89434167" lon="-0.10361367">
        <ele>23.0</ele>
        <time>2018-06-10T07:52:24.038Z</time>
      </trkpt>
      <trkpt lat="38.894255" lon="-0.10358217">
        <ele>23.0</ele>
        <time>2018-06-10T07:52:25.038Z</time>
      </trkpt>
      <trkpt lat="38.894168" lon="-0.10355067">
        <ele>23.0</ele>
        <time>2018-06-10T07:52:26.038Z</time>
      </trkpt>
      <trkpt lat="38.89408117" lon="-0.10351933">
        <ele>23.0</ele>
        <time>2018-06-10T07:52:27.038Z</time>
      </trkpt>
      <trkpt lat="38.893994" lon="-0.103488">
        <ele>23.0</ele>
        <time>2018-06-10T07:52:28.038Z</time>
      </trkpt>
      <trkpt lat="38.89390683" lon="-0.10345717">
        <ele>23.0</ele>
        <time>2018-06-10T07:52:29.038Z</time>
      </trkpt>
      <trkpt lat="38.89381917" lon="-0.10342667">
        <ele>23.0</ele>
        <time>2018-06-10T07:52:30.038Z</time>
      </trkpt>
      <trkpt lat="38.89373117" lon="-0.10339667">
        <ele>23.0</ele>
        <time>2018-06-10T07:52:31.038Z</time>
      </trkpt>
      <trkpt lat="38.89364367" lon="-0.10336583">
        <ele>23.0</ele>
        <time>2018-06-10T07:52:32.038Z</time>
      </trkpt>
      <trkpt lat="38.8935565" lon="-0.10333383">
        <ele>23.0</ele>
        <time>2018-06-10T07:52:33.038Z</time>
      </trkpt>
      <trkpt lat="38.89346983" lon="-0.1033005">
        <ele>23.0</ele>
        <time>2018-06-10T07:52:34.038Z</time>
      </trkpt>
      <trkpt lat="38.89338333" lon="-0.10326733">
        <ele>24.0</ele>
        <time>2018-06-10T07:52:35.038Z</time>
      </trkpt>
      <trkpt lat="38.893297" lon="-0.10323483">
        <ele>24.0</ele>
        <time>2018-06-10T07:52:36.038Z</time>
      </trkpt>
      <trkpt lat="38.8932105" lon="-0.103203">
        <ele>24.0</ele>
        <time>2018-06-10T07:52:37.038Z</time>
      </trkpt>
      <trkpt lat="38.893124" lon="-0.1031715">
        <ele>24.0</ele>
        <time>2018-06-10T07:52:38.038Z</time>
      </trkpt>
      <trkpt lat="38.89303717" lon="-0.10314083">
        <ele>24.0</ele>
        <time>2018-06-10T07:52:39.038Z</time>
      </trkpt>
      <trkpt lat="38.89295083" lon="-0.1031105">
        <ele>24.0</ele>
        <time>2018-06-10T07:52:40.038Z</time>
      </trkpt>
      <trkpt lat="38.89286467" lon="-0.1030805">
        <ele>24.0</ele>
        <time>2018-06-10T07:52:41.038Z</time>
      </trkpt>
      <trkpt lat="38.89277933" lon="-0.10305">
        <ele>24.0</ele>
        <time>2018-06-10T07:52:42.038Z</time>
      </trkpt>
      <trkpt lat="38.89269433" lon="-0.10302017">
        <ele>24.0</ele>
        <time>2018-06-10T07:52:43.038Z</time>
      </trkpt>
      <trkpt lat="38.89260967" lon="-0.10298967">
        <ele>24.0</ele>
        <time>2018-06-10T07:52:44.038Z</time>
      </trkpt>
      <trkpt lat="38.892525" lon="-0.10295917">
        <ele>24.0</ele>
        <time>2018-06-10T07:52:45.038Z</time>
      </trkpt>
      <trkpt lat="38.89244" lon="-0.10292767">
        <ele>23.0</ele>
        <time>2018-06-10T07:52:46.038Z</time>
      </trkpt>
      <trkpt lat="38.89235367" lon="-0.1028955">
        <ele>24.0</ele>
        <time>2018-06-10T07:52:47.038Z</time>
      </trkpt>
      <trkpt lat="38.89226633" lon="-0.10286267">
        <ele>23.0</ele>
        <time>2018-06-10T07:52:48.038Z</time>
      </trkpt>
      <trkpt lat="38.892177" lon="-0.10283033">
        <ele>23.0</ele>
        <time>2018-06-10T07:52:49.038Z</time>
      </trkpt>
      <trkpt lat="38.89208683" lon="-0.10279833">
        <ele>23.0</ele>
        <time>2018-06-10T07:52:50.038Z</time>
      </trkpt>
      <trkpt lat="38.891996" lon="-0.1027665">
        <ele>24.0</ele>
        <time>2018-06-10T07:52:51.038Z</time>
      </trkpt>
      <trkpt lat="38.8919055" lon="-0.10273433">
        <ele>23.0</ele>
        <time>2018-06-10T07:52:52.038Z</time>
      </trkpt>
      <trkpt lat="38.89172517" lon="-0.10267067">
        <ele>23.0</ele>
        <time>2018-06-10T07:52:53.038Z</time>
      </trkpt>
      <trkpt lat="38.89172517" lon="-0.10267067">
        <ele>23.0</ele>
        <time>2018-06-10T07:52:54.038Z</time>
      </trkpt>
      <trkpt lat="38.8916355" lon="-0.102638">
        <ele>23.0</ele>
        <time>2018-06-10T07:52:55.038Z</time>
      </trkpt>
      <trkpt lat="38.891546" lon="-0.10260483">
        <ele>23.0</ele>
        <time>2018-06-10T07:52:56.038Z</time>
      </trkpt>
      <trkpt lat="38.89145683" lon="-0.102572">
        <ele>23.0</ele>
        <time>2018-06-10T07:52:57.038Z</time>
      </trkpt>
      <trkpt lat="38.89136817" lon="-0.10253917">
        <ele>23.0</ele>
        <time>2018-06-10T07:52:58.038Z</time>
      </trkpt>
      <trkpt lat="38.89127983" lon="-0.1025065">
        <ele>23.0</ele>
        <time>2018-06-10T07:52:59.038Z</time>
      </trkpt>
      <trkpt lat="38.89119183" lon="-0.10247383">
        <ele>23.0</ele>
        <time>2018-06-10T07:53:00.038Z</time>
      </trkpt>
      <trkpt lat="38.89110367" lon="-0.102442">
        <ele>23.0</ele>
        <time>2018-06-10T07:53:01.038Z</time>
      </trkpt>
      <trkpt lat="38.89101533" lon="-0.10241067">
        <ele>23.0</ele>
        <time>2018-06-10T07:53:02.038Z</time>
      </trkpt>
      <trkpt lat="38.8909265" lon="-0.10237883">
        <ele>23.0</ele>
        <time>2018-06-10T07:53:03.038Z</time>
      </trkpt>
      <trkpt lat="38.8907485" lon="-0.10231317">
        <ele>23.0</ele>
        <time>2018-06-10T07:53:04.038Z</time>
      </trkpt>
      <trkpt lat="38.8907485" lon="-0.10231317">
        <ele>23.0</ele>
        <time>2018-06-10T07:53:05.038Z</time>
      </trkpt>
      <trkpt lat="38.8906595" lon="-0.10228083">
        <ele>23.0</ele>
        <time>2018-06-10T07:53:06.038Z</time>
      </trkpt>
      <trkpt lat="38.89057067" lon="-0.10224917">
        <ele>23.0</ele>
        <time>2018-06-10T07:53:07.038Z</time>
      </trkpt>
      <trkpt lat="38.8904815" lon="-0.10221767">
        <ele>23.0</ele>
        <time>2018-06-10T07:53:08.038Z</time>
      </trkpt>
      <trkpt lat="38.89039233" lon="-0.10218583">
        <ele>23.0</ele>
        <time>2018-06-10T07:53:09.038Z</time>
      </trkpt>
      <trkpt lat="38.890303" lon="-0.10215367">
        <ele>23.0</ele>
        <time>2018-06-10T07:53:10.038Z</time>
      </trkpt>
      <trkpt lat="38.8902135" lon="-0.10212117">
        <ele>23.0</ele>
        <time>2018-06-10T07:53:11.038Z</time>
      </trkpt>
      <trkpt lat="38.89012367" lon="-0.10208833">
        <ele>23.0</ele>
        <time>2018-06-10T07:53:12.038Z</time>
      </trkpt>
      <trkpt lat="38.89003383" lon="-0.10205583">
        <ele>23.0</ele>
        <time>2018-06-10T07:53:13.038Z</time>
      </trkpt>
      <trkpt lat="38.88994383" lon="-0.10202317">
        <ele>23.0</ele>
        <time>2018-06-10T07:53:14.038Z</time>
      </trkpt>
      <trkpt lat="38.889854" lon="-0.10199067">
        <ele>23.0</ele>
        <time>2018-06-10T07:53:15.038Z</time>
      </trkpt>
      <trkpt lat="38.8897645" lon="-0.10195833">
        <ele>23.0</ele>
        <time>2018-06-10T07:53:16.038Z</time>
      </trkpt>
      <trkpt lat="38.889675" lon="-0.10192633">
        <ele>23.0</ele>
        <time>2018-06-10T07:53:17.038Z</time>
      </trkpt>
      <trkpt lat="38.88958567" lon="-0.1018945">
        <ele>23.0</ele>
        <time>2018-06-10T07:53:18.038Z</time>
      </trkpt>
      <trkpt lat="38.88949633" lon="-0.101863">
        <ele>23.0</ele>
        <time>2018-06-10T07:53:19.038Z</time>
      </trkpt>
      <trkpt lat="38.88940683" lon="-0.10183117">
        <ele>23.0</ele>
        <time>2018-06-10T07:53:20.038Z</time>
      </trkpt>
      <trkpt lat="38.88931717" lon="-0.10179883">
        <ele>23.0</ele>
        <time>2018-06-10T07:53:21.038Z</time>
      </trkpt>
      <trkpt lat="38.88913733" lon="-0.10173483">
        <ele>23.0</ele>
        <time>2018-06-10T07:53:22.038Z</time>
      </trkpt>
      <trkpt lat="38.88913733" lon="-0.10173483">
        <ele>23.0</ele>
        <time>2018-06-10T07:53:23.038Z</time>
      </trkpt>
      <trkpt lat="38.88904717" lon="-0.10170383">
        <ele>23.0</ele>
        <time>2018-06-10T07:53:24.038Z</time>
      </trkpt>
      <trkpt lat="38.88895667" lon="-0.101673">
        <ele>23.0</ele>
        <time>2018-06-10T07:53:25.038Z</time>
      </trkpt>
      <trkpt lat="38.888866" lon="-0.10164217">
        <ele>23.0</ele>
        <time>2018-06-10T07:53:26.038Z</time>
      </trkpt>
      <trkpt lat="38.88877517" lon="-0.10161083">
        <ele>24.0</ele>
        <time>2018-06-10T07:53:27.038Z</time>
      </trkpt>
      <trkpt lat="38.888684" lon="-0.101579">
        <ele>24.0</ele>
        <time>2018-06-10T07:53:28.038Z</time>
      </trkpt>
      <trkpt lat="38.8885925" lon="-0.10154683">
        <ele>24.0</ele>
        <time>2018-06-10T07:53:29.038Z</time>
      </trkpt>
      <trkpt lat="38.888501" lon="-0.101514">
        <ele>24.0</ele>
        <time>2018-06-10T07:53:30.038Z</time>
      </trkpt>
      <trkpt lat="38.88840933" lon="-0.10148083">
        <ele>24.0</ele>
        <time>2018-06-10T07:53:31.038Z</time>
      </trkpt>
      <trkpt lat="38.88831717" lon="-0.10144767">
        <ele>24.0</ele>
        <time>2018-06-10T07:53:32.038Z</time>
      </trkpt>
      <trkpt lat="38.88813233" lon="-0.10138283">
        <ele>24.0</ele>
        <time>2018-06-10T07:53:33.038Z</time>
      </trkpt>
      <trkpt lat="38.88813233" lon="-0.10138283">
        <ele>24.0</ele>
        <time>2018-06-10T07:53:34.038Z</time>
      </trkpt>
      <trkpt lat="38.88804017" lon="-0.10135017">
        <ele>24.0</ele>
        <time>2018-06-10T07:53:35.038Z</time>
      </trkpt>
      <trkpt lat="38.887948" lon="-0.10131733">
        <ele>24.0</ele>
        <time>2018-06-10T07:53:36.038Z</time>
      </trkpt>
      <trkpt lat="38.88785567" lon="-0.1012835">
        <ele>24.0</ele>
        <time>2018-06-10T07:53:37.038Z</time>
      </trkpt>
      <trkpt lat="38.88776333" lon="-0.10124933">
        <ele>24.0</ele>
        <time>2018-06-10T07:53:38.038Z</time>
      </trkpt>
      <trkpt lat="38.88767067" lon="-0.101215">
        <ele>24.0</ele>
        <time>2018-06-10T07:53:39.038Z</time>
      </trkpt>
      <trkpt lat="38.88757717" lon="-0.10118083">
        <ele>24.0</ele>
        <time>2018-06-10T07:53:40.038Z</time>
      </trkpt>
      <trkpt lat="38.88748167" lon="-0.10114667">
        <ele>24.0</ele>
        <time>2018-06-10T07:53:41.038Z</time>
      </trkpt>
      <trkpt lat="38.887384" lon="-0.10111217">
        <ele>24.0</ele>
        <time>2018-06-10T07:53:42.038Z</time>
      </trkpt>
      <trkpt lat="38.88728467" lon="-0.10107733">
        <ele>24.0</ele>
        <time>2018-06-10T07:53:43.038Z</time>
      </trkpt>
      <trkpt lat="38.88718467" lon="-0.101042">
        <ele>24.0</ele>
        <time>2018-06-10T07:53:44.038Z</time>
      </trkpt>
      <trkpt lat="38.88708383" lon="-0.10100683">
        <ele>24.0</ele>
        <time>2018-06-10T07:53:45.038Z</time>
      </trkpt>
      <trkpt lat="38.88698233" lon="-0.10097167">
        <ele>24.0</ele>
        <time>2018-06-10T07:53:46.038Z</time>
      </trkpt>
      <trkpt lat="38.88688083" lon="-0.10093717">
        <ele>24.0</ele>
        <time>2018-06-10T07:53:47.038Z</time>
      </trkpt>
      <trkpt lat="38.88677917" lon="-0.10090283">
        <ele>24.0</ele>
        <time>2018-06-10T07:53:48.038Z</time>
      </trkpt>
      <trkpt lat="38.8866775" lon="-0.10086867">
        <ele>24.0</ele>
        <time>2018-06-10T07:53:49.038Z</time>
      </trkpt>
      <trkpt lat="38.88657633" lon="-0.10083367">
        <ele>23.0</ele>
        <time>2018-06-10T07:53:50.038Z</time>
      </trkpt>
      <trkpt lat="38.88647617" lon="-0.10079767">
        <ele>23.0</ele>
        <time>2018-06-10T07:53:51.038Z</time>
      </trkpt>
      <trkpt lat="38.88637683" lon="-0.1007625">
        <ele>23.0</ele>
        <time>2018-06-10T07:53:52.038Z</time>
      </trkpt>
      <trkpt lat="38.886277" lon="-0.10073">
        <ele>23.0</ele>
        <time>2018-06-10T07:53:53.038Z</time>
      </trkpt>
      <trkpt lat="38.88617583" lon="-0.10069817">
        <ele>23.0</ele>
        <time>2018-06-10T07:53:54.038Z</time>
      </trkpt>
      <trkpt lat="38.886074" lon="-0.10066467">
        <ele>23.0</ele>
        <time>2018-06-10T07:53:55.038Z</time>
      </trkpt>
      <trkpt lat="38.885973" lon="-0.10062833">
        <ele>23.0</ele>
        <time>2018-06-10T07:53:56.038Z</time>
      </trkpt>
      <trkpt lat="38.885873" lon="-0.10059183">
        <ele>23.0</ele>
        <time>2018-06-10T07:53:57.038Z</time>
      </trkpt>
      <trkpt lat="38.88577467" lon="-0.10055633">
        <ele>23.0</ele>
        <time>2018-06-10T07:53:58.038Z</time>
      </trkpt>
      <trkpt lat="38.88567767" lon="-0.10052217">
        <ele>23.0</ele>
        <time>2018-06-10T07:53:59.038Z</time>
      </trkpt>
      <trkpt lat="38.885582" lon="-0.10048833">
        <ele>23.0</ele>
        <time>2018-06-10T07:54:00.038Z</time>
      </trkpt>
      <trkpt lat="38.885487" lon="-0.10045417">
        <ele>24.0</ele>
        <time>2018-06-10T07:54:01.038Z</time>
      </trkpt>
      <trkpt lat="38.88539333" lon="-0.1004205">
        <ele>24.0</ele>
        <time>2018-06-10T07:54:02.038Z</time>
      </trkpt>
      <trkpt lat="38.88530133" lon="-0.10038667">
        <ele>24.0</ele>
        <time>2018-06-10T07:54:03.038Z</time>
      </trkpt>
      <trkpt lat="38.88521033" lon="-0.10035267">
        <ele>23.0</ele>
        <time>2018-06-10T07:54:04.038Z</time>
      </trkpt>
      <trkpt lat="38.88502733" lon="-0.10028133">
        <ele>23.0</ele>
        <time>2018-06-10T07:54:05.038Z</time>
      </trkpt>
      <trkpt lat="38.88502733" lon="-0.10028133">
        <ele>23.0</ele>
        <time>2018-06-10T07:54:06.038Z</time>
      </trkpt>
      <trkpt lat="38.88493467" lon="-0.10024417">
        <ele>23.0</ele>
        <time>2018-06-10T07:54:07.038Z</time>
      </trkpt>
      <trkpt lat="38.88484167" lon="-0.10020667">
        <ele>23.0</ele>
        <time>2018-06-10T07:54:08.038Z</time>
      </trkpt>
      <trkpt lat="38.884749" lon="-0.100169">
        <ele>23.0</ele>
        <time>2018-06-10T07:54:09.038Z</time>
      </trkpt>
      <trkpt lat="38.88465717" lon="-0.10013133">
        <ele>23.0</ele>
        <time>2018-06-10T07:54:10.038Z</time>
      </trkpt>
      <trkpt lat="38.88456633" lon="-0.10009383">
        <ele>23.0</ele>
        <time>2018-06-10T07:54:11.038Z</time>
      </trkpt>
      <trkpt lat="38.88447633" lon="-0.10005667">
        <ele>23.0</ele>
        <time>2018-06-10T07:54:12.038Z</time>
      </trkpt>
      <trkpt lat="38.88438717" lon="-0.10002017">
        <ele>23.0</ele>
        <time>2018-06-10T07:54:13.038Z</time>
      </trkpt>
      <trkpt lat="38.8842985" lon="-0.09998383">
        <ele>23.0</ele>
        <time>2018-06-10T07:54:14.038Z</time>
      </trkpt>
      <trkpt lat="38.8842095" lon="-0.09994683">
        <ele>23.0</ele>
        <time>2018-06-10T07:54:15.038Z</time>
      </trkpt>
      <trkpt lat="38.88412017" lon="-0.09990917">
        <ele>23.0</ele>
        <time>2018-06-10T07:54:16.038Z</time>
      </trkpt>
      <trkpt lat="38.88403033" lon="-0.09987117">
        <ele>23.0</ele>
        <time>2018-06-10T07:54:17.038Z</time>
      </trkpt>
      <trkpt lat="38.88384983" lon="-0.0997955">
        <ele>23.0</ele>
        <time>2018-06-10T07:54:18.038Z</time>
      </trkpt>
      <trkpt lat="38.88375967" lon="-0.099758">
        <ele>23.0</ele>
        <time>2018-06-10T07:54:19.038Z</time>
      </trkpt>
      <trkpt lat="38.88375967" lon="-0.099758">
        <ele>23.0</ele>
        <time>2018-06-10T07:54:20.038Z</time>
      </trkpt>
      <trkpt lat="38.88366967" lon="-0.09972083">
        <ele>23.0</ele>
        <time>2018-06-10T07:54:21.038Z</time>
      </trkpt>
      <trkpt lat="38.88357967" lon="-0.09968467">
        <ele>23.0</ele>
        <time>2018-06-10T07:54:22.038Z</time>
      </trkpt>
      <trkpt lat="38.88349" lon="-0.09964883">
        <ele>23.0</ele>
        <time>2018-06-10T07:54:23.038Z</time>
      </trkpt>
      <trkpt lat="38.88331067" lon="-0.0995755">
        <ele>23.0</ele>
        <time>2018-06-10T07:54:24.038Z</time>
      </trkpt>
      <trkpt lat="38.88331067" lon="-0.0995755">
        <ele>23.0</ele>
        <time>2018-06-10T07:54:25.038Z</time>
      </trkpt>
      <trkpt lat="38.8832205" lon="-0.09953833">
        <ele>23.0</ele>
        <time>2018-06-10T07:54:26.038Z</time>
      </trkpt>
      <trkpt lat="38.88303967" lon="-0.099466">
        <ele>23.0</ele>
        <time>2018-06-10T07:54:27.038Z</time>
      </trkpt>
      <trkpt lat="38.88303967" lon="-0.099466">
        <ele>23.0</ele>
        <time>2018-06-10T07:54:28.038Z</time>
      </trkpt>
      <trkpt lat="38.88294983" lon="-0.0994295">
        <ele>23.0</ele>
        <time>2018-06-10T07:54:29.038Z</time>
      </trkpt>
      <trkpt lat="38.88286083" lon="-0.09939233">
        <ele>24.0</ele>
        <time>2018-06-10T07:54:30.038Z</time>
      </trkpt>
      <trkpt lat="38.88268483" lon="-0.0993205">
        <ele>24.0</ele>
        <time>2018-06-10T07:54:31.038Z</time>
      </trkpt>
      <trkpt lat="38.88268483" lon="-0.0993205">
        <ele>24.0</ele>
        <time>2018-06-10T07:54:32.038Z</time>
      </trkpt>
      <trkpt lat="38.88259783" lon="-0.09928617">
        <ele>24.0</ele>
        <time>2018-06-10T07:54:33.038Z</time>
      </trkpt>
      <trkpt lat="38.882512" lon="-0.0992515">
        <ele>25.0</ele>
        <time>2018-06-10T07:54:34.038Z</time>
      </trkpt>
      <trkpt lat="38.88242733" lon="-0.0992165">
        <ele>25.0</ele>
        <time>2018-06-10T07:54:35.038Z</time>
      </trkpt>
      <trkpt lat="38.88234417" lon="-0.09918083">
        <ele>25.0</ele>
        <time>2018-06-10T07:54:36.038Z</time>
      </trkpt>
      <trkpt lat="38.882182" lon="-0.09910967">
        <ele>26.0</ele>
        <time>2018-06-10T07:54:37.038Z</time>
      </trkpt>
      <trkpt lat="38.882182" lon="-0.09910967">
        <ele>26.0</ele>
        <time>2018-06-10T07:54:38.038Z</time>
      </trkpt>
      <trkpt lat="38.88202533" lon="-0.09904267">
        <ele>26.0</ele>
        <time>2018-06-10T07:54:39.038Z</time>
      </trkpt>
      <trkpt lat="38.8819495" lon="-0.0990105">
        <ele>26.0</ele>
        <time>2018-06-10T07:54:40.038Z</time>
      </trkpt>
      <trkpt lat="38.8819495" lon="-0.0990105">
        <ele>26.0</ele>
        <time>2018-06-10T07:54:41.038Z</time>
      </trkpt>
      <trkpt lat="38.88180033" lon="-0.0989465">
        <ele>26.0</ele>
        <time>2018-06-10T07:54:42.038Z</time>
      </trkpt>
      <trkpt lat="38.881726" lon="-0.09891517">
        <ele>26.0</ele>
        <time>2018-06-10T07:54:43.038Z</time>
      </trkpt>
      <trkpt lat="38.881726" lon="-0.09891517">
        <ele>26.0</ele>
        <time>2018-06-10T07:54:44.038Z</time>
      </trkpt>
      <trkpt lat="38.88157483" lon="-0.0988515">
        <ele>26.0</ele>
        <time>2018-06-10T07:54:45.038Z</time>
      </trkpt>
      <trkpt lat="38.88149717" lon="-0.09881867">
        <ele>26.0</ele>
        <time>2018-06-10T07:54:46.038Z</time>
      </trkpt>
      <trkpt lat="38.88141767" lon="-0.09878533">
        <ele>26.0</ele>
        <time>2018-06-10T07:54:47.038Z</time>
      </trkpt>
      <trkpt lat="38.88133683" lon="-0.09874967">
        <ele>25.0</ele>
        <time>2018-06-10T07:54:48.038Z</time>
      </trkpt>
      <trkpt lat="38.881254" lon="-0.09871167">
        <ele>25.0</ele>
        <time>2018-06-10T07:54:49.038Z</time>
      </trkpt>
      <trkpt lat="38.88116833" lon="-0.09867133">
        <ele>24.0</ele>
        <time>2018-06-10T07:54:50.038Z</time>
      </trkpt>
      <trkpt lat="38.88107933" lon="-0.09863017">
        <ele>24.0</ele>
        <time>2018-06-10T07:54:51.038Z</time>
      </trkpt>
      <trkpt lat="38.88098817" lon="-0.09858783">
        <ele>23.0</ele>
        <time>2018-06-10T07:54:52.038Z</time>
      </trkpt>
      <trkpt lat="38.880896" lon="-0.09854417">
        <ele>22.0</ele>
        <time>2018-06-10T07:54:53.038Z</time>
      </trkpt>
      <trkpt lat="38.88080317" lon="-0.09849967">
        <ele>22.0</ele>
        <time>2018-06-10T07:54:54.038Z</time>
      </trkpt>
      <trkpt lat="38.88070917" lon="-0.09845417">
        <ele>21.0</ele>
        <time>2018-06-10T07:54:55.038Z</time>
      </trkpt>
      <trkpt lat="38.8806135" lon="-0.09840917">
        <ele>21.0</ele>
        <time>2018-06-10T07:54:56.038Z</time>
      </trkpt>
      <trkpt lat="38.88051683" lon="-0.09836383">
        <ele>20.0</ele>
        <time>2018-06-10T07:54:57.038Z</time>
      </trkpt>
      <trkpt lat="38.8804185" lon="-0.09831917">
        <ele>20.0</ele>
        <time>2018-06-10T07:54:58.038Z</time>
      </trkpt>
      <trkpt lat="38.88031917" lon="-0.09827367">
        <ele>19.0</ele>
        <time>2018-06-10T07:54:59.038Z</time>
      </trkpt>
      <trkpt lat="38.880218" lon="-0.09822767">
        <ele>18.0</ele>
        <time>2018-06-10T07:55:00.038Z</time>
      </trkpt>
      <trkpt lat="38.88011467" lon="-0.098179">
        <ele>18.0</ele>
        <time>2018-06-10T07:55:01.038Z</time>
      </trkpt>
      <trkpt lat="38.88000917" lon="-0.098129">
        <ele>17.0</ele>
        <time>2018-06-10T07:55:02.038Z</time>
      </trkpt>
      <trkpt lat="38.879901" lon="-0.09807767">
        <ele>16.0</ele>
        <time>2018-06-10T07:55:03.038Z</time>
      </trkpt>
      <trkpt lat="38.87979033" lon="-0.09802517">
        <ele>16.0</ele>
        <time>2018-06-10T07:55:04.038Z</time>
      </trkpt>
      <trkpt lat="38.87967683" lon="-0.09797133">
        <ele>15.0</ele>
        <time>2018-06-10T07:55:05.038Z</time>
      </trkpt>
      <trkpt lat="38.87956083" lon="-0.09791483">
        <ele>14.0</ele>
        <time>2018-06-10T07:55:06.038Z</time>
      </trkpt>
      <trkpt lat="38.87956083" lon="-0.09791483">
        <ele>14.0</ele>
        <time>2018-06-10T07:55:07.038Z</time>
      </trkpt>
      <trkpt lat="38.87944233" lon="-0.097857">
        <ele>13.0</ele>
        <time>2018-06-10T07:55:08.038Z</time>
      </trkpt>
      <trkpt lat="38.87919783" lon="-0.09773667">
        <ele>12.0</ele>
        <time>2018-06-10T07:55:09.038Z</time>
      </trkpt>
      <trkpt lat="38.87907267" lon="-0.09767683">
        <ele>11.0</ele>
        <time>2018-06-10T07:55:10.038Z</time>
      </trkpt>
      <trkpt lat="38.87894667" lon="-0.097617">
        <ele>11.0</ele>
        <time>2018-06-10T07:55:11.038Z</time>
      </trkpt>
      <trkpt lat="38.87882" lon="-0.09755667">
        <ele>10.0</ele>
        <time>2018-06-10T07:55:12.038Z</time>
      </trkpt>
      <trkpt lat="38.87869283" lon="-0.09749617">
        <ele>9.0</ele>
        <time>2018-06-10T07:55:13.038Z</time>
      </trkpt>
      <trkpt lat="38.87856517" lon="-0.09743617">
        <ele>9.0</ele>
        <time>2018-06-10T07:55:14.038Z</time>
      </trkpt>
      <trkpt lat="38.878437" lon="-0.09737633">
        <ele>8.0</ele>
        <time>2018-06-10T07:55:15.038Z</time>
      </trkpt>
      <trkpt lat="38.87830833" lon="-0.09731667">
        <ele>7.0</ele>
        <time>2018-06-10T07:55:16.038Z</time>
      </trkpt>
      <trkpt lat="38.87818" lon="-0.09725683">
        <ele>6.0</ele>
        <time>2018-06-10T07:55:17.038Z</time>
      </trkpt>
      <trkpt lat="38.8780525" lon="-0.09719633">
        <ele>6.0</ele>
        <time>2018-06-10T07:55:18.038Z</time>
      </trkpt>
      <trkpt lat="38.87792583" lon="-0.09713667">
        <ele>5.0</ele>
        <time>2018-06-10T07:55:19.038Z</time>
      </trkpt>
      <trkpt lat="38.8778" lon="-0.09707717">
        <ele>5.0</ele>
        <time>2018-06-10T07:55:20.038Z</time>
      </trkpt>
      <trkpt lat="38.87767517" lon="-0.09701817">
        <ele>5.0</ele>
        <time>2018-06-10T07:55:21.038Z</time>
      </trkpt>
      <trkpt lat="38.8775515" lon="-0.09695867">
        <ele>5.0</ele>
        <time>2018-06-10T07:55:22.038Z</time>
      </trkpt>
      <trkpt lat="38.8774295" lon="-0.0969">
        <ele>5.0</ele>
        <time>2018-06-10T07:55:23.038Z</time>
      </trkpt>
      <trkpt lat="38.87730883" lon="-0.0968425">
        <ele>5.0</ele>
        <time>2018-06-10T07:55:24.038Z</time>
      </trkpt>
      <trkpt lat="38.87718983" lon="-0.0967865">
        <ele>4.0</ele>
        <time>2018-06-10T07:55:25.038Z</time>
      </trkpt>
      <trkpt lat="38.8770725" lon="-0.0967315">
        <ele>4.0</ele>
        <time>2018-06-10T07:55:26.038Z</time>
      </trkpt>
      <trkpt lat="38.87695567" lon="-0.09667933">
        <ele>4.0</ele>
        <time>2018-06-10T07:55:27.038Z</time>
      </trkpt>
      <trkpt lat="38.87683867" lon="-0.09663033">
        <ele>5.0</ele>
        <time>2018-06-10T07:55:28.038Z</time>
      </trkpt>
      <trkpt lat="38.87672167" lon="-0.09658533">
        <ele>5.0</ele>
        <time>2018-06-10T07:55:29.038Z</time>
      </trkpt>
      <trkpt lat="38.87660417" lon="-0.09654333">
        <ele>5.0</ele>
        <time>2018-06-10T07:55:30.038Z</time>
      </trkpt>
      <trkpt lat="38.87648683" lon="-0.09650583">
        <ele>5.0</ele>
        <time>2018-06-10T07:55:31.038Z</time>
      </trkpt>
      <trkpt lat="38.87636917" lon="-0.09647233">
        <ele>5.0</ele>
        <time>2018-06-10T07:55:32.038Z</time>
      </trkpt>
      <trkpt lat="38.876252" lon="-0.09644133">
        <ele>5.0</ele>
        <time>2018-06-10T07:55:33.038Z</time>
      </trkpt>
      <trkpt lat="38.876135" lon="-0.09641267">
        <ele>5.0</ele>
        <time>2018-06-10T07:55:34.038Z</time>
      </trkpt>
      <trkpt lat="38.8760185" lon="-0.09638733">
        <ele>5.0</ele>
        <time>2018-06-10T07:55:35.038Z</time>
      </trkpt>
      <trkpt lat="38.875903" lon="-0.09636767">
        <ele>5.0</ele>
        <time>2018-06-10T07:55:36.038Z</time>
      </trkpt>
      <trkpt lat="38.87578917" lon="-0.09635317">
        <ele>4.0</ele>
        <time>2018-06-10T07:55:37.038Z</time>
      </trkpt>
      <trkpt lat="38.87567617" lon="-0.09634233">
        <ele>5.0</ele>
        <time>2018-06-10T07:55:38.038Z</time>
      </trkpt>
      <trkpt lat="38.87556333" lon="-0.09633483">
        <ele>5.0</ele>
        <time>2018-06-10T07:55:39.038Z</time>
      </trkpt>
      <trkpt lat="38.87545117" lon="-0.096331">
        <ele>5.0</ele>
        <time>2018-06-10T07:55:40.038Z</time>
      </trkpt>
      <trkpt lat="38.87533933" lon="-0.09633167">
        <ele>5.0</ele>
        <time>2018-06-10T07:55:41.038Z</time>
      </trkpt>
      <trkpt lat="38.87522817" lon="-0.09633717">
        <ele>5.0</ele>
        <time>2018-06-10T07:55:42.038Z</time>
      </trkpt>
      <trkpt lat="38.87511717" lon="-0.09634717">
        <ele>5.0</ele>
        <time>2018-06-10T07:55:43.038Z</time>
      </trkpt>
      <trkpt lat="38.87500617" lon="-0.096361">
        <ele>5.0</ele>
        <time>2018-06-10T07:55:44.038Z</time>
      </trkpt>
      <trkpt lat="38.87489483" lon="-0.09637767">
        <ele>5.0</ele>
        <time>2018-06-10T07:55:45.038Z</time>
      </trkpt>
      <trkpt lat="38.87478383" lon="-0.09639617">
        <ele>5.0</ele>
        <time>2018-06-10T07:55:46.038Z</time>
      </trkpt>
      <trkpt lat="38.87467383" lon="-0.0964165">
        <ele>5.0</ele>
        <time>2018-06-10T07:55:47.038Z</time>
      </trkpt>
      <trkpt lat="38.874565" lon="-0.09643917">
        <ele>5.0</ele>
        <time>2018-06-10T07:55:48.038Z</time>
      </trkpt>
      <trkpt lat="38.87445717" lon="-0.09646383">
        <ele>5.0</ele>
        <time>2018-06-10T07:55:49.038Z</time>
      </trkpt>
      <trkpt lat="38.87435117" lon="-0.09649183">
        <ele>6.0</ele>
        <time>2018-06-10T07:55:50.038Z</time>
      </trkpt>
      <trkpt lat="38.874248" lon="-0.0965235">
        <ele>6.0</ele>
        <time>2018-06-10T07:55:51.038Z</time>
      </trkpt>
      <trkpt lat="38.87414783" lon="-0.09655833">
        <ele>6.0</ele>
        <time>2018-06-10T07:55:52.038Z</time>
      </trkpt>
      <trkpt lat="38.874051" lon="-0.09659583">
        <ele>6.0</ele>
        <time>2018-06-10T07:55:53.038Z</time>
      </trkpt>
      <trkpt lat="38.8739575" lon="-0.096636">
        <ele>6.0</ele>
        <time>2018-06-10T07:55:54.038Z</time>
      </trkpt>
      <trkpt lat="38.873867" lon="-0.09667817">
        <ele>6.0</ele>
        <time>2018-06-10T07:55:55.038Z</time>
      </trkpt>
      <trkpt lat="38.8737785" lon="-0.096723">
        <ele>6.0</ele>
        <time>2018-06-10T07:55:56.038Z</time>
      </trkpt>
      <trkpt lat="38.8736915" lon="-0.09676867">
        <ele>6.0</ele>
        <time>2018-06-10T07:55:57.038Z</time>
      </trkpt>
      <trkpt lat="38.87360683" lon="-0.09681567">
        <ele>6.0</ele>
        <time>2018-06-10T07:55:58.038Z</time>
      </trkpt>
      <trkpt lat="38.87352433" lon="-0.09686317">
        <ele>6.0</ele>
        <time>2018-06-10T07:55:59.038Z</time>
      </trkpt>
      <trkpt lat="38.87344333" lon="-0.09691183">
        <ele>7.0</ele>
        <time>2018-06-10T07:56:00.038Z</time>
      </trkpt>
      <trkpt lat="38.87336367" lon="-0.09696167">
        <ele>7.0</ele>
        <time>2018-06-10T07:56:01.038Z</time>
      </trkpt>
      <trkpt lat="38.87328517" lon="-0.097012">
        <ele>7.0</ele>
        <time>2018-06-10T07:56:02.038Z</time>
      </trkpt>
      <trkpt lat="38.873208" lon="-0.09706317">
        <ele>7.0</ele>
        <time>2018-06-10T07:56:03.038Z</time>
      </trkpt>
      <trkpt lat="38.873208" lon="-0.09706317">
        <ele>7.0</ele>
        <time>2018-06-10T07:56:04.038Z</time>
      </trkpt>
      <trkpt lat="38.8731325" lon="-0.09711467">
        <ele>7.0</ele>
        <time>2018-06-10T07:56:05.038Z</time>
      </trkpt>
      <trkpt lat="38.87305867" lon="-0.09716667">
        <ele>8.0</ele>
        <time>2018-06-10T07:56:06.038Z</time>
      </trkpt>
      <trkpt lat="38.87298667" lon="-0.09721883">
        <ele>8.0</ele>
        <time>2018-06-10T07:56:07.038Z</time>
      </trkpt>
      <trkpt lat="38.87291583" lon="-0.0972705">
        <ele>8.0</ele>
        <time>2018-06-10T07:56:08.038Z</time>
      </trkpt>
      <trkpt lat="38.87277783" lon="-0.09737367">
        <ele>8.0</ele>
        <time>2018-06-10T07:56:09.038Z</time>
      </trkpt>
      <trkpt lat="38.87271" lon="-0.097425">
        <ele>8.0</ele>
        <time>2018-06-10T07:56:10.038Z</time>
      </trkpt>
      <trkpt lat="38.87271" lon="-0.097425">
        <ele>8.0</ele>
        <time>2018-06-10T07:56:11.038Z</time>
      </trkpt>
      <trkpt lat="38.87264233" lon="-0.09747517">
        <ele>9.0</ele>
        <time>2018-06-10T07:56:12.038Z</time>
      </trkpt>
      <trkpt lat="38.87250733" lon="-0.0975745">
        <ele>9.0</ele>
        <time>2018-06-10T07:56:13.038Z</time>
      </trkpt>
      <trkpt lat="38.87250733" lon="-0.0975745">
        <ele>9.0</ele>
        <time>2018-06-10T07:56:14.038Z</time>
      </trkpt>
      <trkpt lat="38.87244017" lon="-0.09762483">
        <ele>9.0</ele>
        <time>2018-06-10T07:56:15.038Z</time>
      </trkpt>
      <trkpt lat="38.872373" lon="-0.0976755">
        <ele>9.0</ele>
        <time>2018-06-10T07:56:16.038Z</time>
      </trkpt>
      <trkpt lat="38.87230617" lon="-0.09772583">
        <ele>9.0</ele>
        <time>2018-06-10T07:56:17.038Z</time>
      </trkpt>
      <trkpt lat="38.87223967" lon="-0.09777583">
        <ele>9.0</ele>
        <time>2018-06-10T07:56:18.038Z</time>
      </trkpt>
      <trkpt lat="38.8721735" lon="-0.09782483">
        <ele>9.0</ele>
        <time>2018-06-10T07:56:19.038Z</time>
      </trkpt>
      <trkpt lat="38.87204267" lon="-0.09792217">
        <ele>9.0</ele>
        <time>2018-06-10T07:56:20.038Z</time>
      </trkpt>
      <trkpt lat="38.87197783" lon="-0.09797117">
        <ele>10.0</ele>
        <time>2018-06-10T07:56:21.038Z</time>
      </trkpt>
      <trkpt lat="38.87197783" lon="-0.09797117">
        <ele>10.0</ele>
        <time>2018-06-10T07:56:22.038Z</time>
      </trkpt>
      <trkpt lat="38.871913" lon="-0.09802017">
        <ele>10.0</ele>
        <time>2018-06-10T07:56:23.038Z</time>
      </trkpt>
      <trkpt lat="38.871848" lon="-0.09806917">
        <ele>10.0</ele>
        <time>2018-06-10T07:56:24.038Z</time>
      </trkpt>
      <trkpt lat="38.87171767" lon="-0.09816633">
        <ele>10.0</ele>
        <time>2018-06-10T07:56:25.038Z</time>
      </trkpt>
      <trkpt lat="38.871653" lon="-0.09821517">
        <ele>10.0</ele>
        <time>2018-06-10T07:56:26.038Z</time>
      </trkpt>
      <trkpt lat="38.87158817" lon="-0.09826417">
        <ele>10.0</ele>
        <time>2018-06-10T07:56:27.038Z</time>
      </trkpt>
      <trkpt lat="38.87152217" lon="-0.098314">
        <ele>10.0</ele>
        <time>2018-06-10T07:56:28.038Z</time>
      </trkpt>
      <trkpt lat="38.87145483" lon="-0.09836417">
        <ele>10.0</ele>
        <time>2018-06-10T07:56:29.038Z</time>
      </trkpt>
      <trkpt lat="38.8713875" lon="-0.09841483">
        <ele>10.0</ele>
        <time>2018-06-10T07:56:30.038Z</time>
      </trkpt>
      <trkpt lat="38.8713205" lon="-0.09846517">
        <ele>11.0</ele>
        <time>2018-06-10T07:56:31.038Z</time>
      </trkpt>
      <trkpt lat="38.87125417" lon="-0.098516">
        <ele>11.0</ele>
        <time>2018-06-10T07:56:32.038Z</time>
      </trkpt>
      <trkpt lat="38.87118783" lon="-0.09856667">
        <ele>11.0</ele>
        <time>2018-06-10T07:56:33.038Z</time>
      </trkpt>
      <trkpt lat="38.87112117" lon="-0.0986175">
        <ele>11.0</ele>
        <time>2018-06-10T07:56:34.038Z</time>
      </trkpt>
      <trkpt lat="38.87112117" lon="-0.0986175">
        <ele>11.0</ele>
        <time>2018-06-10T07:56:35.038Z</time>
      </trkpt>
      <trkpt lat="38.8709875" lon="-0.09871783">
        <ele>11.0</ele>
        <time>2018-06-10T07:56:36.038Z</time>
      </trkpt>
      <trkpt lat="38.87092083" lon="-0.09876767">
        <ele>11.0</ele>
        <time>2018-06-10T07:56:37.038Z</time>
      </trkpt>
      <trkpt lat="38.87085433" lon="-0.09881767">
        <ele>11.0</ele>
        <time>2018-06-10T07:56:38.038Z</time>
      </trkpt>
      <trkpt lat="38.87078733" lon="-0.09886783">
        <ele>11.0</ele>
        <time>2018-06-10T07:56:39.038Z</time>
      </trkpt>
      <trkpt lat="38.87072017" lon="-0.098918">
        <ele>11.0</ele>
        <time>2018-06-10T07:56:40.038Z</time>
      </trkpt>
      <trkpt lat="38.8706525" lon="-0.09896767">
        <ele>11.0</ele>
        <time>2018-06-10T07:56:41.038Z</time>
      </trkpt>
      <trkpt lat="38.87058483" lon="-0.09901733">
        <ele>11.0</ele>
        <time>2018-06-10T07:56:42.038Z</time>
      </trkpt>
      <trkpt lat="38.87051733" lon="-0.09906683">
        <ele>11.0</ele>
        <time>2018-06-10T07:56:43.038Z</time>
      </trkpt>
      <trkpt lat="38.87051733" lon="-0.09906683">
        <ele>11.0</ele>
        <time>2018-06-10T07:56:44.038Z</time>
      </trkpt>
      <trkpt lat="38.870383" lon="-0.09916667">
        <ele>12.0</ele>
        <time>2018-06-10T07:56:45.038Z</time>
      </trkpt>
      <trkpt lat="38.87031567" lon="-0.09921683">
        <ele>12.0</ele>
        <time>2018-06-10T07:56:46.038Z</time>
      </trkpt>
      <trkpt lat="38.870248" lon="-0.099267">
        <ele>12.0</ele>
        <time>2018-06-10T07:56:47.038Z</time>
      </trkpt>
      <trkpt lat="38.87018017" lon="-0.09931717">
        <ele>12.0</ele>
        <time>2018-06-10T07:56:48.038Z</time>
      </trkpt>
      <trkpt lat="38.87011217" lon="-0.099368">
        <ele>12.0</ele>
        <time>2018-06-10T07:56:49.038Z</time>
      </trkpt>
      <trkpt lat="38.8700445" lon="-0.099419">
        <ele>12.0</ele>
        <time>2018-06-10T07:56:50.038Z</time>
      </trkpt>
      <trkpt lat="38.86997717" lon="-0.09947">
        <ele>12.0</ele>
        <time>2018-06-10T07:56:51.038Z</time>
      </trkpt>
      <trkpt lat="38.86991" lon="-0.09952033">
        <ele>13.0</ele>
        <time>2018-06-10T07:56:52.038Z</time>
      </trkpt>
      <trkpt lat="38.86984317" lon="-0.09957">
        <ele>13.0</ele>
        <time>2018-06-10T07:56:53.038Z</time>
      </trkpt>
      <trkpt lat="38.86977633" lon="-0.09961917">
        <ele>13.0</ele>
        <time>2018-06-10T07:56:54.038Z</time>
      </trkpt>
      <trkpt lat="38.86970983" lon="-0.099669">
        <ele>13.0</ele>
        <time>2018-06-10T07:56:55.038Z</time>
      </trkpt>
      <trkpt lat="38.8696435" lon="-0.09972">
        <ele>13.0</ele>
        <time>2018-06-10T07:56:56.038Z</time>
      </trkpt>
      <trkpt lat="38.86957683" lon="-0.09977083">
        <ele>13.0</ele>
        <time>2018-06-10T07:56:57.038Z</time>
      </trkpt>
      <trkpt lat="38.86951017" lon="-0.09982083">
        <ele>13.0</ele>
        <time>2018-06-10T07:56:58.038Z</time>
      </trkpt>
      <trkpt lat="38.86944367" lon="-0.0998705">
        <ele>14.0</ele>
        <time>2018-06-10T07:56:59.038Z</time>
      </trkpt>
      <trkpt lat="38.86937733" lon="-0.0999205">
        <ele>14.0</ele>
        <time>2018-06-10T07:57:00.038Z</time>
      </trkpt>
      <trkpt lat="38.869311" lon="-0.09997067">
        <ele>14.0</ele>
        <time>2018-06-10T07:57:01.038Z</time>
      </trkpt>
      <trkpt lat="38.86924483" lon="-0.10002083">
        <ele>14.0</ele>
        <time>2018-06-10T07:57:02.038Z</time>
      </trkpt>
      <trkpt lat="38.86917883" lon="-0.10007117">
        <ele>14.0</ele>
        <time>2018-06-10T07:57:03.038Z</time>
      </trkpt>
      <trkpt lat="38.869113" lon="-0.1001215">
        <ele>14.0</ele>
        <time>2018-06-10T07:57:04.038Z</time>
      </trkpt>
      <trkpt lat="38.86904683" lon="-0.100171">
        <ele>15.0</ele>
        <time>2018-06-10T07:57:05.038Z</time>
      </trkpt>
      <trkpt lat="38.86898083" lon="-0.10021983">
        <ele>15.0</ele>
        <time>2018-06-10T07:57:06.038Z</time>
      </trkpt>
      <trkpt lat="38.86898083" lon="-0.10021983">
        <ele>15.0</ele>
        <time>2018-06-10T07:57:07.038Z</time>
      </trkpt>
      <trkpt lat="38.86891517" lon="-0.1002685">
        <ele>15.0</ele>
        <time>2018-06-10T07:57:08.038Z</time>
      </trkpt>
      <trkpt lat="38.86878383" lon="-0.100367">
        <ele>15.0</ele>
        <time>2018-06-10T07:57:09.038Z</time>
      </trkpt>
      <trkpt lat="38.86871783" lon="-0.1004165">
        <ele>15.0</ele>
        <time>2018-06-10T07:57:10.038Z</time>
      </trkpt>
      <trkpt lat="38.86865133" lon="-0.10046517">
        <ele>16.0</ele>
        <time>2018-06-10T07:57:11.038Z</time>
      </trkpt>
      <trkpt lat="38.86858533" lon="-0.10051383">
        <ele>16.0</ele>
        <time>2018-06-10T07:57:12.038Z</time>
      </trkpt>
      <trkpt lat="38.86851983" lon="-0.10056217">
        <ele>16.0</ele>
        <time>2018-06-10T07:57:13.038Z</time>
      </trkpt>
      <trkpt lat="38.86845433" lon="-0.1006105">
        <ele>16.0</ele>
        <time>2018-06-10T07:57:14.038Z</time>
      </trkpt>
      <trkpt lat="38.86838917" lon="-0.100658">
        <ele>16.0</ele>
        <time>2018-06-10T07:57:15.038Z</time>
      </trkpt>
      <trkpt lat="38.86832467" lon="-0.1007045">
        <ele>17.0</ele>
        <time>2018-06-10T07:57:16.038Z</time>
      </trkpt>
      <trkpt lat="38.8682615" lon="-0.1007495">
        <ele>17.0</ele>
        <time>2018-06-10T07:57:17.038Z</time>
      </trkpt>
      <trkpt lat="38.86819833" lon="-0.100792">
        <ele>17.0</ele>
        <time>2018-06-10T07:57:18.038Z</time>
      </trkpt>
      <trkpt lat="38.86813367" lon="-0.10083033">
        <ele>17.0</ele>
        <time>2018-06-10T07:57:19.038Z</time>
      </trkpt>
      <trkpt lat="38.86806717" lon="-0.10086417">
        <ele>17.0</ele>
        <time>2018-06-10T07:57:20.038Z</time>
      </trkpt>
      <trkpt lat="38.86799883" lon="-0.10089317">
        <ele>17.0</ele>
        <time>2018-06-10T07:57:21.038Z</time>
      </trkpt>
      <trkpt lat="38.86792883" lon="-0.10091683">
        <ele>18.0</ele>
        <time>2018-06-10T07:57:22.038Z</time>
      </trkpt>
      <trkpt lat="38.867857" lon="-0.100935">
        <ele>18.0</ele>
        <time>2018-06-10T07:57:23.038Z</time>
      </trkpt>
      <trkpt lat="38.86778333" lon="-0.10094883">
        <ele>18.0</ele>
        <time>2018-06-10T07:57:24.038Z</time>
      </trkpt>
      <trkpt lat="38.86770867" lon="-0.10095867">
        <ele>18.0</ele>
        <time>2018-06-10T07:57:25.038Z</time>
      </trkpt>
      <trkpt lat="38.8676335" lon="-0.10096567">
        <ele>18.0</ele>
        <time>2018-06-10T07:57:26.038Z</time>
      </trkpt>
      <trkpt lat="38.8675575" lon="-0.10097033">
        <ele>18.0</ele>
        <time>2018-06-10T07:57:27.038Z</time>
      </trkpt>
      <trkpt lat="38.86748017" lon="-0.10097467">
        <ele>18.0</ele>
        <time>2018-06-10T07:57:28.038Z</time>
      </trkpt>
      <trkpt lat="38.8674015" lon="-0.10097933">
        <ele>19.0</ele>
        <time>2018-06-10T07:57:29.038Z</time>
      </trkpt>
      <trkpt lat="38.86732183" lon="-0.100985">
        <ele>19.0</ele>
        <time>2018-06-10T07:57:30.038Z</time>
      </trkpt>
      <trkpt lat="38.86724183" lon="-0.10099117">
        <ele>19.0</ele>
        <time>2018-06-10T07:57:31.038Z</time>
      </trkpt>
      <trkpt lat="38.867162" lon="-0.10099633">
        <ele>19.0</ele>
        <time>2018-06-10T07:57:32.038Z</time>
      </trkpt>
      <trkpt lat="38.867083" lon="-0.101001">
        <ele>19.0</ele>
        <time>2018-06-10T07:57:33.038Z</time>
      </trkpt>
      <trkpt lat="38.86700483" lon="-0.10100533">
        <ele>19.0</ele>
        <time>2018-06-10T07:57:34.038Z</time>
      </trkpt>
      <trkpt lat="38.86692733" lon="-0.10101">
        <ele>20.0</ele>
        <time>2018-06-10T07:57:35.038Z</time>
      </trkpt>
      <trkpt lat="38.86684983" lon="-0.10101517">
        <ele>20.0</ele>
        <time>2018-06-10T07:57:36.038Z</time>
      </trkpt>
      <trkpt lat="38.86677183" lon="-0.10102183">
        <ele>20.0</ele>
        <time>2018-06-10T07:57:37.038Z</time>
      </trkpt>
      <trkpt lat="38.86669267" lon="-0.10102967">
        <ele>20.0</ele>
        <time>2018-06-10T07:57:38.038Z</time>
      </trkpt>
      <trkpt lat="38.866612" lon="-0.101038">
        <ele>20.0</ele>
        <time>2018-06-10T07:57:39.038Z</time>
      </trkpt>
      <trkpt lat="38.86653017" lon="-0.10104483">
        <ele>20.0</ele>
        <time>2018-06-10T07:57:40.038Z</time>
      </trkpt>
      <trkpt lat="38.8664475" lon="-0.10105083">
        <ele>20.0</ele>
        <time>2018-06-10T07:57:41.038Z</time>
      </trkpt>
      <trkpt lat="38.86636433" lon="-0.10105633">
        <ele>20.0</ele>
        <time>2018-06-10T07:57:42.038Z</time>
      </trkpt>
      <trkpt lat="38.8662805" lon="-0.10106233">
        <ele>20.0</ele>
        <time>2018-06-10T07:57:43.038Z</time>
      </trkpt>
      <trkpt lat="38.86619617" lon="-0.10106867">
        <ele>20.0</ele>
        <time>2018-06-10T07:57:44.038Z</time>
      </trkpt>
      <trkpt lat="38.86611117" lon="-0.10107533">
        <ele>20.0</ele>
        <time>2018-06-10T07:57:45.038Z</time>
      </trkpt>
      <trkpt lat="38.86602617" lon="-0.101082">
        <ele>20.0</ele>
        <time>2018-06-10T07:57:46.038Z</time>
      </trkpt>
      <trkpt lat="38.8659415" lon="-0.10108867">
        <ele>20.0</ele>
        <time>2018-06-10T07:57:47.038Z</time>
      </trkpt>
      <trkpt lat="38.86585783" lon="-0.1010955">
        <ele>20.0</ele>
        <time>2018-06-10T07:57:48.038Z</time>
      </trkpt>
      <trkpt lat="38.86577517" lon="-0.10110133">
        <ele>20.0</ele>
        <time>2018-06-10T07:57:49.038Z</time>
      </trkpt>
      <trkpt lat="38.86569283" lon="-0.10110617">
        <ele>20.0</ele>
        <time>2018-06-10T07:57:50.038Z</time>
      </trkpt>
      <trkpt lat="38.86560983" lon="-0.101111">
        <ele>20.0</ele>
        <time>2018-06-10T07:57:51.038Z</time>
      </trkpt>
      <trkpt lat="38.86552617" lon="-0.10111767">
        <ele>20.0</ele>
        <time>2018-06-10T07:57:52.038Z</time>
      </trkpt>
      <trkpt lat="38.86544167" lon="-0.10112533">
        <ele>20.0</ele>
        <time>2018-06-10T07:57:53.038Z</time>
      </trkpt>
      <trkpt lat="38.86535717" lon="-0.10113317">
        <ele>20.0</ele>
        <time>2018-06-10T07:57:54.038Z</time>
      </trkpt>
      <trkpt lat="38.8652725" lon="-0.1011415">
        <ele>20.0</ele>
        <time>2018-06-10T07:57:55.038Z</time>
      </trkpt>
      <trkpt lat="38.86518783" lon="-0.10115033">
        <ele>20.0</ele>
        <time>2018-06-10T07:57:56.038Z</time>
      </trkpt>
      <trkpt lat="38.8651035" lon="-0.10116033">
        <ele>20.0</ele>
        <time>2018-06-10T07:57:57.038Z</time>
      </trkpt>
      <trkpt lat="38.86502033" lon="-0.10117283">
        <ele>20.0</ele>
        <time>2018-06-10T07:57:58.038Z</time>
      </trkpt>
      <trkpt lat="38.8649385" lon="-0.10119033">
        <ele>20.0</ele>
        <time>2018-06-10T07:57:59.038Z</time>
      </trkpt>
      <trkpt lat="38.86485883" lon="-0.1012155">
        <ele>20.0</ele>
        <time>2018-06-10T07:58:00.038Z</time>
      </trkpt>
      <trkpt lat="38.864782" lon="-0.101249">
        <ele>21.0</ele>
        <time>2018-06-10T07:58:01.038Z</time>
      </trkpt>
      <trkpt lat="38.8647085" lon="-0.10129083">
        <ele>21.0</ele>
        <time>2018-06-10T07:58:02.038Z</time>
      </trkpt>
      <trkpt lat="38.86463833" lon="-0.1013385">
        <ele>21.0</ele>
        <time>2018-06-10T07:58:03.038Z</time>
      </trkpt>
      <trkpt lat="38.8645705" lon="-0.1013895">
        <ele>21.0</ele>
        <time>2018-06-10T07:58:04.038Z</time>
      </trkpt>
      <trkpt lat="38.864504" lon="-0.1014415">
        <ele>21.0</ele>
        <time>2018-06-10T07:58:05.038Z</time>
      </trkpt>
      <trkpt lat="38.864438" lon="-0.10149333">
        <ele>21.0</ele>
        <time>2018-06-10T07:58:06.038Z</time>
      </trkpt>
      <trkpt lat="38.8643715" lon="-0.10154517">
        <ele>21.0</ele>
        <time>2018-06-10T07:58:07.038Z</time>
      </trkpt>
      <trkpt lat="38.864304" lon="-0.10159733">
        <ele>21.0</ele>
        <time>2018-06-10T07:58:08.038Z</time>
      </trkpt>
      <trkpt lat="38.86423533" lon="-0.1016505">
        <ele>21.0</ele>
        <time>2018-06-10T07:58:09.038Z</time>
      </trkpt>
      <trkpt lat="38.86416483" lon="-0.101705">
        <ele>21.0</ele>
        <time>2018-06-10T07:58:10.038Z</time>
      </trkpt>
      <trkpt lat="38.86409383" lon="-0.101761">
        <ele>21.0</ele>
        <time>2018-06-10T07:58:11.038Z</time>
      </trkpt>
      <trkpt lat="38.86402217" lon="-0.1018175">
        <ele>21.0</ele>
        <time>2018-06-10T07:58:12.038Z</time>
      </trkpt>
      <trkpt lat="38.86395" lon="-0.10187333">
        <ele>21.0</ele>
        <time>2018-06-10T07:58:13.038Z</time>
      </trkpt>
      <trkpt lat="38.86387683" lon="-0.10192883">
        <ele>20.0</ele>
        <time>2018-06-10T07:58:14.038Z</time>
      </trkpt>
      <trkpt lat="38.86380283" lon="-0.10198467">
        <ele>20.0</ele>
        <time>2018-06-10T07:58:15.038Z</time>
      </trkpt>
      <trkpt lat="38.8637285" lon="-0.10204267">
        <ele>20.0</ele>
        <time>2018-06-10T07:58:16.038Z</time>
      </trkpt>
      <trkpt lat="38.86365367" lon="-0.10210183">
        <ele>20.0</ele>
        <time>2018-06-10T07:58:17.038Z</time>
      </trkpt>
      <trkpt lat="38.86357783" lon="-0.10216167">
        <ele>20.0</ele>
        <time>2018-06-10T07:58:18.038Z</time>
      </trkpt>
      <trkpt lat="38.86350133" lon="-0.10222233">
        <ele>20.0</ele>
        <time>2018-06-10T07:58:19.038Z</time>
      </trkpt>
      <trkpt lat="38.86342367" lon="-0.10228367">
        <ele>20.0</ele>
        <time>2018-06-10T07:58:20.038Z</time>
      </trkpt>
      <trkpt lat="38.86334567" lon="-0.102346">
        <ele>20.0</ele>
        <time>2018-06-10T07:58:21.038Z</time>
      </trkpt>
      <trkpt lat="38.86326733" lon="-0.102409">
        <ele>20.0</ele>
        <time>2018-06-10T07:58:22.038Z</time>
      </trkpt>
      <trkpt lat="38.8631895" lon="-0.102472">
        <ele>20.0</ele>
        <time>2018-06-10T07:58:23.038Z</time>
      </trkpt>
      <trkpt lat="38.86311183" lon="-0.1025345">
        <ele>20.0</ele>
        <time>2018-06-10T07:58:24.038Z</time>
      </trkpt>
      <trkpt lat="38.863034" lon="-0.102596">
        <ele>20.0</ele>
        <time>2018-06-10T07:58:25.038Z</time>
      </trkpt>
      <trkpt lat="38.86295617" lon="-0.10265733">
        <ele>19.0</ele>
        <time>2018-06-10T07:58:26.038Z</time>
      </trkpt>
      <trkpt lat="38.86287817" lon="-0.10271867">
        <ele>20.0</ele>
        <time>2018-06-10T07:58:27.038Z</time>
      </trkpt>
      <trkpt lat="38.86287817" lon="-0.10271867">
        <ele>20.0</ele>
        <time>2018-06-10T07:58:28.038Z</time>
      </trkpt>
      <trkpt lat="38.86272233" lon="-0.10284233">
        <ele>20.0</ele>
        <time>2018-06-10T07:58:29.038Z</time>
      </trkpt>
      <trkpt lat="38.86264433" lon="-0.10290417">
        <ele>20.0</ele>
        <time>2018-06-10T07:58:30.038Z</time>
      </trkpt>
      <trkpt lat="38.8625665" lon="-0.10296583">
        <ele>20.0</ele>
        <time>2018-06-10T07:58:31.038Z</time>
      </trkpt>
      <trkpt lat="38.8625665" lon="-0.10296583">
        <ele>20.0</ele>
        <time>2018-06-10T07:58:32.038Z</time>
      </trkpt>
      <trkpt lat="38.86248867" lon="-0.10302717">
        <ele>20.0</ele>
        <time>2018-06-10T07:58:33.038Z</time>
      </trkpt>
      <trkpt lat="38.86233333" lon="-0.10314933">
        <ele>20.0</ele>
        <time>2018-06-10T07:58:34.038Z</time>
      </trkpt>
      <trkpt lat="38.862255" lon="-0.1032105">
        <ele>20.0</ele>
        <time>2018-06-10T07:58:35.038Z</time>
      </trkpt>
      <trkpt lat="38.86217633" lon="-0.103272">
        <ele>21.0</ele>
        <time>2018-06-10T07:58:36.038Z</time>
      </trkpt>
      <trkpt lat="38.86209717" lon="-0.1033345">
        <ele>21.0</ele>
        <time>2018-06-10T07:58:37.038Z</time>
      </trkpt>
      <trkpt lat="38.86201767" lon="-0.103397">
        <ele>21.0</ele>
        <time>2018-06-10T07:58:38.038Z</time>
      </trkpt>
      <trkpt lat="38.86193867" lon="-0.10345917">
        <ele>21.0</ele>
        <time>2018-06-10T07:58:39.038Z</time>
      </trkpt>
      <trkpt lat="38.86193867" lon="-0.10345917">
        <ele>21.0</ele>
        <time>2018-06-10T07:58:40.038Z</time>
      </trkpt>
      <trkpt lat="38.8617825" lon="-0.10358233">
        <ele>21.0</ele>
        <time>2018-06-10T07:58:41.038Z</time>
      </trkpt>
      <trkpt lat="38.8617045" lon="-0.103643">
        <ele>21.0</ele>
        <time>2018-06-10T07:58:42.038Z</time>
      </trkpt>
      <trkpt lat="38.86162717" lon="-0.10370333">
        <ele>21.0</ele>
        <time>2018-06-10T07:58:43.038Z</time>
      </trkpt>
      <trkpt lat="38.86162717" lon="-0.10370333">
        <ele>21.0</ele>
        <time>2018-06-10T07:58:44.038Z</time>
      </trkpt>
      <trkpt lat="38.861476" lon="-0.10382483">
        <ele>21.0</ele>
        <time>2018-06-10T07:58:45.038Z</time>
      </trkpt>
      <trkpt lat="38.861401" lon="-0.10388533">
        <ele>21.0</ele>
        <time>2018-06-10T07:58:46.038Z</time>
      </trkpt>
      <trkpt lat="38.86132567" lon="-0.10394517">
        <ele>22.0</ele>
        <time>2018-06-10T07:58:47.038Z</time>
      </trkpt>
      <trkpt lat="38.8612505" lon="-0.104005">
        <ele>22.0</ele>
        <time>2018-06-10T07:58:48.038Z</time>
      </trkpt>
      <trkpt lat="38.8611755" lon="-0.1040645">
        <ele>22.0</ele>
        <time>2018-06-10T07:58:49.038Z</time>
      </trkpt>
      <trkpt lat="38.861101" lon="-0.104124">
        <ele>22.0</ele>
        <time>2018-06-10T07:58:50.038Z</time>
      </trkpt>
      <trkpt lat="38.86102633" lon="-0.10418333">
        <ele>22.0</ele>
        <time>2018-06-10T07:58:51.038Z</time>
      </trkpt>
      <trkpt lat="38.86095133" lon="-0.104242">
        <ele>22.0</ele>
        <time>2018-06-10T07:58:52.038Z</time>
      </trkpt>
      <trkpt lat="38.86087617" lon="-0.1043">
        <ele>22.0</ele>
        <time>2018-06-10T07:58:53.038Z</time>
      </trkpt>
      <trkpt lat="38.860801" lon="-0.1043575">
        <ele>22.0</ele>
        <time>2018-06-10T07:58:54.038Z</time>
      </trkpt>
      <trkpt lat="38.86072667" lon="-0.1044155">
        <ele>22.0</ele>
        <time>2018-06-10T07:58:55.038Z</time>
      </trkpt>
      <trkpt lat="38.8606525" lon="-0.104474">
        <ele>22.0</ele>
        <time>2018-06-10T07:58:56.038Z</time>
      </trkpt>
      <trkpt lat="38.86057833" lon="-0.10453283">
        <ele>23.0</ele>
        <time>2018-06-10T07:58:57.038Z</time>
      </trkpt>
      <trkpt lat="38.86050383" lon="-0.10459133">
        <ele>23.0</ele>
        <time>2018-06-10T07:58:58.038Z</time>
      </trkpt>
      <trkpt lat="38.8604295" lon="-0.10464983">
        <ele>23.0</ele>
        <time>2018-06-10T07:58:59.038Z</time>
      </trkpt>
      <trkpt lat="38.86035517" lon="-0.10470817">
        <ele>23.0</ele>
        <time>2018-06-10T07:59:00.038Z</time>
      </trkpt>
      <trkpt lat="38.86028067" lon="-0.1047655">
        <ele>23.0</ele>
        <time>2018-06-10T07:59:01.038Z</time>
      </trkpt>
      <trkpt lat="38.860206" lon="-0.10482233">
        <ele>23.0</ele>
        <time>2018-06-10T07:59:02.038Z</time>
      </trkpt>
      <trkpt lat="38.86013217" lon="-0.10487967">
        <ele>23.0</ele>
        <time>2018-06-10T07:59:03.038Z</time>
      </trkpt>
      <trkpt lat="38.86005917" lon="-0.104938">
        <ele>23.0</ele>
        <time>2018-06-10T07:59:04.038Z</time>
      </trkpt>
      <trkpt lat="38.85998717" lon="-0.10499633">
        <ele>23.0</ele>
        <time>2018-06-10T07:59:05.038Z</time>
      </trkpt>
      <trkpt lat="38.85991517" lon="-0.1050535">
        <ele>24.0</ele>
        <time>2018-06-10T07:59:06.038Z</time>
      </trkpt>
      <trkpt lat="38.85984383" lon="-0.10511017">
        <ele>24.0</ele>
        <time>2018-06-10T07:59:07.038Z</time>
      </trkpt>
      <trkpt lat="38.85984383" lon="-0.10511017">
        <ele>24.0</ele>
        <time>2018-06-10T07:59:08.038Z</time>
      </trkpt>
      <trkpt lat="38.8597025" lon="-0.1052225">
        <ele>24.0</ele>
        <time>2018-06-10T07:59:09.038Z</time>
      </trkpt>
      <trkpt lat="38.85963233" lon="-0.105278">
        <ele>24.0</ele>
        <time>2018-06-10T07:59:10.038Z</time>
      </trkpt>
      <trkpt lat="38.85956217" lon="-0.10533267">
        <ele>24.0</ele>
        <time>2018-06-10T07:59:11.038Z</time>
      </trkpt>
      <trkpt lat="38.85949233" lon="-0.10538767">
        <ele>24.0</ele>
        <time>2018-06-10T07:59:12.038Z</time>
      </trkpt>
      <trkpt lat="38.85942267" lon="-0.105443">
        <ele>24.0</ele>
        <time>2018-06-10T07:59:13.038Z</time>
      </trkpt>
      <trkpt lat="38.85935317" lon="-0.1054985">
        <ele>24.0</ele>
        <time>2018-06-10T07:59:14.038Z</time>
      </trkpt>
      <trkpt lat="38.85928467" lon="-0.10555317">
        <ele>24.0</ele>
        <time>2018-06-10T07:59:15.038Z</time>
      </trkpt>
      <trkpt lat="38.85921767" lon="-0.1056065">
        <ele>24.0</ele>
        <time>2018-06-10T07:59:16.038Z</time>
      </trkpt>
      <trkpt lat="38.85915217" lon="-0.1056585">
        <ele>24.0</ele>
        <time>2018-06-10T07:59:17.038Z</time>
      </trkpt>
      <trkpt lat="38.85908783" lon="-0.10570933">
        <ele>24.0</ele>
        <time>2018-06-10T07:59:18.038Z</time>
      </trkpt>
      <trkpt lat="38.859024" lon="-0.10575917">
        <ele>24.0</ele>
        <time>2018-06-10T07:59:19.038Z</time>
      </trkpt>
      <trkpt lat="38.85896033" lon="-0.105808">
        <ele>24.0</ele>
        <time>2018-06-10T07:59:20.038Z</time>
      </trkpt>
      <trkpt lat="38.858897" lon="-0.105857">
        <ele>25.0</ele>
        <time>2018-06-10T07:59:21.038Z</time>
      </trkpt>
      <trkpt lat="38.8588345" lon="-0.10590683">
        <ele>25.0</ele>
        <time>2018-06-10T07:59:22.038Z</time>
      </trkpt>
      <trkpt lat="38.85877183" lon="-0.10595667">
        <ele>25.0</ele>
        <time>2018-06-10T07:59:23.038Z</time>
      </trkpt>
      <trkpt lat="38.85870933" lon="-0.10600567">
        <ele>25.0</ele>
        <time>2018-06-10T07:59:24.038Z</time>
      </trkpt>
      <trkpt lat="38.85864667" lon="-0.10605417">
        <ele>25.0</ele>
        <time>2018-06-10T07:59:25.038Z</time>
      </trkpt>
      <trkpt lat="38.85858383" lon="-0.10610283">
        <ele>25.0</ele>
        <time>2018-06-10T07:59:26.038Z</time>
      </trkpt>
      <trkpt lat="38.85852167" lon="-0.10615133">
        <ele>25.0</ele>
        <time>2018-06-10T07:59:27.038Z</time>
      </trkpt>
      <trkpt lat="38.85846033" lon="-0.10619933">
        <ele>25.0</ele>
        <time>2018-06-10T07:59:28.038Z</time>
      </trkpt>
      <trkpt lat="38.85839967" lon="-0.1062465">
        <ele>25.0</ele>
        <time>2018-06-10T07:59:29.038Z</time>
      </trkpt>
      <trkpt lat="38.85833983" lon="-0.1062935">
        <ele>25.0</ele>
        <time>2018-06-10T07:59:30.038Z</time>
      </trkpt>
      <trkpt lat="38.85828" lon="-0.10634083">
        <ele>25.0</ele>
        <time>2018-06-10T07:59:31.038Z</time>
      </trkpt>
      <trkpt lat="38.85822" lon="-0.1063885">
        <ele>25.0</ele>
        <time>2018-06-10T07:59:32.038Z</time>
      </trkpt>
      <trkpt lat="38.85815967" lon="-0.10643633">
        <ele>25.0</ele>
        <time>2018-06-10T07:59:33.038Z</time>
      </trkpt>
      <trkpt lat="38.8580985" lon="-0.10648383">
        <ele>25.0</ele>
        <time>2018-06-10T07:59:34.038Z</time>
      </trkpt>
      <trkpt lat="38.85803717" lon="-0.10653117">
        <ele>25.0</ele>
        <time>2018-06-10T07:59:35.038Z</time>
      </trkpt>
      <trkpt lat="38.85797567" lon="-0.10657867">
        <ele>25.0</ele>
        <time>2018-06-10T07:59:36.038Z</time>
      </trkpt>
      <trkpt lat="38.857914" lon="-0.10662667">
        <ele>25.0</ele>
        <time>2018-06-10T07:59:37.038Z</time>
      </trkpt>
      <trkpt lat="38.8578525" lon="-0.10667467">
        <ele>25.0</ele>
        <time>2018-06-10T07:59:38.038Z</time>
      </trkpt>
      <trkpt lat="38.85779117" lon="-0.10672233">
        <ele>26.0</ele>
        <time>2018-06-10T07:59:39.038Z</time>
      </trkpt>
      <trkpt lat="38.85773" lon="-0.10676933">
        <ele>26.0</ele>
        <time>2018-06-10T07:59:40.038Z</time>
      </trkpt>
      <trkpt lat="38.85766883" lon="-0.106816">
        <ele>26.0</ele>
        <time>2018-06-10T07:59:41.038Z</time>
      </trkpt>
      <trkpt lat="38.85760833" lon="-0.10686267">
        <ele>26.0</ele>
        <time>2018-06-10T07:59:42.038Z</time>
      </trkpt>
      <trkpt lat="38.85754817" lon="-0.10690917">
        <ele>26.0</ele>
        <time>2018-06-10T07:59:43.038Z</time>
      </trkpt>
      <trkpt lat="38.85754817" lon="-0.10690917">
        <ele>26.0</ele>
        <time>2018-06-10T07:59:44.038Z</time>
      </trkpt>
      <trkpt lat="38.857429" lon="-0.10700333">
        <ele>26.0</ele>
        <time>2018-06-10T07:59:45.038Z</time>
      </trkpt>
      <trkpt lat="38.85736917" lon="-0.1070505">
        <ele>26.0</ele>
        <time>2018-06-10T07:59:46.038Z</time>
      </trkpt>
      <trkpt lat="38.85730917" lon="-0.10709733">
        <ele>26.0</ele>
        <time>2018-06-10T07:59:47.038Z</time>
      </trkpt>
      <trkpt lat="38.857249" lon="-0.10714417">
        <ele>26.0</ele>
        <time>2018-06-10T07:59:48.038Z</time>
      </trkpt>
      <trkpt lat="38.85718867" lon="-0.10719167">
        <ele>26.0</ele>
        <time>2018-06-10T07:59:49.038Z</time>
      </trkpt>
      <trkpt lat="38.85712783" lon="-0.10723933">
        <ele>26.0</ele>
        <time>2018-06-10T07:59:50.038Z</time>
      </trkpt>
      <trkpt lat="38.85706667" lon="-0.10728683">
        <ele>26.0</ele>
        <time>2018-06-10T07:59:51.038Z</time>
      </trkpt>
      <trkpt lat="38.85700533" lon="-0.10733433">
        <ele>26.0</ele>
        <time>2018-06-10T07:59:52.038Z</time>
      </trkpt>
      <trkpt lat="38.85694433" lon="-0.10738183">
        <ele>26.0</ele>
        <time>2018-06-10T07:59:53.038Z</time>
      </trkpt>
      <trkpt lat="38.85688333" lon="-0.10742967">
        <ele>26.0</ele>
        <time>2018-06-10T07:59:54.038Z</time>
      </trkpt>
      <trkpt lat="38.8568225" lon="-0.10747767">
        <ele>26.0</ele>
        <time>2018-06-10T07:59:55.038Z</time>
      </trkpt>
      <trkpt lat="38.85676167" lon="-0.10752567">
        <ele>26.0</ele>
        <time>2018-06-10T07:59:56.038Z</time>
      </trkpt>
      <trkpt lat="38.85670067" lon="-0.10757367">
        <ele>26.0</ele>
        <time>2018-06-10T07:59:57.038Z</time>
      </trkpt>
      <trkpt lat="38.85663967" lon="-0.10762117">
        <ele>26.0</ele>
        <time>2018-06-10T07:59:58.038Z</time>
      </trkpt>
      <trkpt lat="38.8565785" lon="-0.1076685">
        <ele>26.0</ele>
        <time>2018-06-10T07:59:59.038Z</time>
      </trkpt>
      <trkpt lat="38.8565175" lon="-0.10771533">
        <ele>27.0</ele>
        <time>2018-06-10T08:00:00.038Z</time>
      </trkpt>
      <trkpt lat="38.85645683" lon="-0.10776233">
        <ele>27.0</ele>
        <time>2018-06-10T08:00:01.038Z</time>
      </trkpt>
      <trkpt lat="38.85639667" lon="-0.1078095">
        <ele>27.0</ele>
        <time>2018-06-10T08:00:02.038Z</time>
      </trkpt>
      <trkpt lat="38.85633617" lon="-0.10785683">
        <ele>27.0</ele>
        <time>2018-06-10T08:00:03.038Z</time>
      </trkpt>
      <trkpt lat="38.85627533" lon="-0.10790383">
        <ele>27.0</ele>
        <time>2018-06-10T08:00:04.038Z</time>
      </trkpt>
      <trkpt lat="38.85621417" lon="-0.1079505">
        <ele>27.0</ele>
        <time>2018-06-10T08:00:05.038Z</time>
      </trkpt>
      <trkpt lat="38.856153" lon="-0.107997">
        <ele>28.0</ele>
        <time>2018-06-10T08:00:06.038Z</time>
      </trkpt>
      <trkpt lat="38.85609167" lon="-0.108044">
        <ele>28.0</ele>
        <time>2018-06-10T08:00:07.038Z</time>
      </trkpt>
      <trkpt lat="38.85603" lon="-0.10809067">
        <ele>28.0</ele>
        <time>2018-06-10T08:00:08.038Z</time>
      </trkpt>
      <trkpt lat="38.85596767" lon="-0.1081375">
        <ele>28.0</ele>
        <time>2018-06-10T08:00:09.038Z</time>
      </trkpt>
      <trkpt lat="38.85590533" lon="-0.10818433">
        <ele>28.0</ele>
        <time>2018-06-10T08:00:10.038Z</time>
      </trkpt>
      <trkpt lat="38.855843" lon="-0.108232">
        <ele>28.0</ele>
        <time>2018-06-10T08:00:11.038Z</time>
      </trkpt>
      <trkpt lat="38.85578083" lon="-0.1082795">
        <ele>28.0</ele>
        <time>2018-06-10T08:00:12.038Z</time>
      </trkpt>
      <trkpt lat="38.85571883" lon="-0.10832717">
        <ele>28.0</ele>
        <time>2018-06-10T08:00:13.038Z</time>
      </trkpt>
      <trkpt lat="38.85565717" lon="-0.108375">
        <ele>28.0</ele>
        <time>2018-06-10T08:00:14.038Z</time>
      </trkpt>
      <trkpt lat="38.85559583" lon="-0.10842367">
        <ele>29.0</ele>
        <time>2018-06-10T08:00:15.038Z</time>
      </trkpt>
      <trkpt lat="38.85553467" lon="-0.10847233">
        <ele>29.0</ele>
        <time>2018-06-10T08:00:16.038Z</time>
      </trkpt>
      <trkpt lat="38.85547317" lon="-0.10852083">
        <ele>29.0</ele>
        <time>2018-06-10T08:00:17.038Z</time>
      </trkpt>
      <trkpt lat="38.85541167" lon="-0.10856867">
        <ele>29.0</ele>
        <time>2018-06-10T08:00:18.038Z</time>
      </trkpt>
      <trkpt lat="38.85535033" lon="-0.10861583">
        <ele>29.0</ele>
        <time>2018-06-10T08:00:19.038Z</time>
      </trkpt>
      <trkpt lat="38.8552905" lon="-0.10866433">
        <ele>29.0</ele>
        <time>2018-06-10T08:00:20.038Z</time>
      </trkpt>
      <trkpt lat="38.85523167" lon="-0.10871367">
        <ele>29.0</ele>
        <time>2018-06-10T08:00:21.038Z</time>
      </trkpt>
      <trkpt lat="38.855174" lon="-0.10876283">
        <ele>29.0</ele>
        <time>2018-06-10T08:00:22.038Z</time>
      </trkpt>
      <trkpt lat="38.8551165" lon="-0.10881017">
        <ele>29.0</ele>
        <time>2018-06-10T08:00:23.038Z</time>
      </trkpt>
      <trkpt lat="38.85505917" lon="-0.10885583">
        <ele>29.0</ele>
        <time>2018-06-10T08:00:24.038Z</time>
      </trkpt>
      <trkpt lat="38.85500267" lon="-0.10890083">
        <ele>29.0</ele>
        <time>2018-06-10T08:00:25.038Z</time>
      </trkpt>
      <trkpt lat="38.854947" lon="-0.10894483">
        <ele>29.0</ele>
        <time>2018-06-10T08:00:26.038Z</time>
      </trkpt>
      <trkpt lat="38.8548925" lon="-0.10898833">
        <ele>29.0</ele>
        <time>2018-06-10T08:00:27.038Z</time>
      </trkpt>
      <trkpt lat="38.85483883" lon="-0.10903133">
        <ele>29.0</ele>
        <time>2018-06-10T08:00:28.038Z</time>
      </trkpt>
      <trkpt lat="38.8547855" lon="-0.10907367">
        <ele>29.0</ele>
        <time>2018-06-10T08:00:29.038Z</time>
      </trkpt>
      <trkpt lat="38.85473267" lon="-0.10911533">
        <ele>29.0</ele>
        <time>2018-06-10T08:00:30.038Z</time>
      </trkpt>
      <trkpt lat="38.85468" lon="-0.1091565">
        <ele>29.0</ele>
        <time>2018-06-10T08:00:31.038Z</time>
      </trkpt>
      <trkpt lat="38.8546275" lon="-0.10919717">
        <ele>29.0</ele>
        <time>2018-06-10T08:00:32.038Z</time>
      </trkpt>
      <trkpt lat="38.8545745" lon="-0.10923783">
        <ele>29.0</ele>
        <time>2018-06-10T08:00:33.038Z</time>
      </trkpt>
      <trkpt lat="38.85452133" lon="-0.10927833">
        <ele>29.0</ele>
        <time>2018-06-10T08:00:34.038Z</time>
      </trkpt>
      <trkpt lat="38.854468" lon="-0.10931917">
        <ele>30.0</ele>
        <time>2018-06-10T08:00:35.038Z</time>
      </trkpt>
      <trkpt lat="38.85441583" lon="-0.10936017">
        <ele>30.0</ele>
        <time>2018-06-10T08:00:36.038Z</time>
      </trkpt>
      <trkpt lat="38.85436583" lon="-0.1094005">
        <ele>30.0</ele>
        <time>2018-06-10T08:00:37.038Z</time>
      </trkpt>
      <trkpt lat="38.85431683" lon="-0.10944017">
        <ele>30.0</ele>
        <time>2018-06-10T08:00:38.038Z</time>
      </trkpt>
      <trkpt lat="38.85426717" lon="-0.10948017">
        <ele>30.0</ele>
        <time>2018-06-10T08:00:39.038Z</time>
      </trkpt>
      <trkpt lat="38.85421567" lon="-0.10952083">
        <ele>30.0</ele>
        <time>2018-06-10T08:00:40.038Z</time>
      </trkpt>
      <trkpt lat="38.85416367" lon="-0.10956183">
        <ele>30.0</ele>
        <time>2018-06-10T08:00:41.038Z</time>
      </trkpt>
      <trkpt lat="38.85411133" lon="-0.10960267">
        <ele>30.0</ele>
        <time>2018-06-10T08:00:42.038Z</time>
      </trkpt>
      <trkpt lat="38.85405933" lon="-0.10964317">
        <ele>30.0</ele>
        <time>2018-06-10T08:00:43.038Z</time>
      </trkpt>
      <trkpt lat="38.85405933" lon="-0.10964317">
        <ele>30.0</ele>
        <time>2018-06-10T08:00:44.038Z</time>
      </trkpt>
      <trkpt lat="38.8539515" lon="-0.10972333">
        <ele>30.0</ele>
        <time>2018-06-10T08:00:45.038Z</time>
      </trkpt>
      <trkpt lat="38.853898" lon="-0.1097645">
        <ele>30.0</ele>
        <time>2018-06-10T08:00:46.038Z</time>
      </trkpt>
      <trkpt lat="38.85384683" lon="-0.10980667">
        <ele>30.0</ele>
        <time>2018-06-10T08:00:47.038Z</time>
      </trkpt>
      <trkpt lat="38.8537955" lon="-0.10984817">
        <ele>31.0</ele>
        <time>2018-06-10T08:00:48.038Z</time>
      </trkpt>
      <trkpt lat="38.85374383" lon="-0.1098895">
        <ele>31.0</ele>
        <time>2018-06-10T08:00:49.038Z</time>
      </trkpt>
      <trkpt lat="38.85369217" lon="-0.10993">
        <ele>31.0</ele>
        <time>2018-06-10T08:00:50.038Z</time>
      </trkpt>
      <trkpt lat="38.85364067" lon="-0.1099705">
        <ele>31.0</ele>
        <time>2018-06-10T08:00:51.038Z</time>
      </trkpt>
      <trkpt lat="38.85358933" lon="-0.11001083">
        <ele>31.0</ele>
        <time>2018-06-10T08:00:52.038Z</time>
      </trkpt>
      <trkpt lat="38.853538" lon="-0.1100505">
        <ele>31.0</ele>
        <time>2018-06-10T08:00:53.038Z</time>
      </trkpt>
      <trkpt lat="38.85348667" lon="-0.11009">
        <ele>31.0</ele>
        <time>2018-06-10T08:00:54.038Z</time>
      </trkpt>
      <trkpt lat="38.85343533" lon="-0.11012883">
        <ele>31.0</ele>
        <time>2018-06-10T08:00:55.038Z</time>
      </trkpt>
      <trkpt lat="38.85338417" lon="-0.11016817">
        <ele>31.0</ele>
        <time>2018-06-10T08:00:56.038Z</time>
      </trkpt>
      <trkpt lat="38.8533335" lon="-0.1102075">
        <ele>31.0</ele>
        <time>2018-06-10T08:00:57.038Z</time>
      </trkpt>
      <trkpt lat="38.853283" lon="-0.11024717">
        <ele>32.0</ele>
        <time>2018-06-10T08:00:58.038Z</time>
      </trkpt>
      <trkpt lat="38.8532325" lon="-0.11028717">
        <ele>32.0</ele>
        <time>2018-06-10T08:00:59.038Z</time>
      </trkpt>
      <trkpt lat="38.8531815" lon="-0.1103265">
        <ele>32.0</ele>
        <time>2018-06-10T08:01:00.038Z</time>
      </trkpt>
      <trkpt lat="38.85313033" lon="-0.11036617">
        <ele>32.0</ele>
        <time>2018-06-10T08:01:01.038Z</time>
      </trkpt>
      <trkpt lat="38.85307917" lon="-0.110406">
        <ele>32.0</ele>
        <time>2018-06-10T08:01:02.038Z</time>
      </trkpt>
      <trkpt lat="38.8530285" lon="-0.110446">
        <ele>32.0</ele>
        <time>2018-06-10T08:01:03.038Z</time>
      </trkpt>
      <trkpt lat="38.852978" lon="-0.11048567">
        <ele>32.0</ele>
        <time>2018-06-10T08:01:04.038Z</time>
      </trkpt>
      <trkpt lat="38.85292783" lon="-0.11052483">
        <ele>32.0</ele>
        <time>2018-06-10T08:01:05.038Z</time>
      </trkpt>
      <trkpt lat="38.8528775" lon="-0.11056383">
        <ele>32.0</ele>
        <time>2018-06-10T08:01:06.038Z</time>
      </trkpt>
      <trkpt lat="38.8528275" lon="-0.110603">
        <ele>33.0</ele>
        <time>2018-06-10T08:01:07.038Z</time>
      </trkpt>
      <trkpt lat="38.8528275" lon="-0.110603">
        <ele>33.0</ele>
        <time>2018-06-10T08:01:08.038Z</time>
      </trkpt>
      <trkpt lat="38.85272767" lon="-0.11068067">
        <ele>33.0</ele>
        <time>2018-06-10T08:01:09.038Z</time>
      </trkpt>
      <trkpt lat="38.85267817" lon="-0.11071867">
        <ele>33.0</ele>
        <time>2018-06-10T08:01:10.038Z</time>
      </trkpt>
      <trkpt lat="38.85262917" lon="-0.1107565">
        <ele>33.0</ele>
        <time>2018-06-10T08:01:11.038Z</time>
      </trkpt>
      <trkpt lat="38.85258033" lon="-0.1107945">
        <ele>33.0</ele>
        <time>2018-06-10T08:01:12.038Z</time>
      </trkpt>
      <trkpt lat="38.85253167" lon="-0.11083217">
        <ele>33.0</ele>
        <time>2018-06-10T08:01:13.038Z</time>
      </trkpt>
      <trkpt lat="38.852483" lon="-0.11086967">
        <ele>33.0</ele>
        <time>2018-06-10T08:01:14.038Z</time>
      </trkpt>
      <trkpt lat="38.85243467" lon="-0.11090667">
        <ele>34.0</ele>
        <time>2018-06-10T08:01:15.038Z</time>
      </trkpt>
      <trkpt lat="38.85238683" lon="-0.110944">
        <ele>34.0</ele>
        <time>2018-06-10T08:01:16.038Z</time>
      </trkpt>
      <trkpt lat="38.85233917" lon="-0.11098133">
        <ele>34.0</ele>
        <time>2018-06-10T08:01:17.038Z</time>
      </trkpt>
      <trkpt lat="38.85229133" lon="-0.11101883">
        <ele>34.0</ele>
        <time>2018-06-10T08:01:18.038Z</time>
      </trkpt>
      <trkpt lat="38.85224367" lon="-0.11105617">
        <ele>34.0</ele>
        <time>2018-06-10T08:01:19.038Z</time>
      </trkpt>
      <trkpt lat="38.8521955" lon="-0.11109317">
        <ele>34.0</ele>
        <time>2018-06-10T08:01:20.038Z</time>
      </trkpt>
      <trkpt lat="38.8521475" lon="-0.11113017">
        <ele>34.0</ele>
        <time>2018-06-10T08:01:21.038Z</time>
      </trkpt>
      <trkpt lat="38.85209917" lon="-0.1111675">
        <ele>35.0</ele>
        <time>2018-06-10T08:01:22.038Z</time>
      </trkpt>
      <trkpt lat="38.85205067" lon="-0.11120517">
        <ele>35.0</ele>
        <time>2018-06-10T08:01:23.038Z</time>
      </trkpt>
      <trkpt lat="38.85200217" lon="-0.11124283">
        <ele>35.0</ele>
        <time>2018-06-10T08:01:24.038Z</time>
      </trkpt>
      <trkpt lat="38.8519535" lon="-0.1112805">
        <ele>35.0</ele>
        <time>2018-06-10T08:01:25.038Z</time>
      </trkpt>
      <trkpt lat="38.85190483" lon="-0.11131783">
        <ele>35.0</ele>
        <time>2018-06-10T08:01:26.038Z</time>
      </trkpt>
      <trkpt lat="38.85185667" lon="-0.11135517">
        <ele>35.0</ele>
        <time>2018-06-10T08:01:27.038Z</time>
      </trkpt>
      <trkpt lat="38.85180867" lon="-0.1113925">
        <ele>35.0</ele>
        <time>2018-06-10T08:01:28.038Z</time>
      </trkpt>
      <trkpt lat="38.85176083" lon="-0.11143">
        <ele>35.0</ele>
        <time>2018-06-10T08:01:29.038Z</time>
      </trkpt>
      <trkpt lat="38.85171283" lon="-0.11146767">
        <ele>36.0</ele>
        <time>2018-06-10T08:01:30.038Z</time>
      </trkpt>
      <trkpt lat="38.85166483" lon="-0.111505">
        <ele>36.0</ele>
        <time>2018-06-10T08:01:31.038Z</time>
      </trkpt>
      <trkpt lat="38.851617" lon="-0.11154233">
        <ele>36.0</ele>
        <time>2018-06-10T08:01:32.038Z</time>
      </trkpt>
      <trkpt lat="38.8515695" lon="-0.1115795">
        <ele>36.0</ele>
        <time>2018-06-10T08:01:33.038Z</time>
      </trkpt>
      <trkpt lat="38.85152233" lon="-0.1116165">
        <ele>36.0</ele>
        <time>2018-06-10T08:01:34.038Z</time>
      </trkpt>
      <trkpt lat="38.85147517" lon="-0.11165333">
        <ele>36.0</ele>
        <time>2018-06-10T08:01:35.038Z</time>
      </trkpt>
      <trkpt lat="38.85142767" lon="-0.11168983">
        <ele>36.0</ele>
        <time>2018-06-10T08:01:36.038Z</time>
      </trkpt>
      <trkpt lat="38.85138017" lon="-0.1117265">
        <ele>37.0</ele>
        <time>2018-06-10T08:01:37.038Z</time>
      </trkpt>
      <trkpt lat="38.85133283" lon="-0.11176333">
        <ele>37.0</ele>
        <time>2018-06-10T08:01:38.038Z</time>
      </trkpt>
      <trkpt lat="38.85128567" lon="-0.11180033">
        <ele>37.0</ele>
        <time>2018-06-10T08:01:39.038Z</time>
      </trkpt>
      <trkpt lat="38.8512385" lon="-0.111837">
        <ele>37.0</ele>
        <time>2018-06-10T08:01:40.038Z</time>
      </trkpt>
      <trkpt lat="38.85119117" lon="-0.1118735">
        <ele>37.0</ele>
        <time>2018-06-10T08:01:41.038Z</time>
      </trkpt>
      <trkpt lat="38.85114417" lon="-0.1119105">
        <ele>37.0</ele>
        <time>2018-06-10T08:01:42.038Z</time>
      </trkpt>
      <trkpt lat="38.8510975" lon="-0.11194767">
        <ele>38.0</ele>
        <time>2018-06-10T08:01:43.038Z</time>
      </trkpt>
      <trkpt lat="38.8510975" lon="-0.11194767">
        <ele>38.0</ele>
        <time>2018-06-10T08:01:44.038Z</time>
      </trkpt>
      <trkpt lat="38.851005" lon="-0.11201983">
        <ele>38.0</ele>
        <time>2018-06-10T08:01:45.038Z</time>
      </trkpt>
      <trkpt lat="38.85095917" lon="-0.112055">
        <ele>38.0</ele>
        <time>2018-06-10T08:01:46.038Z</time>
      </trkpt>
      <trkpt lat="38.8509135" lon="-0.1120905">
        <ele>38.0</ele>
        <time>2018-06-10T08:01:47.038Z</time>
      </trkpt>
      <trkpt lat="38.850868" lon="-0.112126">
        <ele>38.0</ele>
        <time>2018-06-10T08:01:48.038Z</time>
      </trkpt>
      <trkpt lat="38.8508225" lon="-0.11216117">
        <ele>39.0</ele>
        <time>2018-06-10T08:01:49.038Z</time>
      </trkpt>
      <trkpt lat="38.85077717" lon="-0.1121965">
        <ele>39.0</ele>
        <time>2018-06-10T08:01:50.038Z</time>
      </trkpt>
      <trkpt lat="38.85077717" lon="-0.1121965">
        <ele>39.0</ele>
        <time>2018-06-10T08:01:51.038Z</time>
      </trkpt>
      <trkpt lat="38.850689" lon="-0.11226767">
        <ele>39.0</ele>
        <time>2018-06-10T08:01:52.038Z</time>
      </trkpt>
      <trkpt lat="38.850689" lon="-0.11226767">
        <ele>39.0</ele>
        <time>2018-06-10T08:01:53.038Z</time>
      </trkpt>
      <trkpt lat="38.8506025" lon="-0.1123365">
        <ele>39.0</ele>
        <time>2018-06-10T08:01:54.038Z</time>
      </trkpt>
      <trkpt lat="38.85055867" lon="-0.11237">
        <ele>40.0</ele>
        <time>2018-06-10T08:01:55.038Z</time>
      </trkpt>
      <trkpt lat="38.850515" lon="-0.11240317">
        <ele>40.0</ele>
        <time>2018-06-10T08:01:56.038Z</time>
      </trkpt>
      <trkpt lat="38.85047167" lon="-0.11243683">
        <ele>40.0</ele>
        <time>2018-06-10T08:01:57.038Z</time>
      </trkpt>
      <trkpt lat="38.85042883" lon="-0.1124715">
        <ele>40.0</ele>
        <time>2018-06-10T08:01:58.038Z</time>
      </trkpt>
      <trkpt lat="38.85038617" lon="-0.11250633">
        <ele>40.0</ele>
        <time>2018-06-10T08:01:59.038Z</time>
      </trkpt>
      <trkpt lat="38.85034317" lon="-0.11254067">
        <ele>40.0</ele>
        <time>2018-06-10T08:02:00.038Z</time>
      </trkpt>
      <trkpt lat="38.85029967" lon="-0.112574">
        <ele>40.0</ele>
        <time>2018-06-10T08:02:01.038Z</time>
      </trkpt>
      <trkpt lat="38.85025633" lon="-0.11260733">
        <ele>41.0</ele>
        <time>2018-06-10T08:02:02.038Z</time>
      </trkpt>
      <trkpt lat="38.85021333" lon="-0.112642">
        <ele>41.0</ele>
        <time>2018-06-10T08:02:03.038Z</time>
      </trkpt>
      <trkpt lat="38.8501705" lon="-0.11267717">
        <ele>41.0</ele>
        <time>2018-06-10T08:02:04.038Z</time>
      </trkpt>
      <trkpt lat="38.85012767" lon="-0.112712">
        <ele>41.0</ele>
        <time>2018-06-10T08:02:05.038Z</time>
      </trkpt>
      <trkpt lat="38.85008417" lon="-0.112746">
        <ele>41.0</ele>
        <time>2018-06-10T08:02:06.038Z</time>
      </trkpt>
      <trkpt lat="38.85008417" lon="-0.112746">
        <ele>41.0</ele>
        <time>2018-06-10T08:02:07.038Z</time>
      </trkpt>
      <trkpt lat="38.85004117" lon="-0.11278017">
        <ele>41.0</ele>
        <time>2018-06-10T08:02:08.038Z</time>
      </trkpt>
      <trkpt lat="38.84995583" lon="-0.1128475">
        <ele>42.0</ele>
        <time>2018-06-10T08:02:09.038Z</time>
      </trkpt>
      <trkpt lat="38.84991333" lon="-0.11288">
        <ele>42.0</ele>
        <time>2018-06-10T08:02:10.038Z</time>
      </trkpt>
      <trkpt lat="38.84987117" lon="-0.112913">
        <ele>42.0</ele>
        <time>2018-06-10T08:02:11.038Z</time>
      </trkpt>
      <trkpt lat="38.849829" lon="-0.11294617">
        <ele>42.0</ele>
        <time>2018-06-10T08:02:12.038Z</time>
      </trkpt>
      <trkpt lat="38.84978683" lon="-0.11297967">
        <ele>42.0</ele>
        <time>2018-06-10T08:02:13.038Z</time>
      </trkpt>
      <trkpt lat="38.84974417" lon="-0.113013">
        <ele>43.0</ele>
        <time>2018-06-10T08:02:14.038Z</time>
      </trkpt>
      <trkpt lat="38.84970117" lon="-0.11304617">
        <ele>43.0</ele>
        <time>2018-06-10T08:02:15.038Z</time>
      </trkpt>
      <trkpt lat="38.849658" lon="-0.11307933">
        <ele>43.0</ele>
        <time>2018-06-10T08:02:16.038Z</time>
      </trkpt>
      <trkpt lat="38.849615" lon="-0.113113">
        <ele>43.0</ele>
        <time>2018-06-10T08:02:17.038Z</time>
      </trkpt>
      <trkpt lat="38.84957217" lon="-0.1131465">
        <ele>43.0</ele>
        <time>2018-06-10T08:02:18.038Z</time>
      </trkpt>
      <trkpt lat="38.84952917" lon="-0.11318">
        <ele>43.0</ele>
        <time>2018-06-10T08:02:19.038Z</time>
      </trkpt>
      <trkpt lat="38.84948617" lon="-0.11321317">
        <ele>43.0</ele>
        <time>2018-06-10T08:02:20.038Z</time>
      </trkpt>
      <trkpt lat="38.84944317" lon="-0.1132465">
        <ele>44.0</ele>
        <time>2018-06-10T08:02:21.038Z</time>
      </trkpt>
      <trkpt lat="38.84940033" lon="-0.11327983">
        <ele>44.0</ele>
        <time>2018-06-10T08:02:22.038Z</time>
      </trkpt>
      <trkpt lat="38.8493575" lon="-0.11331283">
        <ele>44.0</ele>
        <time>2018-06-10T08:02:23.038Z</time>
      </trkpt>
      <trkpt lat="38.84931467" lon="-0.11334583">
        <ele>44.0</ele>
        <time>2018-06-10T08:02:24.038Z</time>
      </trkpt>
      <trkpt lat="38.84927217" lon="-0.11337967">
        <ele>44.0</ele>
        <time>2018-06-10T08:02:25.038Z</time>
      </trkpt>
      <trkpt lat="38.84922983" lon="-0.113413">
        <ele>45.0</ele>
        <time>2018-06-10T08:02:26.038Z</time>
      </trkpt>
      <trkpt lat="38.84918733" lon="-0.11344633">
        <ele>45.0</ele>
        <time>2018-06-10T08:02:27.038Z</time>
      </trkpt>
      <trkpt lat="38.84914533" lon="-0.1134795">
        <ele>45.0</ele>
        <time>2018-06-10T08:02:28.038Z</time>
      </trkpt>
      <trkpt lat="38.849105" lon="-0.11351567">
        <ele>46.0</ele>
        <time>2018-06-10T08:02:29.038Z</time>
      </trkpt>
      <trkpt lat="38.84906883" lon="-0.11355683">
        <ele>46.0</ele>
        <time>2018-06-10T08:02:30.038Z</time>
      </trkpt>
      <trkpt lat="38.849039" lon="-0.11360583">
        <ele>46.0</ele>
        <time>2018-06-10T08:02:31.038Z</time>
      </trkpt>
      <trkpt lat="38.8490145" lon="-0.11365933">
        <ele>47.0</ele>
        <time>2018-06-10T08:02:32.038Z</time>
      </trkpt>
      <trkpt lat="38.84899033" lon="-0.11371267">
        <ele>47.0</ele>
        <time>2018-06-10T08:02:33.038Z</time>
      </trkpt>
      <trkpt lat="38.848961" lon="-0.11375833">
        <ele>47.0</ele>
        <time>2018-06-10T08:02:34.038Z</time>
      </trkpt>
      <trkpt lat="38.84892267" lon="-0.1137945">
        <ele>47.0</ele>
        <time>2018-06-10T08:02:35.038Z</time>
      </trkpt>
      <trkpt lat="38.84887717" lon="-0.1138145">
        <ele>47.0</ele>
        <time>2018-06-10T08:02:36.038Z</time>
      </trkpt>
      <trkpt lat="38.84882833" lon="-0.11382217">
        <ele>47.0</ele>
        <time>2018-06-10T08:02:37.038Z</time>
      </trkpt>
      <trkpt lat="38.84877867" lon="-0.11382517">
        <ele>47.0</ele>
        <time>2018-06-10T08:02:38.038Z</time>
      </trkpt>
      <trkpt lat="38.848731" lon="-0.1138385">
        <ele>47.0</ele>
        <time>2018-06-10T08:02:39.038Z</time>
      </trkpt>
      <trkpt lat="38.84868533" lon="-0.11386333">
        <ele>47.0</ele>
        <time>2018-06-10T08:02:40.038Z</time>
      </trkpt>
      <trkpt lat="38.84864217" lon="-0.11389617">
        <ele>47.0</ele>
        <time>2018-06-10T08:02:41.038Z</time>
      </trkpt>
      <trkpt lat="38.84860117" lon="-0.113933">
        <ele>47.0</ele>
        <time>2018-06-10T08:02:42.038Z</time>
      </trkpt>
      <trkpt lat="38.84856133" lon="-0.11397117">
        <ele>48.0</ele>
        <time>2018-06-10T08:02:43.038Z</time>
      </trkpt>
      <trkpt lat="38.84856133" lon="-0.11397117">
        <ele>48.0</ele>
        <time>2018-06-10T08:02:44.038Z</time>
      </trkpt>
      <trkpt lat="38.84848083" lon="-0.114045">
        <ele>48.0</ele>
        <time>2018-06-10T08:02:45.038Z</time>
      </trkpt>
      <trkpt lat="38.84843883" lon="-0.11407767">
        <ele>48.0</ele>
        <time>2018-06-10T08:02:46.038Z</time>
      </trkpt>
      <trkpt lat="38.84839633" lon="-0.11410817">
        <ele>48.0</ele>
        <time>2018-06-10T08:02:47.038Z</time>
      </trkpt>
      <trkpt lat="38.84835383" lon="-0.11413667">
        <ele>48.0</ele>
        <time>2018-06-10T08:02:48.038Z</time>
      </trkpt>
      <trkpt lat="38.84831233" lon="-0.11416417">
        <ele>49.0</ele>
        <time>2018-06-10T08:02:49.038Z</time>
      </trkpt>
      <trkpt lat="38.84827333" lon="-0.1141915">
        <ele>49.0</ele>
        <time>2018-06-10T08:02:50.038Z</time>
      </trkpt>
      <trkpt lat="38.84823817" lon="-0.11421933">
        <ele>49.0</ele>
        <time>2018-06-10T08:02:51.038Z</time>
      </trkpt>
      <trkpt lat="38.84820783" lon="-0.11424867">
        <ele>49.0</ele>
        <time>2018-06-10T08:02:52.038Z</time>
      </trkpt>
      <trkpt lat="38.84818267" lon="-0.11427817">
        <ele>49.0</ele>
        <time>2018-06-10T08:02:53.038Z</time>
      </trkpt>
      <trkpt lat="38.84816517" lon="-0.11430617">
        <ele>50.0</ele>
        <time>2018-06-10T08:02:54.038Z</time>
      </trkpt>
      <trkpt lat="38.8481525" lon="-0.11433333">
        <ele>50.0</ele>
        <time>2018-06-10T08:02:55.038Z</time>
      </trkpt>
      <trkpt lat="38.84814183" lon="-0.11436067">
        <ele>50.0</ele>
        <time>2018-06-10T08:02:56.038Z</time>
      </trkpt>
      <trkpt lat="38.84812517" lon="-0.11438983">
        <ele>50.0</ele>
        <time>2018-06-10T08:02:57.038Z</time>
      </trkpt>
      <trkpt lat="38.848101" lon="-0.1144195">
        <ele>50.0</ele>
        <time>2018-06-10T08:02:58.038Z</time>
      </trkpt>
      <trkpt lat="38.84806967" lon="-0.11444767">
        <ele>51.0</ele>
        <time>2018-06-10T08:02:59.038Z</time>
      </trkpt>
      <trkpt lat="38.84803333" lon="-0.1144705">
        <ele>51.0</ele>
        <time>2018-06-10T08:03:00.038Z</time>
      </trkpt>
      <trkpt lat="38.84799367" lon="-0.1144845">
        <ele>51.0</ele>
        <time>2018-06-10T08:03:01.038Z</time>
      </trkpt>
      <trkpt lat="38.847952" lon="-0.11449367">
        <ele>51.0</ele>
        <time>2018-06-10T08:03:02.038Z</time>
      </trkpt>
      <trkpt lat="38.84790917" lon="-0.11450267">
        <ele>51.0</ele>
        <time>2018-06-10T08:03:03.038Z</time>
      </trkpt>
      <trkpt lat="38.84786567" lon="-0.11451783">
        <ele>51.0</ele>
        <time>2018-06-10T08:03:04.038Z</time>
      </trkpt>
      <trkpt lat="38.84782183" lon="-0.11453817">
        <ele>51.0</ele>
        <time>2018-06-10T08:03:05.038Z</time>
      </trkpt>
      <trkpt lat="38.84777883" lon="-0.11456283">
        <ele>51.0</ele>
        <time>2018-06-10T08:03:06.038Z</time>
      </trkpt>
      <trkpt lat="38.8477365" lon="-0.11458967">
        <ele>52.0</ele>
        <time>2018-06-10T08:03:07.038Z</time>
      </trkpt>
      <trkpt lat="38.847695" lon="-0.114618">
        <ele>52.0</ele>
        <time>2018-06-10T08:03:08.038Z</time>
      </trkpt>
      <trkpt lat="38.84765333" lon="-0.1146475">
        <ele>52.0</ele>
        <time>2018-06-10T08:03:09.038Z</time>
      </trkpt>
      <trkpt lat="38.84761183" lon="-0.11467833">
        <ele>52.0</ele>
        <time>2018-06-10T08:03:10.038Z</time>
      </trkpt>
      <trkpt lat="38.8475705" lon="-0.11471033">
        <ele>52.0</ele>
        <time>2018-06-10T08:03:11.038Z</time>
      </trkpt>
      <trkpt lat="38.84753017" lon="-0.11474367">
        <ele>52.0</ele>
        <time>2018-06-10T08:03:12.038Z</time>
      </trkpt>
      <trkpt lat="38.84749017" lon="-0.11477667">
        <ele>53.0</ele>
        <time>2018-06-10T08:03:13.038Z</time>
      </trkpt>
      <trkpt lat="38.84744967" lon="-0.114809">
        <ele>53.0</ele>
        <time>2018-06-10T08:03:14.038Z</time>
      </trkpt>
      <trkpt lat="38.84740817" lon="-0.11484017">
        <ele>53.0</ele>
        <time>2018-06-10T08:03:15.038Z</time>
      </trkpt>
      <trkpt lat="38.847366" lon="-0.11487133">
        <ele>53.0</ele>
        <time>2018-06-10T08:03:16.038Z</time>
      </trkpt>
      <trkpt lat="38.84732383" lon="-0.11490333">
        <ele>53.0</ele>
        <time>2018-06-10T08:03:17.038Z</time>
      </trkpt>
      <trkpt lat="38.847282" lon="-0.11493517">
        <ele>53.0</ele>
        <time>2018-06-10T08:03:18.038Z</time>
      </trkpt>
      <trkpt lat="38.84724067" lon="-0.11496717">
        <ele>53.0</ele>
        <time>2018-06-10T08:03:19.038Z</time>
      </trkpt>
      <trkpt lat="38.8472" lon="-0.11499883">
        <ele>54.0</ele>
        <time>2018-06-10T08:03:20.038Z</time>
      </trkpt>
      <trkpt lat="38.84715967" lon="-0.11503067">
        <ele>54.0</ele>
        <time>2018-06-10T08:03:21.038Z</time>
      </trkpt>
      <trkpt lat="38.84711967" lon="-0.115062">
        <ele>54.0</ele>
        <time>2018-06-10T08:03:22.038Z</time>
      </trkpt>
      <trkpt lat="38.84707883" lon="-0.11509283">
        <ele>54.0</ele>
        <time>2018-06-10T08:03:23.038Z</time>
      </trkpt>
      <trkpt lat="38.84703817" lon="-0.115124">
        <ele>55.0</ele>
        <time>2018-06-10T08:03:24.038Z</time>
      </trkpt>
      <trkpt lat="38.84699767" lon="-0.11515517">
        <ele>55.0</ele>
        <time>2018-06-10T08:03:25.038Z</time>
      </trkpt>
      <trkpt lat="38.84695733" lon="-0.1151865">
        <ele>55.0</ele>
        <time>2018-06-10T08:03:26.038Z</time>
      </trkpt>
      <trkpt lat="38.8469175" lon="-0.11521717">
        <ele>55.0</ele>
        <time>2018-06-10T08:03:27.038Z</time>
      </trkpt>
      <trkpt lat="38.846878" lon="-0.11524767">
        <ele>56.0</ele>
        <time>2018-06-10T08:03:28.038Z</time>
      </trkpt>
      <trkpt lat="38.84683917" lon="-0.11527767">
        <ele>56.0</ele>
        <time>2018-06-10T08:03:29.038Z</time>
      </trkpt>
      <trkpt lat="38.84680067" lon="-0.11530817">
        <ele>56.0</ele>
        <time>2018-06-10T08:03:30.038Z</time>
      </trkpt>
      <trkpt lat="38.84676217" lon="-0.11533867">
        <ele>56.0</ele>
        <time>2018-06-10T08:03:31.038Z</time>
      </trkpt>
      <trkpt lat="38.84672383" lon="-0.115369">
        <ele>56.0</ele>
        <time>2018-06-10T08:03:32.038Z</time>
      </trkpt>
      <trkpt lat="38.846686" lon="-0.115399">
        <ele>57.0</ele>
        <time>2018-06-10T08:03:33.038Z</time>
      </trkpt>
      <trkpt lat="38.84664883" lon="-0.11542783">
        <ele>57.0</ele>
        <time>2018-06-10T08:03:34.038Z</time>
      </trkpt>
      <trkpt lat="38.846613" lon="-0.11545667">
        <ele>57.0</ele>
        <time>2018-06-10T08:03:35.038Z</time>
      </trkpt>
      <trkpt lat="38.84657867" lon="-0.11548467">
        <ele>57.0</ele>
        <time>2018-06-10T08:03:36.038Z</time>
      </trkpt>
      <trkpt lat="38.8465465" lon="-0.1155125">
        <ele>57.0</ele>
        <time>2018-06-10T08:03:37.038Z</time>
      </trkpt>
      <trkpt lat="38.84651483" lon="-0.11553767">
        <ele>57.0</ele>
        <time>2018-06-10T08:03:38.038Z</time>
      </trkpt>
      <trkpt lat="38.8464845" lon="-0.11556133">
        <ele>57.0</ele>
        <time>2018-06-10T08:03:39.038Z</time>
      </trkpt>
      <trkpt lat="38.84645483" lon="-0.1155835">
        <ele>57.0</ele>
        <time>2018-06-10T08:03:40.038Z</time>
      </trkpt>
      <trkpt lat="38.8464265" lon="-0.11560617">
        <ele>58.0</ele>
        <time>2018-06-10T08:03:41.038Z</time>
      </trkpt>
      <trkpt lat="38.84639867" lon="-0.1156275">
        <ele>58.0</ele>
        <time>2018-06-10T08:03:42.038Z</time>
      </trkpt>
      <trkpt lat="38.84637133" lon="-0.11564683">
        <ele>58.0</ele>
        <time>2018-06-10T08:03:43.038Z</time>
      </trkpt>
      <trkpt lat="38.84634467" lon="-0.11566417">
        <ele>58.0</ele>
        <time>2018-06-10T08:03:44.038Z</time>
      </trkpt>
      <trkpt lat="38.846318" lon="-0.11568083">
        <ele>58.0</ele>
        <time>2018-06-10T08:03:45.038Z</time>
      </trkpt>
      <trkpt lat="38.84628967" lon="-0.11569733">
        <ele>59.0</ele>
        <time>2018-06-10T08:03:46.038Z</time>
      </trkpt>
      <trkpt lat="38.84625967" lon="-0.11571467">
        <ele>59.0</ele>
        <time>2018-06-10T08:03:47.038Z</time>
      </trkpt>
      <trkpt lat="38.8462275" lon="-0.11573367">
        <ele>59.0</ele>
        <time>2018-06-10T08:03:48.038Z</time>
      </trkpt>
      <trkpt lat="38.84619367" lon="-0.11575283">
        <ele>59.0</ele>
        <time>2018-06-10T08:03:49.038Z</time>
      </trkpt>
      <trkpt lat="38.8461595" lon="-0.11577333">
        <ele>59.0</ele>
        <time>2018-06-10T08:03:50.038Z</time>
      </trkpt>
      <trkpt lat="38.84612533" lon="-0.11579383">
        <ele>59.0</ele>
        <time>2018-06-10T08:03:51.038Z</time>
      </trkpt>
      <trkpt lat="38.84609233" lon="-0.115817">
        <ele>59.0</ele>
        <time>2018-06-10T08:03:52.038Z</time>
      </trkpt>
      <trkpt lat="38.84605967" lon="-0.1158415">
        <ele>60.0</ele>
        <time>2018-06-10T08:03:53.038Z</time>
      </trkpt>
      <trkpt lat="38.84602767" lon="-0.11586483">
        <ele>60.0</ele>
        <time>2018-06-10T08:03:54.038Z</time>
      </trkpt>
      <trkpt lat="38.84599733" lon="-0.11588817">
        <ele>60.0</ele>
        <time>2018-06-10T08:03:55.038Z</time>
      </trkpt>
      <trkpt lat="38.84596733" lon="-0.11591167">
        <ele>61.0</ele>
        <time>2018-06-10T08:03:56.038Z</time>
      </trkpt>
      <trkpt lat="38.84593733" lon="-0.11593667">
        <ele>61.0</ele>
        <time>2018-06-10T08:03:57.038Z</time>
      </trkpt>
      <trkpt lat="38.84590583" lon="-0.1159575">
        <ele>61.0</ele>
        <time>2018-06-10T08:03:58.038Z</time>
      </trkpt>
      <trkpt lat="38.845873" lon="-0.11597433">
        <ele>62.0</ele>
        <time>2018-06-10T08:03:59.038Z</time>
      </trkpt>
      <trkpt lat="38.84584" lon="-0.11598633">
        <ele>62.0</ele>
        <time>2018-06-10T08:04:00.038Z</time>
      </trkpt>
      <trkpt lat="38.84580717" lon="-0.1159935">
        <ele>63.0</ele>
        <time>2018-06-10T08:04:01.038Z</time>
      </trkpt>
      <trkpt lat="38.84577567" lon="-0.11599317">
        <ele>63.0</ele>
        <time>2018-06-10T08:04:02.038Z</time>
      </trkpt>
      <trkpt lat="38.8457445" lon="-0.115985">
        <ele>64.0</ele>
        <time>2018-06-10T08:04:03.038Z</time>
      </trkpt>
      <trkpt lat="38.84571367" lon="-0.1159685">
        <ele>65.0</ele>
        <time>2018-06-10T08:04:04.038Z</time>
      </trkpt>
      <trkpt lat="38.84568367" lon="-0.11593617">
        <ele>68.0</ele>
        <time>2018-06-10T08:04:05.038Z</time>
      </trkpt>
      <trkpt lat="38.845655" lon="-0.11589817">
        <ele>69.0</ele>
        <time>2018-06-10T08:04:06.038Z</time>
      </trkpt>
      <trkpt lat="38.84562817" lon="-0.11585717">
        <ele>70.0</ele>
        <time>2018-06-10T08:04:07.038Z</time>
      </trkpt>
      <trkpt lat="38.8456025" lon="-0.11582233">
        <ele>71.0</ele>
        <time>2018-06-10T08:04:08.038Z</time>
      </trkpt>
      <trkpt lat="38.84558167" lon="-0.11578267">
        <ele>71.0</ele>
        <time>2018-06-10T08:04:09.038Z</time>
      </trkpt>
      <trkpt lat="38.84556517" lon="-0.11573933">
        <ele>71.0</ele>
        <time>2018-06-10T08:04:10.038Z</time>
      </trkpt>
      <trkpt lat="38.8455515" lon="-0.11569317">
        <ele>72.0</ele>
        <time>2018-06-10T08:04:11.038Z</time>
      </trkpt>
      <trkpt lat="38.84553867" lon="-0.115648">
        <ele>73.0</ele>
        <time>2018-06-10T08:04:12.038Z</time>
      </trkpt>
      <trkpt lat="38.8455215" lon="-0.115604">
        <ele>73.0</ele>
        <time>2018-06-10T08:04:13.038Z</time>
      </trkpt>
      <trkpt lat="38.84550317" lon="-0.11556067">
        <ele>74.0</ele>
        <time>2018-06-10T08:04:14.038Z</time>
      </trkpt>
      <trkpt lat="38.84547783" lon="-0.1155185">
        <ele>74.0</ele>
        <time>2018-06-10T08:04:15.038Z</time>
      </trkpt>
      <trkpt lat="38.84544633" lon="-0.11547917">
        <ele>73.0</ele>
        <time>2018-06-10T08:04:16.038Z</time>
      </trkpt>
      <trkpt lat="38.84541083" lon="-0.11544417">
        <ele>74.0</ele>
        <time>2018-06-10T08:04:17.038Z</time>
      </trkpt>
      <trkpt lat="38.84537633" lon="-0.11541417">
        <ele>74.0</ele>
        <time>2018-06-10T08:04:18.038Z</time>
      </trkpt>
      <trkpt lat="38.845338" lon="-0.1153925">
        <ele>73.0</ele>
        <time>2018-06-10T08:04:19.038Z</time>
      </trkpt>
      <trkpt lat="38.84529117" lon="-0.115378">
        <ele>72.0</ele>
        <time>2018-06-10T08:04:20.038Z</time>
      </trkpt>
      <trkpt lat="38.84523833" lon="-0.11537033">
        <ele>71.0</ele>
        <time>2018-06-10T08:04:21.038Z</time>
      </trkpt>
      <trkpt lat="38.84518933" lon="-0.11536817">
        <ele>71.0</ele>
        <time>2018-06-10T08:04:22.038Z</time>
      </trkpt>
      <trkpt lat="38.84514517" lon="-0.11537017">
        <ele>71.0</ele>
        <time>2018-06-10T08:04:23.038Z</time>
      </trkpt>
      <trkpt lat="38.8451035" lon="-0.11537433">
        <ele>71.0</ele>
        <time>2018-06-10T08:04:24.038Z</time>
      </trkpt>
      <trkpt lat="38.84505983" lon="-0.11537783">
        <ele>71.0</ele>
        <time>2018-06-10T08:04:25.038Z</time>
      </trkpt>
      <trkpt lat="38.84501683" lon="-0.1153805">
        <ele>71.0</ele>
        <time>2018-06-10T08:04:26.038Z</time>
      </trkpt>
      <trkpt lat="38.84497417" lon="-0.11538433">
        <ele>71.0</ele>
        <time>2018-06-10T08:04:27.038Z</time>
      </trkpt>
      <trkpt lat="38.84493367" lon="-0.11538983">
        <ele>72.0</ele>
        <time>2018-06-10T08:04:28.038Z</time>
      </trkpt>
      <trkpt lat="38.8448935" lon="-0.11539717">
        <ele>72.0</ele>
        <time>2018-06-10T08:04:29.038Z</time>
      </trkpt>
      <trkpt lat="38.84485417" lon="-0.1154045">
        <ele>72.0</ele>
        <time>2018-06-10T08:04:30.038Z</time>
      </trkpt>
      <trkpt lat="38.84481683" lon="-0.11540833">
        <ele>70.0</ele>
        <time>2018-06-10T08:04:31.038Z</time>
      </trkpt>
      <trkpt lat="38.844781" lon="-0.11540967">
        <ele>69.0</ele>
        <time>2018-06-10T08:04:32.038Z</time>
      </trkpt>
      <trkpt lat="38.84474517" lon="-0.11540917">
        <ele>67.0</ele>
        <time>2018-06-10T08:04:33.038Z</time>
      </trkpt>
      <trkpt lat="38.84470733" lon="-0.1154095">
        <ele>67.0</ele>
        <time>2018-06-10T08:04:34.038Z</time>
      </trkpt>
      <trkpt lat="38.84466767" lon="-0.11541033">
        <ele>66.0</ele>
        <time>2018-06-10T08:04:35.038Z</time>
      </trkpt>
      <trkpt lat="38.84462517" lon="-0.11541367">
        <ele>67.0</ele>
        <time>2018-06-10T08:04:36.038Z</time>
      </trkpt>
      <trkpt lat="38.84457767" lon="-0.115422">
        <ele>69.0</ele>
        <time>2018-06-10T08:04:37.038Z</time>
      </trkpt>
      <trkpt lat="38.84452917" lon="-0.11543433">
        <ele>69.0</ele>
        <time>2018-06-10T08:04:38.038Z</time>
      </trkpt>
      <trkpt lat="38.8444805" lon="-0.11544767">
        <ele>68.0</ele>
        <time>2018-06-10T08:04:39.038Z</time>
      </trkpt>
      <trkpt lat="38.84443383" lon="-0.11546083">
        <ele>69.0</ele>
        <time>2018-06-10T08:04:40.038Z</time>
      </trkpt>
      <trkpt lat="38.84438717" lon="-0.11547267">
        <ele>69.0</ele>
        <time>2018-06-10T08:04:41.038Z</time>
      </trkpt>
      <trkpt lat="38.844342" lon="-0.11548433">
        <ele>70.0</ele>
        <time>2018-06-10T08:04:42.038Z</time>
      </trkpt>
      <trkpt lat="38.84429917" lon="-0.1154935">
        <ele>70.0</ele>
        <time>2018-06-10T08:04:43.038Z</time>
      </trkpt>
      <trkpt lat="38.844257" lon="-0.11550183">
        <ele>71.0</ele>
        <time>2018-06-10T08:04:44.038Z</time>
      </trkpt>
      <trkpt lat="38.844214" lon="-0.1155095">
        <ele>71.0</ele>
        <time>2018-06-10T08:04:45.038Z</time>
      </trkpt>
      <trkpt lat="38.84417" lon="-0.1155175">
        <ele>71.0</ele>
        <time>2018-06-10T08:04:46.038Z</time>
      </trkpt>
      <trkpt lat="38.84412583" lon="-0.1155275">
        <ele>71.0</ele>
        <time>2018-06-10T08:04:47.038Z</time>
      </trkpt>
      <trkpt lat="38.84408267" lon="-0.11554033">
        <ele>71.0</ele>
        <time>2018-06-10T08:04:48.038Z</time>
      </trkpt>
      <trkpt lat="38.84404067" lon="-0.11555483">
        <ele>71.0</ele>
        <time>2018-06-10T08:04:49.038Z</time>
      </trkpt>
      <trkpt lat="38.84399883" lon="-0.11556833">
        <ele>71.0</ele>
        <time>2018-06-10T08:04:50.038Z</time>
      </trkpt>
      <trkpt lat="38.84395717" lon="-0.11558067">
        <ele>71.0</ele>
        <time>2018-06-10T08:04:51.038Z</time>
      </trkpt>
      <trkpt lat="38.84391517" lon="-0.11559">
        <ele>71.0</ele>
        <time>2018-06-10T08:04:52.038Z</time>
      </trkpt>
      <trkpt lat="38.8438725" lon="-0.11559967">
        <ele>71.0</ele>
        <time>2018-06-10T08:04:53.038Z</time>
      </trkpt>
      <trkpt lat="38.84382717" lon="-0.11560867">
        <ele>71.0</ele>
        <time>2018-06-10T08:04:54.038Z</time>
      </trkpt>
      <trkpt lat="38.84378117" lon="-0.11562">
        <ele>71.0</ele>
        <time>2018-06-10T08:04:55.038Z</time>
      </trkpt>
      <trkpt lat="38.84373433" lon="-0.11563">
        <ele>70.0</ele>
        <time>2018-06-10T08:04:56.038Z</time>
      </trkpt>
      <trkpt lat="38.84368967" lon="-0.11563617">
        <ele>70.0</ele>
        <time>2018-06-10T08:04:57.038Z</time>
      </trkpt>
      <trkpt lat="38.84364617" lon="-0.115638">
        <ele>69.0</ele>
        <time>2018-06-10T08:04:58.038Z</time>
      </trkpt>
      <trkpt lat="38.84360467" lon="-0.11563333">
        <ele>68.0</ele>
        <time>2018-06-10T08:04:59.038Z</time>
      </trkpt>
      <trkpt lat="38.84356417" lon="-0.11562433">
        <ele>67.0</ele>
        <time>2018-06-10T08:05:00.038Z</time>
      </trkpt>
      <trkpt lat="38.843524" lon="-0.11561367">
        <ele>65.0</ele>
        <time>2018-06-10T08:05:01.038Z</time>
      </trkpt>
      <trkpt lat="38.84348317" lon="-0.11560867">
        <ele>65.0</ele>
        <time>2018-06-10T08:05:02.038Z</time>
      </trkpt>
      <trkpt lat="38.8434395" lon="-0.11560767">
        <ele>64.0</ele>
        <time>2018-06-10T08:05:03.038Z</time>
      </trkpt>
      <trkpt lat="38.8433935" lon="-0.11560783">
        <ele>64.0</ele>
        <time>2018-06-10T08:05:04.038Z</time>
      </trkpt>
      <trkpt lat="38.84334717" lon="-0.11560417">
        <ele>62.0</ele>
        <time>2018-06-10T08:05:05.038Z</time>
      </trkpt>
      <trkpt lat="38.84330367" lon="-0.1156">
        <ele>60.0</ele>
        <time>2018-06-10T08:05:06.038Z</time>
      </trkpt>
      <trkpt lat="38.84326017" lon="-0.11559633">
        <ele>60.0</ele>
        <time>2018-06-10T08:05:07.038Z</time>
      </trkpt>
      <trkpt lat="38.84321617" lon="-0.11559217">
        <ele>59.0</ele>
        <time>2018-06-10T08:05:08.038Z</time>
      </trkpt>
      <trkpt lat="38.8431725" lon="-0.1155865">
        <ele>58.0</ele>
        <time>2018-06-10T08:05:09.038Z</time>
      </trkpt>
      <trkpt lat="38.8431325" lon="-0.11557867">
        <ele>57.0</ele>
        <time>2018-06-10T08:05:10.038Z</time>
      </trkpt>
      <trkpt lat="38.84309567" lon="-0.115573">
        <ele>57.0</ele>
        <time>2018-06-10T08:05:11.038Z</time>
      </trkpt>
      <trkpt lat="38.8430585" lon="-0.11556683">
        <ele>57.0</ele>
        <time>2018-06-10T08:05:12.038Z</time>
      </trkpt>
      <trkpt lat="38.84301867" lon="-0.11556133">
        <ele>56.0</ele>
        <time>2018-06-10T08:05:13.038Z</time>
      </trkpt>
      <trkpt lat="38.84297783" lon="-0.11555483">
        <ele>55.0</ele>
        <time>2018-06-10T08:05:14.038Z</time>
      </trkpt>
      <trkpt lat="38.84293583" lon="-0.11555033">
        <ele>55.0</ele>
        <time>2018-06-10T08:05:15.038Z</time>
      </trkpt>
      <trkpt lat="38.84289317" lon="-0.1155445">
        <ele>54.0</ele>
        <time>2018-06-10T08:05:16.038Z</time>
      </trkpt>
      <trkpt lat="38.84284733" lon="-0.11553733">
        <ele>54.0</ele>
        <time>2018-06-10T08:05:17.038Z</time>
      </trkpt>
      <trkpt lat="38.84280017" lon="-0.11552833">
        <ele>54.0</ele>
        <time>2018-06-10T08:05:18.038Z</time>
      </trkpt>
      <trkpt lat="38.84275167" lon="-0.11552117">
        <ele>54.0</ele>
        <time>2018-06-10T08:05:19.038Z</time>
      </trkpt>
      <trkpt lat="38.84270117" lon="-0.1155115">
        <ele>55.0</ele>
        <time>2018-06-10T08:05:20.038Z</time>
      </trkpt>
      <trkpt lat="38.84265017" lon="-0.11550417">
        <ele>55.0</ele>
        <time>2018-06-10T08:05:21.038Z</time>
      </trkpt>
      <trkpt lat="38.84259833" lon="-0.11549417">
        <ele>56.0</ele>
        <time>2018-06-10T08:05:22.038Z</time>
      </trkpt>
      <trkpt lat="38.842546" lon="-0.11548367">
        <ele>57.0</ele>
        <time>2018-06-10T08:05:23.038Z</time>
      </trkpt>
      <trkpt lat="38.84249117" lon="-0.115467">
        <ele>60.0</ele>
        <time>2018-06-10T08:05:24.038Z</time>
      </trkpt>
      <trkpt lat="38.84243733" lon="-0.11545117">
        <ele>60.0</ele>
        <time>2018-06-10T08:05:25.038Z</time>
      </trkpt>
      <trkpt lat="38.8423865" lon="-0.11543767">
        <ele>61.0</ele>
        <time>2018-06-10T08:05:26.038Z</time>
      </trkpt>
      <trkpt lat="38.84233967" lon="-0.1154265">
        <ele>62.0</ele>
        <time>2018-06-10T08:05:27.038Z</time>
      </trkpt>
      <trkpt lat="38.84229283" lon="-0.11541583">
        <ele>62.0</ele>
        <time>2018-06-10T08:05:28.038Z</time>
      </trkpt>
      <trkpt lat="38.842247" lon="-0.11540517">
        <ele>63.0</ele>
        <time>2018-06-10T08:05:29.038Z</time>
      </trkpt>
      <trkpt lat="38.84220067" lon="-0.115395">
        <ele>64.0</ele>
        <time>2018-06-10T08:05:30.038Z</time>
      </trkpt>
      <trkpt lat="38.84215483" lon="-0.11538417">
        <ele>64.0</ele>
        <time>2018-06-10T08:05:31.038Z</time>
      </trkpt>
      <trkpt lat="38.842108" lon="-0.1153735">
        <ele>65.0</ele>
        <time>2018-06-10T08:05:32.038Z</time>
      </trkpt>
      <trkpt lat="38.842061" lon="-0.1153665">
        <ele>66.0</ele>
        <time>2018-06-10T08:05:33.038Z</time>
      </trkpt>
      <trkpt lat="38.84201467" lon="-0.11536167">
        <ele>66.0</ele>
        <time>2018-06-10T08:05:34.038Z</time>
      </trkpt>
      <trkpt lat="38.84196967" lon="-0.115357">
        <ele>66.0</ele>
        <time>2018-06-10T08:05:35.038Z</time>
      </trkpt>
      <trkpt lat="38.841926" lon="-0.11534983">
        <ele>67.0</ele>
        <time>2018-06-10T08:05:36.038Z</time>
      </trkpt>
      <trkpt lat="38.84188017" lon="-0.11534117">
        <ele>68.0</ele>
        <time>2018-06-10T08:05:37.038Z</time>
      </trkpt>
      <trkpt lat="38.84183217" lon="-0.11533467">
        <ele>69.0</ele>
        <time>2018-06-10T08:05:38.038Z</time>
      </trkpt>
      <trkpt lat="38.8417825" lon="-0.11532883">
        <ele>71.0</ele>
        <time>2018-06-10T08:05:39.038Z</time>
      </trkpt>
      <trkpt lat="38.84173467" lon="-0.1153245">
        <ele>72.0</ele>
        <time>2018-06-10T08:05:40.038Z</time>
      </trkpt>
      <trkpt lat="38.841689" lon="-0.11532033">
        <ele>73.0</ele>
        <time>2018-06-10T08:05:41.038Z</time>
      </trkpt>
      <trkpt lat="38.84164717" lon="-0.115315">
        <ele>73.0</ele>
        <time>2018-06-10T08:05:42.038Z</time>
      </trkpt>
      <trkpt lat="38.8416095" lon="-0.11531233">
        <ele>73.0</ele>
        <time>2018-06-10T08:05:43.038Z</time>
      </trkpt>
      <trkpt lat="38.84157667" lon="-0.11531">
        <ele>71.0</ele>
        <time>2018-06-10T08:05:44.038Z</time>
      </trkpt>
      <trkpt lat="38.84154783" lon="-0.11530717">
        <ele>69.0</ele>
        <time>2018-06-10T08:05:45.038Z</time>
      </trkpt>
      <trkpt lat="38.84152067" lon="-0.11530333">
        <ele>68.0</ele>
        <time>2018-06-10T08:05:46.038Z</time>
      </trkpt>
      <trkpt lat="38.84149583" lon="-0.1152985">
        <ele>66.0</ele>
        <time>2018-06-10T08:05:47.038Z</time>
      </trkpt>
      <trkpt lat="38.84147167" lon="-0.115295">
        <ele>64.0</ele>
        <time>2018-06-10T08:05:48.038Z</time>
      </trkpt>
      <trkpt lat="38.84144917" lon="-0.11528867">
        <ele>63.0</ele>
        <time>2018-06-10T08:05:49.038Z</time>
      </trkpt>
      <trkpt lat="38.84142683" lon="-0.11528083">
        <ele>62.0</ele>
        <time>2018-06-10T08:05:50.038Z</time>
      </trkpt>
      <trkpt lat="38.84139683" lon="-0.1152635">
        <ele>66.0</ele>
        <time>2018-06-10T08:05:51.038Z</time>
      </trkpt>
      <trkpt lat="38.84136483" lon="-0.11523367">
        <ele>68.0</ele>
        <time>2018-06-10T08:05:52.038Z</time>
      </trkpt>
      <trkpt lat="38.84132333" lon="-0.11519083">
        <ele>72.0</ele>
        <time>2018-06-10T08:05:53.038Z</time>
      </trkpt>
      <trkpt lat="38.8412775" lon="-0.11515167">
        <ele>71.0</ele>
        <time>2018-06-10T08:05:54.038Z</time>
      </trkpt>
      <trkpt lat="38.841225" lon="-0.1151225">
        <ele>69.0</ele>
        <time>2018-06-10T08:05:55.038Z</time>
      </trkpt>
      <trkpt lat="38.84117567" lon="-0.1151025">
        <ele>68.0</ele>
        <time>2018-06-10T08:05:56.038Z</time>
      </trkpt>
      <trkpt lat="38.8411315" lon="-0.1150855">
        <ele>68.0</ele>
        <time>2018-06-10T08:05:57.038Z</time>
      </trkpt>
      <trkpt lat="38.84109" lon="-0.11506933">
        <ele>67.0</ele>
        <time>2018-06-10T08:05:58.038Z</time>
      </trkpt>
      <trkpt lat="38.84104767" lon="-0.1150565">
        <ele>66.0</ele>
        <time>2018-06-10T08:05:59.038Z</time>
      </trkpt>
      <trkpt lat="38.84099633" lon="-0.11504467">
        <ele>64.0</ele>
        <time>2018-06-10T08:06:00.038Z</time>
      </trkpt>
      <trkpt lat="38.84094067" lon="-0.11503617">
        <ele>62.0</ele>
        <time>2018-06-10T08:06:01.038Z</time>
      </trkpt>
      <trkpt lat="38.84088167" lon="-0.11502883">
        <ele>61.0</ele>
        <time>2018-06-10T08:06:02.038Z</time>
      </trkpt>
      <trkpt lat="38.840829" lon="-0.11502383">
        <ele>60.0</ele>
        <time>2018-06-10T08:06:03.038Z</time>
      </trkpt>
      <trkpt lat="38.84077717" lon="-0.11501567">
        <ele>59.0</ele>
        <time>2018-06-10T08:06:04.038Z</time>
      </trkpt>
      <trkpt lat="38.8407235" lon="-0.11500083">
        <ele>58.0</ele>
        <time>2018-06-10T08:06:05.038Z</time>
      </trkpt>
      <trkpt lat="38.84066983" lon="-0.11497633">
        <ele>57.0</ele>
        <time>2018-06-10T08:06:06.038Z</time>
      </trkpt>
      <trkpt lat="38.84061717" lon="-0.11495217">
        <ele>55.0</ele>
        <time>2018-06-10T08:06:07.038Z</time>
      </trkpt>
      <trkpt lat="38.84056667" lon="-0.11492817">
        <ele>55.0</ele>
        <time>2018-06-10T08:06:08.038Z</time>
      </trkpt>
      <trkpt lat="38.840518" lon="-0.11491117">
        <ele>55.0</ele>
        <time>2018-06-10T08:06:09.038Z</time>
      </trkpt>
      <trkpt lat="38.840473" lon="-0.114892">
        <ele>55.0</ele>
        <time>2018-06-10T08:06:10.038Z</time>
      </trkpt>
      <trkpt lat="38.8404315" lon="-0.11487667">
        <ele>55.0</ele>
        <time>2018-06-10T08:06:11.038Z</time>
      </trkpt>
      <trkpt lat="38.84039283" lon="-0.11486317">
        <ele>55.0</ele>
        <time>2018-06-10T08:06:12.038Z</time>
      </trkpt>
      <trkpt lat="38.84035583" lon="-0.1148505">
        <ele>55.0</ele>
        <time>2018-06-10T08:06:13.038Z</time>
      </trkpt>
      <trkpt lat="38.840319" lon="-0.114843">
        <ele>55.0</ele>
        <time>2018-06-10T08:06:14.038Z</time>
      </trkpt>
      <trkpt lat="38.8402865" lon="-0.11482733">
        <ele>55.0</ele>
        <time>2018-06-10T08:06:15.038Z</time>
      </trkpt>
      <trkpt lat="38.8402615" lon="-0.11480933">
        <ele>55.0</ele>
        <time>2018-06-10T08:06:16.038Z</time>
      </trkpt>
      <trkpt lat="38.84024083" lon="-0.114784">
        <ele>58.0</ele>
        <time>2018-06-10T08:06:17.038Z</time>
      </trkpt>
      <trkpt lat="38.84022433" lon="-0.11475517">
        <ele>57.0</ele>
        <time>2018-06-10T08:06:18.038Z</time>
      </trkpt>
      <trkpt lat="38.84020417" lon="-0.1147185">
        <ele>58.0</ele>
        <time>2018-06-10T08:06:19.038Z</time>
      </trkpt>
      <trkpt lat="38.840192" lon="-0.1146645">
        <ele>56.0</ele>
        <time>2018-06-10T08:06:20.038Z</time>
      </trkpt>
      <trkpt lat="38.84018117" lon="-0.11460867">
        <ele>57.0</ele>
        <time>2018-06-10T08:06:21.038Z</time>
      </trkpt>
      <trkpt lat="38.84018017" lon="-0.11454433">
        <ele>57.0</ele>
        <time>2018-06-10T08:06:22.038Z</time>
      </trkpt>
      <trkpt lat="38.840195" lon="-0.11447933">
        <ele>61.0</ele>
        <time>2018-06-10T08:06:23.038Z</time>
      </trkpt>
      <trkpt lat="38.84022367" lon="-0.11440983">
        <ele>62.0</ele>
        <time>2018-06-10T08:06:24.038Z</time>
      </trkpt>
      <trkpt lat="38.84025317" lon="-0.11434867">
        <ele>63.0</ele>
        <time>2018-06-10T08:06:25.038Z</time>
      </trkpt>
      <trkpt lat="38.840267" lon="-0.11429633">
        <ele>62.0</ele>
        <time>2018-06-10T08:06:26.038Z</time>
      </trkpt>
      <trkpt lat="38.84025533" lon="-0.11425117">
        <ele>57.0</ele>
        <time>2018-06-10T08:06:27.038Z</time>
      </trkpt>
      <trkpt lat="38.8402365" lon="-0.11420817">
        <ele>57.0</ele>
        <time>2018-06-10T08:06:28.038Z</time>
      </trkpt>
      <trkpt lat="38.84021133" lon="-0.1141725">
        <ele>57.0</ele>
        <time>2018-06-10T08:06:29.038Z</time>
      </trkpt>
      <trkpt lat="38.840191" lon="-0.1141435">
        <ele>56.0</ele>
        <time>2018-06-10T08:06:30.038Z</time>
      </trkpt>
      <trkpt lat="38.84016217" lon="-0.114122">
        <ele>55.0</ele>
        <time>2018-06-10T08:06:31.038Z</time>
      </trkpt>
      <trkpt lat="38.84012733" lon="-0.11410383">
        <ele>54.0</ele>
        <time>2018-06-10T08:06:32.038Z</time>
      </trkpt>
      <trkpt lat="38.84008767" lon="-0.11408517">
        <ele>52.0</ele>
        <time>2018-06-10T08:06:33.038Z</time>
      </trkpt>
      <trkpt lat="38.84004333" lon="-0.11406783">
        <ele>52.0</ele>
        <time>2018-06-10T08:06:34.038Z</time>
      </trkpt>
      <trkpt lat="38.83998967" lon="-0.1140615">
        <ele>55.0</ele>
        <time>2018-06-10T08:06:35.038Z</time>
      </trkpt>
      <trkpt lat="38.83993183" lon="-0.114061">
        <ele>55.0</ele>
        <time>2018-06-10T08:06:36.038Z</time>
      </trkpt>
      <trkpt lat="38.83987167" lon="-0.11406233">
        <ele>55.0</ele>
        <time>2018-06-10T08:06:37.038Z</time>
      </trkpt>
      <trkpt lat="38.839816" lon="-0.1140545">
        <ele>54.0</ele>
        <time>2018-06-10T08:06:38.038Z</time>
      </trkpt>
      <trkpt lat="38.839762" lon="-0.114042">
        <ele>53.0</ele>
        <time>2018-06-10T08:06:39.038Z</time>
      </trkpt>
      <trkpt lat="38.83970767" lon="-0.1140285">
        <ele>52.0</ele>
        <time>2018-06-10T08:06:40.038Z</time>
      </trkpt>
      <trkpt lat="38.83965233" lon="-0.11401617">
        <ele>51.0</ele>
        <time>2018-06-10T08:06:41.038Z</time>
      </trkpt>
      <trkpt lat="38.83959533" lon="-0.11400633">
        <ele>50.0</ele>
        <time>2018-06-10T08:06:42.038Z</time>
      </trkpt>
      <trkpt lat="38.839537" lon="-0.11399933">
        <ele>50.0</ele>
        <time>2018-06-10T08:06:43.038Z</time>
      </trkpt>
      <trkpt lat="38.83947667" lon="-0.113991">
        <ele>51.0</ele>
        <time>2018-06-10T08:06:44.038Z</time>
      </trkpt>
      <trkpt lat="38.83941367" lon="-0.1139865">
        <ele>52.0</ele>
        <time>2018-06-10T08:06:45.038Z</time>
      </trkpt>
      <trkpt lat="38.8393485" lon="-0.11398283">
        <ele>54.0</ele>
        <time>2018-06-10T08:06:46.038Z</time>
      </trkpt>
      <trkpt lat="38.8392825" lon="-0.1139815">
        <ele>55.0</ele>
        <time>2018-06-10T08:06:47.038Z</time>
      </trkpt>
      <trkpt lat="38.83921783" lon="-0.11397767">
        <ele>56.0</ele>
        <time>2018-06-10T08:06:48.038Z</time>
      </trkpt>
      <trkpt lat="38.8391575" lon="-0.11397167">
        <ele>55.0</ele>
        <time>2018-06-10T08:06:49.038Z</time>
      </trkpt>
      <trkpt lat="38.839098" lon="-0.11396533">
        <ele>57.0</ele>
        <time>2018-06-10T08:06:50.038Z</time>
      </trkpt>
      <trkpt lat="38.83903633" lon="-0.11396033">
        <ele>58.0</ele>
        <time>2018-06-10T08:06:51.038Z</time>
      </trkpt>
      <trkpt lat="38.83897367" lon="-0.1139545">
        <ele>58.0</ele>
        <time>2018-06-10T08:06:52.038Z</time>
      </trkpt>
      <trkpt lat="38.83891167" lon="-0.11394767">
        <ele>58.0</ele>
        <time>2018-06-10T08:06:53.038Z</time>
      </trkpt>
      <trkpt lat="38.83885083" lon="-0.11394033">
        <ele>59.0</ele>
        <time>2018-06-10T08:06:54.038Z</time>
      </trkpt>
      <trkpt lat="38.8387895" lon="-0.11393467">
        <ele>60.0</ele>
        <time>2018-06-10T08:06:55.038Z</time>
      </trkpt>
      <trkpt lat="38.838729" lon="-0.11392817">
        <ele>60.0</ele>
        <time>2018-06-10T08:06:56.038Z</time>
      </trkpt>
      <trkpt lat="38.8386705" lon="-0.11392117">
        <ele>60.0</ele>
        <time>2018-06-10T08:06:57.038Z</time>
      </trkpt>
      <trkpt lat="38.83861367" lon="-0.11391333">
        <ele>60.0</ele>
        <time>2018-06-10T08:06:58.038Z</time>
      </trkpt>
      <trkpt lat="38.83855933" lon="-0.11390517">
        <ele>58.0</ele>
        <time>2018-06-10T08:06:59.038Z</time>
      </trkpt>
      <trkpt lat="38.83850533" lon="-0.11389617">
        <ele>58.0</ele>
        <time>2018-06-10T08:07:00.038Z</time>
      </trkpt>
      <trkpt lat="38.8384535" lon="-0.11388717">
        <ele>57.0</ele>
        <time>2018-06-10T08:07:01.038Z</time>
      </trkpt>
      <trkpt lat="38.83840183" lon="-0.11388117">
        <ele>56.0</ele>
        <time>2018-06-10T08:07:02.038Z</time>
      </trkpt>
      <trkpt lat="38.8383505" lon="-0.11387833">
        <ele>58.0</ele>
        <time>2018-06-10T08:07:03.038Z</time>
      </trkpt>
      <trkpt lat="38.83829983" lon="-0.1138755">
        <ele>57.0</ele>
        <time>2018-06-10T08:07:04.038Z</time>
      </trkpt>
      <trkpt lat="38.83825" lon="-0.11387017">
        <ele>57.0</ele>
        <time>2018-06-10T08:07:05.038Z</time>
      </trkpt>
      <trkpt lat="38.83820167" lon="-0.1138585">
        <ele>57.0</ele>
        <time>2018-06-10T08:07:06.038Z</time>
      </trkpt>
      <trkpt lat="38.8381495" lon="-0.1138385">
        <ele>59.0</ele>
        <time>2018-06-10T08:07:07.038Z</time>
      </trkpt>
      <trkpt lat="38.83809717" lon="-0.11381633">
        <ele>58.0</ele>
        <time>2018-06-10T08:07:08.038Z</time>
      </trkpt>
      <trkpt lat="38.83804783" lon="-0.11379483">
        <ele>58.0</ele>
        <time>2018-06-10T08:07:09.038Z</time>
      </trkpt>
      <trkpt lat="38.83801017" lon="-0.11377683">
        <ele>60.0</ele>
        <time>2018-06-10T08:07:10.038Z</time>
      </trkpt>
      <trkpt lat="38.83797567" lon="-0.113762">
        <ele>61.0</ele>
        <time>2018-06-10T08:07:11.038Z</time>
      </trkpt>
      <trkpt lat="38.8379435" lon="-0.113752">
        <ele>61.0</ele>
        <time>2018-06-10T08:07:12.038Z</time>
      </trkpt>
      <trkpt lat="38.8379125" lon="-0.11375317">
        <ele>60.0</ele>
        <time>2018-06-10T08:07:13.038Z</time>
      </trkpt>
      <trkpt lat="38.83789017" lon="-0.113764">
        <ele>58.0</ele>
        <time>2018-06-10T08:07:14.038Z</time>
      </trkpt>
      <trkpt lat="38.83786983" lon="-0.11378733">
        <ele>59.0</ele>
        <time>2018-06-10T08:07:15.038Z</time>
      </trkpt>
      <trkpt lat="38.837849" lon="-0.1138145">
        <ele>59.0</ele>
        <time>2018-06-10T08:07:16.038Z</time>
      </trkpt>
      <trkpt lat="38.8378275" lon="-0.11384167">
        <ele>60.0</ele>
        <time>2018-06-10T08:07:17.038Z</time>
      </trkpt>
      <trkpt lat="38.83781183" lon="-0.1138685">
        <ele>60.0</ele>
        <time>2018-06-10T08:07:18.038Z</time>
      </trkpt>
      <trkpt lat="38.83779933" lon="-0.1139005">
        <ele>61.0</ele>
        <time>2018-06-10T08:07:19.038Z</time>
      </trkpt>
      <trkpt lat="38.83778867" lon="-0.11393633">
        <ele>62.0</ele>
        <time>2018-06-10T08:07:20.038Z</time>
      </trkpt>
      <trkpt lat="38.837776" lon="-0.11397167">
        <ele>62.0</ele>
        <time>2018-06-10T08:07:21.038Z</time>
      </trkpt>
      <trkpt lat="38.8377585" lon="-0.11401283">
        <ele>62.0</ele>
        <time>2018-06-10T08:07:22.038Z</time>
      </trkpt>
      <trkpt lat="38.83773767" lon="-0.11406117">
        <ele>64.0</ele>
        <time>2018-06-10T08:07:23.038Z</time>
      </trkpt>
      <trkpt lat="38.83771533" lon="-0.114109">
        <ele>64.0</ele>
        <time>2018-06-10T08:07:24.038Z</time>
      </trkpt>
      <trkpt lat="38.83769617" lon="-0.11414583">
        <ele>63.0</ele>
        <time>2018-06-10T08:07:25.038Z</time>
      </trkpt>
      <trkpt lat="38.8376785" lon="-0.11417267">
        <ele>64.0</ele>
        <time>2018-06-10T08:07:26.038Z</time>
      </trkpt>
      <trkpt lat="38.837658" lon="-0.11419567">
        <ele>64.0</ele>
        <time>2018-06-10T08:07:27.038Z</time>
      </trkpt>
      <trkpt lat="38.837632" lon="-0.11421917">
        <ele>63.0</ele>
        <time>2018-06-10T08:07:28.038Z</time>
      </trkpt>
      <trkpt lat="38.83759283" lon="-0.1142275">
        <ele>65.0</ele>
        <time>2018-06-10T08:07:29.038Z</time>
      </trkpt>
      <trkpt lat="38.837548" lon="-0.11422533">
        <ele>64.0</ele>
        <time>2018-06-10T08:07:30.038Z</time>
      </trkpt>
      <trkpt lat="38.837499" lon="-0.11421167">
        <ele>64.0</ele>
        <time>2018-06-10T08:07:31.038Z</time>
      </trkpt>
      <trkpt lat="38.83745267" lon="-0.114199">
        <ele>65.0</ele>
        <time>2018-06-10T08:07:32.038Z</time>
      </trkpt>
      <trkpt lat="38.8374045" lon="-0.114176">
        <ele>67.0</ele>
        <time>2018-06-10T08:07:33.038Z</time>
      </trkpt>
      <trkpt lat="38.8373535" lon="-0.1141435">
        <ele>68.0</ele>
        <time>2018-06-10T08:07:34.038Z</time>
      </trkpt>
      <trkpt lat="38.8373005" lon="-0.11410567">
        <ele>69.0</ele>
        <time>2018-06-10T08:07:35.038Z</time>
      </trkpt>
      <trkpt lat="38.83724683" lon="-0.11407267">
        <ele>69.0</ele>
        <time>2018-06-10T08:07:36.038Z</time>
      </trkpt>
      <trkpt lat="38.83719333" lon="-0.11404367">
        <ele>69.0</ele>
        <time>2018-06-10T08:07:37.038Z</time>
      </trkpt>
      <trkpt lat="38.83713833" lon="-0.11401417">
        <ele>70.0</ele>
        <time>2018-06-10T08:07:38.038Z</time>
      </trkpt>
      <trkpt lat="38.83708283" lon="-0.11398483">
        <ele>70.0</ele>
        <time>2018-06-10T08:07:39.038Z</time>
      </trkpt>
      <trkpt lat="38.83702617" lon="-0.11395517">
        <ele>69.0</ele>
        <time>2018-06-10T08:07:40.038Z</time>
      </trkpt>
      <trkpt lat="38.836971" lon="-0.11392617">
        <ele>70.0</ele>
        <time>2018-06-10T08:07:41.038Z</time>
      </trkpt>
      <trkpt lat="38.83691667" lon="-0.11389217">
        <ele>70.0</ele>
        <time>2018-06-10T08:07:42.038Z</time>
      </trkpt>
      <trkpt lat="38.83686533" lon="-0.1138525">
        <ele>69.0</ele>
        <time>2018-06-10T08:07:43.038Z</time>
      </trkpt>
      <trkpt lat="38.83681567" lon="-0.11380733">
        <ele>69.0</ele>
        <time>2018-06-10T08:07:44.038Z</time>
      </trkpt>
      <trkpt lat="38.83676667" lon="-0.11375833">
        <ele>70.0</ele>
        <time>2018-06-10T08:07:45.038Z</time>
      </trkpt>
      <trkpt lat="38.83671833" lon="-0.1137055">
        <ele>69.0</ele>
        <time>2018-06-10T08:07:46.038Z</time>
      </trkpt>
      <trkpt lat="38.83667267" lon="-0.11364783">
        <ele>69.0</ele>
        <time>2018-06-10T08:07:47.038Z</time>
      </trkpt>
      <trkpt lat="38.83663117" lon="-0.11358617">
        <ele>69.0</ele>
        <time>2018-06-10T08:07:48.038Z</time>
      </trkpt>
      <trkpt lat="38.83659233" lon="-0.11352183">
        <ele>70.0</ele>
        <time>2018-06-10T08:07:49.038Z</time>
      </trkpt>
      <trkpt lat="38.83655433" lon="-0.11345683">
        <ele>70.0</ele>
        <time>2018-06-10T08:07:50.038Z</time>
      </trkpt>
      <trkpt lat="38.83651683" lon="-0.11339083">
        <ele>70.0</ele>
        <time>2018-06-10T08:07:51.038Z</time>
      </trkpt>
      <trkpt lat="38.83648017" lon="-0.1133245">
        <ele>70.0</ele>
        <time>2018-06-10T08:07:52.038Z</time>
      </trkpt>
      <trkpt lat="38.83644483" lon="-0.11325717">
        <ele>70.0</ele>
        <time>2018-06-10T08:07:53.038Z</time>
      </trkpt>
      <trkpt lat="38.83641083" lon="-0.11318933">
        <ele>71.0</ele>
        <time>2018-06-10T08:07:54.038Z</time>
      </trkpt>
      <trkpt lat="38.83637633" lon="-0.11312167">
        <ele>71.0</ele>
        <time>2018-06-10T08:07:55.038Z</time>
      </trkpt>
      <trkpt lat="38.83634133" lon="-0.1130545">
        <ele>71.0</ele>
        <time>2018-06-10T08:07:56.038Z</time>
      </trkpt>
      <trkpt lat="38.83630517" lon="-0.11298783">
        <ele>71.0</ele>
        <time>2018-06-10T08:07:57.038Z</time>
      </trkpt>
      <trkpt lat="38.8362695" lon="-0.11292167">
        <ele>71.0</ele>
        <time>2018-06-10T08:07:58.038Z</time>
      </trkpt>
      <trkpt lat="38.836234" lon="-0.11285633">
        <ele>72.0</ele>
        <time>2018-06-10T08:07:59.038Z</time>
      </trkpt>
      <trkpt lat="38.8361995" lon="-0.11279217">
        <ele>72.0</ele>
        <time>2018-06-10T08:08:00.038Z</time>
      </trkpt>
      <trkpt lat="38.83616633" lon="-0.11272967">
        <ele>72.0</ele>
        <time>2018-06-10T08:08:01.038Z</time>
      </trkpt>
      <trkpt lat="38.83613467" lon="-0.11266917">
        <ele>73.0</ele>
        <time>2018-06-10T08:08:02.038Z</time>
      </trkpt>
      <trkpt lat="38.83610417" lon="-0.112611">
        <ele>73.0</ele>
        <time>2018-06-10T08:08:03.038Z</time>
      </trkpt>
      <trkpt lat="38.83607383" lon="-0.11255483">
        <ele>73.0</ele>
        <time>2018-06-10T08:08:04.038Z</time>
      </trkpt>
      <trkpt lat="38.83604333" lon="-0.11250083">
        <ele>74.0</ele>
        <time>2018-06-10T08:08:05.038Z</time>
      </trkpt>
      <trkpt lat="38.83601217" lon="-0.11244867">
        <ele>74.0</ele>
        <time>2018-06-10T08:08:06.038Z</time>
      </trkpt>
      <trkpt lat="38.83598017" lon="-0.11239817">
        <ele>75.0</ele>
        <time>2018-06-10T08:08:07.038Z</time>
      </trkpt>
      <trkpt lat="38.83594817" lon="-0.1123485">
        <ele>75.0</ele>
        <time>2018-06-10T08:08:08.038Z</time>
      </trkpt>
      <trkpt lat="38.8359155" lon="-0.1123005">
        <ele>75.0</ele>
        <time>2018-06-10T08:08:09.038Z</time>
      </trkpt>
      <trkpt lat="38.83588133" lon="-0.11225417">
        <ele>76.0</ele>
        <time>2018-06-10T08:08:10.038Z</time>
      </trkpt>
      <trkpt lat="38.83584433" lon="-0.11221067">
        <ele>75.0</ele>
        <time>2018-06-10T08:08:11.038Z</time>
      </trkpt>
      <trkpt lat="38.8358035" lon="-0.11217033">
        <ele>75.0</ele>
        <time>2018-06-10T08:08:12.038Z</time>
      </trkpt>
      <trkpt lat="38.83575317" lon="-0.11213967">
        <ele>75.0</ele>
        <time>2018-06-10T08:08:13.038Z</time>
      </trkpt>
      <trkpt lat="38.83569783" lon="-0.11211517">
        <ele>75.0</ele>
        <time>2018-06-10T08:08:14.038Z</time>
      </trkpt>
      <trkpt lat="38.83564017" lon="-0.112095">
        <ele>75.0</ele>
        <time>2018-06-10T08:08:15.038Z</time>
      </trkpt>
      <trkpt lat="38.83558583" lon="-0.112072">
        <ele>75.0</ele>
        <time>2018-06-10T08:08:16.038Z</time>
      </trkpt>
      <trkpt lat="38.835532" lon="-0.11204833">
        <ele>75.0</ele>
        <time>2018-06-10T08:08:17.038Z</time>
      </trkpt>
      <trkpt lat="38.83547667" lon="-0.11202517">
        <ele>75.0</ele>
        <time>2018-06-10T08:08:18.038Z</time>
      </trkpt>
      <trkpt lat="38.835421" lon="-0.11200183">
        <ele>75.0</ele>
        <time>2018-06-10T08:08:19.038Z</time>
      </trkpt>
      <trkpt lat="38.83536467" lon="-0.11197733">
        <ele>75.0</ele>
        <time>2018-06-10T08:08:20.038Z</time>
      </trkpt>
      <trkpt lat="38.83530833" lon="-0.11195217">
        <ele>75.0</ele>
        <time>2018-06-10T08:08:21.038Z</time>
      </trkpt>
      <trkpt lat="38.83525133" lon="-0.1119265">
        <ele>75.0</ele>
        <time>2018-06-10T08:08:22.038Z</time>
      </trkpt>
      <trkpt lat="38.83519367" lon="-0.11190167">
        <ele>75.0</ele>
        <time>2018-06-10T08:08:23.038Z</time>
      </trkpt>
      <trkpt lat="38.83513533" lon="-0.11187717">
        <ele>75.0</ele>
        <time>2018-06-10T08:08:24.038Z</time>
      </trkpt>
      <trkpt lat="38.83507633" lon="-0.11185333">
        <ele>75.0</ele>
        <time>2018-06-10T08:08:25.038Z</time>
      </trkpt>
      <trkpt lat="38.835017" lon="-0.1118295">
        <ele>75.0</ele>
        <time>2018-06-10T08:08:26.038Z</time>
      </trkpt>
      <trkpt lat="38.83495767" lon="-0.11180533">
        <ele>75.0</ele>
        <time>2018-06-10T08:08:27.038Z</time>
      </trkpt>
      <trkpt lat="38.83489833" lon="-0.11178067">
        <ele>75.0</ele>
        <time>2018-06-10T08:08:28.038Z</time>
      </trkpt>
      <trkpt lat="38.83483883" lon="-0.111756">
        <ele>75.0</ele>
        <time>2018-06-10T08:08:29.038Z</time>
      </trkpt>
      <trkpt lat="38.83477917" lon="-0.11173033">
        <ele>75.0</ele>
        <time>2018-06-10T08:08:30.038Z</time>
      </trkpt>
      <trkpt lat="38.83472033" lon="-0.11170383">
        <ele>75.0</ele>
        <time>2018-06-10T08:08:31.038Z</time>
      </trkpt>
      <trkpt lat="38.83466267" lon="-0.11167533">
        <ele>75.0</ele>
        <time>2018-06-10T08:08:32.038Z</time>
      </trkpt>
      <trkpt lat="38.83460733" lon="-0.11164367">
        <ele>75.0</ele>
        <time>2018-06-10T08:08:33.038Z</time>
      </trkpt>
      <trkpt lat="38.83455517" lon="-0.11160667">
        <ele>75.0</ele>
        <time>2018-06-10T08:08:34.038Z</time>
      </trkpt>
      <trkpt lat="38.834507" lon="-0.11156367">
        <ele>75.0</ele>
        <time>2018-06-10T08:08:35.038Z</time>
      </trkpt>
      <trkpt lat="38.83446317" lon="-0.1115145">
        <ele>75.0</ele>
        <time>2018-06-10T08:08:36.038Z</time>
      </trkpt>
      <trkpt lat="38.834424" lon="-0.11145967">
        <ele>75.0</ele>
        <time>2018-06-10T08:08:37.038Z</time>
      </trkpt>
      <trkpt lat="38.83438967" lon="-0.11140017">
        <ele>75.0</ele>
        <time>2018-06-10T08:08:38.038Z</time>
      </trkpt>
      <trkpt lat="38.83435983" lon="-0.11133717">
        <ele>75.0</ele>
        <time>2018-06-10T08:08:39.038Z</time>
      </trkpt>
      <trkpt lat="38.834334" lon="-0.11127233">
        <ele>75.0</ele>
        <time>2018-06-10T08:08:40.038Z</time>
      </trkpt>
      <trkpt lat="38.834311" lon="-0.1112065">
        <ele>75.0</ele>
        <time>2018-06-10T08:08:41.038Z</time>
      </trkpt>
      <trkpt lat="38.83429067" lon="-0.111141">
        <ele>76.0</ele>
        <time>2018-06-10T08:08:42.038Z</time>
      </trkpt>
      <trkpt lat="38.8342725" lon="-0.111075">
        <ele>76.0</ele>
        <time>2018-06-10T08:08:43.038Z</time>
      </trkpt>
      <trkpt lat="38.83425633" lon="-0.11100883">
        <ele>76.0</ele>
        <time>2018-06-10T08:08:44.038Z</time>
      </trkpt>
      <trkpt lat="38.83424083" lon="-0.11094283">
        <ele>76.0</ele>
        <time>2018-06-10T08:08:45.038Z</time>
      </trkpt>
      <trkpt lat="38.83422667" lon="-0.11087717">
        <ele>77.0</ele>
        <time>2018-06-10T08:08:46.038Z</time>
      </trkpt>
      <trkpt lat="38.83421333" lon="-0.11081117">
        <ele>77.0</ele>
        <time>2018-06-10T08:08:47.038Z</time>
      </trkpt>
      <trkpt lat="38.83420167" lon="-0.1107445">
        <ele>77.0</ele>
        <time>2018-06-10T08:08:48.038Z</time>
      </trkpt>
      <trkpt lat="38.83419167" lon="-0.1106775">
        <ele>77.0</ele>
        <time>2018-06-10T08:08:49.038Z</time>
      </trkpt>
      <trkpt lat="38.8341835" lon="-0.11061017">
        <ele>78.0</ele>
        <time>2018-06-10T08:08:50.038Z</time>
      </trkpt>
      <trkpt lat="38.83417633" lon="-0.11054317">
        <ele>78.0</ele>
        <time>2018-06-10T08:08:51.038Z</time>
      </trkpt>
      <trkpt lat="38.8341685" lon="-0.11047667">
        <ele>78.0</ele>
        <time>2018-06-10T08:08:52.038Z</time>
      </trkpt>
      <trkpt lat="38.83415967" lon="-0.11041083">
        <ele>78.0</ele>
        <time>2018-06-10T08:08:53.038Z</time>
      </trkpt>
      <trkpt lat="38.83415017" lon="-0.11034533">
        <ele>79.0</ele>
        <time>2018-06-10T08:08:54.038Z</time>
      </trkpt>
      <trkpt lat="38.83414133" lon="-0.11027983">
        <ele>79.0</ele>
        <time>2018-06-10T08:08:55.038Z</time>
      </trkpt>
      <trkpt lat="38.83413267" lon="-0.11021383">
        <ele>79.0</ele>
        <time>2018-06-10T08:08:56.038Z</time>
      </trkpt>
      <trkpt lat="38.8341235" lon="-0.11014783">
        <ele>79.0</ele>
        <time>2018-06-10T08:08:57.038Z</time>
      </trkpt>
      <trkpt lat="38.834114" lon="-0.110082">
        <ele>80.0</ele>
        <time>2018-06-10T08:08:58.038Z</time>
      </trkpt>
      <trkpt lat="38.83410483" lon="-0.1100165">
        <ele>80.0</ele>
        <time>2018-06-10T08:08:59.038Z</time>
      </trkpt>
      <trkpt lat="38.8340965" lon="-0.10995133">
        <ele>80.0</ele>
        <time>2018-06-10T08:09:00.038Z</time>
      </trkpt>
      <trkpt lat="38.83408833" lon="-0.1098865">
        <ele>80.0</ele>
        <time>2018-06-10T08:09:01.038Z</time>
      </trkpt>
      <trkpt lat="38.83408017" lon="-0.10982167">
        <ele>81.0</ele>
        <time>2018-06-10T08:09:02.038Z</time>
      </trkpt>
      <trkpt lat="38.8340725" lon="-0.10975767">
        <ele>81.0</ele>
        <time>2018-06-10T08:09:03.038Z</time>
      </trkpt>
      <trkpt lat="38.83406533" lon="-0.109695">
        <ele>81.0</ele>
        <time>2018-06-10T08:09:04.038Z</time>
      </trkpt>
      <trkpt lat="38.83405833" lon="-0.1096335">
        <ele>82.0</ele>
        <time>2018-06-10T08:09:05.038Z</time>
      </trkpt>
      <trkpt lat="38.83405117" lon="-0.10957283">
        <ele>82.0</ele>
        <time>2018-06-10T08:09:06.038Z</time>
      </trkpt>
      <trkpt lat="38.83404383" lon="-0.1095125">
        <ele>82.0</ele>
        <time>2018-06-10T08:09:07.038Z</time>
      </trkpt>
      <trkpt lat="38.83403717" lon="-0.10945217">
        <ele>82.0</ele>
        <time>2018-06-10T08:09:08.038Z</time>
      </trkpt>
      <trkpt lat="38.83403167" lon="-0.10939183">
        <ele>83.0</ele>
        <time>2018-06-10T08:09:09.038Z</time>
      </trkpt>
      <trkpt lat="38.83402733" lon="-0.1093315">
        <ele>83.0</ele>
        <time>2018-06-10T08:09:10.038Z</time>
      </trkpt>
      <trkpt lat="38.8340245" lon="-0.109271">
        <ele>83.0</ele>
        <time>2018-06-10T08:09:11.038Z</time>
      </trkpt>
      <trkpt lat="38.8340225" lon="-0.1092105">
        <ele>83.0</ele>
        <time>2018-06-10T08:09:12.038Z</time>
      </trkpt>
      <trkpt lat="38.8340215" lon="-0.10915">
        <ele>83.0</ele>
        <time>2018-06-10T08:09:13.038Z</time>
      </trkpt>
      <trkpt lat="38.83402167" lon="-0.1090895">
        <ele>83.0</ele>
        <time>2018-06-10T08:09:14.038Z</time>
      </trkpt>
      <trkpt lat="38.83402367" lon="-0.10902867">
        <ele>84.0</ele>
        <time>2018-06-10T08:09:15.038Z</time>
      </trkpt>
      <trkpt lat="38.83402817" lon="-0.10896817">
        <ele>84.0</ele>
        <time>2018-06-10T08:09:16.038Z</time>
      </trkpt>
      <trkpt lat="38.83403467" lon="-0.1089075">
        <ele>84.0</ele>
        <time>2018-06-10T08:09:17.038Z</time>
      </trkpt>
      <trkpt lat="38.83404167" lon="-0.10884733">
        <ele>85.0</ele>
        <time>2018-06-10T08:09:18.038Z</time>
      </trkpt>
      <trkpt lat="38.83404867" lon="-0.10878767">
        <ele>85.0</ele>
        <time>2018-06-10T08:09:19.038Z</time>
      </trkpt>
      <trkpt lat="38.8340555" lon="-0.10872867">
        <ele>85.0</ele>
        <time>2018-06-10T08:09:20.038Z</time>
      </trkpt>
      <trkpt lat="38.8340625" lon="-0.10866967">
        <ele>85.0</ele>
        <time>2018-06-10T08:09:21.038Z</time>
      </trkpt>
      <trkpt lat="38.83406933" lon="-0.10861033">
        <ele>85.0</ele>
        <time>2018-06-10T08:09:22.038Z</time>
      </trkpt>
      <trkpt lat="38.8340765" lon="-0.108551">
        <ele>86.0</ele>
        <time>2018-06-10T08:09:23.038Z</time>
      </trkpt>
      <trkpt lat="38.8340835" lon="-0.10849167">
        <ele>86.0</ele>
        <time>2018-06-10T08:09:24.038Z</time>
      </trkpt>
      <trkpt lat="38.83409083" lon="-0.108433">
        <ele>86.0</ele>
        <time>2018-06-10T08:09:25.038Z</time>
      </trkpt>
      <trkpt lat="38.83409783" lon="-0.10837467">
        <ele>86.0</ele>
        <time>2018-06-10T08:09:26.038Z</time>
      </trkpt>
      <trkpt lat="38.83410483" lon="-0.10831667">
        <ele>86.0</ele>
        <time>2018-06-10T08:09:27.038Z</time>
      </trkpt>
      <trkpt lat="38.83411217" lon="-0.10826083">
        <ele>87.0</ele>
        <time>2018-06-10T08:09:28.038Z</time>
      </trkpt>
      <trkpt lat="38.8341205" lon="-0.1082035">
        <ele>87.0</ele>
        <time>2018-06-10T08:09:29.038Z</time>
      </trkpt>
      <trkpt lat="38.83412867" lon="-0.10814517">
        <ele>87.0</ele>
        <time>2018-06-10T08:09:30.038Z</time>
      </trkpt>
      <trkpt lat="38.834136" lon="-0.10808467">
        <ele>87.0</ele>
        <time>2018-06-10T08:09:31.038Z</time>
      </trkpt>
      <trkpt lat="38.8341405" lon="-0.10802617">
        <ele>87.0</ele>
        <time>2018-06-10T08:09:32.038Z</time>
      </trkpt>
      <trkpt lat="38.834144" lon="-0.1079695">
        <ele>88.0</ele>
        <time>2018-06-10T08:09:33.038Z</time>
      </trkpt>
      <trkpt lat="38.8341445" lon="-0.10791317">
        <ele>88.0</ele>
        <time>2018-06-10T08:09:34.038Z</time>
      </trkpt>
      <trkpt lat="38.83414317" lon="-0.10785667">
        <ele>88.0</ele>
        <time>2018-06-10T08:09:35.038Z</time>
      </trkpt>
      <trkpt lat="38.83413833" lon="-0.10779967">
        <ele>88.0</ele>
        <time>2018-06-10T08:09:36.038Z</time>
      </trkpt>
      <trkpt lat="38.8341295" lon="-0.10774283">
        <ele>88.0</ele>
        <time>2018-06-10T08:09:37.038Z</time>
      </trkpt>
      <trkpt lat="38.834115" lon="-0.107685">
        <ele>88.0</ele>
        <time>2018-06-10T08:09:38.038Z</time>
      </trkpt>
      <trkpt lat="38.83409317" lon="-0.10762633">
        <ele>88.0</ele>
        <time>2018-06-10T08:09:39.038Z</time>
      </trkpt>
      <trkpt lat="38.8340635" lon="-0.10756817">
        <ele>88.0</ele>
        <time>2018-06-10T08:09:40.038Z</time>
      </trkpt>
      <trkpt lat="38.83402433" lon="-0.10751383">
        <ele>88.0</ele>
        <time>2018-06-10T08:09:41.038Z</time>
      </trkpt>
      <trkpt lat="38.83398017" lon="-0.10746133">
        <ele>88.0</ele>
        <time>2018-06-10T08:09:42.038Z</time>
      </trkpt>
      <trkpt lat="38.83393333" lon="-0.1074095">
        <ele>88.0</ele>
        <time>2018-06-10T08:09:43.038Z</time>
      </trkpt>
      <trkpt lat="38.83388683" lon="-0.10735567">
        <ele>87.0</ele>
        <time>2018-06-10T08:09:44.038Z</time>
      </trkpt>
      <trkpt lat="38.83383833" lon="-0.10730133">
        <ele>87.0</ele>
        <time>2018-06-10T08:09:45.038Z</time>
      </trkpt>
      <trkpt lat="38.83378833" lon="-0.107246">
        <ele>87.0</ele>
        <time>2018-06-10T08:09:46.038Z</time>
      </trkpt>
      <trkpt lat="38.83373733" lon="-0.10718933">
        <ele>87.0</ele>
        <time>2018-06-10T08:09:47.038Z</time>
      </trkpt>
      <trkpt lat="38.833686" lon="-0.10713167">
        <ele>87.0</ele>
        <time>2018-06-10T08:09:48.038Z</time>
      </trkpt>
      <trkpt lat="38.833634" lon="-0.10707383">
        <ele>87.0</ele>
        <time>2018-06-10T08:09:49.038Z</time>
      </trkpt>
      <trkpt lat="38.8335815" lon="-0.1070155">
        <ele>87.0</ele>
        <time>2018-06-10T08:09:50.038Z</time>
      </trkpt>
      <trkpt lat="38.83352867" lon="-0.106957">
        <ele>86.0</ele>
        <time>2018-06-10T08:09:51.038Z</time>
      </trkpt>
      <trkpt lat="38.83347567" lon="-0.10689767">
        <ele>86.0</ele>
        <time>2018-06-10T08:09:52.038Z</time>
      </trkpt>
      <trkpt lat="38.8334225" lon="-0.10683867">
        <ele>86.0</ele>
        <time>2018-06-10T08:09:53.038Z</time>
      </trkpt>
      <trkpt lat="38.833369" lon="-0.10677933">
        <ele>86.0</ele>
        <time>2018-06-10T08:09:54.038Z</time>
      </trkpt>
      <trkpt lat="38.83331517" lon="-0.10672017">
        <ele>86.0</ele>
        <time>2018-06-10T08:09:55.038Z</time>
      </trkpt>
      <trkpt lat="38.83326067" lon="-0.10666017">
        <ele>86.0</ele>
        <time>2018-06-10T08:09:56.038Z</time>
      </trkpt>
      <trkpt lat="38.83320517" lon="-0.106599">
        <ele>85.0</ele>
        <time>2018-06-10T08:09:57.038Z</time>
      </trkpt>
      <trkpt lat="38.8331485" lon="-0.10653667">
        <ele>85.0</ele>
        <time>2018-06-10T08:09:58.038Z</time>
      </trkpt>
      <trkpt lat="38.8330905" lon="-0.10647333">
        <ele>85.0</ele>
        <time>2018-06-10T08:09:59.038Z</time>
      </trkpt>
      <trkpt lat="38.83303117" lon="-0.10640983">
        <ele>85.0</ele>
        <time>2018-06-10T08:10:00.038Z</time>
      </trkpt>
      <trkpt lat="38.832971" lon="-0.10634567">
        <ele>85.0</ele>
        <time>2018-06-10T08:10:01.038Z</time>
      </trkpt>
      <trkpt lat="38.83291033" lon="-0.10628017">
        <ele>85.0</ele>
        <time>2018-06-10T08:10:02.038Z</time>
      </trkpt>
      <trkpt lat="38.8328495" lon="-0.10621317">
        <ele>84.0</ele>
        <time>2018-06-10T08:10:03.038Z</time>
      </trkpt>
      <trkpt lat="38.83278833" lon="-0.1061455">
        <ele>84.0</ele>
        <time>2018-06-10T08:10:04.038Z</time>
      </trkpt>
      <trkpt lat="38.832727" lon="-0.106078">
        <ele>84.0</ele>
        <time>2018-06-10T08:10:05.038Z</time>
      </trkpt>
      <trkpt lat="38.83266567" lon="-0.106011">
        <ele>84.0</ele>
        <time>2018-06-10T08:10:06.038Z</time>
      </trkpt>
      <trkpt lat="38.8326045" lon="-0.10594417">
        <ele>84.0</ele>
        <time>2018-06-10T08:10:07.038Z</time>
      </trkpt>
      <trkpt lat="38.832544" lon="-0.1058765">
        <ele>84.0</ele>
        <time>2018-06-10T08:10:08.038Z</time>
      </trkpt>
      <trkpt lat="38.83248367" lon="-0.1058085">
        <ele>84.0</ele>
        <time>2018-06-10T08:10:09.038Z</time>
      </trkpt>
      <trkpt lat="38.83242467" lon="-0.10573983">
        <ele>84.0</ele>
        <time>2018-06-10T08:10:10.038Z</time>
      </trkpt>
      <trkpt lat="38.83236717" lon="-0.10567033">
        <ele>84.0</ele>
        <time>2018-06-10T08:10:11.038Z</time>
      </trkpt>
      <trkpt lat="38.83231183" lon="-0.1055995">
        <ele>84.0</ele>
        <time>2018-06-10T08:10:12.038Z</time>
      </trkpt>
      <trkpt lat="38.83225917" lon="-0.10552667">
        <ele>84.0</ele>
        <time>2018-06-10T08:10:13.038Z</time>
      </trkpt>
      <trkpt lat="38.83220933" lon="-0.105452">
        <ele>84.0</ele>
        <time>2018-06-10T08:10:14.038Z</time>
      </trkpt>
      <trkpt lat="38.8321625" lon="-0.105376">
        <ele>84.0</ele>
        <time>2018-06-10T08:10:15.038Z</time>
      </trkpt>
      <trkpt lat="38.83211817" lon="-0.1052985">
        <ele>85.0</ele>
        <time>2018-06-10T08:10:16.038Z</time>
      </trkpt>
      <trkpt lat="38.83207517" lon="-0.10522017">
        <ele>85.0</ele>
        <time>2018-06-10T08:10:17.038Z</time>
      </trkpt>
      <trkpt lat="38.83203233" lon="-0.10514133">
        <ele>85.0</ele>
        <time>2018-06-10T08:10:18.038Z</time>
      </trkpt>
      <trkpt lat="38.83198967" lon="-0.10506167">
        <ele>85.0</ele>
        <time>2018-06-10T08:10:19.038Z</time>
      </trkpt>
      <trkpt lat="38.83194717" lon="-0.104981">
        <ele>85.0</ele>
        <time>2018-06-10T08:10:20.038Z</time>
      </trkpt>
      <trkpt lat="38.83190533" lon="-0.10489917">
        <ele>85.0</ele>
        <time>2018-06-10T08:10:21.038Z</time>
      </trkpt>
      <trkpt lat="38.8318635" lon="-0.1048175">
        <ele>85.0</ele>
        <time>2018-06-10T08:10:22.038Z</time>
      </trkpt>
      <trkpt lat="38.83182133" lon="-0.104736">
        <ele>86.0</ele>
        <time>2018-06-10T08:10:23.038Z</time>
      </trkpt>
      <trkpt lat="38.83177883" lon="-0.10465483">
        <ele>86.0</ele>
        <time>2018-06-10T08:10:24.038Z</time>
      </trkpt>
      <trkpt lat="38.83173633" lon="-0.10457333">
        <ele>86.0</ele>
        <time>2018-06-10T08:10:25.038Z</time>
      </trkpt>
      <trkpt lat="38.83169333" lon="-0.104492">
        <ele>86.0</ele>
        <time>2018-06-10T08:10:26.038Z</time>
      </trkpt>
      <trkpt lat="38.83164983" lon="-0.10441067">
        <ele>86.0</ele>
        <time>2018-06-10T08:10:27.038Z</time>
      </trkpt>
      <trkpt lat="38.831606" lon="-0.10432967">
        <ele>86.0</ele>
        <time>2018-06-10T08:10:28.038Z</time>
      </trkpt>
      <trkpt lat="38.83156233" lon="-0.1042485">
        <ele>86.0</ele>
        <time>2018-06-10T08:10:29.038Z</time>
      </trkpt>
      <trkpt lat="38.83151917" lon="-0.10416733">
        <ele>86.0</ele>
        <time>2018-06-10T08:10:30.038Z</time>
      </trkpt>
      <trkpt lat="38.83147633" lon="-0.10408533">
        <ele>86.0</ele>
        <time>2018-06-10T08:10:31.038Z</time>
      </trkpt>
      <trkpt lat="38.83143383" lon="-0.10400317">
        <ele>86.0</ele>
        <time>2018-06-10T08:10:32.038Z</time>
      </trkpt>
      <trkpt lat="38.83139117" lon="-0.10392067">
        <ele>86.0</ele>
        <time>2018-06-10T08:10:33.038Z</time>
      </trkpt>
      <trkpt lat="38.83134783" lon="-0.10383817">
        <ele>86.0</ele>
        <time>2018-06-10T08:10:34.038Z</time>
      </trkpt>
      <trkpt lat="38.831304" lon="-0.1037555">
        <ele>86.0</ele>
        <time>2018-06-10T08:10:35.038Z</time>
      </trkpt>
      <trkpt lat="38.83126" lon="-0.10367283">
        <ele>86.0</ele>
        <time>2018-06-10T08:10:36.038Z</time>
      </trkpt>
      <trkpt lat="38.83121617" lon="-0.1035905">
        <ele>86.0</ele>
        <time>2018-06-10T08:10:37.038Z</time>
      </trkpt>
      <trkpt lat="38.83117217" lon="-0.10350867">
        <ele>86.0</ele>
        <time>2018-06-10T08:10:38.038Z</time>
      </trkpt>
      <trkpt lat="38.83112833" lon="-0.10342683">
        <ele>86.0</ele>
        <time>2018-06-10T08:10:39.038Z</time>
      </trkpt>
      <trkpt lat="38.83108467" lon="-0.10334467">
        <ele>86.0</ele>
        <time>2018-06-10T08:10:40.038Z</time>
      </trkpt>
      <trkpt lat="38.83104117" lon="-0.103262">
        <ele>86.0</ele>
        <time>2018-06-10T08:10:41.038Z</time>
      </trkpt>
      <trkpt lat="38.8309975" lon="-0.10317933">
        <ele>86.0</ele>
        <time>2018-06-10T08:10:42.038Z</time>
      </trkpt>
      <trkpt lat="38.83095333" lon="-0.10309683">
        <ele>86.0</ele>
        <time>2018-06-10T08:10:43.038Z</time>
      </trkpt>
      <trkpt lat="38.8309085" lon="-0.10301417">
        <ele>86.0</ele>
        <time>2018-06-10T08:10:44.038Z</time>
      </trkpt>
      <trkpt lat="38.83086333" lon="-0.10293117">
        <ele>87.0</ele>
        <time>2018-06-10T08:10:45.038Z</time>
      </trkpt>
      <trkpt lat="38.830818" lon="-0.10284767">
        <ele>87.0</ele>
        <time>2018-06-10T08:10:46.038Z</time>
      </trkpt>
      <trkpt lat="38.83077333" lon="-0.102763">
        <ele>87.0</ele>
        <time>2018-06-10T08:10:47.038Z</time>
      </trkpt>
      <trkpt lat="38.83072883" lon="-0.10267783">
        <ele>87.0</ele>
        <time>2018-06-10T08:10:48.038Z</time>
      </trkpt>
      <trkpt lat="38.830684" lon="-0.1025925">
        <ele>87.0</ele>
        <time>2018-06-10T08:10:49.038Z</time>
      </trkpt>
      <trkpt lat="38.83063817" lon="-0.10250767">
        <ele>87.0</ele>
        <time>2018-06-10T08:10:50.038Z</time>
      </trkpt>
      <trkpt lat="38.83059167" lon="-0.102423">
        <ele>87.0</ele>
        <time>2018-06-10T08:10:51.038Z</time>
      </trkpt>
      <trkpt lat="38.83054517" lon="-0.102338">
        <ele>87.0</ele>
        <time>2018-06-10T08:10:52.038Z</time>
      </trkpt>
      <trkpt lat="38.83049883" lon="-0.10225233">
        <ele>87.0</ele>
        <time>2018-06-10T08:10:53.038Z</time>
      </trkpt>
      <trkpt lat="38.83045267" lon="-0.102166">
        <ele>87.0</ele>
        <time>2018-06-10T08:10:54.038Z</time>
      </trkpt>
      <trkpt lat="38.8304065" lon="-0.10207967">
        <ele>87.0</ele>
        <time>2018-06-10T08:10:55.038Z</time>
      </trkpt>
      <trkpt lat="38.83036033" lon="-0.1019935">
        <ele>87.0</ele>
        <time>2018-06-10T08:10:56.038Z</time>
      </trkpt>
      <trkpt lat="38.83031417" lon="-0.101908">
        <ele>87.0</ele>
        <time>2018-06-10T08:10:57.038Z</time>
      </trkpt>
      <trkpt lat="38.8302685" lon="-0.10182267">
        <ele>87.0</ele>
        <time>2018-06-10T08:10:58.038Z</time>
      </trkpt>
      <trkpt lat="38.83022367" lon="-0.10173717">
        <ele>87.0</ele>
        <time>2018-06-10T08:10:59.038Z</time>
      </trkpt>
      <trkpt lat="38.83018083" lon="-0.10165067">
        <ele>87.0</ele>
        <time>2018-06-10T08:11:00.038Z</time>
      </trkpt>
      <trkpt lat="38.83013983" lon="-0.101563">
        <ele>87.0</ele>
        <time>2018-06-10T08:11:01.038Z</time>
      </trkpt>
      <trkpt lat="38.830101" lon="-0.10147417">
        <ele>87.0</ele>
        <time>2018-06-10T08:11:02.038Z</time>
      </trkpt>
      <trkpt lat="38.83006483" lon="-0.101384">
        <ele>87.0</ele>
        <time>2018-06-10T08:11:03.038Z</time>
      </trkpt>
      <trkpt lat="38.8300325" lon="-0.1012925">
        <ele>87.0</ele>
        <time>2018-06-10T08:11:04.038Z</time>
      </trkpt>
      <trkpt lat="38.83000483" lon="-0.10119933">
        <ele>87.0</ele>
        <time>2018-06-10T08:11:05.038Z</time>
      </trkpt>
      <trkpt lat="38.829981" lon="-0.101105">
        <ele>87.0</ele>
        <time>2018-06-10T08:11:06.038Z</time>
      </trkpt>
      <trkpt lat="38.82995833" lon="-0.10101067">
        <ele>87.0</ele>
        <time>2018-06-10T08:11:07.038Z</time>
      </trkpt>
      <trkpt lat="38.82993633" lon="-0.10091683">
        <ele>87.0</ele>
        <time>2018-06-10T08:11:08.038Z</time>
      </trkpt>
      <trkpt lat="38.829915" lon="-0.1008235">
        <ele>87.0</ele>
        <time>2018-06-10T08:11:09.038Z</time>
      </trkpt>
      <trkpt lat="38.829893" lon="-0.10073033">
        <ele>87.0</ele>
        <time>2018-06-10T08:11:10.038Z</time>
      </trkpt>
      <trkpt lat="38.829867" lon="-0.10063917">
        <ele>87.0</ele>
        <time>2018-06-10T08:11:11.038Z</time>
      </trkpt>
      <trkpt lat="38.829831" lon="-0.10055433">
        <ele>87.0</ele>
        <time>2018-06-10T08:11:12.038Z</time>
      </trkpt>
      <trkpt lat="38.8297845" lon="-0.10048">
        <ele>87.0</ele>
        <time>2018-06-10T08:11:13.038Z</time>
      </trkpt>
      <trkpt lat="38.82972933" lon="-0.10041717">
        <ele>87.0</ele>
        <time>2018-06-10T08:11:14.038Z</time>
      </trkpt>
      <trkpt lat="38.82967067" lon="-0.1003695">
        <ele>87.0</ele>
        <time>2018-06-10T08:11:15.038Z</time>
      </trkpt>
      <trkpt lat="38.82961067" lon="-0.10033683">
        <ele>87.0</ele>
        <time>2018-06-10T08:11:16.038Z</time>
      </trkpt>
      <trkpt lat="38.82955017" lon="-0.10031783">
        <ele>88.0</ele>
        <time>2018-06-10T08:11:17.038Z</time>
      </trkpt>
      <trkpt lat="38.82948833" lon="-0.10030583">
        <ele>88.0</ele>
        <time>2018-06-10T08:11:18.038Z</time>
      </trkpt>
      <trkpt lat="38.82942883" lon="-0.10029783">
        <ele>89.0</ele>
        <time>2018-06-10T08:11:19.038Z</time>
      </trkpt>
      <trkpt lat="38.8293715" lon="-0.1002935">
        <ele>89.0</ele>
        <time>2018-06-10T08:11:20.038Z</time>
      </trkpt>
      <trkpt lat="38.8293165" lon="-0.10029167">
        <ele>90.0</ele>
        <time>2018-06-10T08:11:21.038Z</time>
      </trkpt>
      <trkpt lat="38.8292625" lon="-0.10029133">
        <ele>90.0</ele>
        <time>2018-06-10T08:11:22.038Z</time>
      </trkpt>
      <trkpt lat="38.8292085" lon="-0.10029217">
        <ele>90.0</ele>
        <time>2018-06-10T08:11:23.038Z</time>
      </trkpt>
      <trkpt lat="38.82915533" lon="-0.100294">
        <ele>90.0</ele>
        <time>2018-06-10T08:11:24.038Z</time>
      </trkpt>
      <trkpt lat="38.82910233" lon="-0.100296">
        <ele>90.0</ele>
        <time>2018-06-10T08:11:25.038Z</time>
      </trkpt>
      <trkpt lat="38.8290495" lon="-0.10029767">
        <ele>91.0</ele>
        <time>2018-06-10T08:11:26.038Z</time>
      </trkpt>
      <trkpt lat="38.82899617" lon="-0.1002985">
        <ele>91.0</ele>
        <time>2018-06-10T08:11:27.038Z</time>
      </trkpt>
      <trkpt lat="38.82894267" lon="-0.10029867">
        <ele>91.0</ele>
        <time>2018-06-10T08:11:28.038Z</time>
      </trkpt>
      <trkpt lat="38.82888917" lon="-0.10029883">
        <ele>91.0</ele>
        <time>2018-06-10T08:11:29.038Z</time>
      </trkpt>
      <trkpt lat="38.82883617" lon="-0.10029833">
        <ele>92.0</ele>
        <time>2018-06-10T08:11:30.038Z</time>
      </trkpt>
      <trkpt lat="38.82878367" lon="-0.10029883">
        <ele>92.0</ele>
        <time>2018-06-10T08:11:31.038Z</time>
      </trkpt>
      <trkpt lat="38.82873217" lon="-0.1003">
        <ele>92.0</ele>
        <time>2018-06-10T08:11:32.038Z</time>
      </trkpt>
      <trkpt lat="38.82868133" lon="-0.10030267">
        <ele>92.0</ele>
        <time>2018-06-10T08:11:33.038Z</time>
      </trkpt>
      <trkpt lat="38.82863067" lon="-0.1003045">
        <ele>93.0</ele>
        <time>2018-06-10T08:11:34.038Z</time>
      </trkpt>
      <trkpt lat="38.82858033" lon="-0.10030533">
        <ele>93.0</ele>
        <time>2018-06-10T08:11:35.038Z</time>
      </trkpt>
      <trkpt lat="38.82853017" lon="-0.10030617">
        <ele>93.0</ele>
        <time>2018-06-10T08:11:36.038Z</time>
      </trkpt>
      <trkpt lat="38.8284805" lon="-0.10030783">
        <ele>94.0</ele>
        <time>2018-06-10T08:11:37.038Z</time>
      </trkpt>
      <trkpt lat="38.828431" lon="-0.10030967">
        <ele>94.0</ele>
        <time>2018-06-10T08:11:38.038Z</time>
      </trkpt>
      <trkpt lat="38.82838183" lon="-0.10031033">
        <ele>94.0</ele>
        <time>2018-06-10T08:11:39.038Z</time>
      </trkpt>
      <trkpt lat="38.82833267" lon="-0.10030917">
        <ele>95.0</ele>
        <time>2018-06-10T08:11:40.038Z</time>
      </trkpt>
      <trkpt lat="38.82828317" lon="-0.10030817">
        <ele>95.0</ele>
        <time>2018-06-10T08:11:41.038Z</time>
      </trkpt>
      <trkpt lat="38.82823367" lon="-0.10030833">
        <ele>95.0</ele>
        <time>2018-06-10T08:11:42.038Z</time>
      </trkpt>
      <trkpt lat="38.82818433" lon="-0.10031017">
        <ele>95.0</ele>
        <time>2018-06-10T08:11:43.038Z</time>
      </trkpt>
      <trkpt lat="38.82813483" lon="-0.10031183">
        <ele>96.0</ele>
        <time>2018-06-10T08:11:44.038Z</time>
      </trkpt>
      <trkpt lat="38.82808517" lon="-0.1003135">
        <ele>96.0</ele>
        <time>2018-06-10T08:11:45.038Z</time>
      </trkpt>
      <trkpt lat="38.828035" lon="-0.10031483">
        <ele>96.0</ele>
        <time>2018-06-10T08:11:46.038Z</time>
      </trkpt>
      <trkpt lat="38.82798467" lon="-0.10031517">
        <ele>96.0</ele>
        <time>2018-06-10T08:11:47.038Z</time>
      </trkpt>
      <trkpt lat="38.827934" lon="-0.1003145">
        <ele>97.0</ele>
        <time>2018-06-10T08:11:48.038Z</time>
      </trkpt>
      <trkpt lat="38.827883" lon="-0.100314">
        <ele>97.0</ele>
        <time>2018-06-10T08:11:49.038Z</time>
      </trkpt>
      <trkpt lat="38.82783167" lon="-0.1003145">
        <ele>97.0</ele>
        <time>2018-06-10T08:11:50.038Z</time>
      </trkpt>
      <trkpt lat="38.82778067" lon="-0.10031483">
        <ele>98.0</ele>
        <time>2018-06-10T08:11:51.038Z</time>
      </trkpt>
      <trkpt lat="38.82772983" lon="-0.10031317">
        <ele>98.0</ele>
        <time>2018-06-10T08:11:52.038Z</time>
      </trkpt>
      <trkpt lat="38.82767917" lon="-0.10031">
        <ele>98.0</ele>
        <time>2018-06-10T08:11:53.038Z</time>
      </trkpt>
      <trkpt lat="38.82762833" lon="-0.1003045">
        <ele>98.0</ele>
        <time>2018-06-10T08:11:54.038Z</time>
      </trkpt>
      <trkpt lat="38.82757817" lon="-0.10029683">
        <ele>98.0</ele>
        <time>2018-06-10T08:11:55.038Z</time>
      </trkpt>
      <trkpt lat="38.82752867" lon="-0.100283">
        <ele>98.0</ele>
        <time>2018-06-10T08:11:56.038Z</time>
      </trkpt>
      <trkpt lat="38.82748033" lon="-0.10026267">
        <ele>98.0</ele>
        <time>2018-06-10T08:11:57.038Z</time>
      </trkpt>
      <trkpt lat="38.8274335" lon="-0.10023567">
        <ele>99.0</ele>
        <time>2018-06-10T08:11:58.038Z</time>
      </trkpt>
      <trkpt lat="38.827389" lon="-0.10020383">
        <ele>99.0</ele>
        <time>2018-06-10T08:11:59.038Z</time>
      </trkpt>
      <trkpt lat="38.82734617" lon="-0.100169">
        <ele>99.0</ele>
        <time>2018-06-10T08:12:00.038Z</time>
      </trkpt>
      <trkpt lat="38.82730417" lon="-0.100132">
        <ele>99.0</ele>
        <time>2018-06-10T08:12:01.038Z</time>
      </trkpt>
      <trkpt lat="38.827263" lon="-0.10009383">
        <ele>99.0</ele>
        <time>2018-06-10T08:12:02.038Z</time>
      </trkpt>
      <trkpt lat="38.82722317" lon="-0.10005417">
        <ele>99.0</ele>
        <time>2018-06-10T08:12:03.038Z</time>
      </trkpt>
      <trkpt lat="38.82718467" lon="-0.10001317">
        <ele>99.0</ele>
        <time>2018-06-10T08:12:04.038Z</time>
      </trkpt>
      <trkpt lat="38.82714717" lon="-0.0999695">
        <ele>99.0</ele>
        <time>2018-06-10T08:12:05.038Z</time>
      </trkpt>
      <trkpt lat="38.82711067" lon="-0.09992367">
        <ele>99.0</ele>
        <time>2018-06-10T08:12:06.038Z</time>
      </trkpt>
      <trkpt lat="38.82707583" lon="-0.099875">
        <ele>99.0</ele>
        <time>2018-06-10T08:12:07.038Z</time>
      </trkpt>
      <trkpt lat="38.82704367" lon="-0.09982317">
        <ele>99.0</ele>
        <time>2018-06-10T08:12:08.038Z</time>
      </trkpt>
      <trkpt lat="38.827015" lon="-0.09976733">
        <ele>100.0</ele>
        <time>2018-06-10T08:12:09.038Z</time>
      </trkpt>
      <trkpt lat="38.8269905" lon="-0.09970933">
        <ele>100.0</ele>
        <time>2018-06-10T08:12:10.038Z</time>
      </trkpt>
      <trkpt lat="38.82696867" lon="-0.09964883">
        <ele>100.0</ele>
        <time>2018-06-10T08:12:11.038Z</time>
      </trkpt>
      <trkpt lat="38.82695033" lon="-0.09958567">
        <ele>100.0</ele>
        <time>2018-06-10T08:12:12.038Z</time>
      </trkpt>
      <trkpt lat="38.82693367" lon="-0.09951967">
        <ele>100.0</ele>
        <time>2018-06-10T08:12:13.038Z</time>
      </trkpt>
      <trkpt lat="38.82691917" lon="-0.09945233">
        <ele>100.0</ele>
        <time>2018-06-10T08:12:14.038Z</time>
      </trkpt>
      <trkpt lat="38.82690517" lon="-0.09938483">
        <ele>100.0</ele>
        <time>2018-06-10T08:12:15.038Z</time>
      </trkpt>
      <trkpt lat="38.82689167" lon="-0.099317">
        <ele>100.0</ele>
        <time>2018-06-10T08:12:16.038Z</time>
      </trkpt>
      <trkpt lat="38.82688017" lon="-0.09924767">
        <ele>101.0</ele>
        <time>2018-06-10T08:12:17.038Z</time>
      </trkpt>
      <trkpt lat="38.82687117" lon="-0.09917733">
        <ele>101.0</ele>
        <time>2018-06-10T08:12:18.038Z</time>
      </trkpt>
      <trkpt lat="38.826866" lon="-0.09910583">
        <ele>101.0</ele>
        <time>2018-06-10T08:12:19.038Z</time>
      </trkpt>
      <trkpt lat="38.82686367" lon="-0.099035">
        <ele>101.0</ele>
        <time>2018-06-10T08:12:20.038Z</time>
      </trkpt>
      <trkpt lat="38.826864" lon="-0.09896383">
        <ele>101.0</ele>
        <time>2018-06-10T08:12:21.038Z</time>
      </trkpt>
      <trkpt lat="38.82686667" lon="-0.09889267">
        <ele>101.0</ele>
        <time>2018-06-10T08:12:22.038Z</time>
      </trkpt>
      <trkpt lat="38.826871" lon="-0.0988215">
        <ele>102.0</ele>
        <time>2018-06-10T08:12:23.038Z</time>
      </trkpt>
      <trkpt lat="38.82687683" lon="-0.0987505">
        <ele>102.0</ele>
        <time>2018-06-10T08:12:24.038Z</time>
      </trkpt>
      <trkpt lat="38.8268835" lon="-0.09868017">
        <ele>102.0</ele>
        <time>2018-06-10T08:12:25.038Z</time>
      </trkpt>
      <trkpt lat="38.82689017" lon="-0.098611">
        <ele>102.0</ele>
        <time>2018-06-10T08:12:26.038Z</time>
      </trkpt>
      <trkpt lat="38.82689633" lon="-0.09854333">
        <ele>102.0</ele>
        <time>2018-06-10T08:12:27.038Z</time>
      </trkpt>
      <trkpt lat="38.82690167" lon="-0.09847733">
        <ele>103.0</ele>
        <time>2018-06-10T08:12:28.038Z</time>
      </trkpt>
      <trkpt lat="38.82690583" lon="-0.09841283">
        <ele>103.0</ele>
        <time>2018-06-10T08:12:29.038Z</time>
      </trkpt>
      <trkpt lat="38.8269075" lon="-0.09834933">
        <ele>103.0</ele>
        <time>2018-06-10T08:12:30.038Z</time>
      </trkpt>
      <trkpt lat="38.8269065" lon="-0.09828617">
        <ele>104.0</ele>
        <time>2018-06-10T08:12:31.038Z</time>
      </trkpt>
      <trkpt lat="38.8269025" lon="-0.098223">
        <ele>104.0</ele>
        <time>2018-06-10T08:12:32.038Z</time>
      </trkpt>
      <trkpt lat="38.82689783" lon="-0.0981595">
        <ele>104.0</ele>
        <time>2018-06-10T08:12:33.038Z</time>
      </trkpt>
      <trkpt lat="38.8268925" lon="-0.09809633">
        <ele>104.0</ele>
        <time>2018-06-10T08:12:34.038Z</time>
      </trkpt>
      <trkpt lat="38.82688717" lon="-0.09803233">
        <ele>105.0</ele>
        <time>2018-06-10T08:12:35.038Z</time>
      </trkpt>
      <trkpt lat="38.82688083" lon="-0.0979685">
        <ele>105.0</ele>
        <time>2018-06-10T08:12:36.038Z</time>
      </trkpt>
      <trkpt lat="38.82687433" lon="-0.09790417">
        <ele>105.0</ele>
        <time>2018-06-10T08:12:37.038Z</time>
      </trkpt>
      <trkpt lat="38.82686683" lon="-0.0978405">
        <ele>106.0</ele>
        <time>2018-06-10T08:12:38.038Z</time>
      </trkpt>
      <trkpt lat="38.826859" lon="-0.09777717">
        <ele>106.0</ele>
        <time>2018-06-10T08:12:39.038Z</time>
      </trkpt>
      <trkpt lat="38.82685083" lon="-0.09771483">
        <ele>106.0</ele>
        <time>2018-06-10T08:12:40.038Z</time>
      </trkpt>
      <trkpt lat="38.82684333" lon="-0.09765267">
        <ele>106.0</ele>
        <time>2018-06-10T08:12:41.038Z</time>
      </trkpt>
      <trkpt lat="38.82683567" lon="-0.0975905">
        <ele>106.0</ele>
        <time>2018-06-10T08:12:42.038Z</time>
      </trkpt>
      <trkpt lat="38.826828" lon="-0.09752817">
        <ele>107.0</ele>
        <time>2018-06-10T08:12:43.038Z</time>
      </trkpt>
      <trkpt lat="38.82681983" lon="-0.097466">
        <ele>107.0</ele>
        <time>2018-06-10T08:12:44.038Z</time>
      </trkpt>
      <trkpt lat="38.82681217" lon="-0.0974035">
        <ele>107.0</ele>
        <time>2018-06-10T08:12:45.038Z</time>
      </trkpt>
      <trkpt lat="38.82680417" lon="-0.097341">
        <ele>107.0</ele>
        <time>2018-06-10T08:12:46.038Z</time>
      </trkpt>
      <trkpt lat="38.82679617" lon="-0.09727817">
        <ele>108.0</ele>
        <time>2018-06-10T08:12:47.038Z</time>
      </trkpt>
      <trkpt lat="38.826788" lon="-0.09721567">
        <ele>108.0</ele>
        <time>2018-06-10T08:12:48.038Z</time>
      </trkpt>
      <trkpt lat="38.82678" lon="-0.09715367">
        <ele>108.0</ele>
        <time>2018-06-10T08:12:49.038Z</time>
      </trkpt>
      <trkpt lat="38.82677217" lon="-0.09709167">
        <ele>109.0</ele>
        <time>2018-06-10T08:12:50.038Z</time>
      </trkpt>
      <trkpt lat="38.82676483" lon="-0.09703">
        <ele>109.0</ele>
        <time>2018-06-10T08:12:51.038Z</time>
      </trkpt>
      <trkpt lat="38.826758" lon="-0.0969685">
        <ele>109.0</ele>
        <time>2018-06-10T08:12:52.038Z</time>
      </trkpt>
      <trkpt lat="38.826751" lon="-0.09690733">
        <ele>110.0</ele>
        <time>2018-06-10T08:12:53.038Z</time>
      </trkpt>
      <trkpt lat="38.8267435" lon="-0.09684617">
        <ele>110.0</ele>
        <time>2018-06-10T08:12:54.038Z</time>
      </trkpt>
      <trkpt lat="38.82673633" lon="-0.096785">
        <ele>110.0</ele>
        <time>2018-06-10T08:12:55.038Z</time>
      </trkpt>
      <trkpt lat="38.82673083" lon="-0.09672433">
        <ele>110.0</ele>
        <time>2018-06-10T08:12:56.038Z</time>
      </trkpt>
      <trkpt lat="38.82672733" lon="-0.09666367">
        <ele>111.0</ele>
        <time>2018-06-10T08:12:57.038Z</time>
      </trkpt>
      <trkpt lat="38.826725" lon="-0.09660317">
        <ele>111.0</ele>
        <time>2018-06-10T08:12:58.038Z</time>
      </trkpt>
      <trkpt lat="38.82672367" lon="-0.0965425">
        <ele>111.0</ele>
        <time>2018-06-10T08:12:59.038Z</time>
      </trkpt>
      <trkpt lat="38.82672383" lon="-0.09648183">
        <ele>112.0</ele>
        <time>2018-06-10T08:13:00.038Z</time>
      </trkpt>
      <trkpt lat="38.8267255" lon="-0.096421">
        <ele>112.0</ele>
        <time>2018-06-10T08:13:01.038Z</time>
      </trkpt>
      <trkpt lat="38.8267285" lon="-0.0963605">
        <ele>112.0</ele>
        <time>2018-06-10T08:13:02.038Z</time>
      </trkpt>
      <trkpt lat="38.826732" lon="-0.09630033">
        <ele>112.0</ele>
        <time>2018-06-10T08:13:03.038Z</time>
      </trkpt>
      <trkpt lat="38.82673583" lon="-0.09624067">
        <ele>113.0</ele>
        <time>2018-06-10T08:13:04.038Z</time>
      </trkpt>
      <trkpt lat="38.82673983" lon="-0.09618067">
        <ele>113.0</ele>
        <time>2018-06-10T08:13:05.038Z</time>
      </trkpt>
      <trkpt lat="38.82674383" lon="-0.09612033">
        <ele>113.0</ele>
        <time>2018-06-10T08:13:06.038Z</time>
      </trkpt>
      <trkpt lat="38.82674733" lon="-0.09606017">
        <ele>114.0</ele>
        <time>2018-06-10T08:13:07.038Z</time>
      </trkpt>
      <trkpt lat="38.82674933" lon="-0.09599983">
        <ele>114.0</ele>
        <time>2018-06-10T08:13:08.038Z</time>
      </trkpt>
      <trkpt lat="38.82674933" lon="-0.0959395">
        <ele>114.0</ele>
        <time>2018-06-10T08:13:09.038Z</time>
      </trkpt>
      <trkpt lat="38.82674767" lon="-0.095879">
        <ele>115.0</ele>
        <time>2018-06-10T08:13:10.038Z</time>
      </trkpt>
      <trkpt lat="38.82674467" lon="-0.095819">
        <ele>115.0</ele>
        <time>2018-06-10T08:13:11.038Z</time>
      </trkpt>
      <trkpt lat="38.82674033" lon="-0.0957595">
        <ele>115.0</ele>
        <time>2018-06-10T08:13:12.038Z</time>
      </trkpt>
      <trkpt lat="38.826735" lon="-0.09570017">
        <ele>115.0</ele>
        <time>2018-06-10T08:13:13.038Z</time>
      </trkpt>
      <trkpt lat="38.8267285" lon="-0.09564067">
        <ele>116.0</ele>
        <time>2018-06-10T08:13:14.038Z</time>
      </trkpt>
      <trkpt lat="38.82672167" lon="-0.09558067">
        <ele>116.0</ele>
        <time>2018-06-10T08:13:15.038Z</time>
      </trkpt>
      <trkpt lat="38.8267135" lon="-0.0955205">
        <ele>116.0</ele>
        <time>2018-06-10T08:13:16.038Z</time>
      </trkpt>
      <trkpt lat="38.826705" lon="-0.09545983">
        <ele>117.0</ele>
        <time>2018-06-10T08:13:17.038Z</time>
      </trkpt>
      <trkpt lat="38.8266955" lon="-0.09539933">
        <ele>117.0</ele>
        <time>2018-06-10T08:13:18.038Z</time>
      </trkpt>
      <trkpt lat="38.8266865" lon="-0.0953385">
        <ele>117.0</ele>
        <time>2018-06-10T08:13:19.038Z</time>
      </trkpt>
      <trkpt lat="38.82667767" lon="-0.09527783">
        <ele>117.0</ele>
        <time>2018-06-10T08:13:20.038Z</time>
      </trkpt>
      <trkpt lat="38.826669" lon="-0.0952175">
        <ele>118.0</ele>
        <time>2018-06-10T08:13:21.038Z</time>
      </trkpt>
      <trkpt lat="38.82666083" lon="-0.09515733">
        <ele>118.0</ele>
        <time>2018-06-10T08:13:22.038Z</time>
      </trkpt>
      <trkpt lat="38.82665333" lon="-0.0950975">
        <ele>118.0</ele>
        <time>2018-06-10T08:13:23.038Z</time>
      </trkpt>
      <trkpt lat="38.82664583" lon="-0.09503783">
        <ele>119.0</ele>
        <time>2018-06-10T08:13:24.038Z</time>
      </trkpt>
      <trkpt lat="38.82663833" lon="-0.09497883">
        <ele>119.0</ele>
        <time>2018-06-10T08:13:25.038Z</time>
      </trkpt>
      <trkpt lat="38.82662983" lon="-0.09492083">
        <ele>119.0</ele>
        <time>2018-06-10T08:13:26.038Z</time>
      </trkpt>
      <trkpt lat="38.82662117" lon="-0.09486267">
        <ele>119.0</ele>
        <time>2018-06-10T08:13:27.038Z</time>
      </trkpt>
      <trkpt lat="38.82661083" lon="-0.09480483">
        <ele>120.0</ele>
        <time>2018-06-10T08:13:28.038Z</time>
      </trkpt>
      <trkpt lat="38.826599" lon="-0.09474733">
        <ele>120.0</ele>
        <time>2018-06-10T08:13:29.038Z</time>
      </trkpt>
      <trkpt lat="38.82658617" lon="-0.09468967">
        <ele>120.0</ele>
        <time>2018-06-10T08:13:30.038Z</time>
      </trkpt>
      <trkpt lat="38.82657383" lon="-0.094631">
        <ele>120.0</ele>
        <time>2018-06-10T08:13:31.038Z</time>
      </trkpt>
      <trkpt lat="38.82656083" lon="-0.09457083">
        <ele>121.0</ele>
        <time>2018-06-10T08:13:32.038Z</time>
      </trkpt>
      <trkpt lat="38.82654333" lon="-0.0945105">
        <ele>121.0</ele>
        <time>2018-06-10T08:13:33.038Z</time>
      </trkpt>
      <trkpt lat="38.8265205" lon="-0.09445017">
        <ele>120.0</ele>
        <time>2018-06-10T08:13:34.038Z</time>
      </trkpt>
      <trkpt lat="38.8264915" lon="-0.09439067">
        <ele>120.0</ele>
        <time>2018-06-10T08:13:35.038Z</time>
      </trkpt>
      <trkpt lat="38.82645433" lon="-0.09433567">
        <ele>120.0</ele>
        <time>2018-06-10T08:13:36.038Z</time>
      </trkpt>
      <trkpt lat="38.82639933" lon="-0.09429567">
        <ele>119.0</ele>
        <time>2018-06-10T08:13:37.038Z</time>
      </trkpt>
      <trkpt lat="38.82633417" lon="-0.09427117">
        <ele>120.0</ele>
        <time>2018-06-10T08:13:38.038Z</time>
      </trkpt>
      <trkpt lat="38.82626383" lon="-0.09426217">
        <ele>120.0</ele>
        <time>2018-06-10T08:13:39.038Z</time>
      </trkpt>
      <trkpt lat="38.8261985" lon="-0.09426033">
        <ele>120.0</ele>
        <time>2018-06-10T08:13:40.038Z</time>
      </trkpt>
      <trkpt lat="38.8261325" lon="-0.09426467">
        <ele>120.0</ele>
        <time>2018-06-10T08:13:41.038Z</time>
      </trkpt>
      <trkpt lat="38.82606517" lon="-0.09427217">
        <ele>120.0</ele>
        <time>2018-06-10T08:13:42.038Z</time>
      </trkpt>
      <trkpt lat="38.82599667" lon="-0.09428117">
        <ele>120.0</ele>
        <time>2018-06-10T08:13:43.038Z</time>
      </trkpt>
      <trkpt lat="38.82592617" lon="-0.0942935">
        <ele>120.0</ele>
        <time>2018-06-10T08:13:44.038Z</time>
      </trkpt>
      <trkpt lat="38.825855" lon="-0.09430983">
        <ele>120.0</ele>
        <time>2018-06-10T08:13:45.038Z</time>
      </trkpt>
      <trkpt lat="38.825783" lon="-0.09433133">
        <ele>119.0</ele>
        <time>2018-06-10T08:13:46.038Z</time>
      </trkpt>
      <trkpt lat="38.825713" lon="-0.09436467">
        <ele>118.0</ele>
        <time>2018-06-10T08:13:47.038Z</time>
      </trkpt>
      <trkpt lat="38.82564483" lon="-0.09440983">
        <ele>118.0</ele>
        <time>2018-06-10T08:13:48.038Z</time>
      </trkpt>
      <trkpt lat="38.82558067" lon="-0.09446683">
        <ele>118.0</ele>
        <time>2018-06-10T08:13:49.038Z</time>
      </trkpt>
      <trkpt lat="38.8255215" lon="-0.094535">
        <ele>118.0</ele>
        <time>2018-06-10T08:13:50.038Z</time>
      </trkpt>
      <trkpt lat="38.825469" lon="-0.094613">
        <ele>118.0</ele>
        <time>2018-06-10T08:13:51.038Z</time>
      </trkpt>
      <trkpt lat="38.82542233" lon="-0.0947">
        <ele>118.0</ele>
        <time>2018-06-10T08:13:52.038Z</time>
      </trkpt>
      <trkpt lat="38.82537867" lon="-0.09478967">
        <ele>118.0</ele>
        <time>2018-06-10T08:13:53.038Z</time>
      </trkpt>
      <trkpt lat="38.82533483" lon="-0.0948795">
        <ele>118.0</ele>
        <time>2018-06-10T08:13:54.038Z</time>
      </trkpt>
      <trkpt lat="38.825289" lon="-0.09496717">
        <ele>117.0</ele>
        <time>2018-06-10T08:13:55.038Z</time>
      </trkpt>
      <trkpt lat="38.82523733" lon="-0.09504667">
        <ele>117.0</ele>
        <time>2018-06-10T08:13:56.038Z</time>
      </trkpt>
      <trkpt lat="38.825178" lon="-0.09511267">
        <ele>117.0</ele>
        <time>2018-06-10T08:13:57.038Z</time>
      </trkpt>
      <trkpt lat="38.82511" lon="-0.09516">
        <ele>117.0</ele>
        <time>2018-06-10T08:13:58.038Z</time>
      </trkpt>
      <trkpt lat="38.825037" lon="-0.09519033">
        <ele>117.0</ele>
        <time>2018-06-10T08:13:59.038Z</time>
      </trkpt>
      <trkpt lat="38.82496217" lon="-0.0952085">
        <ele>117.0</ele>
        <time>2018-06-10T08:14:00.038Z</time>
      </trkpt>
      <trkpt lat="38.82488867" lon="-0.0952205">
        <ele>117.0</ele>
        <time>2018-06-10T08:14:01.038Z</time>
      </trkpt>
      <trkpt lat="38.8248165" lon="-0.09522983">
        <ele>117.0</ele>
        <time>2018-06-10T08:14:02.038Z</time>
      </trkpt>
      <trkpt lat="38.82474633" lon="-0.09523767">
        <ele>118.0</ele>
        <time>2018-06-10T08:14:03.038Z</time>
      </trkpt>
      <trkpt lat="38.82467883" lon="-0.09524483">
        <ele>118.0</ele>
        <time>2018-06-10T08:14:04.038Z</time>
      </trkpt>
      <trkpt lat="38.824614" lon="-0.095251">
        <ele>118.0</ele>
        <time>2018-06-10T08:14:05.038Z</time>
      </trkpt>
      <trkpt lat="38.8245515" lon="-0.09525567">
        <ele>119.0</ele>
        <time>2018-06-10T08:14:06.038Z</time>
      </trkpt>
      <trkpt lat="38.824491" lon="-0.0952595">
        <ele>119.0</ele>
        <time>2018-06-10T08:14:07.038Z</time>
      </trkpt>
      <trkpt lat="38.824432" lon="-0.095263">
        <ele>120.0</ele>
        <time>2018-06-10T08:14:08.038Z</time>
      </trkpt>
      <trkpt lat="38.82437483" lon="-0.09526733">
        <ele>120.0</ele>
        <time>2018-06-10T08:14:09.038Z</time>
      </trkpt>
      <trkpt lat="38.8243185" lon="-0.095272">
        <ele>120.0</ele>
        <time>2018-06-10T08:14:10.038Z</time>
      </trkpt>
      <trkpt lat="38.82426317" lon="-0.09527733">
        <ele>120.0</ele>
        <time>2018-06-10T08:14:11.038Z</time>
      </trkpt>
      <trkpt lat="38.82420883" lon="-0.09528333">
        <ele>121.0</ele>
        <time>2018-06-10T08:14:12.038Z</time>
      </trkpt>
      <trkpt lat="38.8241555" lon="-0.09528933">
        <ele>121.0</ele>
        <time>2018-06-10T08:14:13.038Z</time>
      </trkpt>
      <trkpt lat="38.82410267" lon="-0.095294">
        <ele>121.0</ele>
        <time>2018-06-10T08:14:14.038Z</time>
      </trkpt>
      <trkpt lat="38.82404983" lon="-0.09529633">
        <ele>122.0</ele>
        <time>2018-06-10T08:14:15.038Z</time>
      </trkpt>
      <trkpt lat="38.82399733" lon="-0.09529883">
        <ele>122.0</ele>
        <time>2018-06-10T08:14:16.038Z</time>
      </trkpt>
      <trkpt lat="38.8239455" lon="-0.0953015">
        <ele>122.0</ele>
        <time>2018-06-10T08:14:17.038Z</time>
      </trkpt>
      <trkpt lat="38.8238945" lon="-0.09530567">
        <ele>122.0</ele>
        <time>2018-06-10T08:14:18.038Z</time>
      </trkpt>
      <trkpt lat="38.823844" lon="-0.0953115">
        <ele>122.0</ele>
        <time>2018-06-10T08:14:19.038Z</time>
      </trkpt>
      <trkpt lat="38.82379333" lon="-0.09531717">
        <ele>123.0</ele>
        <time>2018-06-10T08:14:20.038Z</time>
      </trkpt>
      <trkpt lat="38.82374183" lon="-0.09532233">
        <ele>123.0</ele>
        <time>2018-06-10T08:14:21.038Z</time>
      </trkpt>
      <trkpt lat="38.82369017" lon="-0.09532567">
        <ele>123.0</ele>
        <time>2018-06-10T08:14:22.038Z</time>
      </trkpt>
      <trkpt lat="38.82363883" lon="-0.09532917">
        <ele>123.0</ele>
        <time>2018-06-10T08:14:23.038Z</time>
      </trkpt>
      <trkpt lat="38.8235875" lon="-0.0953325">
        <ele>124.0</ele>
        <time>2018-06-10T08:14:24.038Z</time>
      </trkpt>
      <trkpt lat="38.82353633" lon="-0.0953355">
        <ele>124.0</ele>
        <time>2018-06-10T08:14:25.038Z</time>
      </trkpt>
      <trkpt lat="38.82348483" lon="-0.09533867">
        <ele>125.0</ele>
        <time>2018-06-10T08:14:26.038Z</time>
      </trkpt>
      <trkpt lat="38.82343383" lon="-0.09534183">
        <ele>125.0</ele>
        <time>2018-06-10T08:14:27.038Z</time>
      </trkpt>
      <trkpt lat="38.823383" lon="-0.09534533">
        <ele>125.0</ele>
        <time>2018-06-10T08:14:28.038Z</time>
      </trkpt>
      <trkpt lat="38.82333217" lon="-0.09534883">
        <ele>125.0</ele>
        <time>2018-06-10T08:14:29.038Z</time>
      </trkpt>
      <trkpt lat="38.82328083" lon="-0.09535267">
        <ele>125.0</ele>
        <time>2018-06-10T08:14:30.038Z</time>
      </trkpt>
      <trkpt lat="38.82322833" lon="-0.09535683">
        <ele>125.0</ele>
        <time>2018-06-10T08:14:31.038Z</time>
      </trkpt>
      <trkpt lat="38.823175" lon="-0.09536083">
        <ele>125.0</ele>
        <time>2018-06-10T08:14:32.038Z</time>
      </trkpt>
      <trkpt lat="38.82312067" lon="-0.09536383">
        <ele>125.0</ele>
        <time>2018-06-10T08:14:33.038Z</time>
      </trkpt>
      <trkpt lat="38.823065" lon="-0.0953655">
        <ele>125.0</ele>
        <time>2018-06-10T08:14:34.038Z</time>
      </trkpt>
      <trkpt lat="38.823008" lon="-0.095366">
        <ele>125.0</ele>
        <time>2018-06-10T08:14:35.038Z</time>
      </trkpt>
      <trkpt lat="38.82295017" lon="-0.09536583">
        <ele>125.0</ele>
        <time>2018-06-10T08:14:36.038Z</time>
      </trkpt>
      <trkpt lat="38.82289183" lon="-0.09536433">
        <ele>125.0</ele>
        <time>2018-06-10T08:14:37.038Z</time>
      </trkpt>
      <trkpt lat="38.82283317" lon="-0.09536033">
        <ele>125.0</ele>
        <time>2018-06-10T08:14:38.038Z</time>
      </trkpt>
      <trkpt lat="38.82277433" lon="-0.09535317">
        <ele>125.0</ele>
        <time>2018-06-10T08:14:39.038Z</time>
      </trkpt>
      <trkpt lat="38.82271617" lon="-0.095342">
        <ele>125.0</ele>
        <time>2018-06-10T08:14:40.038Z</time>
      </trkpt>
      <trkpt lat="38.8226605" lon="-0.09532383">
        <ele>125.0</ele>
        <time>2018-06-10T08:14:41.038Z</time>
      </trkpt>
      <trkpt lat="38.82261133" lon="-0.0952925">
        <ele>125.0</ele>
        <time>2018-06-10T08:14:42.038Z</time>
      </trkpt>
      <trkpt lat="38.82256717" lon="-0.09523933">
        <ele>124.0</ele>
        <time>2018-06-10T08:14:43.038Z</time>
      </trkpt>
      <trkpt lat="38.82253317" lon="-0.09516817">
        <ele>123.0</ele>
        <time>2018-06-10T08:14:44.038Z</time>
      </trkpt>
      <trkpt lat="38.8225105" lon="-0.095087">
        <ele>123.0</ele>
        <time>2018-06-10T08:14:45.038Z</time>
      </trkpt>
      <trkpt lat="38.8225025" lon="-0.09500617">
        <ele>122.0</ele>
        <time>2018-06-10T08:14:46.038Z</time>
      </trkpt>
      <trkpt lat="38.822504" lon="-0.09492617">
        <ele>122.0</ele>
        <time>2018-06-10T08:14:47.038Z</time>
      </trkpt>
      <trkpt lat="38.822513" lon="-0.09484867">
        <ele>122.0</ele>
        <time>2018-06-10T08:14:48.038Z</time>
      </trkpt>
      <trkpt lat="38.82252967" lon="-0.09477483">
        <ele>122.0</ele>
        <time>2018-06-10T08:14:49.038Z</time>
      </trkpt>
      <trkpt lat="38.8225565" lon="-0.09470667">
        <ele>122.0</ele>
        <time>2018-06-10T08:14:50.038Z</time>
      </trkpt>
      <trkpt lat="38.82259283" lon="-0.09464267">
        <ele>123.0</ele>
        <time>2018-06-10T08:14:51.038Z</time>
      </trkpt>
      <trkpt lat="38.82263483" lon="-0.09458267">
        <ele>123.0</ele>
        <time>2018-06-10T08:14:52.038Z</time>
      </trkpt>
      <trkpt lat="38.82267733" lon="-0.09452633">
        <ele>123.0</ele>
        <time>2018-06-10T08:14:53.038Z</time>
      </trkpt>
      <trkpt lat="38.82271833" lon="-0.09447317">
        <ele>123.0</ele>
        <time>2018-06-10T08:14:54.038Z</time>
      </trkpt>
      <trkpt lat="38.82275783" lon="-0.09442233">
        <ele>123.0</ele>
        <time>2018-06-10T08:14:55.038Z</time>
      </trkpt>
      <trkpt lat="38.822797" lon="-0.0943735">
        <ele>124.0</ele>
        <time>2018-06-10T08:14:56.038Z</time>
      </trkpt>
      <trkpt lat="38.8228355" lon="-0.09432683">
        <ele>124.0</ele>
        <time>2018-06-10T08:14:57.038Z</time>
      </trkpt>
      <trkpt lat="38.8228745" lon="-0.09428183">
        <ele>124.0</ele>
        <time>2018-06-10T08:14:58.038Z</time>
      </trkpt>
      <trkpt lat="38.8229135" lon="-0.094238">
        <ele>124.0</ele>
        <time>2018-06-10T08:14:59.038Z</time>
      </trkpt>
      <trkpt lat="38.82295217" lon="-0.09419417">
        <ele>125.0</ele>
        <time>2018-06-10T08:15:00.038Z</time>
      </trkpt>
      <trkpt lat="38.82298917" lon="-0.09414917">
        <ele>125.0</ele>
        <time>2018-06-10T08:15:01.038Z</time>
      </trkpt>
      <trkpt lat="38.82302517" lon="-0.094103">
        <ele>125.0</ele>
        <time>2018-06-10T08:15:02.038Z</time>
      </trkpt>
      <trkpt lat="38.8230605" lon="-0.094056">
        <ele>126.0</ele>
        <time>2018-06-10T08:15:03.038Z</time>
      </trkpt>
      <trkpt lat="38.82309617" lon="-0.0940095">
        <ele>126.0</ele>
        <time>2018-06-10T08:15:04.038Z</time>
      </trkpt>
      <trkpt lat="38.82313117" lon="-0.09396317">
        <ele>126.0</ele>
        <time>2018-06-10T08:15:05.038Z</time>
      </trkpt>
      <trkpt lat="38.82316517" lon="-0.09391667">
        <ele>127.0</ele>
        <time>2018-06-10T08:15:06.038Z</time>
      </trkpt>
      <trkpt lat="38.82319817" lon="-0.09386933">
        <ele>127.0</ele>
        <time>2018-06-10T08:15:07.038Z</time>
      </trkpt>
      <trkpt lat="38.823231" lon="-0.09382133">
        <ele>128.0</ele>
        <time>2018-06-10T08:15:08.038Z</time>
      </trkpt>
      <trkpt lat="38.82326433" lon="-0.093773">
        <ele>128.0</ele>
        <time>2018-06-10T08:15:09.038Z</time>
      </trkpt>
      <trkpt lat="38.82329633" lon="-0.09372367">
        <ele>128.0</ele>
        <time>2018-06-10T08:15:10.038Z</time>
      </trkpt>
      <trkpt lat="38.82332717" lon="-0.093674">
        <ele>129.0</ele>
        <time>2018-06-10T08:15:11.038Z</time>
      </trkpt>
      <trkpt lat="38.82335683" lon="-0.093624">
        <ele>129.0</ele>
        <time>2018-06-10T08:15:12.038Z</time>
      </trkpt>
      <trkpt lat="38.82338517" lon="-0.09357367">
        <ele>129.0</ele>
        <time>2018-06-10T08:15:13.038Z</time>
      </trkpt>
      <trkpt lat="38.82341233" lon="-0.09352317">
        <ele>129.0</ele>
        <time>2018-06-10T08:15:14.038Z</time>
      </trkpt>
      <trkpt lat="38.82343717" lon="-0.093474">
        <ele>129.0</ele>
        <time>2018-06-10T08:15:15.038Z</time>
      </trkpt>
      <trkpt lat="38.8234625" lon="-0.0934255">
        <ele>130.0</ele>
        <time>2018-06-10T08:15:16.038Z</time>
      </trkpt>
      <trkpt lat="38.82348783" lon="-0.09337767">
        <ele>131.0</ele>
        <time>2018-06-10T08:15:17.038Z</time>
      </trkpt>
      <trkpt lat="38.82351267" lon="-0.09332983">
        <ele>131.0</ele>
        <time>2018-06-10T08:15:18.038Z</time>
      </trkpt>
      <trkpt lat="38.82353333" lon="-0.09328033">
        <ele>131.0</ele>
        <time>2018-06-10T08:15:19.038Z</time>
      </trkpt>
      <trkpt lat="38.82355033" lon="-0.09322883">
        <ele>131.0</ele>
        <time>2018-06-10T08:15:20.038Z</time>
      </trkpt>
      <trkpt lat="38.82356683" lon="-0.093175">
        <ele>132.0</ele>
        <time>2018-06-10T08:15:21.038Z</time>
      </trkpt>
      <trkpt lat="38.8235845" lon="-0.09312217">
        <ele>132.0</ele>
        <time>2018-06-10T08:15:22.038Z</time>
      </trkpt>
      <trkpt lat="38.823603" lon="-0.09307083">
        <ele>132.0</ele>
        <time>2018-06-10T08:15:23.038Z</time>
      </trkpt>
      <trkpt lat="38.82362217" lon="-0.09302033">
        <ele>132.0</ele>
        <time>2018-06-10T08:15:24.038Z</time>
      </trkpt>
      <trkpt lat="38.823641" lon="-0.0929705">
        <ele>132.0</ele>
        <time>2018-06-10T08:15:25.038Z</time>
      </trkpt>
      <trkpt lat="38.82366" lon="-0.0929205">
        <ele>132.0</ele>
        <time>2018-06-10T08:15:26.038Z</time>
      </trkpt>
      <trkpt lat="38.82367883" lon="-0.09287033">
        <ele>133.0</ele>
        <time>2018-06-10T08:15:27.038Z</time>
      </trkpt>
      <trkpt lat="38.8236985" lon="-0.09281967">
        <ele>133.0</ele>
        <time>2018-06-10T08:15:28.038Z</time>
      </trkpt>
      <trkpt lat="38.82372" lon="-0.0927685">
        <ele>133.0</ele>
        <time>2018-06-10T08:15:29.038Z</time>
      </trkpt>
      <trkpt lat="38.823742" lon="-0.09271617">
        <ele>134.0</ele>
        <time>2018-06-10T08:15:30.038Z</time>
      </trkpt>
      <trkpt lat="38.82376433" lon="-0.09266483">
        <ele>134.0</ele>
        <time>2018-06-10T08:15:31.038Z</time>
      </trkpt>
      <trkpt lat="38.82378633" lon="-0.09261317">
        <ele>134.0</ele>
        <time>2018-06-10T08:15:32.038Z</time>
      </trkpt>
      <trkpt lat="38.82380767" lon="-0.09256167">
        <ele>134.0</ele>
        <time>2018-06-10T08:15:33.038Z</time>
      </trkpt>
      <trkpt lat="38.82382933" lon="-0.09250817">
        <ele>135.0</ele>
        <time>2018-06-10T08:15:34.038Z</time>
      </trkpt>
      <trkpt lat="38.82384983" lon="-0.09245433">
        <ele>135.0</ele>
        <time>2018-06-10T08:15:35.038Z</time>
      </trkpt>
      <trkpt lat="38.82387017" lon="-0.09239967">
        <ele>136.0</ele>
        <time>2018-06-10T08:15:36.038Z</time>
      </trkpt>
      <trkpt lat="38.82388983" lon="-0.0923455">
        <ele>136.0</ele>
        <time>2018-06-10T08:15:37.038Z</time>
      </trkpt>
      <trkpt lat="38.82391067" lon="-0.092292">
        <ele>137.0</ele>
        <time>2018-06-10T08:15:38.038Z</time>
      </trkpt>
      <trkpt lat="38.8239325" lon="-0.092239">
        <ele>137.0</ele>
        <time>2018-06-10T08:15:39.038Z</time>
      </trkpt>
      <trkpt lat="38.82395483" lon="-0.092186">
        <ele>137.0</ele>
        <time>2018-06-10T08:15:40.038Z</time>
      </trkpt>
      <trkpt lat="38.82397633" lon="-0.09213267">
        <ele>138.0</ele>
        <time>2018-06-10T08:15:41.038Z</time>
      </trkpt>
      <trkpt lat="38.82399717" lon="-0.09207883">
        <ele>138.0</ele>
        <time>2018-06-10T08:15:42.038Z</time>
      </trkpt>
      <trkpt lat="38.82401967" lon="-0.092025">
        <ele>139.0</ele>
        <time>2018-06-10T08:15:43.038Z</time>
      </trkpt>
      <trkpt lat="38.8240425" lon="-0.09197183">
        <ele>139.0</ele>
        <time>2018-06-10T08:15:44.038Z</time>
      </trkpt>
      <trkpt lat="38.824066" lon="-0.0919195">
        <ele>140.0</ele>
        <time>2018-06-10T08:15:45.038Z</time>
      </trkpt>
      <trkpt lat="38.82408967" lon="-0.09186883">
        <ele>140.0</ele>
        <time>2018-06-10T08:15:46.038Z</time>
      </trkpt>
      <trkpt lat="38.82411717" lon="-0.09182">
        <ele>141.0</ele>
        <time>2018-06-10T08:15:47.038Z</time>
      </trkpt>
      <trkpt lat="38.8241475" lon="-0.09177417">
        <ele>141.0</ele>
        <time>2018-06-10T08:15:48.038Z</time>
      </trkpt>
      <trkpt lat="38.824178" lon="-0.091731">
        <ele>140.0</ele>
        <time>2018-06-10T08:15:49.038Z</time>
      </trkpt>
      <trkpt lat="38.82420817" lon="-0.0916915">
        <ele>140.0</ele>
        <time>2018-06-10T08:15:50.038Z</time>
      </trkpt>
      <trkpt lat="38.82423983" lon="-0.09165633">
        <ele>140.0</ele>
        <time>2018-06-10T08:15:51.038Z</time>
      </trkpt>
      <trkpt lat="38.82427617" lon="-0.09162583">
        <ele>141.0</ele>
        <time>2018-06-10T08:15:52.038Z</time>
      </trkpt>
      <trkpt lat="38.82432167" lon="-0.09159983">
        <ele>142.0</ele>
        <time>2018-06-10T08:15:53.038Z</time>
      </trkpt>
      <trkpt lat="38.82437167" lon="-0.091576">
        <ele>142.0</ele>
        <time>2018-06-10T08:15:54.038Z</time>
      </trkpt>
      <trkpt lat="38.82442217" lon="-0.09155267">
        <ele>142.0</ele>
        <time>2018-06-10T08:15:55.038Z</time>
      </trkpt>
      <trkpt lat="38.82446867" lon="-0.091528">
        <ele>142.0</ele>
        <time>2018-06-10T08:15:56.038Z</time>
      </trkpt>
      <trkpt lat="38.82451417" lon="-0.09150283">
        <ele>142.0</ele>
        <time>2018-06-10T08:15:57.038Z</time>
      </trkpt>
      <trkpt lat="38.82455983" lon="-0.091477">
        <ele>143.0</ele>
        <time>2018-06-10T08:15:58.038Z</time>
      </trkpt>
      <trkpt lat="38.82460517" lon="-0.09145">
        <ele>143.0</ele>
        <time>2018-06-10T08:15:59.038Z</time>
      </trkpt>
      <trkpt lat="38.82465033" lon="-0.09142233">
        <ele>143.0</ele>
        <time>2018-06-10T08:16:00.038Z</time>
      </trkpt>
      <trkpt lat="38.82469467" lon="-0.09139333">
        <ele>143.0</ele>
        <time>2018-06-10T08:16:01.038Z</time>
      </trkpt>
      <trkpt lat="38.82473883" lon="-0.09136333">
        <ele>143.0</ele>
        <time>2018-06-10T08:16:02.038Z</time>
      </trkpt>
      <trkpt lat="38.824783" lon="-0.09133117">
        <ele>143.0</ele>
        <time>2018-06-10T08:16:03.038Z</time>
      </trkpt>
      <trkpt lat="38.8248255" lon="-0.09129717">
        <ele>144.0</ele>
        <time>2018-06-10T08:16:04.038Z</time>
      </trkpt>
      <trkpt lat="38.824867" lon="-0.091262">
        <ele>144.0</ele>
        <time>2018-06-10T08:16:05.038Z</time>
      </trkpt>
      <trkpt lat="38.8249075" lon="-0.0912255">
        <ele>144.0</ele>
        <time>2018-06-10T08:16:06.038Z</time>
      </trkpt>
      <trkpt lat="38.82494533" lon="-0.091186">
        <ele>144.0</ele>
        <time>2018-06-10T08:16:07.038Z</time>
      </trkpt>
      <trkpt lat="38.82498167" lon="-0.09114483">
        <ele>145.0</ele>
        <time>2018-06-10T08:16:08.038Z</time>
      </trkpt>
      <trkpt lat="38.8250175" lon="-0.091103">
        <ele>145.0</ele>
        <time>2018-06-10T08:16:09.038Z</time>
      </trkpt>
      <trkpt lat="38.8250545" lon="-0.09106033">
        <ele>146.0</ele>
        <time>2018-06-10T08:16:10.038Z</time>
      </trkpt>
      <trkpt lat="38.825087" lon="-0.09101133">
        <ele>147.0</ele>
        <time>2018-06-10T08:16:11.038Z</time>
      </trkpt>
      <trkpt lat="38.82510833" lon="-0.0909515">
        <ele>148.0</ele>
        <time>2018-06-10T08:16:12.038Z</time>
      </trkpt>
      <trkpt lat="38.82512367" lon="-0.09088767">
        <ele>149.0</ele>
        <time>2018-06-10T08:16:13.038Z</time>
      </trkpt>
      <trkpt lat="38.8251355" lon="-0.09082467">
        <ele>149.0</ele>
        <time>2018-06-10T08:16:14.038Z</time>
      </trkpt>
      <trkpt lat="38.82514817" lon="-0.0907665">
        <ele>149.0</ele>
        <time>2018-06-10T08:16:15.038Z</time>
      </trkpt>
      <trkpt lat="38.82516017" lon="-0.09070883">
        <ele>150.0</ele>
        <time>2018-06-10T08:16:16.038Z</time>
      </trkpt>
      <trkpt lat="38.82517317" lon="-0.09065133">
        <ele>150.0</ele>
        <time>2018-06-10T08:16:17.038Z</time>
      </trkpt>
      <trkpt lat="38.8251895" lon="-0.09059517">
        <ele>150.0</ele>
        <time>2018-06-10T08:16:18.038Z</time>
      </trkpt>
      <trkpt lat="38.82520967" lon="-0.090541">
        <ele>151.0</ele>
        <time>2018-06-10T08:16:19.038Z</time>
      </trkpt>
      <trkpt lat="38.82523283" lon="-0.09048883">
        <ele>152.0</ele>
        <time>2018-06-10T08:16:20.038Z</time>
      </trkpt>
      <trkpt lat="38.82525883" lon="-0.09043817">
        <ele>152.0</ele>
        <time>2018-06-10T08:16:21.038Z</time>
      </trkpt>
      <trkpt lat="38.82528433" lon="-0.09038767">
        <ele>152.0</ele>
        <time>2018-06-10T08:16:22.038Z</time>
      </trkpt>
      <trkpt lat="38.82530983" lon="-0.0903375">
        <ele>153.0</ele>
        <time>2018-06-10T08:16:23.038Z</time>
      </trkpt>
      <trkpt lat="38.82533433" lon="-0.09028533">
        <ele>153.0</ele>
        <time>2018-06-10T08:16:24.038Z</time>
      </trkpt>
      <trkpt lat="38.825359" lon="-0.090233">
        <ele>152.0</ele>
        <time>2018-06-10T08:16:25.038Z</time>
      </trkpt>
      <trkpt lat="38.825383" lon="-0.090179">
        <ele>152.0</ele>
        <time>2018-06-10T08:16:26.038Z</time>
      </trkpt>
      <trkpt lat="38.82540767" lon="-0.09012567">
        <ele>153.0</ele>
        <time>2018-06-10T08:16:27.038Z</time>
      </trkpt>
      <trkpt lat="38.82543183" lon="-0.09007267">
        <ele>153.0</ele>
        <time>2018-06-10T08:16:28.038Z</time>
      </trkpt>
      <trkpt lat="38.82545517" lon="-0.09002017">
        <ele>153.0</ele>
        <time>2018-06-10T08:16:29.038Z</time>
      </trkpt>
      <trkpt lat="38.82548" lon="-0.089968">
        <ele>154.0</ele>
        <time>2018-06-10T08:16:30.038Z</time>
      </trkpt>
      <trkpt lat="38.82550583" lon="-0.08991533">
        <ele>155.0</ele>
        <time>2018-06-10T08:16:31.038Z</time>
      </trkpt>
      <trkpt lat="38.82553167" lon="-0.089863">
        <ele>155.0</ele>
        <time>2018-06-10T08:16:32.038Z</time>
      </trkpt>
      <trkpt lat="38.82555433" lon="-0.0898115">
        <ele>155.0</ele>
        <time>2018-06-10T08:16:33.038Z</time>
      </trkpt>
      <trkpt lat="38.82557417" lon="-0.08976083">
        <ele>156.0</ele>
        <time>2018-06-10T08:16:34.038Z</time>
      </trkpt>
      <trkpt lat="38.825594" lon="-0.08970667">
        <ele>156.0</ele>
        <time>2018-06-10T08:16:35.038Z</time>
      </trkpt>
      <trkpt lat="38.82561083" lon="-0.08964933">
        <ele>157.0</ele>
        <time>2018-06-10T08:16:36.038Z</time>
      </trkpt>
      <trkpt lat="38.825626" lon="-0.0895885">
        <ele>158.0</ele>
        <time>2018-06-10T08:16:37.038Z</time>
      </trkpt>
      <trkpt lat="38.82563733" lon="-0.08952817">
        <ele>158.0</ele>
        <time>2018-06-10T08:16:38.038Z</time>
      </trkpt>
      <trkpt lat="38.82564967" lon="-0.08946733">
        <ele>158.0</ele>
        <time>2018-06-10T08:16:39.038Z</time>
      </trkpt>
      <trkpt lat="38.825661" lon="-0.08940717">
        <ele>158.0</ele>
        <time>2018-06-10T08:16:40.038Z</time>
      </trkpt>
      <trkpt lat="38.8256725" lon="-0.08934667">
        <ele>158.0</ele>
        <time>2018-06-10T08:16:41.038Z</time>
      </trkpt>
      <trkpt lat="38.82568267" lon="-0.08928533">
        <ele>158.0</ele>
        <time>2018-06-10T08:16:42.038Z</time>
      </trkpt>
      <trkpt lat="38.82569267" lon="-0.08922217">
        <ele>157.0</ele>
        <time>2018-06-10T08:16:43.038Z</time>
      </trkpt>
      <trkpt lat="38.825702" lon="-0.0891585">
        <ele>158.0</ele>
        <time>2018-06-10T08:16:44.038Z</time>
      </trkpt>
      <trkpt lat="38.82570983" lon="-0.0890935">
        <ele>158.0</ele>
        <time>2018-06-10T08:16:45.038Z</time>
      </trkpt>
      <trkpt lat="38.82571683" lon="-0.089028">
        <ele>158.0</ele>
        <time>2018-06-10T08:16:46.038Z</time>
      </trkpt>
      <trkpt lat="38.82572267" lon="-0.0889625">
        <ele>158.0</ele>
        <time>2018-06-10T08:16:47.038Z</time>
      </trkpt>
      <trkpt lat="38.82572733" lon="-0.088898">
        <ele>158.0</ele>
        <time>2018-06-10T08:16:48.038Z</time>
      </trkpt>
      <trkpt lat="38.82573033" lon="-0.088835">
        <ele>158.0</ele>
        <time>2018-06-10T08:16:49.038Z</time>
      </trkpt>
      <trkpt lat="38.82573217" lon="-0.08877117">
        <ele>158.0</ele>
        <time>2018-06-10T08:16:50.038Z</time>
      </trkpt>
      <trkpt lat="38.82573367" lon="-0.08870783">
        <ele>158.0</ele>
        <time>2018-06-10T08:16:51.038Z</time>
      </trkpt>
      <trkpt lat="38.82573717" lon="-0.0886425">
        <ele>157.0</ele>
        <time>2018-06-10T08:16:52.038Z</time>
      </trkpt>
      <trkpt lat="38.82574283" lon="-0.08857683">
        <ele>156.0</ele>
        <time>2018-06-10T08:16:53.038Z</time>
      </trkpt>
      <trkpt lat="38.82575283" lon="-0.0885115">
        <ele>156.0</ele>
        <time>2018-06-10T08:16:54.038Z</time>
      </trkpt>
      <trkpt lat="38.82576733" lon="-0.08844833">
        <ele>155.0</ele>
        <time>2018-06-10T08:16:55.038Z</time>
      </trkpt>
      <trkpt lat="38.82578717" lon="-0.0883875">
        <ele>155.0</ele>
        <time>2018-06-10T08:16:56.038Z</time>
      </trkpt>
      <trkpt lat="38.82581033" lon="-0.08833033">
        <ele>154.0</ele>
        <time>2018-06-10T08:16:57.038Z</time>
      </trkpt>
      <trkpt lat="38.82584133" lon="-0.088281">
        <ele>156.0</ele>
        <time>2018-06-10T08:16:58.038Z</time>
      </trkpt>
      <trkpt lat="38.82587667" lon="-0.08823717">
        <ele>156.0</ele>
        <time>2018-06-10T08:16:59.038Z</time>
      </trkpt>
      <trkpt lat="38.825916" lon="-0.08819633">
        <ele>157.0</ele>
        <time>2018-06-10T08:17:00.038Z</time>
      </trkpt>
      <trkpt lat="38.825953" lon="-0.08815333">
        <ele>156.0</ele>
        <time>2018-06-10T08:17:01.038Z</time>
      </trkpt>
      <trkpt lat="38.82599067" lon="-0.08810717">
        <ele>156.0</ele>
        <time>2018-06-10T08:17:02.038Z</time>
      </trkpt>
      <trkpt lat="38.82602117" lon="-0.08805433">
        <ele>156.0</ele>
        <time>2018-06-10T08:17:03.038Z</time>
      </trkpt>
      <trkpt lat="38.82604533" lon="-0.087995">
        <ele>157.0</ele>
        <time>2018-06-10T08:17:04.038Z</time>
      </trkpt>
      <trkpt lat="38.82606133" lon="-0.08793017">
        <ele>157.0</ele>
        <time>2018-06-10T08:17:05.038Z</time>
      </trkpt>
      <trkpt lat="38.8260735" lon="-0.08786267">
        <ele>158.0</ele>
        <time>2018-06-10T08:17:06.038Z</time>
      </trkpt>
      <trkpt lat="38.826081" lon="-0.08779317">
        <ele>158.0</ele>
        <time>2018-06-10T08:17:07.038Z</time>
      </trkpt>
      <trkpt lat="38.826084" lon="-0.08772383">
        <ele>158.0</ele>
        <time>2018-06-10T08:17:08.038Z</time>
      </trkpt>
      <trkpt lat="38.82608433" lon="-0.0876555">
        <ele>159.0</ele>
        <time>2018-06-10T08:17:09.038Z</time>
      </trkpt>
      <trkpt lat="38.82608367" lon="-0.08758783">
        <ele>159.0</ele>
        <time>2018-06-10T08:17:10.038Z</time>
      </trkpt>
      <trkpt lat="38.82608183" lon="-0.08752033">
        <ele>159.0</ele>
        <time>2018-06-10T08:17:11.038Z</time>
      </trkpt>
      <trkpt lat="38.82607933" lon="-0.08745283">
        <ele>159.0</ele>
        <time>2018-06-10T08:17:12.038Z</time>
      </trkpt>
      <trkpt lat="38.82607583" lon="-0.087385">
        <ele>159.0</ele>
        <time>2018-06-10T08:17:13.038Z</time>
      </trkpt>
      <trkpt lat="38.826071" lon="-0.08731633">
        <ele>160.0</ele>
        <time>2018-06-10T08:17:14.038Z</time>
      </trkpt>
      <trkpt lat="38.82606517" lon="-0.08724667">
        <ele>160.0</ele>
        <time>2018-06-10T08:17:15.038Z</time>
      </trkpt>
      <trkpt lat="38.82605633" lon="-0.08717733">
        <ele>160.0</ele>
        <time>2018-06-10T08:17:16.038Z</time>
      </trkpt>
      <trkpt lat="38.8260445" lon="-0.0871085">
        <ele>160.0</ele>
        <time>2018-06-10T08:17:17.038Z</time>
      </trkpt>
      <trkpt lat="38.82603017" lon="-0.08704083">
        <ele>160.0</ele>
        <time>2018-06-10T08:17:18.038Z</time>
      </trkpt>
      <trkpt lat="38.82601317" lon="-0.08697483">
        <ele>161.0</ele>
        <time>2018-06-10T08:17:19.038Z</time>
      </trkpt>
      <trkpt lat="38.82599467" lon="-0.086911">
        <ele>161.0</ele>
        <time>2018-06-10T08:17:20.038Z</time>
      </trkpt>
      <trkpt lat="38.82597467" lon="-0.08684933">
        <ele>161.0</ele>
        <time>2018-06-10T08:17:21.038Z</time>
      </trkpt>
      <trkpt lat="38.825954" lon="-0.08678867">
        <ele>161.0</ele>
        <time>2018-06-10T08:17:22.038Z</time>
      </trkpt>
      <trkpt lat="38.8259335" lon="-0.08672817">
        <ele>162.0</ele>
        <time>2018-06-10T08:17:23.038Z</time>
      </trkpt>
      <trkpt lat="38.825912" lon="-0.08666717">
        <ele>162.0</ele>
        <time>2018-06-10T08:17:24.038Z</time>
      </trkpt>
      <trkpt lat="38.8258895" lon="-0.0866055">
        <ele>162.0</ele>
        <time>2018-06-10T08:17:25.038Z</time>
      </trkpt>
      <trkpt lat="38.82586583" lon="-0.08654333">
        <ele>162.0</ele>
        <time>2018-06-10T08:17:26.038Z</time>
      </trkpt>
      <trkpt lat="38.82584183" lon="-0.08647983">
        <ele>162.0</ele>
        <time>2018-06-10T08:17:27.038Z</time>
      </trkpt>
      <trkpt lat="38.82581783" lon="-0.08641567">
        <ele>162.0</ele>
        <time>2018-06-10T08:17:28.038Z</time>
      </trkpt>
      <trkpt lat="38.82579417" lon="-0.08635133">
        <ele>162.0</ele>
        <time>2018-06-10T08:17:29.038Z</time>
      </trkpt>
      <trkpt lat="38.82577083" lon="-0.08628733">
        <ele>162.0</ele>
        <time>2018-06-10T08:17:30.038Z</time>
      </trkpt>
      <trkpt lat="38.825748" lon="-0.086224">
        <ele>163.0</ele>
        <time>2018-06-10T08:17:31.038Z</time>
      </trkpt>
      <trkpt lat="38.82572617" lon="-0.08616033">
        <ele>163.0</ele>
        <time>2018-06-10T08:17:32.038Z</time>
      </trkpt>
      <trkpt lat="38.82570517" lon="-0.08609717">
        <ele>164.0</ele>
        <time>2018-06-10T08:17:33.038Z</time>
      </trkpt>
      <trkpt lat="38.82568567" lon="-0.086034">
        <ele>164.0</ele>
        <time>2018-06-10T08:17:34.038Z</time>
      </trkpt>
      <trkpt lat="38.82566783" lon="-0.0859705">
        <ele>164.0</ele>
        <time>2018-06-10T08:17:35.038Z</time>
      </trkpt>
      <trkpt lat="38.82565167" lon="-0.085906">
        <ele>164.0</ele>
        <time>2018-06-10T08:17:36.038Z</time>
      </trkpt>
      <trkpt lat="38.82563917" lon="-0.0858395">
        <ele>164.0</ele>
        <time>2018-06-10T08:17:37.038Z</time>
      </trkpt>
      <trkpt lat="38.82562817" lon="-0.08577217">
        <ele>165.0</ele>
        <time>2018-06-10T08:17:38.038Z</time>
      </trkpt>
      <trkpt lat="38.82561833" lon="-0.08570433">
        <ele>165.0</ele>
        <time>2018-06-10T08:17:39.038Z</time>
      </trkpt>
      <trkpt lat="38.82560583" lon="-0.08563767">
        <ele>165.0</ele>
        <time>2018-06-10T08:17:40.038Z</time>
      </trkpt>
      <trkpt lat="38.82559167" lon="-0.085571">
        <ele>165.0</ele>
        <time>2018-06-10T08:17:41.038Z</time>
      </trkpt>
      <trkpt lat="38.8255755" lon="-0.085505">
        <ele>165.0</ele>
        <time>2018-06-10T08:17:42.038Z</time>
      </trkpt>
      <trkpt lat="38.82555783" lon="-0.0854395">
        <ele>165.0</ele>
        <time>2018-06-10T08:17:43.038Z</time>
      </trkpt>
      <trkpt lat="38.82553883" lon="-0.08537467">
        <ele>165.0</ele>
        <time>2018-06-10T08:17:44.038Z</time>
      </trkpt>
      <trkpt lat="38.82552133" lon="-0.08530917">
        <ele>165.0</ele>
        <time>2018-06-10T08:17:45.038Z</time>
      </trkpt>
      <trkpt lat="38.82550617" lon="-0.08524267">
        <ele>165.0</ele>
        <time>2018-06-10T08:17:46.038Z</time>
      </trkpt>
      <trkpt lat="38.8254945" lon="-0.08517433">
        <ele>165.0</ele>
        <time>2018-06-10T08:17:47.038Z</time>
      </trkpt>
      <trkpt lat="38.82548683" lon="-0.08510417">
        <ele>164.0</ele>
        <time>2018-06-10T08:17:48.038Z</time>
      </trkpt>
      <trkpt lat="38.82548517" lon="-0.08503267">
        <ele>165.0</ele>
        <time>2018-06-10T08:17:49.038Z</time>
      </trkpt>
      <trkpt lat="38.82548833" lon="-0.08496067">
        <ele>164.0</ele>
        <time>2018-06-10T08:17:50.038Z</time>
      </trkpt>
      <trkpt lat="38.825493" lon="-0.08488933">
        <ele>164.0</ele>
        <time>2018-06-10T08:17:51.038Z</time>
      </trkpt>
      <trkpt lat="38.82549667" lon="-0.08481833">
        <ele>165.0</ele>
        <time>2018-06-10T08:17:52.038Z</time>
      </trkpt>
      <trkpt lat="38.8254995" lon="-0.08474767">
        <ele>165.0</ele>
        <time>2018-06-10T08:17:53.038Z</time>
      </trkpt>
      <trkpt lat="38.82550233" lon="-0.08467683">
        <ele>165.0</ele>
        <time>2018-06-10T08:17:54.038Z</time>
      </trkpt>
      <trkpt lat="38.825505" lon="-0.08460617">
        <ele>165.0</ele>
        <time>2018-06-10T08:17:55.038Z</time>
      </trkpt>
      <trkpt lat="38.82550683" lon="-0.08453567">
        <ele>165.0</ele>
        <time>2018-06-10T08:17:56.038Z</time>
      </trkpt>
      <trkpt lat="38.82550833" lon="-0.0844665">
        <ele>166.0</ele>
        <time>2018-06-10T08:17:57.038Z</time>
      </trkpt>
      <trkpt lat="38.82550983" lon="-0.08439783">
        <ele>166.0</ele>
        <time>2018-06-10T08:17:58.038Z</time>
      </trkpt>
      <trkpt lat="38.82551283" lon="-0.08433033">
        <ele>167.0</ele>
        <time>2018-06-10T08:17:59.038Z</time>
      </trkpt>
      <trkpt lat="38.825516" lon="-0.084262">
        <ele>167.0</ele>
        <time>2018-06-10T08:18:00.038Z</time>
      </trkpt>
      <trkpt lat="38.82551883" lon="-0.0841925">
        <ele>166.0</ele>
        <time>2018-06-10T08:18:01.038Z</time>
      </trkpt>
      <trkpt lat="38.8255215" lon="-0.08412117">
        <ele>166.0</ele>
        <time>2018-06-10T08:18:02.038Z</time>
      </trkpt>
      <trkpt lat="38.82552483" lon="-0.08404833">
        <ele>166.0</ele>
        <time>2018-06-10T08:18:03.038Z</time>
      </trkpt>
      <trkpt lat="38.82552917" lon="-0.08397517">
        <ele>167.0</ele>
        <time>2018-06-10T08:18:04.038Z</time>
      </trkpt>
      <trkpt lat="38.8255335" lon="-0.08390167">
        <ele>167.0</ele>
        <time>2018-06-10T08:18:05.038Z</time>
      </trkpt>
      <trkpt lat="38.8255385" lon="-0.08382867">
        <ele>167.0</ele>
        <time>2018-06-10T08:18:06.038Z</time>
      </trkpt>
      <trkpt lat="38.82554317" lon="-0.0837565">
        <ele>167.0</ele>
        <time>2018-06-10T08:18:07.038Z</time>
      </trkpt>
      <trkpt lat="38.82554683" lon="-0.08368567">
        <ele>168.0</ele>
        <time>2018-06-10T08:18:08.038Z</time>
      </trkpt>
      <trkpt lat="38.82554933" lon="-0.08361583">
        <ele>167.0</ele>
        <time>2018-06-10T08:18:09.038Z</time>
      </trkpt>
      <trkpt lat="38.82554983" lon="-0.08354583">
        <ele>167.0</ele>
        <time>2018-06-10T08:18:10.038Z</time>
      </trkpt>
      <trkpt lat="38.82554683" lon="-0.083475">
        <ele>168.0</ele>
        <time>2018-06-10T08:18:11.038Z</time>
      </trkpt>
      <trkpt lat="38.82553783" lon="-0.08340533">
        <ele>167.0</ele>
        <time>2018-06-10T08:18:12.038Z</time>
      </trkpt>
      <trkpt lat="38.8255225" lon="-0.083338">
        <ele>168.0</ele>
        <time>2018-06-10T08:18:13.038Z</time>
      </trkpt>
      <trkpt lat="38.82549917" lon="-0.08327667">
        <ele>167.0</ele>
        <time>2018-06-10T08:18:14.038Z</time>
      </trkpt>
      <trkpt lat="38.82547" lon="-0.08322117">
        <ele>167.0</ele>
        <time>2018-06-10T08:18:15.038Z</time>
      </trkpt>
      <trkpt lat="38.82543267" lon="-0.08317333">
        <ele>167.0</ele>
        <time>2018-06-10T08:18:16.038Z</time>
      </trkpt>
      <trkpt lat="38.82538167" lon="-0.08314967">
        <ele>168.0</ele>
        <time>2018-06-10T08:18:17.038Z</time>
      </trkpt>
      <trkpt lat="38.8253235" lon="-0.08314167">
        <ele>168.0</ele>
        <time>2018-06-10T08:18:18.038Z</time>
      </trkpt>
      <trkpt lat="38.82526433" lon="-0.08314583">
        <ele>168.0</ele>
        <time>2018-06-10T08:18:19.038Z</time>
      </trkpt>
      <trkpt lat="38.82521317" lon="-0.083147">
        <ele>168.0</ele>
        <time>2018-06-10T08:18:20.038Z</time>
      </trkpt>
      <trkpt lat="38.8251635" lon="-0.0831525">
        <ele>169.0</ele>
        <time>2018-06-10T08:18:21.038Z</time>
      </trkpt>
      <trkpt lat="38.82511383" lon="-0.08316683">
        <ele>170.0</ele>
        <time>2018-06-10T08:18:22.038Z</time>
      </trkpt>
      <trkpt lat="38.82506533" lon="-0.0831845">
        <ele>170.0</ele>
        <time>2018-06-10T08:18:23.038Z</time>
      </trkpt>
      <trkpt lat="38.82501933" lon="-0.0832055">
        <ele>171.0</ele>
        <time>2018-06-10T08:18:24.038Z</time>
      </trkpt>
      <trkpt lat="38.82497367" lon="-0.0832285">
        <ele>171.0</ele>
        <time>2018-06-10T08:18:25.038Z</time>
      </trkpt>
      <trkpt lat="38.82492717" lon="-0.08325233">
        <ele>171.0</ele>
        <time>2018-06-10T08:18:26.038Z</time>
      </trkpt>
      <trkpt lat="38.82487817" lon="-0.08327983">
        <ele>171.0</ele>
        <time>2018-06-10T08:18:27.038Z</time>
      </trkpt>
      <trkpt lat="38.82482817" lon="-0.08330567">
        <ele>171.0</ele>
        <time>2018-06-10T08:18:28.038Z</time>
      </trkpt>
      <trkpt lat="38.82477767" lon="-0.08332883">
        <ele>171.0</ele>
        <time>2018-06-10T08:18:29.038Z</time>
      </trkpt>
      <trkpt lat="38.82472717" lon="-0.083345">
        <ele>172.0</ele>
        <time>2018-06-10T08:18:30.038Z</time>
      </trkpt>
      <trkpt lat="38.82467633" lon="-0.08335617">
        <ele>172.0</ele>
        <time>2018-06-10T08:18:31.038Z</time>
      </trkpt>
      <trkpt lat="38.82462467" lon="-0.0833635">
        <ele>172.0</ele>
        <time>2018-06-10T08:18:32.038Z</time>
      </trkpt>
      <trkpt lat="38.82457333" lon="-0.083368">
        <ele>172.0</ele>
        <time>2018-06-10T08:18:33.038Z</time>
      </trkpt>
      <trkpt lat="38.82452267" lon="-0.08336683">
        <ele>173.0</ele>
        <time>2018-06-10T08:18:34.038Z</time>
      </trkpt>
      <trkpt lat="38.82447217" lon="-0.08336133">
        <ele>173.0</ele>
        <time>2018-06-10T08:18:35.038Z</time>
      </trkpt>
      <trkpt lat="38.8244225" lon="-0.08334867">
        <ele>173.0</ele>
        <time>2018-06-10T08:18:36.038Z</time>
      </trkpt>
      <trkpt lat="38.824376" lon="-0.08332317">
        <ele>174.0</ele>
        <time>2018-06-10T08:18:37.038Z</time>
      </trkpt>
      <trkpt lat="38.82433317" lon="-0.08328783">
        <ele>174.0</ele>
        <time>2018-06-10T08:18:38.038Z</time>
      </trkpt>
      <trkpt lat="38.82429383" lon="-0.08324467">
        <ele>175.0</ele>
        <time>2018-06-10T08:18:39.038Z</time>
      </trkpt>
      <trkpt lat="38.824256" lon="-0.08320033">
        <ele>175.0</ele>
        <time>2018-06-10T08:18:40.038Z</time>
      </trkpt>
      <trkpt lat="38.82422" lon="-0.08315283">
        <ele>175.0</ele>
        <time>2018-06-10T08:18:41.038Z</time>
      </trkpt>
      <trkpt lat="38.8241855" lon="-0.08310483">
        <ele>175.0</ele>
        <time>2018-06-10T08:18:42.038Z</time>
      </trkpt>
      <trkpt lat="38.824152" lon="-0.08305733">
        <ele>176.0</ele>
        <time>2018-06-10T08:18:43.038Z</time>
      </trkpt>
      <trkpt lat="38.82411967" lon="-0.0830095">
        <ele>176.0</ele>
        <time>2018-06-10T08:18:44.038Z</time>
      </trkpt>
      <trkpt lat="38.82408767" lon="-0.0829605">
        <ele>176.0</ele>
        <time>2018-06-10T08:18:45.038Z</time>
      </trkpt>
      <trkpt lat="38.82405617" lon="-0.08291133">
        <ele>177.0</ele>
        <time>2018-06-10T08:18:46.038Z</time>
      </trkpt>
      <trkpt lat="38.8240245" lon="-0.08286233">
        <ele>177.0</ele>
        <time>2018-06-10T08:18:47.038Z</time>
      </trkpt>
      <trkpt lat="38.82399317" lon="-0.08281283">
        <ele>177.0</ele>
        <time>2018-06-10T08:18:48.038Z</time>
      </trkpt>
      <trkpt lat="38.823963" lon="-0.08276317">
        <ele>177.0</ele>
        <time>2018-06-10T08:18:49.038Z</time>
      </trkpt>
      <trkpt lat="38.82393567" lon="-0.08271117">
        <ele>177.0</ele>
        <time>2018-06-10T08:18:50.038Z</time>
      </trkpt>
      <trkpt lat="38.8239145" lon="-0.0826545">
        <ele>178.0</ele>
        <time>2018-06-10T08:18:51.038Z</time>
      </trkpt>
      <trkpt lat="38.82389983" lon="-0.0825935">
        <ele>178.0</ele>
        <time>2018-06-10T08:18:52.038Z</time>
      </trkpt>
      <trkpt lat="38.82389167" lon="-0.08252967">
        <ele>178.0</ele>
        <time>2018-06-10T08:18:53.038Z</time>
      </trkpt>
      <trkpt lat="38.82389117" lon="-0.08246533">
        <ele>178.0</ele>
        <time>2018-06-10T08:18:54.038Z</time>
      </trkpt>
      <trkpt lat="38.82389583" lon="-0.082401">
        <ele>178.0</ele>
        <time>2018-06-10T08:18:55.038Z</time>
      </trkpt>
      <trkpt lat="38.8239055" lon="-0.0823375">
        <ele>178.0</ele>
        <time>2018-06-10T08:18:56.038Z</time>
      </trkpt>
      <trkpt lat="38.82391683" lon="-0.08227483">
        <ele>178.0</ele>
        <time>2018-06-10T08:18:57.038Z</time>
      </trkpt>
      <trkpt lat="38.82393217" lon="-0.08221283">
        <ele>178.0</ele>
        <time>2018-06-10T08:18:58.038Z</time>
      </trkpt>
      <trkpt lat="38.82395" lon="-0.08215083">
        <ele>178.0</ele>
        <time>2018-06-10T08:18:59.038Z</time>
      </trkpt>
      <trkpt lat="38.82396883" lon="-0.08208867">
        <ele>178.0</ele>
        <time>2018-06-10T08:19:00.038Z</time>
      </trkpt>
      <trkpt lat="38.82398617" lon="-0.08202567">
        <ele>179.0</ele>
        <time>2018-06-10T08:19:01.038Z</time>
      </trkpt>
      <trkpt lat="38.82400083" lon="-0.0819615">
        <ele>179.0</ele>
        <time>2018-06-10T08:19:02.038Z</time>
      </trkpt>
      <trkpt lat="38.82401133" lon="-0.08189633">
        <ele>179.0</ele>
        <time>2018-06-10T08:19:03.038Z</time>
      </trkpt>
      <trkpt lat="38.82401883" lon="-0.0818305">
        <ele>179.0</ele>
        <time>2018-06-10T08:19:04.038Z</time>
      </trkpt>
      <trkpt lat="38.8240255" lon="-0.0817645">
        <ele>179.0</ele>
        <time>2018-06-10T08:19:05.038Z</time>
      </trkpt>
      <trkpt lat="38.82403167" lon="-0.08169783">
        <ele>180.0</ele>
        <time>2018-06-10T08:19:06.038Z</time>
      </trkpt>
      <trkpt lat="38.824038" lon="-0.0816305">
        <ele>180.0</ele>
        <time>2018-06-10T08:19:07.038Z</time>
      </trkpt>
      <trkpt lat="38.82404333" lon="-0.08156217">
        <ele>180.0</ele>
        <time>2018-06-10T08:19:08.038Z</time>
      </trkpt>
      <trkpt lat="38.824048" lon="-0.08149417">
        <ele>181.0</ele>
        <time>2018-06-10T08:19:09.038Z</time>
      </trkpt>
      <trkpt lat="38.824052" lon="-0.08142667">
        <ele>181.0</ele>
        <time>2018-06-10T08:19:10.038Z</time>
      </trkpt>
      <trkpt lat="38.82405467" lon="-0.08135917">
        <ele>181.0</ele>
        <time>2018-06-10T08:19:11.038Z</time>
      </trkpt>
      <trkpt lat="38.82405733" lon="-0.08129">
        <ele>181.0</ele>
        <time>2018-06-10T08:19:12.038Z</time>
      </trkpt>
      <trkpt lat="38.82405867" lon="-0.0812195">
        <ele>182.0</ele>
        <time>2018-06-10T08:19:13.038Z</time>
      </trkpt>
      <trkpt lat="38.82405883" lon="-0.08114817">
        <ele>182.0</ele>
        <time>2018-06-10T08:19:14.038Z</time>
      </trkpt>
      <trkpt lat="38.82405683" lon="-0.08107667">
        <ele>183.0</ele>
        <time>2018-06-10T08:19:15.038Z</time>
      </trkpt>
      <trkpt lat="38.82405333" lon="-0.08100517">
        <ele>183.0</ele>
        <time>2018-06-10T08:19:16.038Z</time>
      </trkpt>
      <trkpt lat="38.8240485" lon="-0.08093417">
        <ele>184.0</ele>
        <time>2018-06-10T08:19:17.038Z</time>
      </trkpt>
      <trkpt lat="38.82404317" lon="-0.08086383">
        <ele>184.0</ele>
        <time>2018-06-10T08:19:18.038Z</time>
      </trkpt>
      <trkpt lat="38.82403817" lon="-0.08079417">
        <ele>184.0</ele>
        <time>2018-06-10T08:19:19.038Z</time>
      </trkpt>
      <trkpt lat="38.8240335" lon="-0.08072533">
        <ele>185.0</ele>
        <time>2018-06-10T08:19:20.038Z</time>
      </trkpt>
      <trkpt lat="38.82402867" lon="-0.080657">
        <ele>185.0</ele>
        <time>2018-06-10T08:19:21.038Z</time>
      </trkpt>
      <trkpt lat="38.8240245" lon="-0.0805895">
        <ele>186.0</ele>
        <time>2018-06-10T08:19:22.038Z</time>
      </trkpt>
      <trkpt lat="38.82402083" lon="-0.08052183">
        <ele>186.0</ele>
        <time>2018-06-10T08:19:23.038Z</time>
      </trkpt>
      <trkpt lat="38.8240185" lon="-0.08045333">
        <ele>186.0</ele>
        <time>2018-06-10T08:19:24.038Z</time>
      </trkpt>
      <trkpt lat="38.82401633" lon="-0.08038417">
        <ele>187.0</ele>
        <time>2018-06-10T08:19:25.038Z</time>
      </trkpt>
      <trkpt lat="38.824014" lon="-0.08031467">
        <ele>188.0</ele>
        <time>2018-06-10T08:19:26.038Z</time>
      </trkpt>
      <trkpt lat="38.82400983" lon="-0.08024617">
        <ele>188.0</ele>
        <time>2018-06-10T08:19:27.038Z</time>
      </trkpt>
      <trkpt lat="38.8240045" lon="-0.08017867">
        <ele>188.0</ele>
        <time>2018-06-10T08:19:28.038Z</time>
      </trkpt>
      <trkpt lat="38.82399767" lon="-0.08011167">
        <ele>188.0</ele>
        <time>2018-06-10T08:19:29.038Z</time>
      </trkpt>
      <trkpt lat="38.82398917" lon="-0.08004533">
        <ele>189.0</ele>
        <time>2018-06-10T08:19:30.038Z</time>
      </trkpt>
      <trkpt lat="38.82397767" lon="-0.07997983">
        <ele>189.0</ele>
        <time>2018-06-10T08:19:31.038Z</time>
      </trkpt>
      <trkpt lat="38.82396333" lon="-0.07991617">
        <ele>190.0</ele>
        <time>2018-06-10T08:19:32.038Z</time>
      </trkpt>
      <trkpt lat="38.8239465" lon="-0.0798545">
        <ele>190.0</ele>
        <time>2018-06-10T08:19:33.038Z</time>
      </trkpt>
      <trkpt lat="38.82392767" lon="-0.0797945">
        <ele>190.0</ele>
        <time>2018-06-10T08:19:34.038Z</time>
      </trkpt>
      <trkpt lat="38.82390817" lon="-0.07973533">
        <ele>190.0</ele>
        <time>2018-06-10T08:19:35.038Z</time>
      </trkpt>
      <trkpt lat="38.82388883" lon="-0.07967633">
        <ele>191.0</ele>
        <time>2018-06-10T08:19:36.038Z</time>
      </trkpt>
      <trkpt lat="38.82387" lon="-0.07961717">
        <ele>191.0</ele>
        <time>2018-06-10T08:19:37.038Z</time>
      </trkpt>
      <trkpt lat="38.82385167" lon="-0.07955767">
        <ele>191.0</ele>
        <time>2018-06-10T08:19:38.038Z</time>
      </trkpt>
      <trkpt lat="38.82383433" lon="-0.0794975">
        <ele>191.0</ele>
        <time>2018-06-10T08:19:39.038Z</time>
      </trkpt>
      <trkpt lat="38.823817" lon="-0.07943717">
        <ele>192.0</ele>
        <time>2018-06-10T08:19:40.038Z</time>
      </trkpt>
      <trkpt lat="38.82379967" lon="-0.07937683">
        <ele>192.0</ele>
        <time>2018-06-10T08:19:41.038Z</time>
      </trkpt>
      <trkpt lat="38.82378233" lon="-0.07931717">
        <ele>192.0</ele>
        <time>2018-06-10T08:19:42.038Z</time>
      </trkpt>
      <trkpt lat="38.82376867" lon="-0.07925767">
        <ele>193.0</ele>
        <time>2018-06-10T08:19:43.038Z</time>
      </trkpt>
      <trkpt lat="38.82376167" lon="-0.07919733">
        <ele>193.0</ele>
        <time>2018-06-10T08:19:44.038Z</time>
      </trkpt>
      <trkpt lat="38.82376333" lon="-0.079136">
        <ele>194.0</ele>
        <time>2018-06-10T08:19:45.038Z</time>
      </trkpt>
      <trkpt lat="38.82377117" lon="-0.07907517">
        <ele>194.0</ele>
        <time>2018-06-10T08:19:46.038Z</time>
      </trkpt>
      <trkpt lat="38.82378233" lon="-0.07901767">
        <ele>195.0</ele>
        <time>2018-06-10T08:19:47.038Z</time>
      </trkpt>
      <trkpt lat="38.82379867" lon="-0.078963">
        <ele>194.0</ele>
        <time>2018-06-10T08:19:48.038Z</time>
      </trkpt>
      <trkpt lat="38.82381867" lon="-0.07891067">
        <ele>194.0</ele>
        <time>2018-06-10T08:19:49.038Z</time>
      </trkpt>
      <trkpt lat="38.82384133" lon="-0.0788585">
        <ele>193.0</ele>
        <time>2018-06-10T08:19:50.038Z</time>
      </trkpt>
      <trkpt lat="38.8238625" lon="-0.0788075">
        <ele>193.0</ele>
        <time>2018-06-10T08:19:51.038Z</time>
      </trkpt>
      <trkpt lat="38.82388367" lon="-0.07875717">
        <ele>193.0</ele>
        <time>2018-06-10T08:19:52.038Z</time>
      </trkpt>
      <trkpt lat="38.82390517" lon="-0.07870717">
        <ele>194.0</ele>
        <time>2018-06-10T08:19:53.038Z</time>
      </trkpt>
      <trkpt lat="38.82392667" lon="-0.078657">
        <ele>194.0</ele>
        <time>2018-06-10T08:19:54.038Z</time>
      </trkpt>
      <trkpt lat="38.823948" lon="-0.0786065">
        <ele>194.0</ele>
        <time>2018-06-10T08:19:55.038Z</time>
      </trkpt>
      <trkpt lat="38.8239685" lon="-0.0785565">
        <ele>194.0</ele>
        <time>2018-06-10T08:19:56.038Z</time>
      </trkpt>
      <trkpt lat="38.8239885" lon="-0.07850567">
        <ele>194.0</ele>
        <time>2018-06-10T08:19:57.038Z</time>
      </trkpt>
      <trkpt lat="38.82400683" lon="-0.078452">
        <ele>194.0</ele>
        <time>2018-06-10T08:19:58.038Z</time>
      </trkpt>
      <trkpt lat="38.824022" lon="-0.07839717">
        <ele>194.0</ele>
        <time>2018-06-10T08:19:59.038Z</time>
      </trkpt>
      <trkpt lat="38.8240315" lon="-0.07834033">
        <ele>194.0</ele>
        <time>2018-06-10T08:20:00.038Z</time>
      </trkpt>
      <trkpt lat="38.82403833" lon="-0.07828367">
        <ele>195.0</ele>
        <time>2018-06-10T08:20:01.038Z</time>
      </trkpt>
      <trkpt lat="38.82404183" lon="-0.07822533">
        <ele>195.0</ele>
        <time>2018-06-10T08:20:02.038Z</time>
      </trkpt>
      <trkpt lat="38.82404367" lon="-0.07816733">
        <ele>195.0</ele>
        <time>2018-06-10T08:20:03.038Z</time>
      </trkpt>
      <trkpt lat="38.82404167" lon="-0.07811">
        <ele>196.0</ele>
        <time>2018-06-10T08:20:04.038Z</time>
      </trkpt>
      <trkpt lat="38.82403583" lon="-0.07805383">
        <ele>196.0</ele>
        <time>2018-06-10T08:20:05.038Z</time>
      </trkpt>
      <trkpt lat="38.82402833" lon="-0.077999">
        <ele>197.0</ele>
        <time>2018-06-10T08:20:06.038Z</time>
      </trkpt>
      <trkpt lat="38.82401767" lon="-0.07794633">
        <ele>197.0</ele>
        <time>2018-06-10T08:20:07.038Z</time>
      </trkpt>
      <trkpt lat="38.824006" lon="-0.07789783">
        <ele>198.0</ele>
        <time>2018-06-10T08:20:08.038Z</time>
      </trkpt>
      <trkpt lat="38.82399233" lon="-0.07784933">
        <ele>198.0</ele>
        <time>2018-06-10T08:20:09.038Z</time>
      </trkpt>
      <trkpt lat="38.8239785" lon="-0.07780083">
        <ele>198.0</ele>
        <time>2018-06-10T08:20:10.038Z</time>
      </trkpt>
      <trkpt lat="38.82396267" lon="-0.07775133">
        <ele>198.0</ele>
        <time>2018-06-10T08:20:11.038Z</time>
      </trkpt>
      <trkpt lat="38.82394433" lon="-0.07770433">
        <ele>198.0</ele>
        <time>2018-06-10T08:20:12.038Z</time>
      </trkpt>
      <trkpt lat="38.82392333" lon="-0.07765817">
        <ele>198.0</ele>
        <time>2018-06-10T08:20:13.038Z</time>
      </trkpt>
      <trkpt lat="38.82390083" lon="-0.07761167">
        <ele>197.0</ele>
        <time>2018-06-10T08:20:14.038Z</time>
      </trkpt>
      <trkpt lat="38.82387967" lon="-0.07756417">
        <ele>197.0</ele>
        <time>2018-06-10T08:20:15.038Z</time>
      </trkpt>
      <trkpt lat="38.8238605" lon="-0.07751483">
        <ele>198.0</ele>
        <time>2018-06-10T08:20:16.038Z</time>
      </trkpt>
      <trkpt lat="38.82384167" lon="-0.07746533">
        <ele>198.0</ele>
        <time>2018-06-10T08:20:17.038Z</time>
      </trkpt>
      <trkpt lat="38.82382" lon="-0.077416">
        <ele>198.0</ele>
        <time>2018-06-10T08:20:18.038Z</time>
      </trkpt>
      <trkpt lat="38.82379467" lon="-0.07736617">
        <ele>199.0</ele>
        <time>2018-06-10T08:20:19.038Z</time>
      </trkpt>
      <trkpt lat="38.82376817" lon="-0.07731217">
        <ele>198.0</ele>
        <time>2018-06-10T08:20:20.038Z</time>
      </trkpt>
      <trkpt lat="38.82374" lon="-0.07725183">
        <ele>198.0</ele>
        <time>2018-06-10T08:20:21.038Z</time>
      </trkpt>
      <trkpt lat="38.82371183" lon="-0.07718517">
        <ele>197.0</ele>
        <time>2018-06-10T08:20:22.038Z</time>
      </trkpt>
      <trkpt lat="38.823683" lon="-0.0771135">
        <ele>197.0</ele>
        <time>2018-06-10T08:20:23.038Z</time>
      </trkpt>
      <trkpt lat="38.82365533" lon="-0.07703817">
        <ele>197.0</ele>
        <time>2018-06-10T08:20:24.038Z</time>
      </trkpt>
      <trkpt lat="38.8236285" lon="-0.07695883">
        <ele>196.0</ele>
        <time>2018-06-10T08:20:25.038Z</time>
      </trkpt>
      <trkpt lat="38.82360583" lon="-0.07687483">
        <ele>196.0</ele>
        <time>2018-06-10T08:20:26.038Z</time>
      </trkpt>
      <trkpt lat="38.82359183" lon="-0.07678433">
        <ele>196.0</ele>
        <time>2018-06-10T08:20:27.038Z</time>
      </trkpt>
      <trkpt lat="38.82358583" lon="-0.07668933">
        <ele>195.0</ele>
        <time>2018-06-10T08:20:28.038Z</time>
      </trkpt>
      <trkpt lat="38.82358433" lon="-0.07658867">
        <ele>194.0</ele>
        <time>2018-06-10T08:20:29.038Z</time>
      </trkpt>
      <trkpt lat="38.82358433" lon="-0.07648467">
        <ele>193.0</ele>
        <time>2018-06-10T08:20:30.038Z</time>
      </trkpt>
      <trkpt lat="38.82358467" lon="-0.076376">
        <ele>193.0</ele>
        <time>2018-06-10T08:20:31.038Z</time>
      </trkpt>
      <trkpt lat="38.82358583" lon="-0.07626417">
        <ele>192.0</ele>
        <time>2018-06-10T08:20:32.038Z</time>
      </trkpt>
      <trkpt lat="38.8235865" lon="-0.07614917">
        <ele>192.0</ele>
        <time>2018-06-10T08:20:33.038Z</time>
      </trkpt>
      <trkpt lat="38.82358833" lon="-0.0760315">
        <ele>191.0</ele>
        <time>2018-06-10T08:20:34.038Z</time>
      </trkpt>
      <trkpt lat="38.82359267" lon="-0.07591133">
        <ele>191.0</ele>
        <time>2018-06-10T08:20:35.038Z</time>
      </trkpt>
      <trkpt lat="38.8236005" lon="-0.075789">
        <ele>190.0</ele>
        <time>2018-06-10T08:20:36.038Z</time>
      </trkpt>
      <trkpt lat="38.82361017" lon="-0.07566583">
        <ele>189.0</ele>
        <time>2018-06-10T08:20:37.038Z</time>
      </trkpt>
      <trkpt lat="38.82362533" lon="-0.0755415">
        <ele>189.0</ele>
        <time>2018-06-10T08:20:38.038Z</time>
      </trkpt>
      <trkpt lat="38.823645" lon="-0.075417">
        <ele>188.0</ele>
        <time>2018-06-10T08:20:39.038Z</time>
      </trkpt>
      <trkpt lat="38.82366933" lon="-0.07529233">
        <ele>187.0</ele>
        <time>2018-06-10T08:20:40.038Z</time>
      </trkpt>
      <trkpt lat="38.82369883" lon="-0.0751675">
        <ele>187.0</ele>
        <time>2018-06-10T08:20:41.038Z</time>
      </trkpt>
      <trkpt lat="38.82372933" lon="-0.07504083">
        <ele>187.0</ele>
        <time>2018-06-10T08:20:42.038Z</time>
      </trkpt>
      <trkpt lat="38.8237565" lon="-0.07491467">
        <ele>186.0</ele>
        <time>2018-06-10T08:20:43.038Z</time>
      </trkpt>
      <trkpt lat="38.82376733" lon="-0.07479467">
        <ele>185.0</ele>
        <time>2018-06-10T08:20:44.038Z</time>
      </trkpt>
      <trkpt lat="38.8237545" lon="-0.07468667">
        <ele>185.0</ele>
        <time>2018-06-10T08:20:45.038Z</time>
      </trkpt>
      <trkpt lat="38.8237545" lon="-0.07468667">
        <ele>185.0</ele>
        <time>2018-06-10T08:20:46.038Z</time>
      </trkpt>
      <trkpt lat="38.82367033" lon="-0.074507">
        <ele>185.0</ele>
        <time>2018-06-10T08:20:47.038Z</time>
      </trkpt>
      <trkpt lat="38.82359883" lon="-0.07444867">
        <ele>181.0</ele>
        <time>2018-06-10T08:20:48.038Z</time>
      </trkpt>
      <trkpt lat="38.823512" lon="-0.074413">
        <ele>180.0</ele>
        <time>2018-06-10T08:20:49.038Z</time>
      </trkpt>
      <trkpt lat="38.823414" lon="-0.07440167">
        <ele>179.0</ele>
        <time>2018-06-10T08:20:50.038Z</time>
      </trkpt>
      <trkpt lat="38.8233195" lon="-0.074409">
        <ele>180.0</ele>
        <time>2018-06-10T08:20:51.038Z</time>
      </trkpt>
      <trkpt lat="38.82322283" lon="-0.07443683">
        <ele>182.0</ele>
        <time>2018-06-10T08:20:52.038Z</time>
      </trkpt>
      <trkpt lat="38.82312567" lon="-0.07447617">
        <ele>180.0</ele>
        <time>2018-06-10T08:20:53.038Z</time>
      </trkpt>
      <trkpt lat="38.8230285" lon="-0.07451833">
        <ele>179.0</ele>
        <time>2018-06-10T08:20:54.038Z</time>
      </trkpt>
      <trkpt lat="38.8229315" lon="-0.07456033">
        <ele>179.0</ele>
        <time>2018-06-10T08:20:55.038Z</time>
      </trkpt>
      <trkpt lat="38.8228325" lon="-0.074602">
        <ele>178.0</ele>
        <time>2018-06-10T08:20:56.038Z</time>
      </trkpt>
      <trkpt lat="38.82273083" lon="-0.07464033">
        <ele>178.0</ele>
        <time>2018-06-10T08:20:57.038Z</time>
      </trkpt>
      <trkpt lat="38.82262733" lon="-0.07467317">
        <ele>177.0</ele>
        <time>2018-06-10T08:20:58.038Z</time>
      </trkpt>
      <trkpt lat="38.82251933" lon="-0.07468933">
        <ele>178.0</ele>
        <time>2018-06-10T08:20:59.038Z</time>
      </trkpt>
      <trkpt lat="38.8224095" lon="-0.07468583">
        <ele>177.0</ele>
        <time>2018-06-10T08:21:00.038Z</time>
      </trkpt>
      <trkpt lat="38.822297" lon="-0.0746705">
        <ele>175.0</ele>
        <time>2018-06-10T08:21:01.038Z</time>
      </trkpt>
      <trkpt lat="38.8221835" lon="-0.074656">
        <ele>174.0</ele>
        <time>2018-06-10T08:21:02.038Z</time>
      </trkpt>
      <trkpt lat="38.82206733" lon="-0.0746555">
        <ele>173.0</ele>
        <time>2018-06-10T08:21:03.038Z</time>
      </trkpt>
      <trkpt lat="38.82194833" lon="-0.07466517">
        <ele>173.0</ele>
        <time>2018-06-10T08:21:04.038Z</time>
      </trkpt>
      <trkpt lat="38.82182833" lon="-0.0746825">
        <ele>172.0</ele>
        <time>2018-06-10T08:21:05.038Z</time>
      </trkpt>
      <trkpt lat="38.82170783" lon="-0.07469967">
        <ele>171.0</ele>
        <time>2018-06-10T08:21:06.038Z</time>
      </trkpt>
      <trkpt lat="38.82159017" lon="-0.074712">
        <ele>169.0</ele>
        <time>2018-06-10T08:21:07.038Z</time>
      </trkpt>
      <trkpt lat="38.82147517" lon="-0.07471283">
        <ele>167.0</ele>
        <time>2018-06-10T08:21:08.038Z</time>
      </trkpt>
      <trkpt lat="38.82135733" lon="-0.07468417">
        <ele>166.0</ele>
        <time>2018-06-10T08:21:09.038Z</time>
      </trkpt>
      <trkpt lat="38.82124167" lon="-0.07463783">
        <ele>162.0</ele>
        <time>2018-06-10T08:21:10.038Z</time>
      </trkpt>
      <trkpt lat="38.8211275" lon="-0.0745835">
        <ele>161.0</ele>
        <time>2018-06-10T08:21:11.038Z</time>
      </trkpt>
      <trkpt lat="38.82101983" lon="-0.07452983">
        <ele>158.0</ele>
        <time>2018-06-10T08:21:12.038Z</time>
      </trkpt>
      <trkpt lat="38.82090767" lon="-0.0744485">
        <ele>154.0</ele>
        <time>2018-06-10T08:21:13.038Z</time>
      </trkpt>
      <trkpt lat="38.8208035" lon="-0.07433733">
        <ele>144.0</ele>
        <time>2018-06-10T08:21:14.038Z</time>
      </trkpt>
      <trkpt lat="38.820723" lon="-0.074198">
        <ele>148.0</ele>
        <time>2018-06-10T08:21:15.038Z</time>
      </trkpt>
      <trkpt lat="38.82066983" lon="-0.074052">
        <ele>151.0</ele>
        <time>2018-06-10T08:21:16.038Z</time>
      </trkpt>
      <trkpt lat="38.82062367" lon="-0.07390667">
        <ele>150.0</ele>
        <time>2018-06-10T08:21:17.038Z</time>
      </trkpt>
      <trkpt lat="38.82057217" lon="-0.07377183">
        <ele>149.0</ele>
        <time>2018-06-10T08:21:18.038Z</time>
      </trkpt>
      <trkpt lat="38.82051067" lon="-0.07365233">
        <ele>149.0</ele>
        <time>2018-06-10T08:21:19.038Z</time>
      </trkpt>
      <trkpt lat="38.82043233" lon="-0.073555">
        <ele>148.0</ele>
        <time>2018-06-10T08:21:20.038Z</time>
      </trkpt>
      <trkpt lat="38.82031917" lon="-0.07349933">
        <ele>144.0</ele>
        <time>2018-06-10T08:21:21.038Z</time>
      </trkpt>
      <trkpt lat="38.82019383" lon="-0.07347433">
        <ele>144.0</ele>
        <time>2018-06-10T08:21:22.038Z</time>
      </trkpt>
      <trkpt lat="38.82007567" lon="-0.0734745">
        <ele>144.0</ele>
        <time>2018-06-10T08:21:23.038Z</time>
      </trkpt>
      <trkpt lat="38.81997633" lon="-0.0734795">
        <ele>142.0</ele>
        <time>2018-06-10T08:21:24.038Z</time>
      </trkpt>
      <trkpt lat="38.8198755" lon="-0.07349117">
        <ele>142.0</ele>
        <time>2018-06-10T08:21:25.038Z</time>
      </trkpt>
      <trkpt lat="38.81977017" lon="-0.073491">
        <ele>139.0</ele>
        <time>2018-06-10T08:21:26.038Z</time>
      </trkpt>
      <trkpt lat="38.81966383" lon="-0.07346867">
        <ele>138.0</ele>
        <time>2018-06-10T08:21:27.038Z</time>
      </trkpt>
      <trkpt lat="38.81955867" lon="-0.07342067">
        <ele>137.0</ele>
        <time>2018-06-10T08:21:28.038Z</time>
      </trkpt>
      <trkpt lat="38.819452" lon="-0.07335333">
        <ele>139.0</ele>
        <time>2018-06-10T08:21:29.038Z</time>
      </trkpt>
      <trkpt lat="38.81934067" lon="-0.07325867">
        <ele>145.0</ele>
        <time>2018-06-10T08:21:30.038Z</time>
      </trkpt>
      <trkpt lat="38.81923817" lon="-0.07314033">
        <ele>143.0</ele>
        <time>2018-06-10T08:21:31.038Z</time>
      </trkpt>
      <trkpt lat="38.81914917" lon="-0.07300083">
        <ele>142.0</ele>
        <time>2018-06-10T08:21:32.038Z</time>
      </trkpt>
      <trkpt lat="38.81907517" lon="-0.072861">
        <ele>142.0</ele>
        <time>2018-06-10T08:21:33.038Z</time>
      </trkpt>
      <trkpt lat="38.81900367" lon="-0.07272283">
        <ele>142.0</ele>
        <time>2018-06-10T08:21:34.038Z</time>
      </trkpt>
      <trkpt lat="38.81893767" lon="-0.072583">
        <ele>142.0</ele>
        <time>2018-06-10T08:21:35.038Z</time>
      </trkpt>
      <trkpt lat="38.81888567" lon="-0.072436">
        <ele>142.0</ele>
        <time>2018-06-10T08:21:36.038Z</time>
      </trkpt>
      <trkpt lat="38.81886017" lon="-0.072274">
        <ele>142.0</ele>
        <time>2018-06-10T08:21:37.038Z</time>
      </trkpt>
      <trkpt lat="38.81886067" lon="-0.07210233">
        <ele>141.0</ele>
        <time>2018-06-10T08:21:38.038Z</time>
      </trkpt>
      <trkpt lat="38.8188815" lon="-0.07192417">
        <ele>140.0</ele>
        <time>2018-06-10T08:21:39.038Z</time>
      </trkpt>
      <trkpt lat="38.81890433" lon="-0.07174767">
        <ele>140.0</ele>
        <time>2018-06-10T08:21:40.038Z</time>
      </trkpt>
      <trkpt lat="38.8189195" lon="-0.071571">
        <ele>139.0</ele>
        <time>2018-06-10T08:21:41.038Z</time>
      </trkpt>
      <trkpt lat="38.81891933" lon="-0.07139367">
        <ele>139.0</ele>
        <time>2018-06-10T08:21:42.038Z</time>
      </trkpt>
      <trkpt lat="38.81890533" lon="-0.07121717">
        <ele>139.0</ele>
        <time>2018-06-10T08:21:43.038Z</time>
      </trkpt>
      <trkpt lat="38.81888217" lon="-0.07104317">
        <ele>139.0</ele>
        <time>2018-06-10T08:21:44.038Z</time>
      </trkpt>
      <trkpt lat="38.81885833" lon="-0.070872">
        <ele>139.0</ele>
        <time>2018-06-10T08:21:45.038Z</time>
      </trkpt>
      <trkpt lat="38.81883717" lon="-0.07070283">
        <ele>139.0</ele>
        <time>2018-06-10T08:21:46.038Z</time>
      </trkpt>
      <trkpt lat="38.81882017" lon="-0.07053367">
        <ele>139.0</ele>
        <time>2018-06-10T08:21:47.038Z</time>
      </trkpt>
      <trkpt lat="38.81880667" lon="-0.07036567">
        <ele>139.0</ele>
        <time>2018-06-10T08:21:48.038Z</time>
      </trkpt>
      <trkpt lat="38.81879667" lon="-0.0701975">
        <ele>139.0</ele>
        <time>2018-06-10T08:21:49.038Z</time>
      </trkpt>
      <trkpt lat="38.81879033" lon="-0.0700285">
        <ele>139.0</ele>
        <time>2018-06-10T08:21:50.038Z</time>
      </trkpt>
      <trkpt lat="38.8187855" lon="-0.06985917">
        <ele>139.0</ele>
        <time>2018-06-10T08:21:51.038Z</time>
      </trkpt>
      <trkpt lat="38.81877983" lon="-0.069691">
        <ele>139.0</ele>
        <time>2018-06-10T08:21:52.038Z</time>
      </trkpt>
      <trkpt lat="38.81877017" lon="-0.06952483">
        <ele>139.0</ele>
        <time>2018-06-10T08:21:53.038Z</time>
      </trkpt>
      <trkpt lat="38.8187545" lon="-0.06936067">
        <ele>139.0</ele>
        <time>2018-06-10T08:21:54.038Z</time>
      </trkpt>
      <trkpt lat="38.81872983" lon="-0.069199">
        <ele>140.0</ele>
        <time>2018-06-10T08:21:55.038Z</time>
      </trkpt>
      <trkpt lat="38.8186965" lon="-0.06904067">
        <ele>139.0</ele>
        <time>2018-06-10T08:21:56.038Z</time>
      </trkpt>
      <trkpt lat="38.81865083" lon="-0.06888833">
        <ele>138.0</ele>
        <time>2018-06-10T08:21:57.038Z</time>
      </trkpt>
      <trkpt lat="38.81859433" lon="-0.06874317">
        <ele>137.0</ele>
        <time>2018-06-10T08:21:58.038Z</time>
      </trkpt>
      <trkpt lat="38.818531" lon="-0.06860367">
        <ele>138.0</ele>
        <time>2018-06-10T08:21:59.038Z</time>
      </trkpt>
      <trkpt lat="38.81845917" lon="-0.06847133">
        <ele>139.0</ele>
        <time>2018-06-10T08:22:00.038Z</time>
      </trkpt>
      <trkpt lat="38.818381" lon="-0.06834433">
        <ele>137.0</ele>
        <time>2018-06-10T08:22:01.038Z</time>
      </trkpt>
      <trkpt lat="38.81828667" lon="-0.06823">
        <ele>135.0</ele>
        <time>2018-06-10T08:22:02.038Z</time>
      </trkpt>
      <trkpt lat="38.8181905" lon="-0.06812133">
        <ele>135.0</ele>
        <time>2018-06-10T08:22:03.038Z</time>
      </trkpt>
      <trkpt lat="38.81808967" lon="-0.068021">
        <ele>135.0</ele>
        <time>2018-06-10T08:22:04.038Z</time>
      </trkpt>
      <trkpt lat="38.817991" lon="-0.06792283">
        <ele>135.0</ele>
        <time>2018-06-10T08:22:05.038Z</time>
      </trkpt>
      <trkpt lat="38.81789033" lon="-0.06782783">
        <ele>135.0</ele>
        <time>2018-06-10T08:22:06.038Z</time>
      </trkpt>
      <trkpt lat="38.81778917" lon="-0.06773433">
        <ele>134.0</ele>
        <time>2018-06-10T08:22:07.038Z</time>
      </trkpt>
      <trkpt lat="38.81768733" lon="-0.06764233">
        <ele>134.0</ele>
        <time>2018-06-10T08:22:08.038Z</time>
      </trkpt>
      <trkpt lat="38.81758083" lon="-0.06755517">
        <ele>133.0</ele>
        <time>2018-06-10T08:22:09.038Z</time>
      </trkpt>
      <trkpt lat="38.81747083" lon="-0.06747333">
        <ele>133.0</ele>
        <time>2018-06-10T08:22:10.038Z</time>
      </trkpt>
      <trkpt lat="38.81735833" lon="-0.06739567">
        <ele>132.0</ele>
        <time>2018-06-10T08:22:11.038Z</time>
      </trkpt>
      <trkpt lat="38.81724667" lon="-0.06731867">
        <ele>132.0</ele>
        <time>2018-06-10T08:22:12.038Z</time>
      </trkpt>
      <trkpt lat="38.817135" lon="-0.06724167">
        <ele>131.0</ele>
        <time>2018-06-10T08:22:13.038Z</time>
      </trkpt>
      <trkpt lat="38.81702467" lon="-0.06716317">
        <ele>131.0</ele>
        <time>2018-06-10T08:22:14.038Z</time>
      </trkpt>
      <trkpt lat="38.81691633" lon="-0.06708083">
        <ele>129.0</ele>
        <time>2018-06-10T08:22:15.038Z</time>
      </trkpt>
      <trkpt lat="38.8168125" lon="-0.06699067">
        <ele>129.0</ele>
        <time>2018-06-10T08:22:16.038Z</time>
      </trkpt>
      <trkpt lat="38.81671267" lon="-0.066893">
        <ele>128.0</ele>
        <time>2018-06-10T08:22:17.038Z</time>
      </trkpt>
      <trkpt lat="38.8166145" lon="-0.066793">
        <ele>128.0</ele>
        <time>2018-06-10T08:22:18.038Z</time>
      </trkpt>
      <trkpt lat="38.81651683" lon="-0.06669333">
        <ele>127.0</ele>
        <time>2018-06-10T08:22:19.038Z</time>
      </trkpt>
      <trkpt lat="38.81641983" lon="-0.06659483">
        <ele>127.0</ele>
        <time>2018-06-10T08:22:20.038Z</time>
      </trkpt>
      <trkpt lat="38.81632367" lon="-0.06649617">
        <ele>127.0</ele>
        <time>2018-06-10T08:22:21.038Z</time>
      </trkpt>
      <trkpt lat="38.81622733" lon="-0.06639817">
        <ele>126.0</ele>
        <time>2018-06-10T08:22:22.038Z</time>
      </trkpt>
      <trkpt lat="38.8161295" lon="-0.06630233">
        <ele>126.0</ele>
        <time>2018-06-10T08:22:23.038Z</time>
      </trkpt>
      <trkpt lat="38.81602883" lon="-0.06620967">
        <ele>125.0</ele>
        <time>2018-06-10T08:22:24.038Z</time>
      </trkpt>
      <trkpt lat="38.81592267" lon="-0.06612567">
        <ele>124.0</ele>
        <time>2018-06-10T08:22:25.038Z</time>
      </trkpt>
      <trkpt lat="38.81581133" lon="-0.06605017">
        <ele>123.0</ele>
        <time>2018-06-10T08:22:26.038Z</time>
      </trkpt>
      <trkpt lat="38.81569583" lon="-0.065985">
        <ele>123.0</ele>
        <time>2018-06-10T08:22:27.038Z</time>
      </trkpt>
      <trkpt lat="38.815579" lon="-0.0659235">
        <ele>122.0</ele>
        <time>2018-06-10T08:22:28.038Z</time>
      </trkpt>
      <trkpt lat="38.8154605" lon="-0.06586767">
        <ele>122.0</ele>
        <time>2018-06-10T08:22:29.038Z</time>
      </trkpt>
      <trkpt lat="38.815341" lon="-0.06581267">
        <ele>122.0</ele>
        <time>2018-06-10T08:22:30.038Z</time>
      </trkpt>
      <trkpt lat="38.81522067" lon="-0.06576033">
        <ele>121.0</ele>
        <time>2018-06-10T08:22:31.038Z</time>
      </trkpt>
      <trkpt lat="38.81509983" lon="-0.065709">
        <ele>121.0</ele>
        <time>2018-06-10T08:22:32.038Z</time>
      </trkpt>
      <trkpt lat="38.81497767" lon="-0.06566167">
        <ele>120.0</ele>
        <time>2018-06-10T08:22:33.038Z</time>
      </trkpt>
      <trkpt lat="38.814854" lon="-0.06561883">
        <ele>120.0</ele>
        <time>2018-06-10T08:22:34.038Z</time>
      </trkpt>
      <trkpt lat="38.8147295" lon="-0.0655795">
        <ele>120.0</ele>
        <time>2018-06-10T08:22:35.038Z</time>
      </trkpt>
      <trkpt lat="38.81460483" lon="-0.06554117">
        <ele>119.0</ele>
        <time>2018-06-10T08:22:36.038Z</time>
      </trkpt>
      <trkpt lat="38.81447967" lon="-0.06550283">
        <ele>119.0</ele>
        <time>2018-06-10T08:22:37.038Z</time>
      </trkpt>
      <trkpt lat="38.81435433" lon="-0.0654655">
        <ele>118.0</ele>
        <time>2018-06-10T08:22:38.038Z</time>
      </trkpt>
      <trkpt lat="38.81422917" lon="-0.065431">
        <ele>118.0</ele>
        <time>2018-06-10T08:22:39.038Z</time>
      </trkpt>
      <trkpt lat="38.814104" lon="-0.0654">
        <ele>118.0</ele>
        <time>2018-06-10T08:22:40.038Z</time>
      </trkpt>
      <trkpt lat="38.813979" lon="-0.06537333">
        <ele>117.0</ele>
        <time>2018-06-10T08:22:41.038Z</time>
      </trkpt>
      <trkpt lat="38.81385483" lon="-0.06535033">
        <ele>117.0</ele>
        <time>2018-06-10T08:22:42.038Z</time>
      </trkpt>
      <trkpt lat="38.81373183" lon="-0.06533">
        <ele>116.0</ele>
        <time>2018-06-10T08:22:43.038Z</time>
      </trkpt>
      <trkpt lat="38.8136095" lon="-0.065312">
        <ele>116.0</ele>
        <time>2018-06-10T08:22:44.038Z</time>
      </trkpt>
      <trkpt lat="38.8134875" lon="-0.06529617">
        <ele>116.0</ele>
        <time>2018-06-10T08:22:45.038Z</time>
      </trkpt>
      <trkpt lat="38.81336633" lon="-0.06528217">
        <ele>115.0</ele>
        <time>2018-06-10T08:22:46.038Z</time>
      </trkpt>
      <trkpt lat="38.813247" lon="-0.06526917">
        <ele>115.0</ele>
        <time>2018-06-10T08:22:47.038Z</time>
      </trkpt>
      <trkpt lat="38.81312917" lon="-0.06525933">
        <ele>115.0</ele>
        <time>2018-06-10T08:22:48.038Z</time>
      </trkpt>
      <trkpt lat="38.81301383" lon="-0.06525717">
        <ele>115.0</ele>
        <time>2018-06-10T08:22:49.038Z</time>
      </trkpt>
      <trkpt lat="38.81290183" lon="-0.06526967">
        <ele>115.0</ele>
        <time>2018-06-10T08:22:50.038Z</time>
      </trkpt>
      <trkpt lat="38.81279483" lon="-0.0652995">
        <ele>116.0</ele>
        <time>2018-06-10T08:22:51.038Z</time>
      </trkpt>
      <trkpt lat="38.81269333" lon="-0.06534467">
        <ele>116.0</ele>
        <time>2018-06-10T08:22:52.038Z</time>
      </trkpt>
      <trkpt lat="38.81259633" lon="-0.06539833">
        <ele>116.0</ele>
        <time>2018-06-10T08:22:53.038Z</time>
      </trkpt>
      <trkpt lat="38.81250283" lon="-0.06545617">
        <ele>116.0</ele>
        <time>2018-06-10T08:22:54.038Z</time>
      </trkpt>
      <trkpt lat="38.81241117" lon="-0.06551467">
        <ele>116.0</ele>
        <time>2018-06-10T08:22:55.038Z</time>
      </trkpt>
      <trkpt lat="38.812321" lon="-0.06557333">
        <ele>117.0</ele>
        <time>2018-06-10T08:22:56.038Z</time>
      </trkpt>
      <trkpt lat="38.8122315" lon="-0.0656305">
        <ele>117.0</ele>
        <time>2018-06-10T08:22:57.038Z</time>
      </trkpt>
      <trkpt lat="38.81214317" lon="-0.065687">
        <ele>117.0</ele>
        <time>2018-06-10T08:22:58.038Z</time>
      </trkpt>
      <trkpt lat="38.81205633" lon="-0.06574367">
        <ele>117.0</ele>
        <time>2018-06-10T08:22:59.038Z</time>
      </trkpt>
      <trkpt lat="38.81197117" lon="-0.06580033">
        <ele>117.0</ele>
        <time>2018-06-10T08:23:00.038Z</time>
      </trkpt>
      <trkpt lat="38.81188783" lon="-0.06585767">
        <ele>118.0</ele>
        <time>2018-06-10T08:23:01.038Z</time>
      </trkpt>
      <trkpt lat="38.81180633" lon="-0.06591667">
        <ele>118.0</ele>
        <time>2018-06-10T08:23:02.038Z</time>
      </trkpt>
      <trkpt lat="38.81172817" lon="-0.06598083">
        <ele>118.0</ele>
        <time>2018-06-10T08:23:03.038Z</time>
      </trkpt>
      <trkpt lat="38.8116555" lon="-0.0660485">
        <ele>118.0</ele>
        <time>2018-06-10T08:23:04.038Z</time>
      </trkpt>
      <trkpt lat="38.8115875" lon="-0.06612">
        <ele>118.0</ele>
        <time>2018-06-10T08:23:05.038Z</time>
      </trkpt>
      <trkpt lat="38.811523" lon="-0.06619167">
        <ele>118.0</ele>
        <time>2018-06-10T08:23:06.038Z</time>
      </trkpt>
      <trkpt lat="38.81146017" lon="-0.0662655">
        <ele>118.0</ele>
        <time>2018-06-10T08:23:07.038Z</time>
      </trkpt>
      <trkpt lat="38.81139917" lon="-0.066339">
        <ele>118.0</ele>
        <time>2018-06-10T08:23:08.038Z</time>
      </trkpt>
      <trkpt lat="38.81134083" lon="-0.06641167">
        <ele>118.0</ele>
        <time>2018-06-10T08:23:09.038Z</time>
      </trkpt>
      <trkpt lat="38.8112835" lon="-0.066481">
        <ele>118.0</ele>
        <time>2018-06-10T08:23:10.038Z</time>
      </trkpt>
      <trkpt lat="38.81122617" lon="-0.06654717">
        <ele>118.0</ele>
        <time>2018-06-10T08:23:11.038Z</time>
      </trkpt>
      <trkpt lat="38.81116883" lon="-0.0666105">
        <ele>118.0</ele>
        <time>2018-06-10T08:23:12.038Z</time>
      </trkpt>
      <trkpt lat="38.811112" lon="-0.06667283">
        <ele>118.0</ele>
        <time>2018-06-10T08:23:13.038Z</time>
      </trkpt>
      <trkpt lat="38.81105583" lon="-0.066734">
        <ele>118.0</ele>
        <time>2018-06-10T08:23:14.038Z</time>
      </trkpt>
      <trkpt lat="38.81099833" lon="-0.06679117">
        <ele>118.0</ele>
        <time>2018-06-10T08:23:15.038Z</time>
      </trkpt>
      <trkpt lat="38.81093717" lon="-0.06684">
        <ele>118.0</ele>
        <time>2018-06-10T08:23:16.038Z</time>
      </trkpt>
      <trkpt lat="38.810871" lon="-0.0668755">
        <ele>117.0</ele>
        <time>2018-06-10T08:23:17.038Z</time>
      </trkpt>
      <trkpt lat="38.81080117" lon="-0.0669">
        <ele>116.0</ele>
        <time>2018-06-10T08:23:18.038Z</time>
      </trkpt>
      <trkpt lat="38.81073167" lon="-0.0669165">
        <ele>115.0</ele>
        <time>2018-06-10T08:23:19.038Z</time>
      </trkpt>
      <trkpt lat="38.81066433" lon="-0.06692917">
        <ele>116.0</ele>
        <time>2018-06-10T08:23:20.038Z</time>
      </trkpt>
      <trkpt lat="38.81060033" lon="-0.06693917">
        <ele>116.0</ele>
        <time>2018-06-10T08:23:21.038Z</time>
      </trkpt>
      <trkpt lat="38.8105405" lon="-0.06694433">
        <ele>116.0</ele>
        <time>2018-06-10T08:23:22.038Z</time>
      </trkpt>
      <trkpt lat="38.81048583" lon="-0.06694467">
        <ele>116.0</ele>
        <time>2018-06-10T08:23:23.038Z</time>
      </trkpt>
      <trkpt lat="38.81043833" lon="-0.06694033">
        <ele>115.0</ele>
        <time>2018-06-10T08:23:24.038Z</time>
      </trkpt>
      <trkpt lat="38.81039667" lon="-0.06693533">
        <ele>115.0</ele>
        <time>2018-06-10T08:23:25.038Z</time>
      </trkpt>
      <trkpt lat="38.8103625" lon="-0.06693267">
        <ele>114.0</ele>
        <time>2018-06-10T08:23:26.038Z</time>
      </trkpt>
      <trkpt lat="38.81033717" lon="-0.0669325">
        <ele>114.0</ele>
        <time>2018-06-10T08:23:27.038Z</time>
      </trkpt>
      <trkpt lat="38.810322" lon="-0.06693233">
        <ele>114.0</ele>
        <time>2018-06-10T08:23:28.038Z</time>
      </trkpt>
      <trkpt lat="38.81027333" lon="-0.06690417">
        <ele>117.0</ele>
        <time>2018-06-10T08:23:29.069Z</time>
      </trkpt>
      <trkpt lat="38.810259" lon="-0.0669025">
        <ele>117.0</ele>
        <time>2018-06-10T08:23:30.069Z</time>
      </trkpt>
      <trkpt lat="38.81024183" lon="-0.06689967">
        <ele>117.0</ele>
        <time>2018-06-10T08:23:31.069Z</time>
      </trkpt>
      <trkpt lat="38.81022167" lon="-0.06690067">
        <ele>116.0</ele>
        <time>2018-06-10T08:23:32.069Z</time>
      </trkpt>
      <trkpt lat="38.81020067" lon="-0.0668995">
        <ele>116.0</ele>
        <time>2018-06-10T08:23:33.069Z</time>
      </trkpt>
      <trkpt lat="38.8101785" lon="-0.06689717">
        <ele>116.0</ele>
        <time>2018-06-10T08:23:34.069Z</time>
      </trkpt>
      <trkpt lat="38.810156" lon="-0.066889">
        <ele>115.0</ele>
        <time>2018-06-10T08:23:35.069Z</time>
      </trkpt>
      <trkpt lat="38.810131" lon="-0.06687983">
        <ele>115.0</ele>
        <time>2018-06-10T08:23:36.069Z</time>
      </trkpt>
      <trkpt lat="38.81010167" lon="-0.06687167">
        <ele>115.0</ele>
        <time>2018-06-10T08:23:37.069Z</time>
      </trkpt>
      <trkpt lat="38.81006733" lon="-0.06686567">
        <ele>115.0</ele>
        <time>2018-06-10T08:23:38.069Z</time>
      </trkpt>
      <trkpt lat="38.81002883" lon="-0.06685967">
        <ele>115.0</ele>
        <time>2018-06-10T08:23:39.069Z</time>
      </trkpt>
      <trkpt lat="38.809988" lon="-0.0668545">
        <ele>115.0</ele>
        <time>2018-06-10T08:23:40.069Z</time>
      </trkpt>
      <trkpt lat="38.80994733" lon="-0.06684983">
        <ele>115.0</ele>
        <time>2018-06-10T08:23:41.069Z</time>
      </trkpt>
      <trkpt lat="38.809907" lon="-0.06684533">
        <ele>114.0</ele>
        <time>2018-06-10T08:23:42.069Z</time>
      </trkpt>
      <trkpt lat="38.80986667" lon="-0.06684283">
        <ele>114.0</ele>
        <time>2018-06-10T08:23:43.069Z</time>
      </trkpt>
      <trkpt lat="38.80982517" lon="-0.066843">
        <ele>114.0</ele>
        <time>2018-06-10T08:23:44.069Z</time>
      </trkpt>
      <trkpt lat="38.8097825" lon="-0.0668455">
        <ele>113.0</ele>
        <time>2018-06-10T08:23:45.069Z</time>
      </trkpt>
      <trkpt lat="38.80973917" lon="-0.06685017">
        <ele>113.0</ele>
        <time>2018-06-10T08:23:46.069Z</time>
      </trkpt>
      <trkpt lat="38.809697" lon="-0.06685517">
        <ele>113.0</ele>
        <time>2018-06-10T08:23:47.069Z</time>
      </trkpt>
      <trkpt lat="38.80965617" lon="-0.066861">
        <ele>113.0</ele>
        <time>2018-06-10T08:23:48.069Z</time>
      </trkpt>
      <trkpt lat="38.8096165" lon="-0.0668695">
        <ele>114.0</ele>
        <time>2018-06-10T08:23:49.069Z</time>
      </trkpt>
      <trkpt lat="38.8095775" lon="-0.0668825">
        <ele>115.0</ele>
        <time>2018-06-10T08:23:50.069Z</time>
      </trkpt>
      <trkpt lat="38.80954" lon="-0.06690067">
        <ele>115.0</ele>
        <time>2018-06-10T08:23:51.069Z</time>
      </trkpt>
      <trkpt lat="38.8095035" lon="-0.06691833">
        <ele>115.0</ele>
        <time>2018-06-10T08:23:52.069Z</time>
      </trkpt>
      <trkpt lat="38.80947" lon="-0.066935">
        <ele>114.0</ele>
        <time>2018-06-10T08:23:53.069Z</time>
      </trkpt>
      <trkpt lat="38.809439" lon="-0.06694883">
        <ele>115.0</ele>
        <time>2018-06-10T08:23:54.069Z</time>
      </trkpt>
      <trkpt lat="38.8094125" lon="-0.06696167">
        <ele>115.0</ele>
        <time>2018-06-10T08:23:55.069Z</time>
      </trkpt>
      <trkpt lat="38.80939033" lon="-0.06697183">
        <ele>116.0</ele>
        <time>2018-06-10T08:23:56.069Z</time>
      </trkpt>
      <trkpt lat="38.80937433" lon="-0.0669795">
        <ele>116.0</ele>
        <time>2018-06-10T08:23:57.069Z</time>
      </trkpt>
      <trkpt lat="38.80936467" lon="-0.06698383">
        <ele>117.0</ele>
        <time>2018-06-10T08:23:58.069Z</time>
      </trkpt>
      <trkpt lat="38.80932383" lon="-0.06700067">
        <ele>119.0</ele>
        <time>2018-06-10T08:23:59.115Z</time>
      </trkpt>
      <trkpt lat="38.80931183" lon="-0.0670075">
        <ele>119.0</ele>
        <time>2018-06-10T08:24:00.115Z</time>
      </trkpt>
      <trkpt lat="38.809227" lon="-0.0670435">
        <ele>119.0</ele>
        <time>2018-06-10T08:24:02.014Z</time>
      </trkpt>
      <trkpt lat="38.80919333" lon="-0.06705817">
        <ele>119.0</ele>
        <time>2018-06-10T08:24:03.014Z</time>
      </trkpt>
      <trkpt lat="38.80915517" lon="-0.06707117">
        <ele>119.0</ele>
        <time>2018-06-10T08:24:04.014Z</time>
      </trkpt>
      <trkpt lat="38.80911167" lon="-0.067084">
        <ele>118.0</ele>
        <time>2018-06-10T08:24:05.014Z</time>
      </trkpt>
      <trkpt lat="38.8090645" lon="-0.067097">
        <ele>118.0</ele>
        <time>2018-06-10T08:24:06.014Z</time>
      </trkpt>
      <trkpt lat="38.809012" lon="-0.06711117">
        <ele>117.0</ele>
        <time>2018-06-10T08:24:07.014Z</time>
      </trkpt>
      <trkpt lat="38.808958" lon="-0.06712633">
        <ele>117.0</ele>
        <time>2018-06-10T08:24:08.014Z</time>
      </trkpt>
      <trkpt lat="38.808902" lon="-0.067142">
        <ele>117.0</ele>
        <time>2018-06-10T08:24:09.014Z</time>
      </trkpt>
      <trkpt lat="38.80884533" lon="-0.06715783">
        <ele>117.0</ele>
        <time>2018-06-10T08:24:10.014Z</time>
      </trkpt>
      <trkpt lat="38.80878583" lon="-0.06717217">
        <ele>117.0</ele>
        <time>2018-06-10T08:24:11.014Z</time>
      </trkpt>
      <trkpt lat="38.80872383" lon="-0.06718617">
        <ele>117.0</ele>
        <time>2018-06-10T08:24:12.014Z</time>
      </trkpt>
      <trkpt lat="38.80865967" lon="-0.06719917">
        <ele>117.0</ele>
        <time>2018-06-10T08:24:13.014Z</time>
      </trkpt>
      <trkpt lat="38.808594" lon="-0.06721183">
        <ele>117.0</ele>
        <time>2018-06-10T08:24:14.014Z</time>
      </trkpt>
      <trkpt lat="38.8085275" lon="-0.0672255">
        <ele>117.0</ele>
        <time>2018-06-10T08:24:15.014Z</time>
      </trkpt>
      <trkpt lat="38.8084605" lon="-0.06724">
        <ele>117.0</ele>
        <time>2018-06-10T08:24:16.014Z</time>
      </trkpt>
      <trkpt lat="38.808393" lon="-0.06725483">
        <ele>116.0</ele>
        <time>2018-06-10T08:24:17.014Z</time>
      </trkpt>
      <trkpt lat="38.80832333" lon="-0.06726883">
        <ele>116.0</ele>
        <time>2018-06-10T08:24:18.014Z</time>
      </trkpt>
      <trkpt lat="38.808251" lon="-0.06728233">
        <ele>116.0</ele>
        <time>2018-06-10T08:24:19.014Z</time>
      </trkpt>
      <trkpt lat="38.808176" lon="-0.06729633">
        <ele>115.0</ele>
        <time>2018-06-10T08:24:20.014Z</time>
      </trkpt>
      <trkpt lat="38.8080985" lon="-0.06731167">
        <ele>115.0</ele>
        <time>2018-06-10T08:24:21.014Z</time>
      </trkpt>
      <trkpt lat="38.80801817" lon="-0.06732717">
        <ele>115.0</ele>
        <time>2018-06-10T08:24:22.014Z</time>
      </trkpt>
      <trkpt lat="38.807935" lon="-0.0673425">
        <ele>114.0</ele>
        <time>2018-06-10T08:24:23.014Z</time>
      </trkpt>
      <trkpt lat="38.80784983" lon="-0.06735883">
        <ele>114.0</ele>
        <time>2018-06-10T08:24:24.014Z</time>
      </trkpt>
      <trkpt lat="38.807763" lon="-0.06737783">
        <ele>113.0</ele>
        <time>2018-06-10T08:24:25.014Z</time>
      </trkpt>
      <trkpt lat="38.8076745" lon="-0.06739833">
        <ele>112.0</ele>
        <time>2018-06-10T08:24:26.014Z</time>
      </trkpt>
      <trkpt lat="38.80758367" lon="-0.06742017">
        <ele>112.0</ele>
        <time>2018-06-10T08:24:27.014Z</time>
      </trkpt>
      <trkpt lat="38.80749067" lon="-0.06744283">
        <ele>111.0</ele>
        <time>2018-06-10T08:24:28.014Z</time>
      </trkpt>
      <trkpt lat="38.80739483" lon="-0.0674665">
        <ele>111.0</ele>
        <time>2018-06-10T08:24:29.014Z</time>
      </trkpt>
      <trkpt lat="38.80729633" lon="-0.067491">
        <ele>110.0</ele>
        <time>2018-06-10T08:24:30.014Z</time>
      </trkpt>
      <trkpt lat="38.807195" lon="-0.0675185">
        <ele>109.0</ele>
        <time>2018-06-10T08:24:31.014Z</time>
      </trkpt>
      <trkpt lat="38.80709133" lon="-0.067552">
        <ele>109.0</ele>
        <time>2018-06-10T08:24:32.014Z</time>
      </trkpt>
      <trkpt lat="38.80698517" lon="-0.06759333">
        <ele>108.0</ele>
        <time>2018-06-10T08:24:33.014Z</time>
      </trkpt>
      <trkpt lat="38.806877" lon="-0.06764283">
        <ele>107.0</ele>
        <time>2018-06-10T08:24:34.014Z</time>
      </trkpt>
      <trkpt lat="38.80676583" lon="-0.06769683">
        <ele>106.0</ele>
        <time>2018-06-10T08:24:35.014Z</time>
      </trkpt>
      <trkpt lat="38.806652" lon="-0.06775267">
        <ele>105.0</ele>
        <time>2018-06-10T08:24:36.014Z</time>
      </trkpt>
      <trkpt lat="38.80653633" lon="-0.06780983">
        <ele>105.0</ele>
        <time>2018-06-10T08:24:37.014Z</time>
      </trkpt>
      <trkpt lat="38.80642167" lon="-0.06786867">
        <ele>105.0</ele>
        <time>2018-06-10T08:24:38.014Z</time>
      </trkpt>
      <trkpt lat="38.80630883" lon="-0.06792817">
        <ele>105.0</ele>
        <time>2018-06-10T08:24:39.014Z</time>
      </trkpt>
      <trkpt lat="38.80619783" lon="-0.067986">
        <ele>105.0</ele>
        <time>2018-06-10T08:24:40.014Z</time>
      </trkpt>
      <trkpt lat="38.80608883" lon="-0.06804333">
        <ele>105.0</ele>
        <time>2018-06-10T08:24:41.014Z</time>
      </trkpt>
      <trkpt lat="38.80598183" lon="-0.0681">
        <ele>105.0</ele>
        <time>2018-06-10T08:24:42.014Z</time>
      </trkpt>
      <trkpt lat="38.805877" lon="-0.0681545">
        <ele>106.0</ele>
        <time>2018-06-10T08:24:43.014Z</time>
      </trkpt>
      <trkpt lat="38.8057745" lon="-0.06820633">
        <ele>106.0</ele>
        <time>2018-06-10T08:24:44.014Z</time>
      </trkpt>
      <trkpt lat="38.80567417" lon="-0.0682565">
        <ele>106.0</ele>
        <time>2018-06-10T08:24:45.014Z</time>
      </trkpt>
      <trkpt lat="38.8055755" lon="-0.068306">
        <ele>106.0</ele>
        <time>2018-06-10T08:24:46.014Z</time>
      </trkpt>
      <trkpt lat="38.80547883" lon="-0.0683555">
        <ele>107.0</ele>
        <time>2018-06-10T08:24:47.014Z</time>
      </trkpt>
      <trkpt lat="38.805384" lon="-0.068405">
        <ele>107.0</ele>
        <time>2018-06-10T08:24:48.014Z</time>
      </trkpt>
      <trkpt lat="38.8052915" lon="-0.06845483">
        <ele>107.0</ele>
        <time>2018-06-10T08:24:49.014Z</time>
      </trkpt>
      <trkpt lat="38.805201" lon="-0.068504">
        <ele>107.0</ele>
        <time>2018-06-10T08:24:50.014Z</time>
      </trkpt>
      <trkpt lat="38.80511217" lon="-0.06855233">
        <ele>108.0</ele>
        <time>2018-06-10T08:24:51.014Z</time>
      </trkpt>
      <trkpt lat="38.80502483" lon="-0.0685995">
        <ele>108.0</ele>
        <time>2018-06-10T08:24:52.014Z</time>
      </trkpt>
      <trkpt lat="38.80493917" lon="-0.06864617">
        <ele>108.0</ele>
        <time>2018-06-10T08:24:53.014Z</time>
      </trkpt>
      <trkpt lat="38.8048545" lon="-0.06869133">
        <ele>108.0</ele>
        <time>2018-06-10T08:24:54.014Z</time>
      </trkpt>
      <trkpt lat="38.80477083" lon="-0.06873533">
        <ele>109.0</ele>
        <time>2018-06-10T08:24:55.014Z</time>
      </trkpt>
      <trkpt lat="38.80468783" lon="-0.06877783">
        <ele>109.0</ele>
        <time>2018-06-10T08:24:56.014Z</time>
      </trkpt>
      <trkpt lat="38.80460583" lon="-0.06882017">
        <ele>109.0</ele>
        <time>2018-06-10T08:24:57.014Z</time>
      </trkpt>
      <trkpt lat="38.804525" lon="-0.06886217">
        <ele>109.0</ele>
        <time>2018-06-10T08:24:58.014Z</time>
      </trkpt>
      <trkpt lat="38.8044455" lon="-0.06890433">
        <ele>109.0</ele>
        <time>2018-06-10T08:24:59.014Z</time>
      </trkpt>
      <trkpt lat="38.80436733" lon="-0.06894683">
        <ele>109.0</ele>
        <time>2018-06-10T08:25:00.014Z</time>
      </trkpt>
      <trkpt lat="38.80429017" lon="-0.06898867">
        <ele>110.0</ele>
        <time>2018-06-10T08:25:01.014Z</time>
      </trkpt>
      <trkpt lat="38.8042135" lon="-0.06902917">
        <ele>110.0</ele>
        <time>2018-06-10T08:25:02.014Z</time>
      </trkpt>
      <trkpt lat="38.80413767" lon="-0.069069">
        <ele>110.0</ele>
        <time>2018-06-10T08:25:03.014Z</time>
      </trkpt>
      <trkpt lat="38.80406283" lon="-0.0691095">
        <ele>110.0</ele>
        <time>2018-06-10T08:25:04.014Z</time>
      </trkpt>
      <trkpt lat="38.80398883" lon="-0.06915017">
        <ele>110.0</ele>
        <time>2018-06-10T08:25:05.014Z</time>
      </trkpt>
      <trkpt lat="38.8039155" lon="-0.06918967">
        <ele>111.0</ele>
        <time>2018-06-10T08:25:06.014Z</time>
      </trkpt>
      <trkpt lat="38.80384317" lon="-0.069228">
        <ele>111.0</ele>
        <time>2018-06-10T08:25:07.014Z</time>
      </trkpt>
      <trkpt lat="38.80377117" lon="-0.0692655">
        <ele>111.0</ele>
        <time>2018-06-10T08:25:08.014Z</time>
      </trkpt>
      <trkpt lat="38.80369967" lon="-0.069303">
        <ele>112.0</ele>
        <time>2018-06-10T08:25:09.014Z</time>
      </trkpt>
      <trkpt lat="38.80362867" lon="-0.06933967">
        <ele>112.0</ele>
        <time>2018-06-10T08:25:10.014Z</time>
      </trkpt>
      <trkpt lat="38.80355883" lon="-0.06937567">
        <ele>112.0</ele>
        <time>2018-06-10T08:25:11.014Z</time>
      </trkpt>
      <trkpt lat="38.80349017" lon="-0.06941117">
        <ele>113.0</ele>
        <time>2018-06-10T08:25:12.014Z</time>
      </trkpt>
      <trkpt lat="38.80342283" lon="-0.06944633">
        <ele>113.0</ele>
        <time>2018-06-10T08:25:13.014Z</time>
      </trkpt>
      <trkpt lat="38.8033565" lon="-0.06948083">
        <ele>113.0</ele>
        <time>2018-06-10T08:25:14.014Z</time>
      </trkpt>
      <trkpt lat="38.8032905" lon="-0.06951483">
        <ele>114.0</ele>
        <time>2018-06-10T08:25:15.014Z</time>
      </trkpt>
      <trkpt lat="38.80322467" lon="-0.069549">
        <ele>114.0</ele>
        <time>2018-06-10T08:25:16.014Z</time>
      </trkpt>
      <trkpt lat="38.80315933" lon="-0.06958283">
        <ele>114.0</ele>
        <time>2018-06-10T08:25:17.014Z</time>
      </trkpt>
      <trkpt lat="38.80309467" lon="-0.06961667">
        <ele>115.0</ele>
        <time>2018-06-10T08:25:18.014Z</time>
      </trkpt>
      <trkpt lat="38.80303117" lon="-0.06965">
        <ele>115.0</ele>
        <time>2018-06-10T08:25:19.014Z</time>
      </trkpt>
      <trkpt lat="38.80296833" lon="-0.06968333">
        <ele>115.0</ele>
        <time>2018-06-10T08:25:20.014Z</time>
      </trkpt>
      <trkpt lat="38.80290567" lon="-0.06971633">
        <ele>116.0</ele>
        <time>2018-06-10T08:25:21.014Z</time>
      </trkpt>
      <trkpt lat="38.8028435" lon="-0.06974917">
        <ele>116.0</ele>
        <time>2018-06-10T08:25:22.014Z</time>
      </trkpt>
      <trkpt lat="38.80278183" lon="-0.06978183">
        <ele>116.0</ele>
        <time>2018-06-10T08:25:23.014Z</time>
      </trkpt>
      <trkpt lat="38.80272067" lon="-0.069814">
        <ele>116.0</ele>
        <time>2018-06-10T08:25:24.014Z</time>
      </trkpt>
      <trkpt lat="38.80265917" lon="-0.06984617">
        <ele>116.0</ele>
        <time>2018-06-10T08:25:25.014Z</time>
      </trkpt>
      <trkpt lat="38.8025975" lon="-0.069878">
        <ele>116.0</ele>
        <time>2018-06-10T08:25:26.014Z</time>
      </trkpt>
      <trkpt lat="38.802536" lon="-0.06990983">
        <ele>117.0</ele>
        <time>2018-06-10T08:25:27.014Z</time>
      </trkpt>
      <trkpt lat="38.80247433" lon="-0.06994117">
        <ele>117.0</ele>
        <time>2018-06-10T08:25:28.014Z</time>
      </trkpt>
      <trkpt lat="38.8024125" lon="-0.0699725">
        <ele>117.0</ele>
        <time>2018-06-10T08:25:29.014Z</time>
      </trkpt>
      <trkpt lat="38.80234983" lon="-0.070004">
        <ele>117.0</ele>
        <time>2018-06-10T08:25:30.014Z</time>
      </trkpt>
      <trkpt lat="38.802287" lon="-0.07003583">
        <ele>117.0</ele>
        <time>2018-06-10T08:25:31.014Z</time>
      </trkpt>
      <trkpt lat="38.80222383" lon="-0.07006783">
        <ele>117.0</ele>
        <time>2018-06-10T08:25:32.014Z</time>
      </trkpt>
      <trkpt lat="38.8021605" lon="-0.0700995">
        <ele>118.0</ele>
        <time>2018-06-10T08:25:33.014Z</time>
      </trkpt>
      <trkpt lat="38.802097" lon="-0.0701305">
        <ele>118.0</ele>
        <time>2018-06-10T08:25:34.014Z</time>
      </trkpt>
      <trkpt lat="38.802034" lon="-0.07016233">
        <ele>118.0</ele>
        <time>2018-06-10T08:25:35.014Z</time>
      </trkpt>
      <trkpt lat="38.80197133" lon="-0.07019567">
        <ele>118.0</ele>
        <time>2018-06-10T08:25:36.014Z</time>
      </trkpt>
      <trkpt lat="38.80190833" lon="-0.07023083">
        <ele>117.0</ele>
        <time>2018-06-10T08:25:37.014Z</time>
      </trkpt>
      <trkpt lat="38.80184433" lon="-0.07026533">
        <ele>117.0</ele>
        <time>2018-06-10T08:25:38.014Z</time>
      </trkpt>
      <trkpt lat="38.8017795" lon="-0.07029933">
        <ele>117.0</ele>
        <time>2018-06-10T08:25:39.014Z</time>
      </trkpt>
      <trkpt lat="38.8017145" lon="-0.07033333">
        <ele>117.0</ele>
        <time>2018-06-10T08:25:40.014Z</time>
      </trkpt>
      <trkpt lat="38.80164883" lon="-0.07036767">
        <ele>117.0</ele>
        <time>2018-06-10T08:25:41.014Z</time>
      </trkpt>
      <trkpt lat="38.80158233" lon="-0.07040233">
        <ele>117.0</ele>
        <time>2018-06-10T08:25:42.014Z</time>
      </trkpt>
      <trkpt lat="38.80151483" lon="-0.07043717">
        <ele>117.0</ele>
        <time>2018-06-10T08:25:43.014Z</time>
      </trkpt>
      <trkpt lat="38.8014465" lon="-0.0704725">
        <ele>117.0</ele>
        <time>2018-06-10T08:25:44.014Z</time>
      </trkpt>
      <trkpt lat="38.80137717" lon="-0.07050717">
        <ele>117.0</ele>
        <time>2018-06-10T08:25:45.014Z</time>
      </trkpt>
      <trkpt lat="38.80130633" lon="-0.07054">
        <ele>117.0</ele>
        <time>2018-06-10T08:25:46.014Z</time>
      </trkpt>
      <trkpt lat="38.8012335" lon="-0.07056983">
        <ele>117.0</ele>
        <time>2018-06-10T08:25:47.014Z</time>
      </trkpt>
      <trkpt lat="38.80115867" lon="-0.07059483">
        <ele>116.0</ele>
        <time>2018-06-10T08:25:48.014Z</time>
      </trkpt>
      <trkpt lat="38.80108283" lon="-0.07061417">
        <ele>116.0</ele>
        <time>2018-06-10T08:25:49.014Z</time>
      </trkpt>
      <trkpt lat="38.80100567" lon="-0.07062717">
        <ele>116.0</ele>
        <time>2018-06-10T08:25:50.014Z</time>
      </trkpt>
      <trkpt lat="38.80092767" lon="-0.07063367">
        <ele>116.0</ele>
        <time>2018-06-10T08:25:51.014Z</time>
      </trkpt>
      <trkpt lat="38.8008485" lon="-0.070634">
        <ele>116.0</ele>
        <time>2018-06-10T08:25:52.014Z</time>
      </trkpt>
      <trkpt lat="38.80076867" lon="-0.0706305">
        <ele>116.0</ele>
        <time>2018-06-10T08:25:53.014Z</time>
      </trkpt>
      <trkpt lat="38.80068783" lon="-0.07062533">
        <ele>116.0</ele>
        <time>2018-06-10T08:25:54.014Z</time>
      </trkpt>
      <trkpt lat="38.8006065" lon="-0.07062017">
        <ele>116.0</ele>
        <time>2018-06-10T08:25:55.014Z</time>
      </trkpt>
      <trkpt lat="38.80052417" lon="-0.07061483">
        <ele>116.0</ele>
        <time>2018-06-10T08:25:56.014Z</time>
      </trkpt>
      <trkpt lat="38.80044117" lon="-0.07060867">
        <ele>116.0</ele>
        <time>2018-06-10T08:25:57.014Z</time>
      </trkpt>
      <trkpt lat="38.80035733" lon="-0.07060133">
        <ele>116.0</ele>
        <time>2018-06-10T08:25:58.014Z</time>
      </trkpt>
      <trkpt lat="38.80027333" lon="-0.07059283">
        <ele>116.0</ele>
        <time>2018-06-10T08:25:59.014Z</time>
      </trkpt>
      <trkpt lat="38.80018917" lon="-0.070584">
        <ele>116.0</ele>
        <time>2018-06-10T08:26:00.014Z</time>
      </trkpt>
      <trkpt lat="38.80010483" lon="-0.07057533">
        <ele>116.0</ele>
        <time>2018-06-10T08:26:01.014Z</time>
      </trkpt>
      <trkpt lat="38.8000205" lon="-0.07056717">
        <ele>116.0</ele>
        <time>2018-06-10T08:26:02.014Z</time>
      </trkpt>
      <trkpt lat="38.799937" lon="-0.07055867">
        <ele>116.0</ele>
        <time>2018-06-10T08:26:03.014Z</time>
      </trkpt>
      <trkpt lat="38.7998545" lon="-0.0705495">
        <ele>116.0</ele>
        <time>2018-06-10T08:26:04.014Z</time>
      </trkpt>
      <trkpt lat="38.799773" lon="-0.0705405">
        <ele>116.0</ele>
        <time>2018-06-10T08:26:05.014Z</time>
      </trkpt>
      <trkpt lat="38.79969183" lon="-0.07053183">
        <ele>116.0</ele>
        <time>2018-06-10T08:26:06.014Z</time>
      </trkpt>
      <trkpt lat="38.79961067" lon="-0.07052333">
        <ele>116.0</ele>
        <time>2018-06-10T08:26:07.014Z</time>
      </trkpt>
      <trkpt lat="38.79952917" lon="-0.070515">
        <ele>116.0</ele>
        <time>2018-06-10T08:26:08.014Z</time>
      </trkpt>
      <trkpt lat="38.79944767" lon="-0.07050617">
        <ele>116.0</ele>
        <time>2018-06-10T08:26:09.014Z</time>
      </trkpt>
      <trkpt lat="38.79936583" lon="-0.070498">
        <ele>116.0</ele>
        <time>2018-06-10T08:26:10.014Z</time>
      </trkpt>
      <trkpt lat="38.79928383" lon="-0.07048983">
        <ele>116.0</ele>
        <time>2018-06-10T08:26:11.014Z</time>
      </trkpt>
      <trkpt lat="38.79920183" lon="-0.07048217">
        <ele>116.0</ele>
        <time>2018-06-10T08:26:12.014Z</time>
      </trkpt>
      <trkpt lat="38.7991195" lon="-0.0704745">
        <ele>116.0</ele>
        <time>2018-06-10T08:26:13.014Z</time>
      </trkpt>
      <trkpt lat="38.79903717" lon="-0.0704665">
        <ele>116.0</ele>
        <time>2018-06-10T08:26:14.014Z</time>
      </trkpt>
      <trkpt lat="38.79895467" lon="-0.07045867">
        <ele>116.0</ele>
        <time>2018-06-10T08:26:15.014Z</time>
      </trkpt>
      <trkpt lat="38.79887217" lon="-0.07045133">
        <ele>116.0</ele>
        <time>2018-06-10T08:26:16.014Z</time>
      </trkpt>
      <trkpt lat="38.7987895" lon="-0.07044467">
        <ele>117.0</ele>
        <time>2018-06-10T08:26:17.014Z</time>
      </trkpt>
      <trkpt lat="38.79870717" lon="-0.07043817">
        <ele>117.0</ele>
        <time>2018-06-10T08:26:18.014Z</time>
      </trkpt>
      <trkpt lat="38.79862533" lon="-0.070431">
        <ele>117.0</ele>
        <time>2018-06-10T08:26:19.014Z</time>
      </trkpt>
      <trkpt lat="38.79854417" lon="-0.07042367">
        <ele>117.0</ele>
        <time>2018-06-10T08:26:20.014Z</time>
      </trkpt>
      <trkpt lat="38.79846333" lon="-0.07041617">
        <ele>117.0</ele>
        <time>2018-06-10T08:26:21.014Z</time>
      </trkpt>
      <trkpt lat="38.79838317" lon="-0.07040833">
        <ele>117.0</ele>
        <time>2018-06-10T08:26:22.014Z</time>
      </trkpt>
      <trkpt lat="38.79830317" lon="-0.07039967">
        <ele>117.0</ele>
        <time>2018-06-10T08:26:23.014Z</time>
      </trkpt>
      <trkpt lat="38.79822317" lon="-0.07039167">
        <ele>117.0</ele>
        <time>2018-06-10T08:26:24.014Z</time>
      </trkpt>
      <trkpt lat="38.798143" lon="-0.07038533">
        <ele>117.0</ele>
        <time>2018-06-10T08:26:25.014Z</time>
      </trkpt>
      <trkpt lat="38.7980625" lon="-0.070381">
        <ele>117.0</ele>
        <time>2018-06-10T08:26:26.014Z</time>
      </trkpt>
      <trkpt lat="38.797982" lon="-0.0703775">
        <ele>117.0</ele>
        <time>2018-06-10T08:26:27.014Z</time>
      </trkpt>
      <trkpt lat="38.7979015" lon="-0.0703745">
        <ele>117.0</ele>
        <time>2018-06-10T08:26:28.014Z</time>
      </trkpt>
      <trkpt lat="38.79782083" lon="-0.0703705">
        <ele>117.0</ele>
        <time>2018-06-10T08:26:29.014Z</time>
      </trkpt>
      <trkpt lat="38.79774033" lon="-0.070365">
        <ele>117.0</ele>
        <time>2018-06-10T08:26:30.014Z</time>
      </trkpt>
      <trkpt lat="38.79766" lon="-0.07035783">
        <ele>117.0</ele>
        <time>2018-06-10T08:26:31.014Z</time>
      </trkpt>
      <trkpt lat="38.79757967" lon="-0.07034967">
        <ele>117.0</ele>
        <time>2018-06-10T08:26:32.014Z</time>
      </trkpt>
      <trkpt lat="38.7974995" lon="-0.070341">
        <ele>117.0</ele>
        <time>2018-06-10T08:26:33.014Z</time>
      </trkpt>
      <trkpt lat="38.79741933" lon="-0.07033267">
        <ele>117.0</ele>
        <time>2018-06-10T08:26:34.014Z</time>
      </trkpt>
      <trkpt lat="38.79734" lon="-0.07032467">
        <ele>117.0</ele>
        <time>2018-06-10T08:26:35.014Z</time>
      </trkpt>
      <trkpt lat="38.7972615" lon="-0.07031733">
        <ele>117.0</ele>
        <time>2018-06-10T08:26:36.014Z</time>
      </trkpt>
      <trkpt lat="38.797184" lon="-0.0703105">
        <ele>118.0</ele>
        <time>2018-06-10T08:26:37.014Z</time>
      </trkpt>
      <trkpt lat="38.79710733" lon="-0.07030367">
        <ele>118.0</ele>
        <time>2018-06-10T08:26:38.014Z</time>
      </trkpt>
      <trkpt lat="38.79703117" lon="-0.07029683">
        <ele>118.0</ele>
        <time>2018-06-10T08:26:39.014Z</time>
      </trkpt>
      <trkpt lat="38.79695533" lon="-0.07028967">
        <ele>118.0</ele>
        <time>2018-06-10T08:26:40.014Z</time>
      </trkpt>
      <trkpt lat="38.79687983" lon="-0.07028267">
        <ele>118.0</ele>
        <time>2018-06-10T08:26:41.014Z</time>
      </trkpt>
      <trkpt lat="38.796805" lon="-0.07027583">
        <ele>118.0</ele>
        <time>2018-06-10T08:26:42.014Z</time>
      </trkpt>
      <trkpt lat="38.79673067" lon="-0.07027">
        <ele>118.0</ele>
        <time>2018-06-10T08:26:43.014Z</time>
      </trkpt>
      <trkpt lat="38.79665667" lon="-0.0702645">
        <ele>118.0</ele>
        <time>2018-06-10T08:26:44.014Z</time>
      </trkpt>
      <trkpt lat="38.79658183" lon="-0.07025867">
        <ele>118.0</ele>
        <time>2018-06-10T08:26:45.014Z</time>
      </trkpt>
      <trkpt lat="38.79650533" lon="-0.070252">
        <ele>118.0</ele>
        <time>2018-06-10T08:26:46.014Z</time>
      </trkpt>
      <trkpt lat="38.7964265" lon="-0.070245">
        <ele>117.0</ele>
        <time>2018-06-10T08:26:47.014Z</time>
      </trkpt>
      <trkpt lat="38.79634533" lon="-0.07023767">
        <ele>117.0</ele>
        <time>2018-06-10T08:26:48.014Z</time>
      </trkpt>
      <trkpt lat="38.79626217" lon="-0.07023033">
        <ele>117.0</ele>
        <time>2018-06-10T08:26:49.014Z</time>
      </trkpt>
      <trkpt lat="38.79617683" lon="-0.07022267">
        <ele>116.0</ele>
        <time>2018-06-10T08:26:50.014Z</time>
      </trkpt>
      <trkpt lat="38.7960895" lon="-0.07021517">
        <ele>116.0</ele>
        <time>2018-06-10T08:26:51.014Z</time>
      </trkpt>
      <trkpt lat="38.79600033" lon="-0.07020733">
        <ele>116.0</ele>
        <time>2018-06-10T08:26:52.014Z</time>
      </trkpt>
      <trkpt lat="38.7959095" lon="-0.0701985">
        <ele>115.0</ele>
        <time>2018-06-10T08:26:53.014Z</time>
      </trkpt>
      <trkpt lat="38.7958165" lon="-0.070189">
        <ele>115.0</ele>
        <time>2018-06-10T08:26:54.014Z</time>
      </trkpt>
      <trkpt lat="38.79572183" lon="-0.07017983">
        <ele>114.0</ele>
        <time>2018-06-10T08:26:55.014Z</time>
      </trkpt>
      <trkpt lat="38.79562567" lon="-0.070171">
        <ele>114.0</ele>
        <time>2018-06-10T08:26:56.014Z</time>
      </trkpt>
      <trkpt lat="38.79552867" lon="-0.07016233">
        <ele>114.0</ele>
        <time>2018-06-10T08:26:57.014Z</time>
      </trkpt>
      <trkpt lat="38.79543167" lon="-0.07015333">
        <ele>114.0</ele>
        <time>2018-06-10T08:26:58.014Z</time>
      </trkpt>
      <trkpt lat="38.795335" lon="-0.07014467">
        <ele>114.0</ele>
        <time>2018-06-10T08:26:59.014Z</time>
      </trkpt>
      <trkpt lat="38.79523883" lon="-0.0701365">
        <ele>114.0</ele>
        <time>2018-06-10T08:27:00.014Z</time>
      </trkpt>
      <trkpt lat="38.79514317" lon="-0.07012867">
        <ele>114.0</ele>
        <time>2018-06-10T08:27:01.014Z</time>
      </trkpt>
      <trkpt lat="38.7950485" lon="-0.07012017">
        <ele>114.0</ele>
        <time>2018-06-10T08:27:02.014Z</time>
      </trkpt>
      <trkpt lat="38.79495483" lon="-0.0701115">
        <ele>114.0</ele>
        <time>2018-06-10T08:27:03.014Z</time>
      </trkpt>
      <trkpt lat="38.79486217" lon="-0.0701025">
        <ele>114.0</ele>
        <time>2018-06-10T08:27:04.014Z</time>
      </trkpt>
      <trkpt lat="38.7947705" lon="-0.07009367">
        <ele>114.0</ele>
        <time>2018-06-10T08:27:05.014Z</time>
      </trkpt>
      <trkpt lat="38.7946795" lon="-0.0700845">
        <ele>114.0</ele>
        <time>2018-06-10T08:27:06.014Z</time>
      </trkpt>
      <trkpt lat="38.794589" lon="-0.0700755">
        <ele>114.0</ele>
        <time>2018-06-10T08:27:07.014Z</time>
      </trkpt>
      <trkpt lat="38.79449883" lon="-0.07006717">
        <ele>114.0</ele>
        <time>2018-06-10T08:27:08.014Z</time>
      </trkpt>
      <trkpt lat="38.7944085" lon="-0.07006033">
        <ele>113.0</ele>
        <time>2018-06-10T08:27:09.014Z</time>
      </trkpt>
      <trkpt lat="38.79431817" lon="-0.07005417">
        <ele>113.0</ele>
        <time>2018-06-10T08:27:10.014Z</time>
      </trkpt>
      <trkpt lat="38.79422783" lon="-0.07004733">
        <ele>113.0</ele>
        <time>2018-06-10T08:27:11.014Z</time>
      </trkpt>
      <trkpt lat="38.79413767" lon="-0.070039">
        <ele>113.0</ele>
        <time>2018-06-10T08:27:12.014Z</time>
      </trkpt>
      <trkpt lat="38.7940475" lon="-0.07003017">
        <ele>113.0</ele>
        <time>2018-06-10T08:27:13.014Z</time>
      </trkpt>
      <trkpt lat="38.7939575" lon="-0.07002167">
        <ele>113.0</ele>
        <time>2018-06-10T08:27:14.014Z</time>
      </trkpt>
      <trkpt lat="38.793868" lon="-0.07001317">
        <ele>113.0</ele>
        <time>2018-06-10T08:27:15.014Z</time>
      </trkpt>
      <trkpt lat="38.79377867" lon="-0.070005">
        <ele>114.0</ele>
        <time>2018-06-10T08:27:16.014Z</time>
      </trkpt>
      <trkpt lat="38.79368983" lon="-0.06999667">
        <ele>114.0</ele>
        <time>2018-06-10T08:27:17.014Z</time>
      </trkpt>
      <trkpt lat="38.79360117" lon="-0.06998817">
        <ele>114.0</ele>
        <time>2018-06-10T08:27:18.014Z</time>
      </trkpt>
      <trkpt lat="38.7935125" lon="-0.06997967">
        <ele>114.0</ele>
        <time>2018-06-10T08:27:19.014Z</time>
      </trkpt>
      <trkpt lat="38.79342383" lon="-0.0699715">
        <ele>114.0</ele>
        <time>2018-06-10T08:27:20.014Z</time>
      </trkpt>
      <trkpt lat="38.79333517" lon="-0.06996383">
        <ele>114.0</ele>
        <time>2018-06-10T08:27:21.014Z</time>
      </trkpt>
      <trkpt lat="38.7932465" lon="-0.069956">
        <ele>114.0</ele>
        <time>2018-06-10T08:27:22.014Z</time>
      </trkpt>
      <trkpt lat="38.79315783" lon="-0.06994817">
        <ele>114.0</ele>
        <time>2018-06-10T08:27:23.014Z</time>
      </trkpt>
      <trkpt lat="38.79306883" lon="-0.06993983">
        <ele>114.0</ele>
        <time>2018-06-10T08:27:24.014Z</time>
      </trkpt>
      <trkpt lat="38.79298" lon="-0.069931">
        <ele>114.0</ele>
        <time>2018-06-10T08:27:25.014Z</time>
      </trkpt>
      <trkpt lat="38.792891" lon="-0.06992117">
        <ele>114.0</ele>
        <time>2018-06-10T08:27:26.014Z</time>
      </trkpt>
      <trkpt lat="38.79280283" lon="-0.06990817">
        <ele>114.0</ele>
        <time>2018-06-10T08:27:27.014Z</time>
      </trkpt>
      <trkpt lat="38.79271583" lon="-0.06988833">
        <ele>114.0</ele>
        <time>2018-06-10T08:27:28.014Z</time>
      </trkpt>
      <trkpt lat="38.7926305" lon="-0.06986017">
        <ele>114.0</ele>
        <time>2018-06-10T08:27:29.014Z</time>
      </trkpt>
      <trkpt lat="38.792547" lon="-0.069825">
        <ele>114.0</ele>
        <time>2018-06-10T08:27:30.014Z</time>
      </trkpt>
      <trkpt lat="38.79246483" lon="-0.06978633">
        <ele>114.0</ele>
        <time>2018-06-10T08:27:31.014Z</time>
      </trkpt>
      <trkpt lat="38.79238317" lon="-0.0697465">
        <ele>114.0</ele>
        <time>2018-06-10T08:27:32.014Z</time>
      </trkpt>
      <trkpt lat="38.79230183" lon="-0.06970633">
        <ele>114.0</ele>
        <time>2018-06-10T08:27:33.014Z</time>
      </trkpt>
      <trkpt lat="38.792222" lon="-0.0696665">
        <ele>114.0</ele>
        <time>2018-06-10T08:27:34.014Z</time>
      </trkpt>
      <trkpt lat="38.7921445" lon="-0.069627">
        <ele>115.0</ele>
        <time>2018-06-10T08:27:35.014Z</time>
      </trkpt>
      <trkpt lat="38.79206917" lon="-0.06958867">
        <ele>115.0</ele>
        <time>2018-06-10T08:27:36.014Z</time>
      </trkpt>
      <trkpt lat="38.79199617" lon="-0.06955183">
        <ele>115.0</ele>
        <time>2018-06-10T08:27:37.014Z</time>
      </trkpt>
      <trkpt lat="38.791925" lon="-0.06951583">
        <ele>115.0</ele>
        <time>2018-06-10T08:27:38.014Z</time>
      </trkpt>
      <trkpt lat="38.791855" lon="-0.06948033">
        <ele>116.0</ele>
        <time>2018-06-10T08:27:39.014Z</time>
      </trkpt>
      <trkpt lat="38.79178633" lon="-0.0694455">
        <ele>116.0</ele>
        <time>2018-06-10T08:27:40.014Z</time>
      </trkpt>
      <trkpt lat="38.791719" lon="-0.06941117">
        <ele>116.0</ele>
        <time>2018-06-10T08:27:41.014Z</time>
      </trkpt>
      <trkpt lat="38.7916535" lon="-0.06937733">
        <ele>116.0</ele>
        <time>2018-06-10T08:27:42.014Z</time>
      </trkpt>
      <trkpt lat="38.791589" lon="-0.06934467">
        <ele>116.0</ele>
        <time>2018-06-10T08:27:43.014Z</time>
      </trkpt>
      <trkpt lat="38.791525" lon="-0.06931267">
        <ele>116.0</ele>
        <time>2018-06-10T08:27:44.014Z</time>
      </trkpt>
      <trkpt lat="38.791461" lon="-0.06928133">
        <ele>117.0</ele>
        <time>2018-06-10T08:27:45.014Z</time>
      </trkpt>
      <trkpt lat="38.7913975" lon="-0.06924983">
        <ele>117.0</ele>
        <time>2018-06-10T08:27:46.014Z</time>
      </trkpt>
      <trkpt lat="38.79133433" lon="-0.06921683">
        <ele>117.0</ele>
        <time>2018-06-10T08:27:47.014Z</time>
      </trkpt>
      <trkpt lat="38.79127183" lon="-0.0691835">
        <ele>118.0</ele>
        <time>2018-06-10T08:27:48.014Z</time>
      </trkpt>
      <trkpt lat="38.79120917" lon="-0.06914933">
        <ele>118.0</ele>
        <time>2018-06-10T08:27:49.014Z</time>
      </trkpt>
      <trkpt lat="38.79114667" lon="-0.06911633">
        <ele>118.0</ele>
        <time>2018-06-10T08:27:50.014Z</time>
      </trkpt>
      <trkpt lat="38.7910845" lon="-0.06908383">
        <ele>119.0</ele>
        <time>2018-06-10T08:27:51.014Z</time>
      </trkpt>
      <trkpt lat="38.7910225" lon="-0.0690525">
        <ele>119.0</ele>
        <time>2018-06-10T08:27:52.014Z</time>
      </trkpt>
      <trkpt lat="38.7909605" lon="-0.0690215">
        <ele>119.0</ele>
        <time>2018-06-10T08:27:53.014Z</time>
      </trkpt>
      <trkpt lat="38.790898" lon="-0.0689905">
        <ele>119.0</ele>
        <time>2018-06-10T08:27:54.014Z</time>
      </trkpt>
      <trkpt lat="38.79083533" lon="-0.06895917">
        <ele>119.0</ele>
        <time>2018-06-10T08:27:55.014Z</time>
      </trkpt>
      <trkpt lat="38.79077183" lon="-0.0689285">
        <ele>119.0</ele>
        <time>2018-06-10T08:27:56.014Z</time>
      </trkpt>
      <trkpt lat="38.79070817" lon="-0.06889783">
        <ele>119.0</ele>
        <time>2018-06-10T08:27:57.014Z</time>
      </trkpt>
      <trkpt lat="38.790644" lon="-0.0688675">
        <ele>119.0</ele>
        <time>2018-06-10T08:27:58.014Z</time>
      </trkpt>
      <trkpt lat="38.79057967" lon="-0.06883683">
        <ele>119.0</ele>
        <time>2018-06-10T08:27:59.014Z</time>
      </trkpt>
      <trkpt lat="38.79051467" lon="-0.068806">
        <ele>119.0</ele>
        <time>2018-06-10T08:28:00.014Z</time>
      </trkpt>
      <trkpt lat="38.79044917" lon="-0.06877433">
        <ele>120.0</ele>
        <time>2018-06-10T08:28:01.014Z</time>
      </trkpt>
      <trkpt lat="38.7903835" lon="-0.0687425">
        <ele>119.0</ele>
        <time>2018-06-10T08:28:02.014Z</time>
      </trkpt>
      <trkpt lat="38.790318" lon="-0.0687105">
        <ele>120.0</ele>
        <time>2018-06-10T08:28:03.014Z</time>
      </trkpt>
      <trkpt lat="38.7902525" lon="-0.06867867">
        <ele>119.0</ele>
        <time>2018-06-10T08:28:04.014Z</time>
      </trkpt>
      <trkpt lat="38.79018733" lon="-0.0686465">
        <ele>119.0</ele>
        <time>2018-06-10T08:28:05.014Z</time>
      </trkpt>
      <trkpt lat="38.79012233" lon="-0.068614">
        <ele>120.0</ele>
        <time>2018-06-10T08:28:06.014Z</time>
      </trkpt>
      <trkpt lat="38.79005717" lon="-0.06858133">
        <ele>120.0</ele>
        <time>2018-06-10T08:28:07.014Z</time>
      </trkpt>
      <trkpt lat="38.789992" lon="-0.0685485">
        <ele>120.0</ele>
        <time>2018-06-10T08:28:08.014Z</time>
      </trkpt>
      <trkpt lat="38.78992667" lon="-0.0685155">
        <ele>120.0</ele>
        <time>2018-06-10T08:28:09.014Z</time>
      </trkpt>
      <trkpt lat="38.78986083" lon="-0.06848267">
        <ele>120.0</ele>
        <time>2018-06-10T08:28:10.014Z</time>
      </trkpt>
      <trkpt lat="38.78979517" lon="-0.0684495">
        <ele>120.0</ele>
        <time>2018-06-10T08:28:11.014Z</time>
      </trkpt>
      <trkpt lat="38.78972933" lon="-0.0684165">
        <ele>120.0</ele>
        <time>2018-06-10T08:28:12.014Z</time>
      </trkpt>
      <trkpt lat="38.789664" lon="-0.06838317">
        <ele>120.0</ele>
        <time>2018-06-10T08:28:13.014Z</time>
      </trkpt>
      <trkpt lat="38.7895985" lon="-0.06835017">
        <ele>120.0</ele>
        <time>2018-06-10T08:28:14.014Z</time>
      </trkpt>
      <trkpt lat="38.78953283" lon="-0.0683175">
        <ele>121.0</ele>
        <time>2018-06-10T08:28:15.014Z</time>
      </trkpt>
      <trkpt lat="38.789467" lon="-0.06828483">
        <ele>121.0</ele>
        <time>2018-06-10T08:28:16.014Z</time>
      </trkpt>
      <trkpt lat="38.78940067" lon="-0.06825183">
        <ele>121.0</ele>
        <time>2018-06-10T08:28:17.014Z</time>
      </trkpt>
      <trkpt lat="38.789334" lon="-0.068218">
        <ele>121.0</ele>
        <time>2018-06-10T08:28:18.014Z</time>
      </trkpt>
      <trkpt lat="38.78926717" lon="-0.06818383">
        <ele>121.0</ele>
        <time>2018-06-10T08:28:19.014Z</time>
      </trkpt>
      <trkpt lat="38.78920017" lon="-0.06814917">
        <ele>121.0</ele>
        <time>2018-06-10T08:28:20.014Z</time>
      </trkpt>
      <trkpt lat="38.789133" lon="-0.0681145">
        <ele>121.0</ele>
        <time>2018-06-10T08:28:21.014Z</time>
      </trkpt>
      <trkpt lat="38.7890655" lon="-0.06808">
        <ele>121.0</ele>
        <time>2018-06-10T08:28:22.014Z</time>
      </trkpt>
      <trkpt lat="38.7889975" lon="-0.06804567">
        <ele>121.0</ele>
        <time>2018-06-10T08:28:23.014Z</time>
      </trkpt>
      <trkpt lat="38.788929" lon="-0.06801183">
        <ele>122.0</ele>
        <time>2018-06-10T08:28:24.014Z</time>
      </trkpt>
      <trkpt lat="38.78886" lon="-0.06797817">
        <ele>122.0</ele>
        <time>2018-06-10T08:28:25.014Z</time>
      </trkpt>
      <trkpt lat="38.78879083" lon="-0.06794467">
        <ele>122.0</ele>
        <time>2018-06-10T08:28:26.014Z</time>
      </trkpt>
      <trkpt lat="38.78872217" lon="-0.06791067">
        <ele>122.0</ele>
        <time>2018-06-10T08:28:27.014Z</time>
      </trkpt>
      <trkpt lat="38.78865367" lon="-0.06787567">
        <ele>122.0</ele>
        <time>2018-06-10T08:28:28.014Z</time>
      </trkpt>
      <trkpt lat="38.7885855" lon="-0.06783983">
        <ele>122.0</ele>
        <time>2018-06-10T08:28:29.014Z</time>
      </trkpt>
      <trkpt lat="38.78851767" lon="-0.06780333">
        <ele>122.0</ele>
        <time>2018-06-10T08:28:30.014Z</time>
      </trkpt>
      <trkpt lat="38.7884495" lon="-0.067768">
        <ele>122.0</ele>
        <time>2018-06-10T08:28:31.014Z</time>
      </trkpt>
      <trkpt lat="38.78838083" lon="-0.06773367">
        <ele>122.0</ele>
        <time>2018-06-10T08:28:32.014Z</time>
      </trkpt>
      <trkpt lat="38.78831117" lon="-0.06770167">
        <ele>123.0</ele>
        <time>2018-06-10T08:28:33.014Z</time>
      </trkpt>
      <trkpt lat="38.788241" lon="-0.06767033">
        <ele>123.0</ele>
        <time>2018-06-10T08:28:34.014Z</time>
      </trkpt>
      <trkpt lat="38.7881705" lon="-0.06763933">
        <ele>123.0</ele>
        <time>2018-06-10T08:28:35.014Z</time>
      </trkpt>
      <trkpt lat="38.78810033" lon="-0.067607">
        <ele>123.0</ele>
        <time>2018-06-10T08:28:36.014Z</time>
      </trkpt>
      <trkpt lat="38.78803017" lon="-0.06757383">
        <ele>123.0</ele>
        <time>2018-06-10T08:28:37.014Z</time>
      </trkpt>
      <trkpt lat="38.78795967" lon="-0.0675405">
        <ele>123.0</ele>
        <time>2018-06-10T08:28:38.014Z</time>
      </trkpt>
      <trkpt lat="38.78788867" lon="-0.0675065">
        <ele>123.0</ele>
        <time>2018-06-10T08:28:39.014Z</time>
      </trkpt>
      <trkpt lat="38.78781767" lon="-0.06747167">
        <ele>123.0</ele>
        <time>2018-06-10T08:28:40.014Z</time>
      </trkpt>
      <trkpt lat="38.7877465" lon="-0.06743617">
        <ele>123.0</ele>
        <time>2018-06-10T08:28:41.014Z</time>
      </trkpt>
      <trkpt lat="38.78767517" lon="-0.06740017">
        <ele>123.0</ele>
        <time>2018-06-10T08:28:42.014Z</time>
      </trkpt>
      <trkpt lat="38.78760283" lon="-0.0673645">
        <ele>123.0</ele>
        <time>2018-06-10T08:28:43.014Z</time>
      </trkpt>
      <trkpt lat="38.78753083" lon="-0.06732833">
        <ele>123.0</ele>
        <time>2018-06-10T08:28:44.014Z</time>
      </trkpt>
      <trkpt lat="38.78745883" lon="-0.06729233">
        <ele>123.0</ele>
        <time>2018-06-10T08:28:45.014Z</time>
      </trkpt>
      <trkpt lat="38.78738717" lon="-0.067256">
        <ele>123.0</ele>
        <time>2018-06-10T08:28:46.014Z</time>
      </trkpt>
      <trkpt lat="38.78731533" lon="-0.06721917">
        <ele>123.0</ele>
        <time>2018-06-10T08:28:47.014Z</time>
      </trkpt>
      <trkpt lat="38.78724367" lon="-0.06718083">
        <ele>123.0</ele>
        <time>2018-06-10T08:28:48.014Z</time>
      </trkpt>
      <trkpt lat="38.78717217" lon="-0.06714133">
        <ele>123.0</ele>
        <time>2018-06-10T08:28:49.014Z</time>
      </trkpt>
      <trkpt lat="38.78710083" lon="-0.067101">
        <ele>123.0</ele>
        <time>2018-06-10T08:28:50.014Z</time>
      </trkpt>
      <trkpt lat="38.787029" lon="-0.067062">
        <ele>123.0</ele>
        <time>2018-06-10T08:28:51.014Z</time>
      </trkpt>
      <trkpt lat="38.7869565" lon="-0.0670235">
        <ele>123.0</ele>
        <time>2018-06-10T08:28:52.014Z</time>
      </trkpt>
      <trkpt lat="38.78688333" lon="-0.06698617">
        <ele>123.0</ele>
        <time>2018-06-10T08:28:53.014Z</time>
      </trkpt>
      <trkpt lat="38.78681033" lon="-0.06694817">
        <ele>123.0</ele>
        <time>2018-06-10T08:28:54.014Z</time>
      </trkpt>
      <trkpt lat="38.7867375" lon="-0.06691067">
        <ele>123.0</ele>
        <time>2018-06-10T08:28:55.014Z</time>
      </trkpt>
      <trkpt lat="38.78666483" lon="-0.06687383">
        <ele>122.0</ele>
        <time>2018-06-10T08:28:56.014Z</time>
      </trkpt>
      <trkpt lat="38.78659167" lon="-0.06683817">
        <ele>122.0</ele>
        <time>2018-06-10T08:28:57.014Z</time>
      </trkpt>
      <trkpt lat="38.78651783" lon="-0.0668025">
        <ele>122.0</ele>
        <time>2018-06-10T08:28:58.014Z</time>
      </trkpt>
      <trkpt lat="38.7864435" lon="-0.06676683">
        <ele>122.0</ele>
        <time>2018-06-10T08:28:59.014Z</time>
      </trkpt>
      <trkpt lat="38.786369" lon="-0.06673033">
        <ele>122.0</ele>
        <time>2018-06-10T08:29:00.014Z</time>
      </trkpt>
      <trkpt lat="38.78629467" lon="-0.066693">
        <ele>122.0</ele>
        <time>2018-06-10T08:29:01.014Z</time>
      </trkpt>
      <trkpt lat="38.78622" lon="-0.06665483">
        <ele>123.0</ele>
        <time>2018-06-10T08:29:02.014Z</time>
      </trkpt>
      <trkpt lat="38.786145" lon="-0.06661667">
        <ele>123.0</ele>
        <time>2018-06-10T08:29:03.014Z</time>
      </trkpt>
      <trkpt lat="38.78606983" lon="-0.06657883">
        <ele>123.0</ele>
        <time>2018-06-10T08:29:04.014Z</time>
      </trkpt>
      <trkpt lat="38.7859945" lon="-0.066541">
        <ele>123.0</ele>
        <time>2018-06-10T08:29:05.014Z</time>
      </trkpt>
      <trkpt lat="38.78591967" lon="-0.0665035">
        <ele>123.0</ele>
        <time>2018-06-10T08:29:06.014Z</time>
      </trkpt>
      <trkpt lat="38.7858455" lon="-0.06646483">
        <ele>123.0</ele>
        <time>2018-06-10T08:29:07.014Z</time>
      </trkpt>
      <trkpt lat="38.78577267" lon="-0.06642283">
        <ele>123.0</ele>
        <time>2018-06-10T08:29:08.014Z</time>
      </trkpt>
      <trkpt lat="38.7857025" lon="-0.06637383">
        <ele>123.0</ele>
        <time>2018-06-10T08:29:09.014Z</time>
      </trkpt>
      <trkpt lat="38.7856355" lon="-0.0663175">
        <ele>123.0</ele>
        <time>2018-06-10T08:29:10.014Z</time>
      </trkpt>
      <trkpt lat="38.785571" lon="-0.0662555">
        <ele>123.0</ele>
        <time>2018-06-10T08:29:11.014Z</time>
      </trkpt>
      <trkpt lat="38.78550783" lon="-0.0661915">
        <ele>123.0</ele>
        <time>2018-06-10T08:29:12.014Z</time>
      </trkpt>
      <trkpt lat="38.7854455" lon="-0.06612717">
        <ele>123.0</ele>
        <time>2018-06-10T08:29:13.014Z</time>
      </trkpt>
      <trkpt lat="38.785384" lon="-0.06606233">
        <ele>123.0</ele>
        <time>2018-06-10T08:29:14.014Z</time>
      </trkpt>
      <trkpt lat="38.78532367" lon="-0.06599633">
        <ele>123.0</ele>
        <time>2018-06-10T08:29:15.014Z</time>
      </trkpt>
      <trkpt lat="38.78526417" lon="-0.06592967">
        <ele>123.0</ele>
        <time>2018-06-10T08:29:16.014Z</time>
      </trkpt>
      <trkpt lat="38.78520517" lon="-0.0658635">
        <ele>124.0</ele>
        <time>2018-06-10T08:29:17.014Z</time>
      </trkpt>
      <trkpt lat="38.785147" lon="-0.06579783">
        <ele>124.0</ele>
        <time>2018-06-10T08:29:18.014Z</time>
      </trkpt>
      <trkpt lat="38.78508967" lon="-0.065733">
        <ele>124.0</ele>
        <time>2018-06-10T08:29:19.014Z</time>
      </trkpt>
      <trkpt lat="38.7850335" lon="-0.06566883">
        <ele>124.0</ele>
        <time>2018-06-10T08:29:20.014Z</time>
      </trkpt>
      <trkpt lat="38.78497833" lon="-0.06560517">
        <ele>124.0</ele>
        <time>2018-06-10T08:29:21.014Z</time>
      </trkpt>
      <trkpt lat="38.78492433" lon="-0.0655425">
        <ele>125.0</ele>
        <time>2018-06-10T08:29:22.014Z</time>
      </trkpt>
      <trkpt lat="38.78487183" lon="-0.0654815">
        <ele>125.0</ele>
        <time>2018-06-10T08:29:23.014Z</time>
      </trkpt>
      <trkpt lat="38.78482083" lon="-0.0654225">
        <ele>125.0</ele>
        <time>2018-06-10T08:29:24.014Z</time>
      </trkpt>
      <trkpt lat="38.7847715" lon="-0.06536617">
        <ele>125.0</ele>
        <time>2018-06-10T08:29:25.014Z</time>
      </trkpt>
      <trkpt lat="38.784724" lon="-0.06531183">
        <ele>126.0</ele>
        <time>2018-06-10T08:29:26.014Z</time>
      </trkpt>
      <trkpt lat="38.7846785" lon="-0.06525967">
        <ele>126.0</ele>
        <time>2018-06-10T08:29:27.014Z</time>
      </trkpt>
      <trkpt lat="38.78463483" lon="-0.06520983">
        <ele>126.0</ele>
        <time>2018-06-10T08:29:28.014Z</time>
      </trkpt>
      <trkpt lat="38.7845925" lon="-0.06516183">
        <ele>127.0</ele>
        <time>2018-06-10T08:29:29.014Z</time>
      </trkpt>
      <trkpt lat="38.78455117" lon="-0.06511533">
        <ele>127.0</ele>
        <time>2018-06-10T08:29:30.014Z</time>
      </trkpt>
      <trkpt lat="38.78451083" lon="-0.06506917">
        <ele>127.0</ele>
        <time>2018-06-10T08:29:31.014Z</time>
      </trkpt>
      <trkpt lat="38.78447133" lon="-0.06502417">
        <ele>128.0</ele>
        <time>2018-06-10T08:29:32.014Z</time>
      </trkpt>
      <trkpt lat="38.78443267" lon="-0.06498017">
        <ele>128.0</ele>
        <time>2018-06-10T08:29:33.014Z</time>
      </trkpt>
      <trkpt lat="38.78439483" lon="-0.06493617">
        <ele>129.0</ele>
        <time>2018-06-10T08:29:34.014Z</time>
      </trkpt>
      <trkpt lat="38.78435717" lon="-0.064893">
        <ele>129.0</ele>
        <time>2018-06-10T08:29:35.014Z</time>
      </trkpt>
      <trkpt lat="38.78431883" lon="-0.06485083">
        <ele>129.0</ele>
        <time>2018-06-10T08:29:36.014Z</time>
      </trkpt>
      <trkpt lat="38.78427983" lon="-0.06480983">
        <ele>129.0</ele>
        <time>2018-06-10T08:29:37.014Z</time>
      </trkpt>
      <trkpt lat="38.78424133" lon="-0.0647685">
        <ele>130.0</ele>
        <time>2018-06-10T08:29:38.014Z</time>
      </trkpt>
      <trkpt lat="38.78420417" lon="-0.06472683">
        <ele>130.0</ele>
        <time>2018-06-10T08:29:39.014Z</time>
      </trkpt>
      <trkpt lat="38.784168" lon="-0.06468417">
        <ele>130.0</ele>
        <time>2018-06-10T08:29:40.014Z</time>
      </trkpt>
      <trkpt lat="38.78413133" lon="-0.06464183">
        <ele>130.0</ele>
        <time>2018-06-10T08:29:41.014Z</time>
      </trkpt>
      <trkpt lat="38.78409383" lon="-0.0645995">
        <ele>131.0</ele>
        <time>2018-06-10T08:29:42.014Z</time>
      </trkpt>
      <trkpt lat="38.78405617" lon="-0.064558">
        <ele>131.0</ele>
        <time>2018-06-10T08:29:43.014Z</time>
      </trkpt>
      <trkpt lat="38.78401933" lon="-0.06451733">
        <ele>131.0</ele>
        <time>2018-06-10T08:29:44.014Z</time>
      </trkpt>
      <trkpt lat="38.78398333" lon="-0.064477">
        <ele>132.0</ele>
        <time>2018-06-10T08:29:45.014Z</time>
      </trkpt>
      <trkpt lat="38.78394783" lon="-0.06443767">
        <ele>132.0</ele>
        <time>2018-06-10T08:29:46.014Z</time>
      </trkpt>
      <trkpt lat="38.78391283" lon="-0.06439867">
        <ele>132.0</ele>
        <time>2018-06-10T08:29:47.014Z</time>
      </trkpt>
      <trkpt lat="38.78387767" lon="-0.064361">
        <ele>133.0</ele>
        <time>2018-06-10T08:29:48.014Z</time>
      </trkpt>
      <trkpt lat="38.783842" lon="-0.06432417">
        <ele>133.0</ele>
        <time>2018-06-10T08:29:49.014Z</time>
      </trkpt>
      <trkpt lat="38.7838055" lon="-0.06428833">
        <ele>133.0</ele>
        <time>2018-06-10T08:29:50.014Z</time>
      </trkpt>
      <trkpt lat="38.78376833" lon="-0.06425383">
        <ele>133.0</ele>
        <time>2018-06-10T08:29:51.014Z</time>
      </trkpt>
      <trkpt lat="38.783731" lon="-0.0642205">
        <ele>134.0</ele>
        <time>2018-06-10T08:29:52.014Z</time>
      </trkpt>
      <trkpt lat="38.78369267" lon="-0.06418917">
        <ele>134.0</ele>
        <time>2018-06-10T08:29:53.014Z</time>
      </trkpt>
      <trkpt lat="38.78365383" lon="-0.06416067">
        <ele>134.0</ele>
        <time>2018-06-10T08:29:54.014Z</time>
      </trkpt>
      <trkpt lat="38.78361433" lon="-0.06413517">
        <ele>134.0</ele>
        <time>2018-06-10T08:29:55.014Z</time>
      </trkpt>
      <trkpt lat="38.78357483" lon="-0.06411317">
        <ele>134.0</ele>
        <time>2018-06-10T08:29:56.014Z</time>
      </trkpt>
      <trkpt lat="38.78353483" lon="-0.06409367">
        <ele>134.0</ele>
        <time>2018-06-10T08:29:57.014Z</time>
      </trkpt>
      <trkpt lat="38.78349383" lon="-0.06407683">
        <ele>135.0</ele>
        <time>2018-06-10T08:29:58.014Z</time>
      </trkpt>
      <trkpt lat="38.78345283" lon="-0.06406033">
        <ele>135.0</ele>
        <time>2018-06-10T08:29:59.014Z</time>
      </trkpt>
      <trkpt lat="38.78341217" lon="-0.0640455">
        <ele>135.0</ele>
        <time>2018-06-10T08:30:00.014Z</time>
      </trkpt>
      <trkpt lat="38.78337267" lon="-0.06403017">
        <ele>135.0</ele>
        <time>2018-06-10T08:30:01.014Z</time>
      </trkpt>
      <trkpt lat="38.783333" lon="-0.06401467">
        <ele>135.0</ele>
        <time>2018-06-10T08:30:02.014Z</time>
      </trkpt>
      <trkpt lat="38.78329317" lon="-0.06399683">
        <ele>135.0</ele>
        <time>2018-06-10T08:30:03.014Z</time>
      </trkpt>
      <trkpt lat="38.783252" lon="-0.06397667">
        <ele>136.0</ele>
        <time>2018-06-10T08:30:04.014Z</time>
      </trkpt>
      <trkpt lat="38.78321017" lon="-0.06395533">
        <ele>136.0</ele>
        <time>2018-06-10T08:30:05.014Z</time>
      </trkpt>
      <trkpt lat="38.78316767" lon="-0.06393533">
        <ele>137.0</ele>
        <time>2018-06-10T08:30:06.014Z</time>
      </trkpt>
      <trkpt lat="38.78312733" lon="-0.063916">
        <ele>137.0</ele>
        <time>2018-06-10T08:30:07.014Z</time>
      </trkpt>
      <trkpt lat="38.78308933" lon="-0.0638985">
        <ele>138.0</ele>
        <time>2018-06-10T08:30:08.014Z</time>
      </trkpt>
      <trkpt lat="38.78305383" lon="-0.063881">
        <ele>138.0</ele>
        <time>2018-06-10T08:30:09.014Z</time>
      </trkpt>
      <trkpt lat="38.78301867" lon="-0.06386567">
        <ele>138.0</ele>
        <time>2018-06-10T08:30:10.014Z</time>
      </trkpt>
      <trkpt lat="38.78298367" lon="-0.06385317">
        <ele>138.0</ele>
        <time>2018-06-10T08:30:11.014Z</time>
      </trkpt>
      <trkpt lat="38.782948" lon="-0.06384467">
        <ele>139.0</ele>
        <time>2018-06-10T08:30:12.014Z</time>
      </trkpt>
      <trkpt lat="38.7829115" lon="-0.06384167">
        <ele>139.0</ele>
        <time>2018-06-10T08:30:13.014Z</time>
      </trkpt>
      <trkpt lat="38.78287383" lon="-0.063843">
        <ele>139.0</ele>
        <time>2018-06-10T08:30:14.014Z</time>
      </trkpt>
      <trkpt lat="38.78283483" lon="-0.06384883">
        <ele>139.0</ele>
        <time>2018-06-10T08:30:15.014Z</time>
      </trkpt>
      <trkpt lat="38.78279433" lon="-0.063859">
        <ele>139.0</ele>
        <time>2018-06-10T08:30:16.014Z</time>
      </trkpt>
      <trkpt lat="38.782752" lon="-0.06387333">
        <ele>139.0</ele>
        <time>2018-06-10T08:30:17.014Z</time>
      </trkpt>
      <trkpt lat="38.78270817" lon="-0.06389283">
        <ele>139.0</ele>
        <time>2018-06-10T08:30:18.014Z</time>
      </trkpt>
      <trkpt lat="38.7826625" lon="-0.06391717">
        <ele>139.0</ele>
        <time>2018-06-10T08:30:19.014Z</time>
      </trkpt>
      <trkpt lat="38.78261617" lon="-0.063947">
        <ele>138.0</ele>
        <time>2018-06-10T08:30:20.014Z</time>
      </trkpt>
      <trkpt lat="38.78256917" lon="-0.06398217">
        <ele>139.0</ele>
        <time>2018-06-10T08:30:21.014Z</time>
      </trkpt>
      <trkpt lat="38.78252133" lon="-0.0640215">
        <ele>139.0</ele>
        <time>2018-06-10T08:30:22.014Z</time>
      </trkpt>
      <trkpt lat="38.78247267" lon="-0.06406433">
        <ele>139.0</ele>
        <time>2018-06-10T08:30:23.014Z</time>
      </trkpt>
      <trkpt lat="38.7824235" lon="-0.06410883">
        <ele>139.0</ele>
        <time>2018-06-10T08:30:24.014Z</time>
      </trkpt>
      <trkpt lat="38.78237383" lon="-0.064155">
        <ele>139.0</ele>
        <time>2018-06-10T08:30:25.014Z</time>
      </trkpt>
      <trkpt lat="38.78232333" lon="-0.06420283">
        <ele>139.0</ele>
        <time>2018-06-10T08:30:26.014Z</time>
      </trkpt>
      <trkpt lat="38.7822715" lon="-0.06425217">
        <ele>139.0</ele>
        <time>2018-06-10T08:30:27.014Z</time>
      </trkpt>
      <trkpt lat="38.782219" lon="-0.0643035">
        <ele>139.0</ele>
        <time>2018-06-10T08:30:28.014Z</time>
      </trkpt>
      <trkpt lat="38.78216533" lon="-0.0643555">
        <ele>139.0</ele>
        <time>2018-06-10T08:30:29.014Z</time>
      </trkpt>
      <trkpt lat="38.78211117" lon="-0.0644085">
        <ele>139.0</ele>
        <time>2018-06-10T08:30:30.014Z</time>
      </trkpt>
      <trkpt lat="38.78205617" lon="-0.0644615">
        <ele>139.0</ele>
        <time>2018-06-10T08:30:31.014Z</time>
      </trkpt>
      <trkpt lat="38.78200117" lon="-0.06451483">
        <ele>139.0</ele>
        <time>2018-06-10T08:30:32.014Z</time>
      </trkpt>
      <trkpt lat="38.781946" lon="-0.06456833">
        <ele>139.0</ele>
        <time>2018-06-10T08:30:33.014Z</time>
      </trkpt>
      <trkpt lat="38.78189133" lon="-0.06462167">
        <ele>139.0</ele>
        <time>2018-06-10T08:30:34.014Z</time>
      </trkpt>
      <trkpt lat="38.78183733" lon="-0.06467483">
        <ele>139.0</ele>
        <time>2018-06-10T08:30:35.014Z</time>
      </trkpt>
      <trkpt lat="38.78178383" lon="-0.06472783">
        <ele>139.0</ele>
        <time>2018-06-10T08:30:36.014Z</time>
      </trkpt>
      <trkpt lat="38.78173133" lon="-0.06478033">
        <ele>139.0</ele>
        <time>2018-06-10T08:30:37.014Z</time>
      </trkpt>
      <trkpt lat="38.7816795" lon="-0.06483233">
        <ele>139.0</ele>
        <time>2018-06-10T08:30:38.014Z</time>
      </trkpt>
      <trkpt lat="38.78162817" lon="-0.06488333">
        <ele>140.0</ele>
        <time>2018-06-10T08:30:39.014Z</time>
      </trkpt>
      <trkpt lat="38.78157667" lon="-0.06493383">
        <ele>140.0</ele>
        <time>2018-06-10T08:30:40.014Z</time>
      </trkpt>
      <trkpt lat="38.78152533" lon="-0.06498383">
        <ele>140.0</ele>
        <time>2018-06-10T08:30:41.014Z</time>
      </trkpt>
      <trkpt lat="38.781474" lon="-0.065033">
        <ele>140.0</ele>
        <time>2018-06-10T08:30:42.014Z</time>
      </trkpt>
      <trkpt lat="38.78142317" lon="-0.06508167">
        <ele>140.0</ele>
        <time>2018-06-10T08:30:43.014Z</time>
      </trkpt>
      <trkpt lat="38.78137267" lon="-0.0651305">
        <ele>140.0</ele>
        <time>2018-06-10T08:30:44.014Z</time>
      </trkpt>
      <trkpt lat="38.78132317" lon="-0.065181">
        <ele>141.0</ele>
        <time>2018-06-10T08:30:45.014Z</time>
      </trkpt>
      <trkpt lat="38.781274" lon="-0.06523217">
        <ele>141.0</ele>
        <time>2018-06-10T08:30:46.014Z</time>
      </trkpt>
      <trkpt lat="38.78122483" lon="-0.06528317">
        <ele>141.0</ele>
        <time>2018-06-10T08:30:47.014Z</time>
      </trkpt>
      <trkpt lat="38.78117517" lon="-0.06533283">
        <ele>141.0</ele>
        <time>2018-06-10T08:30:48.014Z</time>
      </trkpt>
      <trkpt lat="38.78112533" lon="-0.0653815">
        <ele>142.0</ele>
        <time>2018-06-10T08:30:49.014Z</time>
      </trkpt>
      <trkpt lat="38.78107567" lon="-0.06542883">
        <ele>142.0</ele>
        <time>2018-06-10T08:30:50.014Z</time>
      </trkpt>
      <trkpt lat="38.781026" lon="-0.065474">
        <ele>142.0</ele>
        <time>2018-06-10T08:30:51.014Z</time>
      </trkpt>
      <trkpt lat="38.78097533" lon="-0.06551533">
        <ele>142.0</ele>
        <time>2018-06-10T08:30:52.014Z</time>
      </trkpt>
      <trkpt lat="38.78092333" lon="-0.06555217">
        <ele>142.0</ele>
        <time>2018-06-10T08:30:53.014Z</time>
      </trkpt>
      <trkpt lat="38.78086983" lon="-0.065585">
        <ele>142.0</ele>
        <time>2018-06-10T08:30:54.014Z</time>
      </trkpt>
      <trkpt lat="38.7808155" lon="-0.06561467">
        <ele>142.0</ele>
        <time>2018-06-10T08:30:55.014Z</time>
      </trkpt>
      <trkpt lat="38.7807605" lon="-0.065643">
        <ele>143.0</ele>
        <time>2018-06-10T08:30:56.014Z</time>
      </trkpt>
      <trkpt lat="38.78070533" lon="-0.06567083">
        <ele>143.0</ele>
        <time>2018-06-10T08:30:57.014Z</time>
      </trkpt>
      <trkpt lat="38.78064983" lon="-0.06569883">
        <ele>143.0</ele>
        <time>2018-06-10T08:30:58.014Z</time>
      </trkpt>
      <trkpt lat="38.780594" lon="-0.065727">
        <ele>143.0</ele>
        <time>2018-06-10T08:30:59.014Z</time>
      </trkpt>
      <trkpt lat="38.78053817" lon="-0.06575533">
        <ele>143.0</ele>
        <time>2018-06-10T08:31:00.014Z</time>
      </trkpt>
      <trkpt lat="38.78048233" lon="-0.0657835">
        <ele>143.0</ele>
        <time>2018-06-10T08:31:01.014Z</time>
      </trkpt>
      <trkpt lat="38.7804265" lon="-0.06581167">
        <ele>143.0</ele>
        <time>2018-06-10T08:31:02.014Z</time>
      </trkpt>
      <trkpt lat="38.78037067" lon="-0.06583983">
        <ele>143.0</ele>
        <time>2018-06-10T08:31:03.014Z</time>
      </trkpt>
      <trkpt lat="38.78031433" lon="-0.065868">
        <ele>143.0</ele>
        <time>2018-06-10T08:31:04.014Z</time>
      </trkpt>
      <trkpt lat="38.78025783" lon="-0.06589633">
        <ele>143.0</ele>
        <time>2018-06-10T08:31:05.014Z</time>
      </trkpt>
      <trkpt lat="38.78020133" lon="-0.06592383">
        <ele>143.0</ele>
        <time>2018-06-10T08:31:06.014Z</time>
      </trkpt>
      <trkpt lat="38.78014533" lon="-0.06595017">
        <ele>144.0</ele>
        <time>2018-06-10T08:31:07.014Z</time>
      </trkpt>
      <trkpt lat="38.78009" lon="-0.0659755">
        <ele>144.0</ele>
        <time>2018-06-10T08:31:08.014Z</time>
      </trkpt>
      <trkpt lat="38.78003583" lon="-0.06600017">
        <ele>144.0</ele>
        <time>2018-06-10T08:31:09.014Z</time>
      </trkpt>
      <trkpt lat="38.779983" lon="-0.06602467">
        <ele>145.0</ele>
        <time>2018-06-10T08:31:10.014Z</time>
      </trkpt>
      <trkpt lat="38.779932" lon="-0.0660485">
        <ele>145.0</ele>
        <time>2018-06-10T08:31:11.014Z</time>
      </trkpt>
      <trkpt lat="38.77988217" lon="-0.0660715">
        <ele>144.0</ele>
        <time>2018-06-10T08:31:12.014Z</time>
      </trkpt>
      <trkpt lat="38.77983383" lon="-0.06609417">
        <ele>145.0</ele>
        <time>2018-06-10T08:31:13.014Z</time>
      </trkpt>
      <trkpt lat="38.77978667" lon="-0.06611617">
        <ele>145.0</ele>
        <time>2018-06-10T08:31:14.014Z</time>
      </trkpt>
      <trkpt lat="38.779741" lon="-0.06613817">
        <ele>145.0</ele>
        <time>2018-06-10T08:31:15.014Z</time>
      </trkpt>
      <trkpt lat="38.7796965" lon="-0.06615933">
        <ele>146.0</ele>
        <time>2018-06-10T08:31:16.014Z</time>
      </trkpt>
      <trkpt lat="38.77965267" lon="-0.06617933">
        <ele>146.0</ele>
        <time>2018-06-10T08:31:17.014Z</time>
      </trkpt>
      <trkpt lat="38.77961" lon="-0.06619833">
        <ele>146.0</ele>
        <time>2018-06-10T08:31:18.014Z</time>
      </trkpt>
      <trkpt lat="38.77956817" lon="-0.0662165">
        <ele>147.0</ele>
        <time>2018-06-10T08:31:19.014Z</time>
      </trkpt>
      <trkpt lat="38.7795275" lon="-0.06623483">
        <ele>147.0</ele>
        <time>2018-06-10T08:31:20.014Z</time>
      </trkpt>
      <trkpt lat="38.77948783" lon="-0.066253">
        <ele>148.0</ele>
        <time>2018-06-10T08:31:21.014Z</time>
      </trkpt>
      <trkpt lat="38.77944933" lon="-0.06627167">
        <ele>148.0</ele>
        <time>2018-06-10T08:31:22.014Z</time>
      </trkpt>
      <trkpt lat="38.77941167" lon="-0.06629083">
        <ele>148.0</ele>
        <time>2018-06-10T08:31:23.014Z</time>
      </trkpt>
      <trkpt lat="38.77937367" lon="-0.06630967">
        <ele>149.0</ele>
        <time>2018-06-10T08:31:24.014Z</time>
      </trkpt>
      <trkpt lat="38.77933533" lon="-0.06632817">
        <ele>149.0</ele>
        <time>2018-06-10T08:31:25.014Z</time>
      </trkpt>
      <trkpt lat="38.77929683" lon="-0.066346">
        <ele>149.0</ele>
        <time>2018-06-10T08:31:26.014Z</time>
      </trkpt>
      <trkpt lat="38.7792585" lon="-0.066365">
        <ele>150.0</ele>
        <time>2018-06-10T08:31:27.014Z</time>
      </trkpt>
      <trkpt lat="38.7792205" lon="-0.06638517">
        <ele>150.0</ele>
        <time>2018-06-10T08:31:28.014Z</time>
      </trkpt>
      <trkpt lat="38.77918317" lon="-0.0664065">
        <ele>151.0</ele>
        <time>2018-06-10T08:31:29.014Z</time>
      </trkpt>
      <trkpt lat="38.7791465" lon="-0.066429">
        <ele>151.0</ele>
        <time>2018-06-10T08:31:30.014Z</time>
      </trkpt>
      <trkpt lat="38.77911017" lon="-0.06645333">
        <ele>151.0</ele>
        <time>2018-06-10T08:31:31.014Z</time>
      </trkpt>
      <trkpt lat="38.77907483" lon="-0.0664795">
        <ele>152.0</ele>
        <time>2018-06-10T08:31:32.014Z</time>
      </trkpt>
      <trkpt lat="38.7790405" lon="-0.06650717">
        <ele>152.0</ele>
        <time>2018-06-10T08:31:33.014Z</time>
      </trkpt>
      <trkpt lat="38.77900733" lon="-0.06653567">
        <ele>153.0</ele>
        <time>2018-06-10T08:31:34.014Z</time>
      </trkpt>
      <trkpt lat="38.77897517" lon="-0.06656483">
        <ele>153.0</ele>
        <time>2018-06-10T08:31:35.014Z</time>
      </trkpt>
      <trkpt lat="38.778945" lon="-0.06659567">
        <ele>153.0</ele>
        <time>2018-06-10T08:31:36.014Z</time>
      </trkpt>
      <trkpt lat="38.77891833" lon="-0.06663033">
        <ele>153.0</ele>
        <time>2018-06-10T08:31:37.014Z</time>
      </trkpt>
      <trkpt lat="38.77889733" lon="-0.06666933">
        <ele>153.0</ele>
        <time>2018-06-10T08:31:38.014Z</time>
      </trkpt>
      <trkpt lat="38.77888067" lon="-0.06671233">
        <ele>153.0</ele>
        <time>2018-06-10T08:31:39.014Z</time>
      </trkpt>
      <trkpt lat="38.77886633" lon="-0.066755">
        <ele>154.0</ele>
        <time>2018-06-10T08:31:40.014Z</time>
      </trkpt>
      <trkpt lat="38.77884933" lon="-0.06679567">
        <ele>154.0</ele>
        <time>2018-06-10T08:31:41.014Z</time>
      </trkpt>
      <trkpt lat="38.77882683" lon="-0.0668325">
        <ele>154.0</ele>
        <time>2018-06-10T08:31:42.014Z</time>
      </trkpt>
      <trkpt lat="38.77879867" lon="-0.066864">
        <ele>154.0</ele>
        <time>2018-06-10T08:31:43.014Z</time>
      </trkpt>
      <trkpt lat="38.77876683" lon="-0.06688883">
        <ele>154.0</ele>
        <time>2018-06-10T08:31:44.014Z</time>
      </trkpt>
      <trkpt lat="38.77873267" lon="-0.06690433">
        <ele>154.0</ele>
        <time>2018-06-10T08:31:45.014Z</time>
      </trkpt>
      <trkpt lat="38.7786965" lon="-0.06690917">
        <ele>154.0</ele>
        <time>2018-06-10T08:31:46.014Z</time>
      </trkpt>
      <trkpt lat="38.77865933" lon="-0.06690083">
        <ele>154.0</ele>
        <time>2018-06-10T08:31:47.014Z</time>
      </trkpt>
      <trkpt lat="38.77862367" lon="-0.066881">
        <ele>154.0</ele>
        <time>2018-06-10T08:31:48.014Z</time>
      </trkpt>
      <trkpt lat="38.77859083" lon="-0.06685167">
        <ele>154.0</ele>
        <time>2018-06-10T08:31:49.014Z</time>
      </trkpt>
      <trkpt lat="38.77856083" lon="-0.06681533">
        <ele>154.0</ele>
        <time>2018-06-10T08:31:50.014Z</time>
      </trkpt>
      <trkpt lat="38.77853167" lon="-0.06677467">
        <ele>154.0</ele>
        <time>2018-06-10T08:31:51.014Z</time>
      </trkpt>
      <trkpt lat="38.778501" lon="-0.066733">
        <ele>154.0</ele>
        <time>2018-06-10T08:31:52.014Z</time>
      </trkpt>
      <trkpt lat="38.77846633" lon="-0.066696">
        <ele>154.0</ele>
        <time>2018-06-10T08:31:53.014Z</time>
      </trkpt>
      <trkpt lat="38.77842817" lon="-0.06666633">
        <ele>154.0</ele>
        <time>2018-06-10T08:31:54.014Z</time>
      </trkpt>
      <trkpt lat="38.77838683" lon="-0.0666445">
        <ele>154.0</ele>
        <time>2018-06-10T08:31:55.014Z</time>
      </trkpt>
      <trkpt lat="38.77834433" lon="-0.066628">
        <ele>155.0</ele>
        <time>2018-06-10T08:31:56.014Z</time>
      </trkpt>
      <trkpt lat="38.7783015" lon="-0.066614">
        <ele>155.0</ele>
        <time>2018-06-10T08:31:57.014Z</time>
      </trkpt>
      <trkpt lat="38.77825967" lon="-0.0665995">
        <ele>155.0</ele>
        <time>2018-06-10T08:31:58.014Z</time>
      </trkpt>
      <trkpt lat="38.7782185" lon="-0.06658417">
        <ele>156.0</ele>
        <time>2018-06-10T08:31:59.014Z</time>
      </trkpt>
      <trkpt lat="38.77817867" lon="-0.0665675">
        <ele>156.0</ele>
        <time>2018-06-10T08:32:00.014Z</time>
      </trkpt>
      <trkpt lat="38.77814" lon="-0.066549">
        <ele>156.0</ele>
        <time>2018-06-10T08:32:01.014Z</time>
      </trkpt>
      <trkpt lat="38.77810367" lon="-0.06652783">
        <ele>157.0</ele>
        <time>2018-06-10T08:32:02.014Z</time>
      </trkpt>
      <trkpt lat="38.77806983" lon="-0.06650467">
        <ele>157.0</ele>
        <time>2018-06-10T08:32:03.014Z</time>
      </trkpt>
      <trkpt lat="38.77803717" lon="-0.06647833">
        <ele>157.0</ele>
        <time>2018-06-10T08:32:04.014Z</time>
      </trkpt>
      <trkpt lat="38.778004" lon="-0.06645183">
        <ele>157.0</ele>
        <time>2018-06-10T08:32:05.014Z</time>
      </trkpt>
      <trkpt lat="38.77797183" lon="-0.06642417">
        <ele>158.0</ele>
        <time>2018-06-10T08:32:06.014Z</time>
      </trkpt>
      <trkpt lat="38.7779415" lon="-0.06639717">
        <ele>158.0</ele>
        <time>2018-06-10T08:32:07.014Z</time>
      </trkpt>
      <trkpt lat="38.77791317" lon="-0.06636883">
        <ele>158.0</ele>
        <time>2018-06-10T08:32:08.014Z</time>
      </trkpt>
      <trkpt lat="38.77788533" lon="-0.06633933">
        <ele>158.0</ele>
        <time>2018-06-10T08:32:09.014Z</time>
      </trkpt>
      <trkpt lat="38.77785817" lon="-0.06630883">
        <ele>158.0</ele>
        <time>2018-06-10T08:32:10.014Z</time>
      </trkpt>
      <trkpt lat="38.777831" lon="-0.066277">
        <ele>159.0</ele>
        <time>2018-06-10T08:32:11.014Z</time>
      </trkpt>
      <trkpt lat="38.777804" lon="-0.066244">
        <ele>159.0</ele>
        <time>2018-06-10T08:32:12.014Z</time>
      </trkpt>
      <trkpt lat="38.7777775" lon="-0.0662105">
        <ele>159.0</ele>
        <time>2018-06-10T08:32:13.014Z</time>
      </trkpt>
      <trkpt lat="38.77775183" lon="-0.06617683">
        <ele>160.0</ele>
        <time>2018-06-10T08:32:14.014Z</time>
      </trkpt>
      <trkpt lat="38.77772733" lon="-0.06614317">
        <ele>160.0</ele>
        <time>2018-06-10T08:32:15.014Z</time>
      </trkpt>
      <trkpt lat="38.77770317" lon="-0.06611017">
        <ele>160.0</ele>
        <time>2018-06-10T08:32:16.014Z</time>
      </trkpt>
      <trkpt lat="38.77767883" lon="-0.06607767">
        <ele>160.0</ele>
        <time>2018-06-10T08:32:17.014Z</time>
      </trkpt>
      <trkpt lat="38.77765417" lon="-0.0660455">
        <ele>161.0</ele>
        <time>2018-06-10T08:32:18.014Z</time>
      </trkpt>
      <trkpt lat="38.777629" lon="-0.066013">
        <ele>161.0</ele>
        <time>2018-06-10T08:32:19.014Z</time>
      </trkpt>
      <trkpt lat="38.77760333" lon="-0.06598033">
        <ele>161.0</ele>
        <time>2018-06-10T08:32:20.014Z</time>
      </trkpt>
      <trkpt lat="38.77757667" lon="-0.06594767">
        <ele>162.0</ele>
        <time>2018-06-10T08:32:21.014Z</time>
      </trkpt>
      <trkpt lat="38.7775495" lon="-0.06591517">
        <ele>162.0</ele>
        <time>2018-06-10T08:32:22.014Z</time>
      </trkpt>
      <trkpt lat="38.77752317" lon="-0.06588217">
        <ele>162.0</ele>
        <time>2018-06-10T08:32:23.014Z</time>
      </trkpt>
      <trkpt lat="38.77749667" lon="-0.06584917">
        <ele>162.0</ele>
        <time>2018-06-10T08:32:24.014Z</time>
      </trkpt>
      <trkpt lat="38.77747083" lon="-0.065816">
        <ele>163.0</ele>
        <time>2018-06-10T08:32:25.014Z</time>
      </trkpt>
      <trkpt lat="38.77744433" lon="-0.06578233">
        <ele>163.0</ele>
        <time>2018-06-10T08:32:26.014Z</time>
      </trkpt>
      <trkpt lat="38.77741733" lon="-0.06574667">
        <ele>163.0</ele>
        <time>2018-06-10T08:32:27.014Z</time>
      </trkpt>
      <trkpt lat="38.7773895" lon="-0.06570933">
        <ele>164.0</ele>
        <time>2018-06-10T08:32:28.014Z</time>
      </trkpt>
      <trkpt lat="38.77736033" lon="-0.06567267">
        <ele>164.0</ele>
        <time>2018-06-10T08:32:29.014Z</time>
      </trkpt>
      <trkpt lat="38.77733067" lon="-0.06563783">
        <ele>164.0</ele>
        <time>2018-06-10T08:32:30.014Z</time>
      </trkpt>
      <trkpt lat="38.7773005" lon="-0.06560383">
        <ele>164.0</ele>
        <time>2018-06-10T08:32:31.014Z</time>
      </trkpt>
      <trkpt lat="38.77727067" lon="-0.06556933">
        <ele>165.0</ele>
        <time>2018-06-10T08:32:32.014Z</time>
      </trkpt>
      <trkpt lat="38.77724133" lon="-0.06553483">
        <ele>165.0</ele>
        <time>2018-06-10T08:32:33.014Z</time>
      </trkpt>
      <trkpt lat="38.77721267" lon="-0.06550117">
        <ele>165.0</ele>
        <time>2018-06-10T08:32:34.014Z</time>
      </trkpt>
      <trkpt lat="38.77718417" lon="-0.0654675">
        <ele>165.0</ele>
        <time>2018-06-10T08:32:35.014Z</time>
      </trkpt>
      <trkpt lat="38.77715633" lon="-0.06543433">
        <ele>166.0</ele>
        <time>2018-06-10T08:32:36.014Z</time>
      </trkpt>
      <trkpt lat="38.77712917" lon="-0.06540067">
        <ele>166.0</ele>
        <time>2018-06-10T08:32:37.014Z</time>
      </trkpt>
      <trkpt lat="38.77710367" lon="-0.06536817">
        <ele>166.0</ele>
        <time>2018-06-10T08:32:38.014Z</time>
      </trkpt>
      <trkpt lat="38.77707733" lon="-0.06533333">
        <ele>166.0</ele>
        <time>2018-06-10T08:32:39.014Z</time>
      </trkpt>
      <trkpt lat="38.7770495" lon="-0.06529817">
        <ele>167.0</ele>
        <time>2018-06-10T08:32:40.014Z</time>
      </trkpt>
      <trkpt lat="38.7770205" lon="-0.06526217">
        <ele>167.0</ele>
        <time>2018-06-10T08:32:41.014Z</time>
      </trkpt>
      <trkpt lat="38.77699233" lon="-0.065228">
        <ele>167.0</ele>
        <time>2018-06-10T08:32:42.014Z</time>
      </trkpt>
      <trkpt lat="38.77696467" lon="-0.06519367">
        <ele>167.0</ele>
        <time>2018-06-10T08:32:43.014Z</time>
      </trkpt>
      <trkpt lat="38.77693683" lon="-0.0651595">
        <ele>167.0</ele>
        <time>2018-06-10T08:32:44.014Z</time>
      </trkpt>
      <trkpt lat="38.77690883" lon="-0.0651255">
        <ele>167.0</ele>
        <time>2018-06-10T08:32:45.014Z</time>
      </trkpt>
      <trkpt lat="38.776881" lon="-0.065091">
        <ele>168.0</ele>
        <time>2018-06-10T08:32:46.014Z</time>
      </trkpt>
      <trkpt lat="38.7768535" lon="-0.06505583">
        <ele>168.0</ele>
        <time>2018-06-10T08:32:47.014Z</time>
      </trkpt>
      <trkpt lat="38.77682583" lon="-0.06501967">
        <ele>168.0</ele>
        <time>2018-06-10T08:32:48.014Z</time>
      </trkpt>
      <trkpt lat="38.77679783" lon="-0.064984">
        <ele>168.0</ele>
        <time>2018-06-10T08:32:49.014Z</time>
      </trkpt>
      <trkpt lat="38.77676933" lon="-0.06494883">
        <ele>168.0</ele>
        <time>2018-06-10T08:32:50.014Z</time>
      </trkpt>
      <trkpt lat="38.77674017" lon="-0.06491367">
        <ele>168.0</ele>
        <time>2018-06-10T08:32:51.014Z</time>
      </trkpt>
      <trkpt lat="38.776711" lon="-0.06487833">
        <ele>168.0</ele>
        <time>2018-06-10T08:32:52.014Z</time>
      </trkpt>
      <trkpt lat="38.7766815" lon="-0.06484217">
        <ele>168.0</ele>
        <time>2018-06-10T08:32:53.014Z</time>
      </trkpt>
      <trkpt lat="38.77665183" lon="-0.0648055">
        <ele>168.0</ele>
        <time>2018-06-10T08:32:54.014Z</time>
      </trkpt>
      <trkpt lat="38.776622" lon="-0.06476817">
        <ele>169.0</ele>
        <time>2018-06-10T08:32:55.014Z</time>
      </trkpt>
      <trkpt lat="38.77659217" lon="-0.06473083">
        <ele>169.0</ele>
        <time>2018-06-10T08:32:56.014Z</time>
      </trkpt>
      <trkpt lat="38.77656217" lon="-0.06469317">
        <ele>169.0</ele>
        <time>2018-06-10T08:32:57.014Z</time>
      </trkpt>
      <trkpt lat="38.7765315" lon="-0.0646545">
        <ele>169.0</ele>
        <time>2018-06-10T08:32:58.014Z</time>
      </trkpt>
      <trkpt lat="38.77650083" lon="-0.064615">
        <ele>169.0</ele>
        <time>2018-06-10T08:32:59.014Z</time>
      </trkpt>
      <trkpt lat="38.77647" lon="-0.06457483">
        <ele>169.0</ele>
        <time>2018-06-10T08:33:00.014Z</time>
      </trkpt>
      <trkpt lat="38.77643867" lon="-0.06453383">
        <ele>169.0</ele>
        <time>2018-06-10T08:33:01.014Z</time>
      </trkpt>
      <trkpt lat="38.77640617" lon="-0.064492">
        <ele>169.0</ele>
        <time>2018-06-10T08:33:02.014Z</time>
      </trkpt>
      <trkpt lat="38.776373" lon="-0.064449">
        <ele>170.0</ele>
        <time>2018-06-10T08:33:03.014Z</time>
      </trkpt>
      <trkpt lat="38.7763395" lon="-0.06440583">
        <ele>170.0</ele>
        <time>2018-06-10T08:33:04.014Z</time>
      </trkpt>
      <trkpt lat="38.77630517" lon="-0.0643625">
        <ele>170.0</ele>
        <time>2018-06-10T08:33:05.014Z</time>
      </trkpt>
      <trkpt lat="38.77627" lon="-0.06431917">
        <ele>170.0</ele>
        <time>2018-06-10T08:33:06.014Z</time>
      </trkpt>
      <trkpt lat="38.77623417" lon="-0.06427517">
        <ele>170.0</ele>
        <time>2018-06-10T08:33:07.014Z</time>
      </trkpt>
      <trkpt lat="38.77619883" lon="-0.06423033">
        <ele>171.0</ele>
        <time>2018-06-10T08:33:08.014Z</time>
      </trkpt>
      <trkpt lat="38.77616433" lon="-0.0641845">
        <ele>171.0</ele>
        <time>2018-06-10T08:33:09.014Z</time>
      </trkpt>
      <trkpt lat="38.7761305" lon="-0.0641385">
        <ele>171.0</ele>
        <time>2018-06-10T08:33:10.014Z</time>
      </trkpt>
      <trkpt lat="38.776097" lon="-0.06409267">
        <ele>171.0</ele>
        <time>2018-06-10T08:33:11.014Z</time>
      </trkpt>
      <trkpt lat="38.7760625" lon="-0.06404767">
        <ele>171.0</ele>
        <time>2018-06-10T08:33:12.014Z</time>
      </trkpt>
      <trkpt lat="38.77602683" lon="-0.06400367">
        <ele>171.0</ele>
        <time>2018-06-10T08:33:13.014Z</time>
      </trkpt>
      <trkpt lat="38.77598933" lon="-0.06396117">
        <ele>171.0</ele>
        <time>2018-06-10T08:33:14.014Z</time>
      </trkpt>
      <trkpt lat="38.775951" lon="-0.0639195">
        <ele>171.0</ele>
        <time>2018-06-10T08:33:15.014Z</time>
      </trkpt>
      <trkpt lat="38.77591233" lon="-0.06387833">
        <ele>172.0</ele>
        <time>2018-06-10T08:33:16.014Z</time>
      </trkpt>
      <trkpt lat="38.77587317" lon="-0.06383783">
        <ele>171.0</ele>
        <time>2018-06-10T08:33:17.014Z</time>
      </trkpt>
      <trkpt lat="38.77583383" lon="-0.0637975">
        <ele>172.0</ele>
        <time>2018-06-10T08:33:18.014Z</time>
      </trkpt>
      <trkpt lat="38.77579433" lon="-0.06375767">
        <ele>172.0</ele>
        <time>2018-06-10T08:33:19.014Z</time>
      </trkpt>
      <trkpt lat="38.77575417" lon="-0.063718">
        <ele>172.0</ele>
        <time>2018-06-10T08:33:20.014Z</time>
      </trkpt>
      <trkpt lat="38.77571317" lon="-0.06367883">
        <ele>172.0</ele>
        <time>2018-06-10T08:33:21.014Z</time>
      </trkpt>
      <trkpt lat="38.775671" lon="-0.06364">
        <ele>172.0</ele>
        <time>2018-06-10T08:33:22.014Z</time>
      </trkpt>
      <trkpt lat="38.77562817" lon="-0.06360167">
        <ele>172.0</ele>
        <time>2018-06-10T08:33:23.014Z</time>
      </trkpt>
      <trkpt lat="38.77558467" lon="-0.06356367">
        <ele>172.0</ele>
        <time>2018-06-10T08:33:24.014Z</time>
      </trkpt>
      <trkpt lat="38.77554083" lon="-0.0635265">
        <ele>173.0</ele>
        <time>2018-06-10T08:33:25.014Z</time>
      </trkpt>
      <trkpt lat="38.77549633" lon="-0.063489">
        <ele>173.0</ele>
        <time>2018-06-10T08:33:26.014Z</time>
      </trkpt>
      <trkpt lat="38.77545133" lon="-0.0634515">
        <ele>173.0</ele>
        <time>2018-06-10T08:33:27.014Z</time>
      </trkpt>
      <trkpt lat="38.77540533" lon="-0.06341367">
        <ele>173.0</ele>
        <time>2018-06-10T08:33:28.014Z</time>
      </trkpt>
      <trkpt lat="38.7753585" lon="-0.06337567">
        <ele>173.0</ele>
        <time>2018-06-10T08:33:29.014Z</time>
      </trkpt>
      <trkpt lat="38.77531067" lon="-0.0633375">
        <ele>173.0</ele>
        <time>2018-06-10T08:33:30.014Z</time>
      </trkpt>
      <trkpt lat="38.77526233" lon="-0.06329917">
        <ele>173.0</ele>
        <time>2018-06-10T08:33:31.014Z</time>
      </trkpt>
      <trkpt lat="38.77521317" lon="-0.06326017">
        <ele>173.0</ele>
        <time>2018-06-10T08:33:32.014Z</time>
      </trkpt>
      <trkpt lat="38.775164" lon="-0.06322">
        <ele>173.0</ele>
        <time>2018-06-10T08:33:33.014Z</time>
      </trkpt>
      <trkpt lat="38.77511367" lon="-0.06317933">
        <ele>173.0</ele>
        <time>2018-06-10T08:33:34.014Z</time>
      </trkpt>
      <trkpt lat="38.7750625" lon="-0.06313833">
        <ele>173.0</ele>
        <time>2018-06-10T08:33:35.014Z</time>
      </trkpt>
      <trkpt lat="38.77501033" lon="-0.06309667">
        <ele>173.0</ele>
        <time>2018-06-10T08:33:36.014Z</time>
      </trkpt>
      <trkpt lat="38.7749575" lon="-0.063054">
        <ele>173.0</ele>
        <time>2018-06-10T08:33:37.014Z</time>
      </trkpt>
      <trkpt lat="38.77490383" lon="-0.0630105">
        <ele>173.0</ele>
        <time>2018-06-10T08:33:38.014Z</time>
      </trkpt>
      <trkpt lat="38.77484933" lon="-0.06296633">
        <ele>173.0</ele>
        <time>2018-06-10T08:33:39.014Z</time>
      </trkpt>
      <trkpt lat="38.77479433" lon="-0.06292167">
        <ele>173.0</ele>
        <time>2018-06-10T08:33:40.014Z</time>
      </trkpt>
      <trkpt lat="38.774739" lon="-0.06287633">
        <ele>173.0</ele>
        <time>2018-06-10T08:33:41.014Z</time>
      </trkpt>
      <trkpt lat="38.77468333" lon="-0.06283">
        <ele>173.0</ele>
        <time>2018-06-10T08:33:42.014Z</time>
      </trkpt>
      <trkpt lat="38.77462733" lon="-0.06278267">
        <ele>173.0</ele>
        <time>2018-06-10T08:33:43.014Z</time>
      </trkpt>
      <trkpt lat="38.77457033" lon="-0.06273483">
        <ele>173.0</ele>
        <time>2018-06-10T08:33:44.014Z</time>
      </trkpt>
      <trkpt lat="38.77451217" lon="-0.06268767">
        <ele>173.0</ele>
        <time>2018-06-10T08:33:45.014Z</time>
      </trkpt>
      <trkpt lat="38.77445317" lon="-0.0626415">
        <ele>173.0</ele>
        <time>2018-06-10T08:33:46.014Z</time>
      </trkpt>
      <trkpt lat="38.77439367" lon="-0.0625955">
        <ele>173.0</ele>
        <time>2018-06-10T08:33:47.014Z</time>
      </trkpt>
      <trkpt lat="38.77433383" lon="-0.06254883">
        <ele>173.0</ele>
        <time>2018-06-10T08:33:48.014Z</time>
      </trkpt>
      <trkpt lat="38.77427433" lon="-0.06250117">
        <ele>172.0</ele>
        <time>2018-06-10T08:33:49.014Z</time>
      </trkpt>
      <trkpt lat="38.77421483" lon="-0.06245317">
        <ele>172.0</ele>
        <time>2018-06-10T08:33:50.014Z</time>
      </trkpt>
      <trkpt lat="38.77415533" lon="-0.06240483">
        <ele>172.0</ele>
        <time>2018-06-10T08:33:51.014Z</time>
      </trkpt>
      <trkpt lat="38.77409567" lon="-0.0623565">
        <ele>173.0</ele>
        <time>2018-06-10T08:33:52.014Z</time>
      </trkpt>
      <trkpt lat="38.77403633" lon="-0.06230817">
        <ele>173.0</ele>
        <time>2018-06-10T08:33:53.014Z</time>
      </trkpt>
      <trkpt lat="38.77397683" lon="-0.06226183">
        <ele>173.0</ele>
        <time>2018-06-10T08:33:54.014Z</time>
      </trkpt>
      <trkpt lat="38.77391717" lon="-0.062218">
        <ele>173.0</ele>
        <time>2018-06-10T08:33:55.014Z</time>
      </trkpt>
      <trkpt lat="38.77385783" lon="-0.06217667">
        <ele>174.0</ele>
        <time>2018-06-10T08:33:56.014Z</time>
      </trkpt>
      <trkpt lat="38.77379983" lon="-0.06213717">
        <ele>174.0</ele>
        <time>2018-06-10T08:33:57.014Z</time>
      </trkpt>
      <trkpt lat="38.77374217" lon="-0.06210167">
        <ele>174.0</ele>
        <time>2018-06-10T08:33:58.014Z</time>
      </trkpt>
      <trkpt lat="38.773685" lon="-0.06207">
        <ele>175.0</ele>
        <time>2018-06-10T08:33:59.014Z</time>
      </trkpt>
      <trkpt lat="38.77362783" lon="-0.06204183">
        <ele>175.0</ele>
        <time>2018-06-10T08:34:00.014Z</time>
      </trkpt>
      <trkpt lat="38.7735715" lon="-0.06201533">
        <ele>176.0</ele>
        <time>2018-06-10T08:34:01.014Z</time>
      </trkpt>
      <trkpt lat="38.77351583" lon="-0.06199033">
        <ele>176.0</ele>
        <time>2018-06-10T08:34:02.014Z</time>
      </trkpt>
      <trkpt lat="38.77345983" lon="-0.06196767">
        <ele>176.0</ele>
        <time>2018-06-10T08:34:03.014Z</time>
      </trkpt>
      <trkpt lat="38.773404" lon="-0.0619465">
        <ele>177.0</ele>
        <time>2018-06-10T08:34:04.014Z</time>
      </trkpt>
      <trkpt lat="38.77334767" lon="-0.06192617">
        <ele>177.0</ele>
        <time>2018-06-10T08:34:05.014Z</time>
      </trkpt>
      <trkpt lat="38.77329217" lon="-0.06190667">
        <ele>178.0</ele>
        <time>2018-06-10T08:34:06.014Z</time>
      </trkpt>
      <trkpt lat="38.7732365" lon="-0.061888">
        <ele>178.0</ele>
        <time>2018-06-10T08:34:07.014Z</time>
      </trkpt>
      <trkpt lat="38.77318083" lon="-0.0618705">
        <ele>178.0</ele>
        <time>2018-06-10T08:34:08.014Z</time>
      </trkpt>
      <trkpt lat="38.77312483" lon="-0.0618535">
        <ele>178.0</ele>
        <time>2018-06-10T08:34:09.014Z</time>
      </trkpt>
      <trkpt lat="38.77306933" lon="-0.06183767">
        <ele>179.0</ele>
        <time>2018-06-10T08:34:10.014Z</time>
      </trkpt>
      <trkpt lat="38.77301467" lon="-0.06182283">
        <ele>178.0</ele>
        <time>2018-06-10T08:34:11.014Z</time>
      </trkpt>
      <trkpt lat="38.77296067" lon="-0.06180867">
        <ele>178.0</ele>
        <time>2018-06-10T08:34:12.014Z</time>
      </trkpt>
      <trkpt lat="38.77290733" lon="-0.0617945">
        <ele>179.0</ele>
        <time>2018-06-10T08:34:13.014Z</time>
      </trkpt>
      <trkpt lat="38.77285317" lon="-0.06178183">
        <ele>179.0</ele>
        <time>2018-06-10T08:34:14.014Z</time>
      </trkpt>
      <trkpt lat="38.772798" lon="-0.06176883">
        <ele>179.0</ele>
        <time>2018-06-10T08:34:15.014Z</time>
      </trkpt>
      <trkpt lat="38.772741" lon="-0.06175733">
        <ele>179.0</ele>
        <time>2018-06-10T08:34:16.014Z</time>
      </trkpt>
      <trkpt lat="38.77268367" lon="-0.06174733">
        <ele>180.0</ele>
        <time>2018-06-10T08:34:17.014Z</time>
      </trkpt>
      <trkpt lat="38.77262667" lon="-0.06173917">
        <ele>179.0</ele>
        <time>2018-06-10T08:34:18.014Z</time>
      </trkpt>
      <trkpt lat="38.77256917" lon="-0.06173183">
        <ele>179.0</ele>
        <time>2018-06-10T08:34:19.014Z</time>
      </trkpt>
      <trkpt lat="38.7725115" lon="-0.06172667">
        <ele>179.0</ele>
        <time>2018-06-10T08:34:20.014Z</time>
      </trkpt>
      <trkpt lat="38.77245317" lon="-0.06172733">
        <ele>179.0</ele>
        <time>2018-06-10T08:34:21.014Z</time>
      </trkpt>
      <trkpt lat="38.77239467" lon="-0.061737">
        <ele>179.0</ele>
        <time>2018-06-10T08:34:22.014Z</time>
      </trkpt>
      <trkpt lat="38.77233767" lon="-0.06175417">
        <ele>179.0</ele>
        <time>2018-06-10T08:34:23.014Z</time>
      </trkpt>
      <trkpt lat="38.77228283" lon="-0.06177867">
        <ele>179.0</ele>
        <time>2018-06-10T08:34:24.014Z</time>
      </trkpt>
      <trkpt lat="38.77223033" lon="-0.0618075">
        <ele>179.0</ele>
        <time>2018-06-10T08:34:25.014Z</time>
      </trkpt>
      <trkpt lat="38.77217933" lon="-0.06184117">
        <ele>179.0</ele>
        <time>2018-06-10T08:34:26.014Z</time>
      </trkpt>
      <trkpt lat="38.77212933" lon="-0.06187667">
        <ele>179.0</ele>
        <time>2018-06-10T08:34:27.014Z</time>
      </trkpt>
      <trkpt lat="38.77207983" lon="-0.06191417">
        <ele>179.0</ele>
        <time>2018-06-10T08:34:28.014Z</time>
      </trkpt>
      <trkpt lat="38.77203017" lon="-0.06195133">
        <ele>180.0</ele>
        <time>2018-06-10T08:34:29.014Z</time>
      </trkpt>
      <trkpt lat="38.7719805" lon="-0.0619885">
        <ele>180.0</ele>
        <time>2018-06-10T08:34:30.014Z</time>
      </trkpt>
      <trkpt lat="38.771931" lon="-0.0620245">
        <ele>180.0</ele>
        <time>2018-06-10T08:34:31.014Z</time>
      </trkpt>
      <trkpt lat="38.7718815" lon="-0.0620585">
        <ele>180.0</ele>
        <time>2018-06-10T08:34:32.014Z</time>
      </trkpt>
      <trkpt lat="38.77183117" lon="-0.0620875">
        <ele>180.0</ele>
        <time>2018-06-10T08:34:33.014Z</time>
      </trkpt>
      <trkpt lat="38.7717795" lon="-0.06211">
        <ele>181.0</ele>
        <time>2018-06-10T08:34:34.014Z</time>
      </trkpt>
      <trkpt lat="38.77172633" lon="-0.06212433">
        <ele>181.0</ele>
        <time>2018-06-10T08:34:35.014Z</time>
      </trkpt>
      <trkpt lat="38.7716725" lon="-0.06213017">
        <ele>181.0</ele>
        <time>2018-06-10T08:34:36.014Z</time>
      </trkpt>
      <trkpt lat="38.77161883" lon="-0.06212867">
        <ele>181.0</ele>
        <time>2018-06-10T08:34:37.014Z</time>
      </trkpt>
      <trkpt lat="38.77156583" lon="-0.06212233">
        <ele>181.0</ele>
        <time>2018-06-10T08:34:38.014Z</time>
      </trkpt>
      <trkpt lat="38.77151417" lon="-0.0621135">
        <ele>181.0</ele>
        <time>2018-06-10T08:34:39.014Z</time>
      </trkpt>
      <trkpt lat="38.77146383" lon="-0.0621025">
        <ele>182.0</ele>
        <time>2018-06-10T08:34:40.014Z</time>
      </trkpt>
      <trkpt lat="38.77141467" lon="-0.06208983">
        <ele>182.0</ele>
        <time>2018-06-10T08:34:41.014Z</time>
      </trkpt>
      <trkpt lat="38.77136667" lon="-0.06207733">
        <ele>182.0</ele>
        <time>2018-06-10T08:34:42.014Z</time>
      </trkpt>
      <trkpt lat="38.77131917" lon="-0.06206617">
        <ele>182.0</ele>
        <time>2018-06-10T08:34:43.014Z</time>
      </trkpt>
      <trkpt lat="38.77127217" lon="-0.06205683">
        <ele>183.0</ele>
        <time>2018-06-10T08:34:44.014Z</time>
      </trkpt>
      <trkpt lat="38.77122533" lon="-0.06204867">
        <ele>183.0</ele>
        <time>2018-06-10T08:34:45.014Z</time>
      </trkpt>
      <trkpt lat="38.77117883" lon="-0.06204117">
        <ele>183.0</ele>
        <time>2018-06-10T08:34:46.014Z</time>
      </trkpt>
      <trkpt lat="38.77113233" lon="-0.06203533">
        <ele>184.0</ele>
        <time>2018-06-10T08:34:47.014Z</time>
      </trkpt>
      <trkpt lat="38.77108583" lon="-0.06203167">
        <ele>184.0</ele>
        <time>2018-06-10T08:34:48.014Z</time>
      </trkpt>
      <trkpt lat="38.77103917" lon="-0.06203">
        <ele>185.0</ele>
        <time>2018-06-10T08:34:49.014Z</time>
      </trkpt>
      <trkpt lat="38.77099233" lon="-0.0620295">
        <ele>185.0</ele>
        <time>2018-06-10T08:34:50.014Z</time>
      </trkpt>
      <trkpt lat="38.7709455" lon="-0.06202967">
        <ele>185.0</ele>
        <time>2018-06-10T08:34:51.014Z</time>
      </trkpt>
      <trkpt lat="38.77089867" lon="-0.06203">
        <ele>185.0</ele>
        <time>2018-06-10T08:34:52.014Z</time>
      </trkpt>
      <trkpt lat="38.770852" lon="-0.06203067">
        <ele>186.0</ele>
        <time>2018-06-10T08:34:53.014Z</time>
      </trkpt>
      <trkpt lat="38.77080583" lon="-0.06203167">
        <ele>186.0</ele>
        <time>2018-06-10T08:34:54.014Z</time>
      </trkpt>
      <trkpt lat="38.77075983" lon="-0.06203233">
        <ele>186.0</ele>
        <time>2018-06-10T08:34:55.014Z</time>
      </trkpt>
      <trkpt lat="38.77071417" lon="-0.062033">
        <ele>187.0</ele>
        <time>2018-06-10T08:34:56.014Z</time>
      </trkpt>
      <trkpt lat="38.7706685" lon="-0.062033">
        <ele>187.0</ele>
        <time>2018-06-10T08:34:57.014Z</time>
      </trkpt>
      <trkpt lat="38.77062317" lon="-0.062033">
        <ele>187.0</ele>
        <time>2018-06-10T08:34:58.014Z</time>
      </trkpt>
      <trkpt lat="38.77057783" lon="-0.06203267">
        <ele>187.0</ele>
        <time>2018-06-10T08:34:59.014Z</time>
      </trkpt>
      <trkpt lat="38.7705325" lon="-0.06203233">
        <ele>188.0</ele>
        <time>2018-06-10T08:35:00.014Z</time>
      </trkpt>
      <trkpt lat="38.770487" lon="-0.06203167">
        <ele>188.0</ele>
        <time>2018-06-10T08:35:01.014Z</time>
      </trkpt>
      <trkpt lat="38.77044183" lon="-0.06203033">
        <ele>188.0</ele>
        <time>2018-06-10T08:35:02.014Z</time>
      </trkpt>
      <trkpt lat="38.770397" lon="-0.06202683">
        <ele>189.0</ele>
        <time>2018-06-10T08:35:03.014Z</time>
      </trkpt>
      <trkpt lat="38.7703535" lon="-0.06202067">
        <ele>189.0</ele>
        <time>2018-06-10T08:35:04.014Z</time>
      </trkpt>
      <trkpt lat="38.770311" lon="-0.06201267">
        <ele>189.0</ele>
        <time>2018-06-10T08:35:05.014Z</time>
      </trkpt>
      <trkpt lat="38.77026983" lon="-0.0620035">
        <ele>189.0</ele>
        <time>2018-06-10T08:35:06.014Z</time>
      </trkpt>
      <trkpt lat="38.77022917" lon="-0.06199433">
        <ele>190.0</ele>
        <time>2018-06-10T08:35:07.014Z</time>
      </trkpt>
      <trkpt lat="38.770189" lon="-0.061984">
        <ele>190.0</ele>
        <time>2018-06-10T08:35:08.014Z</time>
      </trkpt>
      <trkpt lat="38.77014867" lon="-0.06197133">
        <ele>190.0</ele>
        <time>2018-06-10T08:35:09.014Z</time>
      </trkpt>
      <trkpt lat="38.77010867" lon="-0.06195783">
        <ele>191.0</ele>
        <time>2018-06-10T08:35:10.014Z</time>
      </trkpt>
      <trkpt lat="38.77006967" lon="-0.06194333">
        <ele>191.0</ele>
        <time>2018-06-10T08:35:11.014Z</time>
      </trkpt>
      <trkpt lat="38.77003117" lon="-0.06192883">
        <ele>191.0</ele>
        <time>2018-06-10T08:35:12.014Z</time>
      </trkpt>
      <trkpt lat="38.7699935" lon="-0.06191333">
        <ele>192.0</ele>
        <time>2018-06-10T08:35:13.014Z</time>
      </trkpt>
      <trkpt lat="38.76995533" lon="-0.06189833">
        <ele>192.0</ele>
        <time>2018-06-10T08:35:14.014Z</time>
      </trkpt>
      <trkpt lat="38.7699175" lon="-0.06188517">
        <ele>192.0</ele>
        <time>2018-06-10T08:35:15.014Z</time>
      </trkpt>
      <trkpt lat="38.76987967" lon="-0.061873">
        <ele>192.0</ele>
        <time>2018-06-10T08:35:16.014Z</time>
      </trkpt>
      <trkpt lat="38.76984317" lon="-0.06185983">
        <ele>193.0</ele>
        <time>2018-06-10T08:35:17.014Z</time>
      </trkpt>
      <trkpt lat="38.76980783" lon="-0.06184383">
        <ele>193.0</ele>
        <time>2018-06-10T08:35:18.014Z</time>
      </trkpt>
      <trkpt lat="38.76977333" lon="-0.06182583">
        <ele>193.0</ele>
        <time>2018-06-10T08:35:19.014Z</time>
      </trkpt>
      <trkpt lat="38.76973967" lon="-0.06180767">
        <ele>194.0</ele>
        <time>2018-06-10T08:35:20.014Z</time>
      </trkpt>
      <trkpt lat="38.7697065" lon="-0.06178833">
        <ele>194.0</ele>
        <time>2018-06-10T08:35:21.014Z</time>
      </trkpt>
      <trkpt lat="38.76967467" lon="-0.0617675">
        <ele>194.0</ele>
        <time>2018-06-10T08:35:22.014Z</time>
      </trkpt>
      <trkpt lat="38.76964417" lon="-0.06174483">
        <ele>194.0</ele>
        <time>2018-06-10T08:35:23.014Z</time>
      </trkpt>
      <trkpt lat="38.7696155" lon="-0.06172067">
        <ele>195.0</ele>
        <time>2018-06-10T08:35:24.014Z</time>
      </trkpt>
      <trkpt lat="38.76958817" lon="-0.06169583">
        <ele>195.0</ele>
        <time>2018-06-10T08:35:25.014Z</time>
      </trkpt>
      <trkpt lat="38.76956183" lon="-0.0616695">
        <ele>195.0</ele>
        <time>2018-06-10T08:35:26.014Z</time>
      </trkpt>
      <trkpt lat="38.76953617" lon="-0.06164417">
        <ele>195.0</ele>
        <time>2018-06-10T08:35:27.014Z</time>
      </trkpt>
      <trkpt lat="38.7695095" lon="-0.06161833">
        <ele>195.0</ele>
        <time>2018-06-10T08:35:28.014Z</time>
      </trkpt>
      <trkpt lat="38.76948267" lon="-0.06159167">
        <ele>196.0</ele>
        <time>2018-06-10T08:35:29.014Z</time>
      </trkpt>
      <trkpt lat="38.76945483" lon="-0.0615625">
        <ele>196.0</ele>
        <time>2018-06-10T08:35:30.014Z</time>
      </trkpt>
      <trkpt lat="38.76942833" lon="-0.06153333">
        <ele>197.0</ele>
        <time>2018-06-10T08:35:31.014Z</time>
      </trkpt>
      <trkpt lat="38.76940067" lon="-0.06150633">
        <ele>197.0</ele>
        <time>2018-06-10T08:35:32.014Z</time>
      </trkpt>
      <trkpt lat="38.769372" lon="-0.0614825">
        <ele>198.0</ele>
        <time>2018-06-10T08:35:33.014Z</time>
      </trkpt>
      <trkpt lat="38.769342" lon="-0.06146133">
        <ele>198.0</ele>
        <time>2018-06-10T08:35:34.014Z</time>
      </trkpt>
      <trkpt lat="38.76931183" lon="-0.06144183">
        <ele>198.0</ele>
        <time>2018-06-10T08:35:35.014Z</time>
      </trkpt>
      <trkpt lat="38.7692805" lon="-0.061424">
        <ele>198.0</ele>
        <time>2018-06-10T08:35:36.014Z</time>
      </trkpt>
      <trkpt lat="38.76924817" lon="-0.06140817">
        <ele>198.0</ele>
        <time>2018-06-10T08:35:37.014Z</time>
      </trkpt>
      <trkpt lat="38.76921483" lon="-0.06139533">
        <ele>199.0</ele>
        <time>2018-06-10T08:35:38.014Z</time>
      </trkpt>
      <trkpt lat="38.76918" lon="-0.06138733">
        <ele>199.0</ele>
        <time>2018-06-10T08:35:39.014Z</time>
      </trkpt>
      <trkpt lat="38.76914483" lon="-0.0613865">
        <ele>199.0</ele>
        <time>2018-06-10T08:35:40.014Z</time>
      </trkpt>
      <trkpt lat="38.76910983" lon="-0.06139233">
        <ele>199.0</ele>
        <time>2018-06-10T08:35:41.014Z</time>
      </trkpt>
      <trkpt lat="38.76907583" lon="-0.06140117">
        <ele>199.0</ele>
        <time>2018-06-10T08:35:42.014Z</time>
      </trkpt>
      <trkpt lat="38.76904183" lon="-0.0614105">
        <ele>200.0</ele>
        <time>2018-06-10T08:35:43.014Z</time>
      </trkpt>
      <trkpt lat="38.769008" lon="-0.06141967">
        <ele>200.0</ele>
        <time>2018-06-10T08:35:44.014Z</time>
      </trkpt>
      <trkpt lat="38.76897433" lon="-0.06142933">
        <ele>200.0</ele>
        <time>2018-06-10T08:35:45.014Z</time>
      </trkpt>
      <trkpt lat="38.76894033" lon="-0.06143917">
        <ele>201.0</ele>
        <time>2018-06-10T08:35:46.014Z</time>
      </trkpt>
      <trkpt lat="38.76890617" lon="-0.0614485">
        <ele>201.0</ele>
        <time>2018-06-10T08:35:47.014Z</time>
      </trkpt>
      <trkpt lat="38.768872" lon="-0.06145733">
        <ele>201.0</ele>
        <time>2018-06-10T08:35:48.014Z</time>
      </trkpt>
      <trkpt lat="38.76883783" lon="-0.06146617">
        <ele>202.0</ele>
        <time>2018-06-10T08:35:49.014Z</time>
      </trkpt>
      <trkpt lat="38.76880383" lon="-0.06147533">
        <ele>202.0</ele>
        <time>2018-06-10T08:35:50.014Z</time>
      </trkpt>
      <trkpt lat="38.76876967" lon="-0.06148533">
        <ele>202.0</ele>
        <time>2018-06-10T08:35:51.014Z</time>
      </trkpt>
      <trkpt lat="38.76873517" lon="-0.06149517">
        <ele>202.0</ele>
        <time>2018-06-10T08:35:52.014Z</time>
      </trkpt>
      <trkpt lat="38.7687005" lon="-0.06150467">
        <ele>202.0</ele>
        <time>2018-06-10T08:35:53.014Z</time>
      </trkpt>
      <trkpt lat="38.76866533" lon="-0.061513">
        <ele>202.0</ele>
        <time>2018-06-10T08:35:54.014Z</time>
      </trkpt>
      <trkpt lat="38.76862967" lon="-0.061521">
        <ele>203.0</ele>
        <time>2018-06-10T08:35:55.014Z</time>
      </trkpt>
      <trkpt lat="38.76859367" lon="-0.0615295">
        <ele>203.0</ele>
        <time>2018-06-10T08:35:56.014Z</time>
      </trkpt>
      <trkpt lat="38.76855783" lon="-0.06154017">
        <ele>203.0</ele>
        <time>2018-06-10T08:35:57.014Z</time>
      </trkpt>
      <trkpt lat="38.76852267" lon="-0.06155367">
        <ele>203.0</ele>
        <time>2018-06-10T08:35:58.014Z</time>
      </trkpt>
      <trkpt lat="38.76848883" lon="-0.06157117">
        <ele>204.0</ele>
        <time>2018-06-10T08:35:59.014Z</time>
      </trkpt>
      <trkpt lat="38.76845583" lon="-0.06159083">
        <ele>204.0</ele>
        <time>2018-06-10T08:36:00.014Z</time>
      </trkpt>
      <trkpt lat="38.76842317" lon="-0.0616115">
        <ele>204.0</ele>
        <time>2018-06-10T08:36:01.014Z</time>
      </trkpt>
      <trkpt lat="38.76839017" lon="-0.0616305">
        <ele>204.0</ele>
        <time>2018-06-10T08:36:02.014Z</time>
      </trkpt>
      <trkpt lat="38.76835683" lon="-0.06164733">
        <ele>205.0</ele>
        <time>2018-06-10T08:36:03.014Z</time>
      </trkpt>
      <trkpt lat="38.76832283" lon="-0.06166217">
        <ele>205.0</ele>
        <time>2018-06-10T08:36:04.014Z</time>
      </trkpt>
      <trkpt lat="38.76828833" lon="-0.0616745">
        <ele>205.0</ele>
        <time>2018-06-10T08:36:05.014Z</time>
      </trkpt>
      <trkpt lat="38.7682535" lon="-0.06168367">
        <ele>206.0</ele>
        <time>2018-06-10T08:36:06.014Z</time>
      </trkpt>
      <trkpt lat="38.76821833" lon="-0.061688">
        <ele>206.0</ele>
        <time>2018-06-10T08:36:07.014Z</time>
      </trkpt>
      <trkpt lat="38.76818267" lon="-0.0616865">
        <ele>206.0</ele>
        <time>2018-06-10T08:36:08.014Z</time>
      </trkpt>
      <trkpt lat="38.7681475" lon="-0.06167483">
        <ele>206.0</ele>
        <time>2018-06-10T08:36:09.014Z</time>
      </trkpt>
      <trkpt lat="38.76811433" lon="-0.06165267">
        <ele>206.0</ele>
        <time>2018-06-10T08:36:10.014Z</time>
      </trkpt>
      <trkpt lat="38.76808417" lon="-0.061622">
        <ele>206.0</ele>
        <time>2018-06-10T08:36:11.014Z</time>
      </trkpt>
      <trkpt lat="38.76805783" lon="-0.061586">
        <ele>206.0</ele>
        <time>2018-06-10T08:36:12.014Z</time>
      </trkpt>
      <trkpt lat="38.768034" lon="-0.06154517">
        <ele>207.0</ele>
        <time>2018-06-10T08:36:13.014Z</time>
      </trkpt>
      <trkpt lat="38.768014" lon="-0.06150117">
        <ele>208.0</ele>
        <time>2018-06-10T08:36:14.014Z</time>
      </trkpt>
      <trkpt lat="38.76799733" lon="-0.06145467">
        <ele>208.0</ele>
        <time>2018-06-10T08:36:15.014Z</time>
      </trkpt>
      <trkpt lat="38.76798617" lon="-0.06140783">
        <ele>208.0</ele>
        <time>2018-06-10T08:36:16.014Z</time>
      </trkpt>
      <trkpt lat="38.76798267" lon="-0.0613575">
        <ele>208.0</ele>
        <time>2018-06-10T08:36:17.014Z</time>
      </trkpt>
      <trkpt lat="38.76798483" lon="-0.06130683">
        <ele>208.0</ele>
        <time>2018-06-10T08:36:18.014Z</time>
      </trkpt>
      <trkpt lat="38.76799067" lon="-0.061256">
        <ele>208.0</ele>
        <time>2018-06-10T08:36:19.014Z</time>
      </trkpt>
      <trkpt lat="38.767997" lon="-0.061206">
        <ele>208.0</ele>
        <time>2018-06-10T08:36:20.014Z</time>
      </trkpt>
      <trkpt lat="38.76800383" lon="-0.0611555">
        <ele>208.0</ele>
        <time>2018-06-10T08:36:21.014Z</time>
      </trkpt>
      <trkpt lat="38.76800883" lon="-0.06110417">
        <ele>209.0</ele>
        <time>2018-06-10T08:36:22.014Z</time>
      </trkpt>
      <trkpt lat="38.76801033" lon="-0.06105233">
        <ele>209.0</ele>
        <time>2018-06-10T08:36:23.014Z</time>
      </trkpt>
      <trkpt lat="38.7680075" lon="-0.06100033">
        <ele>210.0</ele>
        <time>2018-06-10T08:36:24.014Z</time>
      </trkpt>
      <trkpt lat="38.7679995" lon="-0.06094867">
        <ele>209.0</ele>
        <time>2018-06-10T08:36:25.014Z</time>
      </trkpt>
      <trkpt lat="38.76798633" lon="-0.06089867">
        <ele>210.0</ele>
        <time>2018-06-10T08:36:26.014Z</time>
      </trkpt>
      <trkpt lat="38.76796867" lon="-0.06084983">
        <ele>210.0</ele>
        <time>2018-06-10T08:36:27.014Z</time>
      </trkpt>
      <trkpt lat="38.76794767" lon="-0.0608025">
        <ele>210.0</ele>
        <time>2018-06-10T08:36:28.014Z</time>
      </trkpt>
      <trkpt lat="38.76792417" lon="-0.06075617">
        <ele>210.0</ele>
        <time>2018-06-10T08:36:29.014Z</time>
      </trkpt>
      <trkpt lat="38.76789883" lon="-0.06071033">
        <ele>211.0</ele>
        <time>2018-06-10T08:36:30.014Z</time>
      </trkpt>
      <trkpt lat="38.767873" lon="-0.06066433">
        <ele>211.0</ele>
        <time>2018-06-10T08:36:31.014Z</time>
      </trkpt>
      <trkpt lat="38.76784717" lon="-0.0606185">
        <ele>212.0</ele>
        <time>2018-06-10T08:36:32.014Z</time>
      </trkpt>
      <trkpt lat="38.767821" lon="-0.06057283">
        <ele>212.0</ele>
        <time>2018-06-10T08:36:33.014Z</time>
      </trkpt>
      <trkpt lat="38.7677945" lon="-0.06052683">
        <ele>212.0</ele>
        <time>2018-06-10T08:36:34.014Z</time>
      </trkpt>
      <trkpt lat="38.76776767" lon="-0.06048117">
        <ele>212.0</ele>
        <time>2018-06-10T08:36:35.014Z</time>
      </trkpt>
      <trkpt lat="38.76774167" lon="-0.06043517">
        <ele>213.0</ele>
        <time>2018-06-10T08:36:36.014Z</time>
      </trkpt>
      <trkpt lat="38.76771517" lon="-0.06038933">
        <ele>213.0</ele>
        <time>2018-06-10T08:36:37.014Z</time>
      </trkpt>
      <trkpt lat="38.767689" lon="-0.06034267">
        <ele>213.0</ele>
        <time>2018-06-10T08:36:38.014Z</time>
      </trkpt>
      <trkpt lat="38.76766317" lon="-0.0602955">
        <ele>213.0</ele>
        <time>2018-06-10T08:36:39.014Z</time>
      </trkpt>
      <trkpt lat="38.76763917" lon="-0.0602475">
        <ele>214.0</ele>
        <time>2018-06-10T08:36:40.014Z</time>
      </trkpt>
      <trkpt lat="38.7676175" lon="-0.06019833">
        <ele>214.0</ele>
        <time>2018-06-10T08:36:41.014Z</time>
      </trkpt>
      <trkpt lat="38.767598" lon="-0.0601475">
        <ele>214.0</ele>
        <time>2018-06-10T08:36:42.014Z</time>
      </trkpt>
      <trkpt lat="38.76758083" lon="-0.0600945">
        <ele>214.0</ele>
        <time>2018-06-10T08:36:43.014Z</time>
      </trkpt>
      <trkpt lat="38.767566" lon="-0.06003883">
        <ele>214.0</ele>
        <time>2018-06-10T08:36:44.014Z</time>
      </trkpt>
      <trkpt lat="38.76755433" lon="-0.05998067">
        <ele>214.0</ele>
        <time>2018-06-10T08:36:45.014Z</time>
      </trkpt>
      <trkpt lat="38.76754517" lon="-0.05992083">
        <ele>215.0</ele>
        <time>2018-06-10T08:36:46.014Z</time>
      </trkpt>
      <trkpt lat="38.76753833" lon="-0.05986283">
        <ele>215.0</ele>
        <time>2018-06-10T08:36:47.014Z</time>
      </trkpt>
      <trkpt lat="38.76753183" lon="-0.05980383">
        <ele>215.0</ele>
        <time>2018-06-10T08:36:48.014Z</time>
      </trkpt>
      <trkpt lat="38.76752617" lon="-0.0597445">
        <ele>215.0</ele>
        <time>2018-06-10T08:36:49.014Z</time>
      </trkpt>
      <trkpt lat="38.767522" lon="-0.05968183">
        <ele>215.0</ele>
        <time>2018-06-10T08:36:50.014Z</time>
      </trkpt>
      <trkpt lat="38.76752" lon="-0.05961667">
        <ele>215.0</ele>
        <time>2018-06-10T08:36:51.014Z</time>
      </trkpt>
      <trkpt lat="38.76752067" lon="-0.05955017">
        <ele>215.0</ele>
        <time>2018-06-10T08:36:52.014Z</time>
      </trkpt>
      <trkpt lat="38.76752183" lon="-0.05948233">
        <ele>215.0</ele>
        <time>2018-06-10T08:36:53.014Z</time>
      </trkpt>
      <trkpt lat="38.767522" lon="-0.05941583">
        <ele>215.0</ele>
        <time>2018-06-10T08:36:54.014Z</time>
      </trkpt>
      <trkpt lat="38.76751883" lon="-0.059349">
        <ele>215.0</ele>
        <time>2018-06-10T08:36:55.014Z</time>
      </trkpt>
      <trkpt lat="38.76751417" lon="-0.0592815">
        <ele>216.0</ele>
        <time>2018-06-10T08:36:56.014Z</time>
      </trkpt>
      <trkpt lat="38.76750967" lon="-0.05921333">
        <ele>216.0</ele>
        <time>2018-06-10T08:36:57.014Z</time>
      </trkpt>
      <trkpt lat="38.76750667" lon="-0.0591445">
        <ele>216.0</ele>
        <time>2018-06-10T08:36:58.014Z</time>
      </trkpt>
      <trkpt lat="38.76750533" lon="-0.059075">
        <ele>216.0</ele>
        <time>2018-06-10T08:36:59.014Z</time>
      </trkpt>
      <trkpt lat="38.767504" lon="-0.05900567">
        <ele>216.0</ele>
        <time>2018-06-10T08:37:00.014Z</time>
      </trkpt>
      <trkpt lat="38.76750283" lon="-0.05893617">
        <ele>216.0</ele>
        <time>2018-06-10T08:37:01.014Z</time>
      </trkpt>
      <trkpt lat="38.7675015" lon="-0.05886683">
        <ele>216.0</ele>
        <time>2018-06-10T08:37:02.014Z</time>
      </trkpt>
      <trkpt lat="38.7675015" lon="-0.05879717">
        <ele>216.0</ele>
        <time>2018-06-10T08:37:03.014Z</time>
      </trkpt>
      <trkpt lat="38.76750267" lon="-0.0587275">
        <ele>216.0</ele>
        <time>2018-06-10T08:37:04.014Z</time>
      </trkpt>
      <trkpt lat="38.76750533" lon="-0.05865783">
        <ele>216.0</ele>
        <time>2018-06-10T08:37:05.014Z</time>
      </trkpt>
      <trkpt lat="38.7675095" lon="-0.0585885">
        <ele>216.0</ele>
        <time>2018-06-10T08:37:06.014Z</time>
      </trkpt>
      <trkpt lat="38.76751467" lon="-0.05851933">
        <ele>216.0</ele>
        <time>2018-06-10T08:37:07.014Z</time>
      </trkpt>
      <trkpt lat="38.7675215" lon="-0.05845133">
        <ele>216.0</ele>
        <time>2018-06-10T08:37:08.014Z</time>
      </trkpt>
      <trkpt lat="38.76752917" lon="-0.05838417">
        <ele>217.0</ele>
        <time>2018-06-10T08:37:09.014Z</time>
      </trkpt>
      <trkpt lat="38.76753767" lon="-0.05831767">
        <ele>217.0</ele>
        <time>2018-06-10T08:37:10.014Z</time>
      </trkpt>
      <trkpt lat="38.76754617" lon="-0.05825167">
        <ele>217.0</ele>
        <time>2018-06-10T08:37:11.014Z</time>
      </trkpt>
      <trkpt lat="38.76755517" lon="-0.058187">
        <ele>217.0</ele>
        <time>2018-06-10T08:37:12.014Z</time>
      </trkpt>
      <trkpt lat="38.76756483" lon="-0.05812283">
        <ele>218.0</ele>
        <time>2018-06-10T08:37:13.014Z</time>
      </trkpt>
      <trkpt lat="38.767575" lon="-0.05805883">
        <ele>218.0</ele>
        <time>2018-06-10T08:37:14.014Z</time>
      </trkpt>
      <trkpt lat="38.76758417" lon="-0.05799467">
        <ele>218.0</ele>
        <time>2018-06-10T08:37:15.014Z</time>
      </trkpt>
      <trkpt lat="38.76759283" lon="-0.0579315">
        <ele>218.0</ele>
        <time>2018-06-10T08:37:16.014Z</time>
      </trkpt>
      <trkpt lat="38.76760117" lon="-0.05787033">
        <ele>219.0</ele>
        <time>2018-06-10T08:37:17.014Z</time>
      </trkpt>
      <trkpt lat="38.76761067" lon="-0.05781083">
        <ele>219.0</ele>
        <time>2018-06-10T08:37:18.014Z</time>
      </trkpt>
      <trkpt lat="38.76762067" lon="-0.0577525">
        <ele>219.0</ele>
        <time>2018-06-10T08:37:19.014Z</time>
      </trkpt>
      <trkpt lat="38.76763" lon="-0.0576945">
        <ele>219.0</ele>
        <time>2018-06-10T08:37:20.014Z</time>
      </trkpt>
      <trkpt lat="38.76763833" lon="-0.0576365">
        <ele>219.0</ele>
        <time>2018-06-10T08:37:21.014Z</time>
      </trkpt>
      <trkpt lat="38.76764567" lon="-0.05757833">
        <ele>220.0</ele>
        <time>2018-06-10T08:37:22.014Z</time>
      </trkpt>
      <trkpt lat="38.76765267" lon="-0.05752">
        <ele>220.0</ele>
        <time>2018-06-10T08:37:23.014Z</time>
      </trkpt>
      <trkpt lat="38.76765967" lon="-0.05746167">
        <ele>220.0</ele>
        <time>2018-06-10T08:37:24.014Z</time>
      </trkpt>
      <trkpt lat="38.76766683" lon="-0.057404">
        <ele>220.0</ele>
        <time>2018-06-10T08:37:25.014Z</time>
      </trkpt>
      <trkpt lat="38.7676735" lon="-0.057347">
        <ele>221.0</ele>
        <time>2018-06-10T08:37:26.014Z</time>
      </trkpt>
      <trkpt lat="38.7676805" lon="-0.05728983">
        <ele>221.0</ele>
        <time>2018-06-10T08:37:27.014Z</time>
      </trkpt>
      <trkpt lat="38.76768767" lon="-0.05723183">
        <ele>221.0</ele>
        <time>2018-06-10T08:37:28.014Z</time>
      </trkpt>
      <trkpt lat="38.76769633" lon="-0.05717317">
        <ele>221.0</ele>
        <time>2018-06-10T08:37:29.014Z</time>
      </trkpt>
      <trkpt lat="38.76770483" lon="-0.05711467">
        <ele>222.0</ele>
        <time>2018-06-10T08:37:30.014Z</time>
      </trkpt>
      <trkpt lat="38.76771283" lon="-0.05705633">
        <ele>222.0</ele>
        <time>2018-06-10T08:37:31.014Z</time>
      </trkpt>
      <trkpt lat="38.7677195" lon="-0.05699883">
        <ele>222.0</ele>
        <time>2018-06-10T08:37:32.014Z</time>
      </trkpt>
      <trkpt lat="38.76772483" lon="-0.0569415">
        <ele>222.0</ele>
        <time>2018-06-10T08:37:33.014Z</time>
      </trkpt>
      <trkpt lat="38.76772783" lon="-0.05688483">
        <ele>223.0</ele>
        <time>2018-06-10T08:37:34.014Z</time>
      </trkpt>
      <trkpt lat="38.76772483" lon="-0.0568275">
        <ele>223.0</ele>
        <time>2018-06-10T08:37:35.014Z</time>
      </trkpt>
      <trkpt lat="38.76771167" lon="-0.05677183">
        <ele>223.0</ele>
        <time>2018-06-10T08:37:36.014Z</time>
      </trkpt>
      <trkpt lat="38.7676865" lon="-0.056723">
        <ele>224.0</ele>
        <time>2018-06-10T08:37:37.014Z</time>
      </trkpt>
      <trkpt lat="38.76765217" lon="-0.0566855">
        <ele>224.0</ele>
        <time>2018-06-10T08:37:38.014Z</time>
      </trkpt>
      <trkpt lat="38.76761217" lon="-0.0566635">
        <ele>224.0</ele>
        <time>2018-06-10T08:37:39.014Z</time>
      </trkpt>
      <trkpt lat="38.76757" lon="-0.0566585">
        <ele>223.0</ele>
        <time>2018-06-10T08:37:40.014Z</time>
      </trkpt>
      <trkpt lat="38.76753033" lon="-0.05667433">
        <ele>224.0</ele>
        <time>2018-06-10T08:37:41.014Z</time>
      </trkpt>
      <trkpt lat="38.76750033" lon="-0.05670983">
        <ele>224.0</ele>
        <time>2018-06-10T08:37:42.014Z</time>
      </trkpt>
      <trkpt lat="38.767485" lon="-0.05676067">
        <ele>224.0</ele>
        <time>2018-06-10T08:37:43.014Z</time>
      </trkpt>
      <trkpt lat="38.7674805" lon="-0.05681667">
        <ele>224.0</ele>
        <time>2018-06-10T08:37:44.014Z</time>
      </trkpt>
      <trkpt lat="38.767481" lon="-0.05687283">
        <ele>225.0</ele>
        <time>2018-06-10T08:37:45.014Z</time>
      </trkpt>
      <trkpt lat="38.76748133" lon="-0.05692633">
        <ele>225.0</ele>
        <time>2018-06-10T08:37:46.014Z</time>
      </trkpt>
      <trkpt lat="38.7674815" lon="-0.05697883">
        <ele>225.0</ele>
        <time>2018-06-10T08:37:47.014Z</time>
      </trkpt>
      <trkpt lat="38.76748033" lon="-0.05703083">
        <ele>225.0</ele>
        <time>2018-06-10T08:37:48.014Z</time>
      </trkpt>
      <trkpt lat="38.76747683" lon="-0.05708317">
        <ele>226.0</ele>
        <time>2018-06-10T08:37:49.014Z</time>
      </trkpt>
      <trkpt lat="38.7674695" lon="-0.057135">
        <ele>227.0</ele>
        <time>2018-06-10T08:37:50.014Z</time>
      </trkpt>
      <trkpt lat="38.76745883" lon="-0.05718567">
        <ele>227.0</ele>
        <time>2018-06-10T08:37:51.014Z</time>
      </trkpt>
      <trkpt lat="38.7674455" lon="-0.057235">
        <ele>227.0</ele>
        <time>2018-06-10T08:37:52.014Z</time>
      </trkpt>
      <trkpt lat="38.76743083" lon="-0.057284">
        <ele>227.0</ele>
        <time>2018-06-10T08:37:53.014Z</time>
      </trkpt>
      <trkpt lat="38.76741517" lon="-0.05733233">
        <ele>228.0</ele>
        <time>2018-06-10T08:37:54.014Z</time>
      </trkpt>
      <trkpt lat="38.767398" lon="-0.05738">
        <ele>228.0</ele>
        <time>2018-06-10T08:37:55.014Z</time>
      </trkpt>
      <trkpt lat="38.76737933" lon="-0.05742667">
        <ele>228.0</ele>
        <time>2018-06-10T08:37:56.014Z</time>
      </trkpt>
      <trkpt lat="38.76736" lon="-0.05747267">
        <ele>229.0</ele>
        <time>2018-06-10T08:37:57.014Z</time>
      </trkpt>
      <trkpt lat="38.7673405" lon="-0.05751883">
        <ele>229.0</ele>
        <time>2018-06-10T08:37:58.014Z</time>
      </trkpt>
      <trkpt lat="38.76732067" lon="-0.05756533">
        <ele>229.0</ele>
        <time>2018-06-10T08:37:59.014Z</time>
      </trkpt>
      <trkpt lat="38.76730033" lon="-0.057612">
        <ele>229.0</ele>
        <time>2018-06-10T08:38:00.014Z</time>
      </trkpt>
      <trkpt lat="38.76727967" lon="-0.05765933">
        <ele>230.0</ele>
        <time>2018-06-10T08:38:01.014Z</time>
      </trkpt>
      <trkpt lat="38.76725867" lon="-0.05770883">
        <ele>230.0</ele>
        <time>2018-06-10T08:38:02.014Z</time>
      </trkpt>
      <trkpt lat="38.767238" lon="-0.0577605">
        <ele>230.0</ele>
        <time>2018-06-10T08:38:03.014Z</time>
      </trkpt>
      <trkpt lat="38.76721733" lon="-0.0578145">
        <ele>230.0</ele>
        <time>2018-06-10T08:38:04.014Z</time>
      </trkpt>
      <trkpt lat="38.76719683" lon="-0.05786917">
        <ele>231.0</ele>
        <time>2018-06-10T08:38:05.014Z</time>
      </trkpt>
      <trkpt lat="38.76717633" lon="-0.05792433">
        <ele>231.0</ele>
        <time>2018-06-10T08:38:06.014Z</time>
      </trkpt>
      <trkpt lat="38.76715683" lon="-0.05797983">
        <ele>231.0</ele>
        <time>2018-06-10T08:38:07.014Z</time>
      </trkpt>
      <trkpt lat="38.7671385" lon="-0.058036">
        <ele>232.0</ele>
        <time>2018-06-10T08:38:08.014Z</time>
      </trkpt>
      <trkpt lat="38.76712067" lon="-0.058092">
        <ele>232.0</ele>
        <time>2018-06-10T08:38:09.014Z</time>
      </trkpt>
      <trkpt lat="38.76710333" lon="-0.05814867">
        <ele>232.0</ele>
        <time>2018-06-10T08:38:10.014Z</time>
      </trkpt>
      <trkpt lat="38.7670865" lon="-0.058206">
        <ele>232.0</ele>
        <time>2018-06-10T08:38:11.014Z</time>
      </trkpt>
      <trkpt lat="38.76707033" lon="-0.05826417">
        <ele>233.0</ele>
        <time>2018-06-10T08:38:12.014Z</time>
      </trkpt>
      <trkpt lat="38.76705467" lon="-0.05832283">
        <ele>233.0</ele>
        <time>2018-06-10T08:38:13.014Z</time>
      </trkpt>
      <trkpt lat="38.76704017" lon="-0.0583815">
        <ele>233.0</ele>
        <time>2018-06-10T08:38:14.014Z</time>
      </trkpt>
      <trkpt lat="38.76702617" lon="-0.05844083">
        <ele>234.0</ele>
        <time>2018-06-10T08:38:15.014Z</time>
      </trkpt>
      <trkpt lat="38.767013" lon="-0.0585">
        <ele>234.0</ele>
        <time>2018-06-10T08:38:16.014Z</time>
      </trkpt>
      <trkpt lat="38.767" lon="-0.0585585">
        <ele>234.0</ele>
        <time>2018-06-10T08:38:17.014Z</time>
      </trkpt>
      <trkpt lat="38.76698817" lon="-0.05861667">
        <ele>235.0</ele>
        <time>2018-06-10T08:38:18.014Z</time>
      </trkpt>
      <trkpt lat="38.766978" lon="-0.0586745">
        <ele>235.0</ele>
        <time>2018-06-10T08:38:19.014Z</time>
      </trkpt>
      <trkpt lat="38.76697017" lon="-0.0587325">
        <ele>235.0</ele>
        <time>2018-06-10T08:38:20.014Z</time>
      </trkpt>
      <trkpt lat="38.76696483" lon="-0.05878967">
        <ele>235.0</ele>
        <time>2018-06-10T08:38:21.014Z</time>
      </trkpt>
      <trkpt lat="38.766959" lon="-0.05884667">
        <ele>235.0</ele>
        <time>2018-06-10T08:38:22.014Z</time>
      </trkpt>
      <trkpt lat="38.76695267" lon="-0.05890383">
        <ele>235.0</ele>
        <time>2018-06-10T08:38:23.014Z</time>
      </trkpt>
      <trkpt lat="38.7669455" lon="-0.05896133">
        <ele>236.0</ele>
        <time>2018-06-10T08:38:24.014Z</time>
      </trkpt>
      <trkpt lat="38.76694033" lon="-0.05901883">
        <ele>236.0</ele>
        <time>2018-06-10T08:38:25.014Z</time>
      </trkpt>
      <trkpt lat="38.7669385" lon="-0.05907567">
        <ele>236.0</ele>
        <time>2018-06-10T08:38:26.014Z</time>
      </trkpt>
      <trkpt lat="38.766939" lon="-0.0591335">
        <ele>236.0</ele>
        <time>2018-06-10T08:38:27.014Z</time>
      </trkpt>
      <trkpt lat="38.766941" lon="-0.05919283">
        <ele>236.0</ele>
        <time>2018-06-10T08:38:28.014Z</time>
      </trkpt>
      <trkpt lat="38.76694283" lon="-0.05925317">
        <ele>236.0</ele>
        <time>2018-06-10T08:38:29.014Z</time>
      </trkpt>
      <trkpt lat="38.7669445" lon="-0.0593145">
        <ele>237.0</ele>
        <time>2018-06-10T08:38:30.014Z</time>
      </trkpt>
      <trkpt lat="38.766946" lon="-0.059376">
        <ele>237.0</ele>
        <time>2018-06-10T08:38:31.014Z</time>
      </trkpt>
      <trkpt lat="38.76694717" lon="-0.05943767">
        <ele>238.0</ele>
        <time>2018-06-10T08:38:32.014Z</time>
      </trkpt>
      <trkpt lat="38.7669485" lon="-0.05949933">
        <ele>238.0</ele>
        <time>2018-06-10T08:38:33.014Z</time>
      </trkpt>
      <trkpt lat="38.76695033" lon="-0.05956117">
        <ele>238.0</ele>
        <time>2018-06-10T08:38:34.014Z</time>
      </trkpt>
      <trkpt lat="38.76695233" lon="-0.0596225">
        <ele>238.0</ele>
        <time>2018-06-10T08:38:35.014Z</time>
      </trkpt>
      <trkpt lat="38.766955" lon="-0.05968383">
        <ele>238.0</ele>
        <time>2018-06-10T08:38:36.014Z</time>
      </trkpt>
      <trkpt lat="38.76695767" lon="-0.059745">
        <ele>238.0</ele>
        <time>2018-06-10T08:38:37.014Z</time>
      </trkpt>
      <trkpt lat="38.766961" lon="-0.05980633">
        <ele>239.0</ele>
        <time>2018-06-10T08:38:38.014Z</time>
      </trkpt>
      <trkpt lat="38.76696367" lon="-0.05986783">
        <ele>239.0</ele>
        <time>2018-06-10T08:38:39.014Z</time>
      </trkpt>
      <trkpt lat="38.76696617" lon="-0.05992917">
        <ele>239.0</ele>
        <time>2018-06-10T08:38:40.014Z</time>
      </trkpt>
      <trkpt lat="38.76696833" lon="-0.05999083">
        <ele>239.0</ele>
        <time>2018-06-10T08:38:41.014Z</time>
      </trkpt>
      <trkpt lat="38.766971" lon="-0.06005267">
        <ele>239.0</ele>
        <time>2018-06-10T08:38:42.014Z</time>
      </trkpt>
      <trkpt lat="38.7669735" lon="-0.0601145">
        <ele>240.0</ele>
        <time>2018-06-10T08:38:43.014Z</time>
      </trkpt>
      <trkpt lat="38.76697617" lon="-0.060176">
        <ele>240.0</ele>
        <time>2018-06-10T08:38:44.014Z</time>
      </trkpt>
      <trkpt lat="38.76697867" lon="-0.06023717">
        <ele>240.0</ele>
        <time>2018-06-10T08:38:45.014Z</time>
      </trkpt>
      <trkpt lat="38.76698167" lon="-0.06029867">
        <ele>241.0</ele>
        <time>2018-06-10T08:38:46.014Z</time>
      </trkpt>
      <trkpt lat="38.76698567" lon="-0.06036">
        <ele>241.0</ele>
        <time>2018-06-10T08:38:47.014Z</time>
      </trkpt>
      <trkpt lat="38.76699033" lon="-0.06041933">
        <ele>241.0</ele>
        <time>2018-06-10T08:38:48.014Z</time>
      </trkpt>
      <trkpt lat="38.7669955" lon="-0.06047917">
        <ele>242.0</ele>
        <time>2018-06-10T08:38:49.014Z</time>
      </trkpt>
      <trkpt lat="38.76699983" lon="-0.06054133">
        <ele>242.0</ele>
        <time>2018-06-10T08:38:50.014Z</time>
      </trkpt>
      <trkpt lat="38.76700383" lon="-0.06060783">
        <ele>242.0</ele>
        <time>2018-06-10T08:38:51.014Z</time>
      </trkpt>
      <trkpt lat="38.76700767" lon="-0.06067717">
        <ele>243.0</ele>
        <time>2018-06-10T08:38:52.014Z</time>
      </trkpt>
      <trkpt lat="38.767012" lon="-0.0607465">
        <ele>243.0</ele>
        <time>2018-06-10T08:38:53.014Z</time>
      </trkpt>
      <trkpt lat="38.7670165" lon="-0.06081567">
        <ele>243.0</ele>
        <time>2018-06-10T08:38:54.014Z</time>
      </trkpt>
      <trkpt lat="38.76702017" lon="-0.060884">
        <ele>244.0</ele>
        <time>2018-06-10T08:38:55.014Z</time>
      </trkpt>
      <trkpt lat="38.76702317" lon="-0.06095267">
        <ele>244.0</ele>
        <time>2018-06-10T08:38:56.014Z</time>
      </trkpt>
      <trkpt lat="38.7670245" lon="-0.061021">
        <ele>244.0</ele>
        <time>2018-06-10T08:38:57.014Z</time>
      </trkpt>
      <trkpt lat="38.7670225" lon="-0.061088">
        <ele>244.0</ele>
        <time>2018-06-10T08:38:58.014Z</time>
      </trkpt>
      <trkpt lat="38.76701617" lon="-0.061152">
        <ele>244.0</ele>
        <time>2018-06-10T08:38:59.014Z</time>
      </trkpt>
      <trkpt lat="38.76700383" lon="-0.061214">
        <ele>244.0</ele>
        <time>2018-06-10T08:39:00.014Z</time>
      </trkpt>
      <trkpt lat="38.76698567" lon="-0.06127217">
        <ele>245.0</ele>
        <time>2018-06-10T08:39:01.014Z</time>
      </trkpt>
      <trkpt lat="38.766961" lon="-0.06132717">
        <ele>246.0</ele>
        <time>2018-06-10T08:39:02.014Z</time>
      </trkpt>
      <trkpt lat="38.7669285" lon="-0.0613765">
        <ele>246.0</ele>
        <time>2018-06-10T08:39:03.014Z</time>
      </trkpt>
      <trkpt lat="38.76689117" lon="-0.06142083">
        <ele>247.0</ele>
        <time>2018-06-10T08:39:04.014Z</time>
      </trkpt>
      <trkpt lat="38.76685017" lon="-0.06145933">
        <ele>247.0</ele>
        <time>2018-06-10T08:39:05.014Z</time>
      </trkpt>
      <trkpt lat="38.76680883" lon="-0.06149517">
        <ele>247.0</ele>
        <time>2018-06-10T08:39:06.014Z</time>
      </trkpt>
      <trkpt lat="38.7667665" lon="-0.0615295">
        <ele>248.0</ele>
        <time>2018-06-10T08:39:07.014Z</time>
      </trkpt>
      <trkpt lat="38.76672417" lon="-0.06156417">
        <ele>248.0</ele>
        <time>2018-06-10T08:39:08.014Z</time>
      </trkpt>
      <trkpt lat="38.7666825" lon="-0.061598">
        <ele>249.0</ele>
        <time>2018-06-10T08:39:09.014Z</time>
      </trkpt>
      <trkpt lat="38.766641" lon="-0.06163133">
        <ele>250.0</ele>
        <time>2018-06-10T08:39:10.014Z</time>
      </trkpt>
      <trkpt lat="38.7666" lon="-0.061664">
        <ele>250.0</ele>
        <time>2018-06-10T08:39:11.014Z</time>
      </trkpt>
      <trkpt lat="38.76655933" lon="-0.06169467">
        <ele>251.0</ele>
        <time>2018-06-10T08:39:12.014Z</time>
      </trkpt>
      <trkpt lat="38.766518" lon="-0.06172433">
        <ele>251.0</ele>
        <time>2018-06-10T08:39:13.014Z</time>
      </trkpt>
      <trkpt lat="38.76647433" lon="-0.06175383">
        <ele>251.0</ele>
        <time>2018-06-10T08:39:14.014Z</time>
      </trkpt>
      <trkpt lat="38.7664285" lon="-0.061784">
        <ele>252.0</ele>
        <time>2018-06-10T08:39:15.014Z</time>
      </trkpt>
      <trkpt lat="38.76638217" lon="-0.06181417">
        <ele>252.0</ele>
        <time>2018-06-10T08:39:16.014Z</time>
      </trkpt>
      <trkpt lat="38.76633683" lon="-0.0618455">
        <ele>252.0</ele>
        <time>2018-06-10T08:39:17.014Z</time>
      </trkpt>
      <trkpt lat="38.76629233" lon="-0.06187817">
        <ele>253.0</ele>
        <time>2018-06-10T08:39:18.014Z</time>
      </trkpt>
      <trkpt lat="38.76624817" lon="-0.06191117">
        <ele>253.0</ele>
        <time>2018-06-10T08:39:19.014Z</time>
      </trkpt>
      <trkpt lat="38.76620383" lon="-0.06194267">
        <ele>253.0</ele>
        <time>2018-06-10T08:39:20.014Z</time>
      </trkpt>
      <trkpt lat="38.7661595" lon="-0.06197233">
        <ele>254.0</ele>
        <time>2018-06-10T08:39:21.014Z</time>
      </trkpt>
      <trkpt lat="38.76611567" lon="-0.0620015">
        <ele>254.0</ele>
        <time>2018-06-10T08:39:22.014Z</time>
      </trkpt>
      <trkpt lat="38.766073" lon="-0.06203083">
        <ele>254.0</ele>
        <time>2018-06-10T08:39:23.014Z</time>
      </trkpt>
      <trkpt lat="38.7660315" lon="-0.0620595">
        <ele>254.0</ele>
        <time>2018-06-10T08:39:24.014Z</time>
      </trkpt>
      <trkpt lat="38.76599033" lon="-0.0620875">
        <ele>255.0</ele>
        <time>2018-06-10T08:39:25.014Z</time>
      </trkpt>
      <trkpt lat="38.76595" lon="-0.06211383">
        <ele>255.0</ele>
        <time>2018-06-10T08:39:26.014Z</time>
      </trkpt>
      <trkpt lat="38.76591033" lon="-0.06214033">
        <ele>255.0</ele>
        <time>2018-06-10T08:39:27.014Z</time>
      </trkpt>
      <trkpt lat="38.765872" lon="-0.06216667">
        <ele>256.0</ele>
        <time>2018-06-10T08:39:28.014Z</time>
      </trkpt>
      <trkpt lat="38.7658345" lon="-0.06219417">
        <ele>256.0</ele>
        <time>2018-06-10T08:39:29.014Z</time>
      </trkpt>
      <trkpt lat="38.765798" lon="-0.06222233">
        <ele>256.0</ele>
        <time>2018-06-10T08:39:30.014Z</time>
      </trkpt>
      <trkpt lat="38.765762" lon="-0.06224967">
        <ele>256.0</ele>
        <time>2018-06-10T08:39:31.014Z</time>
      </trkpt>
      <trkpt lat="38.76572617" lon="-0.06227667">
        <ele>257.0</ele>
        <time>2018-06-10T08:39:32.014Z</time>
      </trkpt>
      <trkpt lat="38.76569067" lon="-0.06230267">
        <ele>257.0</ele>
        <time>2018-06-10T08:39:33.014Z</time>
      </trkpt>
      <trkpt lat="38.765655" lon="-0.062329">
        <ele>257.0</ele>
        <time>2018-06-10T08:39:34.014Z</time>
      </trkpt>
      <trkpt lat="38.76562" lon="-0.06235533">
        <ele>258.0</ele>
        <time>2018-06-10T08:39:35.014Z</time>
      </trkpt>
      <trkpt lat="38.76558517" lon="-0.06238167">
        <ele>258.0</ele>
        <time>2018-06-10T08:39:36.014Z</time>
      </trkpt>
      <trkpt lat="38.76555017" lon="-0.062408">
        <ele>258.0</ele>
        <time>2018-06-10T08:39:37.014Z</time>
      </trkpt>
      <trkpt lat="38.76551417" lon="-0.0624345">
        <ele>259.0</ele>
        <time>2018-06-10T08:39:38.014Z</time>
      </trkpt>
      <trkpt lat="38.76547733" lon="-0.062462">
        <ele>259.0</ele>
        <time>2018-06-10T08:39:39.014Z</time>
      </trkpt>
      <trkpt lat="38.76544033" lon="-0.06249067">
        <ele>259.0</ele>
        <time>2018-06-10T08:39:40.014Z</time>
      </trkpt>
      <trkpt lat="38.76540367" lon="-0.06251917">
        <ele>260.0</ele>
        <time>2018-06-10T08:39:41.014Z</time>
      </trkpt>
      <trkpt lat="38.76536683" lon="-0.062548">
        <ele>260.0</ele>
        <time>2018-06-10T08:39:42.014Z</time>
      </trkpt>
      <trkpt lat="38.76532983" lon="-0.062576">
        <ele>260.0</ele>
        <time>2018-06-10T08:39:43.014Z</time>
      </trkpt>
      <trkpt lat="38.76529333" lon="-0.0626035">
        <ele>260.0</ele>
        <time>2018-06-10T08:39:44.014Z</time>
      </trkpt>
      <trkpt lat="38.76525733" lon="-0.0626305">
        <ele>261.0</ele>
        <time>2018-06-10T08:39:45.014Z</time>
      </trkpt>
      <trkpt lat="38.765222" lon="-0.0626565">
        <ele>261.0</ele>
        <time>2018-06-10T08:39:46.014Z</time>
      </trkpt>
      <trkpt lat="38.76518717" lon="-0.0626815">
        <ele>261.0</ele>
        <time>2018-06-10T08:39:47.014Z</time>
      </trkpt>
      <trkpt lat="38.7651535" lon="-0.0627035">
        <ele>261.0</ele>
        <time>2018-06-10T08:39:48.014Z</time>
      </trkpt>
      <trkpt lat="38.76512333" lon="-0.06272217">
        <ele>262.0</ele>
        <time>2018-06-10T08:39:49.014Z</time>
      </trkpt>
      <trkpt lat="38.765094" lon="-0.06273833">
        <ele>262.0</ele>
        <time>2018-06-10T08:39:50.014Z</time>
      </trkpt>
      <trkpt lat="38.76506333" lon="-0.06275233">
        <ele>262.0</ele>
        <time>2018-06-10T08:39:51.014Z</time>
      </trkpt>
      <trkpt lat="38.76502833" lon="-0.06276467">
        <ele>262.0</ele>
        <time>2018-06-10T08:39:52.014Z</time>
      </trkpt>
      <trkpt lat="38.76499133" lon="-0.06277467">
        <ele>262.0</ele>
        <time>2018-06-10T08:39:53.014Z</time>
      </trkpt>
      <trkpt lat="38.76495367" lon="-0.06278317">
        <ele>261.0</ele>
        <time>2018-06-10T08:39:54.014Z</time>
      </trkpt>
      <trkpt lat="38.76491583" lon="-0.06279083">
        <ele>261.0</ele>
        <time>2018-06-10T08:39:55.014Z</time>
      </trkpt>
      <trkpt lat="38.7648755" lon="-0.06279667">
        <ele>261.0</ele>
        <time>2018-06-10T08:39:56.014Z</time>
      </trkpt>
      <trkpt lat="38.7648315" lon="-0.06280067">
        <ele>261.0</ele>
        <time>2018-06-10T08:39:57.014Z</time>
      </trkpt>
      <trkpt lat="38.76478433" lon="-0.062804">
        <ele>260.0</ele>
        <time>2018-06-10T08:39:58.014Z</time>
      </trkpt>
      <trkpt lat="38.76473783" lon="-0.06280767">
        <ele>260.0</ele>
        <time>2018-06-10T08:39:59.014Z</time>
      </trkpt>
      <trkpt lat="38.7646925" lon="-0.0628075">
        <ele>260.0</ele>
        <time>2018-06-10T08:40:00.014Z</time>
      </trkpt>
      <trkpt lat="38.76464733" lon="-0.06280417">
        <ele>260.0</ele>
        <time>2018-06-10T08:40:01.014Z</time>
      </trkpt>
      <trkpt lat="38.76460083" lon="-0.06279933">
        <ele>260.0</ele>
        <time>2018-06-10T08:40:02.014Z</time>
      </trkpt>
      <trkpt lat="38.76455517" lon="-0.06280167">
        <ele>259.0</ele>
        <time>2018-06-10T08:40:03.014Z</time>
      </trkpt>
      <trkpt lat="38.76451" lon="-0.06281483">
        <ele>258.0</ele>
        <time>2018-06-10T08:40:04.014Z</time>
      </trkpt>
      <trkpt lat="38.764467" lon="-0.06284267">
        <ele>258.0</ele>
        <time>2018-06-10T08:40:05.014Z</time>
      </trkpt>
      <trkpt lat="38.76442467" lon="-0.06287683">
        <ele>258.0</ele>
        <time>2018-06-10T08:40:06.014Z</time>
      </trkpt>
      <trkpt lat="38.76438133" lon="-0.06291167">
        <ele>258.0</ele>
        <time>2018-06-10T08:40:07.014Z</time>
      </trkpt>
      <trkpt lat="38.76433383" lon="-0.06293683">
        <ele>258.0</ele>
        <time>2018-06-10T08:40:08.014Z</time>
      </trkpt>
      <trkpt lat="38.7642825" lon="-0.06295567">
        <ele>257.0</ele>
        <time>2018-06-10T08:40:09.014Z</time>
      </trkpt>
      <trkpt lat="38.76423317" lon="-0.06295333">
        <ele>254.0</ele>
        <time>2018-06-10T08:40:10.014Z</time>
      </trkpt>
      <trkpt lat="38.76418933" lon="-0.06293567">
        <ele>252.0</ele>
        <time>2018-06-10T08:40:11.014Z</time>
      </trkpt>
      <trkpt lat="38.7641505" lon="-0.06290583">
        <ele>252.0</ele>
        <time>2018-06-10T08:40:12.014Z</time>
      </trkpt>
      <trkpt lat="38.76411483" lon="-0.06288">
        <ele>253.0</ele>
        <time>2018-06-10T08:40:13.014Z</time>
      </trkpt>
      <trkpt lat="38.76408083" lon="-0.062857">
        <ele>254.0</ele>
        <time>2018-06-10T08:40:14.014Z</time>
      </trkpt>
      <trkpt lat="38.7640505" lon="-0.06283617">
        <ele>254.0</ele>
        <time>2018-06-10T08:40:15.014Z</time>
      </trkpt>
      <trkpt lat="38.76402367" lon="-0.06281933">
        <ele>254.0</ele>
        <time>2018-06-10T08:40:16.014Z</time>
      </trkpt>
      <trkpt lat="38.76400383" lon="-0.062807">
        <ele>254.0</ele>
        <time>2018-06-10T08:40:17.014Z</time>
      </trkpt>
      <trkpt lat="38.76399283" lon="-0.06279933">
        <ele>254.0</ele>
        <time>2018-06-10T08:40:18.014Z</time>
      </trkpt>
      <trkpt lat="38.76395" lon="-0.06277433">
        <ele>258.0</ele>
        <time>2018-06-10T08:40:19.107Z</time>
      </trkpt>
      <trkpt lat="38.76393083" lon="-0.0627725">
        <ele>258.0</ele>
        <time>2018-06-10T08:40:20.107Z</time>
      </trkpt>
      <trkpt lat="38.76390817" lon="-0.0627745">
        <ele>258.0</ele>
        <time>2018-06-10T08:40:21.107Z</time>
      </trkpt>
      <trkpt lat="38.76388117" lon="-0.06277933">
        <ele>258.0</ele>
        <time>2018-06-10T08:40:22.107Z</time>
      </trkpt>
      <trkpt lat="38.76385017" lon="-0.06278733">
        <ele>258.0</ele>
        <time>2018-06-10T08:40:23.107Z</time>
      </trkpt>
      <trkpt lat="38.7638145" lon="-0.0627965">
        <ele>258.0</ele>
        <time>2018-06-10T08:40:24.107Z</time>
      </trkpt>
      <trkpt lat="38.76377517" lon="-0.0628095">
        <ele>258.0</ele>
        <time>2018-06-10T08:40:25.107Z</time>
      </trkpt>
      <trkpt lat="38.76373217" lon="-0.06282833">
        <ele>258.0</ele>
        <time>2018-06-10T08:40:26.107Z</time>
      </trkpt>
      <trkpt lat="38.76368817" lon="-0.06285767">
        <ele>257.0</ele>
        <time>2018-06-10T08:40:27.107Z</time>
      </trkpt>
      <trkpt lat="38.76364367" lon="-0.062897">
        <ele>257.0</ele>
        <time>2018-06-10T08:40:28.107Z</time>
      </trkpt>
      <trkpt lat="38.76359933" lon="-0.06294517">
        <ele>256.0</ele>
        <time>2018-06-10T08:40:29.107Z</time>
      </trkpt>
      <trkpt lat="38.763553" lon="-0.06299817">
        <ele>256.0</ele>
        <time>2018-06-10T08:40:30.107Z</time>
      </trkpt>
      <trkpt lat="38.763503" lon="-0.0630525">
        <ele>256.0</ele>
        <time>2018-06-10T08:40:31.107Z</time>
      </trkpt>
      <trkpt lat="38.7634465" lon="-0.063104">
        <ele>256.0</ele>
        <time>2018-06-10T08:40:32.107Z</time>
      </trkpt>
      <trkpt lat="38.763383" lon="-0.06314933">
        <ele>255.0</ele>
        <time>2018-06-10T08:40:33.107Z</time>
      </trkpt>
      <trkpt lat="38.76331317" lon="-0.06318667">
        <ele>255.0</ele>
        <time>2018-06-10T08:40:34.107Z</time>
      </trkpt>
      <trkpt lat="38.76323867" lon="-0.06321517">
        <ele>254.0</ele>
        <time>2018-06-10T08:40:35.107Z</time>
      </trkpt>
      <trkpt lat="38.76316067" lon="-0.063235">
        <ele>253.0</ele>
        <time>2018-06-10T08:40:36.107Z</time>
      </trkpt>
      <trkpt lat="38.76307967" lon="-0.06324883">
        <ele>252.0</ele>
        <time>2018-06-10T08:40:37.107Z</time>
      </trkpt>
      <trkpt lat="38.762996" lon="-0.06325967">
        <ele>252.0</ele>
        <time>2018-06-10T08:40:38.107Z</time>
      </trkpt>
      <trkpt lat="38.76291117" lon="-0.0632695">
        <ele>251.0</ele>
        <time>2018-06-10T08:40:39.107Z</time>
      </trkpt>
      <trkpt lat="38.7628255" lon="-0.06327767">
        <ele>251.0</ele>
        <time>2018-06-10T08:40:40.107Z</time>
      </trkpt>
      <trkpt lat="38.76273967" lon="-0.06328483">
        <ele>251.0</ele>
        <time>2018-06-10T08:40:41.107Z</time>
      </trkpt>
      <trkpt lat="38.76265333" lon="-0.063291">
        <ele>251.0</ele>
        <time>2018-06-10T08:40:42.107Z</time>
      </trkpt>
      <trkpt lat="38.76256733" lon="-0.06329567">
        <ele>250.0</ele>
        <time>2018-06-10T08:40:43.107Z</time>
      </trkpt>
      <trkpt lat="38.76248083" lon="-0.06329683">
        <ele>250.0</ele>
        <time>2018-06-10T08:40:44.107Z</time>
      </trkpt>
      <trkpt lat="38.762394" lon="-0.06329317">
        <ele>250.0</ele>
        <time>2018-06-10T08:40:45.107Z</time>
      </trkpt>
      <trkpt lat="38.7623065" lon="-0.063285">
        <ele>251.0</ele>
        <time>2018-06-10T08:40:46.107Z</time>
      </trkpt>
      <trkpt lat="38.762219" lon="-0.06327467">
        <ele>250.0</ele>
        <time>2018-06-10T08:40:47.107Z</time>
      </trkpt>
      <trkpt lat="38.76213133" lon="-0.06326467">
        <ele>250.0</ele>
        <time>2018-06-10T08:40:48.107Z</time>
      </trkpt>
      <trkpt lat="38.76204367" lon="-0.0632555">
        <ele>250.0</ele>
        <time>2018-06-10T08:40:49.107Z</time>
      </trkpt>
      <trkpt lat="38.76195533" lon="-0.06324583">
        <ele>250.0</ele>
        <time>2018-06-10T08:40:50.107Z</time>
      </trkpt>
      <trkpt lat="38.76186683" lon="-0.06323483">
        <ele>250.0</ele>
        <time>2018-06-10T08:40:51.107Z</time>
      </trkpt>
      <trkpt lat="38.76177867" lon="-0.063222">
        <ele>250.0</ele>
        <time>2018-06-10T08:40:52.107Z</time>
      </trkpt>
      <trkpt lat="38.7616915" lon="-0.06320917">
        <ele>249.0</ele>
        <time>2018-06-10T08:40:53.107Z</time>
      </trkpt>
      <trkpt lat="38.76160483" lon="-0.06319567">
        <ele>249.0</ele>
        <time>2018-06-10T08:40:54.107Z</time>
      </trkpt>
      <trkpt lat="38.76151917" lon="-0.06318233">
        <ele>249.0</ele>
        <time>2018-06-10T08:40:55.107Z</time>
      </trkpt>
      <trkpt lat="38.76143433" lon="-0.06316917">
        <ele>248.0</ele>
        <time>2018-06-10T08:40:56.107Z</time>
      </trkpt>
      <trkpt lat="38.76135067" lon="-0.06315683">
        <ele>248.0</ele>
        <time>2018-06-10T08:40:57.107Z</time>
      </trkpt>
      <trkpt lat="38.761268" lon="-0.06314467">
        <ele>248.0</ele>
        <time>2018-06-10T08:40:58.107Z</time>
      </trkpt>
      <trkpt lat="38.76118567" lon="-0.06313267">
        <ele>248.0</ele>
        <time>2018-06-10T08:40:59.107Z</time>
      </trkpt>
      <trkpt lat="38.7611035" lon="-0.06312083">
        <ele>248.0</ele>
        <time>2018-06-10T08:41:00.107Z</time>
      </trkpt>
      <trkpt lat="38.76102117" lon="-0.06310867">
        <ele>248.0</ele>
        <time>2018-06-10T08:41:01.107Z</time>
      </trkpt>
      <trkpt lat="38.7609385" lon="-0.06309667">
        <ele>248.0</ele>
        <time>2018-06-10T08:41:02.107Z</time>
      </trkpt>
      <trkpt lat="38.76085683" lon="-0.063082">
        <ele>248.0</ele>
        <time>2018-06-10T08:41:03.107Z</time>
      </trkpt>
      <trkpt lat="38.760776" lon="-0.06306283">
        <ele>248.0</ele>
        <time>2018-06-10T08:41:04.107Z</time>
      </trkpt>
      <trkpt lat="38.760696" lon="-0.06303883">
        <ele>247.0</ele>
        <time>2018-06-10T08:41:05.107Z</time>
      </trkpt>
      <trkpt lat="38.76061617" lon="-0.06301133">
        <ele>247.0</ele>
        <time>2018-06-10T08:41:06.107Z</time>
      </trkpt>
      <trkpt lat="38.76053717" lon="-0.06298217">
        <ele>247.0</ele>
        <time>2018-06-10T08:41:07.107Z</time>
      </trkpt>
      <trkpt lat="38.76046" lon="-0.06295033">
        <ele>247.0</ele>
        <time>2018-06-10T08:41:08.107Z</time>
      </trkpt>
      <trkpt lat="38.76038417" lon="-0.062918">
        <ele>247.0</ele>
        <time>2018-06-10T08:41:09.107Z</time>
      </trkpt>
      <trkpt lat="38.760309" lon="-0.06288567">
        <ele>247.0</ele>
        <time>2018-06-10T08:41:10.107Z</time>
      </trkpt>
      <trkpt lat="38.76023333" lon="-0.062853">
        <ele>247.0</ele>
        <time>2018-06-10T08:41:11.107Z</time>
      </trkpt>
      <trkpt lat="38.76015617" lon="-0.0628195">
        <ele>247.0</ele>
        <time>2018-06-10T08:41:12.107Z</time>
      </trkpt>
      <trkpt lat="38.760078" lon="-0.0627855">
        <ele>247.0</ele>
        <time>2018-06-10T08:41:13.107Z</time>
      </trkpt>
      <trkpt lat="38.75999867" lon="-0.06275167">
        <ele>247.0</ele>
        <time>2018-06-10T08:41:14.107Z</time>
      </trkpt>
      <trkpt lat="38.75991867" lon="-0.06271767">
        <ele>247.0</ele>
        <time>2018-06-10T08:41:15.107Z</time>
      </trkpt>
      <trkpt lat="38.759838" lon="-0.06268283">
        <ele>246.0</ele>
        <time>2018-06-10T08:41:16.107Z</time>
      </trkpt>
      <trkpt lat="38.75975683" lon="-0.06264817">
        <ele>246.0</ele>
        <time>2018-06-10T08:41:17.107Z</time>
      </trkpt>
      <trkpt lat="38.75967483" lon="-0.0626135">
        <ele>246.0</ele>
        <time>2018-06-10T08:41:18.107Z</time>
      </trkpt>
      <trkpt lat="38.75959183" lon="-0.062579">
        <ele>246.0</ele>
        <time>2018-06-10T08:41:19.107Z</time>
      </trkpt>
      <trkpt lat="38.75950783" lon="-0.0625435">
        <ele>246.0</ele>
        <time>2018-06-10T08:41:20.107Z</time>
      </trkpt>
      <trkpt lat="38.75942317" lon="-0.06250767">
        <ele>246.0</ele>
        <time>2018-06-10T08:41:21.107Z</time>
      </trkpt>
      <trkpt lat="38.75933783" lon="-0.06247217">
        <ele>246.0</ele>
        <time>2018-06-10T08:41:22.107Z</time>
      </trkpt>
      <trkpt lat="38.75925217" lon="-0.06243717">
        <ele>246.0</ele>
        <time>2018-06-10T08:41:23.107Z</time>
      </trkpt>
      <trkpt lat="38.75916667" lon="-0.0624015">
        <ele>246.0</ele>
        <time>2018-06-10T08:41:24.107Z</time>
      </trkpt>
      <trkpt lat="38.75908167" lon="-0.06236483">
        <ele>245.0</ele>
        <time>2018-06-10T08:41:25.107Z</time>
      </trkpt>
      <trkpt lat="38.75899733" lon="-0.06232767">
        <ele>245.0</ele>
        <time>2018-06-10T08:41:26.107Z</time>
      </trkpt>
      <trkpt lat="38.7589135" lon="-0.06229117">
        <ele>245.0</ele>
        <time>2018-06-10T08:41:27.107Z</time>
      </trkpt>
      <trkpt lat="38.7588305" lon="-0.062256">
        <ele>245.0</ele>
        <time>2018-06-10T08:41:28.107Z</time>
      </trkpt>
      <trkpt lat="38.75874817" lon="-0.06222117">
        <ele>245.0</ele>
        <time>2018-06-10T08:41:29.107Z</time>
      </trkpt>
      <trkpt lat="38.75866617" lon="-0.062187">
        <ele>245.0</ele>
        <time>2018-06-10T08:41:30.107Z</time>
      </trkpt>
      <trkpt lat="38.75858383" lon="-0.0621525">
        <ele>245.0</ele>
        <time>2018-06-10T08:41:31.107Z</time>
      </trkpt>
      <trkpt lat="38.75850083" lon="-0.06211783">
        <ele>244.0</ele>
        <time>2018-06-10T08:41:32.107Z</time>
      </trkpt>
      <trkpt lat="38.75841767" lon="-0.06208283">
        <ele>244.0</ele>
        <time>2018-06-10T08:41:33.107Z</time>
      </trkpt>
      <trkpt lat="38.75833417" lon="-0.062048">
        <ele>245.0</ele>
        <time>2018-06-10T08:41:34.107Z</time>
      </trkpt>
      <trkpt lat="38.758251" lon="-0.062013">
        <ele>245.0</ele>
        <time>2018-06-10T08:41:35.107Z</time>
      </trkpt>
      <trkpt lat="38.7581685" lon="-0.06197717">
        <ele>245.0</ele>
        <time>2018-06-10T08:41:36.107Z</time>
      </trkpt>
      <trkpt lat="38.75808633" lon="-0.061942">
        <ele>245.0</ele>
        <time>2018-06-10T08:41:37.107Z</time>
      </trkpt>
      <trkpt lat="38.758004" lon="-0.06190833">
        <ele>245.0</ele>
        <time>2018-06-10T08:41:38.107Z</time>
      </trkpt>
      <trkpt lat="38.7579215" lon="-0.06187517">
        <ele>245.0</ele>
        <time>2018-06-10T08:41:39.107Z</time>
      </trkpt>
      <trkpt lat="38.75783917" lon="-0.0618415">
        <ele>244.0</ele>
        <time>2018-06-10T08:41:40.107Z</time>
      </trkpt>
      <trkpt lat="38.75775683" lon="-0.06180733">
        <ele>245.0</ele>
        <time>2018-06-10T08:41:41.107Z</time>
      </trkpt>
      <trkpt lat="38.7576745" lon="-0.06177417">
        <ele>245.0</ele>
        <time>2018-06-10T08:41:42.107Z</time>
      </trkpt>
      <trkpt lat="38.75759283" lon="-0.06174017">
        <ele>245.0</ele>
        <time>2018-06-10T08:41:43.107Z</time>
      </trkpt>
      <trkpt lat="38.75751133" lon="-0.06170517">
        <ele>244.0</ele>
        <time>2018-06-10T08:41:44.107Z</time>
      </trkpt>
      <trkpt lat="38.75743" lon="-0.06166933">
        <ele>244.0</ele>
        <time>2018-06-10T08:41:45.107Z</time>
      </trkpt>
      <trkpt lat="38.75734817" lon="-0.06163467">
        <ele>244.0</ele>
        <time>2018-06-10T08:41:46.107Z</time>
      </trkpt>
      <trkpt lat="38.75726617" lon="-0.06160067">
        <ele>243.0</ele>
        <time>2018-06-10T08:41:47.107Z</time>
      </trkpt>
      <trkpt lat="38.75718433" lon="-0.06156617">
        <ele>243.0</ele>
        <time>2018-06-10T08:41:48.107Z</time>
      </trkpt>
      <trkpt lat="38.7571025" lon="-0.0615315">
        <ele>243.0</ele>
        <time>2018-06-10T08:41:49.107Z</time>
      </trkpt>
      <trkpt lat="38.757021" lon="-0.06149717">
        <ele>243.0</ele>
        <time>2018-06-10T08:41:50.107Z</time>
      </trkpt>
      <trkpt lat="38.75693967" lon="-0.06146367">
        <ele>243.0</ele>
        <time>2018-06-10T08:41:51.107Z</time>
      </trkpt>
      <trkpt lat="38.756859" lon="-0.06143033">
        <ele>243.0</ele>
        <time>2018-06-10T08:41:52.107Z</time>
      </trkpt>
      <trkpt lat="38.7567785" lon="-0.0613975">
        <ele>242.0</ele>
        <time>2018-06-10T08:41:53.107Z</time>
      </trkpt>
      <trkpt lat="38.75669733" lon="-0.06136483">
        <ele>242.0</ele>
        <time>2018-06-10T08:41:54.107Z</time>
      </trkpt>
      <trkpt lat="38.75661533" lon="-0.06133317">
        <ele>242.0</ele>
        <time>2018-06-10T08:41:55.107Z</time>
      </trkpt>
      <trkpt lat="38.75653217" lon="-0.06130167">
        <ele>242.0</ele>
        <time>2018-06-10T08:41:56.107Z</time>
      </trkpt>
      <trkpt lat="38.75644833" lon="-0.06127017">
        <ele>242.0</ele>
        <time>2018-06-10T08:41:57.107Z</time>
      </trkpt>
      <trkpt lat="38.75636233" lon="-0.06124217">
        <ele>240.0</ele>
        <time>2018-06-10T08:41:58.107Z</time>
      </trkpt>
      <trkpt lat="38.756273" lon="-0.06122483">
        <ele>239.0</ele>
        <time>2018-06-10T08:41:59.107Z</time>
      </trkpt>
      <trkpt lat="38.75618033" lon="-0.06122533">
        <ele>239.0</ele>
        <time>2018-06-10T08:42:00.107Z</time>
      </trkpt>
      <trkpt lat="38.756086" lon="-0.06124617">
        <ele>238.0</ele>
        <time>2018-06-10T08:42:01.107Z</time>
      </trkpt>
      <trkpt lat="38.75599217" lon="-0.0612845">
        <ele>237.0</ele>
        <time>2018-06-10T08:42:02.107Z</time>
      </trkpt>
      <trkpt lat="38.75589933" lon="-0.061334">
        <ele>237.0</ele>
        <time>2018-06-10T08:42:03.107Z</time>
      </trkpt>
      <trkpt lat="38.75580633" lon="-0.061388">
        <ele>237.0</ele>
        <time>2018-06-10T08:42:04.107Z</time>
      </trkpt>
      <trkpt lat="38.75571333" lon="-0.06144417">
        <ele>236.0</ele>
        <time>2018-06-10T08:42:05.107Z</time>
      </trkpt>
      <trkpt lat="38.75562083" lon="-0.0615">
        <ele>237.0</ele>
        <time>2018-06-10T08:42:06.107Z</time>
      </trkpt>
      <trkpt lat="38.75552967" lon="-0.06155583">
        <ele>237.0</ele>
        <time>2018-06-10T08:42:07.107Z</time>
      </trkpt>
      <trkpt lat="38.75544067" lon="-0.06160933">
        <ele>237.0</ele>
        <time>2018-06-10T08:42:08.107Z</time>
      </trkpt>
      <trkpt lat="38.75535433" lon="-0.0616635">
        <ele>237.0</ele>
        <time>2018-06-10T08:42:09.107Z</time>
      </trkpt>
      <trkpt lat="38.75527067" lon="-0.061718">
        <ele>237.0</ele>
        <time>2018-06-10T08:42:10.107Z</time>
      </trkpt>
      <trkpt lat="38.7551885" lon="-0.0617735">
        <ele>237.0</ele>
        <time>2018-06-10T08:42:11.107Z</time>
      </trkpt>
      <trkpt lat="38.75510783" lon="-0.06182867">
        <ele>237.0</ele>
        <time>2018-06-10T08:42:12.107Z</time>
      </trkpt>
      <trkpt lat="38.75502883" lon="-0.06188617">
        <ele>237.0</ele>
        <time>2018-06-10T08:42:13.107Z</time>
      </trkpt>
      <trkpt lat="38.75495317" lon="-0.06194833">
        <ele>237.0</ele>
        <time>2018-06-10T08:42:14.107Z</time>
      </trkpt>
      <trkpt lat="38.75488283" lon="-0.0620195">
        <ele>237.0</ele>
        <time>2018-06-10T08:42:15.107Z</time>
      </trkpt>
      <trkpt lat="38.75481967" lon="-0.06210033">
        <ele>237.0</ele>
        <time>2018-06-10T08:42:16.107Z</time>
      </trkpt>
      <trkpt lat="38.754764" lon="-0.06218883">
        <ele>236.0</ele>
        <time>2018-06-10T08:42:17.107Z</time>
      </trkpt>
      <trkpt lat="38.75471533" lon="-0.06228133">
        <ele>237.0</ele>
        <time>2018-06-10T08:42:18.107Z</time>
      </trkpt>
      <trkpt lat="38.75467083" lon="-0.06237383">
        <ele>237.0</ele>
        <time>2018-06-10T08:42:19.107Z</time>
      </trkpt>
      <trkpt lat="38.7546295" lon="-0.0624655">
        <ele>238.0</ele>
        <time>2018-06-10T08:42:20.107Z</time>
      </trkpt>
      <trkpt lat="38.7545895" lon="-0.0625555">
        <ele>238.0</ele>
        <time>2018-06-10T08:42:21.107Z</time>
      </trkpt>
      <trkpt lat="38.75455083" lon="-0.06264367">
        <ele>238.0</ele>
        <time>2018-06-10T08:42:22.107Z</time>
      </trkpt>
      <trkpt lat="38.75451317" lon="-0.06273017">
        <ele>238.0</ele>
        <time>2018-06-10T08:42:23.107Z</time>
      </trkpt>
      <trkpt lat="38.754477" lon="-0.06281567">
        <ele>238.0</ele>
        <time>2018-06-10T08:42:24.107Z</time>
      </trkpt>
      <trkpt lat="38.7544415" lon="-0.0628995">
        <ele>239.0</ele>
        <time>2018-06-10T08:42:25.107Z</time>
      </trkpt>
      <trkpt lat="38.7544065" lon="-0.06298117">
        <ele>239.0</ele>
        <time>2018-06-10T08:42:26.107Z</time>
      </trkpt>
      <trkpt lat="38.75437183" lon="-0.063061">
        <ele>240.0</ele>
        <time>2018-06-10T08:42:27.107Z</time>
      </trkpt>
      <trkpt lat="38.75433867" lon="-0.06314033">
        <ele>240.0</ele>
        <time>2018-06-10T08:42:28.107Z</time>
      </trkpt>
      <trkpt lat="38.754308" lon="-0.06322">
        <ele>240.0</ele>
        <time>2018-06-10T08:42:29.107Z</time>
      </trkpt>
      <trkpt lat="38.754279" lon="-0.06329917">
        <ele>240.0</ele>
        <time>2018-06-10T08:42:30.107Z</time>
      </trkpt>
      <trkpt lat="38.75424967" lon="-0.06337667">
        <ele>240.0</ele>
        <time>2018-06-10T08:42:31.107Z</time>
      </trkpt>
      <trkpt lat="38.75421917" lon="-0.063452">
        <ele>241.0</ele>
        <time>2018-06-10T08:42:32.107Z</time>
      </trkpt>
      <trkpt lat="38.75418867" lon="-0.06352567">
        <ele>241.0</ele>
        <time>2018-06-10T08:42:33.107Z</time>
      </trkpt>
      <trkpt lat="38.75415867" lon="-0.063598">
        <ele>241.0</ele>
        <time>2018-06-10T08:42:34.107Z</time>
      </trkpt>
      <trkpt lat="38.75412933" lon="-0.06366933">
        <ele>241.0</ele>
        <time>2018-06-10T08:42:35.107Z</time>
      </trkpt>
      <trkpt lat="38.75410067" lon="-0.0637395">
        <ele>241.0</ele>
        <time>2018-06-10T08:42:36.107Z</time>
      </trkpt>
      <trkpt lat="38.75407217" lon="-0.06380817">
        <ele>242.0</ele>
        <time>2018-06-10T08:42:37.107Z</time>
      </trkpt>
      <trkpt lat="38.75404333" lon="-0.06387567">
        <ele>242.0</ele>
        <time>2018-06-10T08:42:38.107Z</time>
      </trkpt>
      <trkpt lat="38.75401383" lon="-0.06394117">
        <ele>242.0</ele>
        <time>2018-06-10T08:42:39.107Z</time>
      </trkpt>
      <trkpt lat="38.75398217" lon="-0.064004">
        <ele>242.0</ele>
        <time>2018-06-10T08:42:40.107Z</time>
      </trkpt>
      <trkpt lat="38.75394733" lon="-0.06406283">
        <ele>242.0</ele>
        <time>2018-06-10T08:42:41.107Z</time>
      </trkpt>
      <trkpt lat="38.75390767" lon="-0.06411533">
        <ele>242.0</ele>
        <time>2018-06-10T08:42:42.107Z</time>
      </trkpt>
      <trkpt lat="38.75386267" lon="-0.0641575">
        <ele>242.0</ele>
        <time>2018-06-10T08:42:43.107Z</time>
      </trkpt>
      <trkpt lat="38.75381183" lon="-0.06418433">
        <ele>243.0</ele>
        <time>2018-06-10T08:42:44.107Z</time>
      </trkpt>
      <trkpt lat="38.75375817" lon="-0.064196">
        <ele>243.0</ele>
        <time>2018-06-10T08:42:45.107Z</time>
      </trkpt>
      <trkpt lat="38.75370267" lon="-0.06419417">
        <ele>243.0</ele>
        <time>2018-06-10T08:42:46.107Z</time>
      </trkpt>
      <trkpt lat="38.75364767" lon="-0.0641855">
        <ele>244.0</ele>
        <time>2018-06-10T08:42:47.107Z</time>
      </trkpt>
      <trkpt lat="38.75359267" lon="-0.06417133">
        <ele>244.0</ele>
        <time>2018-06-10T08:42:48.107Z</time>
      </trkpt>
      <trkpt lat="38.75353833" lon="-0.064156">
        <ele>244.0</ele>
        <time>2018-06-10T08:42:49.107Z</time>
      </trkpt>
      <trkpt lat="38.75348483" lon="-0.06413867">
        <ele>244.0</ele>
        <time>2018-06-10T08:42:50.107Z</time>
      </trkpt>
      <trkpt lat="38.75343183" lon="-0.06412133">
        <ele>244.0</ele>
        <time>2018-06-10T08:42:51.107Z</time>
      </trkpt>
      <trkpt lat="38.75337867" lon="-0.06410383">
        <ele>245.0</ele>
        <time>2018-06-10T08:42:52.107Z</time>
      </trkpt>
      <trkpt lat="38.75332617" lon="-0.06408617">
        <ele>245.0</ele>
        <time>2018-06-10T08:42:53.107Z</time>
      </trkpt>
      <trkpt lat="38.75327333" lon="-0.0640675">
        <ele>245.0</ele>
        <time>2018-06-10T08:42:54.107Z</time>
      </trkpt>
      <trkpt lat="38.75321883" lon="-0.06404717">
        <ele>245.0</ele>
        <time>2018-06-10T08:42:55.107Z</time>
      </trkpt>
      <trkpt lat="38.753161" lon="-0.064022">
        <ele>245.0</ele>
        <time>2018-06-10T08:42:56.107Z</time>
      </trkpt>
      <trkpt lat="38.75310233" lon="-0.06398933">
        <ele>246.0</ele>
        <time>2018-06-10T08:42:57.107Z</time>
      </trkpt>
      <trkpt lat="38.75304617" lon="-0.06394617">
        <ele>246.0</ele>
        <time>2018-06-10T08:42:58.107Z</time>
      </trkpt>
      <trkpt lat="38.7529945" lon="-0.06389433">
        <ele>247.0</ele>
        <time>2018-06-10T08:42:59.107Z</time>
      </trkpt>
      <trkpt lat="38.75294717" lon="-0.06383483">
        <ele>248.0</ele>
        <time>2018-06-10T08:43:00.107Z</time>
      </trkpt>
      <trkpt lat="38.75290383" lon="-0.06377133">
        <ele>248.0</ele>
        <time>2018-06-10T08:43:01.107Z</time>
      </trkpt>
      <trkpt lat="38.7528655" lon="-0.0637065">
        <ele>248.0</ele>
        <time>2018-06-10T08:43:02.107Z</time>
      </trkpt>
      <trkpt lat="38.75282967" lon="-0.06364367">
        <ele>248.0</ele>
        <time>2018-06-10T08:43:03.107Z</time>
      </trkpt>
      <trkpt lat="38.752794" lon="-0.063584">
        <ele>249.0</ele>
        <time>2018-06-10T08:43:04.107Z</time>
      </trkpt>
      <trkpt lat="38.75275583" lon="-0.0635275">
        <ele>249.0</ele>
        <time>2018-06-10T08:43:05.107Z</time>
      </trkpt>
      <trkpt lat="38.75271683" lon="-0.06347283">
        <ele>249.0</ele>
        <time>2018-06-10T08:43:06.107Z</time>
      </trkpt>
      <trkpt lat="38.75267817" lon="-0.06342083">
        <ele>250.0</ele>
        <time>2018-06-10T08:43:07.107Z</time>
      </trkpt>
      <trkpt lat="38.75264133" lon="-0.06337067">
        <ele>250.0</ele>
        <time>2018-06-10T08:43:08.107Z</time>
      </trkpt>
      <trkpt lat="38.752606" lon="-0.06332267">
        <ele>250.0</ele>
        <time>2018-06-10T08:43:09.107Z</time>
      </trkpt>
      <trkpt lat="38.75257217" lon="-0.06327533">
        <ele>250.0</ele>
        <time>2018-06-10T08:43:10.107Z</time>
      </trkpt>
      <trkpt lat="38.7525405" lon="-0.06322817">
        <ele>251.0</ele>
        <time>2018-06-10T08:43:11.107Z</time>
      </trkpt>
      <trkpt lat="38.75251217" lon="-0.06318067">
        <ele>251.0</ele>
        <time>2018-06-10T08:43:12.107Z</time>
      </trkpt>
      <trkpt lat="38.7524875" lon="-0.06313133">
        <ele>251.0</ele>
        <time>2018-06-10T08:43:13.107Z</time>
      </trkpt>
      <trkpt lat="38.75246667" lon="-0.06308">
        <ele>251.0</ele>
        <time>2018-06-10T08:43:14.107Z</time>
      </trkpt>
      <trkpt lat="38.75244917" lon="-0.06302683">
        <ele>251.0</ele>
        <time>2018-06-10T08:43:15.107Z</time>
      </trkpt>
      <trkpt lat="38.75243367" lon="-0.062974">
        <ele>252.0</ele>
        <time>2018-06-10T08:43:16.107Z</time>
      </trkpt>
      <trkpt lat="38.752419" lon="-0.06292117">
        <ele>252.0</ele>
        <time>2018-06-10T08:43:17.107Z</time>
      </trkpt>
      <trkpt lat="38.7524035" lon="-0.06286917">
        <ele>252.0</ele>
        <time>2018-06-10T08:43:18.107Z</time>
      </trkpt>
      <trkpt lat="38.752388" lon="-0.06281767">
        <ele>253.0</ele>
        <time>2018-06-10T08:43:19.107Z</time>
      </trkpt>
      <trkpt lat="38.75236983" lon="-0.06276783">
        <ele>253.0</ele>
        <time>2018-06-10T08:43:20.107Z</time>
      </trkpt>
      <trkpt lat="38.75234783" lon="-0.06271983">
        <ele>253.0</ele>
        <time>2018-06-10T08:43:21.107Z</time>
      </trkpt>
      <trkpt lat="38.75231983" lon="-0.06267517">
        <ele>253.0</ele>
        <time>2018-06-10T08:43:22.107Z</time>
      </trkpt>
      <trkpt lat="38.75228567" lon="-0.06263567">
        <ele>253.0</ele>
        <time>2018-06-10T08:43:23.107Z</time>
      </trkpt>
      <trkpt lat="38.75224483" lon="-0.06260583">
        <ele>253.0</ele>
        <time>2018-06-10T08:43:24.107Z</time>
      </trkpt>
      <trkpt lat="38.75219917" lon="-0.0625915">
        <ele>254.0</ele>
        <time>2018-06-10T08:43:25.107Z</time>
      </trkpt>
      <trkpt lat="38.7521515" lon="-0.06259533">
        <ele>255.0</ele>
        <time>2018-06-10T08:43:26.107Z</time>
      </trkpt>
      <trkpt lat="38.75210683" lon="-0.06261667">
        <ele>255.0</ele>
        <time>2018-06-10T08:43:27.107Z</time>
      </trkpt>
      <trkpt lat="38.75206567" lon="-0.0626485">
        <ele>255.0</ele>
        <time>2018-06-10T08:43:28.107Z</time>
      </trkpt>
      <trkpt lat="38.75202667" lon="-0.062684">
        <ele>256.0</ele>
        <time>2018-06-10T08:43:29.107Z</time>
      </trkpt>
      <trkpt lat="38.75198683" lon="-0.06271883">
        <ele>256.0</ele>
        <time>2018-06-10T08:43:30.107Z</time>
      </trkpt>
      <trkpt lat="38.75194617" lon="-0.0627535">
        <ele>256.0</ele>
        <time>2018-06-10T08:43:31.107Z</time>
      </trkpt>
      <trkpt lat="38.751905" lon="-0.06278867">
        <ele>256.0</ele>
        <time>2018-06-10T08:43:32.107Z</time>
      </trkpt>
      <trkpt lat="38.75186317" lon="-0.06282433">
        <ele>256.0</ele>
        <time>2018-06-10T08:43:33.107Z</time>
      </trkpt>
      <trkpt lat="38.7518215" lon="-0.06285933">
        <ele>257.0</ele>
        <time>2018-06-10T08:43:34.107Z</time>
      </trkpt>
      <trkpt lat="38.75178" lon="-0.06289383">
        <ele>257.0</ele>
        <time>2018-06-10T08:43:35.107Z</time>
      </trkpt>
      <trkpt lat="38.75173933" lon="-0.06292867">
        <ele>257.0</ele>
        <time>2018-06-10T08:43:36.107Z</time>
      </trkpt>
      <trkpt lat="38.751699" lon="-0.06296433">
        <ele>258.0</ele>
        <time>2018-06-10T08:43:37.107Z</time>
      </trkpt>
      <trkpt lat="38.75165883" lon="-0.06299983">
        <ele>258.0</ele>
        <time>2018-06-10T08:43:38.107Z</time>
      </trkpt>
      <trkpt lat="38.75161867" lon="-0.06303533">
        <ele>258.0</ele>
        <time>2018-06-10T08:43:39.107Z</time>
      </trkpt>
      <trkpt lat="38.751579" lon="-0.06307">
        <ele>258.0</ele>
        <time>2018-06-10T08:43:40.107Z</time>
      </trkpt>
      <trkpt lat="38.75153967" lon="-0.06310433">
        <ele>258.0</ele>
        <time>2018-06-10T08:43:41.107Z</time>
      </trkpt>
      <trkpt lat="38.75150067" lon="-0.06313733">
        <ele>258.0</ele>
        <time>2018-06-10T08:43:42.107Z</time>
      </trkpt>
      <trkpt lat="38.75146133" lon="-0.06316917">
        <ele>258.0</ele>
        <time>2018-06-10T08:43:43.107Z</time>
      </trkpt>
      <trkpt lat="38.75142183" lon="-0.063201">
        <ele>258.0</ele>
        <time>2018-06-10T08:43:44.107Z</time>
      </trkpt>
      <trkpt lat="38.751383" lon="-0.06323483">
        <ele>258.0</ele>
        <time>2018-06-10T08:43:45.107Z</time>
      </trkpt>
      <trkpt lat="38.751344" lon="-0.0632705">
        <ele>258.0</ele>
        <time>2018-06-10T08:43:46.107Z</time>
      </trkpt>
      <trkpt lat="38.75130383" lon="-0.0633075">
        <ele>258.0</ele>
        <time>2018-06-10T08:43:47.107Z</time>
      </trkpt>
      <trkpt lat="38.7512615" lon="-0.06334483">
        <ele>259.0</ele>
        <time>2018-06-10T08:43:48.107Z</time>
      </trkpt>
      <trkpt lat="38.75121767" lon="-0.06338383">
        <ele>259.0</ele>
        <time>2018-06-10T08:43:49.107Z</time>
      </trkpt>
      <trkpt lat="38.75117233" lon="-0.06342417">
        <ele>259.0</ele>
        <time>2018-06-10T08:43:50.107Z</time>
      </trkpt>
      <trkpt lat="38.75112567" lon="-0.06346617">
        <ele>259.0</ele>
        <time>2018-06-10T08:43:51.107Z</time>
      </trkpt>
      <trkpt lat="38.7510775" lon="-0.06350883">
        <ele>259.0</ele>
        <time>2018-06-10T08:43:52.107Z</time>
      </trkpt>
      <trkpt lat="38.75102833" lon="-0.06355317">
        <ele>258.0</ele>
        <time>2018-06-10T08:43:53.107Z</time>
      </trkpt>
      <trkpt lat="38.750978" lon="-0.06359833">
        <ele>258.0</ele>
        <time>2018-06-10T08:43:54.107Z</time>
      </trkpt>
      <trkpt lat="38.75092633" lon="-0.0636445">
        <ele>258.0</ele>
        <time>2018-06-10T08:43:55.107Z</time>
      </trkpt>
      <trkpt lat="38.750874" lon="-0.06369133">
        <ele>258.0</ele>
        <time>2018-06-10T08:43:56.107Z</time>
      </trkpt>
      <trkpt lat="38.750821" lon="-0.06373933">
        <ele>258.0</ele>
        <time>2018-06-10T08:43:57.107Z</time>
      </trkpt>
      <trkpt lat="38.750768" lon="-0.063788">
        <ele>258.0</ele>
        <time>2018-06-10T08:43:58.107Z</time>
      </trkpt>
      <trkpt lat="38.75071483" lon="-0.06383667">
        <ele>258.0</ele>
        <time>2018-06-10T08:43:59.107Z</time>
      </trkpt>
      <trkpt lat="38.75066133" lon="-0.063884">
        <ele>258.0</ele>
        <time>2018-06-10T08:44:00.107Z</time>
      </trkpt>
      <trkpt lat="38.7506075" lon="-0.06393133">
        <ele>258.0</ele>
        <time>2018-06-10T08:44:01.107Z</time>
      </trkpt>
      <trkpt lat="38.750553" lon="-0.06397917">
        <ele>258.0</ele>
        <time>2018-06-10T08:44:02.107Z</time>
      </trkpt>
      <trkpt lat="38.75049817" lon="-0.06402817">
        <ele>258.0</ele>
        <time>2018-06-10T08:44:03.107Z</time>
      </trkpt>
      <trkpt lat="38.75044267" lon="-0.06407733">
        <ele>258.0</ele>
        <time>2018-06-10T08:44:04.107Z</time>
      </trkpt>
      <trkpt lat="38.750387" lon="-0.06412667">
        <ele>258.0</ele>
        <time>2018-06-10T08:44:05.107Z</time>
      </trkpt>
      <trkpt lat="38.75033183" lon="-0.06417617">
        <ele>258.0</ele>
        <time>2018-06-10T08:44:06.107Z</time>
      </trkpt>
      <trkpt lat="38.75027717" lon="-0.06422617">
        <ele>258.0</ele>
        <time>2018-06-10T08:44:07.107Z</time>
      </trkpt>
      <trkpt lat="38.75022233" lon="-0.06427583">
        <ele>258.0</ele>
        <time>2018-06-10T08:44:08.107Z</time>
      </trkpt>
      <trkpt lat="38.75016733" lon="-0.06432467">
        <ele>258.0</ele>
        <time>2018-06-10T08:44:09.107Z</time>
      </trkpt>
      <trkpt lat="38.7501125" lon="-0.0643725">
        <ele>259.0</ele>
        <time>2018-06-10T08:44:10.107Z</time>
      </trkpt>
      <trkpt lat="38.75005883" lon="-0.06442017">
        <ele>259.0</ele>
        <time>2018-06-10T08:44:11.107Z</time>
      </trkpt>
      <trkpt lat="38.75000667" lon="-0.06446783">
        <ele>259.0</ele>
        <time>2018-06-10T08:44:12.107Z</time>
      </trkpt>
      <trkpt lat="38.7499555" lon="-0.06451533">
        <ele>259.0</ele>
        <time>2018-06-10T08:44:13.107Z</time>
      </trkpt>
      <trkpt lat="38.74990517" lon="-0.064561">
        <ele>259.0</ele>
        <time>2018-06-10T08:44:14.107Z</time>
      </trkpt>
      <trkpt lat="38.74985617" lon="-0.064605">
        <ele>259.0</ele>
        <time>2018-06-10T08:44:15.107Z</time>
      </trkpt>
      <trkpt lat="38.7498085" lon="-0.0646475">
        <ele>260.0</ele>
        <time>2018-06-10T08:44:16.107Z</time>
      </trkpt>
      <trkpt lat="38.749762" lon="-0.064689">
        <ele>260.0</ele>
        <time>2018-06-10T08:44:17.107Z</time>
      </trkpt>
      <trkpt lat="38.74971617" lon="-0.06472983">
        <ele>261.0</ele>
        <time>2018-06-10T08:44:18.107Z</time>
      </trkpt>
      <trkpt lat="38.74967017" lon="-0.06477">
        <ele>261.0</ele>
        <time>2018-06-10T08:44:19.107Z</time>
      </trkpt>
      <trkpt lat="38.7496245" lon="-0.06480983">
        <ele>261.0</ele>
        <time>2018-06-10T08:44:20.107Z</time>
      </trkpt>
      <trkpt lat="38.74957933" lon="-0.0648505">
        <ele>261.0</ele>
        <time>2018-06-10T08:44:21.107Z</time>
      </trkpt>
      <trkpt lat="38.7495345" lon="-0.06489117">
        <ele>261.0</ele>
        <time>2018-06-10T08:44:22.107Z</time>
      </trkpt>
      <trkpt lat="38.7494895" lon="-0.06493183">
        <ele>262.0</ele>
        <time>2018-06-10T08:44:23.107Z</time>
      </trkpt>
      <trkpt lat="38.74944433" lon="-0.06497167">
        <ele>262.0</ele>
        <time>2018-06-10T08:44:24.107Z</time>
      </trkpt>
      <trkpt lat="38.749399" lon="-0.0650115">
        <ele>262.0</ele>
        <time>2018-06-10T08:44:25.107Z</time>
      </trkpt>
      <trkpt lat="38.74935383" lon="-0.0650515">
        <ele>262.0</ele>
        <time>2018-06-10T08:44:26.107Z</time>
      </trkpt>
      <trkpt lat="38.74930883" lon="-0.06509117">
        <ele>262.0</ele>
        <time>2018-06-10T08:44:27.107Z</time>
      </trkpt>
      <trkpt lat="38.749264" lon="-0.06513033">
        <ele>263.0</ele>
        <time>2018-06-10T08:44:28.107Z</time>
      </trkpt>
      <trkpt lat="38.74921933" lon="-0.06516933">
        <ele>263.0</ele>
        <time>2018-06-10T08:44:29.107Z</time>
      </trkpt>
      <trkpt lat="38.74917517" lon="-0.06520967">
        <ele>263.0</ele>
        <time>2018-06-10T08:44:30.107Z</time>
      </trkpt>
      <trkpt lat="38.7491315" lon="-0.06525083">
        <ele>264.0</ele>
        <time>2018-06-10T08:44:31.107Z</time>
      </trkpt>
      <trkpt lat="38.7490885" lon="-0.0652945">
        <ele>264.0</ele>
        <time>2018-06-10T08:44:32.107Z</time>
      </trkpt>
      <trkpt lat="38.749046" lon="-0.0653395">
        <ele>264.0</ele>
        <time>2018-06-10T08:44:33.107Z</time>
      </trkpt>
      <trkpt lat="38.74900417" lon="-0.06538717">
        <ele>264.0</ele>
        <time>2018-06-10T08:44:34.107Z</time>
      </trkpt>
      <trkpt lat="38.7489635" lon="-0.06543783">
        <ele>264.0</ele>
        <time>2018-06-10T08:44:35.107Z</time>
      </trkpt>
      <trkpt lat="38.74892483" lon="-0.06549167">
        <ele>264.0</ele>
        <time>2018-06-10T08:44:36.107Z</time>
      </trkpt>
      <trkpt lat="38.7488885" lon="-0.06554817">
        <ele>264.0</ele>
        <time>2018-06-10T08:44:37.107Z</time>
      </trkpt>
      <trkpt lat="38.748854" lon="-0.065606">
        <ele>264.0</ele>
        <time>2018-06-10T08:44:38.107Z</time>
      </trkpt>
      <trkpt lat="38.74882067" lon="-0.065665">
        <ele>264.0</ele>
        <time>2018-06-10T08:44:39.107Z</time>
      </trkpt>
      <trkpt lat="38.74878733" lon="-0.06572467">
        <ele>264.0</ele>
        <time>2018-06-10T08:44:40.107Z</time>
      </trkpt>
      <trkpt lat="38.748754" lon="-0.0657855">
        <ele>264.0</ele>
        <time>2018-06-10T08:44:41.107Z</time>
      </trkpt>
      <trkpt lat="38.74872" lon="-0.06584683">
        <ele>264.0</ele>
        <time>2018-06-10T08:44:42.107Z</time>
      </trkpt>
      <trkpt lat="38.7486855" lon="-0.06590983">
        <ele>264.0</ele>
        <time>2018-06-10T08:44:43.107Z</time>
      </trkpt>
      <trkpt lat="38.74865" lon="-0.06597333">
        <ele>264.0</ele>
        <time>2018-06-10T08:44:44.107Z</time>
      </trkpt>
      <trkpt lat="38.74861383" lon="-0.06603733">
        <ele>264.0</ele>
        <time>2018-06-10T08:44:45.107Z</time>
      </trkpt>
      <trkpt lat="38.74857667" lon="-0.06610133">
        <ele>264.0</ele>
        <time>2018-06-10T08:44:46.107Z</time>
      </trkpt>
      <trkpt lat="38.748539" lon="-0.06616583">
        <ele>264.0</ele>
        <time>2018-06-10T08:44:47.107Z</time>
      </trkpt>
      <trkpt lat="38.748501" lon="-0.066231">
        <ele>264.0</ele>
        <time>2018-06-10T08:44:48.107Z</time>
      </trkpt>
      <trkpt lat="38.74846367" lon="-0.06629633">
        <ele>265.0</ele>
        <time>2018-06-10T08:44:49.107Z</time>
      </trkpt>
      <trkpt lat="38.748427" lon="-0.06636167">
        <ele>265.0</ele>
        <time>2018-06-10T08:44:50.107Z</time>
      </trkpt>
      <trkpt lat="38.74839217" lon="-0.06642817">
        <ele>265.0</ele>
        <time>2018-06-10T08:44:51.107Z</time>
      </trkpt>
      <trkpt lat="38.74835967" lon="-0.066496">
        <ele>266.0</ele>
        <time>2018-06-10T08:44:52.107Z</time>
      </trkpt>
      <trkpt lat="38.74832933" lon="-0.06656467">
        <ele>266.0</ele>
        <time>2018-06-10T08:44:53.107Z</time>
      </trkpt>
      <trkpt lat="38.7483015" lon="-0.06663417">
        <ele>266.0</ele>
        <time>2018-06-10T08:44:54.107Z</time>
      </trkpt>
      <trkpt lat="38.74827617" lon="-0.06670517">
        <ele>266.0</ele>
        <time>2018-06-10T08:44:55.107Z</time>
      </trkpt>
      <trkpt lat="38.74825317" lon="-0.066778">
        <ele>266.0</ele>
        <time>2018-06-10T08:44:56.107Z</time>
      </trkpt>
      <trkpt lat="38.7482315" lon="-0.06685183">
        <ele>266.0</ele>
        <time>2018-06-10T08:44:57.107Z</time>
      </trkpt>
      <trkpt lat="38.74821033" lon="-0.0669265">
        <ele>266.0</ele>
        <time>2018-06-10T08:44:58.107Z</time>
      </trkpt>
      <trkpt lat="38.74818983" lon="-0.06700217">
        <ele>266.0</ele>
        <time>2018-06-10T08:44:59.107Z</time>
      </trkpt>
      <trkpt lat="38.7481705" lon="-0.06707867">
        <ele>266.0</ele>
        <time>2018-06-10T08:45:00.107Z</time>
      </trkpt>
      <trkpt lat="38.74815383" lon="-0.0671565">
        <ele>266.0</ele>
        <time>2018-06-10T08:45:01.107Z</time>
      </trkpt>
      <trkpt lat="38.74814283" lon="-0.0672365">
        <ele>266.0</ele>
        <time>2018-06-10T08:45:02.107Z</time>
      </trkpt>
      <trkpt lat="38.74813917" lon="-0.067318">
        <ele>266.0</ele>
        <time>2018-06-10T08:45:03.107Z</time>
      </trkpt>
      <trkpt lat="38.74814233" lon="-0.06740133">
        <ele>266.0</ele>
        <time>2018-06-10T08:45:04.107Z</time>
      </trkpt>
      <trkpt lat="38.74814983" lon="-0.06748483">
        <ele>267.0</ele>
        <time>2018-06-10T08:45:05.107Z</time>
      </trkpt>
      <trkpt lat="38.74816033" lon="-0.06756883">
        <ele>266.0</ele>
        <time>2018-06-10T08:45:06.107Z</time>
      </trkpt>
      <trkpt lat="38.74817217" lon="-0.06765317">
        <ele>266.0</ele>
        <time>2018-06-10T08:45:07.107Z</time>
      </trkpt>
      <trkpt lat="38.74818433" lon="-0.06773767">
        <ele>267.0</ele>
        <time>2018-06-10T08:45:08.107Z</time>
      </trkpt>
      <trkpt lat="38.74819633" lon="-0.06782267">
        <ele>267.0</ele>
        <time>2018-06-10T08:45:09.107Z</time>
      </trkpt>
      <trkpt lat="38.74820817" lon="-0.06790783">
        <ele>267.0</ele>
        <time>2018-06-10T08:45:10.107Z</time>
      </trkpt>
      <trkpt lat="38.7482195" lon="-0.06799333">
        <ele>267.0</ele>
        <time>2018-06-10T08:45:11.107Z</time>
      </trkpt>
      <trkpt lat="38.74823017" lon="-0.06807933">
        <ele>267.0</ele>
        <time>2018-06-10T08:45:12.107Z</time>
      </trkpt>
      <trkpt lat="38.74824017" lon="-0.06816617">
        <ele>267.0</ele>
        <time>2018-06-10T08:45:13.107Z</time>
      </trkpt>
      <trkpt lat="38.74824983" lon="-0.0682535">
        <ele>267.0</ele>
        <time>2018-06-10T08:45:14.107Z</time>
      </trkpt>
      <trkpt lat="38.7482605" lon="-0.06834133">
        <ele>267.0</ele>
        <time>2018-06-10T08:45:15.107Z</time>
      </trkpt>
      <trkpt lat="38.74827333" lon="-0.06842933">
        <ele>267.0</ele>
        <time>2018-06-10T08:45:16.107Z</time>
      </trkpt>
      <trkpt lat="38.74828833" lon="-0.06851783">
        <ele>267.0</ele>
        <time>2018-06-10T08:45:17.107Z</time>
      </trkpt>
      <trkpt lat="38.74830267" lon="-0.06860717">
        <ele>267.0</ele>
        <time>2018-06-10T08:45:18.107Z</time>
      </trkpt>
      <trkpt lat="38.74831333" lon="-0.068698">
        <ele>267.0</ele>
        <time>2018-06-10T08:45:19.107Z</time>
      </trkpt>
      <trkpt lat="38.748319" lon="-0.06879033">
        <ele>266.0</ele>
        <time>2018-06-10T08:45:20.107Z</time>
      </trkpt>
      <trkpt lat="38.74832183" lon="-0.06888383">
        <ele>266.0</ele>
        <time>2018-06-10T08:45:21.107Z</time>
      </trkpt>
      <trkpt lat="38.74832367" lon="-0.06897783">
        <ele>266.0</ele>
        <time>2018-06-10T08:45:22.107Z</time>
      </trkpt>
      <trkpt lat="38.74832583" lon="-0.06907217">
        <ele>266.0</ele>
        <time>2018-06-10T08:45:23.107Z</time>
      </trkpt>
      <trkpt lat="38.748328" lon="-0.06916667">
        <ele>266.0</ele>
        <time>2018-06-10T08:45:24.107Z</time>
      </trkpt>
      <trkpt lat="38.7483295" lon="-0.06926133">
        <ele>266.0</ele>
        <time>2018-06-10T08:45:25.107Z</time>
      </trkpt>
      <trkpt lat="38.74833" lon="-0.0693565">
        <ele>266.0</ele>
        <time>2018-06-10T08:45:26.107Z</time>
      </trkpt>
      <trkpt lat="38.7483295" lon="-0.06945183">
        <ele>266.0</ele>
        <time>2018-06-10T08:45:27.107Z</time>
      </trkpt>
      <trkpt lat="38.7483265" lon="-0.06954733">
        <ele>266.0</ele>
        <time>2018-06-10T08:45:28.107Z</time>
      </trkpt>
      <trkpt lat="38.74831917" lon="-0.06964217">
        <ele>266.0</ele>
        <time>2018-06-10T08:45:29.107Z</time>
      </trkpt>
      <trkpt lat="38.74830383" lon="-0.06973567">
        <ele>266.0</ele>
        <time>2018-06-10T08:45:30.107Z</time>
      </trkpt>
      <trkpt lat="38.74827917" lon="-0.06982567">
        <ele>266.0</ele>
        <time>2018-06-10T08:45:31.107Z</time>
      </trkpt>
      <trkpt lat="38.74824417" lon="-0.069911">
        <ele>266.0</ele>
        <time>2018-06-10T08:45:32.107Z</time>
      </trkpt>
      <trkpt lat="38.74820217" lon="-0.06999217">
        <ele>266.0</ele>
        <time>2018-06-10T08:45:33.107Z</time>
      </trkpt>
      <trkpt lat="38.74815483" lon="-0.07007">
        <ele>265.0</ele>
        <time>2018-06-10T08:45:34.107Z</time>
      </trkpt>
      <trkpt lat="38.7481055" lon="-0.07014567">
        <ele>266.0</ele>
        <time>2018-06-10T08:45:35.107Z</time>
      </trkpt>
      <trkpt lat="38.74805483" lon="-0.0702205">
        <ele>265.0</ele>
        <time>2018-06-10T08:45:36.107Z</time>
      </trkpt>
      <trkpt lat="38.74800317" lon="-0.070295">
        <ele>265.0</ele>
        <time>2018-06-10T08:45:37.107Z</time>
      </trkpt>
      <trkpt lat="38.74795133" lon="-0.07036917">
        <ele>265.0</ele>
        <time>2018-06-10T08:45:38.107Z</time>
      </trkpt>
      <trkpt lat="38.74789933" lon="-0.07044267">
        <ele>265.0</ele>
        <time>2018-06-10T08:45:39.107Z</time>
      </trkpt>
      <trkpt lat="38.74784783" lon="-0.07051617">
        <ele>265.0</ele>
        <time>2018-06-10T08:45:40.107Z</time>
      </trkpt>
      <trkpt lat="38.74779667" lon="-0.07059033">
        <ele>265.0</ele>
        <time>2018-06-10T08:45:41.107Z</time>
      </trkpt>
      <trkpt lat="38.747746" lon="-0.07066483">
        <ele>265.0</ele>
        <time>2018-06-10T08:45:42.107Z</time>
      </trkpt>
      <trkpt lat="38.74769517" lon="-0.07073933">
        <ele>265.0</ele>
        <time>2018-06-10T08:45:43.107Z</time>
      </trkpt>
      <trkpt lat="38.747644" lon="-0.0708135">
        <ele>265.0</ele>
        <time>2018-06-10T08:45:44.107Z</time>
      </trkpt>
      <trkpt lat="38.747592" lon="-0.070887">
        <ele>265.0</ele>
        <time>2018-06-10T08:45:45.107Z</time>
      </trkpt>
      <trkpt lat="38.7475375" lon="-0.07095783">
        <ele>265.0</ele>
        <time>2018-06-10T08:45:46.107Z</time>
      </trkpt>
      <trkpt lat="38.74747867" lon="-0.07102033">
        <ele>264.0</ele>
        <time>2018-06-10T08:45:47.107Z</time>
      </trkpt>
      <trkpt lat="38.74741317" lon="-0.07106567">
        <ele>265.0</ele>
        <time>2018-06-10T08:45:48.107Z</time>
      </trkpt>
      <trkpt lat="38.74734333" lon="-0.07108183">
        <ele>266.0</ele>
        <time>2018-06-10T08:45:49.107Z</time>
      </trkpt>
      <trkpt lat="38.747271" lon="-0.071067">
        <ele>265.0</ele>
        <time>2018-06-10T08:45:50.107Z</time>
      </trkpt>
      <trkpt lat="38.7472005" lon="-0.071029">
        <ele>265.0</ele>
        <time>2018-06-10T08:45:51.107Z</time>
      </trkpt>
      <trkpt lat="38.74713233" lon="-0.070982">
        <ele>264.0</ele>
        <time>2018-06-10T08:45:52.107Z</time>
      </trkpt>
      <trkpt lat="38.74706667" lon="-0.07093317">
        <ele>264.0</ele>
        <time>2018-06-10T08:45:53.107Z</time>
      </trkpt>
      <trkpt lat="38.7470025" lon="-0.07088483">
        <ele>264.0</ele>
        <time>2018-06-10T08:45:54.107Z</time>
      </trkpt>
      <trkpt lat="38.74694067" lon="-0.07083633">
        <ele>264.0</ele>
        <time>2018-06-10T08:45:55.107Z</time>
      </trkpt>
      <trkpt lat="38.746881" lon="-0.07078967">
        <ele>264.0</ele>
        <time>2018-06-10T08:45:56.107Z</time>
      </trkpt>
      <trkpt lat="38.7468245" lon="-0.07074283">
        <ele>264.0</ele>
        <time>2018-06-10T08:45:57.107Z</time>
      </trkpt>
      <trkpt lat="38.74676967" lon="-0.07069633">
        <ele>264.0</ele>
        <time>2018-06-10T08:45:58.107Z</time>
      </trkpt>
      <trkpt lat="38.7467185" lon="-0.070646">
        <ele>263.0</ele>
        <time>2018-06-10T08:45:59.107Z</time>
      </trkpt>
      <trkpt lat="38.74667183" lon="-0.07059117">
        <ele>263.0</ele>
        <time>2018-06-10T08:46:00.107Z</time>
      </trkpt>
      <trkpt lat="38.74662983" lon="-0.07052983">
        <ele>264.0</ele>
        <time>2018-06-10T08:46:01.107Z</time>
      </trkpt>
      <trkpt lat="38.74659317" lon="-0.07046167">
        <ele>266.0</ele>
        <time>2018-06-10T08:46:02.107Z</time>
      </trkpt>
      <trkpt lat="38.74656067" lon="-0.07038917">
        <ele>267.0</ele>
        <time>2018-06-10T08:46:03.107Z</time>
      </trkpt>
      <trkpt lat="38.74653283" lon="-0.0703145">
        <ele>268.0</ele>
        <time>2018-06-10T08:46:04.107Z</time>
      </trkpt>
      <trkpt lat="38.7465075" lon="-0.07024067">
        <ele>268.0</ele>
        <time>2018-06-10T08:46:05.107Z</time>
      </trkpt>
      <trkpt lat="38.7464835" lon="-0.07016667">
        <ele>269.0</ele>
        <time>2018-06-10T08:46:06.107Z</time>
      </trkpt>
      <trkpt lat="38.74646" lon="-0.07009233">
        <ele>269.0</ele>
        <time>2018-06-10T08:46:07.107Z</time>
      </trkpt>
      <trkpt lat="38.7464365" lon="-0.07001867">
        <ele>269.0</ele>
        <time>2018-06-10T08:46:08.107Z</time>
      </trkpt>
      <trkpt lat="38.74641317" lon="-0.069946">
        <ele>270.0</ele>
        <time>2018-06-10T08:46:09.107Z</time>
      </trkpt>
      <trkpt lat="38.74639033" lon="-0.0698735">
        <ele>270.0</ele>
        <time>2018-06-10T08:46:10.107Z</time>
      </trkpt>
      <trkpt lat="38.74636767" lon="-0.069802">
        <ele>270.0</ele>
        <time>2018-06-10T08:46:11.107Z</time>
      </trkpt>
      <trkpt lat="38.74634517" lon="-0.06973083">
        <ele>270.0</ele>
        <time>2018-06-10T08:46:12.107Z</time>
      </trkpt>
      <trkpt lat="38.74632267" lon="-0.069661">
        <ele>270.0</ele>
        <time>2018-06-10T08:46:13.107Z</time>
      </trkpt>
      <trkpt lat="38.74630083" lon="-0.0695905">
        <ele>271.0</ele>
        <time>2018-06-10T08:46:14.107Z</time>
      </trkpt>
      <trkpt lat="38.746279" lon="-0.06952">
        <ele>271.0</ele>
        <time>2018-06-10T08:46:15.107Z</time>
      </trkpt>
      <trkpt lat="38.74625733" lon="-0.0694485">
        <ele>271.0</ele>
        <time>2018-06-10T08:46:16.107Z</time>
      </trkpt>
      <trkpt lat="38.74623567" lon="-0.069377">
        <ele>271.0</ele>
        <time>2018-06-10T08:46:17.107Z</time>
      </trkpt>
      <trkpt lat="38.746214" lon="-0.06930567">
        <ele>271.0</ele>
        <time>2018-06-10T08:46:18.107Z</time>
      </trkpt>
      <trkpt lat="38.7461925" lon="-0.06923517">
        <ele>271.0</ele>
        <time>2018-06-10T08:46:19.107Z</time>
      </trkpt>
      <trkpt lat="38.746171" lon="-0.069165">
        <ele>272.0</ele>
        <time>2018-06-10T08:46:20.107Z</time>
      </trkpt>
      <trkpt lat="38.7461495" lon="-0.06909517">
        <ele>272.0</ele>
        <time>2018-06-10T08:46:21.107Z</time>
      </trkpt>
      <trkpt lat="38.74612767" lon="-0.06902533">
        <ele>272.0</ele>
        <time>2018-06-10T08:46:22.107Z</time>
      </trkpt>
      <trkpt lat="38.74610567" lon="-0.06895617">
        <ele>272.0</ele>
        <time>2018-06-10T08:46:23.107Z</time>
      </trkpt>
      <trkpt lat="38.74608333" lon="-0.0688875">
        <ele>272.0</ele>
        <time>2018-06-10T08:46:24.107Z</time>
      </trkpt>
      <trkpt lat="38.74606067" lon="-0.06881967">
        <ele>272.0</ele>
        <time>2018-06-10T08:46:25.107Z</time>
      </trkpt>
      <trkpt lat="38.74603783" lon="-0.06875267">
        <ele>272.0</ele>
        <time>2018-06-10T08:46:26.107Z</time>
      </trkpt>
      <trkpt lat="38.74601517" lon="-0.06868617">
        <ele>273.0</ele>
        <time>2018-06-10T08:46:27.107Z</time>
      </trkpt>
      <trkpt lat="38.74599267" lon="-0.06862">
        <ele>273.0</ele>
        <time>2018-06-10T08:46:28.107Z</time>
      </trkpt>
      <trkpt lat="38.745971" lon="-0.06855367">
        <ele>273.0</ele>
        <time>2018-06-10T08:46:29.107Z</time>
      </trkpt>
      <trkpt lat="38.7459485" lon="-0.06848767">
        <ele>273.0</ele>
        <time>2018-06-10T08:46:30.107Z</time>
      </trkpt>
      <trkpt lat="38.74592367" lon="-0.0684235">
        <ele>273.0</ele>
        <time>2018-06-10T08:46:31.107Z</time>
      </trkpt>
      <trkpt lat="38.745894" lon="-0.06836267">
        <ele>273.0</ele>
        <time>2018-06-10T08:46:32.107Z</time>
      </trkpt>
      <trkpt lat="38.74585983" lon="-0.068305">
        <ele>273.0</ele>
        <time>2018-06-10T08:46:33.107Z</time>
      </trkpt>
      <trkpt lat="38.7458225" lon="-0.06825">
        <ele>274.0</ele>
        <time>2018-06-10T08:46:34.107Z</time>
      </trkpt>
      <trkpt lat="38.745784" lon="-0.06819567">
        <ele>274.0</ele>
        <time>2018-06-10T08:46:35.107Z</time>
      </trkpt>
      <trkpt lat="38.74574483" lon="-0.06814267">
        <ele>274.0</ele>
        <time>2018-06-10T08:46:36.107Z</time>
      </trkpt>
      <trkpt lat="38.745704" lon="-0.06809083">
        <ele>274.0</ele>
        <time>2018-06-10T08:46:37.107Z</time>
      </trkpt>
      <trkpt lat="38.74566083" lon="-0.068042">
        <ele>274.0</ele>
        <time>2018-06-10T08:46:38.107Z</time>
      </trkpt>
      <trkpt lat="38.74561667" lon="-0.06799367">
        <ele>274.0</ele>
        <time>2018-06-10T08:46:39.107Z</time>
      </trkpt>
      <trkpt lat="38.74557283" lon="-0.06794517">
        <ele>274.0</ele>
        <time>2018-06-10T08:46:40.107Z</time>
      </trkpt>
      <trkpt lat="38.7455305" lon="-0.06789483">
        <ele>274.0</ele>
        <time>2018-06-10T08:46:41.107Z</time>
      </trkpt>
      <trkpt lat="38.74548867" lon="-0.067844">
        <ele>274.0</ele>
        <time>2018-06-10T08:46:42.107Z</time>
      </trkpt>
      <trkpt lat="38.74544733" lon="-0.0677935">
        <ele>274.0</ele>
        <time>2018-06-10T08:46:43.107Z</time>
      </trkpt>
      <trkpt lat="38.745406" lon="-0.0677435">
        <ele>274.0</ele>
        <time>2018-06-10T08:46:44.107Z</time>
      </trkpt>
      <trkpt lat="38.74536483" lon="-0.06769583">
        <ele>274.0</ele>
        <time>2018-06-10T08:46:45.107Z</time>
      </trkpt>
      <trkpt lat="38.74532167" lon="-0.06765267">
        <ele>275.0</ele>
        <time>2018-06-10T08:46:46.107Z</time>
      </trkpt>
      <trkpt lat="38.74527467" lon="-0.0676205">
        <ele>275.0</ele>
        <time>2018-06-10T08:46:47.107Z</time>
      </trkpt>
      <trkpt lat="38.7452225" lon="-0.0676045">
        <ele>275.0</ele>
        <time>2018-06-10T08:46:48.107Z</time>
      </trkpt>
      <trkpt lat="38.74516867" lon="-0.06760717">
        <ele>275.0</ele>
        <time>2018-06-10T08:46:49.107Z</time>
      </trkpt>
      <trkpt lat="38.74511733" lon="-0.06762817">
        <ele>273.0</ele>
        <time>2018-06-10T08:46:50.107Z</time>
      </trkpt>
      <trkpt lat="38.74506967" lon="-0.06766133">
        <ele>272.0</ele>
        <time>2018-06-10T08:46:51.107Z</time>
      </trkpt>
      <trkpt lat="38.74502567" lon="-0.06770233">
        <ele>272.0</ele>
        <time>2018-06-10T08:46:52.107Z</time>
      </trkpt>
      <trkpt lat="38.7449835" lon="-0.06774533">
        <ele>272.0</ele>
        <time>2018-06-10T08:46:53.107Z</time>
      </trkpt>
      <trkpt lat="38.7449425" lon="-0.06778967">
        <ele>272.0</ele>
        <time>2018-06-10T08:46:54.107Z</time>
      </trkpt>
      <trkpt lat="38.74490133" lon="-0.067833">
        <ele>273.0</ele>
        <time>2018-06-10T08:46:55.107Z</time>
      </trkpt>
      <trkpt lat="38.74486067" lon="-0.06787567">
        <ele>273.0</ele>
        <time>2018-06-10T08:46:56.107Z</time>
      </trkpt>
      <trkpt lat="38.7448195" lon="-0.06791867">
        <ele>273.0</ele>
        <time>2018-06-10T08:46:57.107Z</time>
      </trkpt>
      <trkpt lat="38.74477683" lon="-0.06796217">
        <ele>273.0</ele>
        <time>2018-06-10T08:46:58.107Z</time>
      </trkpt>
      <trkpt lat="38.7447315" lon="-0.0680035">
        <ele>272.0</ele>
        <time>2018-06-10T08:46:59.107Z</time>
      </trkpt>
      <trkpt lat="38.74468383" lon="-0.06803917">
        <ele>272.0</ele>
        <time>2018-06-10T08:47:00.107Z</time>
      </trkpt>
      <trkpt lat="38.744633" lon="-0.0680555">
        <ele>273.0</ele>
        <time>2018-06-10T08:47:01.107Z</time>
      </trkpt>
      <trkpt lat="38.74458017" lon="-0.06805">
        <ele>274.0</ele>
        <time>2018-06-10T08:47:02.107Z</time>
      </trkpt>
      <trkpt lat="38.74452867" lon="-0.06802167">
        <ele>275.0</ele>
        <time>2018-06-10T08:47:03.107Z</time>
      </trkpt>
      <trkpt lat="38.74448017" lon="-0.06798183">
        <ele>275.0</ele>
        <time>2018-06-10T08:47:04.107Z</time>
      </trkpt>
      <trkpt lat="38.74443467" lon="-0.06793567">
        <ele>275.0</ele>
        <time>2018-06-10T08:47:05.107Z</time>
      </trkpt>
      <trkpt lat="38.7443905" lon="-0.0678865">
        <ele>275.0</ele>
        <time>2018-06-10T08:47:06.107Z</time>
      </trkpt>
      <trkpt lat="38.74434717" lon="-0.067837">
        <ele>275.0</ele>
        <time>2018-06-10T08:47:07.107Z</time>
      </trkpt>
      <trkpt lat="38.74430383" lon="-0.06778667">
        <ele>275.0</ele>
        <time>2018-06-10T08:47:08.107Z</time>
      </trkpt>
      <trkpt lat="38.74426067" lon="-0.0677355">
        <ele>275.0</ele>
        <time>2018-06-10T08:47:09.107Z</time>
      </trkpt>
      <trkpt lat="38.74421833" lon="-0.067684">
        <ele>276.0</ele>
        <time>2018-06-10T08:47:10.107Z</time>
      </trkpt>
      <trkpt lat="38.74417717" lon="-0.0676315">
        <ele>276.0</ele>
        <time>2018-06-10T08:47:11.107Z</time>
      </trkpt>
      <trkpt lat="38.74413733" lon="-0.06757867">
        <ele>276.0</ele>
        <time>2018-06-10T08:47:12.107Z</time>
      </trkpt>
      <trkpt lat="38.744099" lon="-0.0675245">
        <ele>275.0</ele>
        <time>2018-06-10T08:47:13.107Z</time>
      </trkpt>
      <trkpt lat="38.7440625" lon="-0.0674695">
        <ele>275.0</ele>
        <time>2018-06-10T08:47:14.107Z</time>
      </trkpt>
      <trkpt lat="38.74402783" lon="-0.067412">
        <ele>275.0</ele>
        <time>2018-06-10T08:47:15.107Z</time>
      </trkpt>
      <trkpt lat="38.74399533" lon="-0.067352">
        <ele>275.0</ele>
        <time>2018-06-10T08:47:16.107Z</time>
      </trkpt>
      <trkpt lat="38.743965" lon="-0.067289">
        <ele>275.0</ele>
        <time>2018-06-10T08:47:17.107Z</time>
      </trkpt>
      <trkpt lat="38.74393617" lon="-0.06722317">
        <ele>275.0</ele>
        <time>2018-06-10T08:47:18.107Z</time>
      </trkpt>
      <trkpt lat="38.74390967" lon="-0.06715567">
        <ele>274.0</ele>
        <time>2018-06-10T08:47:19.107Z</time>
      </trkpt>
      <trkpt lat="38.74388467" lon="-0.06708683">
        <ele>274.0</ele>
        <time>2018-06-10T08:47:20.107Z</time>
      </trkpt>
      <trkpt lat="38.743861" lon="-0.067017">
        <ele>273.0</ele>
        <time>2018-06-10T08:47:21.107Z</time>
      </trkpt>
      <trkpt lat="38.74383717" lon="-0.066946">
        <ele>273.0</ele>
        <time>2018-06-10T08:47:22.107Z</time>
      </trkpt>
      <trkpt lat="38.7438125" lon="-0.06687417">
        <ele>273.0</ele>
        <time>2018-06-10T08:47:23.107Z</time>
      </trkpt>
      <trkpt lat="38.74378683" lon="-0.06680183">
        <ele>273.0</ele>
        <time>2018-06-10T08:47:24.107Z</time>
      </trkpt>
      <trkpt lat="38.74376133" lon="-0.06672733">
        <ele>272.0</ele>
        <time>2018-06-10T08:47:25.107Z</time>
      </trkpt>
      <trkpt lat="38.74373667" lon="-0.06665">
        <ele>272.0</ele>
        <time>2018-06-10T08:47:26.107Z</time>
      </trkpt>
      <trkpt lat="38.74371267" lon="-0.0665695">
        <ele>272.0</ele>
        <time>2018-06-10T08:47:27.107Z</time>
      </trkpt>
      <trkpt lat="38.74368783" lon="-0.0664865">
        <ele>271.0</ele>
        <time>2018-06-10T08:47:28.107Z</time>
      </trkpt>
      <trkpt lat="38.74366167" lon="-0.06640083">
        <ele>270.0</ele>
        <time>2018-06-10T08:47:29.107Z</time>
      </trkpt>
      <trkpt lat="38.74363417" lon="-0.06631183">
        <ele>270.0</ele>
        <time>2018-06-10T08:47:30.107Z</time>
      </trkpt>
      <trkpt lat="38.743605" lon="-0.0662195">
        <ele>269.0</ele>
        <time>2018-06-10T08:47:31.107Z</time>
      </trkpt>
      <trkpt lat="38.74357383" lon="-0.06612383">
        <ele>269.0</ele>
        <time>2018-06-10T08:47:32.107Z</time>
      </trkpt>
      <trkpt lat="38.7435415" lon="-0.066026">
        <ele>268.0</ele>
        <time>2018-06-10T08:47:33.107Z</time>
      </trkpt>
      <trkpt lat="38.74351" lon="-0.0659255">
        <ele>268.0</ele>
        <time>2018-06-10T08:47:34.107Z</time>
      </trkpt>
      <trkpt lat="38.743481" lon="-0.0658225">
        <ele>268.0</ele>
        <time>2018-06-10T08:47:35.107Z</time>
      </trkpt>
      <trkpt lat="38.74345417" lon="-0.06571717">
        <ele>267.0</ele>
        <time>2018-06-10T08:47:36.107Z</time>
      </trkpt>
      <trkpt lat="38.74343067" lon="-0.06561067">
        <ele>265.0</ele>
        <time>2018-06-10T08:47:37.107Z</time>
      </trkpt>
      <trkpt lat="38.7434105" lon="-0.0655">
        <ele>265.0</ele>
        <time>2018-06-10T08:47:38.107Z</time>
      </trkpt>
      <trkpt lat="38.74339567" lon="-0.06538083">
        <ele>266.0</ele>
        <time>2018-06-10T08:47:39.107Z</time>
      </trkpt>
      <trkpt lat="38.74338417" lon="-0.0652555">
        <ele>265.0</ele>
        <time>2018-06-10T08:47:40.107Z</time>
      </trkpt>
      <trkpt lat="38.74337533" lon="-0.06512717">
        <ele>265.0</ele>
        <time>2018-06-10T08:47:41.107Z</time>
      </trkpt>
      <trkpt lat="38.74336683" lon="-0.06499967">
        <ele>265.0</ele>
        <time>2018-06-10T08:47:42.107Z</time>
      </trkpt>
      <trkpt lat="38.74335917" lon="-0.06487067">
        <ele>264.0</ele>
        <time>2018-06-10T08:47:43.107Z</time>
      </trkpt>
      <trkpt lat="38.74335233" lon="-0.06474167">
        <ele>264.0</ele>
        <time>2018-06-10T08:47:44.107Z</time>
      </trkpt>
      <trkpt lat="38.74334683" lon="-0.064613">
        <ele>264.0</ele>
        <time>2018-06-10T08:47:45.107Z</time>
      </trkpt>
      <trkpt lat="38.743345" lon="-0.06448483">
        <ele>263.0</ele>
        <time>2018-06-10T08:47:46.107Z</time>
      </trkpt>
      <trkpt lat="38.74334833" lon="-0.06435717">
        <ele>263.0</ele>
        <time>2018-06-10T08:47:47.107Z</time>
      </trkpt>
      <trkpt lat="38.74335667" lon="-0.06423083">
        <ele>263.0</ele>
        <time>2018-06-10T08:47:48.107Z</time>
      </trkpt>
      <trkpt lat="38.74337067" lon="-0.06410617">
        <ele>262.0</ele>
        <time>2018-06-10T08:47:49.107Z</time>
      </trkpt>
      <trkpt lat="38.74338817" lon="-0.063983">
        <ele>262.0</ele>
        <time>2018-06-10T08:47:50.107Z</time>
      </trkpt>
      <trkpt lat="38.74341133" lon="-0.063861">
        <ele>261.0</ele>
        <time>2018-06-10T08:47:51.107Z</time>
      </trkpt>
      <trkpt lat="38.74343517" lon="-0.06373933">
        <ele>261.0</ele>
        <time>2018-06-10T08:47:52.107Z</time>
      </trkpt>
      <trkpt lat="38.74346" lon="-0.06361683">
        <ele>260.0</ele>
        <time>2018-06-10T08:47:53.107Z</time>
      </trkpt>
      <trkpt lat="38.74348317" lon="-0.063493">
        <ele>260.0</ele>
        <time>2018-06-10T08:47:54.107Z</time>
      </trkpt>
      <trkpt lat="38.74350717" lon="-0.06336783">
        <ele>259.0</ele>
        <time>2018-06-10T08:47:55.107Z</time>
      </trkpt>
      <trkpt lat="38.74353083" lon="-0.06324133">
        <ele>259.0</ele>
        <time>2018-06-10T08:47:56.107Z</time>
      </trkpt>
      <trkpt lat="38.74355567" lon="-0.063113">
        <ele>258.0</ele>
        <time>2018-06-10T08:47:57.107Z</time>
      </trkpt>
      <trkpt lat="38.7435805" lon="-0.06298317">
        <ele>257.0</ele>
        <time>2018-06-10T08:47:58.107Z</time>
      </trkpt>
      <trkpt lat="38.74360567" lon="-0.06285167">
        <ele>257.0</ele>
        <time>2018-06-10T08:47:59.107Z</time>
      </trkpt>
      <trkpt lat="38.74363067" lon="-0.062719">
        <ele>256.0</ele>
        <time>2018-06-10T08:48:00.107Z</time>
      </trkpt>
      <trkpt lat="38.74365617" lon="-0.062585">
        <ele>256.0</ele>
        <time>2018-06-10T08:48:01.107Z</time>
      </trkpt>
      <trkpt lat="38.743683" lon="-0.06245033">
        <ele>255.0</ele>
        <time>2018-06-10T08:48:02.107Z</time>
      </trkpt>
      <trkpt lat="38.74371133" lon="-0.06231533">
        <ele>255.0</ele>
        <time>2018-06-10T08:48:03.107Z</time>
      </trkpt>
      <trkpt lat="38.74374167" lon="-0.06218167">
        <ele>254.0</ele>
        <time>2018-06-10T08:48:04.107Z</time>
      </trkpt>
      <trkpt lat="38.74377717" lon="-0.06204933">
        <ele>253.0</ele>
        <time>2018-06-10T08:48:05.107Z</time>
      </trkpt>
      <trkpt lat="38.74381817" lon="-0.06191817">
        <ele>252.0</ele>
        <time>2018-06-10T08:48:06.107Z</time>
      </trkpt>
      <trkpt lat="38.743863" lon="-0.06178683">
        <ele>252.0</ele>
        <time>2018-06-10T08:48:07.107Z</time>
      </trkpt>
      <trkpt lat="38.74390817" lon="-0.06165617">
        <ele>251.0</ele>
        <time>2018-06-10T08:48:08.107Z</time>
      </trkpt>
      <trkpt lat="38.7439545" lon="-0.06152467">
        <ele>250.0</ele>
        <time>2018-06-10T08:48:09.107Z</time>
      </trkpt>
      <trkpt lat="38.74400267" lon="-0.06139267">
        <ele>250.0</ele>
        <time>2018-06-10T08:48:10.107Z</time>
      </trkpt>
      <trkpt lat="38.74405183" lon="-0.06125933">
        <ele>249.0</ele>
        <time>2018-06-10T08:48:11.107Z</time>
      </trkpt>
      <trkpt lat="38.74409967" lon="-0.06112683">
        <ele>249.0</ele>
        <time>2018-06-10T08:48:12.107Z</time>
      </trkpt>
      <trkpt lat="38.74414517" lon="-0.06099633">
        <ele>248.0</ele>
        <time>2018-06-10T08:48:13.107Z</time>
      </trkpt>
      <trkpt lat="38.7441875" lon="-0.06086783">
        <ele>248.0</ele>
        <time>2018-06-10T08:48:14.107Z</time>
      </trkpt>
      <trkpt lat="38.74422333" lon="-0.060739">
        <ele>247.0</ele>
        <time>2018-06-10T08:48:15.107Z</time>
      </trkpt>
      <trkpt lat="38.74424867" lon="-0.0606075">
        <ele>247.0</ele>
        <time>2018-06-10T08:48:16.107Z</time>
      </trkpt>
      <trkpt lat="38.74425833" lon="-0.060473">
        <ele>247.0</ele>
        <time>2018-06-10T08:48:17.107Z</time>
      </trkpt>
      <trkpt lat="38.7442505" lon="-0.06033817">
        <ele>247.0</ele>
        <time>2018-06-10T08:48:18.107Z</time>
      </trkpt>
      <trkpt lat="38.744228" lon="-0.06020683">
        <ele>246.0</ele>
        <time>2018-06-10T08:48:19.107Z</time>
      </trkpt>
      <trkpt lat="38.74419933" lon="-0.0600795">
        <ele>246.0</ele>
        <time>2018-06-10T08:48:20.107Z</time>
      </trkpt>
      <trkpt lat="38.74417317" lon="-0.05995433">
        <ele>246.0</ele>
        <time>2018-06-10T08:48:21.107Z</time>
      </trkpt>
      <trkpt lat="38.74415617" lon="-0.059828">
        <ele>246.0</ele>
        <time>2018-06-10T08:48:22.107Z</time>
      </trkpt>
      <trkpt lat="38.74415117" lon="-0.05969967">
        <ele>245.0</ele>
        <time>2018-06-10T08:48:23.107Z</time>
      </trkpt>
      <trkpt lat="38.7441595" lon="-0.05957317">
        <ele>245.0</ele>
        <time>2018-06-10T08:48:24.107Z</time>
      </trkpt>
      <trkpt lat="38.74418017" lon="-0.05944983">
        <ele>245.0</ele>
        <time>2018-06-10T08:48:25.107Z</time>
      </trkpt>
      <trkpt lat="38.74421133" lon="-0.0593345">
        <ele>245.0</ele>
        <time>2018-06-10T08:48:26.107Z</time>
      </trkpt>
      <trkpt lat="38.744249" lon="-0.0592255">
        <ele>246.0</ele>
        <time>2018-06-10T08:48:27.107Z</time>
      </trkpt>
      <trkpt lat="38.74428883" lon="-0.05912017">
        <ele>245.0</ele>
        <time>2018-06-10T08:48:28.107Z</time>
      </trkpt>
      <trkpt lat="38.74432817" lon="-0.0590135">
        <ele>245.0</ele>
        <time>2018-06-10T08:48:29.107Z</time>
      </trkpt>
      <trkpt lat="38.74436733" lon="-0.05890333">
        <ele>245.0</ele>
        <time>2018-06-10T08:48:30.107Z</time>
      </trkpt>
      <trkpt lat="38.7444075" lon="-0.05879167">
        <ele>245.0</ele>
        <time>2018-06-10T08:48:31.107Z</time>
      </trkpt>
      <trkpt lat="38.74444883" lon="-0.05867933">
        <ele>245.0</ele>
        <time>2018-06-10T08:48:32.107Z</time>
      </trkpt>
      <trkpt lat="38.74449067" lon="-0.05856733">
        <ele>244.0</ele>
        <time>2018-06-10T08:48:33.107Z</time>
      </trkpt>
      <trkpt lat="38.74453267" lon="-0.05845617">
        <ele>244.0</ele>
        <time>2018-06-10T08:48:34.107Z</time>
      </trkpt>
      <trkpt lat="38.74457433" lon="-0.05834683">
        <ele>244.0</ele>
        <time>2018-06-10T08:48:35.107Z</time>
      </trkpt>
      <trkpt lat="38.7446155" lon="-0.05823917">
        <ele>244.0</ele>
        <time>2018-06-10T08:48:36.107Z</time>
      </trkpt>
      <trkpt lat="38.74465567" lon="-0.05813317">
        <ele>244.0</ele>
        <time>2018-06-10T08:48:37.107Z</time>
      </trkpt>
      <trkpt lat="38.7446955" lon="-0.0580285">
        <ele>244.0</ele>
        <time>2018-06-10T08:48:38.107Z</time>
      </trkpt>
      <trkpt lat="38.74473617" lon="-0.05792433">
        <ele>244.0</ele>
        <time>2018-06-10T08:48:39.107Z</time>
      </trkpt>
      <trkpt lat="38.744778" lon="-0.05781933">
        <ele>244.0</ele>
        <time>2018-06-10T08:48:40.107Z</time>
      </trkpt>
      <trkpt lat="38.74481883" lon="-0.05771167">
        <ele>243.0</ele>
        <time>2018-06-10T08:48:41.107Z</time>
      </trkpt>
      <trkpt lat="38.74485617" lon="-0.0575995">
        <ele>244.0</ele>
        <time>2018-06-10T08:48:42.107Z</time>
      </trkpt>
      <trkpt lat="38.74488883" lon="-0.05748267">
        <ele>243.0</ele>
        <time>2018-06-10T08:48:43.107Z</time>
      </trkpt>
      <trkpt lat="38.74491617" lon="-0.05736183">
        <ele>243.0</ele>
        <time>2018-06-10T08:48:44.107Z</time>
      </trkpt>
      <trkpt lat="38.74493817" lon="-0.057238">
        <ele>243.0</ele>
        <time>2018-06-10T08:48:45.107Z</time>
      </trkpt>
      <trkpt lat="38.74495317" lon="-0.05711183">
        <ele>243.0</ele>
        <time>2018-06-10T08:48:46.107Z</time>
      </trkpt>
      <trkpt lat="38.74496217" lon="-0.056985">
        <ele>242.0</ele>
        <time>2018-06-10T08:48:47.107Z</time>
      </trkpt>
      <trkpt lat="38.7449665" lon="-0.05685917">
        <ele>242.0</ele>
        <time>2018-06-10T08:48:48.107Z</time>
      </trkpt>
      <trkpt lat="38.74496933" lon="-0.056734">
        <ele>242.0</ele>
        <time>2018-06-10T08:48:49.107Z</time>
      </trkpt>
      <trkpt lat="38.74497133" lon="-0.05660967">
        <ele>242.0</ele>
        <time>2018-06-10T08:48:50.107Z</time>
      </trkpt>
      <trkpt lat="38.7449735" lon="-0.05648667">
        <ele>242.0</ele>
        <time>2018-06-10T08:48:51.107Z</time>
      </trkpt>
      <trkpt lat="38.74497633" lon="-0.05636567">
        <ele>242.0</ele>
        <time>2018-06-10T08:48:52.107Z</time>
      </trkpt>
      <trkpt lat="38.74497917" lon="-0.05624633">
        <ele>242.0</ele>
        <time>2018-06-10T08:48:53.107Z</time>
      </trkpt>
      <trkpt lat="38.74498167" lon="-0.05612783">
        <ele>242.0</ele>
        <time>2018-06-10T08:48:54.107Z</time>
      </trkpt>
      <trkpt lat="38.74498317" lon="-0.05601">
        <ele>242.0</ele>
        <time>2018-06-10T08:48:55.107Z</time>
      </trkpt>
      <trkpt lat="38.744985" lon="-0.05589317">
        <ele>242.0</ele>
        <time>2018-06-10T08:48:56.107Z</time>
      </trkpt>
      <trkpt lat="38.74498717" lon="-0.05577767">
        <ele>242.0</ele>
        <time>2018-06-10T08:48:57.107Z</time>
      </trkpt>
      <trkpt lat="38.74499017" lon="-0.055665">
        <ele>242.0</ele>
        <time>2018-06-10T08:48:58.107Z</time>
      </trkpt>
      <trkpt lat="38.744993" lon="-0.0555555">
        <ele>242.0</ele>
        <time>2018-06-10T08:48:59.107Z</time>
      </trkpt>
      <trkpt lat="38.74499533" lon="-0.055448">
        <ele>242.0</ele>
        <time>2018-06-10T08:49:00.107Z</time>
      </trkpt>
      <trkpt lat="38.74499733" lon="-0.05534133">
        <ele>243.0</ele>
        <time>2018-06-10T08:49:01.107Z</time>
      </trkpt>
      <trkpt lat="38.7449995" lon="-0.0552345">
        <ele>243.0</ele>
        <time>2018-06-10T08:49:02.107Z</time>
      </trkpt>
      <trkpt lat="38.74500217" lon="-0.05512767">
        <ele>243.0</ele>
        <time>2018-06-10T08:49:03.107Z</time>
      </trkpt>
      <trkpt lat="38.74500467" lon="-0.055021">
        <ele>243.0</ele>
        <time>2018-06-10T08:49:04.107Z</time>
      </trkpt>
      <trkpt lat="38.74500717" lon="-0.05491483">
        <ele>243.0</ele>
        <time>2018-06-10T08:49:05.107Z</time>
      </trkpt>
      <trkpt lat="38.7450095" lon="-0.05480967">
        <ele>243.0</ele>
        <time>2018-06-10T08:49:06.107Z</time>
      </trkpt>
      <trkpt lat="38.74501167" lon="-0.05470517">
        <ele>244.0</ele>
        <time>2018-06-10T08:49:07.107Z</time>
      </trkpt>
      <trkpt lat="38.74501383" lon="-0.0546015">
        <ele>244.0</ele>
        <time>2018-06-10T08:49:08.107Z</time>
      </trkpt>
      <trkpt lat="38.74501617" lon="-0.0544985">
        <ele>244.0</ele>
        <time>2018-06-10T08:49:09.107Z</time>
      </trkpt>
      <trkpt lat="38.74501867" lon="-0.0543965">
        <ele>244.0</ele>
        <time>2018-06-10T08:49:10.107Z</time>
      </trkpt>
      <trkpt lat="38.74502083" lon="-0.05429567">
        <ele>244.0</ele>
        <time>2018-06-10T08:49:11.107Z</time>
      </trkpt>
      <trkpt lat="38.7450225" lon="-0.05419583">
        <ele>244.0</ele>
        <time>2018-06-10T08:49:12.107Z</time>
      </trkpt>
      <trkpt lat="38.74502367" lon="-0.05409633">
        <ele>244.0</ele>
        <time>2018-06-10T08:49:13.107Z</time>
      </trkpt>
      <trkpt lat="38.74502483" lon="-0.05399617">
        <ele>244.0</ele>
        <time>2018-06-10T08:49:14.107Z</time>
      </trkpt>
      <trkpt lat="38.7450265" lon="-0.05389517">
        <ele>244.0</ele>
        <time>2018-06-10T08:49:15.107Z</time>
      </trkpt>
      <trkpt lat="38.74502817" lon="-0.0537925">
        <ele>244.0</ele>
        <time>2018-06-10T08:49:16.107Z</time>
      </trkpt>
      <trkpt lat="38.74503" lon="-0.05368817">
        <ele>244.0</ele>
        <time>2018-06-10T08:49:17.107Z</time>
      </trkpt>
      <trkpt lat="38.74503233" lon="-0.053582">
        <ele>244.0</ele>
        <time>2018-06-10T08:49:18.107Z</time>
      </trkpt>
      <trkpt lat="38.74503533" lon="-0.05347467">
        <ele>243.0</ele>
        <time>2018-06-10T08:49:19.107Z</time>
      </trkpt>
      <trkpt lat="38.7450395" lon="-0.05336667">
        <ele>243.0</ele>
        <time>2018-06-10T08:49:20.107Z</time>
      </trkpt>
      <trkpt lat="38.7450465" lon="-0.05325817">
        <ele>242.0</ele>
        <time>2018-06-10T08:49:21.107Z</time>
      </trkpt>
      <trkpt lat="38.7450595" lon="-0.053149">
        <ele>242.0</ele>
        <time>2018-06-10T08:49:22.107Z</time>
      </trkpt>
      <trkpt lat="38.7450805" lon="-0.05304">
        <ele>242.0</ele>
        <time>2018-06-10T08:49:23.107Z</time>
      </trkpt>
      <trkpt lat="38.74511267" lon="-0.052933">
        <ele>241.0</ele>
        <time>2018-06-10T08:49:24.107Z</time>
      </trkpt>
      <trkpt lat="38.745156" lon="-0.05282983">
        <ele>241.0</ele>
        <time>2018-06-10T08:49:25.107Z</time>
      </trkpt>
      <trkpt lat="38.7452105" lon="-0.05273183">
        <ele>240.0</ele>
        <time>2018-06-10T08:49:26.107Z</time>
      </trkpt>
      <trkpt lat="38.745277" lon="-0.05263917">
        <ele>240.0</ele>
        <time>2018-06-10T08:49:27.107Z</time>
      </trkpt>
      <trkpt lat="38.74535367" lon="-0.05255133">
        <ele>240.0</ele>
        <time>2018-06-10T08:49:28.107Z</time>
      </trkpt>
      <trkpt lat="38.74543733" lon="-0.05246667">
        <ele>239.0</ele>
        <time>2018-06-10T08:49:29.107Z</time>
      </trkpt>
      <trkpt lat="38.7455225" lon="-0.05238383">
        <ele>239.0</ele>
        <time>2018-06-10T08:49:30.107Z</time>
      </trkpt>
      <trkpt lat="38.74560717" lon="-0.05230117">
        <ele>238.0</ele>
        <time>2018-06-10T08:49:31.107Z</time>
      </trkpt>
      <trkpt lat="38.74569167" lon="-0.0522195">
        <ele>238.0</ele>
        <time>2018-06-10T08:49:32.107Z</time>
      </trkpt>
      <trkpt lat="38.74577617" lon="-0.0521395">
        <ele>238.0</ele>
        <time>2018-06-10T08:49:33.107Z</time>
      </trkpt>
      <trkpt lat="38.74586" lon="-0.05206133">
        <ele>238.0</ele>
        <time>2018-06-10T08:49:34.107Z</time>
      </trkpt>
      <trkpt lat="38.7459425" lon="-0.05198417">
        <ele>238.0</ele>
        <time>2018-06-10T08:49:35.107Z</time>
      </trkpt>
      <trkpt lat="38.74602183" lon="-0.05190667">
        <ele>238.0</ele>
        <time>2018-06-10T08:49:36.107Z</time>
      </trkpt>
      <trkpt lat="38.74609767" lon="-0.05182767">
        <ele>238.0</ele>
        <time>2018-06-10T08:49:37.107Z</time>
      </trkpt>
      <trkpt lat="38.74616833" lon="-0.0517435">
        <ele>237.0</ele>
        <time>2018-06-10T08:49:38.107Z</time>
      </trkpt>
      <trkpt lat="38.74623383" lon="-0.0516525">
        <ele>236.0</ele>
        <time>2018-06-10T08:49:39.107Z</time>
      </trkpt>
      <trkpt lat="38.74629033" lon="-0.05155233">
        <ele>236.0</ele>
        <time>2018-06-10T08:49:40.107Z</time>
      </trkpt>
      <trkpt lat="38.74634017" lon="-0.05144467">
        <ele>235.0</ele>
        <time>2018-06-10T08:49:41.107Z</time>
      </trkpt>
      <trkpt lat="38.74638533" lon="-0.05133017">
        <ele>235.0</ele>
        <time>2018-06-10T08:49:42.107Z</time>
      </trkpt>
      <trkpt lat="38.7464315" lon="-0.05121117">
        <ele>235.0</ele>
        <time>2018-06-10T08:49:43.107Z</time>
      </trkpt>
      <trkpt lat="38.746478" lon="-0.051088">
        <ele>234.0</ele>
        <time>2018-06-10T08:49:44.107Z</time>
      </trkpt>
      <trkpt lat="38.74652533" lon="-0.05096167">
        <ele>233.0</ele>
        <time>2018-06-10T08:49:45.107Z</time>
      </trkpt>
      <trkpt lat="38.74657367" lon="-0.05083267">
        <ele>233.0</ele>
        <time>2018-06-10T08:49:46.107Z</time>
      </trkpt>
      <trkpt lat="38.7466235" lon="-0.05070083">
        <ele>232.0</ele>
        <time>2018-06-10T08:49:47.107Z</time>
      </trkpt>
      <trkpt lat="38.74667367" lon="-0.05056683">
        <ele>231.0</ele>
        <time>2018-06-10T08:49:48.107Z</time>
      </trkpt>
      <trkpt lat="38.7467245" lon="-0.05043083">
        <ele>231.0</ele>
        <time>2018-06-10T08:49:49.107Z</time>
      </trkpt>
      <trkpt lat="38.74677567" lon="-0.050293">
        <ele>230.0</ele>
        <time>2018-06-10T08:49:50.107Z</time>
      </trkpt>
      <trkpt lat="38.7468275" lon="-0.05015333">
        <ele>230.0</ele>
        <time>2018-06-10T08:49:51.107Z</time>
      </trkpt>
      <trkpt lat="38.74687983" lon="-0.05001183">
        <ele>229.0</ele>
        <time>2018-06-10T08:49:52.107Z</time>
      </trkpt>
      <trkpt lat="38.74693333" lon="-0.04986867">
        <ele>228.0</ele>
        <time>2018-06-10T08:49:53.107Z</time>
      </trkpt>
      <trkpt lat="38.74698783" lon="-0.0497235">
        <ele>228.0</ele>
        <time>2018-06-10T08:49:54.107Z</time>
      </trkpt>
      <trkpt lat="38.74704283" lon="-0.0495765">
        <ele>227.0</ele>
        <time>2018-06-10T08:49:55.107Z</time>
      </trkpt>
      <trkpt lat="38.74709733" lon="-0.0494285">
        <ele>226.0</ele>
        <time>2018-06-10T08:49:56.107Z</time>
      </trkpt>
      <trkpt lat="38.74715183" lon="-0.04928067">
        <ele>226.0</ele>
        <time>2018-06-10T08:49:57.107Z</time>
      </trkpt>
      <trkpt lat="38.74720633" lon="-0.04913417">
        <ele>225.0</ele>
        <time>2018-06-10T08:49:58.107Z</time>
      </trkpt>
      <trkpt lat="38.7472615" lon="-0.04898717">
        <ele>224.0</ele>
        <time>2018-06-10T08:49:59.107Z</time>
      </trkpt>
      <trkpt lat="38.747317" lon="-0.04884067">
        <ele>224.0</ele>
        <time>2018-06-10T08:50:00.107Z</time>
      </trkpt>
      <trkpt lat="38.74737233" lon="-0.04869333">
        <ele>224.0</ele>
        <time>2018-06-10T08:50:01.107Z</time>
      </trkpt>
      <trkpt lat="38.74742633" lon="-0.0485465">
        <ele>223.0</ele>
        <time>2018-06-10T08:50:02.107Z</time>
      </trkpt>
      <trkpt lat="38.7474795" lon="-0.0484">
        <ele>223.0</ele>
        <time>2018-06-10T08:50:03.107Z</time>
      </trkpt>
      <trkpt lat="38.747532" lon="-0.0482535">
        <ele>222.0</ele>
        <time>2018-06-10T08:50:04.107Z</time>
      </trkpt>
      <trkpt lat="38.747585" lon="-0.04810817">
        <ele>222.0</ele>
        <time>2018-06-10T08:50:05.107Z</time>
      </trkpt>
      <trkpt lat="38.747639" lon="-0.04796367">
        <ele>222.0</ele>
        <time>2018-06-10T08:50:06.107Z</time>
      </trkpt>
      <trkpt lat="38.74769317" lon="-0.04781983">
        <ele>221.0</ele>
        <time>2018-06-10T08:50:07.107Z</time>
      </trkpt>
      <trkpt lat="38.74774683" lon="-0.04767583">
        <ele>221.0</ele>
        <time>2018-06-10T08:50:08.107Z</time>
      </trkpt>
      <trkpt lat="38.74779817" lon="-0.0475305">
        <ele>220.0</ele>
        <time>2018-06-10T08:50:09.107Z</time>
      </trkpt>
      <trkpt lat="38.74784633" lon="-0.04738333">
        <ele>219.0</ele>
        <time>2018-06-10T08:50:10.107Z</time>
      </trkpt>
      <trkpt lat="38.74789" lon="-0.04723317">
        <ele>219.0</ele>
        <time>2018-06-10T08:50:11.107Z</time>
      </trkpt>
      <trkpt lat="38.74792817" lon="-0.04707917">
        <ele>218.0</ele>
        <time>2018-06-10T08:50:12.107Z</time>
      </trkpt>
      <trkpt lat="38.7479595" lon="-0.04692133">
        <ele>217.0</ele>
        <time>2018-06-10T08:50:13.107Z</time>
      </trkpt>
      <trkpt lat="38.747984" lon="-0.04676017">
        <ele>216.0</ele>
        <time>2018-06-10T08:50:14.107Z</time>
      </trkpt>
      <trkpt lat="38.74800217" lon="-0.04659617">
        <ele>215.0</ele>
        <time>2018-06-10T08:50:15.107Z</time>
      </trkpt>
      <trkpt lat="38.74801517" lon="-0.04642933">
        <ele>215.0</ele>
        <time>2018-06-10T08:50:16.107Z</time>
      </trkpt>
      <trkpt lat="38.74802533" lon="-0.04626017">
        <ele>215.0</ele>
        <time>2018-06-10T08:50:17.107Z</time>
      </trkpt>
      <trkpt lat="38.74803283" lon="-0.04609033">
        <ele>215.0</ele>
        <time>2018-06-10T08:50:18.107Z</time>
      </trkpt>
      <trkpt lat="38.74803867" lon="-0.04592217">
        <ele>214.0</ele>
        <time>2018-06-10T08:50:19.107Z</time>
      </trkpt>
      <trkpt lat="38.74804283" lon="-0.04575683">
        <ele>214.0</ele>
        <time>2018-06-10T08:50:20.107Z</time>
      </trkpt>
      <trkpt lat="38.74804717" lon="-0.0455955">
        <ele>214.0</ele>
        <time>2018-06-10T08:50:21.107Z</time>
      </trkpt>
      <trkpt lat="38.74805217" lon="-0.04543733">
        <ele>214.0</ele>
        <time>2018-06-10T08:50:22.107Z</time>
      </trkpt>
      <trkpt lat="38.74805783" lon="-0.04528133">
        <ele>214.0</ele>
        <time>2018-06-10T08:50:23.107Z</time>
      </trkpt>
      <trkpt lat="38.74806367" lon="-0.04512583">
        <ele>214.0</ele>
        <time>2018-06-10T08:50:24.107Z</time>
      </trkpt>
      <trkpt lat="38.74806983" lon="-0.04496983">
        <ele>213.0</ele>
        <time>2018-06-10T08:50:25.107Z</time>
      </trkpt>
      <trkpt lat="38.748076" lon="-0.04481383">
        <ele>213.0</ele>
        <time>2018-06-10T08:50:26.107Z</time>
      </trkpt>
      <trkpt lat="38.74808417" lon="-0.04465983">
        <ele>213.0</ele>
        <time>2018-06-10T08:50:27.107Z</time>
      </trkpt>
      <trkpt lat="38.74809783" lon="-0.04451">
        <ele>214.0</ele>
        <time>2018-06-10T08:50:28.107Z</time>
      </trkpt>
      <trkpt lat="38.74812033" lon="-0.04436667">
        <ele>215.0</ele>
        <time>2018-06-10T08:50:29.107Z</time>
      </trkpt>
      <trkpt lat="38.748151" lon="-0.04423233">
        <ele>215.0</ele>
        <time>2018-06-10T08:50:30.107Z</time>
      </trkpt>
      <trkpt lat="38.74819933" lon="-0.044112">
        <ele>214.0</ele>
        <time>2018-06-10T08:50:31.107Z</time>
      </trkpt>
      <trkpt lat="38.7482635" lon="-0.04400783">
        <ele>214.0</ele>
        <time>2018-06-10T08:50:32.107Z</time>
      </trkpt>
      <trkpt lat="38.748344" lon="-0.04392133">
        <ele>214.0</ele>
        <time>2018-06-10T08:50:33.107Z</time>
      </trkpt>
      <trkpt lat="38.74842667" lon="-0.0438475">
        <ele>214.0</ele>
        <time>2018-06-10T08:50:34.107Z</time>
      </trkpt>
      <trkpt lat="38.74850783" lon="-0.043782">
        <ele>215.0</ele>
        <time>2018-06-10T08:50:35.107Z</time>
      </trkpt>
      <trkpt lat="38.74858617" lon="-0.04372067">
        <ele>215.0</ele>
        <time>2018-06-10T08:50:36.107Z</time>
      </trkpt>
      <trkpt lat="38.748663" lon="-0.04366233">
        <ele>216.0</ele>
        <time>2018-06-10T08:50:37.107Z</time>
      </trkpt>
      <trkpt lat="38.74873933" lon="-0.043607">
        <ele>216.0</ele>
        <time>2018-06-10T08:50:38.107Z</time>
      </trkpt>
      <trkpt lat="38.74881417" lon="-0.04355333">
        <ele>216.0</ele>
        <time>2018-06-10T08:50:39.107Z</time>
      </trkpt>
      <trkpt lat="38.748888" lon="-0.0435015">
        <ele>217.0</ele>
        <time>2018-06-10T08:50:40.107Z</time>
      </trkpt>
      <trkpt lat="38.748961" lon="-0.043451">
        <ele>217.0</ele>
        <time>2018-06-10T08:50:41.107Z</time>
      </trkpt>
      <trkpt lat="38.74903317" lon="-0.04340067">
        <ele>217.0</ele>
        <time>2018-06-10T08:50:42.107Z</time>
      </trkpt>
      <trkpt lat="38.74910433" lon="-0.043351">
        <ele>218.0</ele>
        <time>2018-06-10T08:50:43.107Z</time>
      </trkpt>
      <trkpt lat="38.74917483" lon="-0.04330117">
        <ele>218.0</ele>
        <time>2018-06-10T08:50:44.107Z</time>
      </trkpt>
      <trkpt lat="38.74924567" lon="-0.04325167">
        <ele>218.0</ele>
        <time>2018-06-10T08:50:45.107Z</time>
      </trkpt>
      <trkpt lat="38.74931717" lon="-0.04320167">
        <ele>218.0</ele>
        <time>2018-06-10T08:50:46.107Z</time>
      </trkpt>
      <trkpt lat="38.74939" lon="-0.04315183">
        <ele>218.0</ele>
        <time>2018-06-10T08:50:47.107Z</time>
      </trkpt>
      <trkpt lat="38.7494645" lon="-0.04310183">
        <ele>218.0</ele>
        <time>2018-06-10T08:50:48.107Z</time>
      </trkpt>
      <trkpt lat="38.749541" lon="-0.04305067">
        <ele>217.0</ele>
        <time>2018-06-10T08:50:49.107Z</time>
      </trkpt>
      <trkpt lat="38.749619" lon="-0.04299817">
        <ele>217.0</ele>
        <time>2018-06-10T08:50:50.107Z</time>
      </trkpt>
      <trkpt lat="38.74969817" lon="-0.042944">
        <ele>217.0</ele>
        <time>2018-06-10T08:50:51.107Z</time>
      </trkpt>
      <trkpt lat="38.7497785" lon="-0.0428895">
        <ele>217.0</ele>
        <time>2018-06-10T08:50:52.107Z</time>
      </trkpt>
      <trkpt lat="38.74986" lon="-0.04283533">
        <ele>217.0</ele>
        <time>2018-06-10T08:50:53.107Z</time>
      </trkpt>
      <trkpt lat="38.7499415" lon="-0.042783">
        <ele>218.0</ele>
        <time>2018-06-10T08:50:54.107Z</time>
      </trkpt>
      <trkpt lat="38.75002317" lon="-0.042734">
        <ele>218.0</ele>
        <time>2018-06-10T08:50:55.107Z</time>
      </trkpt>
      <trkpt lat="38.75010533" lon="-0.0426915">
        <ele>218.0</ele>
        <time>2018-06-10T08:50:56.107Z</time>
      </trkpt>
      <trkpt lat="38.75019017" lon="-0.04265883">
        <ele>217.0</ele>
        <time>2018-06-10T08:50:57.107Z</time>
      </trkpt>
      <trkpt lat="38.75027783" lon="-0.04263617">
        <ele>217.0</ele>
        <time>2018-06-10T08:50:58.107Z</time>
      </trkpt>
      <trkpt lat="38.75036683" lon="-0.04262083">
        <ele>217.0</ele>
        <time>2018-06-10T08:50:59.107Z</time>
      </trkpt>
      <trkpt lat="38.7504545" lon="-0.04260783">
        <ele>217.0</ele>
        <time>2018-06-10T08:51:00.107Z</time>
      </trkpt>
      <trkpt lat="38.7505395" lon="-0.04259533">
        <ele>218.0</ele>
        <time>2018-06-10T08:51:01.107Z</time>
      </trkpt>
      <trkpt lat="38.750622" lon="-0.04258283">
        <ele>218.0</ele>
        <time>2018-06-10T08:51:02.107Z</time>
      </trkpt>
      <trkpt lat="38.750702" lon="-0.04257017">
        <ele>218.0</ele>
        <time>2018-06-10T08:51:03.107Z</time>
      </trkpt>
      <trkpt lat="38.75077917" lon="-0.04255617">
        <ele>219.0</ele>
        <time>2018-06-10T08:51:04.107Z</time>
      </trkpt>
      <trkpt lat="38.75085333" lon="-0.04253717">
        <ele>219.0</ele>
        <time>2018-06-10T08:51:05.107Z</time>
      </trkpt>
      <trkpt lat="38.75092433" lon="-0.04251133">
        <ele>220.0</ele>
        <time>2018-06-10T08:51:06.107Z</time>
      </trkpt>
      <trkpt lat="38.7509915" lon="-0.0424765">
        <ele>220.0</ele>
        <time>2018-06-10T08:51:07.107Z</time>
      </trkpt>
      <trkpt lat="38.751054" lon="-0.042435">
        <ele>221.0</ele>
        <time>2018-06-10T08:51:08.107Z</time>
      </trkpt>
      <trkpt lat="38.75111233" lon="-0.04238867">
        <ele>221.0</ele>
        <time>2018-06-10T08:51:09.107Z</time>
      </trkpt>
      <trkpt lat="38.75116817" lon="-0.04234217">
        <ele>222.0</ele>
        <time>2018-06-10T08:51:10.107Z</time>
      </trkpt>
      <trkpt lat="38.751224" lon="-0.04229733">
        <ele>222.0</ele>
        <time>2018-06-10T08:51:11.107Z</time>
      </trkpt>
      <trkpt lat="38.75128" lon="-0.042256">
        <ele>222.0</ele>
        <time>2018-06-10T08:51:12.107Z</time>
      </trkpt>
      <trkpt lat="38.75133633" lon="-0.04221667">
        <ele>223.0</ele>
        <time>2018-06-10T08:51:13.107Z</time>
      </trkpt>
      <trkpt lat="38.75139283" lon="-0.04217917">
        <ele>223.0</ele>
        <time>2018-06-10T08:51:14.107Z</time>
      </trkpt>
      <trkpt lat="38.75144917" lon="-0.042142">
        <ele>224.0</ele>
        <time>2018-06-10T08:51:15.107Z</time>
      </trkpt>
      <trkpt lat="38.75150417" lon="-0.04210567">
        <ele>224.0</ele>
        <time>2018-06-10T08:51:16.107Z</time>
      </trkpt>
      <trkpt lat="38.75155733" lon="-0.042069">
        <ele>224.0</ele>
        <time>2018-06-10T08:51:17.107Z</time>
      </trkpt>
      <trkpt lat="38.75160817" lon="-0.04203267">
        <ele>224.0</ele>
        <time>2018-06-10T08:51:18.107Z</time>
      </trkpt>
      <trkpt lat="38.75165767" lon="-0.04199667">
        <ele>225.0</ele>
        <time>2018-06-10T08:51:19.107Z</time>
      </trkpt>
      <trkpt lat="38.75170583" lon="-0.04196183">
        <ele>225.0</ele>
        <time>2018-06-10T08:51:20.107Z</time>
      </trkpt>
      <trkpt lat="38.7517535" lon="-0.04192767">
        <ele>225.0</ele>
        <time>2018-06-10T08:51:21.107Z</time>
      </trkpt>
      <trkpt lat="38.7518" lon="-0.04189183">
        <ele>226.0</ele>
        <time>2018-06-10T08:51:22.107Z</time>
      </trkpt>
      <trkpt lat="38.7518425" lon="-0.04184717">
        <ele>226.0</ele>
        <time>2018-06-10T08:51:23.107Z</time>
      </trkpt>
      <trkpt lat="38.751878" lon="-0.04179017">
        <ele>226.0</ele>
        <time>2018-06-10T08:51:24.107Z</time>
      </trkpt>
      <trkpt lat="38.75189783" lon="-0.04172033">
        <ele>225.0</ele>
        <time>2018-06-10T08:51:25.107Z</time>
      </trkpt>
      <trkpt lat="38.7518985" lon="-0.04164383">
        <ele>225.0</ele>
        <time>2018-06-10T08:51:26.107Z</time>
      </trkpt>
      <trkpt lat="38.75188267" lon="-0.04156567">
        <ele>226.0</ele>
        <time>2018-06-10T08:51:27.107Z</time>
      </trkpt>
      <trkpt lat="38.75186" lon="-0.0414895">
        <ele>226.0</ele>
        <time>2018-06-10T08:51:28.107Z</time>
      </trkpt>
      <trkpt lat="38.75183583" lon="-0.0414175">
        <ele>227.0</ele>
        <time>2018-06-10T08:51:29.107Z</time>
      </trkpt>
      <trkpt lat="38.75180983" lon="-0.04134983">
        <ele>227.0</ele>
        <time>2018-06-10T08:51:30.107Z</time>
      </trkpt>
      <trkpt lat="38.75178133" lon="-0.04128583">
        <ele>228.0</ele>
        <time>2018-06-10T08:51:31.107Z</time>
      </trkpt>
      <trkpt lat="38.751751" lon="-0.04122417">
        <ele>228.0</ele>
        <time>2018-06-10T08:51:32.107Z</time>
      </trkpt>
      <trkpt lat="38.75172" lon="-0.04116433">
        <ele>228.0</ele>
        <time>2018-06-10T08:51:33.107Z</time>
      </trkpt>
      <trkpt lat="38.75168833" lon="-0.04110617">
        <ele>229.0</ele>
        <time>2018-06-10T08:51:34.107Z</time>
      </trkpt>
      <trkpt lat="38.75165617" lon="-0.04104967">
        <ele>229.0</ele>
        <time>2018-06-10T08:51:35.107Z</time>
      </trkpt>
      <trkpt lat="38.7516235" lon="-0.0409935">
        <ele>229.0</ele>
        <time>2018-06-10T08:51:36.107Z</time>
      </trkpt>
      <trkpt lat="38.75159067" lon="-0.0409375">
        <ele>230.0</ele>
        <time>2018-06-10T08:51:37.107Z</time>
      </trkpt>
      <trkpt lat="38.75155733" lon="-0.04088117">
        <ele>230.0</ele>
        <time>2018-06-10T08:51:38.107Z</time>
      </trkpt>
      <trkpt lat="38.751524" lon="-0.04082483">
        <ele>230.0</ele>
        <time>2018-06-10T08:51:39.107Z</time>
      </trkpt>
      <trkpt lat="38.75149167" lon="-0.04076817">
        <ele>230.0</ele>
        <time>2018-06-10T08:51:40.107Z</time>
      </trkpt>
      <trkpt lat="38.7514605" lon="-0.04071083">
        <ele>230.0</ele>
        <time>2018-06-10T08:51:41.107Z</time>
      </trkpt>
      <trkpt lat="38.7514305" lon="-0.04065283">
        <ele>230.0</ele>
        <time>2018-06-10T08:51:42.107Z</time>
      </trkpt>
      <trkpt lat="38.7514015" lon="-0.04059483">
        <ele>230.0</ele>
        <time>2018-06-10T08:51:43.107Z</time>
      </trkpt>
      <trkpt lat="38.7513725" lon="-0.04053867">
        <ele>230.0</ele>
        <time>2018-06-10T08:51:44.107Z</time>
      </trkpt>
      <trkpt lat="38.751344" lon="-0.04048517">
        <ele>231.0</ele>
        <time>2018-06-10T08:51:45.107Z</time>
      </trkpt>
      <trkpt lat="38.751315" lon="-0.04043433">
        <ele>231.0</ele>
        <time>2018-06-10T08:51:46.107Z</time>
      </trkpt>
      <trkpt lat="38.75128617" lon="-0.04038383">
        <ele>231.0</ele>
        <time>2018-06-10T08:51:47.107Z</time>
      </trkpt>
      <trkpt lat="38.7512575" lon="-0.04033333">
        <ele>230.0</ele>
        <time>2018-06-10T08:51:48.107Z</time>
      </trkpt>
      <trkpt lat="38.75122967" lon="-0.040279">
        <ele>231.0</ele>
        <time>2018-06-10T08:51:49.107Z</time>
      </trkpt>
      <trkpt lat="38.7512035" lon="-0.04021917">
        <ele>230.0</ele>
        <time>2018-06-10T08:51:50.107Z</time>
      </trkpt>
      <trkpt lat="38.75117967" lon="-0.04014783">
        <ele>230.0</ele>
        <time>2018-06-10T08:51:51.107Z</time>
      </trkpt>
      <trkpt lat="38.75115867" lon="-0.04006633">
        <ele>229.0</ele>
        <time>2018-06-10T08:51:52.107Z</time>
      </trkpt>
      <trkpt lat="38.75114017" lon="-0.03997367">
        <ele>229.0</ele>
        <time>2018-06-10T08:51:53.107Z</time>
      </trkpt>
      <trkpt lat="38.75112417" lon="-0.03987233">
        <ele>228.0</ele>
        <time>2018-06-10T08:51:54.107Z</time>
      </trkpt>
      <trkpt lat="38.75111033" lon="-0.039761">
        <ele>227.0</ele>
        <time>2018-06-10T08:51:55.107Z</time>
      </trkpt>
      <trkpt lat="38.75109717" lon="-0.03964">
        <ele>226.0</ele>
        <time>2018-06-10T08:51:56.107Z</time>
      </trkpt>
      <trkpt lat="38.7510785" lon="-0.03951167">
        <ele>225.0</ele>
        <time>2018-06-10T08:51:57.107Z</time>
      </trkpt>
      <trkpt lat="38.75104783" lon="-0.03937917">
        <ele>224.0</ele>
        <time>2018-06-10T08:51:58.107Z</time>
      </trkpt>
      <trkpt lat="38.75100183" lon="-0.03924567">
        <ele>223.0</ele>
        <time>2018-06-10T08:51:59.107Z</time>
      </trkpt>
      <trkpt lat="38.75094183" lon="-0.03911517">
        <ele>222.0</ele>
        <time>2018-06-10T08:52:00.107Z</time>
      </trkpt>
      <trkpt lat="38.7508715" lon="-0.03898983">
        <ele>222.0</ele>
        <time>2018-06-10T08:52:01.107Z</time>
      </trkpt>
      <trkpt lat="38.75079217" lon="-0.03887183">
        <ele>221.0</ele>
        <time>2018-06-10T08:52:02.107Z</time>
      </trkpt>
      <trkpt lat="38.75070567" lon="-0.03876133">
        <ele>221.0</ele>
        <time>2018-06-10T08:52:03.107Z</time>
      </trkpt>
      <trkpt lat="38.7506135" lon="-0.03865867">
        <ele>220.0</ele>
        <time>2018-06-10T08:52:04.107Z</time>
      </trkpt>
      <trkpt lat="38.75051667" lon="-0.03856383">
        <ele>220.0</ele>
        <time>2018-06-10T08:52:05.107Z</time>
      </trkpt>
      <trkpt lat="38.75041583" lon="-0.03847867">
        <ele>220.0</ele>
        <time>2018-06-10T08:52:06.107Z</time>
      </trkpt>
      <trkpt lat="38.75031183" lon="-0.03840167">
        <ele>220.0</ele>
        <time>2018-06-10T08:52:07.107Z</time>
      </trkpt>
      <trkpt lat="38.75020617" lon="-0.03832867">
        <ele>220.0</ele>
        <time>2018-06-10T08:52:08.107Z</time>
      </trkpt>
      <trkpt lat="38.75010117" lon="-0.03825283">
        <ele>220.0</ele>
        <time>2018-06-10T08:52:09.107Z</time>
      </trkpt>
      <trkpt lat="38.75000017" lon="-0.03816883">
        <ele>219.0</ele>
        <time>2018-06-10T08:52:10.107Z</time>
      </trkpt>
      <trkpt lat="38.7499065" lon="-0.03807183">
        <ele>220.0</ele>
        <time>2018-06-10T08:52:11.107Z</time>
      </trkpt>
      <trkpt lat="38.74982583" lon="-0.03795933">
        <ele>219.0</ele>
        <time>2018-06-10T08:52:12.107Z</time>
      </trkpt>
      <trkpt lat="38.74975967" lon="-0.03783367">
        <ele>218.0</ele>
        <time>2018-06-10T08:52:13.107Z</time>
      </trkpt>
      <trkpt lat="38.74970867" lon="-0.037699">
        <ele>218.0</ele>
        <time>2018-06-10T08:52:14.107Z</time>
      </trkpt>
      <trkpt lat="38.74966783" lon="-0.03756017">
        <ele>218.0</ele>
        <time>2018-06-10T08:52:15.107Z</time>
      </trkpt>
      <trkpt lat="38.749634" lon="-0.0374185">
        <ele>217.0</ele>
        <time>2018-06-10T08:52:16.107Z</time>
      </trkpt>
      <trkpt lat="38.74960933" lon="-0.03727433">
        <ele>218.0</ele>
        <time>2018-06-10T08:52:17.107Z</time>
      </trkpt>
      <trkpt lat="38.74958867" lon="-0.03712867">
        <ele>217.0</ele>
        <time>2018-06-10T08:52:18.107Z</time>
      </trkpt>
      <trkpt lat="38.749569" lon="-0.03698217">
        <ele>217.0</ele>
        <time>2018-06-10T08:52:19.107Z</time>
      </trkpt>
      <trkpt lat="38.74954283" lon="-0.036836">
        <ele>217.0</ele>
        <time>2018-06-10T08:52:20.107Z</time>
      </trkpt>
      <trkpt lat="38.74951083" lon="-0.036691">
        <ele>216.0</ele>
        <time>2018-06-10T08:52:21.107Z</time>
      </trkpt>
      <trkpt lat="38.749472" lon="-0.03654833">
        <ele>216.0</ele>
        <time>2018-06-10T08:52:22.107Z</time>
      </trkpt>
      <trkpt lat="38.74942483" lon="-0.03640867">
        <ele>215.0</ele>
        <time>2018-06-10T08:52:23.107Z</time>
      </trkpt>
      <trkpt lat="38.74936883" lon="-0.03627183">
        <ele>215.0</ele>
        <time>2018-06-10T08:52:24.107Z</time>
      </trkpt>
      <trkpt lat="38.74930633" lon="-0.03613567">
        <ele>214.0</ele>
        <time>2018-06-10T08:52:25.107Z</time>
      </trkpt>
      <trkpt lat="38.74923917" lon="-0.03599933">
        <ele>213.0</ele>
        <time>2018-06-10T08:52:26.107Z</time>
      </trkpt>
      <trkpt lat="38.74917033" lon="-0.03586217">
        <ele>212.0</ele>
        <time>2018-06-10T08:52:27.107Z</time>
      </trkpt>
      <trkpt lat="38.74909917" lon="-0.03572467">
        <ele>212.0</ele>
        <time>2018-06-10T08:52:28.107Z</time>
      </trkpt>
      <trkpt lat="38.74902683" lon="-0.03558667">
        <ele>211.0</ele>
        <time>2018-06-10T08:52:29.107Z</time>
      </trkpt>
      <trkpt lat="38.748954" lon="-0.03544767">
        <ele>211.0</ele>
        <time>2018-06-10T08:52:30.107Z</time>
      </trkpt>
      <trkpt lat="38.74888133" lon="-0.03530783">
        <ele>210.0</ele>
        <time>2018-06-10T08:52:31.107Z</time>
      </trkpt>
      <trkpt lat="38.748809" lon="-0.03516717">
        <ele>209.0</ele>
        <time>2018-06-10T08:52:32.107Z</time>
      </trkpt>
      <trkpt lat="38.74873667" lon="-0.03502683">
        <ele>209.0</ele>
        <time>2018-06-10T08:52:33.107Z</time>
      </trkpt>
      <trkpt lat="38.74866467" lon="-0.03488633">
        <ele>208.0</ele>
        <time>2018-06-10T08:52:34.107Z</time>
      </trkpt>
      <trkpt lat="38.748592" lon="-0.034746">
        <ele>208.0</ele>
        <time>2018-06-10T08:52:35.107Z</time>
      </trkpt>
      <trkpt lat="38.7485175" lon="-0.03460667">
        <ele>207.0</ele>
        <time>2018-06-10T08:52:36.107Z</time>
      </trkpt>
      <trkpt lat="38.74843967" lon="-0.034469">
        <ele>207.0</ele>
        <time>2018-06-10T08:52:37.107Z</time>
      </trkpt>
      <trkpt lat="38.74835767" lon="-0.03433383">
        <ele>206.0</ele>
        <time>2018-06-10T08:52:38.107Z</time>
      </trkpt>
      <trkpt lat="38.7482715" lon="-0.03420183">
        <ele>206.0</ele>
        <time>2018-06-10T08:52:39.107Z</time>
      </trkpt>
      <trkpt lat="38.748185" lon="-0.0340705">
        <ele>205.0</ele>
        <time>2018-06-10T08:52:40.107Z</time>
      </trkpt>
      <trkpt lat="38.748103" lon="-0.0339365">
        <ele>205.0</ele>
        <time>2018-06-10T08:52:41.107Z</time>
      </trkpt>
      <trkpt lat="38.74803317" lon="-0.033795">
        <ele>205.0</ele>
        <time>2018-06-10T08:52:42.107Z</time>
      </trkpt>
      <trkpt lat="38.74797883" lon="-0.033645">
        <ele>205.0</ele>
        <time>2018-06-10T08:52:43.107Z</time>
      </trkpt>
      <trkpt lat="38.74794167" lon="-0.03348783">
        <ele>205.0</ele>
        <time>2018-06-10T08:52:44.107Z</time>
      </trkpt>
      <trkpt lat="38.7479205" lon="-0.0333275">
        <ele>205.0</ele>
        <time>2018-06-10T08:52:45.107Z</time>
      </trkpt>
      <trkpt lat="38.74791267" lon="-0.033167">
        <ele>205.0</ele>
        <time>2018-06-10T08:52:46.107Z</time>
      </trkpt>
      <trkpt lat="38.747914" lon="-0.03300967">
        <ele>205.0</ele>
        <time>2018-06-10T08:52:47.107Z</time>
      </trkpt>
      <trkpt lat="38.747921" lon="-0.03285583">
        <ele>205.0</ele>
        <time>2018-06-10T08:52:48.107Z</time>
      </trkpt>
      <trkpt lat="38.74792983" lon="-0.032706">
        <ele>205.0</ele>
        <time>2018-06-10T08:52:49.107Z</time>
      </trkpt>
      <trkpt lat="38.74793917" lon="-0.03255933">
        <ele>206.0</ele>
        <time>2018-06-10T08:52:50.107Z</time>
      </trkpt>
      <trkpt lat="38.74794683" lon="-0.0324155">
        <ele>206.0</ele>
        <time>2018-06-10T08:52:51.107Z</time>
      </trkpt>
      <trkpt lat="38.7479515" lon="-0.03227333">
        <ele>206.0</ele>
        <time>2018-06-10T08:52:52.107Z</time>
      </trkpt>
      <trkpt lat="38.74794967" lon="-0.03213317">
        <ele>206.0</ele>
        <time>2018-06-10T08:52:53.107Z</time>
      </trkpt>
      <trkpt lat="38.74793833" lon="-0.03199633">
        <ele>207.0</ele>
        <time>2018-06-10T08:52:54.107Z</time>
      </trkpt>
      <trkpt lat="38.747917" lon="-0.031865">
        <ele>207.0</ele>
        <time>2018-06-10T08:52:55.107Z</time>
      </trkpt>
      <trkpt lat="38.74788867" lon="-0.031739">
        <ele>207.0</ele>
        <time>2018-06-10T08:52:56.107Z</time>
      </trkpt>
      <trkpt lat="38.74785717" lon="-0.03161833">
        <ele>208.0</ele>
        <time>2018-06-10T08:52:57.107Z</time>
      </trkpt>
      <trkpt lat="38.74782467" lon="-0.0315025">
        <ele>208.0</ele>
        <time>2018-06-10T08:52:58.107Z</time>
      </trkpt>
      <trkpt lat="38.7477915" lon="-0.03139117">
        <ele>209.0</ele>
        <time>2018-06-10T08:52:59.107Z</time>
      </trkpt>
      <trkpt lat="38.747759" lon="-0.03128317">
        <ele>209.0</ele>
        <time>2018-06-10T08:53:00.107Z</time>
      </trkpt>
      <trkpt lat="38.7477275" lon="-0.03117683">
        <ele>209.0</ele>
        <time>2018-06-10T08:53:01.107Z</time>
      </trkpt>
      <trkpt lat="38.74769817" lon="-0.03107017">
        <ele>209.0</ele>
        <time>2018-06-10T08:53:02.107Z</time>
      </trkpt>
      <trkpt lat="38.74767083" lon="-0.03096267">
        <ele>209.0</ele>
        <time>2018-06-10T08:53:03.107Z</time>
      </trkpt>
      <trkpt lat="38.7476445" lon="-0.0308545">
        <ele>209.0</ele>
        <time>2018-06-10T08:53:04.107Z</time>
      </trkpt>
      <trkpt lat="38.74761883" lon="-0.0307455">
        <ele>209.0</ele>
        <time>2018-06-10T08:53:05.107Z</time>
      </trkpt>
      <trkpt lat="38.74759133" lon="-0.03063533">
        <ele>209.0</ele>
        <time>2018-06-10T08:53:06.107Z</time>
      </trkpt>
      <trkpt lat="38.747562" lon="-0.030523">
        <ele>208.0</ele>
        <time>2018-06-10T08:53:07.107Z</time>
      </trkpt>
      <trkpt lat="38.74753" lon="-0.03040833">
        <ele>208.0</ele>
        <time>2018-06-10T08:53:08.107Z</time>
      </trkpt>
      <trkpt lat="38.74749833" lon="-0.03029083">
        <ele>208.0</ele>
        <time>2018-06-10T08:53:09.107Z</time>
      </trkpt>
      <trkpt lat="38.74746883" lon="-0.03017117">
        <ele>208.0</ele>
        <time>2018-06-10T08:53:10.107Z</time>
      </trkpt>
      <trkpt lat="38.74744267" lon="-0.03004917">
        <ele>207.0</ele>
        <time>2018-06-10T08:53:11.107Z</time>
      </trkpt>
      <trkpt lat="38.74741983" lon="-0.02992533">
        <ele>207.0</ele>
        <time>2018-06-10T08:53:12.107Z</time>
      </trkpt>
      <trkpt lat="38.7474" lon="-0.0298">
        <ele>207.0</ele>
        <time>2018-06-10T08:53:13.107Z</time>
      </trkpt>
      <trkpt lat="38.74738383" lon="-0.0296735">
        <ele>207.0</ele>
        <time>2018-06-10T08:53:14.107Z</time>
      </trkpt>
      <trkpt lat="38.7473705" lon="-0.02954583">
        <ele>207.0</ele>
        <time>2018-06-10T08:53:15.107Z</time>
      </trkpt>
      <trkpt lat="38.74735983" lon="-0.0294175">
        <ele>207.0</ele>
        <time>2018-06-10T08:53:16.107Z</time>
      </trkpt>
      <trkpt lat="38.74735083" lon="-0.029288">
        <ele>206.0</ele>
        <time>2018-06-10T08:53:17.107Z</time>
      </trkpt>
      <trkpt lat="38.74734133" lon="-0.02915767">
        <ele>206.0</ele>
        <time>2018-06-10T08:53:18.107Z</time>
      </trkpt>
      <trkpt lat="38.74732533" lon="-0.02902733">
        <ele>206.0</ele>
        <time>2018-06-10T08:53:19.107Z</time>
      </trkpt>
      <trkpt lat="38.7473" lon="-0.02889833">
        <ele>206.0</ele>
        <time>2018-06-10T08:53:20.107Z</time>
      </trkpt>
      <trkpt lat="38.7472645" lon="-0.028772">
        <ele>205.0</ele>
        <time>2018-06-10T08:53:21.107Z</time>
      </trkpt>
      <trkpt lat="38.74722233" lon="-0.028648">
        <ele>205.0</ele>
        <time>2018-06-10T08:53:22.107Z</time>
      </trkpt>
      <trkpt lat="38.74717483" lon="-0.02852667">
        <ele>204.0</ele>
        <time>2018-06-10T08:53:23.107Z</time>
      </trkpt>
      <trkpt lat="38.7471245" lon="-0.02840533">
        <ele>204.0</ele>
        <time>2018-06-10T08:53:24.107Z</time>
      </trkpt>
      <trkpt lat="38.7470725" lon="-0.02828367">
        <ele>204.0</ele>
        <time>2018-06-10T08:53:25.107Z</time>
      </trkpt>
      <trkpt lat="38.74702067" lon="-0.02816017">
        <ele>204.0</ele>
        <time>2018-06-10T08:53:26.107Z</time>
      </trkpt>
      <trkpt lat="38.74697017" lon="-0.02803517">
        <ele>203.0</ele>
        <time>2018-06-10T08:53:27.107Z</time>
      </trkpt>
      <trkpt lat="38.7469225" lon="-0.0279065">
        <ele>202.0</ele>
        <time>2018-06-10T08:53:28.107Z</time>
      </trkpt>
      <trkpt lat="38.746879" lon="-0.02777233">
        <ele>202.0</ele>
        <time>2018-06-10T08:53:29.107Z</time>
      </trkpt>
      <trkpt lat="38.74684" lon="-0.02763217">
        <ele>201.0</ele>
        <time>2018-06-10T08:53:30.107Z</time>
      </trkpt>
      <trkpt lat="38.74680483" lon="-0.02748633">
        <ele>200.0</ele>
        <time>2018-06-10T08:53:31.107Z</time>
      </trkpt>
      <trkpt lat="38.74677317" lon="-0.02733583">
        <ele>199.0</ele>
        <time>2018-06-10T08:53:32.107Z</time>
      </trkpt>
      <trkpt lat="38.74674467" lon="-0.02718183">
        <ele>199.0</ele>
        <time>2018-06-10T08:53:33.107Z</time>
      </trkpt>
      <trkpt lat="38.74671883" lon="-0.02702483">
        <ele>198.0</ele>
        <time>2018-06-10T08:53:34.107Z</time>
      </trkpt>
      <trkpt lat="38.74669417" lon="-0.0268665">
        <ele>198.0</ele>
        <time>2018-06-10T08:53:35.107Z</time>
      </trkpt>
      <trkpt lat="38.7466695" lon="-0.0267085">
        <ele>198.0</ele>
        <time>2018-06-10T08:53:36.107Z</time>
      </trkpt>
      <trkpt lat="38.74664517" lon="-0.02655233">
        <ele>198.0</ele>
        <time>2018-06-10T08:53:37.107Z</time>
      </trkpt>
      <trkpt lat="38.7466215" lon="-0.02639917">
        <ele>198.0</ele>
        <time>2018-06-10T08:53:38.107Z</time>
      </trkpt>
      <trkpt lat="38.74659933" lon="-0.02624917">
        <ele>198.0</ele>
        <time>2018-06-10T08:53:39.107Z</time>
      </trkpt>
      <trkpt lat="38.74657767" lon="-0.02610317">
        <ele>198.0</ele>
        <time>2018-06-10T08:53:40.107Z</time>
      </trkpt>
      <trkpt lat="38.74655633" lon="-0.02596017">
        <ele>198.0</ele>
        <time>2018-06-10T08:53:41.107Z</time>
      </trkpt>
      <trkpt lat="38.74653533" lon="-0.02581933">
        <ele>198.0</ele>
        <time>2018-06-10T08:53:42.107Z</time>
      </trkpt>
      <trkpt lat="38.746515" lon="-0.02567883">
        <ele>198.0</ele>
        <time>2018-06-10T08:53:43.107Z</time>
      </trkpt>
      <trkpt lat="38.74649567" lon="-0.025537">
        <ele>197.0</ele>
        <time>2018-06-10T08:53:44.107Z</time>
      </trkpt>
      <trkpt lat="38.74647583" lon="-0.02539417">
        <ele>197.0</ele>
        <time>2018-06-10T08:53:45.107Z</time>
      </trkpt>
      <trkpt lat="38.74645583" lon="-0.02525017">
        <ele>197.0</ele>
        <time>2018-06-10T08:53:46.107Z</time>
      </trkpt>
      <trkpt lat="38.746433" lon="-0.0251065">
        <ele>196.0</ele>
        <time>2018-06-10T08:53:47.107Z</time>
      </trkpt>
      <trkpt lat="38.7464065" lon="-0.02496233">
        <ele>196.0</ele>
        <time>2018-06-10T08:53:48.107Z</time>
      </trkpt>
      <trkpt lat="38.746375" lon="-0.024818">
        <ele>196.0</ele>
        <time>2018-06-10T08:53:49.107Z</time>
      </trkpt>
      <trkpt lat="38.74633833" lon="-0.024673">
        <ele>195.0</ele>
        <time>2018-06-10T08:53:50.107Z</time>
      </trkpt>
      <trkpt lat="38.746295" lon="-0.024529">
        <ele>195.0</ele>
        <time>2018-06-10T08:53:51.107Z</time>
      </trkpt>
      <trkpt lat="38.74624517" lon="-0.02438533">
        <ele>195.0</ele>
        <time>2018-06-10T08:53:52.107Z</time>
      </trkpt>
      <trkpt lat="38.7461895" lon="-0.0242425">
        <ele>195.0</ele>
        <time>2018-06-10T08:53:53.107Z</time>
      </trkpt>
      <trkpt lat="38.7461305" lon="-0.0240995">
        <ele>195.0</ele>
        <time>2018-06-10T08:53:54.107Z</time>
      </trkpt>
      <trkpt lat="38.746069" lon="-0.02395683">
        <ele>195.0</ele>
        <time>2018-06-10T08:53:55.107Z</time>
      </trkpt>
      <trkpt lat="38.74600667" lon="-0.02381283">
        <ele>195.0</ele>
        <time>2018-06-10T08:53:56.107Z</time>
      </trkpt>
      <trkpt lat="38.74594433" lon="-0.02366817">
        <ele>194.0</ele>
        <time>2018-06-10T08:53:57.107Z</time>
      </trkpt>
      <trkpt lat="38.74588167" lon="-0.02352267">
        <ele>194.0</ele>
        <time>2018-06-10T08:53:58.107Z</time>
      </trkpt>
      <trkpt lat="38.7458185" lon="-0.0233775">
        <ele>194.0</ele>
        <time>2018-06-10T08:53:59.107Z</time>
      </trkpt>
      <trkpt lat="38.74575533" lon="-0.02323333">
        <ele>194.0</ele>
        <time>2018-06-10T08:54:00.107Z</time>
      </trkpt>
      <trkpt lat="38.7456925" lon="-0.02309033">
        <ele>194.0</ele>
        <time>2018-06-10T08:54:01.107Z</time>
      </trkpt>
      <trkpt lat="38.74563" lon="-0.02294867">
        <ele>194.0</ele>
        <time>2018-06-10T08:54:02.107Z</time>
      </trkpt>
      <trkpt lat="38.74556817" lon="-0.022808">
        <ele>194.0</ele>
        <time>2018-06-10T08:54:03.107Z</time>
      </trkpt>
      <trkpt lat="38.745507" lon="-0.02266783">
        <ele>194.0</ele>
        <time>2018-06-10T08:54:04.107Z</time>
      </trkpt>
      <trkpt lat="38.74544717" lon="-0.02252817">
        <ele>193.0</ele>
        <time>2018-06-10T08:54:05.107Z</time>
      </trkpt>
      <trkpt lat="38.74538917" lon="-0.022388">
        <ele>193.0</ele>
        <time>2018-06-10T08:54:06.107Z</time>
      </trkpt>
      <trkpt lat="38.74533383" lon="-0.0222465">
        <ele>193.0</ele>
        <time>2018-06-10T08:54:07.107Z</time>
      </trkpt>
      <trkpt lat="38.74528067" lon="-0.02210383">
        <ele>193.0</ele>
        <time>2018-06-10T08:54:08.107Z</time>
      </trkpt>
      <trkpt lat="38.7452295" lon="-0.02195983">
        <ele>192.0</ele>
        <time>2018-06-10T08:54:09.107Z</time>
      </trkpt>
      <trkpt lat="38.74518267" lon="-0.02181433">
        <ele>192.0</ele>
        <time>2018-06-10T08:54:10.107Z</time>
      </trkpt>
      <trkpt lat="38.74514167" lon="-0.02166667">
        <ele>191.0</ele>
        <time>2018-06-10T08:54:11.107Z</time>
      </trkpt>
      <trkpt lat="38.74511267" lon="-0.021517">
        <ele>191.0</ele>
        <time>2018-06-10T08:54:12.107Z</time>
      </trkpt>
      <trkpt lat="38.74509433" lon="-0.02136667">
        <ele>190.0</ele>
        <time>2018-06-10T08:54:13.107Z</time>
      </trkpt>
      <trkpt lat="38.74508967" lon="-0.02121817">
        <ele>190.0</ele>
        <time>2018-06-10T08:54:14.107Z</time>
      </trkpt>
      <trkpt lat="38.7450905" lon="-0.02107433">
        <ele>190.0</ele>
        <time>2018-06-10T08:54:15.107Z</time>
      </trkpt>
      <trkpt lat="38.745087" lon="-0.020939">
        <ele>190.0</ele>
        <time>2018-06-10T08:54:16.107Z</time>
      </trkpt>
      <trkpt lat="38.745067" lon="-0.02081633">
        <ele>190.0</ele>
        <time>2018-06-10T08:54:17.107Z</time>
      </trkpt>
      <trkpt lat="38.745012" lon="-0.0207145">
        <ele>190.0</ele>
        <time>2018-06-10T08:54:18.107Z</time>
      </trkpt>
      <trkpt lat="38.74493517" lon="-0.02063617">
        <ele>191.0</ele>
        <time>2018-06-10T08:54:19.107Z</time>
      </trkpt>
      <trkpt lat="38.74484317" lon="-0.02057967">
        <ele>192.0</ele>
        <time>2018-06-10T08:54:20.107Z</time>
      </trkpt>
      <trkpt lat="38.74475617" lon="-0.0205355">
        <ele>192.0</ele>
        <time>2018-06-10T08:54:21.107Z</time>
      </trkpt>
      <trkpt lat="38.74467067" lon="-0.02049683">
        <ele>192.0</ele>
        <time>2018-06-10T08:54:22.107Z</time>
      </trkpt>
      <trkpt lat="38.7445895" lon="-0.02045383">
        <ele>192.0</ele>
        <time>2018-06-10T08:54:23.107Z</time>
      </trkpt>
      <trkpt lat="38.744519" lon="-0.02039733">
        <ele>191.0</ele>
        <time>2018-06-10T08:54:24.107Z</time>
      </trkpt>
      <trkpt lat="38.74446783" lon="-0.0203145">
        <ele>191.0</ele>
        <time>2018-06-10T08:54:25.107Z</time>
      </trkpt>
      <trkpt lat="38.74443867" lon="-0.02021133">
        <ele>190.0</ele>
        <time>2018-06-10T08:54:26.107Z</time>
      </trkpt>
      <trkpt lat="38.74442733" lon="-0.02009433">
        <ele>190.0</ele>
        <time>2018-06-10T08:54:27.107Z</time>
      </trkpt>
      <trkpt lat="38.74442617" lon="-0.01997533">
        <ele>189.0</ele>
        <time>2018-06-10T08:54:28.107Z</time>
      </trkpt>
      <trkpt lat="38.74443067" lon="-0.01985133">
        <ele>189.0</ele>
        <time>2018-06-10T08:54:29.107Z</time>
      </trkpt>
      <trkpt lat="38.74443267" lon="-0.01972317">
        <ele>188.0</ele>
        <time>2018-06-10T08:54:30.107Z</time>
      </trkpt>
      <trkpt lat="38.74442317" lon="-0.01959267">
        <ele>188.0</ele>
        <time>2018-06-10T08:54:31.107Z</time>
      </trkpt>
      <trkpt lat="38.74439933" lon="-0.01946267">
        <ele>187.0</ele>
        <time>2018-06-10T08:54:32.107Z</time>
      </trkpt>
      <trkpt lat="38.74436617" lon="-0.01933517">
        <ele>187.0</ele>
        <time>2018-06-10T08:54:33.107Z</time>
      </trkpt>
      <trkpt lat="38.74433" lon="-0.019209">
        <ele>187.0</ele>
        <time>2018-06-10T08:54:34.107Z</time>
      </trkpt>
      <trkpt lat="38.74429183" lon="-0.01908483">
        <ele>187.0</ele>
        <time>2018-06-10T08:54:35.107Z</time>
      </trkpt>
      <trkpt lat="38.74425283" lon="-0.018962">
        <ele>187.0</ele>
        <time>2018-06-10T08:54:36.107Z</time>
      </trkpt>
      <trkpt lat="38.74421417" lon="-0.01884083">
        <ele>186.0</ele>
        <time>2018-06-10T08:54:37.107Z</time>
      </trkpt>
      <trkpt lat="38.74417667" lon="-0.01872067">
        <ele>186.0</ele>
        <time>2018-06-10T08:54:38.107Z</time>
      </trkpt>
      <trkpt lat="38.74414" lon="-0.01860233">
        <ele>186.0</ele>
        <time>2018-06-10T08:54:39.107Z</time>
      </trkpt>
      <trkpt lat="38.74410283" lon="-0.018486">
        <ele>186.0</ele>
        <time>2018-06-10T08:54:40.107Z</time>
      </trkpt>
      <trkpt lat="38.74406567" lon="-0.01837167">
        <ele>186.0</ele>
        <time>2018-06-10T08:54:41.107Z</time>
      </trkpt>
      <trkpt lat="38.74402883" lon="-0.01825883">
        <ele>186.0</ele>
        <time>2018-06-10T08:54:42.107Z</time>
      </trkpt>
      <trkpt lat="38.74399317" lon="-0.01814617">
        <ele>186.0</ele>
        <time>2018-06-10T08:54:43.107Z</time>
      </trkpt>
      <trkpt lat="38.7439585" lon="-0.01803383">
        <ele>186.0</ele>
        <time>2018-06-10T08:54:44.107Z</time>
      </trkpt>
      <trkpt lat="38.74392533" lon="-0.01792217">
        <ele>185.0</ele>
        <time>2018-06-10T08:54:45.107Z</time>
      </trkpt>
      <trkpt lat="38.74389317" lon="-0.0178115">
        <ele>185.0</ele>
        <time>2018-06-10T08:54:46.107Z</time>
      </trkpt>
      <trkpt lat="38.74386133" lon="-0.01770233">
        <ele>185.0</ele>
        <time>2018-06-10T08:54:47.107Z</time>
      </trkpt>
      <trkpt lat="38.74382917" lon="-0.01759467">
        <ele>185.0</ele>
        <time>2018-06-10T08:54:48.107Z</time>
      </trkpt>
      <trkpt lat="38.74379767" lon="-0.01748833">
        <ele>185.0</ele>
        <time>2018-06-10T08:54:49.107Z</time>
      </trkpt>
      <trkpt lat="38.74376733" lon="-0.01738317">
        <ele>185.0</ele>
        <time>2018-06-10T08:54:50.107Z</time>
      </trkpt>
      <trkpt lat="38.74373817" lon="-0.01727833">
        <ele>185.0</ele>
        <time>2018-06-10T08:54:51.107Z</time>
      </trkpt>
      <trkpt lat="38.74371" lon="-0.01717283">
        <ele>185.0</ele>
        <time>2018-06-10T08:54:52.107Z</time>
      </trkpt>
      <trkpt lat="38.74368367" lon="-0.01706667">
        <ele>185.0</ele>
        <time>2018-06-10T08:54:53.107Z</time>
      </trkpt>
      <trkpt lat="38.7436585" lon="-0.01695967">
        <ele>185.0</ele>
        <time>2018-06-10T08:54:54.107Z</time>
      </trkpt>
      <trkpt lat="38.74363367" lon="-0.01685483">
        <ele>184.0</ele>
        <time>2018-06-10T08:54:55.107Z</time>
      </trkpt>
      <trkpt lat="38.7436095" lon="-0.01674983">
        <ele>184.0</ele>
        <time>2018-06-10T08:54:56.107Z</time>
      </trkpt>
      <trkpt lat="38.74358617" lon="-0.0166435">
        <ele>184.0</ele>
        <time>2018-06-10T08:54:57.107Z</time>
      </trkpt>
      <trkpt lat="38.743564" lon="-0.01653467">
        <ele>184.0</ele>
        <time>2018-06-10T08:54:58.107Z</time>
      </trkpt>
      <trkpt lat="38.74354217" lon="-0.01642467">
        <ele>184.0</ele>
        <time>2018-06-10T08:54:59.107Z</time>
      </trkpt>
      <trkpt lat="38.74352167" lon="-0.01631467">
        <ele>184.0</ele>
        <time>2018-06-10T08:55:00.107Z</time>
      </trkpt>
      <trkpt lat="38.74350233" lon="-0.01620467">
        <ele>184.0</ele>
        <time>2018-06-10T08:55:01.107Z</time>
      </trkpt>
      <trkpt lat="38.74348383" lon="-0.016095">
        <ele>184.0</ele>
        <time>2018-06-10T08:55:02.107Z</time>
      </trkpt>
      <trkpt lat="38.743465" lon="-0.01598567">
        <ele>184.0</ele>
        <time>2018-06-10T08:55:03.107Z</time>
      </trkpt>
      <trkpt lat="38.74344333" lon="-0.01587583">
        <ele>184.0</ele>
        <time>2018-06-10T08:55:04.107Z</time>
      </trkpt>
      <trkpt lat="38.74341733" lon="-0.01576617">
        <ele>184.0</ele>
        <time>2018-06-10T08:55:05.107Z</time>
      </trkpt>
      <trkpt lat="38.74338583" lon="-0.0156575">
        <ele>184.0</ele>
        <time>2018-06-10T08:55:06.107Z</time>
      </trkpt>
      <trkpt lat="38.743349" lon="-0.01555217">
        <ele>184.0</ele>
        <time>2018-06-10T08:55:07.107Z</time>
      </trkpt>
      <trkpt lat="38.74330917" lon="-0.01544883">
        <ele>184.0</ele>
        <time>2018-06-10T08:55:08.107Z</time>
      </trkpt>
      <trkpt lat="38.74326617" lon="-0.01535017">
        <ele>184.0</ele>
        <time>2018-06-10T08:55:09.107Z</time>
      </trkpt>
      <trkpt lat="38.74322167" lon="-0.01525617">
        <ele>185.0</ele>
        <time>2018-06-10T08:55:10.107Z</time>
      </trkpt>
      <trkpt lat="38.74317167" lon="-0.01516683">
        <ele>184.0</ele>
        <time>2018-06-10T08:55:11.107Z</time>
      </trkpt>
      <trkpt lat="38.743116" lon="-0.01508017">
        <ele>185.0</ele>
        <time>2018-06-10T08:55:12.107Z</time>
      </trkpt>
      <trkpt lat="38.74305717" lon="-0.01499517">
        <ele>184.0</ele>
        <time>2018-06-10T08:55:13.107Z</time>
      </trkpt>
      <trkpt lat="38.74299867" lon="-0.01491133">
        <ele>184.0</ele>
        <time>2018-06-10T08:55:14.107Z</time>
      </trkpt>
      <trkpt lat="38.74294333" lon="-0.01482567">
        <ele>184.0</ele>
        <time>2018-06-10T08:55:15.107Z</time>
      </trkpt>
      <trkpt lat="38.74289217" lon="-0.01473583">
        <ele>184.0</ele>
        <time>2018-06-10T08:55:16.107Z</time>
      </trkpt>
      <trkpt lat="38.742846" lon="-0.01464267">
        <ele>184.0</ele>
        <time>2018-06-10T08:55:17.107Z</time>
      </trkpt>
      <trkpt lat="38.74280367" lon="-0.01454733">
        <ele>183.0</ele>
        <time>2018-06-10T08:55:18.107Z</time>
      </trkpt>
      <trkpt lat="38.74276417" lon="-0.01445083">
        <ele>183.0</ele>
        <time>2018-06-10T08:55:19.107Z</time>
      </trkpt>
      <trkpt lat="38.74272533" lon="-0.0143535">
        <ele>183.0</ele>
        <time>2018-06-10T08:55:20.107Z</time>
      </trkpt>
      <trkpt lat="38.742685" lon="-0.0142575">
        <ele>183.0</ele>
        <time>2018-06-10T08:55:21.107Z</time>
      </trkpt>
      <trkpt lat="38.74264367" lon="-0.01416383">
        <ele>183.0</ele>
        <time>2018-06-10T08:55:22.107Z</time>
      </trkpt>
      <trkpt lat="38.74261067" lon="-0.01406983">
        <ele>184.0</ele>
        <time>2018-06-10T08:55:23.107Z</time>
      </trkpt>
      <trkpt lat="38.7425975" lon="-0.01397417">
        <ele>183.0</ele>
        <time>2018-06-10T08:55:24.107Z</time>
      </trkpt>
      <trkpt lat="38.742608" lon="-0.0138755">
        <ele>183.0</ele>
        <time>2018-06-10T08:55:25.107Z</time>
      </trkpt>
      <trkpt lat="38.74263233" lon="-0.01377433">
        <ele>182.0</ele>
        <time>2018-06-10T08:55:26.107Z</time>
      </trkpt>
      <trkpt lat="38.74265717" lon="-0.01366767">
        <ele>182.0</ele>
        <time>2018-06-10T08:55:27.107Z</time>
      </trkpt>
      <trkpt lat="38.7426755" lon="-0.01355633">
        <ele>182.0</ele>
        <time>2018-06-10T08:55:28.107Z</time>
      </trkpt>
      <trkpt lat="38.74268883" lon="-0.01344183">
        <ele>182.0</ele>
        <time>2018-06-10T08:55:29.107Z</time>
      </trkpt>
      <trkpt lat="38.74270167" lon="-0.01332617">
        <ele>182.0</ele>
        <time>2018-06-10T08:55:30.107Z</time>
      </trkpt>
      <trkpt lat="38.7427145" lon="-0.01321">
        <ele>181.0</ele>
        <time>2018-06-10T08:55:31.107Z</time>
      </trkpt>
      <trkpt lat="38.74272533" lon="-0.01309233">
        <ele>181.0</ele>
        <time>2018-06-10T08:55:32.107Z</time>
      </trkpt>
      <trkpt lat="38.74273067" lon="-0.01297333">
        <ele>181.0</ele>
        <time>2018-06-10T08:55:33.107Z</time>
      </trkpt>
      <trkpt lat="38.74272783" lon="-0.01285333">
        <ele>181.0</ele>
        <time>2018-06-10T08:55:34.107Z</time>
      </trkpt>
      <trkpt lat="38.74271917" lon="-0.01273267">
        <ele>181.0</ele>
        <time>2018-06-10T08:55:35.107Z</time>
      </trkpt>
      <trkpt lat="38.74270717" lon="-0.01261083">
        <ele>181.0</ele>
        <time>2018-06-10T08:55:36.107Z</time>
      </trkpt>
      <trkpt lat="38.742697" lon="-0.012487">
        <ele>181.0</ele>
        <time>2018-06-10T08:55:37.107Z</time>
      </trkpt>
      <trkpt lat="38.74268967" lon="-0.01236183">
        <ele>180.0</ele>
        <time>2018-06-10T08:55:38.107Z</time>
      </trkpt>
      <trkpt lat="38.742686" lon="-0.01223533">
        <ele>180.0</ele>
        <time>2018-06-10T08:55:39.107Z</time>
      </trkpt>
      <trkpt lat="38.742684" lon="-0.0121085">
        <ele>180.0</ele>
        <time>2018-06-10T08:55:40.107Z</time>
      </trkpt>
      <trkpt lat="38.74268283" lon="-0.011982">
        <ele>180.0</ele>
        <time>2018-06-10T08:55:41.107Z</time>
      </trkpt>
      <trkpt lat="38.74268217" lon="-0.01185567">
        <ele>180.0</ele>
        <time>2018-06-10T08:55:42.107Z</time>
      </trkpt>
      <trkpt lat="38.74268217" lon="-0.01173017">
        <ele>180.0</ele>
        <time>2018-06-10T08:55:43.107Z</time>
      </trkpt>
      <trkpt lat="38.74268233" lon="-0.01160533">
        <ele>180.0</ele>
        <time>2018-06-10T08:55:44.107Z</time>
      </trkpt>
      <trkpt lat="38.7426825" lon="-0.011482">
        <ele>181.0</ele>
        <time>2018-06-10T08:55:45.107Z</time>
      </trkpt>
      <trkpt lat="38.74268183" lon="-0.0113605">
        <ele>181.0</ele>
        <time>2018-06-10T08:55:46.107Z</time>
      </trkpt>
      <trkpt lat="38.74268" lon="-0.011242">
        <ele>181.0</ele>
        <time>2018-06-10T08:55:47.107Z</time>
      </trkpt>
      <trkpt lat="38.74267467" lon="-0.0111265">
        <ele>181.0</ele>
        <time>2018-06-10T08:55:48.107Z</time>
      </trkpt>
      <trkpt lat="38.7426655" lon="-0.011014">
        <ele>181.0</ele>
        <time>2018-06-10T08:55:49.107Z</time>
      </trkpt>
      <trkpt lat="38.74265183" lon="-0.01090417">
        <ele>181.0</ele>
        <time>2018-06-10T08:55:50.107Z</time>
      </trkpt>
      <trkpt lat="38.74263483" lon="-0.01079683">
        <ele>181.0</ele>
        <time>2018-06-10T08:55:51.107Z</time>
      </trkpt>
      <trkpt lat="38.742616" lon="-0.01069117">
        <ele>181.0</ele>
        <time>2018-06-10T08:55:52.107Z</time>
      </trkpt>
      <trkpt lat="38.74259517" lon="-0.01058667">
        <ele>181.0</ele>
        <time>2018-06-10T08:55:53.107Z</time>
      </trkpt>
      <trkpt lat="38.74257417" lon="-0.010483">
        <ele>181.0</ele>
        <time>2018-06-10T08:55:54.107Z</time>
      </trkpt>
      <trkpt lat="38.74255233" lon="-0.01037983">
        <ele>181.0</ele>
        <time>2018-06-10T08:55:55.107Z</time>
      </trkpt>
      <trkpt lat="38.74253117" lon="-0.0102765">
        <ele>181.0</ele>
        <time>2018-06-10T08:55:56.107Z</time>
      </trkpt>
      <trkpt lat="38.74251033" lon="-0.0101725">
        <ele>181.0</ele>
        <time>2018-06-10T08:55:57.107Z</time>
      </trkpt>
      <trkpt lat="38.74248967" lon="-0.01006783">
        <ele>181.0</ele>
        <time>2018-06-10T08:55:58.107Z</time>
      </trkpt>
      <trkpt lat="38.74246917" lon="-0.009963">
        <ele>181.0</ele>
        <time>2018-06-10T08:55:59.107Z</time>
      </trkpt>
      <trkpt lat="38.7424485" lon="-0.00985833">
        <ele>181.0</ele>
        <time>2018-06-10T08:56:00.107Z</time>
      </trkpt>
      <trkpt lat="38.742428" lon="-0.0097535">
        <ele>181.0</ele>
        <time>2018-06-10T08:56:01.107Z</time>
      </trkpt>
      <trkpt lat="38.74240783" lon="-0.00964867">
        <ele>181.0</ele>
        <time>2018-06-10T08:56:02.107Z</time>
      </trkpt>
      <trkpt lat="38.742387" lon="-0.00954333">
        <ele>181.0</ele>
        <time>2018-06-10T08:56:03.107Z</time>
      </trkpt>
      <trkpt lat="38.742364" lon="-0.0094375">
        <ele>181.0</ele>
        <time>2018-06-10T08:56:04.107Z</time>
      </trkpt>
      <trkpt lat="38.7423395" lon="-0.00933017">
        <ele>181.0</ele>
        <time>2018-06-10T08:56:05.107Z</time>
      </trkpt>
      <trkpt lat="38.74231417" lon="-0.00922183">
        <ele>181.0</ele>
        <time>2018-06-10T08:56:06.107Z</time>
      </trkpt>
      <trkpt lat="38.74228983" lon="-0.00911217">
        <ele>181.0</ele>
        <time>2018-06-10T08:56:07.107Z</time>
      </trkpt>
      <trkpt lat="38.74226467" lon="-0.00900233">
        <ele>181.0</ele>
        <time>2018-06-10T08:56:08.107Z</time>
      </trkpt>
      <trkpt lat="38.7422385" lon="-0.008892">
        <ele>181.0</ele>
        <time>2018-06-10T08:56:09.107Z</time>
      </trkpt>
      <trkpt lat="38.7422115" lon="-0.008781">
        <ele>181.0</ele>
        <time>2018-06-10T08:56:10.107Z</time>
      </trkpt>
      <trkpt lat="38.7421845" lon="-0.0086695">
        <ele>181.0</ele>
        <time>2018-06-10T08:56:11.107Z</time>
      </trkpt>
      <trkpt lat="38.742158" lon="-0.008558">
        <ele>181.0</ele>
        <time>2018-06-10T08:56:12.107Z</time>
      </trkpt>
      <trkpt lat="38.74213267" lon="-0.00844683">
        <ele>181.0</ele>
        <time>2018-06-10T08:56:13.107Z</time>
      </trkpt>
      <trkpt lat="38.74210883" lon="-0.00833633">
        <ele>181.0</ele>
        <time>2018-06-10T08:56:14.107Z</time>
      </trkpt>
      <trkpt lat="38.74208683" lon="-0.00822767">
        <ele>181.0</ele>
        <time>2018-06-10T08:56:15.107Z</time>
      </trkpt>
      <trkpt lat="38.7420645" lon="-0.00812467">
        <ele>181.0</ele>
        <time>2018-06-10T08:56:16.107Z</time>
      </trkpt>
      <trkpt lat="38.74203883" lon="-0.008031">
        <ele>181.0</ele>
        <time>2018-06-10T08:56:17.107Z</time>
      </trkpt>
      <trkpt lat="38.7420065" lon="-0.00795067">
        <ele>181.0</ele>
        <time>2018-06-10T08:56:18.107Z</time>
      </trkpt>
      <trkpt lat="38.7419675" lon="-0.007887">
        <ele>182.0</ele>
        <time>2018-06-10T08:56:19.107Z</time>
      </trkpt>
      <trkpt lat="38.74192467" lon="-0.00784117">
        <ele>182.0</ele>
        <time>2018-06-10T08:56:20.107Z</time>
      </trkpt>
      <trkpt lat="38.74188067" lon="-0.00781617">
        <ele>183.0</ele>
        <time>2018-06-10T08:56:21.107Z</time>
      </trkpt>
      <trkpt lat="38.74183933" lon="-0.007806">
        <ele>183.0</ele>
        <time>2018-06-10T08:56:22.107Z</time>
      </trkpt>
      <trkpt lat="38.74180417" lon="-0.0078075">
        <ele>183.0</ele>
        <time>2018-06-10T08:56:23.107Z</time>
      </trkpt>
      <trkpt lat="38.74177733" lon="-0.00781233">
        <ele>183.0</ele>
        <time>2018-06-10T08:56:24.107Z</time>
      </trkpt>
      <trkpt lat="38.74175717" lon="-0.007819">
        <ele>183.0</ele>
        <time>2018-06-10T08:56:25.107Z</time>
      </trkpt>
      <trkpt lat="38.74173933" lon="-0.00782417">
        <ele>183.0</ele>
        <time>2018-06-10T08:56:26.107Z</time>
      </trkpt>
      <trkpt lat="38.741722" lon="-0.007828">
        <ele>183.0</ele>
        <time>2018-06-10T08:56:27.107Z</time>
      </trkpt>
      <trkpt lat="38.74170283" lon="-0.00783017">
        <ele>183.0</ele>
        <time>2018-06-10T08:56:28.107Z</time>
      </trkpt>
      <trkpt lat="38.74168" lon="-0.0078335">
        <ele>184.0</ele>
        <time>2018-06-10T08:56:29.107Z</time>
      </trkpt>
      <trkpt lat="38.74165283" lon="-0.00783967">
        <ele>184.0</ele>
        <time>2018-06-10T08:56:30.107Z</time>
      </trkpt>
      <trkpt lat="38.7416225" lon="-0.007851">
        <ele>184.0</ele>
        <time>2018-06-10T08:56:31.107Z</time>
      </trkpt>
      <trkpt lat="38.74159117" lon="-0.00786483">
        <ele>184.0</ele>
        <time>2018-06-10T08:56:32.107Z</time>
      </trkpt>
      <trkpt lat="38.74155817" lon="-0.00787967">
        <ele>184.0</ele>
        <time>2018-06-10T08:56:33.107Z</time>
      </trkpt>
      <trkpt lat="38.74152333" lon="-0.00789417">
        <ele>184.0</ele>
        <time>2018-06-10T08:56:34.107Z</time>
      </trkpt>
      <trkpt lat="38.74148617" lon="-0.00791083">
        <ele>184.0</ele>
        <time>2018-06-10T08:56:35.107Z</time>
      </trkpt>
      <trkpt lat="38.74144833" lon="-0.007931">
        <ele>184.0</ele>
        <time>2018-06-10T08:56:36.107Z</time>
      </trkpt>
      <trkpt lat="38.7414095" lon="-0.00795467">
        <ele>184.0</ele>
        <time>2018-06-10T08:56:37.107Z</time>
      </trkpt>
      <trkpt lat="38.74136817" lon="-0.00797883">
        <ele>185.0</ele>
        <time>2018-06-10T08:56:38.107Z</time>
      </trkpt>
      <trkpt lat="38.74132333" lon="-0.0080025">
        <ele>185.0</ele>
        <time>2018-06-10T08:56:39.107Z</time>
      </trkpt>
      <trkpt lat="38.7412755" lon="-0.0080255">
        <ele>185.0</ele>
        <time>2018-06-10T08:56:40.107Z</time>
      </trkpt>
      <trkpt lat="38.74122633" lon="-0.008049">
        <ele>185.0</ele>
        <time>2018-06-10T08:56:41.107Z</time>
      </trkpt>
      <trkpt lat="38.7411765" lon="-0.00807383">
        <ele>185.0</ele>
        <time>2018-06-10T08:56:42.107Z</time>
      </trkpt>
      <trkpt lat="38.74112633" lon="-0.0080995">
        <ele>185.0</ele>
        <time>2018-06-10T08:56:43.107Z</time>
      </trkpt>
      <trkpt lat="38.74107567" lon="-0.0081235">
        <ele>186.0</ele>
        <time>2018-06-10T08:56:44.107Z</time>
      </trkpt>
      <trkpt lat="38.74102467" lon="-0.00814483">
        <ele>186.0</ele>
        <time>2018-06-10T08:56:45.107Z</time>
      </trkpt>
      <trkpt lat="38.7409735" lon="-0.0081645">
        <ele>186.0</ele>
        <time>2018-06-10T08:56:46.107Z</time>
      </trkpt>
      <trkpt lat="38.740923" lon="-0.00818483">
        <ele>186.0</ele>
        <time>2018-06-10T08:56:47.107Z</time>
      </trkpt>
      <trkpt lat="38.740873" lon="-0.0082055">
        <ele>186.0</ele>
        <time>2018-06-10T08:56:48.107Z</time>
      </trkpt>
      <trkpt lat="38.74082317" lon="-0.008227">
        <ele>187.0</ele>
        <time>2018-06-10T08:56:49.107Z</time>
      </trkpt>
      <trkpt lat="38.7407735" lon="-0.00824883">
        <ele>187.0</ele>
        <time>2018-06-10T08:56:50.107Z</time>
      </trkpt>
      <trkpt lat="38.74072433" lon="-0.008271">
        <ele>187.0</ele>
        <time>2018-06-10T08:56:51.107Z</time>
      </trkpt>
      <trkpt lat="38.74067517" lon="-0.0082935">
        <ele>187.0</ele>
        <time>2018-06-10T08:56:52.107Z</time>
      </trkpt>
      <trkpt lat="38.74062667" lon="-0.0083165">
        <ele>188.0</ele>
        <time>2018-06-10T08:56:53.107Z</time>
      </trkpt>
      <trkpt lat="38.74057817" lon="-0.00834017">
        <ele>188.0</ele>
        <time>2018-06-10T08:56:54.107Z</time>
      </trkpt>
      <trkpt lat="38.74052933" lon="-0.0083625">
        <ele>188.0</ele>
        <time>2018-06-10T08:56:55.107Z</time>
      </trkpt>
      <trkpt lat="38.74047983" lon="-0.00838383">
        <ele>188.0</ele>
        <time>2018-06-10T08:56:56.107Z</time>
      </trkpt>
      <trkpt lat="38.74042933" lon="-0.0084035">
        <ele>188.0</ele>
        <time>2018-06-10T08:56:57.107Z</time>
      </trkpt>
      <trkpt lat="38.7403785" lon="-0.0084235">
        <ele>188.0</ele>
        <time>2018-06-10T08:56:58.107Z</time>
      </trkpt>
      <trkpt lat="38.74032733" lon="-0.008444">
        <ele>189.0</ele>
        <time>2018-06-10T08:56:59.107Z</time>
      </trkpt>
      <trkpt lat="38.7402765" lon="-0.008466">
        <ele>189.0</ele>
        <time>2018-06-10T08:57:00.107Z</time>
      </trkpt>
      <trkpt lat="38.74022583" lon="-0.00848817">
        <ele>189.0</ele>
        <time>2018-06-10T08:57:01.107Z</time>
      </trkpt>
      <trkpt lat="38.74017533" lon="-0.00851167">
        <ele>189.0</ele>
        <time>2018-06-10T08:57:02.107Z</time>
      </trkpt>
      <trkpt lat="38.74012483" lon="-0.00853517">
        <ele>189.0</ele>
        <time>2018-06-10T08:57:03.107Z</time>
      </trkpt>
      <trkpt lat="38.740074" lon="-0.008559">
        <ele>190.0</ele>
        <time>2018-06-10T08:57:04.107Z</time>
      </trkpt>
      <trkpt lat="38.740023" lon="-0.0085825">
        <ele>190.0</ele>
        <time>2018-06-10T08:57:05.107Z</time>
      </trkpt>
      <trkpt lat="38.73997183" lon="-0.00860633">
        <ele>190.0</ele>
        <time>2018-06-10T08:57:06.107Z</time>
      </trkpt>
      <trkpt lat="38.73992083" lon="-0.0086305">
        <ele>190.0</ele>
        <time>2018-06-10T08:57:07.107Z</time>
      </trkpt>
      <trkpt lat="38.73986933" lon="-0.00865367">
        <ele>190.0</ele>
        <time>2018-06-10T08:57:08.107Z</time>
      </trkpt>
      <trkpt lat="38.7398175" lon="-0.00867633">
        <ele>190.0</ele>
        <time>2018-06-10T08:57:09.107Z</time>
      </trkpt>
      <trkpt lat="38.73976533" lon="-0.00869817">
        <ele>190.0</ele>
        <time>2018-06-10T08:57:10.107Z</time>
      </trkpt>
      <trkpt lat="38.73971283" lon="-0.00872">
        <ele>191.0</ele>
        <time>2018-06-10T08:57:11.107Z</time>
      </trkpt>
      <trkpt lat="38.7396605" lon="-0.00874133">
        <ele>191.0</ele>
        <time>2018-06-10T08:57:12.107Z</time>
      </trkpt>
      <trkpt lat="38.7396085" lon="-0.008763">
        <ele>191.0</ele>
        <time>2018-06-10T08:57:13.107Z</time>
      </trkpt>
      <trkpt lat="38.73955717" lon="-0.00878483">
        <ele>191.0</ele>
        <time>2018-06-10T08:57:14.107Z</time>
      </trkpt>
      <trkpt lat="38.73950633" lon="-0.0088075">
        <ele>191.0</ele>
        <time>2018-06-10T08:57:15.107Z</time>
      </trkpt>
      <trkpt lat="38.73945617" lon="-0.00883117">
        <ele>191.0</ele>
        <time>2018-06-10T08:57:16.107Z</time>
      </trkpt>
      <trkpt lat="38.73940617" lon="-0.00885467">
        <ele>191.0</ele>
        <time>2018-06-10T08:57:17.107Z</time>
      </trkpt>
      <trkpt lat="38.739356" lon="-0.008878">
        <ele>191.0</ele>
        <time>2018-06-10T08:57:18.107Z</time>
      </trkpt>
      <trkpt lat="38.73930583" lon="-0.0089005">
        <ele>192.0</ele>
        <time>2018-06-10T08:57:19.107Z</time>
      </trkpt>
      <trkpt lat="38.73925583" lon="-0.00892317">
        <ele>192.0</ele>
        <time>2018-06-10T08:57:20.107Z</time>
      </trkpt>
      <trkpt lat="38.73920633" lon="-0.00894567">
        <ele>192.0</ele>
        <time>2018-06-10T08:57:21.107Z</time>
      </trkpt>
      <trkpt lat="38.739157" lon="-0.00896883">
        <ele>192.0</ele>
        <time>2018-06-10T08:57:22.107Z</time>
      </trkpt>
      <trkpt lat="38.73910833" lon="-0.00899167">
        <ele>192.0</ele>
        <time>2018-06-10T08:57:23.107Z</time>
      </trkpt>
      <trkpt lat="38.73906033" lon="-0.009014">
        <ele>192.0</ele>
        <time>2018-06-10T08:57:24.107Z</time>
      </trkpt>
      <trkpt lat="38.73901283" lon="-0.00903533">
        <ele>192.0</ele>
        <time>2018-06-10T08:57:25.107Z</time>
      </trkpt>
      <trkpt lat="38.7389655" lon="-0.00905667">
        <ele>192.0</ele>
        <time>2018-06-10T08:57:26.107Z</time>
      </trkpt>
      <trkpt lat="38.738918" lon="-0.0090785">
        <ele>192.0</ele>
        <time>2018-06-10T08:57:27.107Z</time>
      </trkpt>
      <trkpt lat="38.73887067" lon="-0.009101">
        <ele>192.0</ele>
        <time>2018-06-10T08:57:28.107Z</time>
      </trkpt>
      <trkpt lat="38.73882317" lon="-0.0091235">
        <ele>193.0</ele>
        <time>2018-06-10T08:57:29.107Z</time>
      </trkpt>
      <trkpt lat="38.73877517" lon="-0.00914517">
        <ele>192.0</ele>
        <time>2018-06-10T08:57:30.107Z</time>
      </trkpt>
      <trkpt lat="38.73872617" lon="-0.00916433">
        <ele>192.0</ele>
        <time>2018-06-10T08:57:31.107Z</time>
      </trkpt>
      <trkpt lat="38.738676" lon="-0.0091765">
        <ele>193.0</ele>
        <time>2018-06-10T08:57:32.107Z</time>
      </trkpt>
      <trkpt lat="38.7386255" lon="-0.00917717">
        <ele>193.0</ele>
        <time>2018-06-10T08:57:33.107Z</time>
      </trkpt>
      <trkpt lat="38.73857583" lon="-0.0091665">
        <ele>193.0</ele>
        <time>2018-06-10T08:57:34.107Z</time>
      </trkpt>
      <trkpt lat="38.73853" lon="-0.0091435">
        <ele>192.0</ele>
        <time>2018-06-10T08:57:35.107Z</time>
      </trkpt>
      <trkpt lat="38.738489" lon="-0.00910633">
        <ele>193.0</ele>
        <time>2018-06-10T08:57:36.107Z</time>
      </trkpt>
      <trkpt lat="38.73845467" lon="-0.0090555">
        <ele>193.0</ele>
        <time>2018-06-10T08:57:37.107Z</time>
      </trkpt>
      <trkpt lat="38.738425" lon="-0.00899733">
        <ele>193.0</ele>
        <time>2018-06-10T08:57:38.107Z</time>
      </trkpt>
      <trkpt lat="38.738399" lon="-0.00893833">
        <ele>193.0</ele>
        <time>2018-06-10T08:57:39.107Z</time>
      </trkpt>
      <trkpt lat="38.7383735" lon="-0.0088795">
        <ele>193.0</ele>
        <time>2018-06-10T08:57:40.107Z</time>
      </trkpt>
      <trkpt lat="38.73834683" lon="-0.00882083">
        <ele>193.0</ele>
        <time>2018-06-10T08:57:41.107Z</time>
      </trkpt>
      <trkpt lat="38.73831867" lon="-0.008762">
        <ele>193.0</ele>
        <time>2018-06-10T08:57:42.107Z</time>
      </trkpt>
      <trkpt lat="38.73828983" lon="-0.00870317">
        <ele>193.0</ele>
        <time>2018-06-10T08:57:43.107Z</time>
      </trkpt>
      <trkpt lat="38.73826117" lon="-0.008644">
        <ele>193.0</ele>
        <time>2018-06-10T08:57:44.107Z</time>
      </trkpt>
      <trkpt lat="38.73823367" lon="-0.00858383">
        <ele>193.0</ele>
        <time>2018-06-10T08:57:45.107Z</time>
      </trkpt>
      <trkpt lat="38.73820717" lon="-0.00852467">
        <ele>193.0</ele>
        <time>2018-06-10T08:57:46.107Z</time>
      </trkpt>
      <trkpt lat="38.7381805" lon="-0.00846567">
        <ele>193.0</ele>
        <time>2018-06-10T08:57:47.107Z</time>
      </trkpt>
      <trkpt lat="38.73815317" lon="-0.0084065">
        <ele>193.0</ele>
        <time>2018-06-10T08:57:48.107Z</time>
      </trkpt>
      <trkpt lat="38.7381255" lon="-0.008346">
        <ele>193.0</ele>
        <time>2018-06-10T08:57:49.107Z</time>
      </trkpt>
      <trkpt lat="38.738099" lon="-0.008285">
        <ele>193.0</ele>
        <time>2018-06-10T08:57:50.107Z</time>
      </trkpt>
      <trkpt lat="38.73807283" lon="-0.00822433">
        <ele>193.0</ele>
        <time>2018-06-10T08:57:51.107Z</time>
      </trkpt>
      <trkpt lat="38.73804617" lon="-0.00816283">
        <ele>193.0</ele>
        <time>2018-06-10T08:57:52.107Z</time>
      </trkpt>
      <trkpt lat="38.738018" lon="-0.008101">
        <ele>193.0</ele>
        <time>2018-06-10T08:57:53.107Z</time>
      </trkpt>
      <trkpt lat="38.73799017" lon="-0.0080395">
        <ele>193.0</ele>
        <time>2018-06-10T08:57:54.107Z</time>
      </trkpt>
      <trkpt lat="38.7379615" lon="-0.007979">
        <ele>193.0</ele>
        <time>2018-06-10T08:57:55.107Z</time>
      </trkpt>
      <trkpt lat="38.73793267" lon="-0.0079185">
        <ele>193.0</ele>
        <time>2018-06-10T08:57:56.107Z</time>
      </trkpt>
      <trkpt lat="38.737903" lon="-0.00785667">
        <ele>193.0</ele>
        <time>2018-06-10T08:57:57.107Z</time>
      </trkpt>
      <trkpt lat="38.73787367" lon="-0.007794">
        <ele>193.0</ele>
        <time>2018-06-10T08:57:58.107Z</time>
      </trkpt>
      <trkpt lat="38.73784383" lon="-0.00773067">
        <ele>193.0</ele>
        <time>2018-06-10T08:57:59.107Z</time>
      </trkpt>
      <trkpt lat="38.7378135" lon="-0.00766683">
        <ele>193.0</ele>
        <time>2018-06-10T08:58:00.107Z</time>
      </trkpt>
      <trkpt lat="38.73778283" lon="-0.00760133">
        <ele>193.0</ele>
        <time>2018-06-10T08:58:01.107Z</time>
      </trkpt>
      <trkpt lat="38.737752" lon="-0.00753483">
        <ele>193.0</ele>
        <time>2018-06-10T08:58:02.107Z</time>
      </trkpt>
      <trkpt lat="38.73772117" lon="-0.00746717">
        <ele>193.0</ele>
        <time>2018-06-10T08:58:03.107Z</time>
      </trkpt>
      <trkpt lat="38.73768983" lon="-0.00739917">
        <ele>193.0</ele>
        <time>2018-06-10T08:58:04.107Z</time>
      </trkpt>
      <trkpt lat="38.73765783" lon="-0.0073305">
        <ele>192.0</ele>
        <time>2018-06-10T08:58:05.107Z</time>
      </trkpt>
      <trkpt lat="38.73762567" lon="-0.00726083">
        <ele>192.0</ele>
        <time>2018-06-10T08:58:06.107Z</time>
      </trkpt>
      <trkpt lat="38.73759317" lon="-0.00719">
        <ele>192.0</ele>
        <time>2018-06-10T08:58:07.107Z</time>
      </trkpt>
      <trkpt lat="38.73756017" lon="-0.00711783">
        <ele>192.0</ele>
        <time>2018-06-10T08:58:08.107Z</time>
      </trkpt>
      <trkpt lat="38.7375265" lon="-0.00704517">
        <ele>192.0</ele>
        <time>2018-06-10T08:58:09.107Z</time>
      </trkpt>
      <trkpt lat="38.73749233" lon="-0.006972">
        <ele>192.0</ele>
        <time>2018-06-10T08:58:10.107Z</time>
      </trkpt>
      <trkpt lat="38.73745683" lon="-0.00689867">
        <ele>192.0</ele>
        <time>2018-06-10T08:58:11.107Z</time>
      </trkpt>
      <trkpt lat="38.7374185" lon="-0.00682567">
        <ele>192.0</ele>
        <time>2018-06-10T08:58:12.107Z</time>
      </trkpt>
      <trkpt lat="38.73737517" lon="-0.00675583">
        <ele>192.0</ele>
        <time>2018-06-10T08:58:13.107Z</time>
      </trkpt>
      <trkpt lat="38.73733067" lon="-0.00668667">
        <ele>191.0</ele>
        <time>2018-06-10T08:58:14.107Z</time>
      </trkpt>
      <trkpt lat="38.73728983" lon="-0.00661417">
        <ele>192.0</ele>
        <time>2018-06-10T08:58:15.107Z</time>
      </trkpt>
      <trkpt lat="38.73725733" lon="-0.006533">
        <ele>192.0</ele>
        <time>2018-06-10T08:58:16.107Z</time>
      </trkpt>
      <trkpt lat="38.73722717" lon="-0.00644717">
        <ele>192.0</ele>
        <time>2018-06-10T08:58:17.107Z</time>
      </trkpt>
      <trkpt lat="38.737194" lon="-0.00636133">
        <ele>192.0</ele>
        <time>2018-06-10T08:58:18.107Z</time>
      </trkpt>
      <trkpt lat="38.73715617" lon="-0.00627833">
        <ele>192.0</ele>
        <time>2018-06-10T08:58:19.107Z</time>
      </trkpt>
      <trkpt lat="38.73711633" lon="-0.00619667">
        <ele>192.0</ele>
        <time>2018-06-10T08:58:20.107Z</time>
      </trkpt>
      <trkpt lat="38.73707667" lon="-0.00611533">
        <ele>192.0</ele>
        <time>2018-06-10T08:58:21.107Z</time>
      </trkpt>
      <trkpt lat="38.73703733" lon="-0.00603483">
        <ele>191.0</ele>
        <time>2018-06-10T08:58:22.107Z</time>
      </trkpt>
      <trkpt lat="38.73699817" lon="-0.00595417">
        <ele>191.0</ele>
        <time>2018-06-10T08:58:23.107Z</time>
      </trkpt>
      <trkpt lat="38.73695933" lon="-0.00587333">
        <ele>191.0</ele>
        <time>2018-06-10T08:58:24.107Z</time>
      </trkpt>
      <trkpt lat="38.73691967" lon="-0.0057925">
        <ele>191.0</ele>
        <time>2018-06-10T08:58:25.107Z</time>
      </trkpt>
      <trkpt lat="38.7368795" lon="-0.0057125">
        <ele>191.0</ele>
        <time>2018-06-10T08:58:26.107Z</time>
      </trkpt>
      <trkpt lat="38.73683833" lon="-0.00563317">
        <ele>191.0</ele>
        <time>2018-06-10T08:58:27.107Z</time>
      </trkpt>
      <trkpt lat="38.73679583" lon="-0.005555">
        <ele>191.0</ele>
        <time>2018-06-10T08:58:28.107Z</time>
      </trkpt>
      <trkpt lat="38.736753" lon="-0.00547817">
        <ele>191.0</ele>
        <time>2018-06-10T08:58:29.107Z</time>
      </trkpt>
      <trkpt lat="38.73670933" lon="-0.00540383">
        <ele>192.0</ele>
        <time>2018-06-10T08:58:30.107Z</time>
      </trkpt>
      <trkpt lat="38.73666533" lon="-0.00533167">
        <ele>192.0</ele>
        <time>2018-06-10T08:58:31.107Z</time>
      </trkpt>
      <trkpt lat="38.73662017" lon="-0.00526283">
        <ele>192.0</ele>
        <time>2018-06-10T08:58:32.107Z</time>
      </trkpt>
      <trkpt lat="38.7365745" lon="-0.00519717">
        <ele>193.0</ele>
        <time>2018-06-10T08:58:33.107Z</time>
      </trkpt>
      <trkpt lat="38.73652833" lon="-0.00513467">
        <ele>193.0</ele>
        <time>2018-06-10T08:58:34.107Z</time>
      </trkpt>
      <trkpt lat="38.73648233" lon="-0.005073">
        <ele>193.0</ele>
        <time>2018-06-10T08:58:35.107Z</time>
      </trkpt>
      <trkpt lat="38.7364365" lon="-0.00501233">
        <ele>194.0</ele>
        <time>2018-06-10T08:58:36.107Z</time>
      </trkpt>
      <trkpt lat="38.73639083" lon="-0.00495233">
        <ele>194.0</ele>
        <time>2018-06-10T08:58:37.107Z</time>
      </trkpt>
      <trkpt lat="38.736344" lon="-0.00489367">
        <ele>194.0</ele>
        <time>2018-06-10T08:58:38.107Z</time>
      </trkpt>
      <trkpt lat="38.736297" lon="-0.00483533">
        <ele>194.0</ele>
        <time>2018-06-10T08:58:39.107Z</time>
      </trkpt>
      <trkpt lat="38.73624917" lon="-0.00477767">
        <ele>194.0</ele>
        <time>2018-06-10T08:58:40.107Z</time>
      </trkpt>
      <trkpt lat="38.73620083" lon="-0.00472033">
        <ele>194.0</ele>
        <time>2018-06-10T08:58:41.107Z</time>
      </trkpt>
      <trkpt lat="38.73615083" lon="-0.004664">
        <ele>194.0</ele>
        <time>2018-06-10T08:58:42.107Z</time>
      </trkpt>
      <trkpt lat="38.73609983" lon="-0.00460783">
        <ele>194.0</ele>
        <time>2018-06-10T08:58:43.107Z</time>
      </trkpt>
      <trkpt lat="38.73604783" lon="-0.0045515">
        <ele>194.0</ele>
        <time>2018-06-10T08:58:44.107Z</time>
      </trkpt>
      <trkpt lat="38.735995" lon="-0.00449467">
        <ele>195.0</ele>
        <time>2018-06-10T08:58:45.107Z</time>
      </trkpt>
      <trkpt lat="38.73594183" lon="-0.0044375">
        <ele>195.0</ele>
        <time>2018-06-10T08:58:46.107Z</time>
      </trkpt>
      <trkpt lat="38.73588733" lon="-0.00438083">
        <ele>195.0</ele>
        <time>2018-06-10T08:58:47.107Z</time>
      </trkpt>
      <trkpt lat="38.7358315" lon="-0.00432483">
        <ele>194.0</ele>
        <time>2018-06-10T08:58:48.107Z</time>
      </trkpt>
      <trkpt lat="38.735774" lon="-0.00427">
        <ele>195.0</ele>
        <time>2018-06-10T08:58:49.107Z</time>
      </trkpt>
      <trkpt lat="38.735716" lon="-0.00421567">
        <ele>194.0</ele>
        <time>2018-06-10T08:58:50.107Z</time>
      </trkpt>
      <trkpt lat="38.7356575" lon="-0.0041615">
        <ele>194.0</ele>
        <time>2018-06-10T08:58:51.107Z</time>
      </trkpt>
      <trkpt lat="38.735599" lon="-0.00410733">
        <ele>194.0</ele>
        <time>2018-06-10T08:58:52.107Z</time>
      </trkpt>
      <trkpt lat="38.73554033" lon="-0.00405267">
        <ele>194.0</ele>
        <time>2018-06-10T08:58:53.107Z</time>
      </trkpt>
      <trkpt lat="38.73548183" lon="-0.0039975">
        <ele>194.0</ele>
        <time>2018-06-10T08:58:54.107Z</time>
      </trkpt>
      <trkpt lat="38.73542333" lon="-0.003942">
        <ele>194.0</ele>
        <time>2018-06-10T08:58:55.107Z</time>
      </trkpt>
      <trkpt lat="38.73536483" lon="-0.00388617">
        <ele>194.0</ele>
        <time>2018-06-10T08:58:56.107Z</time>
      </trkpt>
      <trkpt lat="38.73530633" lon="-0.0038305">
        <ele>194.0</ele>
        <time>2018-06-10T08:58:57.107Z</time>
      </trkpt>
      <trkpt lat="38.73524733" lon="-0.00377533">
        <ele>194.0</ele>
        <time>2018-06-10T08:58:58.107Z</time>
      </trkpt>
      <trkpt lat="38.73518817" lon="-0.00372033">
        <ele>194.0</ele>
        <time>2018-06-10T08:58:59.107Z</time>
      </trkpt>
      <trkpt lat="38.73512867" lon="-0.00366533">
        <ele>194.0</ele>
        <time>2018-06-10T08:59:00.107Z</time>
      </trkpt>
      <trkpt lat="38.73506917" lon="-0.00361">
        <ele>194.0</ele>
        <time>2018-06-10T08:59:01.107Z</time>
      </trkpt>
      <trkpt lat="38.73500983" lon="-0.0035545">
        <ele>194.0</ele>
        <time>2018-06-10T08:59:02.107Z</time>
      </trkpt>
      <trkpt lat="38.73495083" lon="-0.0034985">
        <ele>194.0</ele>
        <time>2018-06-10T08:59:03.107Z</time>
      </trkpt>
      <trkpt lat="38.73489167" lon="-0.00344267">
        <ele>194.0</ele>
        <time>2018-06-10T08:59:04.107Z</time>
      </trkpt>
      <trkpt lat="38.73483183" lon="-0.00338667">
        <ele>194.0</ele>
        <time>2018-06-10T08:59:05.107Z</time>
      </trkpt>
      <trkpt lat="38.734772" lon="-0.00333017">
        <ele>194.0</ele>
        <time>2018-06-10T08:59:06.107Z</time>
      </trkpt>
      <trkpt lat="38.73471383" lon="-0.0032715">
        <ele>195.0</ele>
        <time>2018-06-10T08:59:07.107Z</time>
      </trkpt>
      <trkpt lat="38.73465817" lon="-0.0032105">
        <ele>194.0</ele>
        <time>2018-06-10T08:59:08.107Z</time>
      </trkpt>
      <trkpt lat="38.7346055" lon="-0.003146">
        <ele>194.0</ele>
        <time>2018-06-10T08:59:09.107Z</time>
      </trkpt>
      <trkpt lat="38.73455667" lon="-0.00307767">
        <ele>194.0</ele>
        <time>2018-06-10T08:59:10.107Z</time>
      </trkpt>
      <trkpt lat="38.73451317" lon="-0.0030035">
        <ele>195.0</ele>
        <time>2018-06-10T08:59:11.107Z</time>
      </trkpt>
      <trkpt lat="38.73447583" lon="-0.00292367">
        <ele>195.0</ele>
        <time>2018-06-10T08:59:12.107Z</time>
      </trkpt>
      <trkpt lat="38.734444" lon="-0.00283883">
        <ele>194.0</ele>
        <time>2018-06-10T08:59:13.107Z</time>
      </trkpt>
      <trkpt lat="38.73441583" lon="-0.00275033">
        <ele>194.0</ele>
        <time>2018-06-10T08:59:14.107Z</time>
      </trkpt>
      <trkpt lat="38.73438983" lon="-0.002659">
        <ele>194.0</ele>
        <time>2018-06-10T08:59:15.107Z</time>
      </trkpt>
      <trkpt lat="38.73436417" lon="-0.00256617">
        <ele>194.0</ele>
        <time>2018-06-10T08:59:16.107Z</time>
      </trkpt>
      <trkpt lat="38.73433833" lon="-0.0024725">
        <ele>194.0</ele>
        <time>2018-06-10T08:59:17.107Z</time>
      </trkpt>
      <trkpt lat="38.73431167" lon="-0.00237833">
        <ele>193.0</ele>
        <time>2018-06-10T08:59:18.107Z</time>
      </trkpt>
      <trkpt lat="38.73428483" lon="-0.0022835">
        <ele>193.0</ele>
        <time>2018-06-10T08:59:19.107Z</time>
      </trkpt>
      <trkpt lat="38.734258" lon="-0.002188">
        <ele>193.0</ele>
        <time>2018-06-10T08:59:20.107Z</time>
      </trkpt>
      <trkpt lat="38.73423117" lon="-0.002092">
        <ele>193.0</ele>
        <time>2018-06-10T08:59:21.107Z</time>
      </trkpt>
      <trkpt lat="38.73420467" lon="-0.001996">
        <ele>193.0</ele>
        <time>2018-06-10T08:59:22.107Z</time>
      </trkpt>
      <trkpt lat="38.73417867" lon="-0.0018995">
        <ele>193.0</ele>
        <time>2018-06-10T08:59:23.107Z</time>
      </trkpt>
      <trkpt lat="38.73415283" lon="-0.00180367">
        <ele>193.0</ele>
        <time>2018-06-10T08:59:24.107Z</time>
      </trkpt>
      <trkpt lat="38.73412667" lon="-0.0017085">
        <ele>193.0</ele>
        <time>2018-06-10T08:59:25.107Z</time>
      </trkpt>
      <trkpt lat="38.7341005" lon="-0.00161417">
        <ele>193.0</ele>
        <time>2018-06-10T08:59:26.107Z</time>
      </trkpt>
      <trkpt lat="38.734074" lon="-0.00152033">
        <ele>193.0</ele>
        <time>2018-06-10T08:59:27.107Z</time>
      </trkpt>
      <trkpt lat="38.73404783" lon="-0.0014265">
        <ele>193.0</ele>
        <time>2018-06-10T08:59:28.107Z</time>
      </trkpt>
      <trkpt lat="38.73402117" lon="-0.00133267">
        <ele>193.0</ele>
        <time>2018-06-10T08:59:29.107Z</time>
      </trkpt>
      <trkpt lat="38.73399417" lon="-0.00123933">
        <ele>193.0</ele>
        <time>2018-06-10T08:59:30.107Z</time>
      </trkpt>
      <trkpt lat="38.73396617" lon="-0.00114683">
        <ele>193.0</ele>
        <time>2018-06-10T08:59:31.107Z</time>
      </trkpt>
      <trkpt lat="38.73393817" lon="-0.001055">
        <ele>194.0</ele>
        <time>2018-06-10T08:59:32.107Z</time>
      </trkpt>
      <trkpt lat="38.73391083" lon="-0.00096367">
        <ele>194.0</ele>
        <time>2018-06-10T08:59:33.107Z</time>
      </trkpt>
      <trkpt lat="38.733885" lon="-0.000873">
        <ele>194.0</ele>
        <time>2018-06-10T08:59:34.107Z</time>
      </trkpt>
      <trkpt lat="38.7338595" lon="-0.00078283">
        <ele>194.0</ele>
        <time>2018-06-10T08:59:35.107Z</time>
      </trkpt>
      <trkpt lat="38.73383467" lon="-0.00069383">
        <ele>194.0</ele>
        <time>2018-06-10T08:59:36.107Z</time>
      </trkpt>
      <trkpt lat="38.73381" lon="-0.00060583">
        <ele>195.0</ele>
        <time>2018-06-10T08:59:37.107Z</time>
      </trkpt>
      <trkpt lat="38.73378567" lon="-0.00051933">
        <ele>195.0</ele>
        <time>2018-06-10T08:59:38.107Z</time>
      </trkpt>
      <trkpt lat="38.73376167" lon="-0.0004345">
        <ele>195.0</ele>
        <time>2018-06-10T08:59:39.107Z</time>
      </trkpt>
      <trkpt lat="38.73373817" lon="-0.0003515">
        <ele>196.0</ele>
        <time>2018-06-10T08:59:40.107Z</time>
      </trkpt>
      <trkpt lat="38.73371533" lon="-0.00027017">
        <ele>196.0</ele>
        <time>2018-06-10T08:59:41.107Z</time>
      </trkpt>
      <trkpt lat="38.73369317" lon="-0.00019017">
        <ele>196.0</ele>
        <time>2018-06-10T08:59:42.107Z</time>
      </trkpt>
      <trkpt lat="38.73367183" lon="-0.000108">
        <ele>195.0</ele>
        <time>2018-06-10T08:59:43.107Z</time>
      </trkpt>
      <trkpt lat="38.7336505" lon="-0.000023">
        <ele>195.0</ele>
        <time>2018-06-10T08:59:44.107Z</time>
      </trkpt>
      <trkpt lat="38.73362967" lon="0.00006583">
        <ele>195.0</ele>
        <time>2018-06-10T08:59:45.107Z</time>
      </trkpt>
      <trkpt lat="38.733609" lon="0.0001565">
        <ele>195.0</ele>
        <time>2018-06-10T08:59:46.107Z</time>
      </trkpt>
      <trkpt lat="38.7335895" lon="0.00024917">
        <ele>195.0</ele>
        <time>2018-06-10T08:59:47.107Z</time>
      </trkpt>
      <trkpt lat="38.73357083" lon="0.000343">
        <ele>195.0</ele>
        <time>2018-06-10T08:59:48.107Z</time>
      </trkpt>
      <trkpt lat="38.733553" lon="0.00043683">
        <ele>195.0</ele>
        <time>2018-06-10T08:59:49.107Z</time>
      </trkpt>
      <trkpt lat="38.733536" lon="0.00053167">
        <ele>195.0</ele>
        <time>2018-06-10T08:59:50.107Z</time>
      </trkpt>
      <trkpt lat="38.73351983" lon="0.00062583">
        <ele>195.0</ele>
        <time>2018-06-10T08:59:51.107Z</time>
      </trkpt>
      <trkpt lat="38.73350617" lon="0.00071933">
        <ele>195.0</ele>
        <time>2018-06-10T08:59:52.107Z</time>
      </trkpt>
      <trkpt lat="38.73349567" lon="0.00080967">
        <ele>195.0</ele>
        <time>2018-06-10T08:59:53.107Z</time>
      </trkpt>
      <trkpt lat="38.73348567" lon="0.000898">
        <ele>195.0</ele>
        <time>2018-06-10T08:59:54.107Z</time>
      </trkpt>
      <trkpt lat="38.7334745" lon="0.00098533">
        <ele>195.0</ele>
        <time>2018-06-10T08:59:55.107Z</time>
      </trkpt>
      <trkpt lat="38.73346067" lon="0.00107233">
        <ele>195.0</ele>
        <time>2018-06-10T08:59:56.107Z</time>
      </trkpt>
      <trkpt lat="38.73344667" lon="0.00115983">
        <ele>195.0</ele>
        <time>2018-06-10T08:59:57.107Z</time>
      </trkpt>
      <trkpt lat="38.73343133" lon="0.00124683">
        <ele>195.0</ele>
        <time>2018-06-10T08:59:58.107Z</time>
      </trkpt>
      <trkpt lat="38.73341533" lon="0.00133433">
        <ele>195.0</ele>
        <time>2018-06-10T08:59:59.107Z</time>
      </trkpt>
      <trkpt lat="38.73339833" lon="0.00142267">
        <ele>195.0</ele>
        <time>2018-06-10T09:00:00.107Z</time>
      </trkpt>
      <trkpt lat="38.73338017" lon="0.00151183">
        <ele>195.0</ele>
        <time>2018-06-10T09:00:01.107Z</time>
      </trkpt>
      <trkpt lat="38.73336067" lon="0.00160033">
        <ele>195.0</ele>
        <time>2018-06-10T09:00:02.107Z</time>
      </trkpt>
      <trkpt lat="38.73334017" lon="0.0016875">
        <ele>195.0</ele>
        <time>2018-06-10T09:00:03.107Z</time>
      </trkpt>
      <trkpt lat="38.73331983" lon="0.00177367">
        <ele>195.0</ele>
        <time>2018-06-10T09:00:04.107Z</time>
      </trkpt>
      <trkpt lat="38.7333" lon="0.00186067">
        <ele>195.0</ele>
        <time>2018-06-10T09:00:05.107Z</time>
      </trkpt>
      <trkpt lat="38.73328" lon="0.00194867">
        <ele>195.0</ele>
        <time>2018-06-10T09:00:06.107Z</time>
      </trkpt>
      <trkpt lat="38.73325967" lon="0.002037">
        <ele>195.0</ele>
        <time>2018-06-10T09:00:07.107Z</time>
      </trkpt>
      <trkpt lat="38.73323867" lon="0.00212533">
        <ele>195.0</ele>
        <time>2018-06-10T09:00:08.107Z</time>
      </trkpt>
      <trkpt lat="38.73321767" lon="0.00221367">
        <ele>194.0</ele>
        <time>2018-06-10T09:00:09.107Z</time>
      </trkpt>
      <trkpt lat="38.73319617" lon="0.00230217">
        <ele>194.0</ele>
        <time>2018-06-10T09:00:10.107Z</time>
      </trkpt>
      <trkpt lat="38.73317317" lon="0.00239083">
        <ele>194.0</ele>
        <time>2018-06-10T09:00:11.107Z</time>
      </trkpt>
      <trkpt lat="38.7331485" lon="0.00247967">
        <ele>194.0</ele>
        <time>2018-06-10T09:00:12.107Z</time>
      </trkpt>
      <trkpt lat="38.73312183" lon="0.00256833">
        <ele>194.0</ele>
        <time>2018-06-10T09:00:13.107Z</time>
      </trkpt>
      <trkpt lat="38.7330945" lon="0.002657">
        <ele>194.0</ele>
        <time>2018-06-10T09:00:14.107Z</time>
      </trkpt>
      <trkpt lat="38.73306583" lon="0.00274567">
        <ele>194.0</ele>
        <time>2018-06-10T09:00:15.107Z</time>
      </trkpt>
      <trkpt lat="38.73303683" lon="0.0028345">
        <ele>194.0</ele>
        <time>2018-06-10T09:00:16.107Z</time>
      </trkpt>
      <trkpt lat="38.73300767" lon="0.00292367">
        <ele>194.0</ele>
        <time>2018-06-10T09:00:17.107Z</time>
      </trkpt>
      <trkpt lat="38.73297867" lon="0.00301283">
        <ele>194.0</ele>
        <time>2018-06-10T09:00:18.107Z</time>
      </trkpt>
      <trkpt lat="38.73295017" lon="0.00310233">
        <ele>194.0</ele>
        <time>2018-06-10T09:00:19.107Z</time>
      </trkpt>
      <trkpt lat="38.73292167" lon="0.003192">
        <ele>194.0</ele>
        <time>2018-06-10T09:00:20.107Z</time>
      </trkpt>
      <trkpt lat="38.732893" lon="0.00328167">
        <ele>194.0</ele>
        <time>2018-06-10T09:00:21.107Z</time>
      </trkpt>
      <trkpt lat="38.732864" lon="0.00337183">
        <ele>194.0</ele>
        <time>2018-06-10T09:00:22.107Z</time>
      </trkpt>
      <trkpt lat="38.73283483" lon="0.00346217">
        <ele>194.0</ele>
        <time>2018-06-10T09:00:23.107Z</time>
      </trkpt>
      <trkpt lat="38.73280517" lon="0.003553">
        <ele>193.0</ele>
        <time>2018-06-10T09:00:24.107Z</time>
      </trkpt>
      <trkpt lat="38.732775" lon="0.003644">
        <ele>193.0</ele>
        <time>2018-06-10T09:00:25.107Z</time>
      </trkpt>
      <trkpt lat="38.7327445" lon="0.00373583">
        <ele>193.0</ele>
        <time>2018-06-10T09:00:26.107Z</time>
      </trkpt>
      <trkpt lat="38.73271317" lon="0.00382783">
        <ele>193.0</ele>
        <time>2018-06-10T09:00:27.107Z</time>
      </trkpt>
      <trkpt lat="38.7326805" lon="0.00391983">
        <ele>193.0</ele>
        <time>2018-06-10T09:00:28.107Z</time>
      </trkpt>
      <trkpt lat="38.732646" lon="0.0040115">
        <ele>193.0</ele>
        <time>2018-06-10T09:00:29.107Z</time>
      </trkpt>
      <trkpt lat="38.73260933" lon="0.004103">
        <ele>193.0</ele>
        <time>2018-06-10T09:00:30.107Z</time>
      </trkpt>
      <trkpt lat="38.73257067" lon="0.00419417">
        <ele>193.0</ele>
        <time>2018-06-10T09:00:31.107Z</time>
      </trkpt>
      <trkpt lat="38.7325295" lon="0.004284">
        <ele>193.0</ele>
        <time>2018-06-10T09:00:32.107Z</time>
      </trkpt>
      <trkpt lat="38.73248617" lon="0.00437267">
        <ele>193.0</ele>
        <time>2018-06-10T09:00:33.107Z</time>
      </trkpt>
      <trkpt lat="38.73244083" lon="0.00446017">
        <ele>193.0</ele>
        <time>2018-06-10T09:00:34.107Z</time>
      </trkpt>
      <trkpt lat="38.73239417" lon="0.00454717">
        <ele>193.0</ele>
        <time>2018-06-10T09:00:35.107Z</time>
      </trkpt>
      <trkpt lat="38.73234633" lon="0.00463367">
        <ele>193.0</ele>
        <time>2018-06-10T09:00:36.107Z</time>
      </trkpt>
      <trkpt lat="38.73229667" lon="0.00471917">
        <ele>192.0</ele>
        <time>2018-06-10T09:00:37.107Z</time>
      </trkpt>
      <trkpt lat="38.73224567" lon="0.00480467">
        <ele>192.0</ele>
        <time>2018-06-10T09:00:38.107Z</time>
      </trkpt>
      <trkpt lat="38.73219333" lon="0.00489">
        <ele>192.0</ele>
        <time>2018-06-10T09:00:39.107Z</time>
      </trkpt>
      <trkpt lat="38.73214" lon="0.004976">
        <ele>192.0</ele>
        <time>2018-06-10T09:00:40.107Z</time>
      </trkpt>
      <trkpt lat="38.73208617" lon="0.00506267">
        <ele>192.0</ele>
        <time>2018-06-10T09:00:41.107Z</time>
      </trkpt>
      <trkpt lat="38.73203183" lon="0.00515033">
        <ele>192.0</ele>
        <time>2018-06-10T09:00:42.107Z</time>
      </trkpt>
      <trkpt lat="38.731977" lon="0.00523917">
        <ele>191.0</ele>
        <time>2018-06-10T09:00:43.107Z</time>
      </trkpt>
      <trkpt lat="38.7319215" lon="0.00532867">
        <ele>191.0</ele>
        <time>2018-06-10T09:00:44.107Z</time>
      </trkpt>
      <trkpt lat="38.73186583" lon="0.00541883">
        <ele>191.0</ele>
        <time>2018-06-10T09:00:45.107Z</time>
      </trkpt>
      <trkpt lat="38.7318105" lon="0.00550983">
        <ele>191.0</ele>
        <time>2018-06-10T09:00:46.107Z</time>
      </trkpt>
      <trkpt lat="38.73175633" lon="0.00560217">
        <ele>191.0</ele>
        <time>2018-06-10T09:00:47.107Z</time>
      </trkpt>
      <trkpt lat="38.73170367" lon="0.005696">
        <ele>191.0</ele>
        <time>2018-06-10T09:00:48.107Z</time>
      </trkpt>
      <trkpt lat="38.731652" lon="0.0057905">
        <ele>191.0</ele>
        <time>2018-06-10T09:00:49.107Z</time>
      </trkpt>
      <trkpt lat="38.731601" lon="0.00588533">
        <ele>190.0</ele>
        <time>2018-06-10T09:00:50.107Z</time>
      </trkpt>
      <trkpt lat="38.73155033" lon="0.00598017">
        <ele>190.0</ele>
        <time>2018-06-10T09:00:51.107Z</time>
      </trkpt>
      <trkpt lat="38.73149967" lon="0.00607483">
        <ele>190.0</ele>
        <time>2018-06-10T09:00:52.107Z</time>
      </trkpt>
      <trkpt lat="38.73144933" lon="0.0061695">
        <ele>190.0</ele>
        <time>2018-06-10T09:00:53.107Z</time>
      </trkpt>
      <trkpt lat="38.73139933" lon="0.006264">
        <ele>190.0</ele>
        <time>2018-06-10T09:00:54.107Z</time>
      </trkpt>
      <trkpt lat="38.73134967" lon="0.00635867">
        <ele>190.0</ele>
        <time>2018-06-10T09:00:55.107Z</time>
      </trkpt>
      <trkpt lat="38.7313" lon="0.00645333">
        <ele>190.0</ele>
        <time>2018-06-10T09:00:56.107Z</time>
      </trkpt>
      <trkpt lat="38.73125017" lon="0.00654783">
        <ele>190.0</ele>
        <time>2018-06-10T09:00:57.107Z</time>
      </trkpt>
      <trkpt lat="38.7312005" lon="0.00664217">
        <ele>190.0</ele>
        <time>2018-06-10T09:00:58.107Z</time>
      </trkpt>
      <trkpt lat="38.73115283" lon="0.00673733">
        <ele>189.0</ele>
        <time>2018-06-10T09:00:59.107Z</time>
      </trkpt>
      <trkpt lat="38.73110867" lon="0.00683483">
        <ele>189.0</ele>
        <time>2018-06-10T09:01:00.107Z</time>
      </trkpt>
      <trkpt lat="38.731068" lon="0.006934">
        <ele>189.0</ele>
        <time>2018-06-10T09:01:01.107Z</time>
      </trkpt>
      <trkpt lat="38.73102933" lon="0.00703467">
        <ele>189.0</ele>
        <time>2018-06-10T09:01:02.107Z</time>
      </trkpt>
      <trkpt lat="38.730991" lon="0.00713517">
        <ele>189.0</ele>
        <time>2018-06-10T09:01:03.107Z</time>
      </trkpt>
      <trkpt lat="38.73095217" lon="0.00723567">
        <ele>189.0</ele>
        <time>2018-06-10T09:01:04.107Z</time>
      </trkpt>
      <trkpt lat="38.73091283" lon="0.007336">
        <ele>189.0</ele>
        <time>2018-06-10T09:01:05.107Z</time>
      </trkpt>
      <trkpt lat="38.730873" lon="0.00743683">
        <ele>189.0</ele>
        <time>2018-06-10T09:01:06.107Z</time>
      </trkpt>
      <trkpt lat="38.73083333" lon="0.00753767">
        <ele>189.0</ele>
        <time>2018-06-10T09:01:07.107Z</time>
      </trkpt>
      <trkpt lat="38.73079333" lon="0.0076385">
        <ele>189.0</ele>
        <time>2018-06-10T09:01:08.107Z</time>
      </trkpt>
      <trkpt lat="38.7307535" lon="0.00773983">
        <ele>189.0</ele>
        <time>2018-06-10T09:01:09.107Z</time>
      </trkpt>
      <trkpt lat="38.73071383" lon="0.0078415">
        <ele>189.0</ele>
        <time>2018-06-10T09:01:10.107Z</time>
      </trkpt>
      <trkpt lat="38.73067517" lon="0.00794317">
        <ele>189.0</ele>
        <time>2018-06-10T09:01:11.107Z</time>
      </trkpt>
      <trkpt lat="38.73063767" lon="0.0080445">
        <ele>189.0</ele>
        <time>2018-06-10T09:01:12.107Z</time>
      </trkpt>
      <trkpt lat="38.7306025" lon="0.00814583">
        <ele>189.0</ele>
        <time>2018-06-10T09:01:13.107Z</time>
      </trkpt>
      <trkpt lat="38.73057" lon="0.0082475">
        <ele>189.0</ele>
        <time>2018-06-10T09:01:14.107Z</time>
      </trkpt>
      <trkpt lat="38.73054033" lon="0.00834983">
        <ele>189.0</ele>
        <time>2018-06-10T09:01:15.107Z</time>
      </trkpt>
      <trkpt lat="38.73051267" lon="0.00845267">
        <ele>189.0</ele>
        <time>2018-06-10T09:01:16.107Z</time>
      </trkpt>
      <trkpt lat="38.73048517" lon="0.00855517">
        <ele>189.0</ele>
        <time>2018-06-10T09:01:17.107Z</time>
      </trkpt>
      <trkpt lat="38.73045733" lon="0.00865717">
        <ele>189.0</ele>
        <time>2018-06-10T09:01:18.107Z</time>
      </trkpt>
      <trkpt lat="38.73042833" lon="0.008758">
        <ele>189.0</ele>
        <time>2018-06-10T09:01:19.107Z</time>
      </trkpt>
      <trkpt lat="38.73039933" lon="0.00885833">
        <ele>189.0</ele>
        <time>2018-06-10T09:01:20.107Z</time>
      </trkpt>
      <trkpt lat="38.730371" lon="0.008958">
        <ele>189.0</ele>
        <time>2018-06-10T09:01:21.107Z</time>
      </trkpt>
      <trkpt lat="38.730344" lon="0.00905717">
        <ele>189.0</ele>
        <time>2018-06-10T09:01:22.107Z</time>
      </trkpt>
      <trkpt lat="38.73031767" lon="0.00915567">
        <ele>189.0</ele>
        <time>2018-06-10T09:01:23.107Z</time>
      </trkpt>
      <trkpt lat="38.73029217" lon="0.00925317">
        <ele>189.0</ele>
        <time>2018-06-10T09:01:24.107Z</time>
      </trkpt>
      <trkpt lat="38.7302675" lon="0.00934967">
        <ele>189.0</ele>
        <time>2018-06-10T09:01:25.107Z</time>
      </trkpt>
      <trkpt lat="38.73024417" lon="0.00944533">
        <ele>189.0</ele>
        <time>2018-06-10T09:01:26.107Z</time>
      </trkpt>
      <trkpt lat="38.73022267" lon="0.0095405">
        <ele>189.0</ele>
        <time>2018-06-10T09:01:27.107Z</time>
      </trkpt>
      <trkpt lat="38.730204" lon="0.009636">
        <ele>189.0</ele>
        <time>2018-06-10T09:01:28.107Z</time>
      </trkpt>
      <trkpt lat="38.73018967" lon="0.00973217">
        <ele>189.0</ele>
        <time>2018-06-10T09:01:29.107Z</time>
      </trkpt>
      <trkpt lat="38.7301795" lon="0.00982917">
        <ele>189.0</ele>
        <time>2018-06-10T09:01:30.107Z</time>
      </trkpt>
      <trkpt lat="38.730171" lon="0.0099265">
        <ele>189.0</ele>
        <time>2018-06-10T09:01:31.107Z</time>
      </trkpt>
      <trkpt lat="38.73016267" lon="0.01002333">
        <ele>189.0</ele>
        <time>2018-06-10T09:01:32.107Z</time>
      </trkpt>
      <trkpt lat="38.7301545" lon="0.01011967">
        <ele>189.0</ele>
        <time>2018-06-10T09:01:33.107Z</time>
      </trkpt>
      <trkpt lat="38.73014633" lon="0.01021517">
        <ele>189.0</ele>
        <time>2018-06-10T09:01:34.107Z</time>
      </trkpt>
      <trkpt lat="38.730138" lon="0.01031">
        <ele>190.0</ele>
        <time>2018-06-10T09:01:35.107Z</time>
      </trkpt>
      <trkpt lat="38.73012917" lon="0.010404">
        <ele>190.0</ele>
        <time>2018-06-10T09:01:36.107Z</time>
      </trkpt>
      <trkpt lat="38.73011967" lon="0.010497">
        <ele>190.0</ele>
        <time>2018-06-10T09:01:37.107Z</time>
      </trkpt>
      <trkpt lat="38.73010917" lon="0.010589">
        <ele>190.0</ele>
        <time>2018-06-10T09:01:38.107Z</time>
      </trkpt>
      <trkpt lat="38.73009683" lon="0.01067983">
        <ele>190.0</ele>
        <time>2018-06-10T09:01:39.107Z</time>
      </trkpt>
      <trkpt lat="38.73008267" lon="0.01076983">
        <ele>190.0</ele>
        <time>2018-06-10T09:01:40.107Z</time>
      </trkpt>
      <trkpt lat="38.73006667" lon="0.010859">
        <ele>190.0</ele>
        <time>2018-06-10T09:01:41.107Z</time>
      </trkpt>
      <trkpt lat="38.730049" lon="0.01094633">
        <ele>191.0</ele>
        <time>2018-06-10T09:01:42.107Z</time>
      </trkpt>
      <trkpt lat="38.73003" lon="0.01103167">
        <ele>191.0</ele>
        <time>2018-06-10T09:01:43.107Z</time>
      </trkpt>
      <trkpt lat="38.73000917" lon="0.01111433">
        <ele>191.0</ele>
        <time>2018-06-10T09:01:44.107Z</time>
      </trkpt>
      <trkpt lat="38.7299875" lon="0.01119467">
        <ele>191.0</ele>
        <time>2018-06-10T09:01:45.107Z</time>
      </trkpt>
      <trkpt lat="38.72996483" lon="0.011273">
        <ele>191.0</ele>
        <time>2018-06-10T09:01:46.107Z</time>
      </trkpt>
      <trkpt lat="38.729942" lon="0.01134967">
        <ele>192.0</ele>
        <time>2018-06-10T09:01:47.107Z</time>
      </trkpt>
      <trkpt lat="38.72991867" lon="0.01142483">
        <ele>192.0</ele>
        <time>2018-06-10T09:01:48.107Z</time>
      </trkpt>
      <trkpt lat="38.7298955" lon="0.01149867">
        <ele>192.0</ele>
        <time>2018-06-10T09:01:49.107Z</time>
      </trkpt>
      <trkpt lat="38.729873" lon="0.01157117">
        <ele>192.0</ele>
        <time>2018-06-10T09:01:50.107Z</time>
      </trkpt>
      <trkpt lat="38.72985117" lon="0.01164233">
        <ele>192.0</ele>
        <time>2018-06-10T09:01:51.107Z</time>
      </trkpt>
      <trkpt lat="38.729831" lon="0.01171117">
        <ele>193.0</ele>
        <time>2018-06-10T09:01:52.107Z</time>
      </trkpt>
      <trkpt lat="38.7298105" lon="0.011778">
        <ele>193.0</ele>
        <time>2018-06-10T09:01:53.107Z</time>
      </trkpt>
      <trkpt lat="38.72978933" lon="0.01184383">
        <ele>193.0</ele>
        <time>2018-06-10T09:01:54.107Z</time>
      </trkpt>
      <trkpt lat="38.7297675" lon="0.01191">
        <ele>194.0</ele>
        <time>2018-06-10T09:01:55.107Z</time>
      </trkpt>
      <trkpt lat="38.7297465" lon="0.01197583">
        <ele>194.0</ele>
        <time>2018-06-10T09:01:56.107Z</time>
      </trkpt>
      <trkpt lat="38.72972683" lon="0.01203983">
        <ele>194.0</ele>
        <time>2018-06-10T09:01:57.107Z</time>
      </trkpt>
      <trkpt lat="38.72970783" lon="0.01210283">
        <ele>195.0</ele>
        <time>2018-06-10T09:01:58.107Z</time>
      </trkpt>
      <trkpt lat="38.7296885" lon="0.012165">
        <ele>195.0</ele>
        <time>2018-06-10T09:01:59.107Z</time>
      </trkpt>
      <trkpt lat="38.72967017" lon="0.01222667">
        <ele>195.0</ele>
        <time>2018-06-10T09:02:00.107Z</time>
      </trkpt>
      <trkpt lat="38.729652" lon="0.012288">
        <ele>195.0</ele>
        <time>2018-06-10T09:02:01.107Z</time>
      </trkpt>
      <trkpt lat="38.7296345" lon="0.01234733">
        <ele>195.0</ele>
        <time>2018-06-10T09:02:02.107Z</time>
      </trkpt>
      <trkpt lat="38.72961567" lon="0.01240583">
        <ele>195.0</ele>
        <time>2018-06-10T09:02:03.107Z</time>
      </trkpt>
      <trkpt lat="38.72959783" lon="0.01246233">
        <ele>195.0</ele>
        <time>2018-06-10T09:02:04.107Z</time>
      </trkpt>
      <trkpt lat="38.72958067" lon="0.0125175">
        <ele>196.0</ele>
        <time>2018-06-10T09:02:05.107Z</time>
      </trkpt>
      <trkpt lat="38.7295655" lon="0.012574">
        <ele>196.0</ele>
        <time>2018-06-10T09:02:06.107Z</time>
      </trkpt>
      <trkpt lat="38.7295655" lon="0.012574">
        <ele>196.0</ele>
        <time>2018-06-10T09:02:07.107Z</time>
      </trkpt>
      <trkpt lat="38.7295655" lon="0.012574">
        <ele>196.0</ele>
        <time>2018-06-10T09:02:08.107Z</time>
      </trkpt>
      <trkpt lat="38.7295655" lon="0.012574">
        <ele>196.0</ele>
        <time>2018-06-10T09:02:09.107Z</time>
      </trkpt>
      <trkpt lat="38.7295655" lon="0.012574">
        <ele>196.0</ele>
        <time>2018-06-10T09:02:10.107Z</time>
      </trkpt>
      <trkpt lat="38.7295655" lon="0.012574">
        <ele>196.0</ele>
        <time>2018-06-10T09:02:11.107Z</time>
      </trkpt>
      <trkpt lat="38.7289910" lon="0.0145800">
        <ele>213.0</ele>
        <time>2018-06-10T09:58:13Z</time>
      </trkpt>
      <trkpt lat="38.7289780" lon="0.0146200">
        <ele>213.1</ele>
        <time>2018-06-10T09:58:14Z</time>
      </trkpt>
      <trkpt lat="38.7289560" lon="0.0146700">
        <ele>213.1</ele>
        <time>2018-06-10T09:58:15Z</time>
      </trkpt>
      <trkpt lat="38.7289370" lon="0.0147070">
        <ele>213.1</ele>
        <time>2018-06-10T09:58:16Z</time>
      </trkpt>
      <trkpt lat="38.7289130" lon="0.0147540">
        <ele>213.2</ele>
        <time>2018-06-10T09:58:17Z</time>
      </trkpt>
      <trkpt lat="38.7289310" lon="0.0148030">
        <ele>213.3</ele>
        <time>2018-06-10T09:58:18Z</time>
      </trkpt>
      <trkpt lat="38.7289220" lon="0.0148480">
        <ele>213.4</ele>
        <time>2018-06-10T09:58:19Z</time>
      </trkpt>
      <trkpt lat="38.7289180" lon="0.0148910">
        <ele>213.4</ele>
        <time>2018-06-10T09:58:20Z</time>
      </trkpt>
      <trkpt lat="38.7289170" lon="0.0149290">
        <ele>213.5</ele>
        <time>2018-06-10T09:58:21Z</time>
      </trkpt>
      <trkpt lat="38.7289100" lon="0.0149630">
        <ele>213.6</ele>
        <time>2018-06-10T09:58:22Z</time>
      </trkpt>
      <trkpt lat="38.7289010" lon="0.0149990">
        <ele>213.6</ele>
        <time>2018-06-10T09:58:23Z</time>
      </trkpt>
      <trkpt lat="38.7288870" lon="0.0150400">
        <ele>213.7</ele>
        <time>2018-06-10T09:58:24Z</time>
      </trkpt>
      <trkpt lat="38.7288710" lon="0.0150850">
        <ele>213.8</ele>
        <time>2018-06-10T09:58:25Z</time>
      </trkpt>
      <trkpt lat="38.7288540" lon="0.0151330">
        <ele>213.9</ele>
        <time>2018-06-10T09:58:26Z</time>
      </trkpt>
      <trkpt lat="38.7288330" lon="0.0151810">
        <ele>214.0</ele>
        <time>2018-06-10T09:58:27Z</time>
      </trkpt>
      <trkpt lat="38.7288170" lon="0.0152250">
        <ele>214.0</ele>
        <time>2018-06-10T09:58:28Z</time>
      </trkpt>
      <trkpt lat="38.7288030" lon="0.0152700">
        <ele>214.0</ele>
        <time>2018-06-10T09:58:29Z</time>
      </trkpt>
      <trkpt lat="38.7287950" lon="0.0153140">
        <ele>214.0</ele>
        <time>2018-06-10T09:58:30Z</time>
      </trkpt>
      <trkpt lat="38.7287830" lon="0.0153560">
        <ele>214.0</ele>
        <time>2018-06-10T09:58:31Z</time>
      </trkpt>
      <trkpt lat="38.7287720" lon="0.0153970">
        <ele>214.0</ele>
        <time>2018-06-10T09:58:32Z</time>
      </trkpt>
      <trkpt lat="38.7287600" lon="0.0154370">
        <ele>214.0</ele>
        <time>2018-06-10T09:58:33Z</time>
      </trkpt>
      <trkpt lat="38.7287530" lon="0.0154750">
        <ele>214.0</ele>
        <time>2018-06-10T09:58:34Z</time>
      </trkpt>
      <trkpt lat="38.7287450" lon="0.0155160">
        <ele>214.0</ele>
        <time>2018-06-10T09:58:35Z</time>
      </trkpt>
      <trkpt lat="38.7287330" lon="0.0155570">
        <ele>214.0</ele>
        <time>2018-06-10T09:58:36Z</time>
      </trkpt>
      <trkpt lat="38.7287200" lon="0.0156000">
        <ele>214.0</ele>
        <time>2018-06-10T09:58:37Z</time>
      </trkpt>
      <trkpt lat="38.7287080" lon="0.0156450">
        <ele>214.0</ele>
        <time>2018-06-10T09:58:38Z</time>
      </trkpt>
      <trkpt lat="38.7286950" lon="0.0156900">
        <ele>214.0</ele>
        <time>2018-06-10T09:58:39Z</time>
      </trkpt>
      <trkpt lat="38.7286830" lon="0.0157360">
        <ele>214.0</ele>
        <time>2018-06-10T09:58:40Z</time>
      </trkpt>
      <trkpt lat="38.7286690" lon="0.0157820">
        <ele>214.0</ele>
        <time>2018-06-10T09:58:41Z</time>
      </trkpt>
      <trkpt lat="38.7286540" lon="0.0158290">
        <ele>214.4</ele>
        <time>2018-06-10T09:58:42Z</time>
      </trkpt>
      <trkpt lat="38.7286390" lon="0.0158750">
        <ele>214.7</ele>
        <time>2018-06-10T09:58:43Z</time>
      </trkpt>
      <trkpt lat="38.7286270" lon="0.0159200">
        <ele>214.9</ele>
        <time>2018-06-10T09:58:44Z</time>
      </trkpt>
      <trkpt lat="38.7286130" lon="0.0159650">
        <ele>215.2</ele>
        <time>2018-06-10T09:58:45Z</time>
      </trkpt>
      <trkpt lat="38.7285970" lon="0.0160090">
        <ele>215.5</ele>
        <time>2018-06-10T09:58:46Z</time>
      </trkpt>
      <trkpt lat="38.7285810" lon="0.0160500">
        <ele>215.8</ele>
        <time>2018-06-10T09:58:47Z</time>
      </trkpt>
      <trkpt lat="38.7285630" lon="0.0160930">
        <ele>216.7</ele>
        <time>2018-06-10T09:58:48Z</time>
      </trkpt>
      <trkpt lat="38.7285430" lon="0.0161330">
        <ele>218.7</ele>
        <time>2018-06-10T09:58:49Z</time>
      </trkpt>
      <trkpt lat="38.7285230" lon="0.0161730">
        <ele>220.7</ele>
        <time>2018-06-10T09:58:50Z</time>
      </trkpt>
      <trkpt lat="38.7285000" lon="0.0162170">
        <ele>222.9</ele>
        <time>2018-06-10T09:58:51Z</time>
      </trkpt>
      <trkpt lat="38.7284770" lon="0.0162610">
        <ele>225.1</ele>
        <time>2018-06-10T09:58:52Z</time>
      </trkpt>
      <trkpt lat="38.7284540" lon="0.0163020">
        <ele>227.2</ele>
        <time>2018-06-10T09:58:53Z</time>
      </trkpt>
      <trkpt lat="38.7284300" lon="0.0163410">
        <ele>229.3</ele>
        <time>2018-06-10T09:58:54Z</time>
      </trkpt>
      <trkpt lat="38.7284060" lon="0.0163800">
        <ele>231.4</ele>
        <time>2018-06-10T09:58:55Z</time>
      </trkpt>
      <trkpt lat="38.7283850" lon="0.0164170">
        <ele>233.3</ele>
        <time>2018-06-10T09:58:56Z</time>
      </trkpt>
      <trkpt lat="38.7283700" lon="0.0164500">
        <ele>234.9</ele>
        <time>2018-06-10T09:58:57Z</time>
      </trkpt>
      <trkpt lat="38.7283560" lon="0.0164860">
        <ele>236.6</ele>
        <time>2018-06-10T09:58:58Z</time>
      </trkpt>
      <trkpt lat="38.7283470" lon="0.0165250">
        <ele>238.3</ele>
        <time>2018-06-10T09:58:59Z</time>
      </trkpt>
      <trkpt lat="38.7283390" lon="0.0165640">
        <ele>240.0</ele>
        <time>2018-06-10T09:59:00Z</time>
      </trkpt>
      <trkpt lat="38.7283290" lon="0.0166050">
        <ele>241.8</ele>
        <time>2018-06-10T09:59:01Z</time>
      </trkpt>
      <trkpt lat="38.7283200" lon="0.0166530">
        <ele>243.9</ele>
        <time>2018-06-10T09:59:02Z</time>
      </trkpt>
      <trkpt lat="38.7283080" lon="0.0167020">
        <ele>246.0</ele>
        <time>2018-06-10T09:59:03Z</time>
      </trkpt>
      <trkpt lat="38.7282930" lon="0.0167510">
        <ele>247.0</ele>
        <time>2018-06-10T09:59:04Z</time>
      </trkpt>
      <trkpt lat="38.7282740" lon="0.0168010">
        <ele>247.0</ele>
        <time>2018-06-10T09:59:05Z</time>
      </trkpt>
      <trkpt lat="38.7282580" lon="0.0168510">
        <ele>247.0</ele>
        <time>2018-06-10T09:59:06Z</time>
      </trkpt>
      <trkpt lat="38.7282390" lon="0.0168960">
        <ele>247.0</ele>
        <time>2018-06-10T09:59:07Z</time>
      </trkpt>
      <trkpt lat="38.7282230" lon="0.0169390">
        <ele>247.0</ele>
        <time>2018-06-10T09:59:08Z</time>
      </trkpt>
      <trkpt lat="38.7282040" lon="0.0169810">
        <ele>247.1</ele>
        <time>2018-06-10T09:59:09Z</time>
      </trkpt>
      <trkpt lat="38.7281860" lon="0.0170180">
        <ele>247.1</ele>
        <time>2018-06-10T09:59:10Z</time>
      </trkpt>
      <trkpt lat="38.7281670" lon="0.0170580">
        <ele>247.1</ele>
        <time>2018-06-10T09:59:11Z</time>
      </trkpt>
      <trkpt lat="38.7281460" lon="0.0170980">
        <ele>247.1</ele>
        <time>2018-06-10T09:59:12Z</time>
      </trkpt>
      <trkpt lat="38.7281280" lon="0.0171380">
        <ele>247.1</ele>
        <time>2018-06-10T09:59:13Z</time>
      </trkpt>
      <trkpt lat="38.7281090" lon="0.0171790">
        <ele>247.1</ele>
        <time>2018-06-10T09:59:14Z</time>
      </trkpt>
      <trkpt lat="38.7280920" lon="0.0172230">
        <ele>247.1</ele>
        <time>2018-06-10T09:59:15Z</time>
      </trkpt>
      <trkpt lat="38.7280760" lon="0.0172680">
        <ele>247.1</ele>
        <time>2018-06-10T09:59:16Z</time>
      </trkpt>
      <trkpt lat="38.7280580" lon="0.0173110">
        <ele>247.1</ele>
        <time>2018-06-10T09:59:17Z</time>
      </trkpt>
      <trkpt lat="38.7280380" lon="0.0173520">
        <ele>247.0</ele>
        <time>2018-06-10T09:59:18Z</time>
      </trkpt>
      <trkpt lat="38.7280190" lon="0.0173920">
        <ele>247.0</ele>
        <time>2018-06-10T09:59:19Z</time>
      </trkpt>
      <trkpt lat="38.7279980" lon="0.0174320">
        <ele>247.0</ele>
        <time>2018-06-10T09:59:20Z</time>
      </trkpt>
      <trkpt lat="38.7279760" lon="0.0174740">
        <ele>247.2</ele>
        <time>2018-06-10T09:59:21Z</time>
      </trkpt>
      <trkpt lat="38.7279560" lon="0.0175180">
        <ele>247.3</ele>
        <time>2018-06-10T09:59:22Z</time>
      </trkpt>
      <trkpt lat="38.7279380" lon="0.0175600">
        <ele>247.4</ele>
        <time>2018-06-10T09:59:23Z</time>
      </trkpt>
      <trkpt lat="38.7279210" lon="0.0176020">
        <ele>247.5</ele>
        <time>2018-06-10T09:59:24Z</time>
      </trkpt>
      <trkpt lat="38.7279070" lon="0.0176450">
        <ele>247.6</ele>
        <time>2018-06-10T09:59:25Z</time>
      </trkpt>
      <trkpt lat="38.7278950" lon="0.0176860">
        <ele>247.7</ele>
        <time>2018-06-10T09:59:26Z</time>
      </trkpt>
      <trkpt lat="38.7278820" lon="0.0177240">
        <ele>247.8</ele>
        <time>2018-06-10T09:59:27Z</time>
      </trkpt>
      <trkpt lat="38.7278680" lon="0.0177630">
        <ele>247.9</ele>
        <time>2018-06-10T09:59:28Z</time>
      </trkpt>
      <trkpt lat="38.7278530" lon="0.0178030">
        <ele>248.0</ele>
        <time>2018-06-10T09:59:29Z</time>
      </trkpt>
      <trkpt lat="38.7278400" lon="0.0178430">
        <ele>248.1</ele>
        <time>2018-06-10T09:59:30Z</time>
      </trkpt>
      <trkpt lat="38.7278230" lon="0.0178840">
        <ele>248.3</ele>
        <time>2018-06-10T09:59:31Z</time>
      </trkpt>
      <trkpt lat="38.7278090" lon="0.0179220">
        <ele>248.4</ele>
        <time>2018-06-10T09:59:32Z</time>
      </trkpt>
      <trkpt lat="38.7277950" lon="0.0179570">
        <ele>248.5</ele>
        <time>2018-06-10T09:59:33Z</time>
      </trkpt>
      <trkpt lat="38.7277810" lon="0.0179970">
        <ele>248.6</ele>
        <time>2018-06-10T09:59:34Z</time>
      </trkpt>
      <trkpt lat="38.7277680" lon="0.0180360">
        <ele>248.7</ele>
        <time>2018-06-10T09:59:35Z</time>
      </trkpt>
      <trkpt lat="38.7277560" lon="0.0180730">
        <ele>248.8</ele>
        <time>2018-06-10T09:59:36Z</time>
      </trkpt>
      <trkpt lat="38.7277440" lon="0.0181140">
        <ele>248.9</ele>
        <time>2018-06-10T09:59:37Z</time>
      </trkpt>
      <trkpt lat="38.7277300" lon="0.0181540">
        <ele>249.0</ele>
        <time>2018-06-10T09:59:38Z</time>
      </trkpt>
      <trkpt lat="38.7277170" lon="0.0181920">
        <ele>249.1</ele>
        <time>2018-06-10T09:59:39Z</time>
      </trkpt>
      <trkpt lat="38.7277000" lon="0.0182320">
        <ele>249.2</ele>
        <time>2018-06-10T09:59:40Z</time>
      </trkpt>
      <trkpt lat="38.7276860" lon="0.0182720">
        <ele>249.3</ele>
        <time>2018-06-10T09:59:41Z</time>
      </trkpt>
      <trkpt lat="38.7276710" lon="0.0183120">
        <ele>249.4</ele>
        <time>2018-06-10T09:59:42Z</time>
      </trkpt>
      <trkpt lat="38.7276570" lon="0.0183530">
        <ele>249.4</ele>
        <time>2018-06-10T09:59:43Z</time>
      </trkpt>
      <trkpt lat="38.7276420" lon="0.0183960">
        <ele>249.5</ele>
        <time>2018-06-10T09:59:44Z</time>
      </trkpt>
      <trkpt lat="38.7276270" lon="0.0184350">
        <ele>249.6</ele>
        <time>2018-06-10T09:59:45Z</time>
      </trkpt>
      <trkpt lat="38.7276140" lon="0.0184730">
        <ele>249.6</ele>
        <time>2018-06-10T09:59:46Z</time>
      </trkpt>
      <trkpt lat="38.7276020" lon="0.0185130">
        <ele>249.7</ele>
        <time>2018-06-10T09:59:47Z</time>
      </trkpt>
      <trkpt lat="38.7275920" lon="0.0185500">
        <ele>249.7</ele>
        <time>2018-06-10T09:59:48Z</time>
      </trkpt>
      <trkpt lat="38.7275830" lon="0.0185890">
        <ele>249.7</ele>
        <time>2018-06-10T09:59:49Z</time>
      </trkpt>
      <trkpt lat="38.7275720" lon="0.0186310">
        <ele>249.8</ele>
        <time>2018-06-10T09:59:50Z</time>
      </trkpt>
      <trkpt lat="38.7275630" lon="0.0186730">
        <ele>249.8</ele>
        <time>2018-06-10T09:59:51Z</time>
      </trkpt>
      <trkpt lat="38.7275480" lon="0.0187140">
        <ele>249.8</ele>
        <time>2018-06-10T09:59:52Z</time>
      </trkpt>
      <trkpt lat="38.7275330" lon="0.0187570">
        <ele>249.8</ele>
        <time>2018-06-10T09:59:53Z</time>
      </trkpt>
      <trkpt lat="38.7275200" lon="0.0187970">
        <ele>249.9</ele>
        <time>2018-06-10T09:59:54Z</time>
      </trkpt>
      <trkpt lat="38.7275090" lon="0.0188370">
        <ele>249.9</ele>
        <time>2018-06-10T09:59:55Z</time>
      </trkpt>
      <trkpt lat="38.7274990" lon="0.0188760">
        <ele>249.9</ele>
        <time>2018-06-10T09:59:56Z</time>
      </trkpt>
      <trkpt lat="38.7274890" lon="0.0189150">
        <ele>249.9</ele>
        <time>2018-06-10T09:59:57Z</time>
      </trkpt>
      <trkpt lat="38.7274800" lon="0.0189550">
        <ele>250.0</ele>
        <time>2018-06-10T09:59:58Z</time>
      </trkpt>
      <trkpt lat="38.7274690" lon="0.0189930">
        <ele>250.0</ele>
        <time>2018-06-10T09:59:59Z</time>
      </trkpt>
      <trkpt lat="38.7274580" lon="0.0190360">
        <ele>250.0</ele>
        <time>2018-06-10T10:00:00Z</time>
      </trkpt>
      <trkpt lat="38.7274440" lon="0.0190780">
        <ele>250.1</ele>
        <time>2018-06-10T10:00:01Z</time>
      </trkpt>
      <trkpt lat="38.7274310" lon="0.0191200">
        <ele>250.1</ele>
        <time>2018-06-10T10:00:02Z</time>
      </trkpt>
      <trkpt lat="38.7274220" lon="0.0191630">
        <ele>250.2</ele>
        <time>2018-06-10T10:00:03Z</time>
      </trkpt>
      <trkpt lat="38.7274150" lon="0.0192060">
        <ele>250.2</ele>
        <time>2018-06-10T10:00:04Z</time>
      </trkpt>
      <trkpt lat="38.7274080" lon="0.0192520">
        <ele>250.3</ele>
        <time>2018-06-10T10:00:05Z</time>
      </trkpt>
      <trkpt lat="38.7274030" lon="0.0192990">
        <ele>250.3</ele>
        <time>2018-06-10T10:00:06Z</time>
      </trkpt>
      <trkpt lat="38.7273990" lon="0.0193400">
        <ele>250.4</ele>
        <time>2018-06-10T10:00:07Z</time>
      </trkpt>
      <trkpt lat="38.7273940" lon="0.0193800">
        <ele>250.4</ele>
        <time>2018-06-10T10:00:08Z</time>
      </trkpt>
      <trkpt lat="38.7273890" lon="0.0194220">
        <ele>250.5</ele>
        <time>2018-06-10T10:00:09Z</time>
      </trkpt>
      <trkpt lat="38.7273850" lon="0.0194610">
        <ele>250.5</ele>
        <time>2018-06-10T10:00:10Z</time>
      </trkpt>
      <trkpt lat="38.7273850" lon="0.0195040">
        <ele>250.6</ele>
        <time>2018-06-10T10:00:11Z</time>
      </trkpt>
      <trkpt lat="38.7273850" lon="0.0195510">
        <ele>250.7</ele>
        <time>2018-06-10T10:00:12Z</time>
      </trkpt>
      <trkpt lat="38.7273870" lon="0.0195970">
        <ele>250.7</ele>
        <time>2018-06-10T10:00:13Z</time>
      </trkpt>
      <trkpt lat="38.7273880" lon="0.0196480">
        <ele>250.8</ele>
        <time>2018-06-10T10:00:14Z</time>
      </trkpt>
      <trkpt lat="38.7273890" lon="0.0196960">
        <ele>250.9</ele>
        <time>2018-06-10T10:00:15Z</time>
      </trkpt>
      <trkpt lat="38.7273880" lon="0.0197450">
        <ele>251.0</ele>
        <time>2018-06-10T10:00:16Z</time>
      </trkpt>
      <trkpt lat="38.7273870" lon="0.0197900">
        <ele>251.1</ele>
        <time>2018-06-10T10:00:17Z</time>
      </trkpt>
      <trkpt lat="38.7273840" lon="0.0198390">
        <ele>251.2</ele>
        <time>2018-06-10T10:00:18Z</time>
      </trkpt>
      <trkpt lat="38.7273830" lon="0.0198840">
        <ele>251.3</ele>
        <time>2018-06-10T10:00:19Z</time>
      </trkpt>
      <trkpt lat="38.7273850" lon="0.0199240">
        <ele>251.4</ele>
        <time>2018-06-10T10:00:20Z</time>
      </trkpt>
      <trkpt lat="38.7273880" lon="0.0199660">
        <ele>251.4</ele>
        <time>2018-06-10T10:00:21Z</time>
      </trkpt>
      <trkpt lat="38.7273900" lon="0.0200040">
        <ele>251.5</ele>
        <time>2018-06-10T10:00:22Z</time>
      </trkpt>
      <trkpt lat="38.7273920" lon="0.0200440">
        <ele>251.6</ele>
        <time>2018-06-10T10:00:23Z</time>
      </trkpt>
      <trkpt lat="38.7273960" lon="0.0200890">
        <ele>251.7</ele>
        <time>2018-06-10T10:00:24Z</time>
      </trkpt>
      <trkpt lat="38.7274010" lon="0.0201370">
        <ele>251.8</ele>
        <time>2018-06-10T10:00:25Z</time>
      </trkpt>
      <trkpt lat="38.7274090" lon="0.0201870">
        <ele>251.8</ele>
        <time>2018-06-10T10:00:26Z</time>
      </trkpt>
      <trkpt lat="38.7274180" lon="0.0202330">
        <ele>251.9</ele>
        <time>2018-06-10T10:00:27Z</time>
      </trkpt>
      <trkpt lat="38.7274260" lon="0.0202790">
        <ele>252.0</ele>
        <time>2018-06-10T10:00:28Z</time>
      </trkpt>
      <trkpt lat="38.7274360" lon="0.0203230">
        <ele>252.0</ele>
        <time>2018-06-10T10:00:29Z</time>
      </trkpt>
      <trkpt lat="38.7274450" lon="0.0203680">
        <ele>252.1</ele>
        <time>2018-06-10T10:00:30Z</time>
      </trkpt>
      <trkpt lat="38.7274500" lon="0.0204090">
        <ele>252.2</ele>
        <time>2018-06-10T10:00:31Z</time>
      </trkpt>
      <trkpt lat="38.7274540" lon="0.0204480">
        <ele>252.2</ele>
        <time>2018-06-10T10:00:32Z</time>
      </trkpt>
      <trkpt lat="38.7274610" lon="0.0204910">
        <ele>252.2</ele>
        <time>2018-06-10T10:00:33Z</time>
      </trkpt>
      <trkpt lat="38.7274670" lon="0.0205290">
        <ele>252.3</ele>
        <time>2018-06-10T10:00:34Z</time>
      </trkpt>
      <trkpt lat="38.7274750" lon="0.0205660">
        <ele>252.3</ele>
        <time>2018-06-10T10:00:35Z</time>
      </trkpt>
      <trkpt lat="38.7274830" lon="0.0206060">
        <ele>252.3</ele>
        <time>2018-06-10T10:00:36Z</time>
      </trkpt>
      <trkpt lat="38.7274910" lon="0.0206490">
        <ele>252.4</ele>
        <time>2018-06-10T10:00:37Z</time>
      </trkpt>
      <trkpt lat="38.7274990" lon="0.0206940">
        <ele>252.4</ele>
        <time>2018-06-10T10:00:38Z</time>
      </trkpt>
      <trkpt lat="38.7275060" lon="0.0207360">
        <ele>252.4</ele>
        <time>2018-06-10T10:00:39Z</time>
      </trkpt>
      <trkpt lat="38.7275140" lon="0.0207800">
        <ele>252.4</ele>
        <time>2018-06-10T10:00:40Z</time>
      </trkpt>
      <trkpt lat="38.7275240" lon="0.0208230">
        <ele>252.5</ele>
        <time>2018-06-10T10:00:41Z</time>
      </trkpt>
      <trkpt lat="38.7275350" lon="0.0208650">
        <ele>252.5</ele>
        <time>2018-06-10T10:00:42Z</time>
      </trkpt>
      <trkpt lat="38.7275470" lon="0.0209050">
        <ele>252.5</ele>
        <time>2018-06-10T10:00:43Z</time>
      </trkpt>
      <trkpt lat="38.7275620" lon="0.0209460">
        <ele>252.5</ele>
        <time>2018-06-10T10:00:44Z</time>
      </trkpt>
      <trkpt lat="38.7275770" lon="0.0209840">
        <ele>252.5</ele>
        <time>2018-06-10T10:00:45Z</time>
      </trkpt>
      <trkpt lat="38.7275920" lon="0.0210210">
        <ele>252.5</ele>
        <time>2018-06-10T10:00:46Z</time>
      </trkpt>
      <trkpt lat="38.7276090" lon="0.0210620">
        <ele>252.5</ele>
        <time>2018-06-10T10:00:47Z</time>
      </trkpt>
      <trkpt lat="38.7276270" lon="0.0211010">
        <ele>252.5</ele>
        <time>2018-06-10T10:00:48Z</time>
      </trkpt>
      <trkpt lat="38.7276430" lon="0.0211390">
        <ele>252.5</ele>
        <time>2018-06-10T10:00:49Z</time>
      </trkpt>
      <trkpt lat="38.7276590" lon="0.0211800">
        <ele>252.5</ele>
        <time>2018-06-10T10:00:50Z</time>
      </trkpt>
      <trkpt lat="38.7276730" lon="0.0212190">
        <ele>252.5</ele>
        <time>2018-06-10T10:00:51Z</time>
      </trkpt>
      <trkpt lat="38.7276870" lon="0.0212570">
        <ele>252.5</ele>
        <time>2018-06-10T10:00:52Z</time>
      </trkpt>
      <trkpt lat="38.7277000" lon="0.0212970">
        <ele>252.5</ele>
        <time>2018-06-10T10:00:53Z</time>
      </trkpt>
      <trkpt lat="38.7277130" lon="0.0213390">
        <ele>252.5</ele>
        <time>2018-06-10T10:00:54Z</time>
      </trkpt>
      <trkpt lat="38.7277260" lon="0.0213830">
        <ele>252.5</ele>
        <time>2018-06-10T10:00:55Z</time>
      </trkpt>
      <trkpt lat="38.7277410" lon="0.0214290">
        <ele>252.6</ele>
        <time>2018-06-10T10:00:56Z</time>
      </trkpt>
      <trkpt lat="38.7277580" lon="0.0214760">
        <ele>252.6</ele>
        <time>2018-06-10T10:00:57Z</time>
      </trkpt>
      <trkpt lat="38.7277740" lon="0.0215260">
        <ele>252.6</ele>
        <time>2018-06-10T10:00:58Z</time>
      </trkpt>
      <trkpt lat="38.7277840" lon="0.0215710">
        <ele>252.7</ele>
        <time>2018-06-10T10:00:59Z</time>
      </trkpt>
      <trkpt lat="38.7277960" lon="0.0216160">
        <ele>252.7</ele>
        <time>2018-06-10T10:01:00Z</time>
      </trkpt>
      <trkpt lat="38.7278090" lon="0.0216580">
        <ele>252.8</ele>
        <time>2018-06-10T10:01:01Z</time>
      </trkpt>
      <trkpt lat="38.7278170" lon="0.0216970">
        <ele>252.8</ele>
        <time>2018-06-10T10:01:02Z</time>
      </trkpt>
      <trkpt lat="38.7278250" lon="0.0217410">
        <ele>252.9</ele>
        <time>2018-06-10T10:01:03Z</time>
      </trkpt>
      <trkpt lat="38.7278330" lon="0.0217850">
        <ele>252.9</ele>
        <time>2018-06-10T10:01:04Z</time>
      </trkpt>
      <trkpt lat="38.7278450" lon="0.0218290">
        <ele>253.0</ele>
        <time>2018-06-10T10:01:05Z</time>
      </trkpt>
      <trkpt lat="38.7278550" lon="0.0218720">
        <ele>253.0</ele>
        <time>2018-06-10T10:01:06Z</time>
      </trkpt>
      <trkpt lat="38.7278640" lon="0.0219160">
        <ele>253.0</ele>
        <time>2018-06-10T10:01:07Z</time>
      </trkpt>
      <trkpt lat="38.7278720" lon="0.0219610">
        <ele>253.1</ele>
        <time>2018-06-10T10:01:08Z</time>
      </trkpt>
      <trkpt lat="38.7278790" lon="0.0220060">
        <ele>253.1</ele>
        <time>2018-06-10T10:01:09Z</time>
      </trkpt>
      <trkpt lat="38.7278860" lon="0.0220510">
        <ele>253.2</ele>
        <time>2018-06-10T10:01:10Z</time>
      </trkpt>
      <trkpt lat="38.7278930" lon="0.0220950">
        <ele>253.2</ele>
        <time>2018-06-10T10:01:11Z</time>
      </trkpt>
      <trkpt lat="38.7278980" lon="0.0221410">
        <ele>253.2</ele>
        <time>2018-06-10T10:01:12Z</time>
      </trkpt>
      <trkpt lat="38.7279020" lon="0.0221880">
        <ele>253.3</ele>
        <time>2018-06-10T10:01:13Z</time>
      </trkpt>
      <trkpt lat="38.7279090" lon="0.0222360">
        <ele>253.3</ele>
        <time>2018-06-10T10:01:14Z</time>
      </trkpt>
      <trkpt lat="38.7279170" lon="0.0222830">
        <ele>253.3</ele>
        <time>2018-06-10T10:01:15Z</time>
      </trkpt>
      <trkpt lat="38.7279270" lon="0.0223270">
        <ele>253.3</ele>
        <time>2018-06-10T10:01:16Z</time>
      </trkpt>
      <trkpt lat="38.7279360" lon="0.0223720">
        <ele>253.4</ele>
        <time>2018-06-10T10:01:17Z</time>
      </trkpt>
      <trkpt lat="38.7279440" lon="0.0224180">
        <ele>253.4</ele>
        <time>2018-06-10T10:01:18Z</time>
      </trkpt>
      <trkpt lat="38.7279510" lon="0.0224620">
        <ele>253.4</ele>
        <time>2018-06-10T10:01:19Z</time>
      </trkpt>
      <trkpt lat="38.7279620" lon="0.0225060">
        <ele>253.4</ele>
        <time>2018-06-10T10:01:20Z</time>
      </trkpt>
      <trkpt lat="38.7279700" lon="0.0225480">
        <ele>253.4</ele>
        <time>2018-06-10T10:01:21Z</time>
      </trkpt>
      <trkpt lat="38.7279810" lon="0.0225920">
        <ele>253.5</ele>
        <time>2018-06-10T10:01:22Z</time>
      </trkpt>
      <trkpt lat="38.7279920" lon="0.0226330">
        <ele>253.5</ele>
        <time>2018-06-10T10:01:23Z</time>
      </trkpt>
      <trkpt lat="38.7280030" lon="0.0226700">
        <ele>253.5</ele>
        <time>2018-06-10T10:01:24Z</time>
      </trkpt>
      <trkpt lat="38.7280110" lon="0.0227090">
        <ele>253.5</ele>
        <time>2018-06-10T10:01:25Z</time>
      </trkpt>
      <trkpt lat="38.7280150" lon="0.0227510">
        <ele>253.5</ele>
        <time>2018-06-10T10:01:26Z</time>
      </trkpt>
      <trkpt lat="38.7280150" lon="0.0227940">
        <ele>253.5</ele>
        <time>2018-06-10T10:01:27Z</time>
      </trkpt>
      <trkpt lat="38.7280140" lon="0.0228400">
        <ele>253.5</ele>
        <time>2018-06-10T10:01:28Z</time>
      </trkpt>
      <trkpt lat="38.7280160" lon="0.0228850">
        <ele>253.5</ele>
        <time>2018-06-10T10:01:29Z</time>
      </trkpt>
      <trkpt lat="38.7280180" lon="0.0229280">
        <ele>253.5</ele>
        <time>2018-06-10T10:01:30Z</time>
      </trkpt>
      <trkpt lat="38.7280180" lon="0.0229700">
        <ele>253.5</ele>
        <time>2018-06-10T10:01:31Z</time>
      </trkpt>
      <trkpt lat="38.7280170" lon="0.0230130">
        <ele>253.5</ele>
        <time>2018-06-10T10:01:32Z</time>
      </trkpt>
      <trkpt lat="38.7280150" lon="0.0230590">
        <ele>253.5</ele>
        <time>2018-06-10T10:01:33Z</time>
      </trkpt>
      <trkpt lat="38.7280130" lon="0.0231050">
        <ele>253.5</ele>
        <time>2018-06-10T10:01:34Z</time>
      </trkpt>
      <trkpt lat="38.7280120" lon="0.0231470">
        <ele>253.5</ele>
        <time>2018-06-10T10:01:35Z</time>
      </trkpt>
      <trkpt lat="38.7280110" lon="0.0231930">
        <ele>253.5</ele>
        <time>2018-06-10T10:01:36Z</time>
      </trkpt>
      <trkpt lat="38.7280090" lon="0.0232370">
        <ele>253.5</ele>
        <time>2018-06-10T10:01:37Z</time>
      </trkpt>
      <trkpt lat="38.7280090" lon="0.0232780">
        <ele>253.5</ele>
        <time>2018-06-10T10:01:38Z</time>
      </trkpt>
      <trkpt lat="38.7280090" lon="0.0233210">
        <ele>253.5</ele>
        <time>2018-06-10T10:01:39Z</time>
      </trkpt>
      <trkpt lat="38.7280090" lon="0.0233650">
        <ele>253.5</ele>
        <time>2018-06-10T10:01:40Z</time>
      </trkpt>
      <trkpt lat="38.7280060" lon="0.0234090">
        <ele>253.5</ele>
        <time>2018-06-10T10:01:41Z</time>
      </trkpt>
      <trkpt lat="38.7280020" lon="0.0234520">
        <ele>253.5</ele>
        <time>2018-06-10T10:01:42Z</time>
      </trkpt>
      <trkpt lat="38.7279980" lon="0.0234950">
        <ele>253.5</ele>
        <time>2018-06-10T10:01:43Z</time>
      </trkpt>
      <trkpt lat="38.7279930" lon="0.0235420">
        <ele>253.5</ele>
        <time>2018-06-10T10:01:44Z</time>
      </trkpt>
      <trkpt lat="38.7279900" lon="0.0235870">
        <ele>253.5</ele>
        <time>2018-06-10T10:01:45Z</time>
      </trkpt>
      <trkpt lat="38.7279830" lon="0.0236300">
        <ele>253.5</ele>
        <time>2018-06-10T10:01:46Z</time>
      </trkpt>
      <trkpt lat="38.7279760" lon="0.0236710">
        <ele>253.5</ele>
        <time>2018-06-10T10:01:47Z</time>
      </trkpt>
      <trkpt lat="38.7279680" lon="0.0237120">
        <ele>253.4</ele>
        <time>2018-06-10T10:01:48Z</time>
      </trkpt>
      <trkpt lat="38.7279620" lon="0.0237520">
        <ele>253.4</ele>
        <time>2018-06-10T10:01:49Z</time>
      </trkpt>
      <trkpt lat="38.7279550" lon="0.0237920">
        <ele>253.4</ele>
        <time>2018-06-10T10:01:50Z</time>
      </trkpt>
      <trkpt lat="38.7279490" lon="0.0238360">
        <ele>253.3</ele>
        <time>2018-06-10T10:01:51Z</time>
      </trkpt>
      <trkpt lat="38.7279420" lon="0.0238790">
        <ele>253.2</ele>
        <time>2018-06-10T10:01:52Z</time>
      </trkpt>
      <trkpt lat="38.7279360" lon="0.0239240">
        <ele>253.2</ele>
        <time>2018-06-10T10:01:53Z</time>
      </trkpt>
      <trkpt lat="38.7279300" lon="0.0239670">
        <ele>253.1</ele>
        <time>2018-06-10T10:01:54Z</time>
      </trkpt>
      <trkpt lat="38.7279240" lon="0.0240110">
        <ele>253.1</ele>
        <time>2018-06-10T10:01:55Z</time>
      </trkpt>
      <trkpt lat="38.7279180" lon="0.0240550">
        <ele>253.5</ele>
        <time>2018-06-10T10:01:56Z</time>
      </trkpt>
      <trkpt lat="38.7279100" lon="0.0240970">
        <ele>253.9</ele>
        <time>2018-06-10T10:01:57Z</time>
      </trkpt>
      <trkpt lat="38.7279020" lon="0.0241380">
        <ele>254.3</ele>
        <time>2018-06-10T10:01:58Z</time>
      </trkpt>
      <trkpt lat="38.7278910" lon="0.0241790">
        <ele>254.7</ele>
        <time>2018-06-10T10:01:59Z</time>
      </trkpt>
      <trkpt lat="38.7278790" lon="0.0242280">
        <ele>255.1</ele>
        <time>2018-06-10T10:02:00Z</time>
      </trkpt>
      <trkpt lat="38.7278700" lon="0.0242740">
        <ele>255.5</ele>
        <time>2018-06-10T10:02:01Z</time>
      </trkpt>
      <trkpt lat="38.7278580" lon="0.0243220">
        <ele>255.9</ele>
        <time>2018-06-10T10:02:02Z</time>
      </trkpt>
      <trkpt lat="38.7278470" lon="0.0243670">
        <ele>256.3</ele>
        <time>2018-06-10T10:02:03Z</time>
      </trkpt>
      <trkpt lat="38.7278370" lon="0.0244090">
        <ele>256.7</ele>
        <time>2018-06-10T10:02:04Z</time>
      </trkpt>
      <trkpt lat="38.7278260" lon="0.0244510">
        <ele>257.0</ele>
        <time>2018-06-10T10:02:05Z</time>
      </trkpt>
      <trkpt lat="38.7278130" lon="0.0244910">
        <ele>257.4</ele>
        <time>2018-06-10T10:02:06Z</time>
      </trkpt>
      <trkpt lat="38.7277980" lon="0.0245290">
        <ele>257.7</ele>
        <time>2018-06-10T10:02:07Z</time>
      </trkpt>
      <trkpt lat="38.7277860" lon="0.0245660">
        <ele>258.0</ele>
        <time>2018-06-10T10:02:08Z</time>
      </trkpt>
      <trkpt lat="38.7277720" lon="0.0246020">
        <ele>258.4</ele>
        <time>2018-06-10T10:02:09Z</time>
      </trkpt>
      <trkpt lat="38.7277620" lon="0.0246400">
        <ele>258.7</ele>
        <time>2018-06-10T10:02:10Z</time>
      </trkpt>
      <trkpt lat="38.7277510" lon="0.0246790">
        <ele>259.1</ele>
        <time>2018-06-10T10:02:11Z</time>
      </trkpt>
      <trkpt lat="38.7277350" lon="0.0247150">
        <ele>259.4</ele>
        <time>2018-06-10T10:02:12Z</time>
      </trkpt>
      <trkpt lat="38.7277200" lon="0.0247520">
        <ele>259.8</ele>
        <time>2018-06-10T10:02:13Z</time>
      </trkpt>
      <trkpt lat="38.7277060" lon="0.0247900">
        <ele>260.1</ele>
        <time>2018-06-10T10:02:14Z</time>
      </trkpt>
      <trkpt lat="38.7276920" lon="0.0248270">
        <ele>260.5</ele>
        <time>2018-06-10T10:02:15Z</time>
      </trkpt>
      <trkpt lat="38.7276760" lon="0.0248650">
        <ele>260.8</ele>
        <time>2018-06-10T10:02:16Z</time>
      </trkpt>
      <trkpt lat="38.7276600" lon="0.0249020">
        <ele>261.2</ele>
        <time>2018-06-10T10:02:17Z</time>
      </trkpt>
      <trkpt lat="38.7276430" lon="0.0249400">
        <ele>261.5</ele>
        <time>2018-06-10T10:02:18Z</time>
      </trkpt>
      <trkpt lat="38.7276290" lon="0.0249770">
        <ele>261.8</ele>
        <time>2018-06-10T10:02:19Z</time>
      </trkpt>
      <trkpt lat="38.7276100" lon="0.0250150">
        <ele>262.2</ele>
        <time>2018-06-10T10:02:20Z</time>
      </trkpt>
      <trkpt lat="38.7275940" lon="0.0250540">
        <ele>262.5</ele>
        <time>2018-06-10T10:02:21Z</time>
      </trkpt>
      <trkpt lat="38.7275770" lon="0.0250920">
        <ele>262.8</ele>
        <time>2018-06-10T10:02:22Z</time>
      </trkpt>
      <trkpt lat="38.7275590" lon="0.0251270">
        <ele>263.1</ele>
        <time>2018-06-10T10:02:23Z</time>
      </trkpt>
      <trkpt lat="38.7275400" lon="0.0251620">
        <ele>263.3</ele>
        <time>2018-06-10T10:02:24Z</time>
      </trkpt>
      <trkpt lat="38.7275180" lon="0.0252030">
        <ele>263.7</ele>
        <time>2018-06-10T10:02:25Z</time>
      </trkpt>
      <trkpt lat="38.7274930" lon="0.0252460">
        <ele>264.0</ele>
        <time>2018-06-10T10:02:26Z</time>
      </trkpt>
      <trkpt lat="38.7274700" lon="0.0252900">
        <ele>264.4</ele>
        <time>2018-06-10T10:02:27Z</time>
      </trkpt>
      <trkpt lat="38.7274500" lon="0.0253330">
        <ele>264.7</ele>
        <time>2018-06-10T10:02:28Z</time>
      </trkpt>
      <trkpt lat="38.7274310" lon="0.0253740">
        <ele>265.0</ele>
        <time>2018-06-10T10:02:29Z</time>
      </trkpt>
      <trkpt lat="38.7274090" lon="0.0254140">
        <ele>265.3</ele>
        <time>2018-06-10T10:02:30Z</time>
      </trkpt>
      <trkpt lat="38.7273850" lon="0.0254570">
        <ele>265.7</ele>
        <time>2018-06-10T10:02:31Z</time>
      </trkpt>
      <trkpt lat="38.7273620" lon="0.0254990">
        <ele>266.0</ele>
        <time>2018-06-10T10:02:32Z</time>
      </trkpt>
      <trkpt lat="38.7273340" lon="0.0255380">
        <ele>266.4</ele>
        <time>2018-06-10T10:02:33Z</time>
      </trkpt>
      <trkpt lat="38.7273090" lon="0.0255770">
        <ele>266.8</ele>
        <time>2018-06-10T10:02:34Z</time>
      </trkpt>
      <trkpt lat="38.7272840" lon="0.0256180">
        <ele>267.1</ele>
        <time>2018-06-10T10:02:35Z</time>
      </trkpt>
      <trkpt lat="38.7272570" lon="0.0256610">
        <ele>267.5</ele>
        <time>2018-06-10T10:02:36Z</time>
      </trkpt>
      <trkpt lat="38.7272290" lon="0.0256990">
        <ele>267.9</ele>
        <time>2018-06-10T10:02:37Z</time>
      </trkpt>
      <trkpt lat="38.7272030" lon="0.0257330">
        <ele>268.3</ele>
        <time>2018-06-10T10:02:38Z</time>
      </trkpt>
      <trkpt lat="38.7271760" lon="0.0257670">
        <ele>268.6</ele>
        <time>2018-06-10T10:02:39Z</time>
      </trkpt>
      <trkpt lat="38.7271510" lon="0.0258010">
        <ele>269.0</ele>
        <time>2018-06-10T10:02:40Z</time>
      </trkpt>
      <trkpt lat="38.7271220" lon="0.0258340">
        <ele>269.4</ele>
        <time>2018-06-10T10:02:41Z</time>
      </trkpt>
      <trkpt lat="38.7270910" lon="0.0258640">
        <ele>269.8</ele>
        <time>2018-06-10T10:02:42Z</time>
      </trkpt>
      <trkpt lat="38.7270660" lon="0.0258940">
        <ele>270.2</ele>
        <time>2018-06-10T10:02:43Z</time>
      </trkpt>
      <trkpt lat="38.7270420" lon="0.0259210">
        <ele>270.6</ele>
        <time>2018-06-10T10:02:44Z</time>
      </trkpt>
      <trkpt lat="38.7270170" lon="0.0259500">
        <ele>270.9</ele>
        <time>2018-06-10T10:02:45Z</time>
      </trkpt>
      <trkpt lat="38.7269910" lon="0.0259820">
        <ele>271.3</ele>
        <time>2018-06-10T10:02:46Z</time>
      </trkpt>
      <trkpt lat="38.7269590" lon="0.0260150">
        <ele>271.7</ele>
        <time>2018-06-10T10:02:47Z</time>
      </trkpt>
      <trkpt lat="38.7269250" lon="0.0260500">
        <ele>272.1</ele>
        <time>2018-06-10T10:02:48Z</time>
      </trkpt>
      <trkpt lat="38.7268890" lon="0.0260870">
        <ele>272.4</ele>
        <time>2018-06-10T10:02:49Z</time>
      </trkpt>
      <trkpt lat="38.7268520" lon="0.0261150">
        <ele>272.7</ele>
        <time>2018-06-10T10:02:50Z</time>
      </trkpt>
      <trkpt lat="38.7268150" lon="0.0261430">
        <ele>273.0</ele>
        <time>2018-06-10T10:02:51Z</time>
      </trkpt>
      <trkpt lat="38.7267790" lon="0.0261710">
        <ele>273.0</ele>
        <time>2018-06-10T10:02:52Z</time>
      </trkpt>
      <trkpt lat="38.7267440" lon="0.0262000">
        <ele>273.0</ele>
        <time>2018-06-10T10:02:53Z</time>
      </trkpt>
      <trkpt lat="38.7267020" lon="0.0262310">
        <ele>273.0</ele>
        <time>2018-06-10T10:02:54Z</time>
      </trkpt>
      <trkpt lat="38.7266590" lon="0.0262630">
        <ele>273.0</ele>
        <time>2018-06-10T10:02:55Z</time>
      </trkpt>
      <trkpt lat="38.7266150" lon="0.0263030">
        <ele>273.0</ele>
        <time>2018-06-10T10:02:56Z</time>
      </trkpt>
      <trkpt lat="38.7265710" lon="0.0263410">
        <ele>273.0</ele>
        <time>2018-06-10T10:02:57Z</time>
      </trkpt>
      <trkpt lat="38.7265210" lon="0.0263780">
        <ele>272.9</ele>
        <time>2018-06-10T10:02:58Z</time>
      </trkpt>
      <trkpt lat="38.7264650" lon="0.0264220">
        <ele>272.8</ele>
        <time>2018-06-10T10:02:59Z</time>
      </trkpt>
      <trkpt lat="38.7264070" lon="0.0264640">
        <ele>272.6</ele>
        <time>2018-06-10T10:03:00Z</time>
      </trkpt>
      <trkpt lat="38.7263440" lon="0.0265080">
        <ele>272.4</ele>
        <time>2018-06-10T10:03:01Z</time>
      </trkpt>
      <trkpt lat="38.7262840" lon="0.0265560">
        <ele>272.2</ele>
        <time>2018-06-10T10:03:02Z</time>
      </trkpt>
      <trkpt lat="38.7262190" lon="0.0266050">
        <ele>271.8</ele>
        <time>2018-06-10T10:03:03Z</time>
      </trkpt>
      <trkpt lat="38.7261480" lon="0.0266550">
        <ele>271.5</ele>
        <time>2018-06-10T10:03:04Z</time>
      </trkpt>
      <trkpt lat="38.7260660" lon="0.0267070">
        <ele>271.0</ele>
        <time>2018-06-10T10:03:05Z</time>
      </trkpt>
      <trkpt lat="38.7259850" lon="0.0267610">
        <ele>270.6</ele>
        <time>2018-06-10T10:03:06Z</time>
      </trkpt>
      <trkpt lat="38.7259050" lon="0.0268180">
        <ele>270.2</ele>
        <time>2018-06-10T10:03:07Z</time>
      </trkpt>
      <trkpt lat="38.7258290" lon="0.0268770">
        <ele>269.8</ele>
        <time>2018-06-10T10:03:08Z</time>
      </trkpt>
      <trkpt lat="38.7257500" lon="0.0269340">
        <ele>269.5</ele>
        <time>2018-06-10T10:03:09Z</time>
      </trkpt>
      <trkpt lat="38.7256680" lon="0.0269950">
        <ele>269.2</ele>
        <time>2018-06-10T10:03:10Z</time>
      </trkpt>
      <trkpt lat="38.7255760" lon="0.0270540">
        <ele>269.0</ele>
        <time>2018-06-10T10:03:11Z</time>
      </trkpt>
      <trkpt lat="38.7254860" lon="0.0271150">
        <ele>268.7</ele>
        <time>2018-06-10T10:03:12Z</time>
      </trkpt>
      <trkpt lat="38.7254010" lon="0.0271750">
        <ele>268.5</ele>
        <time>2018-06-10T10:03:13Z</time>
      </trkpt>
      <trkpt lat="38.7253080" lon="0.0272360">
        <ele>268.1</ele>
        <time>2018-06-10T10:03:14Z</time>
      </trkpt>
      <trkpt lat="38.7252180" lon="0.0272910">
        <ele>267.7</ele>
        <time>2018-06-10T10:03:15Z</time>
      </trkpt>
      <trkpt lat="38.7251290" lon="0.0273460">
        <ele>267.2</ele>
        <time>2018-06-10T10:03:16Z</time>
      </trkpt>
      <trkpt lat="38.7250400" lon="0.0274020">
        <ele>266.6</ele>
        <time>2018-06-10T10:03:17Z</time>
      </trkpt>
      <trkpt lat="38.7249500" lon="0.0274590">
        <ele>266.0</ele>
        <time>2018-06-10T10:03:18Z</time>
      </trkpt>
      <trkpt lat="38.7248600" lon="0.0275150">
        <ele>265.4</ele>
        <time>2018-06-10T10:03:19Z</time>
      </trkpt>
      <trkpt lat="38.7247670" lon="0.0275740">
        <ele>264.8</ele>
        <time>2018-06-10T10:03:20Z</time>
      </trkpt>
      <trkpt lat="38.7246700" lon="0.0276390">
        <ele>264.2</ele>
        <time>2018-06-10T10:03:21Z</time>
      </trkpt>
      <trkpt lat="38.7245710" lon="0.0277040">
        <ele>263.5</ele>
        <time>2018-06-10T10:03:22Z</time>
      </trkpt>
      <trkpt lat="38.7244730" lon="0.0277690">
        <ele>262.8</ele>
        <time>2018-06-10T10:03:23Z</time>
      </trkpt>
      <trkpt lat="38.7243730" lon="0.0278320">
        <ele>262.3</ele>
        <time>2018-06-10T10:03:24Z</time>
      </trkpt>
      <trkpt lat="38.7242760" lon="0.0278910">
        <ele>261.8</ele>
        <time>2018-06-10T10:03:25Z</time>
      </trkpt>
      <trkpt lat="38.7241800" lon="0.0279430">
        <ele>261.4</ele>
        <time>2018-06-10T10:03:26Z</time>
      </trkpt>
      <trkpt lat="38.7240800" lon="0.0279900">
        <ele>261.1</ele>
        <time>2018-06-10T10:03:27Z</time>
      </trkpt>
      <trkpt lat="38.7239790" lon="0.0280290">
        <ele>261.1</ele>
        <time>2018-06-10T10:03:28Z</time>
      </trkpt>
      <trkpt lat="38.7238770" lon="0.0280630">
        <ele>261.1</ele>
        <time>2018-06-10T10:03:29Z</time>
      </trkpt>
      <trkpt lat="38.7237720" lon="0.0280960">
        <ele>261.0</ele>
        <time>2018-06-10T10:03:30Z</time>
      </trkpt>
      <trkpt lat="38.7236640" lon="0.0281250">
        <ele>260.9</ele>
        <time>2018-06-10T10:03:31Z</time>
      </trkpt>
      <trkpt lat="38.7235540" lon="0.0281470">
        <ele>260.9</ele>
        <time>2018-06-10T10:03:32Z</time>
      </trkpt>
      <trkpt lat="38.7234400" lon="0.0281620">
        <ele>261.0</ele>
        <time>2018-06-10T10:03:33Z</time>
      </trkpt>
      <trkpt lat="38.7233280" lon="0.0281720">
        <ele>260.9</ele>
        <time>2018-06-10T10:03:34Z</time>
      </trkpt>
      <trkpt lat="38.7232170" lon="0.0281860">
        <ele>260.8</ele>
        <time>2018-06-10T10:03:35Z</time>
      </trkpt>
      <trkpt lat="38.7231030" lon="0.0282020">
        <ele>260.6</ele>
        <time>2018-06-10T10:03:36Z</time>
      </trkpt>
      <trkpt lat="38.7229960" lon="0.0282220">
        <ele>260.3</ele>
        <time>2018-06-10T10:03:37Z</time>
      </trkpt>
      <trkpt lat="38.7228920" lon="0.0282480">
        <ele>260.1</ele>
        <time>2018-06-10T10:03:38Z</time>
      </trkpt>
      <trkpt lat="38.7227910" lon="0.0282780">
        <ele>260.0</ele>
        <time>2018-06-10T10:03:39Z</time>
      </trkpt>
      <trkpt lat="38.7226900" lon="0.0283130">
        <ele>260.0</ele>
        <time>2018-06-10T10:03:40Z</time>
      </trkpt>
      <trkpt lat="38.7225880" lon="0.0283550">
        <ele>256.4</ele>
        <time>2018-06-10T10:03:41Z</time>
      </trkpt>
      <trkpt lat="38.7224880" lon="0.0284030">
        <ele>257.0</ele>
        <time>2018-06-10T10:03:42Z</time>
      </trkpt>
      <trkpt lat="38.7223920" lon="0.0284530">
        <ele>261.0</ele>
        <time>2018-06-10T10:03:43Z</time>
      </trkpt>
      <trkpt lat="38.7223000" lon="0.0285090">
        <ele>261.0</ele>
        <time>2018-06-10T10:03:44Z</time>
      </trkpt>
      <trkpt lat="38.7222130" lon="0.0285680">
        <ele>260.9</ele>
        <time>2018-06-10T10:03:45Z</time>
      </trkpt>
      <trkpt lat="38.7221290" lon="0.0286310">
        <ele>260.8</ele>
        <time>2018-06-10T10:03:46Z</time>
      </trkpt>
      <trkpt lat="38.7220460" lon="0.0286910">
        <ele>260.7</ele>
        <time>2018-06-10T10:03:47Z</time>
      </trkpt>
      <trkpt lat="38.7219670" lon="0.0287470">
        <ele>260.7</ele>
        <time>2018-06-10T10:03:48Z</time>
      </trkpt>
      <trkpt lat="38.7218890" lon="0.0288040">
        <ele>260.6</ele>
        <time>2018-06-10T10:03:49Z</time>
      </trkpt>
      <trkpt lat="38.7218120" lon="0.0288630">
        <ele>260.5</ele>
        <time>2018-06-10T10:03:50Z</time>
      </trkpt>
      <trkpt lat="38.7217390" lon="0.0289210">
        <ele>260.5</ele>
        <time>2018-06-10T10:03:51Z</time>
      </trkpt>
      <trkpt lat="38.7216670" lon="0.0289760">
        <ele>260.4</ele>
        <time>2018-06-10T10:03:52Z</time>
      </trkpt>
      <trkpt lat="38.7215940" lon="0.0290270">
        <ele>260.3</ele>
        <time>2018-06-10T10:03:53Z</time>
      </trkpt>
      <trkpt lat="38.7215240" lon="0.0290770">
        <ele>260.3</ele>
        <time>2018-06-10T10:03:54Z</time>
      </trkpt>
      <trkpt lat="38.7214510" lon="0.0291280">
        <ele>260.2</ele>
        <time>2018-06-10T10:03:55Z</time>
      </trkpt>
      <trkpt lat="38.7213760" lon="0.0291820">
        <ele>260.1</ele>
        <time>2018-06-10T10:03:56Z</time>
      </trkpt>
      <trkpt lat="38.7212960" lon="0.0292360">
        <ele>260.0</ele>
        <time>2018-06-10T10:03:57Z</time>
      </trkpt>
      <trkpt lat="38.7212150" lon="0.0292910">
        <ele>259.6</ele>
        <time>2018-06-10T10:03:58Z</time>
      </trkpt>
      <trkpt lat="38.7211370" lon="0.0293470">
        <ele>258.8</ele>
        <time>2018-06-10T10:03:59Z</time>
      </trkpt>
      <trkpt lat="38.7210600" lon="0.0294040">
        <ele>258.0</ele>
        <time>2018-06-10T10:04:00Z</time>
      </trkpt>
      <trkpt lat="38.7209850" lon="0.0294650">
        <ele>257.2</ele>
        <time>2018-06-10T10:04:01Z</time>
      </trkpt>
      <trkpt lat="38.7209060" lon="0.0295280">
        <ele>256.4</ele>
        <time>2018-06-10T10:04:02Z</time>
      </trkpt>
      <trkpt lat="38.7208200" lon="0.0295990">
        <ele>255.4</ele>
        <time>2018-06-10T10:04:03Z</time>
      </trkpt>
      <trkpt lat="38.7207390" lon="0.0296710">
        <ele>254.4</ele>
        <time>2018-06-10T10:04:04Z</time>
      </trkpt>
      <trkpt lat="38.7206570" lon="0.0297440">
        <ele>254.0</ele>
        <time>2018-06-10T10:04:05Z</time>
      </trkpt>
      <trkpt lat="38.7205640" lon="0.0298200">
        <ele>253.8</ele>
        <time>2018-06-10T10:04:06Z</time>
      </trkpt>
      <trkpt lat="38.7204690" lon="0.0298990">
        <ele>253.6</ele>
        <time>2018-06-10T10:04:07Z</time>
      </trkpt>
      <trkpt lat="38.7203720" lon="0.0299800">
        <ele>253.2</ele>
        <time>2018-06-10T10:04:08Z</time>
      </trkpt>
      <trkpt lat="38.7202700" lon="0.0300650">
        <ele>252.7</ele>
        <time>2018-06-10T10:04:09Z</time>
      </trkpt>
      <trkpt lat="38.7201640" lon="0.0301510">
        <ele>252.1</ele>
        <time>2018-06-10T10:04:10Z</time>
      </trkpt>
      <trkpt lat="38.7200570" lon="0.0302380">
        <ele>251.5</ele>
        <time>2018-06-10T10:04:11Z</time>
      </trkpt>
      <trkpt lat="38.7199510" lon="0.0303200">
        <ele>250.7</ele>
        <time>2018-06-10T10:04:12Z</time>
      </trkpt>
      <trkpt lat="38.7198480" lon="0.0304040">
        <ele>249.9</ele>
        <time>2018-06-10T10:04:13Z</time>
      </trkpt>
      <trkpt lat="38.7197430" lon="0.0304860">
        <ele>249.0</ele>
        <time>2018-06-10T10:04:14Z</time>
      </trkpt>
      <trkpt lat="38.7196350" lon="0.0305700">
        <ele>248.0</ele>
        <time>2018-06-10T10:04:15Z</time>
      </trkpt>
      <trkpt lat="38.7195240" lon="0.0306580">
        <ele>247.0</ele>
        <time>2018-06-10T10:04:16Z</time>
      </trkpt>
      <trkpt lat="38.7194120" lon="0.0307470">
        <ele>246.6</ele>
        <time>2018-06-10T10:04:17Z</time>
      </trkpt>
      <trkpt lat="38.7192970" lon="0.0308470">
        <ele>246.3</ele>
        <time>2018-06-10T10:04:18Z</time>
      </trkpt>
      <trkpt lat="38.7191820" lon="0.0309470">
        <ele>245.1</ele>
        <time>2018-06-10T10:04:19Z</time>
      </trkpt>
      <trkpt lat="38.7190640" lon="0.0310490">
        <ele>241.4</ele>
        <time>2018-06-10T10:04:20Z</time>
      </trkpt>
      <trkpt lat="38.7189420" lon="0.0311510">
        <ele>240.0</ele>
        <time>2018-06-10T10:04:21Z</time>
      </trkpt>
      <trkpt lat="38.7188130" lon="0.0312430">
        <ele>239.9</ele>
        <time>2018-06-10T10:04:22Z</time>
      </trkpt>
      <trkpt lat="38.7186830" lon="0.0313340">
        <ele>239.9</ele>
        <time>2018-06-10T10:04:23Z</time>
      </trkpt>
      <trkpt lat="38.7185480" lon="0.0314230">
        <ele>240.0</ele>
        <time>2018-06-10T10:04:24Z</time>
      </trkpt>
      <trkpt lat="38.7184130" lon="0.0315080">
        <ele>239.1</ele>
        <time>2018-06-10T10:04:25Z</time>
      </trkpt>
      <trkpt lat="38.7182780" lon="0.0315950">
        <ele>238.1</ele>
        <time>2018-06-10T10:04:26Z</time>
      </trkpt>
      <trkpt lat="38.7181400" lon="0.0316800">
        <ele>237.0</ele>
        <time>2018-06-10T10:04:27Z</time>
      </trkpt>
      <trkpt lat="38.7180020" lon="0.0317610">
        <ele>236.0</ele>
        <time>2018-06-10T10:04:28Z</time>
      </trkpt>
      <trkpt lat="38.7178630" lon="0.0318350">
        <ele>235.4</ele>
        <time>2018-06-10T10:04:29Z</time>
      </trkpt>
      <trkpt lat="38.7177280" lon="0.0319090">
        <ele>234.9</ele>
        <time>2018-06-10T10:04:30Z</time>
      </trkpt>
      <trkpt lat="38.7175960" lon="0.0319760">
        <ele>234.6</ele>
        <time>2018-06-10T10:04:31Z</time>
      </trkpt>
      <trkpt lat="38.7174650" lon="0.0320450">
        <ele>234.4</ele>
        <time>2018-06-10T10:04:32Z</time>
      </trkpt>
      <trkpt lat="38.7173390" lon="0.0321120">
        <ele>234.2</ele>
        <time>2018-06-10T10:04:33Z</time>
      </trkpt>
      <trkpt lat="38.7172200" lon="0.0321830">
        <ele>233.9</ele>
        <time>2018-06-10T10:04:34Z</time>
      </trkpt>
      <trkpt lat="38.7171050" lon="0.0322650">
        <ele>233.8</ele>
        <time>2018-06-10T10:04:35Z</time>
      </trkpt>
      <trkpt lat="38.7169970" lon="0.0323550">
        <ele>233.6</ele>
        <time>2018-06-10T10:04:36Z</time>
      </trkpt>
      <trkpt lat="38.7168910" lon="0.0324540">
        <ele>233.5</ele>
        <time>2018-06-10T10:04:37Z</time>
      </trkpt>
      <trkpt lat="38.7167870" lon="0.0325620">
        <ele>233.3</ele>
        <time>2018-06-10T10:04:38Z</time>
      </trkpt>
      <trkpt lat="38.7166870" lon="0.0326800">
        <ele>233.2</ele>
        <time>2018-06-10T10:04:39Z</time>
      </trkpt>
      <trkpt lat="38.7165900" lon="0.0327990">
        <ele>233.0</ele>
        <time>2018-06-10T10:04:40Z</time>
      </trkpt>
      <trkpt lat="38.7164980" lon="0.0329200">
        <ele>232.9</ele>
        <time>2018-06-10T10:04:41Z</time>
      </trkpt>
      <trkpt lat="38.7164090" lon="0.0330390">
        <ele>232.8</ele>
        <time>2018-06-10T10:04:42Z</time>
      </trkpt>
      <trkpt lat="38.7163160" lon="0.0331550">
        <ele>232.7</ele>
        <time>2018-06-10T10:04:43Z</time>
      </trkpt>
      <trkpt lat="38.7162230" lon="0.0332670">
        <ele>232.5</ele>
        <time>2018-06-10T10:04:44Z</time>
      </trkpt>
      <trkpt lat="38.7161290" lon="0.0333760">
        <ele>232.5</ele>
        <time>2018-06-10T10:04:45Z</time>
      </trkpt>
      <trkpt lat="38.7160380" lon="0.0334800">
        <ele>232.6</ele>
        <time>2018-06-10T10:04:46Z</time>
      </trkpt>
      <trkpt lat="38.7159420" lon="0.0335840">
        <ele>232.8</ele>
        <time>2018-06-10T10:04:47Z</time>
      </trkpt>
      <trkpt lat="38.7158400" lon="0.0336850">
        <ele>232.9</ele>
        <time>2018-06-10T10:04:48Z</time>
      </trkpt>
      <trkpt lat="38.7157420" lon="0.0337830">
        <ele>233.0</ele>
        <time>2018-06-10T10:04:49Z</time>
      </trkpt>
      <trkpt lat="38.7156410" lon="0.0338740">
        <ele>233.0</ele>
        <time>2018-06-10T10:04:50Z</time>
      </trkpt>
      <trkpt lat="38.7155390" lon="0.0339620">
        <ele>233.0</ele>
        <time>2018-06-10T10:04:51Z</time>
      </trkpt>
      <trkpt lat="38.7154450" lon="0.0340420">
        <ele>233.0</ele>
        <time>2018-06-10T10:04:52Z</time>
      </trkpt>
      <trkpt lat="38.7153530" lon="0.0341220">
        <ele>233.3</ele>
        <time>2018-06-10T10:04:53Z</time>
      </trkpt>
      <trkpt lat="38.7152660" lon="0.0341990">
        <ele>233.7</ele>
        <time>2018-06-10T10:04:54Z</time>
      </trkpt>
      <trkpt lat="38.7151800" lon="0.0342710">
        <ele>234.0</ele>
        <time>2018-06-10T10:04:55Z</time>
      </trkpt>
      <trkpt lat="38.7151030" lon="0.0343390">
        <ele>234.3</ele>
        <time>2018-06-10T10:04:56Z</time>
      </trkpt>
      <trkpt lat="38.7150250" lon="0.0344030">
        <ele>234.6</ele>
        <time>2018-06-10T10:04:57Z</time>
      </trkpt>
      <trkpt lat="38.7149470" lon="0.0344600">
        <ele>235.0</ele>
        <time>2018-06-10T10:04:58Z</time>
      </trkpt>
      <trkpt lat="38.7148720" lon="0.0345100">
        <ele>235.3</ele>
        <time>2018-06-10T10:04:59Z</time>
      </trkpt>
      <trkpt lat="38.7148010" lon="0.0345600">
        <ele>235.7</ele>
        <time>2018-06-10T10:05:00Z</time>
      </trkpt>
      <trkpt lat="38.7147360" lon="0.0346010">
        <ele>236.1</ele>
        <time>2018-06-10T10:05:01Z</time>
      </trkpt>
      <trkpt lat="38.7146790" lon="0.0346390">
        <ele>236.4</ele>
        <time>2018-06-10T10:05:02Z</time>
      </trkpt>
      <trkpt lat="38.7146250" lon="0.0346720">
        <ele>236.8</ele>
        <time>2018-06-10T10:05:03Z</time>
      </trkpt>
      <trkpt lat="38.7145750" lon="0.0347050">
        <ele>237.1</ele>
        <time>2018-06-10T10:05:04Z</time>
      </trkpt>
      <trkpt lat="38.7145230" lon="0.0347410">
        <ele>237.4</ele>
        <time>2018-06-10T10:05:05Z</time>
      </trkpt>
      <trkpt lat="38.7144710" lon="0.0347770">
        <ele>237.6</ele>
        <time>2018-06-10T10:05:06Z</time>
      </trkpt>
      <trkpt lat="38.7144260" lon="0.0348050">
        <ele>237.8</ele>
        <time>2018-06-10T10:05:07Z</time>
      </trkpt>
      <trkpt lat="38.7143800" lon="0.0348370">
        <ele>238.0</ele>
        <time>2018-06-10T10:05:08Z</time>
      </trkpt>
      <trkpt lat="38.7143320" lon="0.0348720">
        <ele>238.2</ele>
        <time>2018-06-10T10:05:09Z</time>
      </trkpt>
      <trkpt lat="38.7142830" lon="0.0349060">
        <ele>238.3</ele>
        <time>2018-06-10T10:05:10Z</time>
      </trkpt>
      <trkpt lat="38.7142340" lon="0.0349380">
        <ele>238.3</ele>
        <time>2018-06-10T10:05:11Z</time>
      </trkpt>
      <trkpt lat="38.7141820" lon="0.0349710">
        <ele>238.4</ele>
        <time>2018-06-10T10:05:12Z</time>
      </trkpt>
      <trkpt lat="38.7141300" lon="0.0350030">
        <ele>238.4</ele>
        <time>2018-06-10T10:05:13Z</time>
      </trkpt>
      <trkpt lat="38.7140800" lon="0.0350350">
        <ele>238.3</ele>
        <time>2018-06-10T10:05:14Z</time>
      </trkpt>
      <trkpt lat="38.7140290" lon="0.0350680">
        <ele>238.3</ele>
        <time>2018-06-10T10:05:15Z</time>
      </trkpt>
      <trkpt lat="38.7139800" lon="0.0351010">
        <ele>238.2</ele>
        <time>2018-06-10T10:05:16Z</time>
      </trkpt>
      <trkpt lat="38.7139340" lon="0.0351320">
        <ele>238.2</ele>
        <time>2018-06-10T10:05:17Z</time>
      </trkpt>
      <trkpt lat="38.7138910" lon="0.0351630">
        <ele>238.1</ele>
        <time>2018-06-10T10:05:18Z</time>
      </trkpt>
      <trkpt lat="38.7138460" lon="0.0351980">
        <ele>238.0</ele>
        <time>2018-06-10T10:05:19Z</time>
      </trkpt>
      <trkpt lat="38.7138030" lon="0.0352310">
        <ele>238.2</ele>
        <time>2018-06-10T10:05:20Z</time>
      </trkpt>
      <trkpt lat="38.7137570" lon="0.0352640">
        <ele>238.5</ele>
        <time>2018-06-10T10:05:21Z</time>
      </trkpt>
      <trkpt lat="38.7137140" lon="0.0352930">
        <ele>238.6</ele>
        <time>2018-06-10T10:05:22Z</time>
      </trkpt>
      <trkpt lat="38.7136730" lon="0.0353230">
        <ele>238.7</ele>
        <time>2018-06-10T10:05:23Z</time>
      </trkpt>
      <trkpt lat="38.7136290" lon="0.0353570">
        <ele>238.9</ele>
        <time>2018-06-10T10:05:24Z</time>
      </trkpt>
      <trkpt lat="38.7135860" lon="0.0353890">
        <ele>238.9</ele>
        <time>2018-06-10T10:05:25Z</time>
      </trkpt>
      <trkpt lat="38.7135450" lon="0.0354190">
        <ele>238.7</ele>
        <time>2018-06-10T10:05:26Z</time>
      </trkpt>
      <trkpt lat="38.7135040" lon="0.0354490">
        <ele>238.4</ele>
        <time>2018-06-10T10:05:27Z</time>
      </trkpt>
      <trkpt lat="38.7134660" lon="0.0354770">
        <ele>238.1</ele>
        <time>2018-06-10T10:05:28Z</time>
      </trkpt>
      <trkpt lat="38.7134270" lon="0.0355070">
        <ele>238.0</ele>
        <time>2018-06-10T10:05:29Z</time>
      </trkpt>
      <trkpt lat="38.7133870" lon="0.0355380">
        <ele>238.0</ele>
        <time>2018-06-10T10:05:30Z</time>
      </trkpt>
      <trkpt lat="38.7133440" lon="0.0355680">
        <ele>238.1</ele>
        <time>2018-06-10T10:05:31Z</time>
      </trkpt>
      <trkpt lat="38.7132990" lon="0.0356020">
        <ele>238.2</ele>
        <time>2018-06-10T10:05:32Z</time>
      </trkpt>
      <trkpt lat="38.7132570" lon="0.0356360">
        <ele>238.4</ele>
        <time>2018-06-10T10:05:33Z</time>
      </trkpt>
      <trkpt lat="38.7132100" lon="0.0356700">
        <ele>238.6</ele>
        <time>2018-06-10T10:05:34Z</time>
      </trkpt>
      <trkpt lat="38.7131640" lon="0.0357070">
        <ele>238.8</ele>
        <time>2018-06-10T10:05:35Z</time>
      </trkpt>
      <trkpt lat="38.7131180" lon="0.0357430">
        <ele>239.1</ele>
        <time>2018-06-10T10:05:36Z</time>
      </trkpt>
      <trkpt lat="38.7130700" lon="0.0357780">
        <ele>239.4</ele>
        <time>2018-06-10T10:05:37Z</time>
      </trkpt>
      <trkpt lat="38.7130220" lon="0.0358140">
        <ele>239.8</ele>
        <time>2018-06-10T10:05:38Z</time>
      </trkpt>
      <trkpt lat="38.7129720" lon="0.0358510">
        <ele>240.2</ele>
        <time>2018-06-10T10:05:39Z</time>
      </trkpt>
      <trkpt lat="38.7129240" lon="0.0358850">
        <ele>240.6</ele>
        <time>2018-06-10T10:05:40Z</time>
      </trkpt>
      <trkpt lat="38.7128770" lon="0.0359150">
        <ele>241.0</ele>
        <time>2018-06-10T10:05:41Z</time>
      </trkpt>
      <trkpt lat="38.7128320" lon="0.0359450">
        <ele>241.3</ele>
        <time>2018-06-10T10:05:42Z</time>
      </trkpt>
      <trkpt lat="38.7127850" lon="0.0359770">
        <ele>241.7</ele>
        <time>2018-06-10T10:05:43Z</time>
      </trkpt>
      <trkpt lat="38.7127390" lon="0.0360080">
        <ele>242.1</ele>
        <time>2018-06-10T10:05:44Z</time>
      </trkpt>
      <trkpt lat="38.7126920" lon="0.0360400">
        <ele>242.5</ele>
        <time>2018-06-10T10:05:45Z</time>
      </trkpt>
      <trkpt lat="38.7126440" lon="0.0360690">
        <ele>242.9</ele>
        <time>2018-06-10T10:05:46Z</time>
      </trkpt>
      <trkpt lat="38.7125910" lon="0.0361010">
        <ele>243.3</ele>
        <time>2018-06-10T10:05:47Z</time>
      </trkpt>
      <trkpt lat="38.7125360" lon="0.0361390">
        <ele>243.7</ele>
        <time>2018-06-10T10:05:48Z</time>
      </trkpt>
      <trkpt lat="38.7124920" lon="0.0361730">
        <ele>244.1</ele>
        <time>2018-06-10T10:05:49Z</time>
      </trkpt>
      <trkpt lat="38.7124460" lon="0.0362050">
        <ele>244.9</ele>
        <time>2018-06-10T10:05:50Z</time>
      </trkpt>
      <trkpt lat="38.7124020" lon="0.0362340">
        <ele>245.6</ele>
        <time>2018-06-10T10:05:51Z</time>
      </trkpt>
      <trkpt lat="38.7123600" lon="0.0362590">
        <ele>246.3</ele>
        <time>2018-06-10T10:05:52Z</time>
      </trkpt>
      <trkpt lat="38.7123260" lon="0.0362780">
        <ele>246.9</ele>
        <time>2018-06-10T10:05:53Z</time>
      </trkpt>
      <trkpt lat="38.7122940" lon="0.0362970">
        <ele>247.4</ele>
        <time>2018-06-10T10:05:54Z</time>
      </trkpt>
      <trkpt lat="38.7122610" lon="0.0363140">
        <ele>247.9</ele>
        <time>2018-06-10T10:05:55Z</time>
      </trkpt>
      <trkpt lat="38.7122270" lon="0.0363290">
        <ele>248.5</ele>
        <time>2018-06-10T10:05:56Z</time>
      </trkpt>
      <trkpt lat="38.7121960" lon="0.0363450">
        <ele>249.0</ele>
        <time>2018-06-10T10:05:57Z</time>
      </trkpt>
      <trkpt lat="38.7121610" lon="0.0363600">
        <ele>249.6</ele>
        <time>2018-06-10T10:05:58Z</time>
      </trkpt>
      <trkpt lat="38.7121240" lon="0.0363820">
        <ele>250.3</ele>
        <time>2018-06-10T10:05:59Z</time>
      </trkpt>
      <trkpt lat="38.7120840" lon="0.0364060">
        <ele>251.0</ele>
        <time>2018-06-10T10:06:00Z</time>
      </trkpt>
      <trkpt lat="38.7120410" lon="0.0364360">
        <ele>251.9</ele>
        <time>2018-06-10T10:06:01Z</time>
      </trkpt>
      <trkpt lat="38.7120050" lon="0.0364650">
        <ele>252.6</ele>
        <time>2018-06-10T10:06:02Z</time>
      </trkpt>
      <trkpt lat="38.7119680" lon="0.0364920">
        <ele>253.1</ele>
        <time>2018-06-10T10:06:03Z</time>
      </trkpt>
      <trkpt lat="38.7119270" lon="0.0365220">
        <ele>253.6</ele>
        <time>2018-06-10T10:06:04Z</time>
      </trkpt>
      <trkpt lat="38.7118840" lon="0.0365460">
        <ele>254.0</ele>
        <time>2018-06-10T10:06:05Z</time>
      </trkpt>
      <trkpt lat="38.7118450" lon="0.0365680">
        <ele>254.4</ele>
        <time>2018-06-10T10:06:06Z</time>
      </trkpt>
      <trkpt lat="38.7118060" lon="0.0365930">
        <ele>254.9</ele>
        <time>2018-06-10T10:06:07Z</time>
      </trkpt>
      <trkpt lat="38.7117680" lon="0.0366160">
        <ele>255.2</ele>
        <time>2018-06-10T10:06:08Z</time>
      </trkpt>
      <trkpt lat="38.7117310" lon="0.0366340">
        <ele>255.6</ele>
        <time>2018-06-10T10:06:09Z</time>
      </trkpt>
      <trkpt lat="38.7116990" lon="0.0366500">
        <ele>255.9</ele>
        <time>2018-06-10T10:06:10Z</time>
      </trkpt>
      <trkpt lat="38.7116660" lon="0.0366650">
        <ele>256.2</ele>
        <time>2018-06-10T10:06:11Z</time>
      </trkpt>
      <trkpt lat="38.7116290" lon="0.0366850">
        <ele>256.6</ele>
        <time>2018-06-10T10:06:12Z</time>
      </trkpt>
      <trkpt lat="38.7115890" lon="0.0367010">
        <ele>257.0</ele>
        <time>2018-06-10T10:06:13Z</time>
      </trkpt>
      <trkpt lat="38.7115510" lon="0.0367190">
        <ele>257.4</ele>
        <time>2018-06-10T10:06:14Z</time>
      </trkpt>
      <trkpt lat="38.7115110" lon="0.0367380">
        <ele>257.8</ele>
        <time>2018-06-10T10:06:15Z</time>
      </trkpt>
      <trkpt lat="38.7114740" lon="0.0367590">
        <ele>258.2</ele>
        <time>2018-06-10T10:06:16Z</time>
      </trkpt>
      <trkpt lat="38.7114360" lon="0.0367790">
        <ele>258.7</ele>
        <time>2018-06-10T10:06:17Z</time>
      </trkpt>
      <trkpt lat="38.7114010" lon="0.0368000">
        <ele>259.1</ele>
        <time>2018-06-10T10:06:18Z</time>
      </trkpt>
      <trkpt lat="38.7113650" lon="0.0368240">
        <ele>259.6</ele>
        <time>2018-06-10T10:06:19Z</time>
      </trkpt>
      <trkpt lat="38.7113290" lon="0.0368460">
        <ele>260.1</ele>
        <time>2018-06-10T10:06:20Z</time>
      </trkpt>
      <trkpt lat="38.7112950" lon="0.0368710">
        <ele>260.6</ele>
        <time>2018-06-10T10:06:21Z</time>
      </trkpt>
      <trkpt lat="38.7112640" lon="0.0368870">
        <ele>261.1</ele>
        <time>2018-06-10T10:06:22Z</time>
      </trkpt>
      <trkpt lat="38.7112290" lon="0.0369080">
        <ele>261.5</ele>
        <time>2018-06-10T10:06:23Z</time>
      </trkpt>
      <trkpt lat="38.7111880" lon="0.0369330">
        <ele>261.9</ele>
        <time>2018-06-10T10:06:24Z</time>
      </trkpt>
      <trkpt lat="38.7111410" lon="0.0369630">
        <ele>262.4</ele>
        <time>2018-06-10T10:06:25Z</time>
      </trkpt>
      <trkpt lat="38.7110940" lon="0.0369920">
        <ele>263.0</ele>
        <time>2018-06-10T10:06:26Z</time>
      </trkpt>
      <trkpt lat="38.7110530" lon="0.0370200">
        <ele>263.4</ele>
        <time>2018-06-10T10:06:27Z</time>
      </trkpt>
      <trkpt lat="38.7110110" lon="0.0370460">
        <ele>263.9</ele>
        <time>2018-06-10T10:06:28Z</time>
      </trkpt>
      <trkpt lat="38.7109710" lon="0.0370660">
        <ele>264.3</ele>
        <time>2018-06-10T10:06:29Z</time>
      </trkpt>
      <trkpt lat="38.7109370" lon="0.0370850">
        <ele>264.6</ele>
        <time>2018-06-10T10:06:30Z</time>
      </trkpt>
      <trkpt lat="38.7108980" lon="0.0371050">
        <ele>265.0</ele>
        <time>2018-06-10T10:06:31Z</time>
      </trkpt>
      <trkpt lat="38.7108520" lon="0.0371220">
        <ele>265.4</ele>
        <time>2018-06-10T10:06:32Z</time>
      </trkpt>
      <trkpt lat="38.7108030" lon="0.0371380">
        <ele>265.9</ele>
        <time>2018-06-10T10:06:33Z</time>
      </trkpt>
      <trkpt lat="38.7107530" lon="0.0371530">
        <ele>266.3</ele>
        <time>2018-06-10T10:06:34Z</time>
      </trkpt>
      <trkpt lat="38.7107080" lon="0.0371660">
        <ele>266.7</ele>
        <time>2018-06-10T10:06:35Z</time>
      </trkpt>
      <trkpt lat="38.7106640" lon="0.0371770">
        <ele>267.0</ele>
        <time>2018-06-10T10:06:36Z</time>
      </trkpt>
      <trkpt lat="38.7106240" lon="0.0371820">
        <ele>267.4</ele>
        <time>2018-06-10T10:06:37Z</time>
      </trkpt>
      <trkpt lat="38.7105830" lon="0.0371870">
        <ele>267.8</ele>
        <time>2018-06-10T10:06:38Z</time>
      </trkpt>
      <trkpt lat="38.7105390" lon="0.0371880">
        <ele>268.3</ele>
        <time>2018-06-10T10:06:39Z</time>
      </trkpt>
      <trkpt lat="38.7104990" lon="0.0371900">
        <ele>268.8</ele>
        <time>2018-06-10T10:06:40Z</time>
      </trkpt>
      <trkpt lat="38.7104590" lon="0.0371960">
        <ele>269.5</ele>
        <time>2018-06-10T10:06:41Z</time>
      </trkpt>
      <trkpt lat="38.7104220" lon="0.0372040">
        <ele>270.1</ele>
        <time>2018-06-10T10:06:42Z</time>
      </trkpt>
      <trkpt lat="38.7103890" lon="0.0372140">
        <ele>270.8</ele>
        <time>2018-06-10T10:06:43Z</time>
      </trkpt>
      <trkpt lat="38.7103600" lon="0.0372230">
        <ele>271.5</ele>
        <time>2018-06-10T10:06:44Z</time>
      </trkpt>
      <trkpt lat="38.7103270" lon="0.0372340">
        <ele>272.4</ele>
        <time>2018-06-10T10:06:45Z</time>
      </trkpt>
      <trkpt lat="38.7102970" lon="0.0372450">
        <ele>273.3</ele>
        <time>2018-06-10T10:06:46Z</time>
      </trkpt>
      <trkpt lat="38.7102520" lon="0.0372780">
        <ele>274.7</ele>
        <time>2018-06-10T10:06:48Z</time>
      </trkpt>
      <trkpt lat="38.7101970" lon="0.0373030">
        <ele>275.7</ele>
        <time>2018-06-10T10:06:50Z</time>
      </trkpt>
      <trkpt lat="38.7101690" lon="0.0373180">
        <ele>276.2</ele>
        <time>2018-06-10T10:06:51Z</time>
      </trkpt>
      <trkpt lat="38.7101170" lon="0.0373580">
        <ele>277.1</ele>
        <time>2018-06-10T10:06:53Z</time>
      </trkpt>
      <trkpt lat="38.7100920" lon="0.0373850">
        <ele>277.6</ele>
        <time>2018-06-10T10:06:54Z</time>
      </trkpt>
      <trkpt lat="38.7100690" lon="0.0374130">
        <ele>278.1</ele>
        <time>2018-06-10T10:06:55Z</time>
      </trkpt>
      <trkpt lat="38.7100490" lon="0.0374380">
        <ele>278.5</ele>
        <time>2018-06-10T10:06:56Z</time>
      </trkpt>
      <trkpt lat="38.7100120" lon="0.0374780">
        <ele>279.3</ele>
        <time>2018-06-10T10:06:58Z</time>
      </trkpt>
      <trkpt lat="38.7099730" lon="0.0375100">
        <ele>280.0</ele>
        <time>2018-06-10T10:07:00Z</time>
      </trkpt>
      <trkpt lat="38.7099470" lon="0.0375320">
        <ele>280.1</ele>
        <time>2018-06-10T10:07:01Z</time>
      </trkpt>
      <trkpt lat="38.7099230" lon="0.0375500">
        <ele>280.1</ele>
        <time>2018-06-10T10:07:02Z</time>
      </trkpt>
      <trkpt lat="38.7098990" lon="0.0375700">
        <ele>280.2</ele>
        <time>2018-06-10T10:07:03Z</time>
      </trkpt>
      <trkpt lat="38.7098510" lon="0.0376080">
        <ele>280.3</ele>
        <time>2018-06-10T10:07:05Z</time>
      </trkpt>
      <trkpt lat="38.7098270" lon="0.0376290">
        <ele>280.3</ele>
        <time>2018-06-10T10:07:06Z</time>
      </trkpt>
      <trkpt lat="38.7097980" lon="0.0376510">
        <ele>280.4</ele>
        <time>2018-06-10T10:07:07Z</time>
      </trkpt>
      <trkpt lat="38.7097660" lon="0.0376770">
        <ele>280.4</ele>
        <time>2018-06-10T10:07:08Z</time>
      </trkpt>
      <trkpt lat="38.7097420" lon="0.0376930">
        <ele>280.5</ele>
        <time>2018-06-10T10:07:09Z</time>
      </trkpt>
      <trkpt lat="38.7097110" lon="0.0377110">
        <ele>280.5</ele>
        <time>2018-06-10T10:07:10Z</time>
      </trkpt>
      <trkpt lat="38.7096790" lon="0.0377270">
        <ele>280.6</ele>
        <time>2018-06-10T10:07:11Z</time>
      </trkpt>
      <trkpt lat="38.7096430" lon="0.0377490">
        <ele>280.6</ele>
        <time>2018-06-10T10:07:12Z</time>
      </trkpt>
      <trkpt lat="38.7096180" lon="0.0377630">
        <ele>280.6</ele>
        <time>2018-06-10T10:07:13Z</time>
      </trkpt>
      <trkpt lat="38.7095930" lon="0.0377810">
        <ele>280.7</ele>
        <time>2018-06-10T10:07:14Z</time>
      </trkpt>
      <trkpt lat="38.7095620" lon="0.0378020">
        <ele>280.7</ele>
        <time>2018-06-10T10:07:15Z</time>
      </trkpt>
      <trkpt lat="38.7095330" lon="0.0378280">
        <ele>280.7</ele>
        <time>2018-06-10T10:07:16Z</time>
      </trkpt>
      <trkpt lat="38.7095070" lon="0.0378540">
        <ele>280.7</ele>
        <time>2018-06-10T10:07:17Z</time>
      </trkpt>
      <trkpt lat="38.7094890" lon="0.0378810">
        <ele>280.7</ele>
        <time>2018-06-10T10:07:18Z</time>
      </trkpt>
      <trkpt lat="38.7094630" lon="0.0379060">
        <ele>280.6</ele>
        <time>2018-06-10T10:07:19Z</time>
      </trkpt>
      <trkpt lat="38.7094330" lon="0.0379280">
        <ele>280.6</ele>
        <time>2018-06-10T10:07:20Z</time>
      </trkpt>
      <trkpt lat="38.7094040" lon="0.0379470">
        <ele>280.5</ele>
        <time>2018-06-10T10:07:21Z</time>
      </trkpt>
      <trkpt lat="38.7093730" lon="0.0379720">
        <ele>280.5</ele>
        <time>2018-06-10T10:07:22Z</time>
      </trkpt>
      <trkpt lat="38.7093380" lon="0.0380000">
        <ele>280.4</ele>
        <time>2018-06-10T10:07:23Z</time>
      </trkpt>
      <trkpt lat="38.7093040" lon="0.0380460">
        <ele>280.3</ele>
        <time>2018-06-10T10:07:24Z</time>
      </trkpt>
      <trkpt lat="38.7092660" lon="0.0380990">
        <ele>280.1</ele>
        <time>2018-06-10T10:07:25Z</time>
      </trkpt>
      <trkpt lat="38.7092270" lon="0.0381580">
        <ele>280.0</ele>
        <time>2018-06-10T10:07:26Z</time>
      </trkpt>
      <trkpt lat="38.7091850" lon="0.0382100">
        <ele>278.9</ele>
        <time>2018-06-10T10:07:27Z</time>
      </trkpt>
      <trkpt lat="38.7091440" lon="0.0382500">
        <ele>276.8</ele>
        <time>2018-06-10T10:07:28Z</time>
      </trkpt>
      <trkpt lat="38.7091110" lon="0.0382710">
        <ele>275.2</ele>
        <time>2018-06-10T10:07:29Z</time>
      </trkpt>
      <trkpt lat="38.7090760" lon="0.0382910">
        <ele>273.5</ele>
        <time>2018-06-10T10:07:31Z</time>
      </trkpt>
      <trkpt lat="38.7089940" lon="0.0382750">
        <ele>269.9</ele>
        <time>2018-06-10T10:09:45Z</time>
      </trkpt>
      <trkpt lat="38.7090200" lon="0.0382990">
        <ele>267.0</ele>
        <time>2018-06-10T10:09:46Z</time>
      </trkpt>
      <trkpt lat="38.7090070" lon="0.0382670">
        <ele>266.8</ele>
        <time>2018-06-10T10:09:50Z</time>
      </trkpt>
      <trkpt lat="38.7089680" lon="0.0382760">
        <ele>266.5</ele>
        <time>2018-06-10T10:09:53Z</time>
      </trkpt>
      <trkpt lat="38.7089090" lon="0.0383050">
        <ele>266.0</ele>
        <time>2018-06-10T10:09:55Z</time>
      </trkpt>
      <trkpt lat="38.7088690" lon="0.0383190">
        <ele>265.7</ele>
        <time>2018-06-10T10:09:56Z</time>
      </trkpt>
      <trkpt lat="38.7088320" lon="0.0383290">
        <ele>265.4</ele>
        <time>2018-06-10T10:09:57Z</time>
      </trkpt>
      <trkpt lat="38.7087850" lon="0.0383410">
        <ele>265.0</ele>
        <time>2018-06-10T10:09:58Z</time>
      </trkpt>
      <trkpt lat="38.7087320" lon="0.0383560">
        <ele>264.6</ele>
        <time>2018-06-10T10:09:59Z</time>
      </trkpt>
      <trkpt lat="38.7086730" lon="0.0383720">
        <ele>264.1</ele>
        <time>2018-06-10T10:10:00Z</time>
      </trkpt>
      <trkpt lat="38.7086160" lon="0.0383830">
        <ele>263.6</ele>
        <time>2018-06-10T10:10:01Z</time>
      </trkpt>
      <trkpt lat="38.7085520" lon="0.0383910">
        <ele>263.1</ele>
        <time>2018-06-10T10:10:02Z</time>
      </trkpt>
      <trkpt lat="38.7084850" lon="0.0384010">
        <ele>262.6</ele>
        <time>2018-06-10T10:10:03Z</time>
      </trkpt>
      <trkpt lat="38.7084200" lon="0.0384070">
        <ele>262.1</ele>
        <time>2018-06-10T10:10:04Z</time>
      </trkpt>
      <trkpt lat="38.7083630" lon="0.0384180">
        <ele>261.7</ele>
        <time>2018-06-10T10:10:05Z</time>
      </trkpt>
      <trkpt lat="38.7083060" lon="0.0384260">
        <ele>261.3</ele>
        <time>2018-06-10T10:10:06Z</time>
      </trkpt>
      <trkpt lat="38.7082400" lon="0.0384360">
        <ele>260.9</ele>
        <time>2018-06-10T10:10:07Z</time>
      </trkpt>
      <trkpt lat="38.7081810" lon="0.0384430">
        <ele>260.5</ele>
        <time>2018-06-10T10:10:08Z</time>
      </trkpt>
      <trkpt lat="38.7081220" lon="0.0384500">
        <ele>260.1</ele>
        <time>2018-06-10T10:10:09Z</time>
      </trkpt>
      <trkpt lat="38.7080600" lon="0.0384530">
        <ele>259.7</ele>
        <time>2018-06-10T10:10:10Z</time>
      </trkpt>
      <trkpt lat="38.7080020" lon="0.0384450">
        <ele>259.3</ele>
        <time>2018-06-10T10:10:11Z</time>
      </trkpt>
      <trkpt lat="38.7079390" lon="0.0384310">
        <ele>259.0</ele>
        <time>2018-06-10T10:10:12Z</time>
      </trkpt>
      <trkpt lat="38.7078720" lon="0.0383980">
        <ele>259.1</ele>
        <time>2018-06-10T10:10:13Z</time>
      </trkpt>
      <trkpt lat="38.7077920" lon="0.0383600">
        <ele>259.2</ele>
        <time>2018-06-10T10:10:14Z</time>
      </trkpt>
      <trkpt lat="38.7077130" lon="0.0383130">
        <ele>259.3</ele>
        <time>2018-06-10T10:10:15Z</time>
      </trkpt>
      <trkpt lat="38.7076380" lon="0.0382540">
        <ele>259.4</ele>
        <time>2018-06-10T10:10:16Z</time>
      </trkpt>
      <trkpt lat="38.7075700" lon="0.0381880">
        <ele>259.5</ele>
        <time>2018-06-10T10:10:17Z</time>
      </trkpt>
      <trkpt lat="38.7075040" lon="0.0380960">
        <ele>259.6</ele>
        <time>2018-06-10T10:10:18Z</time>
      </trkpt>
      <trkpt lat="38.7074330" lon="0.0380440">
        <ele>259.7</ele>
        <time>2018-06-10T10:10:19Z</time>
      </trkpt>
      <trkpt lat="38.7073580" lon="0.0379980">
        <ele>259.8</ele>
        <time>2018-06-10T10:10:20Z</time>
      </trkpt>
      <trkpt lat="38.7072930" lon="0.0379530">
        <ele>259.9</ele>
        <time>2018-06-10T10:10:21Z</time>
      </trkpt>
      <trkpt lat="38.7072350" lon="0.0379150">
        <ele>259.9</ele>
        <time>2018-06-10T10:10:22Z</time>
      </trkpt>
      <trkpt lat="38.7071790" lon="0.0378600">
        <ele>260.0</ele>
        <time>2018-06-10T10:10:23Z</time>
      </trkpt>
      <trkpt lat="38.7071120" lon="0.0378060">
        <ele>260.0</ele>
        <time>2018-06-10T10:10:24Z</time>
      </trkpt>
      <trkpt lat="38.7070410" lon="0.0377580">
        <ele>260.0</ele>
        <time>2018-06-10T10:10:25Z</time>
      </trkpt>
      <trkpt lat="38.7069720" lon="0.0377260">
        <ele>259.9</ele>
        <time>2018-06-10T10:10:26Z</time>
      </trkpt>
      <trkpt lat="38.7068880" lon="0.0376770">
        <ele>259.8</ele>
        <time>2018-06-10T10:10:27Z</time>
      </trkpt>
      <trkpt lat="38.7068040" lon="0.0376330">
        <ele>259.6</ele>
        <time>2018-06-10T10:10:28Z</time>
      </trkpt>
      <trkpt lat="38.7067240" lon="0.0376090">
        <ele>259.4</ele>
        <time>2018-06-10T10:10:29Z</time>
      </trkpt>
      <trkpt lat="38.7066410" lon="0.0375760">
        <ele>259.2</ele>
        <time>2018-06-10T10:10:30Z</time>
      </trkpt>
      <trkpt lat="38.7065590" lon="0.0375320">
        <ele>259.0</ele>
        <time>2018-06-10T10:10:31Z</time>
      </trkpt>
      <trkpt lat="38.7064720" lon="0.0374940">
        <ele>258.9</ele>
        <time>2018-06-10T10:10:32Z</time>
      </trkpt>
      <trkpt lat="38.7063810" lon="0.0374700">
        <ele>259.0</ele>
        <time>2018-06-10T10:10:33Z</time>
      </trkpt>
      <trkpt lat="38.7062840" lon="0.0374480">
        <ele>259.1</ele>
        <time>2018-06-10T10:10:34Z</time>
      </trkpt>
      <trkpt lat="38.7061950" lon="0.0374300">
        <ele>259.5</ele>
        <time>2018-06-10T10:10:35Z</time>
      </trkpt>
      <trkpt lat="38.7061080" lon="0.0374200">
        <ele>259.9</ele>
        <time>2018-06-10T10:10:36Z</time>
      </trkpt>
      <trkpt lat="38.7060170" lon="0.0374030">
        <ele>260.4</ele>
        <time>2018-06-10T10:10:37Z</time>
      </trkpt>
      <trkpt lat="38.7059220" lon="0.0373820">
        <ele>260.9</ele>
        <time>2018-06-10T10:10:38Z</time>
      </trkpt>
      <trkpt lat="38.7058170" lon="0.0373640">
        <ele>261.6</ele>
        <time>2018-06-10T10:10:39Z</time>
      </trkpt>
      <trkpt lat="38.7057010" lon="0.0373570">
        <ele>262.4</ele>
        <time>2018-06-10T10:10:40Z</time>
      </trkpt>
      <trkpt lat="38.7055840" lon="0.0373520">
        <ele>263.4</ele>
        <time>2018-06-10T10:10:41Z</time>
      </trkpt>
      <trkpt lat="38.7054690" lon="0.0373660">
        <ele>263.6</ele>
        <time>2018-06-10T10:10:42Z</time>
      </trkpt>
      <trkpt lat="38.7053550" lon="0.0374100">
        <ele>262.6</ele>
        <time>2018-06-10T10:10:43Z</time>
      </trkpt>
      <trkpt lat="38.7052350" lon="0.0374620">
        <ele>261.6</ele>
        <time>2018-06-10T10:10:44Z</time>
      </trkpt>
      <trkpt lat="38.7051330" lon="0.0375180">
        <ele>260.6</ele>
        <time>2018-06-10T10:10:45Z</time>
      </trkpt>
      <trkpt lat="38.7050250" lon="0.0375880">
        <ele>259.5</ele>
        <time>2018-06-10T10:10:46Z</time>
      </trkpt>
      <trkpt lat="38.7049270" lon="0.0376750">
        <ele>258.4</ele>
        <time>2018-06-10T10:10:47Z</time>
      </trkpt>
      <trkpt lat="38.7048300" lon="0.0377870">
        <ele>257.2</ele>
        <time>2018-06-10T10:10:48Z</time>
      </trkpt>
      <trkpt lat="38.7047510" lon="0.0379090">
        <ele>256.1</ele>
        <time>2018-06-10T10:10:49Z</time>
      </trkpt>
      <trkpt lat="38.7046740" lon="0.0380360">
        <ele>254.9</ele>
        <time>2018-06-10T10:10:50Z</time>
      </trkpt>
      <trkpt lat="38.7046030" lon="0.0381720">
        <ele>253.7</ele>
        <time>2018-06-10T10:10:51Z</time>
      </trkpt>
      <trkpt lat="38.7045350" lon="0.0383010">
        <ele>252.4</ele>
        <time>2018-06-10T10:10:52Z</time>
      </trkpt>
      <trkpt lat="38.7044730" lon="0.0384250">
        <ele>250.9</ele>
        <time>2018-06-10T10:10:53Z</time>
      </trkpt>
      <trkpt lat="38.7044000" lon="0.0385280">
        <ele>249.7</ele>
        <time>2018-06-10T10:10:54Z</time>
      </trkpt>
      <trkpt lat="38.7043100" lon="0.0386100">
        <ele>249.1</ele>
        <time>2018-06-10T10:10:55Z</time>
      </trkpt>
      <trkpt lat="38.7042030" lon="0.0386860">
        <ele>248.8</ele>
        <time>2018-06-10T10:10:56Z</time>
      </trkpt>
      <trkpt lat="38.7041010" lon="0.0387480">
        <ele>248.7</ele>
        <time>2018-06-10T10:10:57Z</time>
      </trkpt>
      <trkpt lat="38.7039870" lon="0.0387970">
        <ele>248.5</ele>
        <time>2018-06-10T10:10:58Z</time>
      </trkpt>
      <trkpt lat="38.7038680" lon="0.0388380">
        <ele>248.4</ele>
        <time>2018-06-10T10:10:59Z</time>
      </trkpt>
      <trkpt lat="38.7037410" lon="0.0388560">
        <ele>248.2</ele>
        <time>2018-06-10T10:11:00Z</time>
      </trkpt>
      <trkpt lat="38.7035980" lon="0.0388040">
        <ele>247.9</ele>
        <time>2018-06-10T10:11:01Z</time>
      </trkpt>
      <trkpt lat="38.7034470" lon="0.0387420">
        <ele>245.9</ele>
        <time>2018-06-10T10:11:02Z</time>
      </trkpt>
      <trkpt lat="38.7032910" lon="0.0386780">
        <ele>243.5</ele>
        <time>2018-06-10T10:11:03Z</time>
      </trkpt>
      <trkpt lat="38.7031270" lon="0.0386060">
        <ele>242.5</ele>
        <time>2018-06-10T10:11:04Z</time>
      </trkpt>
      <trkpt lat="38.7029710" lon="0.0385440">
        <ele>241.5</ele>
        <time>2018-06-10T10:11:05Z</time>
      </trkpt>
      <trkpt lat="38.7028270" lon="0.0384920">
        <ele>240.7</ele>
        <time>2018-06-10T10:11:06Z</time>
      </trkpt>
      <trkpt lat="38.7026740" lon="0.0384300">
        <ele>239.8</ele>
        <time>2018-06-10T10:11:07Z</time>
      </trkpt>
      <trkpt lat="38.7025200" lon="0.0383810">
        <ele>239.0</ele>
        <time>2018-06-10T10:11:08Z</time>
      </trkpt>
      <trkpt lat="38.7023670" lon="0.0383490">
        <ele>238.2</ele>
        <time>2018-06-10T10:11:09Z</time>
      </trkpt>
      <trkpt lat="38.7022100" lon="0.0383040">
        <ele>237.4</ele>
        <time>2018-06-10T10:11:10Z</time>
      </trkpt>
      <trkpt lat="38.7020470" lon="0.0382820">
        <ele>236.5</ele>
        <time>2018-06-10T10:11:11Z</time>
      </trkpt>
      <trkpt lat="38.7018860" lon="0.0382670">
        <ele>235.7</ele>
        <time>2018-06-10T10:11:12Z</time>
      </trkpt>
      <trkpt lat="38.7017310" lon="0.0382540">
        <ele>234.9</ele>
        <time>2018-06-10T10:11:13Z</time>
      </trkpt>
      <trkpt lat="38.7015740" lon="0.0382420">
        <ele>234.3</ele>
        <time>2018-06-10T10:11:14Z</time>
      </trkpt>
      <trkpt lat="38.7014270" lon="0.0382420">
        <ele>233.8</ele>
        <time>2018-06-10T10:11:15Z</time>
      </trkpt>
      <trkpt lat="38.7012770" lon="0.0382390">
        <ele>233.3</ele>
        <time>2018-06-10T10:11:16Z</time>
      </trkpt>
      <trkpt lat="38.7011290" lon="0.0382530">
        <ele>232.8</ele>
        <time>2018-06-10T10:11:17Z</time>
      </trkpt>
      <trkpt lat="38.7009800" lon="0.0382920">
        <ele>232.2</ele>
        <time>2018-06-10T10:11:18Z</time>
      </trkpt>
      <trkpt lat="38.7008360" lon="0.0383270">
        <ele>231.5</ele>
        <time>2018-06-10T10:11:19Z</time>
      </trkpt>
      <trkpt lat="38.7006780" lon="0.0383700">
        <ele>230.7</ele>
        <time>2018-06-10T10:11:20Z</time>
      </trkpt>
      <trkpt lat="38.7005280" lon="0.0384300">
        <ele>229.9</ele>
        <time>2018-06-10T10:11:21Z</time>
      </trkpt>
      <trkpt lat="38.7003790" lon="0.0385000">
        <ele>229.1</ele>
        <time>2018-06-10T10:11:22Z</time>
      </trkpt>
      <trkpt lat="38.7002350" lon="0.0385740">
        <ele>228.5</ele>
        <time>2018-06-10T10:11:23Z</time>
      </trkpt>
      <trkpt lat="38.7000950" lon="0.0386520">
        <ele>227.8</ele>
        <time>2018-06-10T10:11:24Z</time>
      </trkpt>
      <trkpt lat="38.6999650" lon="0.0387470">
        <ele>227.1</ele>
        <time>2018-06-10T10:11:25Z</time>
      </trkpt>
      <trkpt lat="38.6998360" lon="0.0388440">
        <ele>226.5</ele>
        <time>2018-06-10T10:11:26Z</time>
      </trkpt>
      <trkpt lat="38.6997180" lon="0.0389540">
        <ele>226.0</ele>
        <time>2018-06-10T10:11:27Z</time>
      </trkpt>
      <trkpt lat="38.6996020" lon="0.0390530">
        <ele>225.7</ele>
        <time>2018-06-10T10:11:28Z</time>
      </trkpt>
      <trkpt lat="38.6994930" lon="0.0391490">
        <ele>225.6</ele>
        <time>2018-06-10T10:11:29Z</time>
      </trkpt>
      <trkpt lat="38.6993770" lon="0.0392470">
        <ele>225.4</ele>
        <time>2018-06-10T10:11:30Z</time>
      </trkpt>
      <trkpt lat="38.6992530" lon="0.0393370">
        <ele>225.3</ele>
        <time>2018-06-10T10:11:31Z</time>
      </trkpt>
      <trkpt lat="38.6991380" lon="0.0394240">
        <ele>225.2</ele>
        <time>2018-06-10T10:11:32Z</time>
      </trkpt>
      <trkpt lat="38.6990200" lon="0.0395050">
        <ele>225.1</ele>
        <time>2018-06-10T10:11:33Z</time>
      </trkpt>
      <trkpt lat="38.6989100" lon="0.0395860">
        <ele>224.7</ele>
        <time>2018-06-10T10:11:34Z</time>
      </trkpt>
      <trkpt lat="38.6987970" lon="0.0396640">
        <ele>223.9</ele>
        <time>2018-06-10T10:11:35Z</time>
      </trkpt>
      <trkpt lat="38.6986800" lon="0.0397400">
        <ele>223.3</ele>
        <time>2018-06-10T10:11:36Z</time>
      </trkpt>
      <trkpt lat="38.6985580" lon="0.0398110">
        <ele>222.7</ele>
        <time>2018-06-10T10:11:37Z</time>
      </trkpt>
      <trkpt lat="38.6984300" lon="0.0398720">
        <ele>221.9</ele>
        <time>2018-06-10T10:11:38Z</time>
      </trkpt>
      <trkpt lat="38.6983020" lon="0.0399290">
        <ele>220.9</ele>
        <time>2018-06-10T10:11:39Z</time>
      </trkpt>
      <trkpt lat="38.6981750" lon="0.0399860">
        <ele>219.9</ele>
        <time>2018-06-10T10:11:40Z</time>
      </trkpt>
      <trkpt lat="38.6980400" lon="0.0400440">
        <ele>218.9</ele>
        <time>2018-06-10T10:11:41Z</time>
      </trkpt>
      <trkpt lat="38.6979040" lon="0.0401000">
        <ele>217.9</ele>
        <time>2018-06-10T10:11:42Z</time>
      </trkpt>
      <trkpt lat="38.6977770" lon="0.0401620">
        <ele>217.0</ele>
        <time>2018-06-10T10:11:43Z</time>
      </trkpt>
      <trkpt lat="38.6976420" lon="0.0402250">
        <ele>216.0</ele>
        <time>2018-06-10T10:11:44Z</time>
      </trkpt>
      <trkpt lat="38.6975080" lon="0.0402910">
        <ele>215.0</ele>
        <time>2018-06-10T10:11:45Z</time>
      </trkpt>
      <trkpt lat="38.6973780" lon="0.0403520">
        <ele>214.0</ele>
        <time>2018-06-10T10:11:46Z</time>
      </trkpt>
      <trkpt lat="38.6972330" lon="0.0404150">
        <ele>212.8</ele>
        <time>2018-06-10T10:11:47Z</time>
      </trkpt>
      <trkpt lat="38.6970850" lon="0.0404780">
        <ele>211.7</ele>
        <time>2018-06-10T10:11:48Z</time>
      </trkpt>
      <trkpt lat="38.6969430" lon="0.0405450">
        <ele>210.7</ele>
        <time>2018-06-10T10:11:49Z</time>
      </trkpt>
      <trkpt lat="38.6968070" lon="0.0406210">
        <ele>209.7</ele>
        <time>2018-06-10T10:11:50Z</time>
      </trkpt>
      <trkpt lat="38.6966720" lon="0.0406960">
        <ele>208.7</ele>
        <time>2018-06-10T10:11:51Z</time>
      </trkpt>
      <trkpt lat="38.6965260" lon="0.0407680">
        <ele>207.7</ele>
        <time>2018-06-10T10:11:52Z</time>
      </trkpt>
      <trkpt lat="38.6963860" lon="0.0408420">
        <ele>206.7</ele>
        <time>2018-06-10T10:11:53Z</time>
      </trkpt>
      <trkpt lat="38.6962560" lon="0.0409170">
        <ele>205.8</ele>
        <time>2018-06-10T10:11:54Z</time>
      </trkpt>
      <trkpt lat="38.6961150" lon="0.0409910">
        <ele>204.7</ele>
        <time>2018-06-10T10:11:55Z</time>
      </trkpt>
      <trkpt lat="38.6959870" lon="0.0410700">
        <ele>203.8</ele>
        <time>2018-06-10T10:11:56Z</time>
      </trkpt>
      <trkpt lat="38.6958550" lon="0.0411440">
        <ele>202.8</ele>
        <time>2018-06-10T10:11:57Z</time>
      </trkpt>
      <trkpt lat="38.6957110" lon="0.0412060">
        <ele>201.7</ele>
        <time>2018-06-10T10:11:58Z</time>
      </trkpt>
      <trkpt lat="38.6955580" lon="0.0412570">
        <ele>200.6</ele>
        <time>2018-06-10T10:11:59Z</time>
      </trkpt>
      <trkpt lat="38.6954000" lon="0.0412980">
        <ele>199.5</ele>
        <time>2018-06-10T10:12:00Z</time>
      </trkpt>
      <trkpt lat="38.6952440" lon="0.0413160">
        <ele>198.4</ele>
        <time>2018-06-10T10:12:01Z</time>
      </trkpt>
      <trkpt lat="38.6950900" lon="0.0413180">
        <ele>197.3</ele>
        <time>2018-06-10T10:12:02Z</time>
      </trkpt>
      <trkpt lat="38.6949270" lon="0.0412900">
        <ele>196.1</ele>
        <time>2018-06-10T10:12:03Z</time>
      </trkpt>
      <trkpt lat="38.6947740" lon="0.0412570">
        <ele>195.0</ele>
        <time>2018-06-10T10:12:04Z</time>
      </trkpt>
      <trkpt lat="38.6946270" lon="0.0412170">
        <ele>194.0</ele>
        <time>2018-06-10T10:12:05Z</time>
      </trkpt>
      <trkpt lat="38.6944740" lon="0.0411750">
        <ele>192.9</ele>
        <time>2018-06-10T10:12:06Z</time>
      </trkpt>
      <trkpt lat="38.6943200" lon="0.0411370">
        <ele>191.7</ele>
        <time>2018-06-10T10:12:07Z</time>
      </trkpt>
      <trkpt lat="38.6941660" lon="0.0410980">
        <ele>190.9</ele>
        <time>2018-06-10T10:12:08Z</time>
      </trkpt>
      <trkpt lat="38.6940130" lon="0.0410620">
        <ele>190.6</ele>
        <time>2018-06-10T10:12:09Z</time>
      </trkpt>
      <trkpt lat="38.6938620" lon="0.0410260">
        <ele>190.3</ele>
        <time>2018-06-10T10:12:10Z</time>
      </trkpt>
      <trkpt lat="38.6937130" lon="0.0409990">
        <ele>190.0</ele>
        <time>2018-06-10T10:12:11Z</time>
      </trkpt>
      <trkpt lat="38.6935650" lon="0.0409790">
        <ele>189.8</ele>
        <time>2018-06-10T10:12:12Z</time>
      </trkpt>
      <trkpt lat="38.6934210" lon="0.0409590">
        <ele>189.8</ele>
        <time>2018-06-10T10:12:13Z</time>
      </trkpt>
      <trkpt lat="38.6932740" lon="0.0409340">
        <ele>189.7</ele>
        <time>2018-06-10T10:12:14Z</time>
      </trkpt>
      <trkpt lat="38.6931330" lon="0.0409050">
        <ele>189.6</ele>
        <time>2018-06-10T10:12:15Z</time>
      </trkpt>
      <trkpt lat="38.6929930" lon="0.0408870">
        <ele>189.4</ele>
        <time>2018-06-10T10:12:16Z</time>
      </trkpt>
      <trkpt lat="38.6928640" lon="0.0408750">
        <ele>189.3</ele>
        <time>2018-06-10T10:12:17Z</time>
      </trkpt>
      <trkpt lat="38.6927420" lon="0.0408600">
        <ele>189.2</ele>
        <time>2018-06-10T10:12:18Z</time>
      </trkpt>
      <trkpt lat="38.6926120" lon="0.0408510">
        <ele>189.1</ele>
        <time>2018-06-10T10:12:19Z</time>
      </trkpt>
      <trkpt lat="38.6924760" lon="0.0408660">
        <ele>188.9</ele>
        <time>2018-06-10T10:12:20Z</time>
      </trkpt>
      <trkpt lat="38.6923620" lon="0.0408770">
        <ele>188.7</ele>
        <time>2018-06-10T10:12:21Z</time>
      </trkpt>
      <trkpt lat="38.6922480" lon="0.0408950">
        <ele>188.6</ele>
        <time>2018-06-10T10:12:22Z</time>
      </trkpt>
      <trkpt lat="38.6921160" lon="0.0409240">
        <ele>188.6</ele>
        <time>2018-06-10T10:12:23Z</time>
      </trkpt>
      <trkpt lat="38.6919770" lon="0.0409610">
        <ele>188.6</ele>
        <time>2018-06-10T10:12:24Z</time>
      </trkpt>
      <trkpt lat="38.6918490" lon="0.0409950">
        <ele>188.5</ele>
        <time>2018-06-10T10:12:25Z</time>
      </trkpt>
      <trkpt lat="38.6917230" lon="0.0410330">
        <ele>188.3</ele>
        <time>2018-06-10T10:12:26Z</time>
      </trkpt>
      <trkpt lat="38.6915880" lon="0.0410610">
        <ele>188.1</ele>
        <time>2018-06-10T10:12:27Z</time>
      </trkpt>
      <trkpt lat="38.6914630" lon="0.0410920">
        <ele>187.8</ele>
        <time>2018-06-10T10:12:28Z</time>
      </trkpt>
      <trkpt lat="38.6913410" lon="0.0411350">
        <ele>187.5</ele>
        <time>2018-06-10T10:12:29Z</time>
      </trkpt>
      <trkpt lat="38.6912110" lon="0.0411710">
        <ele>187.3</ele>
        <time>2018-06-10T10:12:30Z</time>
      </trkpt>
      <trkpt lat="38.6910720" lon="0.0412020">
        <ele>187.0</ele>
        <time>2018-06-10T10:12:31Z</time>
      </trkpt>
      <trkpt lat="38.6909330" lon="0.0412350">
        <ele>186.7</ele>
        <time>2018-06-10T10:12:32Z</time>
      </trkpt>
      <trkpt lat="38.6907920" lon="0.0412800">
        <ele>186.5</ele>
        <time>2018-06-10T10:12:33Z</time>
      </trkpt>
      <trkpt lat="38.6906540" lon="0.0413230">
        <ele>186.2</ele>
        <time>2018-06-10T10:12:34Z</time>
      </trkpt>
      <trkpt lat="38.6905160" lon="0.0413630">
        <ele>185.9</ele>
        <time>2018-06-10T10:12:35Z</time>
      </trkpt>
      <trkpt lat="38.6903880" lon="0.0414030">
        <ele>184.7</ele>
        <time>2018-06-10T10:12:36Z</time>
      </trkpt>
      <trkpt lat="38.6902650" lon="0.0414400">
        <ele>183.6</ele>
        <time>2018-06-10T10:12:37Z</time>
      </trkpt>
      <trkpt lat="38.6901440" lon="0.0414720">
        <ele>182.4</ele>
        <time>2018-06-10T10:12:38Z</time>
      </trkpt>
      <trkpt lat="38.6900220" lon="0.0415000">
        <ele>181.3</ele>
        <time>2018-06-10T10:12:39Z</time>
      </trkpt>
      <trkpt lat="38.6898970" lon="0.0415270">
        <ele>180.0</ele>
        <time>2018-06-10T10:12:40Z</time>
      </trkpt>
      <trkpt lat="38.6897730" lon="0.0415570">
        <ele>178.8</ele>
        <time>2018-06-10T10:12:41Z</time>
      </trkpt>
      <trkpt lat="38.6896390" lon="0.0415900">
        <ele>177.5</ele>
        <time>2018-06-10T10:12:42Z</time>
      </trkpt>
      <trkpt lat="38.6895050" lon="0.0416260">
        <ele>176.2</ele>
        <time>2018-06-10T10:12:43Z</time>
      </trkpt>
      <trkpt lat="38.6893650" lon="0.0416620">
        <ele>174.8</ele>
        <time>2018-06-10T10:12:44Z</time>
      </trkpt>
      <trkpt lat="38.6892240" lon="0.0416920">
        <ele>173.3</ele>
        <time>2018-06-10T10:12:45Z</time>
      </trkpt>
      <trkpt lat="38.6890820" lon="0.0417140">
        <ele>171.8</ele>
        <time>2018-06-10T10:12:46Z</time>
      </trkpt>
      <trkpt lat="38.6889360" lon="0.0417330">
        <ele>170.7</ele>
        <time>2018-06-10T10:12:47Z</time>
      </trkpt>
      <trkpt lat="38.6887900" lon="0.0417250">
        <ele>170.2</ele>
        <time>2018-06-10T10:12:48Z</time>
      </trkpt>
      <trkpt lat="38.6886460" lon="0.0417130">
        <ele>169.7</ele>
        <time>2018-06-10T10:12:49Z</time>
      </trkpt>
      <trkpt lat="38.6885010" lon="0.0416910">
        <ele>169.3</ele>
        <time>2018-06-10T10:12:50Z</time>
      </trkpt>
      <trkpt lat="38.6883550" lon="0.0416600">
        <ele>168.9</ele>
        <time>2018-06-10T10:12:51Z</time>
      </trkpt>
      <trkpt lat="38.6882140" lon="0.0416110">
        <ele>168.5</ele>
        <time>2018-06-10T10:12:52Z</time>
      </trkpt>
      <trkpt lat="38.6880780" lon="0.0415480">
        <ele>168.2</ele>
        <time>2018-06-10T10:12:53Z</time>
      </trkpt>
      <trkpt lat="38.6879520" lon="0.0414630">
        <ele>167.8</ele>
        <time>2018-06-10T10:12:54Z</time>
      </trkpt>
      <trkpt lat="38.6878360" lon="0.0413610">
        <ele>167.5</ele>
        <time>2018-06-10T10:12:55Z</time>
      </trkpt>
      <trkpt lat="38.6877290" lon="0.0412490">
        <ele>167.3</ele>
        <time>2018-06-10T10:12:56Z</time>
      </trkpt>
      <trkpt lat="38.6876370" lon="0.0411210">
        <ele>167.1</ele>
        <time>2018-06-10T10:12:57Z</time>
      </trkpt>
      <trkpt lat="38.6875580" lon="0.0409800">
        <ele>167.1</ele>
        <time>2018-06-10T10:12:58Z</time>
      </trkpt>
      <trkpt lat="38.6874820" lon="0.0408300">
        <ele>166.9</ele>
        <time>2018-06-10T10:12:59Z</time>
      </trkpt>
      <trkpt lat="38.6874120" lon="0.0406770">
        <ele>166.7</ele>
        <time>2018-06-10T10:13:00Z</time>
      </trkpt>
      <trkpt lat="38.6873420" lon="0.0405330">
        <ele>166.5</ele>
        <time>2018-06-10T10:13:01Z</time>
      </trkpt>
      <trkpt lat="38.6872620" lon="0.0403870">
        <ele>166.2</ele>
        <time>2018-06-10T10:13:02Z</time>
      </trkpt>
      <trkpt lat="38.6871860" lon="0.0402380">
        <ele>165.8</ele>
        <time>2018-06-10T10:13:03Z</time>
      </trkpt>
      <trkpt lat="38.6871060" lon="0.0400950">
        <ele>165.4</ele>
        <time>2018-06-10T10:13:04Z</time>
      </trkpt>
      <trkpt lat="38.6870290" lon="0.0399540">
        <ele>165.0</ele>
        <time>2018-06-10T10:13:05Z</time>
      </trkpt>
      <trkpt lat="38.6869540" lon="0.0398090">
        <ele>164.5</ele>
        <time>2018-06-10T10:13:06Z</time>
      </trkpt>
      <trkpt lat="38.6868710" lon="0.0396700">
        <ele>164.1</ele>
        <time>2018-06-10T10:13:07Z</time>
      </trkpt>
      <trkpt lat="38.6867810" lon="0.0395350">
        <ele>163.9</ele>
        <time>2018-06-10T10:13:08Z</time>
      </trkpt>
      <trkpt lat="38.6866870" lon="0.0394080">
        <ele>164.0</ele>
        <time>2018-06-10T10:13:09Z</time>
      </trkpt>
      <trkpt lat="38.6865920" lon="0.0392850">
        <ele>164.1</ele>
        <time>2018-06-10T10:13:10Z</time>
      </trkpt>
      <trkpt lat="38.6864870" lon="0.0391850">
        <ele>164.2</ele>
        <time>2018-06-10T10:13:11Z</time>
      </trkpt>
      <trkpt lat="38.6863780" lon="0.0390970">
        <ele>164.2</ele>
        <time>2018-06-10T10:13:12Z</time>
      </trkpt>
      <trkpt lat="38.6862640" lon="0.0390150">
        <ele>164.1</ele>
        <time>2018-06-10T10:13:13Z</time>
      </trkpt>
      <trkpt lat="38.6861390" lon="0.0389420">
        <ele>163.9</ele>
        <time>2018-06-10T10:13:14Z</time>
      </trkpt>
      <trkpt lat="38.6860150" lon="0.0388790">
        <ele>163.6</ele>
        <time>2018-06-10T10:13:15Z</time>
      </trkpt>
      <trkpt lat="38.6858980" lon="0.0388210">
        <ele>163.3</ele>
        <time>2018-06-10T10:13:16Z</time>
      </trkpt>
      <trkpt lat="38.6857850" lon="0.0387660">
        <ele>163.1</ele>
        <time>2018-06-10T10:13:17Z</time>
      </trkpt>
      <trkpt lat="38.6856680" lon="0.0387130">
        <ele>162.8</ele>
        <time>2018-06-10T10:13:18Z</time>
      </trkpt>
      <trkpt lat="38.6855600" lon="0.0386530">
        <ele>162.5</ele>
        <time>2018-06-10T10:13:19Z</time>
      </trkpt>
      <trkpt lat="38.6854460" lon="0.0386010">
        <ele>162.2</ele>
        <time>2018-06-10T10:13:20Z</time>
      </trkpt>
      <trkpt lat="38.6853300" lon="0.0385460">
        <ele>161.8</ele>
        <time>2018-06-10T10:13:21Z</time>
      </trkpt>
      <trkpt lat="38.6852200" lon="0.0384850">
        <ele>161.5</ele>
        <time>2018-06-10T10:13:22Z</time>
      </trkpt>
      <trkpt lat="38.6851080" lon="0.0384280">
        <ele>161.1</ele>
        <time>2018-06-10T10:13:23Z</time>
      </trkpt>
      <trkpt lat="38.6849890" lon="0.0383660">
        <ele>159.4</ele>
        <time>2018-06-10T10:13:24Z</time>
      </trkpt>
      <trkpt lat="38.6848690" lon="0.0383000">
        <ele>156.6</ele>
        <time>2018-06-10T10:13:25Z</time>
      </trkpt>
      <trkpt lat="38.6847470" lon="0.0382370">
        <ele>154.0</ele>
        <time>2018-06-10T10:13:26Z</time>
      </trkpt>
      <trkpt lat="38.6846270" lon="0.0381730">
        <ele>153.9</ele>
        <time>2018-06-10T10:13:27Z</time>
      </trkpt>
      <trkpt lat="38.6845080" lon="0.0381140">
        <ele>153.7</ele>
        <time>2018-06-10T10:13:28Z</time>
      </trkpt>
      <trkpt lat="38.6843850" lon="0.0380530">
        <ele>153.7</ele>
        <time>2018-06-10T10:13:29Z</time>
      </trkpt>
      <trkpt lat="38.6842570" lon="0.0379900">
        <ele>153.8</ele>
        <time>2018-06-10T10:13:30Z</time>
      </trkpt>
      <trkpt lat="38.6841270" lon="0.0379280">
        <ele>154.0</ele>
        <time>2018-06-10T10:13:31Z</time>
      </trkpt>
      <trkpt lat="38.6840000" lon="0.0378600">
        <ele>154.3</ele>
        <time>2018-06-10T10:13:32Z</time>
      </trkpt>
      <trkpt lat="38.6838680" lon="0.0378000">
        <ele>154.5</ele>
        <time>2018-06-10T10:13:33Z</time>
      </trkpt>
      <trkpt lat="38.6837340" lon="0.0377420">
        <ele>154.5</ele>
        <time>2018-06-10T10:13:34Z</time>
      </trkpt>
      <trkpt lat="38.6835990" lon="0.0376860">
        <ele>154.5</ele>
        <time>2018-06-10T10:13:35Z</time>
      </trkpt>
      <trkpt lat="38.6834640" lon="0.0376370">
        <ele>154.6</ele>
        <time>2018-06-10T10:13:36Z</time>
      </trkpt>
      <trkpt lat="38.6833370" lon="0.0375900">
        <ele>154.9</ele>
        <time>2018-06-10T10:13:37Z</time>
      </trkpt>
      <trkpt lat="38.6832170" lon="0.0375380">
        <ele>155.4</ele>
        <time>2018-06-10T10:13:38Z</time>
      </trkpt>
      <trkpt lat="38.6830980" lon="0.0374800">
        <ele>156.0</ele>
        <time>2018-06-10T10:13:39Z</time>
      </trkpt>
      <trkpt lat="38.6829770" lon="0.0374300">
        <ele>154.8</ele>
        <time>2018-06-10T10:13:40Z</time>
      </trkpt>
      <trkpt lat="38.6828570" lon="0.0373840">
        <ele>153.7</ele>
        <time>2018-06-10T10:13:41Z</time>
      </trkpt>
      <trkpt lat="38.6827330" lon="0.0373250">
        <ele>152.8</ele>
        <time>2018-06-10T10:13:42Z</time>
      </trkpt>
      <trkpt lat="38.6826090" lon="0.0372650">
        <ele>151.9</ele>
        <time>2018-06-10T10:13:43Z</time>
      </trkpt>
      <trkpt lat="38.6824890" lon="0.0372070">
        <ele>151.0</ele>
        <time>2018-06-10T10:13:44Z</time>
      </trkpt>
      <trkpt lat="38.6823690" lon="0.0371570">
        <ele>150.1</ele>
        <time>2018-06-10T10:13:45Z</time>
      </trkpt>
      <trkpt lat="38.6822460" lon="0.0371020">
        <ele>149.1</ele>
        <time>2018-06-10T10:13:46Z</time>
      </trkpt>
      <trkpt lat="38.6821160" lon="0.0370500">
        <ele>147.9</ele>
        <time>2018-06-10T10:13:47Z</time>
      </trkpt>
      <trkpt lat="38.6819930" lon="0.0370030">
        <ele>147.0</ele>
        <time>2018-06-10T10:13:48Z</time>
      </trkpt>
      <trkpt lat="38.6818720" lon="0.0369730">
        <ele>146.0</ele>
        <time>2018-06-10T10:13:49Z</time>
      </trkpt>
      <trkpt lat="38.6817570" lon="0.0369350">
        <ele>145.0</ele>
        <time>2018-06-10T10:13:50Z</time>
      </trkpt>
      <trkpt lat="38.6816340" lon="0.0369130">
        <ele>143.9</ele>
        <time>2018-06-10T10:13:51Z</time>
      </trkpt>
      <trkpt lat="38.6815070" lon="0.0369160">
        <ele>143.0</ele>
        <time>2018-06-10T10:13:52Z</time>
      </trkpt>
      <trkpt lat="38.6813790" lon="0.0369410">
        <ele>142.7</ele>
        <time>2018-06-10T10:13:53Z</time>
      </trkpt>
      <trkpt lat="38.6812530" lon="0.0369820">
        <ele>142.4</ele>
        <time>2018-06-10T10:13:54Z</time>
      </trkpt>
      <trkpt lat="38.6811260" lon="0.0370390">
        <ele>141.9</ele>
        <time>2018-06-10T10:13:55Z</time>
      </trkpt>
      <trkpt lat="38.6809950" lon="0.0371020">
        <ele>141.3</ele>
        <time>2018-06-10T10:13:56Z</time>
      </trkpt>
      <trkpt lat="38.6808640" lon="0.0371640">
        <ele>140.6</ele>
        <time>2018-06-10T10:13:57Z</time>
      </trkpt>
      <trkpt lat="38.6807300" lon="0.0372210">
        <ele>139.8</ele>
        <time>2018-06-10T10:13:58Z</time>
      </trkpt>
      <trkpt lat="38.6805960" lon="0.0372700">
        <ele>139.1</ele>
        <time>2018-06-10T10:13:59Z</time>
      </trkpt>
      <trkpt lat="38.6804540" lon="0.0373120">
        <ele>138.2</ele>
        <time>2018-06-10T10:14:00Z</time>
      </trkpt>
      <trkpt lat="38.6803190" lon="0.0373510">
        <ele>137.3</ele>
        <time>2018-06-10T10:14:01Z</time>
      </trkpt>
      <trkpt lat="38.6801890" lon="0.0373930">
        <ele>137.2</ele>
        <time>2018-06-10T10:14:02Z</time>
      </trkpt>
      <trkpt lat="38.6800580" lon="0.0374370">
        <ele>137.4</ele>
        <time>2018-06-10T10:14:03Z</time>
      </trkpt>
      <trkpt lat="38.6799390" lon="0.0374830">
        <ele>137.5</ele>
        <time>2018-06-10T10:14:04Z</time>
      </trkpt>
      <trkpt lat="38.6798250" lon="0.0375360">
        <ele>137.7</ele>
        <time>2018-06-10T10:14:05Z</time>
      </trkpt>
      <trkpt lat="38.6797110" lon="0.0376020">
        <ele>137.7</ele>
        <time>2018-06-10T10:14:06Z</time>
      </trkpt>
      <trkpt lat="38.6795960" lon="0.0376740">
        <ele>137.5</ele>
        <time>2018-06-10T10:14:07Z</time>
      </trkpt>
      <trkpt lat="38.6794950" lon="0.0377680">
        <ele>137.2</ele>
        <time>2018-06-10T10:14:08Z</time>
      </trkpt>
      <trkpt lat="38.6793880" lon="0.0378730">
        <ele>136.8</ele>
        <time>2018-06-10T10:14:09Z</time>
      </trkpt>
      <trkpt lat="38.6792840" lon="0.0379950">
        <ele>136.4</ele>
        <time>2018-06-10T10:14:10Z</time>
      </trkpt>
      <trkpt lat="38.6791980" lon="0.0381370">
        <ele>136.0</ele>
        <time>2018-06-10T10:14:11Z</time>
      </trkpt>
      <trkpt lat="38.6791170" lon="0.0382850">
        <ele>135.6</ele>
        <time>2018-06-10T10:14:12Z</time>
      </trkpt>
      <trkpt lat="38.6790410" lon="0.0384430">
        <ele>135.1</ele>
        <time>2018-06-10T10:14:13Z</time>
      </trkpt>
      <trkpt lat="38.6789600" lon="0.0386060">
        <ele>134.5</ele>
        <time>2018-06-10T10:14:14Z</time>
      </trkpt>
      <trkpt lat="38.6788630" lon="0.0387610">
        <ele>133.8</ele>
        <time>2018-06-10T10:14:15Z</time>
      </trkpt>
      <trkpt lat="38.6787670" lon="0.0389080">
        <ele>133.2</ele>
        <time>2018-06-10T10:14:16Z</time>
      </trkpt>
      <trkpt lat="38.6786640" lon="0.0390410">
        <ele>132.6</ele>
        <time>2018-06-10T10:14:17Z</time>
      </trkpt>
      <trkpt lat="38.6785690" lon="0.0391770">
        <ele>132.1</ele>
        <time>2018-06-10T10:14:18Z</time>
      </trkpt>
      <trkpt lat="38.6784640" lon="0.0392990">
        <ele>131.7</ele>
        <time>2018-06-10T10:14:19Z</time>
      </trkpt>
      <trkpt lat="38.6783270" lon="0.0393820">
        <ele>131.2</ele>
        <time>2018-06-10T10:14:20Z</time>
      </trkpt>
      <trkpt lat="38.6781840" lon="0.0394280">
        <ele>130.6</ele>
        <time>2018-06-10T10:14:21Z</time>
      </trkpt>
      <trkpt lat="38.6780310" lon="0.0394320">
        <ele>130.1</ele>
        <time>2018-06-10T10:14:22Z</time>
      </trkpt>
      <trkpt lat="38.6778880" lon="0.0393890">
        <ele>129.5</ele>
        <time>2018-06-10T10:14:23Z</time>
      </trkpt>
      <trkpt lat="38.6777610" lon="0.0393220">
        <ele>129.0</ele>
        <time>2018-06-10T10:14:24Z</time>
      </trkpt>
      <trkpt lat="38.6776380" lon="0.0391560">
        <ele>128.3</ele>
        <time>2018-06-10T10:14:25Z</time>
      </trkpt>
      <trkpt lat="38.6774890" lon="0.0389070">
        <ele>127.1</ele>
        <time>2018-06-10T10:14:26Z</time>
      </trkpt>
      <trkpt lat="38.6773360" lon="0.0387130">
        <ele>126.1</ele>
        <time>2018-06-10T10:14:27Z</time>
      </trkpt>
      <trkpt lat="38.6771960" lon="0.0385560">
        <ele>124.4</ele>
        <time>2018-06-10T10:14:28Z</time>
      </trkpt>
      <trkpt lat="38.6770230" lon="0.0383820">
        <ele>122.4</ele>
        <time>2018-06-10T10:14:29Z</time>
      </trkpt>
      <trkpt lat="38.6768470" lon="0.0382320">
        <ele>120.4</ele>
        <time>2018-06-10T10:14:30Z</time>
      </trkpt>
      <trkpt lat="38.6766700" lon="0.0381520">
        <ele>118.5</ele>
        <time>2018-06-10T10:14:31Z</time>
      </trkpt>
      <trkpt lat="38.6764850" lon="0.0381000">
        <ele>117.1</ele>
        <time>2018-06-10T10:14:32Z</time>
      </trkpt>
      <trkpt lat="38.6763010" lon="0.0380970">
        <ele>117.7</ele>
        <time>2018-06-10T10:14:33Z</time>
      </trkpt>
      <trkpt lat="38.6761500" lon="0.0381110">
        <ele>118.3</ele>
        <time>2018-06-10T10:14:34Z</time>
      </trkpt>
      <trkpt lat="38.6760100" lon="0.0381360">
        <ele>118.9</ele>
        <time>2018-06-10T10:14:35Z</time>
      </trkpt>
      <trkpt lat="38.6758630" lon="0.0381670">
        <ele>119.7</ele>
        <time>2018-06-10T10:14:36Z</time>
      </trkpt>
      <trkpt lat="38.6757090" lon="0.0381900">
        <ele>120.6</ele>
        <time>2018-06-10T10:14:37Z</time>
      </trkpt>
      <trkpt lat="38.6755680" lon="0.0382220">
        <ele>120.9</ele>
        <time>2018-06-10T10:14:38Z</time>
      </trkpt>
      <trkpt lat="38.6754340" lon="0.0382480">
        <ele>120.7</ele>
        <time>2018-06-10T10:14:39Z</time>
      </trkpt>
      <trkpt lat="38.6753100" lon="0.0382590">
        <ele>120.7</ele>
        <time>2018-06-10T10:14:40Z</time>
      </trkpt>
      <trkpt lat="38.6751750" lon="0.0382710">
        <ele>121.0</ele>
        <time>2018-06-10T10:14:41Z</time>
      </trkpt>
      <trkpt lat="38.6750360" lon="0.0382790">
        <ele>120.6</ele>
        <time>2018-06-10T10:14:42Z</time>
      </trkpt>
      <trkpt lat="38.6748920" lon="0.0382950">
        <ele>119.7</ele>
        <time>2018-06-10T10:14:43Z</time>
      </trkpt>
      <trkpt lat="38.6747490" lon="0.0383150">
        <ele>119.0</ele>
        <time>2018-06-10T10:14:44Z</time>
      </trkpt>
      <trkpt lat="38.6745960" lon="0.0383340">
        <ele>118.3</ele>
        <time>2018-06-10T10:14:45Z</time>
      </trkpt>
      <trkpt lat="38.6744420" lon="0.0383580">
        <ele>117.6</ele>
        <time>2018-06-10T10:14:46Z</time>
      </trkpt>
      <trkpt lat="38.6743020" lon="0.0383760">
        <ele>117.0</ele>
        <time>2018-06-10T10:14:47Z</time>
      </trkpt>
      <trkpt lat="38.6741550" lon="0.0383970">
        <ele>116.2</ele>
        <time>2018-06-10T10:14:48Z</time>
      </trkpt>
      <trkpt lat="38.6740170" lon="0.0384170">
        <ele>115.3</ele>
        <time>2018-06-10T10:14:49Z</time>
      </trkpt>
      <trkpt lat="38.6738840" lon="0.0384350">
        <ele>114.3</ele>
        <time>2018-06-10T10:14:50Z</time>
      </trkpt>
      <trkpt lat="38.6737630" lon="0.0384570">
        <ele>113.3</ele>
        <time>2018-06-10T10:14:51Z</time>
      </trkpt>
      <trkpt lat="38.6736410" lon="0.0384640">
        <ele>112.2</ele>
        <time>2018-06-10T10:14:52Z</time>
      </trkpt>
      <trkpt lat="38.6735060" lon="0.0384710">
        <ele>111.0</ele>
        <time>2018-06-10T10:14:53Z</time>
      </trkpt>
      <trkpt lat="38.6733660" lon="0.0384730">
        <ele>109.9</ele>
        <time>2018-06-10T10:14:54Z</time>
      </trkpt>
      <trkpt lat="38.6732240" lon="0.0384740">
        <ele>108.8</ele>
        <time>2018-06-10T10:14:55Z</time>
      </trkpt>
      <trkpt lat="38.6730890" lon="0.0384770">
        <ele>107.7</ele>
        <time>2018-06-10T10:14:56Z</time>
      </trkpt>
      <trkpt lat="38.6729590" lon="0.0384810">
        <ele>106.6</ele>
        <time>2018-06-10T10:14:57Z</time>
      </trkpt>
      <trkpt lat="38.6728270" lon="0.0384760">
        <ele>105.4</ele>
        <time>2018-06-10T10:14:58Z</time>
      </trkpt>
      <trkpt lat="38.6726840" lon="0.0384710">
        <ele>104.0</ele>
        <time>2018-06-10T10:14:59Z</time>
      </trkpt>
      <trkpt lat="38.6725430" lon="0.0384690">
        <ele>102.4</ele>
        <time>2018-06-10T10:15:00Z</time>
      </trkpt>
      <trkpt lat="38.6723950" lon="0.0384630">
        <ele>102.0</ele>
        <time>2018-06-10T10:15:01Z</time>
      </trkpt>
      <trkpt lat="38.6722470" lon="0.0384420">
        <ele>102.0</ele>
        <time>2018-06-10T10:15:02Z</time>
      </trkpt>
      <trkpt lat="38.6721030" lon="0.0384080">
        <ele>102.0</ele>
        <time>2018-06-10T10:15:03Z</time>
      </trkpt>
      <trkpt lat="38.6719630" lon="0.0383540">
        <ele>101.9</ele>
        <time>2018-06-10T10:15:04Z</time>
      </trkpt>
      <trkpt lat="38.6718310" lon="0.0382810">
        <ele>101.9</ele>
        <time>2018-06-10T10:15:05Z</time>
      </trkpt>
      <trkpt lat="38.6717150" lon="0.0381840">
        <ele>102.0</ele>
        <time>2018-06-10T10:15:06Z</time>
      </trkpt>
      <trkpt lat="38.6716080" lon="0.0380590">
        <ele>102.2</ele>
        <time>2018-06-10T10:15:07Z</time>
      </trkpt>
      <trkpt lat="38.6715060" lon="0.0379350">
        <ele>102.4</ele>
        <time>2018-06-10T10:15:08Z</time>
      </trkpt>
      <trkpt lat="38.6714010" lon="0.0378140">
        <ele>102.5</ele>
        <time>2018-06-10T10:15:09Z</time>
      </trkpt>
      <trkpt lat="38.6712840" lon="0.0377020">
        <ele>102.5</ele>
        <time>2018-06-10T10:15:10Z</time>
      </trkpt>
      <trkpt lat="38.6711690" lon="0.0376030">
        <ele>102.5</ele>
        <time>2018-06-10T10:15:11Z</time>
      </trkpt>
      <trkpt lat="38.6710490" lon="0.0375220">
        <ele>102.7</ele>
        <time>2018-06-10T10:15:12Z</time>
      </trkpt>
      <trkpt lat="38.6709210" lon="0.0374760">
        <ele>103.0</ele>
        <time>2018-06-10T10:15:13Z</time>
      </trkpt>
      <trkpt lat="38.6707960" lon="0.0374520">
        <ele>103.0</ele>
        <time>2018-06-10T10:15:14Z</time>
      </trkpt>
      <trkpt lat="38.6706730" lon="0.0374660">
        <ele>100.3</ele>
        <time>2018-06-10T10:15:15Z</time>
      </trkpt>
      <trkpt lat="38.6705520" lon="0.0375420">
        <ele>97.9</ele>
        <time>2018-06-10T10:15:16Z</time>
      </trkpt>
      <trkpt lat="38.6704240" lon="0.0376180">
        <ele>94.9</ele>
        <time>2018-06-10T10:15:17Z</time>
      </trkpt>
      <trkpt lat="38.6703050" lon="0.0377470">
        <ele>92.7</ele>
        <time>2018-06-10T10:15:18Z</time>
      </trkpt>
      <trkpt lat="38.6702160" lon="0.0379290">
        <ele>94.6</ele>
        <time>2018-06-10T10:15:19Z</time>
      </trkpt>
      <trkpt lat="38.6701300" lon="0.0381310">
        <ele>96.9</ele>
        <time>2018-06-10T10:15:20Z</time>
      </trkpt>
      <trkpt lat="38.6700520" lon="0.0382950">
        <ele>95.5</ele>
        <time>2018-06-10T10:15:21Z</time>
      </trkpt>
      <trkpt lat="38.6699670" lon="0.0384290">
        <ele>94.2</ele>
        <time>2018-06-10T10:15:22Z</time>
      </trkpt>
      <trkpt lat="38.6698820" lon="0.0385850">
        <ele>92.9</ele>
        <time>2018-06-10T10:15:23Z</time>
      </trkpt>
      <trkpt lat="38.6697740" lon="0.0387080">
        <ele>91.6</ele>
        <time>2018-06-10T10:15:24Z</time>
      </trkpt>
      <trkpt lat="38.6696500" lon="0.0387850">
        <ele>90.5</ele>
        <time>2018-06-10T10:15:25Z</time>
      </trkpt>
      <trkpt lat="38.6695200" lon="0.0388350">
        <ele>89.6</ele>
        <time>2018-06-10T10:15:26Z</time>
      </trkpt>
      <trkpt lat="38.6693840" lon="0.0388220">
        <ele>88.9</ele>
        <time>2018-06-10T10:15:27Z</time>
      </trkpt>
      <trkpt lat="38.6692640" lon="0.0388070">
        <ele>88.4</ele>
        <time>2018-06-10T10:15:28Z</time>
      </trkpt>
      <trkpt lat="38.6691210" lon="0.0387100">
        <ele>87.8</ele>
        <time>2018-06-10T10:15:29Z</time>
      </trkpt>
      <trkpt lat="38.6689890" lon="0.0385770">
        <ele>87.0</ele>
        <time>2018-06-10T10:15:30Z</time>
      </trkpt>
      <trkpt lat="38.6688640" lon="0.0384480">
        <ele>86.1</ele>
        <time>2018-06-10T10:15:31Z</time>
      </trkpt>
      <trkpt lat="38.6687430" lon="0.0383090">
        <ele>85.0</ele>
        <time>2018-06-10T10:15:32Z</time>
      </trkpt>
      <trkpt lat="38.6686280" lon="0.0381530">
        <ele>83.9</ele>
        <time>2018-06-10T10:15:33Z</time>
      </trkpt>
      <trkpt lat="38.6685250" lon="0.0379840">
        <ele>82.7</ele>
        <time>2018-06-10T10:15:34Z</time>
      </trkpt>
      <trkpt lat="38.6684330" lon="0.0378150">
        <ele>81.7</ele>
        <time>2018-06-10T10:15:35Z</time>
      </trkpt>
      <trkpt lat="38.6683550" lon="0.0376520">
        <ele>80.8</ele>
        <time>2018-06-10T10:15:36Z</time>
      </trkpt>
      <trkpt lat="38.6682660" lon="0.0374940">
        <ele>79.9</ele>
        <time>2018-06-10T10:15:37Z</time>
      </trkpt>
      <trkpt lat="38.6681730" lon="0.0373520">
        <ele>79.1</ele>
        <time>2018-06-10T10:15:38Z</time>
      </trkpt>
      <trkpt lat="38.6680760" lon="0.0372210">
        <ele>78.3</ele>
        <time>2018-06-10T10:15:39Z</time>
      </trkpt>
      <trkpt lat="38.6679710" lon="0.0371040">
        <ele>77.6</ele>
        <time>2018-06-10T10:15:40Z</time>
      </trkpt>
      <trkpt lat="38.6678670" lon="0.0369910">
        <ele>76.8</ele>
        <time>2018-06-10T10:15:41Z</time>
      </trkpt>
      <trkpt lat="38.6677530" lon="0.0369350">
        <ele>76.3</ele>
        <time>2018-06-10T10:15:42Z</time>
      </trkpt>
      <trkpt lat="38.6676150" lon="0.0369110">
        <ele>75.8</ele>
        <time>2018-06-10T10:15:43Z</time>
      </trkpt>
      <trkpt lat="38.6674690" lon="0.0368910">
        <ele>75.2</ele>
        <time>2018-06-10T10:15:44Z</time>
      </trkpt>
      <trkpt lat="38.6673100" lon="0.0369240">
        <ele>75.0</ele>
        <time>2018-06-10T10:15:45Z</time>
      </trkpt>
      <trkpt lat="38.6671610" lon="0.0369780">
        <ele>74.9</ele>
        <time>2018-06-10T10:15:46Z</time>
      </trkpt>
      <trkpt lat="38.6670370" lon="0.0371120">
        <ele>74.9</ele>
        <time>2018-06-10T10:15:47Z</time>
      </trkpt>
      <trkpt lat="38.6668950" lon="0.0372440">
        <ele>74.9</ele>
        <time>2018-06-10T10:15:48Z</time>
      </trkpt>
      <trkpt lat="38.6667430" lon="0.0373370">
        <ele>74.9</ele>
        <time>2018-06-10T10:15:49Z</time>
      </trkpt>
      <trkpt lat="38.6665900" lon="0.0374060">
        <ele>75.3</ele>
        <time>2018-06-10T10:15:50Z</time>
      </trkpt>
      <trkpt lat="38.6664430" lon="0.0374430">
        <ele>76.0</ele>
        <time>2018-06-10T10:15:51Z</time>
      </trkpt>
      <trkpt lat="38.6662980" lon="0.0374270">
        <ele>76.7</ele>
        <time>2018-06-10T10:15:52Z</time>
      </trkpt>
      <trkpt lat="38.6661470" lon="0.0373730">
        <ele>77.6</ele>
        <time>2018-06-10T10:15:53Z</time>
      </trkpt>
      <trkpt lat="38.6660050" lon="0.0372470">
        <ele>77.4</ele>
        <time>2018-06-10T10:15:54Z</time>
      </trkpt>
      <trkpt lat="38.6658850" lon="0.0370760">
        <ele>76.3</ele>
        <time>2018-06-10T10:15:55Z</time>
      </trkpt>
      <trkpt lat="38.6658210" lon="0.0368310">
        <ele>75.0</ele>
        <time>2018-06-10T10:15:56Z</time>
      </trkpt>
      <trkpt lat="38.6657620" lon="0.0366050">
        <ele>73.3</ele>
        <time>2018-06-10T10:15:57Z</time>
      </trkpt>
      <trkpt lat="38.6657190" lon="0.0363660">
        <ele>70.6</ele>
        <time>2018-06-10T10:15:58Z</time>
      </trkpt>
      <trkpt lat="38.6656690" lon="0.0361400">
        <ele>68.0</ele>
        <time>2018-06-10T10:15:59Z</time>
      </trkpt>
      <trkpt lat="38.6656010" lon="0.0359320">
        <ele>65.2</ele>
        <time>2018-06-10T10:16:00Z</time>
      </trkpt>
      <trkpt lat="38.6655260" lon="0.0357450">
        <ele>62.4</ele>
        <time>2018-06-10T10:16:01Z</time>
      </trkpt>
      <trkpt lat="38.6654400" lon="0.0355770">
        <ele>61.6</ele>
        <time>2018-06-10T10:16:02Z</time>
      </trkpt>
      <trkpt lat="38.6653480" lon="0.0354180">
        <ele>61.1</ele>
        <time>2018-06-10T10:16:03Z</time>
      </trkpt>
      <trkpt lat="38.6652510" lon="0.0352780">
        <ele>60.7</ele>
        <time>2018-06-10T10:16:04Z</time>
      </trkpt>
      <trkpt lat="38.6651440" lon="0.0351480">
        <ele>60.4</ele>
        <time>2018-06-10T10:16:05Z</time>
      </trkpt>
      <trkpt lat="38.6650190" lon="0.0350350">
        <ele>60.0</ele>
        <time>2018-06-10T10:16:06Z</time>
      </trkpt>
      <trkpt lat="38.6648830" lon="0.0349280">
        <ele>59.6</ele>
        <time>2018-06-10T10:16:07Z</time>
      </trkpt>
      <trkpt lat="38.6647310" lon="0.0348360">
        <ele>59.1</ele>
        <time>2018-06-10T10:16:08Z</time>
      </trkpt>
      <trkpt lat="38.6645790" lon="0.0347580">
        <ele>58.6</ele>
        <time>2018-06-10T10:16:09Z</time>
      </trkpt>
      <trkpt lat="38.6644270" lon="0.0346820">
        <ele>58.2</ele>
        <time>2018-06-10T10:16:10Z</time>
      </trkpt>
      <trkpt lat="38.6642730" lon="0.0346190">
        <ele>57.8</ele>
        <time>2018-06-10T10:16:11Z</time>
      </trkpt>
      <trkpt lat="38.6641220" lon="0.0345710">
        <ele>57.5</ele>
        <time>2018-06-10T10:16:12Z</time>
      </trkpt>
      <trkpt lat="38.6639770" lon="0.0345700">
        <ele>57.2</ele>
        <time>2018-06-10T10:16:13Z</time>
      </trkpt>
      <trkpt lat="38.6638190" lon="0.0345650">
        <ele>57.0</ele>
        <time>2018-06-10T10:16:14Z</time>
      </trkpt>
      <trkpt lat="38.6636650" lon="0.0345630">
        <ele>56.6</ele>
        <time>2018-06-10T10:16:15Z</time>
      </trkpt>
      <trkpt lat="38.6635160" lon="0.0345940">
        <ele>56.3</ele>
        <time>2018-06-10T10:16:16Z</time>
      </trkpt>
      <trkpt lat="38.6633540" lon="0.0346350">
        <ele>55.8</ele>
        <time>2018-06-10T10:16:17Z</time>
      </trkpt>
      <trkpt lat="38.6632150" lon="0.0346900">
        <ele>55.4</ele>
        <time>2018-06-10T10:16:18Z</time>
      </trkpt>
      <trkpt lat="38.6630770" lon="0.0347420">
        <ele>54.9</ele>
        <time>2018-06-10T10:16:19Z</time>
      </trkpt>
      <trkpt lat="38.6629550" lon="0.0348020">
        <ele>54.4</ele>
        <time>2018-06-10T10:16:20Z</time>
      </trkpt>
      <trkpt lat="38.6628320" lon="0.0348700">
        <ele>53.8</ele>
        <time>2018-06-10T10:16:21Z</time>
      </trkpt>
      <trkpt lat="38.6627040" lon="0.0349460">
        <ele>53.1</ele>
        <time>2018-06-10T10:16:22Z</time>
      </trkpt>
      <trkpt lat="38.6625720" lon="0.0350210">
        <ele>52.4</ele>
        <time>2018-06-10T10:16:23Z</time>
      </trkpt>
      <trkpt lat="38.6624400" lon="0.0351000">
        <ele>51.7</ele>
        <time>2018-06-10T10:16:24Z</time>
      </trkpt>
      <trkpt lat="38.6623030" lon="0.0351700">
        <ele>51.1</ele>
        <time>2018-06-10T10:16:25Z</time>
      </trkpt>
      <trkpt lat="38.6621630" lon="0.0352350">
        <ele>52.4</ele>
        <time>2018-06-10T10:16:26Z</time>
      </trkpt>
      <trkpt lat="38.6620240" lon="0.0352810">
        <ele>54.0</ele>
        <time>2018-06-10T10:16:27Z</time>
      </trkpt>
      <trkpt lat="38.6618730" lon="0.0353090">
        <ele>55.7</ele>
        <time>2018-06-10T10:16:28Z</time>
      </trkpt>
      <trkpt lat="38.6617230" lon="0.0352930">
        <ele>57.7</ele>
        <time>2018-06-10T10:16:29Z</time>
      </trkpt>
      <trkpt lat="38.6615930" lon="0.0352530">
        <ele>59.7</ele>
        <time>2018-06-10T10:16:30Z</time>
      </trkpt>
      <trkpt lat="38.6614730" lon="0.0352000">
        <ele>61.8</ele>
        <time>2018-06-10T10:16:31Z</time>
      </trkpt>
      <trkpt lat="38.6613690" lon="0.0351640">
        <ele>64.8</ele>
        <time>2018-06-10T10:16:32Z</time>
      </trkpt>
      <trkpt lat="38.6612570" lon="0.0351180">
        <ele>64.5</ele>
        <time>2018-06-10T10:16:33Z</time>
      </trkpt>
      <trkpt lat="38.6611650" lon="0.0350720">
        <ele>64.2</ele>
        <time>2018-06-10T10:16:34Z</time>
      </trkpt>
      <trkpt lat="38.6610760" lon="0.0350670">
        <ele>63.8</ele>
        <time>2018-06-10T10:16:35Z</time>
      </trkpt>
      <trkpt lat="38.6609910" lon="0.0350600">
        <ele>63.5</ele>
        <time>2018-06-10T10:16:36Z</time>
      </trkpt>
      <trkpt lat="38.6609130" lon="0.0350430">
        <ele>63.2</ele>
        <time>2018-06-10T10:16:37Z</time>
      </trkpt>
      <trkpt lat="38.6608160" lon="0.0350030">
        <ele>62.7</ele>
        <time>2018-06-10T10:16:38Z</time>
      </trkpt>
      <trkpt lat="38.6607300" lon="0.0349600">
        <ele>62.4</ele>
        <time>2018-06-10T10:16:39Z</time>
      </trkpt>
      <trkpt lat="38.6606470" lon="0.0349230">
        <ele>62.1</ele>
        <time>2018-06-10T10:16:40Z</time>
      </trkpt>
      <trkpt lat="38.6605730" lon="0.0348990">
        <ele>62.0</ele>
        <time>2018-06-10T10:16:41Z</time>
      </trkpt>
      <trkpt lat="38.6604900" lon="0.0348940">
        <ele>61.8</ele>
        <time>2018-06-10T10:16:42Z</time>
      </trkpt>
      <trkpt lat="38.6604080" lon="0.0349010">
        <ele>61.6</ele>
        <time>2018-06-10T10:16:43Z</time>
      </trkpt>
      <trkpt lat="38.6603310" lon="0.0349280">
        <ele>61.5</ele>
        <time>2018-06-10T10:16:44Z</time>
      </trkpt>
      <trkpt lat="38.6602600" lon="0.0349800">
        <ele>61.4</ele>
        <time>2018-06-10T10:16:45Z</time>
      </trkpt>
      <trkpt lat="38.6602060" lon="0.0350860">
        <ele>61.3</ele>
        <time>2018-06-10T10:16:46Z</time>
      </trkpt>
      <trkpt lat="38.6601640" lon="0.0351790">
        <ele>61.1</ele>
        <time>2018-06-10T10:16:47Z</time>
      </trkpt>
      <trkpt lat="38.6601200" lon="0.0352660">
        <ele>61.0</ele>
        <time>2018-06-10T10:16:48Z</time>
      </trkpt>
      <trkpt lat="38.6600590" lon="0.0353400">
        <ele>60.9</ele>
        <time>2018-06-10T10:16:49Z</time>
      </trkpt>
      <trkpt lat="38.6599890" lon="0.0354010">
        <ele>60.8</ele>
        <time>2018-06-10T10:16:50Z</time>
      </trkpt>
      <trkpt lat="38.6599240" lon="0.0354460">
        <ele>60.6</ele>
        <time>2018-06-10T10:16:51Z</time>
      </trkpt>
      <trkpt lat="38.6598490" lon="0.0354920">
        <ele>60.5</ele>
        <time>2018-06-10T10:16:52Z</time>
      </trkpt>
      <trkpt lat="38.6597670" lon="0.0355350">
        <ele>60.4</ele>
        <time>2018-06-10T10:16:53Z</time>
      </trkpt>
      <trkpt lat="38.6596810" lon="0.0355750">
        <ele>60.2</ele>
        <time>2018-06-10T10:16:54Z</time>
      </trkpt>
      <trkpt lat="38.6595940" lon="0.0356090">
        <ele>60.0</ele>
        <time>2018-06-10T10:16:55Z</time>
      </trkpt>
      <trkpt lat="38.6595040" lon="0.0356470">
        <ele>59.8</ele>
        <time>2018-06-10T10:16:56Z</time>
      </trkpt>
      <trkpt lat="38.6594170" lon="0.0356770">
        <ele>59.7</ele>
        <time>2018-06-10T10:16:57Z</time>
      </trkpt>
      <trkpt lat="38.6593280" lon="0.0357090">
        <ele>59.5</ele>
        <time>2018-06-10T10:16:58Z</time>
      </trkpt>
      <trkpt lat="38.6592320" lon="0.0357450">
        <ele>59.3</ele>
        <time>2018-06-10T10:16:59Z</time>
      </trkpt>
      <trkpt lat="38.6591240" lon="0.0357820">
        <ele>59.1</ele>
        <time>2018-06-10T10:17:00Z</time>
      </trkpt>
      <trkpt lat="38.6590260" lon="0.0358120">
        <ele>58.9</ele>
        <time>2018-06-10T10:17:01Z</time>
      </trkpt>
      <trkpt lat="38.6589250" lon="0.0358350">
        <ele>58.7</ele>
        <time>2018-06-10T10:17:02Z</time>
      </trkpt>
      <trkpt lat="38.6588350" lon="0.0358590">
        <ele>58.5</ele>
        <time>2018-06-10T10:17:03Z</time>
      </trkpt>
      <trkpt lat="38.6587630" lon="0.0358770">
        <ele>58.4</ele>
        <time>2018-06-10T10:17:04Z</time>
      </trkpt>
      <trkpt lat="38.6586820" lon="0.0359020">
        <ele>58.2</ele>
        <time>2018-06-10T10:17:05Z</time>
      </trkpt>
      <trkpt lat="38.6586030" lon="0.0359280">
        <ele>58.1</ele>
        <time>2018-06-10T10:17:06Z</time>
      </trkpt>
      <trkpt lat="38.6585260" lon="0.0359580">
        <ele>57.9</ele>
        <time>2018-06-10T10:17:07Z</time>
      </trkpt>
      <trkpt lat="38.6584520" lon="0.0359850">
        <ele>57.8</ele>
        <time>2018-06-10T10:17:08Z</time>
      </trkpt>
      <trkpt lat="38.6583770" lon="0.0360130">
        <ele>57.6</ele>
        <time>2018-06-10T10:17:09Z</time>
      </trkpt>
      <trkpt lat="38.6583050" lon="0.0360460">
        <ele>57.5</ele>
        <time>2018-06-10T10:17:10Z</time>
      </trkpt>
      <trkpt lat="38.6582380" lon="0.0360770">
        <ele>57.3</ele>
        <time>2018-06-10T10:17:11Z</time>
      </trkpt>
      <trkpt lat="38.6581790" lon="0.0361100">
        <ele>57.2</ele>
        <time>2018-06-10T10:17:12Z</time>
      </trkpt>
      <trkpt lat="38.6581160" lon="0.0361450">
        <ele>57.1</ele>
        <time>2018-06-10T10:17:13Z</time>
      </trkpt>
      <trkpt lat="38.6580540" lon="0.0361800">
        <ele>57.0</ele>
        <time>2018-06-10T10:17:14Z</time>
      </trkpt>
      <trkpt lat="38.6580060" lon="0.0362000">
        <ele>56.9</ele>
        <time>2018-06-10T10:17:15Z</time>
      </trkpt>
      <trkpt lat="38.6579550" lon="0.0362270">
        <ele>56.8</ele>
        <time>2018-06-10T10:17:16Z</time>
      </trkpt>
      <trkpt lat="38.6578950" lon="0.0362530">
        <ele>56.7</ele>
        <time>2018-06-10T10:17:17Z</time>
      </trkpt>
      <trkpt lat="38.6578350" lon="0.0362810">
        <ele>56.7</ele>
        <time>2018-06-10T10:17:18Z</time>
      </trkpt>
      <trkpt lat="38.6577730" lon="0.0363060">
        <ele>56.6</ele>
        <time>2018-06-10T10:17:19Z</time>
      </trkpt>
      <trkpt lat="38.6577050" lon="0.0363350">
        <ele>56.7</ele>
        <time>2018-06-10T10:17:20Z</time>
      </trkpt>
      <trkpt lat="38.6576450" lon="0.0363580">
        <ele>56.8</ele>
        <time>2018-06-10T10:17:21Z</time>
      </trkpt>
      <trkpt lat="38.6575880" lon="0.0363830">
        <ele>56.9</ele>
        <time>2018-06-10T10:17:22Z</time>
      </trkpt>
      <trkpt lat="38.6575390" lon="0.0364070">
        <ele>57.0</ele>
        <time>2018-06-10T10:17:23Z</time>
      </trkpt>
      <trkpt lat="38.6574890" lon="0.0364330">
        <ele>57.1</ele>
        <time>2018-06-10T10:17:24Z</time>
      </trkpt>
      <trkpt lat="38.6574410" lon="0.0364560">
        <ele>57.2</ele>
        <time>2018-06-10T10:17:25Z</time>
      </trkpt>
      <trkpt lat="38.6573910" lon="0.0364900">
        <ele>57.3</ele>
        <time>2018-06-10T10:17:26Z</time>
      </trkpt>
      <trkpt lat="38.6573440" lon="0.0365310">
        <ele>57.3</ele>
        <time>2018-06-10T10:17:27Z</time>
      </trkpt>
      <trkpt lat="38.6572820" lon="0.0365740">
        <ele>57.3</ele>
        <time>2018-06-10T10:17:28Z</time>
      </trkpt>
      <trkpt lat="38.6572040" lon="0.0366130">
        <ele>57.2</ele>
        <time>2018-06-10T10:17:29Z</time>
      </trkpt>
      <trkpt lat="38.6571310" lon="0.0366580">
        <ele>57.1</ele>
        <time>2018-06-10T10:17:30Z</time>
      </trkpt>
      <trkpt lat="38.6570420" lon="0.0366950">
        <ele>57.3</ele>
        <time>2018-06-10T10:17:31Z</time>
      </trkpt>
      <trkpt lat="38.6569740" lon="0.0367300">
        <ele>57.6</ele>
        <time>2018-06-10T10:17:32Z</time>
      </trkpt>
      <trkpt lat="38.6569130" lon="0.0367640">
        <ele>57.9</ele>
        <time>2018-06-10T10:17:33Z</time>
      </trkpt>
      <trkpt lat="38.6568550" lon="0.0367890">
        <ele>58.1</ele>
        <time>2018-06-10T10:17:34Z</time>
      </trkpt>
      <trkpt lat="38.6567950" lon="0.0368080">
        <ele>58.2</ele>
        <time>2018-06-10T10:17:35Z</time>
      </trkpt>
      <trkpt lat="38.6567140" lon="0.0368350">
        <ele>58.5</ele>
        <time>2018-06-10T10:17:36Z</time>
      </trkpt>
      <trkpt lat="38.6566350" lon="0.0368640">
        <ele>58.7</ele>
        <time>2018-06-10T10:17:37Z</time>
      </trkpt>
      <trkpt lat="38.6565390" lon="0.0368920">
        <ele>59.0</ele>
        <time>2018-06-10T10:17:38Z</time>
      </trkpt>
      <trkpt lat="38.6564530" lon="0.0369130">
        <ele>59.3</ele>
        <time>2018-06-10T10:17:39Z</time>
      </trkpt>
      <trkpt lat="38.6563710" lon="0.0369320">
        <ele>59.7</ele>
        <time>2018-06-10T10:17:40Z</time>
      </trkpt>
      <trkpt lat="38.6562860" lon="0.0369590">
        <ele>60.2</ele>
        <time>2018-06-10T10:17:41Z</time>
      </trkpt>
      <trkpt lat="38.6562130" lon="0.0369950">
        <ele>60.8</ele>
        <time>2018-06-10T10:17:42Z</time>
      </trkpt>
      <trkpt lat="38.6561340" lon="0.0370350">
        <ele>61.4</ele>
        <time>2018-06-10T10:17:43Z</time>
      </trkpt>
      <trkpt lat="38.6560520" lon="0.0370740">
        <ele>62.0</ele>
        <time>2018-06-10T10:17:44Z</time>
      </trkpt>
      <trkpt lat="38.6559890" lon="0.0371050">
        <ele>62.3</ele>
        <time>2018-06-10T10:17:45Z</time>
      </trkpt>
      <trkpt lat="38.6559140" lon="0.0371220">
        <ele>62.7</ele>
        <time>2018-06-10T10:17:46Z</time>
      </trkpt>
      <trkpt lat="38.6558390" lon="0.0371450">
        <ele>63.0</ele>
        <time>2018-06-10T10:17:47Z</time>
      </trkpt>
      <trkpt lat="38.6557750" lon="0.0371660">
        <ele>63.2</ele>
        <time>2018-06-10T10:17:48Z</time>
      </trkpt>
      <trkpt lat="38.6557070" lon="0.0371870">
        <ele>63.5</ele>
        <time>2018-06-10T10:17:49Z</time>
      </trkpt>
      <trkpt lat="38.6556400" lon="0.0372130">
        <ele>63.8</ele>
        <time>2018-06-10T10:17:50Z</time>
      </trkpt>
      <trkpt lat="38.6555800" lon="0.0372280">
        <ele>64.1</ele>
        <time>2018-06-10T10:17:51Z</time>
      </trkpt>
      <trkpt lat="38.6555130" lon="0.0372400">
        <ele>64.7</ele>
        <time>2018-06-10T10:17:52Z</time>
      </trkpt>
      <trkpt lat="38.6554420" lon="0.0372540">
        <ele>65.2</ele>
        <time>2018-06-10T10:17:53Z</time>
      </trkpt>
      <trkpt lat="38.6553710" lon="0.0372650">
        <ele>65.7</ele>
        <time>2018-06-10T10:17:54Z</time>
      </trkpt>
      <trkpt lat="38.6552990" lon="0.0372790">
        <ele>66.2</ele>
        <time>2018-06-10T10:17:55Z</time>
      </trkpt>
      <trkpt lat="38.6552250" lon="0.0372920">
        <ele>66.5</ele>
        <time>2018-06-10T10:17:56Z</time>
      </trkpt>
      <trkpt lat="38.6551520" lon="0.0373020">
        <ele>66.9</ele>
        <time>2018-06-10T10:17:57Z</time>
      </trkpt>
      <trkpt lat="38.6550730" lon="0.0373190">
        <ele>67.1</ele>
        <time>2018-06-10T10:17:58Z</time>
      </trkpt>
      <trkpt lat="38.6550000" lon="0.0373340">
        <ele>67.4</ele>
        <time>2018-06-10T10:17:59Z</time>
      </trkpt>
      <trkpt lat="38.6549240" lon="0.0373480">
        <ele>67.6</ele>
        <time>2018-06-10T10:18:00Z</time>
      </trkpt>
      <trkpt lat="38.6548550" lon="0.0373540">
        <ele>67.8</ele>
        <time>2018-06-10T10:18:01Z</time>
      </trkpt>
      <trkpt lat="38.6547890" lon="0.0373610">
        <ele>68.0</ele>
        <time>2018-06-10T10:18:02Z</time>
      </trkpt>
      <trkpt lat="38.6547340" lon="0.0373680">
        <ele>68.1</ele>
        <time>2018-06-10T10:18:03Z</time>
      </trkpt>
      <trkpt lat="38.6546770" lon="0.0373750">
        <ele>68.3</ele>
        <time>2018-06-10T10:18:04Z</time>
      </trkpt>
      <trkpt lat="38.6546200" lon="0.0373780">
        <ele>68.5</ele>
        <time>2018-06-10T10:18:05Z</time>
      </trkpt>
      <trkpt lat="38.6545760" lon="0.0373810">
        <ele>68.6</ele>
        <time>2018-06-10T10:18:06Z</time>
      </trkpt>
      <trkpt lat="38.6545280" lon="0.0373850">
        <ele>68.8</ele>
        <time>2018-06-10T10:18:07Z</time>
      </trkpt>
      <trkpt lat="38.6544860" lon="0.0373810">
        <ele>69.0</ele>
        <time>2018-06-10T10:18:08Z</time>
      </trkpt>
      <trkpt lat="38.6544460" lon="0.0373710">
        <ele>69.0</ele>
        <time>2018-06-10T10:18:09Z</time>
      </trkpt>
      <trkpt lat="38.6544020" lon="0.0373570">
        <ele>69.0</ele>
        <time>2018-06-10T10:18:10Z</time>
      </trkpt>
      <trkpt lat="38.6543620" lon="0.0373410">
        <ele>69.0</ele>
        <time>2018-06-10T10:18:11Z</time>
      </trkpt>
      <trkpt lat="38.6543260" lon="0.0373220">
        <ele>69.0</ele>
        <time>2018-06-10T10:18:12Z</time>
      </trkpt>
      <trkpt lat="38.6543000" lon="0.0372780">
        <ele>69.0</ele>
        <time>2018-06-10T10:18:13Z</time>
      </trkpt>
      <trkpt lat="38.6542700" lon="0.0372310">
        <ele>69.0</ele>
        <time>2018-06-10T10:18:14Z</time>
      </trkpt>
      <trkpt lat="38.6542440" lon="0.0371790">
        <ele>69.0</ele>
        <time>2018-06-10T10:18:15Z</time>
      </trkpt>
      <trkpt lat="38.6542120" lon="0.0371320">
        <ele>69.0</ele>
        <time>2018-06-10T10:18:16Z</time>
      </trkpt>
      <trkpt lat="38.6541750" lon="0.0370940">
        <ele>69.0</ele>
        <time>2018-06-10T10:18:17Z</time>
      </trkpt>
      <trkpt lat="38.6541270" lon="0.0370830">
        <ele>69.0</ele>
        <time>2018-06-10T10:18:18Z</time>
      </trkpt>
      <trkpt lat="38.6540860" lon="0.0370780">
        <ele>69.0</ele>
        <time>2018-06-10T10:18:19Z</time>
      </trkpt>
      <trkpt lat="38.6540460" lon="0.0370790">
        <ele>69.0</ele>
        <time>2018-06-10T10:18:20Z</time>
      </trkpt>
      <trkpt lat="38.6539770" lon="0.0371310">
        <ele>69.0</ele>
        <time>2018-06-10T10:18:21Z</time>
      </trkpt>
      <trkpt lat="38.6539230" lon="0.0371730">
        <ele>69.0</ele>
        <time>2018-06-10T10:18:22Z</time>
      </trkpt>
      <trkpt lat="38.6538800" lon="0.0372380">
        <ele>69.0</ele>
        <time>2018-06-10T10:18:23Z</time>
      </trkpt>
      <trkpt lat="38.6538500" lon="0.0373070">
        <ele>69.0</ele>
        <time>2018-06-10T10:18:24Z</time>
      </trkpt>
      <trkpt lat="38.6538160" lon="0.0373610">
        <ele>69.0</ele>
        <time>2018-06-10T10:18:25Z</time>
      </trkpt>
      <trkpt lat="38.6537670" lon="0.0374050">
        <ele>69.0</ele>
        <time>2018-06-10T10:18:26Z</time>
      </trkpt>
      <trkpt lat="38.6537030" lon="0.0374330">
        <ele>69.0</ele>
        <time>2018-06-10T10:18:27Z</time>
      </trkpt>
      <trkpt lat="38.6536430" lon="0.0374570">
        <ele>68.6</ele>
        <time>2018-06-10T10:18:28Z</time>
      </trkpt>
      <trkpt lat="38.6535670" lon="0.0374750">
        <ele>67.5</ele>
        <time>2018-06-10T10:18:29Z</time>
      </trkpt>
      <trkpt lat="38.6534910" lon="0.0374910">
        <ele>66.5</ele>
        <time>2018-06-10T10:18:30Z</time>
      </trkpt>
      <trkpt lat="38.6534200" lon="0.0375030">
        <ele>66.2</ele>
        <time>2018-06-10T10:18:31Z</time>
      </trkpt>
      <trkpt lat="38.6533590" lon="0.0375140">
        <ele>66.4</ele>
        <time>2018-06-10T10:18:32Z</time>
      </trkpt>
      <trkpt lat="38.6532950" lon="0.0375160">
        <ele>66.7</ele>
        <time>2018-06-10T10:18:33Z</time>
      </trkpt>
      <trkpt lat="38.6532270" lon="0.0375130">
        <ele>67.0</ele>
        <time>2018-06-10T10:18:34Z</time>
      </trkpt>
      <trkpt lat="38.6531610" lon="0.0375150">
        <ele>67.3</ele>
        <time>2018-06-10T10:18:35Z</time>
      </trkpt>
      <trkpt lat="38.6530970" lon="0.0375150">
        <ele>67.5</ele>
        <time>2018-06-10T10:18:36Z</time>
      </trkpt>
      <trkpt lat="38.6530370" lon="0.0375170">
        <ele>67.8</ele>
        <time>2018-06-10T10:18:37Z</time>
      </trkpt>
      <trkpt lat="38.6529870" lon="0.0375230">
        <ele>68.0</ele>
        <time>2018-06-10T10:18:38Z</time>
      </trkpt>
      <trkpt lat="38.6529420" lon="0.0375380">
        <ele>68.2</ele>
        <time>2018-06-10T10:18:39Z</time>
      </trkpt>
      <trkpt lat="38.6528990" lon="0.0375510">
        <ele>68.4</ele>
        <time>2018-06-10T10:18:40Z</time>
      </trkpt>
      <trkpt lat="38.6528530" lon="0.0375690">
        <ele>68.7</ele>
        <time>2018-06-10T10:18:41Z</time>
      </trkpt>
      <trkpt lat="38.6527890" lon="0.0375790">
        <ele>69.0</ele>
        <time>2018-06-10T10:18:42Z</time>
      </trkpt>
      <trkpt lat="38.6527190" lon="0.0375920">
        <ele>69.4</ele>
        <time>2018-06-10T10:18:43Z</time>
      </trkpt>
      <trkpt lat="38.6526480" lon="0.0376040">
        <ele>69.8</ele>
        <time>2018-06-10T10:18:44Z</time>
      </trkpt>
      <trkpt lat="38.6525860" lon="0.0376080">
        <ele>69.2</ele>
        <time>2018-06-10T10:18:45Z</time>
      </trkpt>
      <trkpt lat="38.6525290" lon="0.0376110">
        <ele>66.9</ele>
        <time>2018-06-10T10:18:46Z</time>
      </trkpt>
      <trkpt lat="38.6524700" lon="0.0376140">
        <ele>64.6</ele>
        <time>2018-06-10T10:18:47Z</time>
      </trkpt>
      <trkpt lat="38.6524020" lon="0.0376240">
        <ele>64.1</ele>
        <time>2018-06-10T10:18:48Z</time>
      </trkpt>
      <trkpt lat="38.6523330" lon="0.0376380">
        <ele>64.2</ele>
        <time>2018-06-10T10:18:49Z</time>
      </trkpt>
      <trkpt lat="38.6522760" lon="0.0376470">
        <ele>64.3</ele>
        <time>2018-06-10T10:18:50Z</time>
      </trkpt>
      <trkpt lat="38.6522180" lon="0.0376460">
        <ele>64.4</ele>
        <time>2018-06-10T10:18:51Z</time>
      </trkpt>
      <trkpt lat="38.6521690" lon="0.0376480">
        <ele>64.4</ele>
        <time>2018-06-10T10:18:52Z</time>
      </trkpt>
      <trkpt lat="38.6521150" lon="0.0376520">
        <ele>64.5</ele>
        <time>2018-06-10T10:18:53Z</time>
      </trkpt>
      <trkpt lat="38.6520520" lon="0.0376430">
        <ele>64.5</ele>
        <time>2018-06-10T10:18:54Z</time>
      </trkpt>
      <trkpt lat="38.6519870" lon="0.0376370">
        <ele>64.4</ele>
        <time>2018-06-10T10:18:55Z</time>
      </trkpt>
      <trkpt lat="38.6519230" lon="0.0376370">
        <ele>64.4</ele>
        <time>2018-06-10T10:18:56Z</time>
      </trkpt>
      <trkpt lat="38.6518540" lon="0.0376370">
        <ele>64.3</ele>
        <time>2018-06-10T10:18:57Z</time>
      </trkpt>
      <trkpt lat="38.6518050" lon="0.0376420">
        <ele>64.2</ele>
        <time>2018-06-10T10:18:58Z</time>
      </trkpt>
      <trkpt lat="38.6517450" lon="0.0376400">
        <ele>64.1</ele>
        <time>2018-06-10T10:18:59Z</time>
      </trkpt>
      <trkpt lat="38.6516820" lon="0.0376420">
        <ele>64.6</ele>
        <time>2018-06-10T10:19:00Z</time>
      </trkpt>
      <trkpt lat="38.6516170" lon="0.0376520">
        <ele>66.9</ele>
        <time>2018-06-10T10:19:01Z</time>
      </trkpt>
      <trkpt lat="38.6515580" lon="0.0376620">
        <ele>69.0</ele>
        <time>2018-06-10T10:19:02Z</time>
      </trkpt>
      <trkpt lat="38.6515000" lon="0.0376700">
        <ele>71.1</ele>
        <time>2018-06-10T10:19:03Z</time>
      </trkpt>
      <trkpt lat="38.6514430" lon="0.0376790">
        <ele>72.0</ele>
        <time>2018-06-10T10:19:04Z</time>
      </trkpt>
      <trkpt lat="38.6513790" lon="0.0376850">
        <ele>72.0</ele>
        <time>2018-06-10T10:19:05Z</time>
      </trkpt>
      <trkpt lat="38.6513120" lon="0.0377020">
        <ele>72.0</ele>
        <time>2018-06-10T10:19:06Z</time>
      </trkpt>
      <trkpt lat="38.6512420" lon="0.0377120">
        <ele>71.8</ele>
        <time>2018-06-10T10:19:07Z</time>
      </trkpt>
      <trkpt lat="38.6511840" lon="0.0377170">
        <ele>71.6</ele>
        <time>2018-06-10T10:19:08Z</time>
      </trkpt>
      <trkpt lat="38.6511250" lon="0.0377280">
        <ele>71.4</ele>
        <time>2018-06-10T10:19:09Z</time>
      </trkpt>
      <trkpt lat="38.6510640" lon="0.0377400">
        <ele>71.1</ele>
        <time>2018-06-10T10:19:10Z</time>
      </trkpt>
      <trkpt lat="38.6510050" lon="0.0377480">
        <ele>71.0</ele>
        <time>2018-06-10T10:19:11Z</time>
      </trkpt>
      <trkpt lat="38.6509480" lon="0.0377620">
        <ele>70.8</ele>
        <time>2018-06-10T10:19:12Z</time>
      </trkpt>
      <trkpt lat="38.6508930" lon="0.0377660">
        <ele>70.7</ele>
        <time>2018-06-10T10:19:13Z</time>
      </trkpt>
      <trkpt lat="38.6508300" lon="0.0377640">
        <ele>70.6</ele>
        <time>2018-06-10T10:19:14Z</time>
      </trkpt>
      <trkpt lat="38.6507730" lon="0.0377600">
        <ele>70.6</ele>
        <time>2018-06-10T10:19:15Z</time>
      </trkpt>
      <trkpt lat="38.6507090" lon="0.0377580">
        <ele>70.6</ele>
        <time>2018-06-10T10:19:16Z</time>
      </trkpt>
      <trkpt lat="38.6506480" lon="0.0377600">
        <ele>70.6</ele>
        <time>2018-06-10T10:19:17Z</time>
      </trkpt>
      <trkpt lat="38.6505860" lon="0.0377640">
        <ele>70.7</ele>
        <time>2018-06-10T10:19:18Z</time>
      </trkpt>
      <trkpt lat="38.6505260" lon="0.0377680">
        <ele>70.8</ele>
        <time>2018-06-10T10:19:19Z</time>
      </trkpt>
      <trkpt lat="38.6504580" lon="0.0377690">
        <ele>70.9</ele>
        <time>2018-06-10T10:19:20Z</time>
      </trkpt>
      <trkpt lat="38.6503890" lon="0.0377700">
        <ele>71.0</ele>
        <time>2018-06-10T10:19:21Z</time>
      </trkpt>
      <trkpt lat="38.6503190" lon="0.0377640">
        <ele>70.7</ele>
        <time>2018-06-10T10:19:22Z</time>
      </trkpt>
      <trkpt lat="38.6502450" lon="0.0377550">
        <ele>70.2</ele>
        <time>2018-06-10T10:19:23Z</time>
      </trkpt>
      <trkpt lat="38.6501750" lon="0.0377490">
        <ele>69.8</ele>
        <time>2018-06-10T10:19:24Z</time>
      </trkpt>
      <trkpt lat="38.6501180" lon="0.0377340">
        <ele>69.6</ele>
        <time>2018-06-10T10:19:25Z</time>
      </trkpt>
      <trkpt lat="38.6500690" lon="0.0377280">
        <ele>69.5</ele>
        <time>2018-06-10T10:19:26Z</time>
      </trkpt>
      <trkpt lat="38.6500210" lon="0.0377250">
        <ele>69.3</ele>
        <time>2018-06-10T10:19:27Z</time>
      </trkpt>
      <trkpt lat="38.6499670" lon="0.0377230">
        <ele>69.3</ele>
        <time>2018-06-10T10:19:28Z</time>
      </trkpt>
      <trkpt lat="38.6499100" lon="0.0377160">
        <ele>69.2</ele>
        <time>2018-06-10T10:19:29Z</time>
      </trkpt>
      <trkpt lat="38.6498600" lon="0.0377120">
        <ele>69.2</ele>
        <time>2018-06-10T10:19:30Z</time>
      </trkpt>
      <trkpt lat="38.6498040" lon="0.0377040">
        <ele>69.3</ele>
        <time>2018-06-10T10:19:31Z</time>
      </trkpt>
      <trkpt lat="38.6497460" lon="0.0376950">
        <ele>69.6</ele>
        <time>2018-06-10T10:19:32Z</time>
      </trkpt>
      <trkpt lat="38.6496900" lon="0.0376890">
        <ele>69.7</ele>
        <time>2018-06-10T10:19:33Z</time>
      </trkpt>
      <trkpt lat="38.6496320" lon="0.0376790">
        <ele>69.9</ele>
        <time>2018-06-10T10:19:34Z</time>
      </trkpt>
      <trkpt lat="38.6495710" lon="0.0376660">
        <ele>70.1</ele>
        <time>2018-06-10T10:19:35Z</time>
      </trkpt>
      <trkpt lat="38.6495150" lon="0.0376570">
        <ele>70.2</ele>
        <time>2018-06-10T10:19:36Z</time>
      </trkpt>
      <trkpt lat="38.6494520" lon="0.0376440">
        <ele>71.0</ele>
        <time>2018-06-10T10:19:37Z</time>
      </trkpt>
      <trkpt lat="38.6493900" lon="0.0376430">
        <ele>71.0</ele>
        <time>2018-06-10T10:19:38Z</time>
      </trkpt>
      <trkpt lat="38.6493230" lon="0.0376390">
        <ele>71.0</ele>
        <time>2018-06-10T10:19:39Z</time>
      </trkpt>
      <trkpt lat="38.6492660" lon="0.0376320">
        <ele>71.2</ele>
        <time>2018-06-10T10:19:40Z</time>
      </trkpt>
      <trkpt lat="38.6491950" lon="0.0376210">
        <ele>71.4</ele>
        <time>2018-06-10T10:19:41Z</time>
      </trkpt>
      <trkpt lat="38.6491360" lon="0.0375990">
        <ele>71.6</ele>
        <time>2018-06-10T10:19:42Z</time>
      </trkpt>
      <trkpt lat="38.6490850" lon="0.0375690">
        <ele>71.7</ele>
        <time>2018-06-10T10:19:43Z</time>
      </trkpt>
      <trkpt lat="38.6490300" lon="0.0375360">
        <ele>71.9</ele>
        <time>2018-06-10T10:19:44Z</time>
      </trkpt>
      <trkpt lat="38.6489750" lon="0.0375060">
        <ele>72.0</ele>
        <time>2018-06-10T10:19:45Z</time>
      </trkpt>
      <trkpt lat="38.6489140" lon="0.0374810">
        <ele>72.2</ele>
        <time>2018-06-10T10:19:46Z</time>
      </trkpt>
      <trkpt lat="38.6488460" lon="0.0374570">
        <ele>72.3</ele>
        <time>2018-06-10T10:19:47Z</time>
      </trkpt>
      <trkpt lat="38.6487850" lon="0.0374370">
        <ele>72.5</ele>
        <time>2018-06-10T10:19:48Z</time>
      </trkpt>
      <trkpt lat="38.6487300" lon="0.0374090">
        <ele>72.6</ele>
        <time>2018-06-10T10:19:49Z</time>
      </trkpt>
      <trkpt lat="38.6486720" lon="0.0373700">
        <ele>72.7</ele>
        <time>2018-06-10T10:19:50Z</time>
      </trkpt>
      <trkpt lat="38.6486170" lon="0.0373230">
        <ele>72.9</ele>
        <time>2018-06-10T10:19:51Z</time>
      </trkpt>
      <trkpt lat="38.6485690" lon="0.0372860">
        <ele>73.0</ele>
        <time>2018-06-10T10:19:52Z</time>
      </trkpt>
      <trkpt lat="38.6485250" lon="0.0372410">
        <ele>73.0</ele>
        <time>2018-06-10T10:19:53Z</time>
      </trkpt>
      <trkpt lat="38.6484780" lon="0.0371990">
        <ele>72.3</ele>
        <time>2018-06-10T10:19:54Z</time>
      </trkpt>
      <trkpt lat="38.6484330" lon="0.0371470">
        <ele>71.2</ele>
        <time>2018-06-10T10:19:55Z</time>
      </trkpt>
      <trkpt lat="38.6483850" lon="0.0371040">
        <ele>70.2</ele>
        <time>2018-06-10T10:19:56Z</time>
      </trkpt>
      <trkpt lat="38.6483390" lon="0.0370590">
        <ele>69.2</ele>
        <time>2018-06-10T10:19:57Z</time>
      </trkpt>
      <trkpt lat="38.6482910" lon="0.0370110">
        <ele>68.2</ele>
        <time>2018-06-10T10:19:58Z</time>
      </trkpt>
      <trkpt lat="38.6482430" lon="0.0369670">
        <ele>67.3</ele>
        <time>2018-06-10T10:19:59Z</time>
      </trkpt>
      <trkpt lat="38.6481930" lon="0.0369200">
        <ele>66.4</ele>
        <time>2018-06-10T10:20:00Z</time>
      </trkpt>
      <trkpt lat="38.6481450" lon="0.0368670">
        <ele>65.6</ele>
        <time>2018-06-10T10:20:01Z</time>
      </trkpt>
      <trkpt lat="38.6480980" lon="0.0368130">
        <ele>65.2</ele>
        <time>2018-06-10T10:20:02Z</time>
      </trkpt>
      <trkpt lat="38.6480480" lon="0.0367620">
        <ele>65.6</ele>
        <time>2018-06-10T10:20:03Z</time>
      </trkpt>
      <trkpt lat="38.6480010" lon="0.0367160">
        <ele>66.0</ele>
        <time>2018-06-10T10:20:04Z</time>
      </trkpt>
      <trkpt lat="38.6479490" lon="0.0366670">
        <ele>66.4</ele>
        <time>2018-06-10T10:20:05Z</time>
      </trkpt>
      <trkpt lat="38.6479010" lon="0.0366160">
        <ele>66.8</ele>
        <time>2018-06-10T10:20:06Z</time>
      </trkpt>
      <trkpt lat="38.6478560" lon="0.0365660">
        <ele>67.2</ele>
        <time>2018-06-10T10:20:07Z</time>
      </trkpt>
      <trkpt lat="38.6478060" lon="0.0365250">
        <ele>67.5</ele>
        <time>2018-06-10T10:20:08Z</time>
      </trkpt>
      <trkpt lat="38.6477550" lon="0.0364760">
        <ele>67.8</ele>
        <time>2018-06-10T10:20:09Z</time>
      </trkpt>
      <trkpt lat="38.6477100" lon="0.0364180">
        <ele>68.2</ele>
        <time>2018-06-10T10:20:10Z</time>
      </trkpt>
      <trkpt lat="38.6476640" lon="0.0363550">
        <ele>68.6</ele>
        <time>2018-06-10T10:20:11Z</time>
      </trkpt>
      <trkpt lat="38.6476120" lon="0.0363060">
        <ele>68.9</ele>
        <time>2018-06-10T10:20:12Z</time>
      </trkpt>
      <trkpt lat="38.6475560" lon="0.0362630">
        <ele>69.3</ele>
        <time>2018-06-10T10:20:13Z</time>
      </trkpt>
      <trkpt lat="38.6474990" lon="0.0362190">
        <ele>69.6</ele>
        <time>2018-06-10T10:20:14Z</time>
      </trkpt>
      <trkpt lat="38.6474440" lon="0.0361720">
        <ele>70.0</ele>
        <time>2018-06-10T10:20:15Z</time>
      </trkpt>
      <trkpt lat="38.6473810" lon="0.0361270">
        <ele>70.4</ele>
        <time>2018-06-10T10:20:16Z</time>
      </trkpt>
      <trkpt lat="38.6473250" lon="0.0360800">
        <ele>70.9</ele>
        <time>2018-06-10T10:20:17Z</time>
      </trkpt>
      <trkpt lat="38.6472670" lon="0.0360220">
        <ele>71.4</ele>
        <time>2018-06-10T10:20:18Z</time>
      </trkpt>
      <trkpt lat="38.6472170" lon="0.0359520">
        <ele>71.8</ele>
        <time>2018-06-10T10:20:19Z</time>
      </trkpt>
      <trkpt lat="38.6471650" lon="0.0358970">
        <ele>72.1</ele>
        <time>2018-06-10T10:20:20Z</time>
      </trkpt>
      <trkpt lat="38.6471150" lon="0.0358450">
        <ele>72.4</ele>
        <time>2018-06-10T10:20:21Z</time>
      </trkpt>
      <trkpt lat="38.6470640" lon="0.0357930">
        <ele>72.7</ele>
        <time>2018-06-10T10:20:22Z</time>
      </trkpt>
      <trkpt lat="38.6470160" lon="0.0357390">
        <ele>73.0</ele>
        <time>2018-06-10T10:20:23Z</time>
      </trkpt>
      <trkpt lat="38.6469680" lon="0.0356870">
        <ele>73.3</ele>
        <time>2018-06-10T10:20:24Z</time>
      </trkpt>
      <trkpt lat="38.6469190" lon="0.0356370">
        <ele>73.6</ele>
        <time>2018-06-10T10:20:25Z</time>
      </trkpt>
      <trkpt lat="38.6468720" lon="0.0355880">
        <ele>73.9</ele>
        <time>2018-06-10T10:20:26Z</time>
      </trkpt>
      <trkpt lat="38.6468260" lon="0.0355420">
        <ele>74.3</ele>
        <time>2018-06-10T10:20:27Z</time>
      </trkpt>
      <trkpt lat="38.6467810" lon="0.0354940">
        <ele>74.6</ele>
        <time>2018-06-10T10:20:28Z</time>
      </trkpt>
      <trkpt lat="38.6467370" lon="0.0354490">
        <ele>75.0</ele>
        <time>2018-06-10T10:20:29Z</time>
      </trkpt>
      <trkpt lat="38.6466990" lon="0.0353990">
        <ele>75.7</ele>
        <time>2018-06-10T10:20:30Z</time>
      </trkpt>
      <trkpt lat="38.6466600" lon="0.0353460">
        <ele>76.5</ele>
        <time>2018-06-10T10:20:31Z</time>
      </trkpt>
      <trkpt lat="38.6466300" lon="0.0352880">
        <ele>77.2</ele>
        <time>2018-06-10T10:20:32Z</time>
      </trkpt>
      <trkpt lat="38.6466040" lon="0.0352320">
        <ele>78.0</ele>
        <time>2018-06-10T10:20:33Z</time>
      </trkpt>
      <trkpt lat="38.6465810" lon="0.0351740">
        <ele>78.0</ele>
        <time>2018-06-10T10:20:34Z</time>
      </trkpt>
      <trkpt lat="38.6465640" lon="0.0351120">
        <ele>78.0</ele>
        <time>2018-06-10T10:20:35Z</time>
      </trkpt>
      <trkpt lat="38.6465470" lon="0.0350490">
        <ele>78.0</ele>
        <time>2018-06-10T10:20:36Z</time>
      </trkpt>
      <trkpt lat="38.6465280" lon="0.0349880">
        <ele>78.8</ele>
        <time>2018-06-10T10:20:37Z</time>
      </trkpt>
      <trkpt lat="38.6465110" lon="0.0349290">
        <ele>79.3</ele>
        <time>2018-06-10T10:20:38Z</time>
      </trkpt>
      <trkpt lat="38.6464940" lon="0.0348670">
        <ele>79.8</ele>
        <time>2018-06-10T10:20:39Z</time>
      </trkpt>
      <trkpt lat="38.6464750" lon="0.0348020">
        <ele>80.2</ele>
        <time>2018-06-10T10:20:40Z</time>
      </trkpt>
      <trkpt lat="38.6464550" lon="0.0347390">
        <ele>80.6</ele>
        <time>2018-06-10T10:20:41Z</time>
      </trkpt>
      <trkpt lat="38.6464360" lon="0.0346770">
        <ele>80.9</ele>
        <time>2018-06-10T10:20:42Z</time>
      </trkpt>
      <trkpt lat="38.6464120" lon="0.0346160">
        <ele>81.2</ele>
        <time>2018-06-10T10:20:43Z</time>
      </trkpt>
      <trkpt lat="38.6463870" lon="0.0345600">
        <ele>81.5</ele>
        <time>2018-06-10T10:20:44Z</time>
      </trkpt>
      <trkpt lat="38.6463570" lon="0.0345050">
        <ele>81.7</ele>
        <time>2018-06-10T10:20:45Z</time>
      </trkpt>
      <trkpt lat="38.6463130" lon="0.0344600">
        <ele>82.0</ele>
        <time>2018-06-10T10:20:46Z</time>
      </trkpt>
      <trkpt lat="38.6462450" lon="0.0344330">
        <ele>82.4</ele>
        <time>2018-06-10T10:20:47Z</time>
      </trkpt>
      <trkpt lat="38.6461740" lon="0.0344200">
        <ele>82.7</ele>
        <time>2018-06-10T10:20:48Z</time>
      </trkpt>
      <trkpt lat="38.6460940" lon="0.0344240">
        <ele>83.0</ele>
        <time>2018-06-10T10:20:49Z</time>
      </trkpt>
      <trkpt lat="38.6460250" lon="0.0344270">
        <ele>83.0</ele>
        <time>2018-06-10T10:20:50Z</time>
      </trkpt>
      <trkpt lat="38.6459510" lon="0.0344390">
        <ele>83.0</ele>
        <time>2018-06-10T10:20:51Z</time>
      </trkpt>
      <trkpt lat="38.6458690" lon="0.0344540">
        <ele>83.0</ele>
        <time>2018-06-10T10:20:52Z</time>
      </trkpt>
      <trkpt lat="38.6457820" lon="0.0345250">
        <ele>79.6</ele>
        <time>2018-06-10T10:20:53Z</time>
      </trkpt>
      <trkpt lat="38.6456910" lon="0.0346200">
        <ele>76.3</ele>
        <time>2018-06-10T10:20:54Z</time>
      </trkpt>
      <trkpt lat="38.6456220" lon="0.0347040">
        <ele>75.9</ele>
        <time>2018-06-10T10:20:55Z</time>
      </trkpt>
      <trkpt lat="38.6455900" lon="0.0348150">
        <ele>75.4</ele>
        <time>2018-06-10T10:20:56Z</time>
      </trkpt>
      <trkpt lat="38.6455810" lon="0.0349350">
        <ele>74.8</ele>
        <time>2018-06-10T10:20:57Z</time>
      </trkpt>
      <trkpt lat="38.6456060" lon="0.0350480">
        <ele>74.2</ele>
        <time>2018-06-10T10:20:58Z</time>
      </trkpt>
      <trkpt lat="38.6456010" lon="0.0351390">
        <ele>73.7</ele>
        <time>2018-06-10T10:20:59Z</time>
      </trkpt>
      <trkpt lat="38.6456050" lon="0.0352460">
        <ele>73.1</ele>
        <time>2018-06-10T10:21:00Z</time>
      </trkpt>
      <trkpt lat="38.6456140" lon="0.0353370">
        <ele>78.0</ele>
        <time>2018-06-10T10:21:01Z</time>
      </trkpt>
      <trkpt lat="38.6455980" lon="0.0354570">
        <ele>78.0</ele>
        <time>2018-06-10T10:21:02Z</time>
      </trkpt>
      <trkpt lat="38.6455750" lon="0.0355710">
        <ele>78.0</ele>
        <time>2018-06-10T10:21:03Z</time>
      </trkpt>
      <trkpt lat="38.6455510" lon="0.0356850">
        <ele>78.0</ele>
        <time>2018-06-10T10:21:04Z</time>
      </trkpt>
      <trkpt lat="38.6455190" lon="0.0358020">
        <ele>76.4</ele>
        <time>2018-06-10T10:21:05Z</time>
      </trkpt>
      <trkpt lat="38.6454870" lon="0.0359170">
        <ele>74.0</ele>
        <time>2018-06-10T10:21:06Z</time>
      </trkpt>
      <trkpt lat="38.6454450" lon="0.0360300">
        <ele>71.5</ele>
        <time>2018-06-10T10:21:07Z</time>
      </trkpt>
      <trkpt lat="38.6454080" lon="0.0361480">
        <ele>69.0</ele>
        <time>2018-06-10T10:21:08Z</time>
      </trkpt>
      <trkpt lat="38.6453750" lon="0.0362670">
        <ele>68.0</ele>
        <time>2018-06-10T10:21:09Z</time>
      </trkpt>
      <trkpt lat="38.6453480" lon="0.0363950">
        <ele>68.0</ele>
        <time>2018-06-10T10:21:10Z</time>
      </trkpt>
      <trkpt lat="38.6453180" lon="0.0365140">
        <ele>68.0</ele>
        <time>2018-06-10T10:21:11Z</time>
      </trkpt>
      <trkpt lat="38.6452920" lon="0.0366290">
        <ele>67.2</ele>
        <time>2018-06-10T10:21:12Z</time>
      </trkpt>
      <trkpt lat="38.6452620" lon="0.0367450">
        <ele>65.2</ele>
        <time>2018-06-10T10:21:13Z</time>
      </trkpt>
      <trkpt lat="38.6452250" lon="0.0368550">
        <ele>65.0</ele>
        <time>2018-06-10T10:21:14Z</time>
      </trkpt>
      <trkpt lat="38.6451800" lon="0.0369670">
        <ele>65.0</ele>
        <time>2018-06-10T10:21:15Z</time>
      </trkpt>
      <trkpt lat="38.6451040" lon="0.0370640">
        <ele>65.0</ele>
        <time>2018-06-10T10:21:16Z</time>
      </trkpt>
      <trkpt lat="38.6450250" lon="0.0371580">
        <ele>61.7</ele>
        <time>2018-06-10T10:21:17Z</time>
      </trkpt>
      <trkpt lat="38.6449410" lon="0.0372440">
        <ele>61.0</ele>
        <time>2018-06-10T10:21:18Z</time>
      </trkpt>
      <trkpt lat="38.6448450" lon="0.0373150">
        <ele>61.0</ele>
        <time>2018-06-10T10:21:19Z</time>
      </trkpt>
      <trkpt lat="38.6447390" lon="0.0373680">
        <ele>61.0</ele>
        <time>2018-06-10T10:21:20Z</time>
      </trkpt>
      <trkpt lat="38.6446370" lon="0.0374100">
        <ele>60.2</ele>
        <time>2018-06-10T10:21:21Z</time>
      </trkpt>
      <trkpt lat="38.6445320" lon="0.0374440">
        <ele>59.2</ele>
        <time>2018-06-10T10:21:22Z</time>
      </trkpt>
      <trkpt lat="38.6444420" lon="0.0374860">
        <ele>58.4</ele>
        <time>2018-06-10T10:21:23Z</time>
      </trkpt>
      <trkpt lat="38.6443440" lon="0.0375320">
        <ele>58.0</ele>
        <time>2018-06-10T10:21:24Z</time>
      </trkpt>
      <trkpt lat="38.6442550" lon="0.0375960">
        <ele>56.1</ele>
        <time>2018-06-10T10:21:25Z</time>
      </trkpt>
      <trkpt lat="38.6441820" lon="0.0376730">
        <ele>51.2</ele>
        <time>2018-06-10T10:21:26Z</time>
      </trkpt>
      <trkpt lat="38.6441040" lon="0.0377570">
        <ele>49.0</ele>
        <time>2018-06-10T10:21:27Z</time>
      </trkpt>
      <trkpt lat="38.6440310" lon="0.0378570">
        <ele>49.0</ele>
        <time>2018-06-10T10:21:28Z</time>
      </trkpt>
      <trkpt lat="38.6439530" lon="0.0379420">
        <ele>49.0</ele>
        <time>2018-06-10T10:21:29Z</time>
      </trkpt>
      <trkpt lat="38.6439020" lon="0.0380350">
        <ele>49.0</ele>
        <time>2018-06-10T10:21:30Z</time>
      </trkpt>
      <trkpt lat="38.6438570" lon="0.0381150">
        <ele>49.0</ele>
        <time>2018-06-10T10:21:31Z</time>
      </trkpt>
      <trkpt lat="38.6438420" lon="0.0382100">
        <ele>49.0</ele>
        <time>2018-06-10T10:21:32Z</time>
      </trkpt>
      <trkpt lat="38.6438770" lon="0.0383110">
        <ele>49.0</ele>
        <time>2018-06-10T10:21:33Z</time>
      </trkpt>
      <trkpt lat="38.6439080" lon="0.0384180">
        <ele>49.0</ele>
        <time>2018-06-10T10:21:34Z</time>
      </trkpt>
      <trkpt lat="38.6440060" lon="0.0385110">
        <ele>49.0</ele>
        <time>2018-06-10T10:21:35Z</time>
      </trkpt>
      <trkpt lat="38.6441280" lon="0.0385890">
        <ele>49.1</ele>
        <time>2018-06-10T10:21:36Z</time>
      </trkpt>
      <trkpt lat="38.6441780" lon="0.0386670">
        <ele>52.2</ele>
        <time>2018-06-10T10:21:37Z</time>
      </trkpt>
      <trkpt lat="38.6441950" lon="0.0387620">
        <ele>57.0</ele>
        <time>2018-06-10T10:21:38Z</time>
      </trkpt>
      <trkpt lat="38.6442100" lon="0.0388580">
        <ele>57.0</ele>
        <time>2018-06-10T10:21:39Z</time>
      </trkpt>
      <trkpt lat="38.6442260" lon="0.0389430">
        <ele>57.5</ele>
        <time>2018-06-10T10:21:40Z</time>
      </trkpt>
      <trkpt lat="38.6442430" lon="0.0390210">
        <ele>57.9</ele>
        <time>2018-06-10T10:21:41Z</time>
      </trkpt>
      <trkpt lat="38.6442600" lon="0.0390910">
        <ele>58.3</ele>
        <time>2018-06-10T10:21:42Z</time>
      </trkpt>
      <trkpt lat="38.6442770" lon="0.0391490">
        <ele>58.6</ele>
        <time>2018-06-10T10:21:43Z</time>
      </trkpt>
      <trkpt lat="38.6442930" lon="0.0392010">
        <ele>58.9</ele>
        <time>2018-06-10T10:21:44Z</time>
      </trkpt>
      <trkpt lat="38.6443100" lon="0.0392420">
        <ele>59.1</ele>
        <time>2018-06-10T10:21:45Z</time>
      </trkpt>
      <trkpt lat="38.6443320" lon="0.0392660">
        <ele>59.3</ele>
        <time>2018-06-10T10:21:47Z</time>
      </trkpt>
      <trkpt lat="38.6443310" lon="0.0392020">
        <ele>60.0</ele>
        <time>2018-06-10T10:21:49Z</time>
      </trkpt>
      <trkpt lat="38.6443000" lon="0.0391890">
        <ele>60.0</ele>
        <time>2018-06-10T10:21:51Z</time>
      </trkpt>
    </trkseg>
  </trk>
</gpx>
